<?xml version="1.0" encoding="UTF-8" standalone="no" ?>
<gpx xmlns="http://www.topografix.com/GPX/1/1" xmlns:xsi="http://www.w3.org/2001/XMLSchema-instance" xsi:schemaLocation="http://www.topografix.com/GPX/1/1 http://www.topografix.com/GPX/1/1/gpx.xsd" version="1.1" creator="VisuGPX - https://www.visugpx.com">
  <metadata>
    <name>rando vtt de Couetmieux</name>
    <desc><![CDATA[tracé de la rando vtt du 26/05/13 
mélange entre du technique et du roulant 
très sympa
conseil  ne partez pas seul]]></desc>
  </metadata>
  <trk>
    <name><![CDATA[Couetmieux]]></name>
    <desc><![CDATA[]]></desc>
    <trkseg>
      <trkpt lat="48.49114" lon="-2.60217">
        <ele>101.8</ele>
        <time>2013-05-26T07:11:54.000Z</time>
      </trkpt>
      <trkpt lat="48.49111" lon="-2.60215">
        <ele>103</ele>
        <time>2013-05-26T07:12:09.000Z</time>
      </trkpt>
      <trkpt lat="48.4911" lon="-2.60216">
        <ele>102.9</ele>
        <time>2013-05-26T07:12:10.000Z</time>
      </trkpt>
      <trkpt lat="48.49112" lon="-2.6021">
        <ele>102.2</ele>
        <time>2013-05-26T07:12:44.000Z</time>
      </trkpt>
      <trkpt lat="48.49111" lon="-2.60208">
        <ele>102.9</ele>
        <time>2013-05-26T07:12:45.000Z</time>
      </trkpt>
      <trkpt lat="48.49111" lon="-2.60203">
        <ele>103.7</ele>
        <time>2013-05-26T07:12:47.000Z</time>
      </trkpt>
      <trkpt lat="48.4911" lon="-2.602">
        <ele>103.5</ele>
        <time>2013-05-26T07:12:48.000Z</time>
      </trkpt>
      <trkpt lat="48.4911" lon="-2.60197">
        <ele>103.3</ele>
        <time>2013-05-26T07:12:49.000Z</time>
      </trkpt>
      <trkpt lat="48.4911" lon="-2.60193">
        <ele>103.2</ele>
        <time>2013-05-26T07:12:50.000Z</time>
      </trkpt>
      <trkpt lat="48.49109" lon="-2.60189">
        <ele>103.1</ele>
        <time>2013-05-26T07:12:51.000Z</time>
      </trkpt>
      <trkpt lat="48.4911" lon="-2.60185">
        <ele>103.4</ele>
        <time>2013-05-26T07:12:52.000Z</time>
      </trkpt>
      <trkpt lat="48.49109" lon="-2.6018">
        <ele>103.6</ele>
        <time>2013-05-26T07:12:53.000Z</time>
      </trkpt>
      <trkpt lat="48.49109" lon="-2.60175">
        <ele>103.6</ele>
        <time>2013-05-26T07:12:54.000Z</time>
      </trkpt>
      <trkpt lat="48.49109" lon="-2.60171">
        <ele>103.6</ele>
        <time>2013-05-26T07:12:55.000Z</time>
      </trkpt>
      <trkpt lat="48.49109" lon="-2.60166">
        <ele>103.3</ele>
        <time>2013-05-26T07:12:56.000Z</time>
      </trkpt>
      <trkpt lat="48.49109" lon="-2.60161">
        <ele>103.1</ele>
        <time>2013-05-26T07:12:57.000Z</time>
      </trkpt>
      <trkpt lat="48.49109" lon="-2.60156">
        <ele>103</ele>
        <time>2013-05-26T07:12:58.000Z</time>
      </trkpt>
      <trkpt lat="48.49109" lon="-2.6015">
        <ele>102.9</ele>
        <time>2013-05-26T07:12:59.000Z</time>
      </trkpt>
      <trkpt lat="48.49109" lon="-2.60146">
        <ele>102.7</ele>
        <time>2013-05-26T07:13:00.000Z</time>
      </trkpt>
      <trkpt lat="48.49109" lon="-2.60142">
        <ele>102.7</ele>
        <time>2013-05-26T07:13:01.000Z</time>
      </trkpt>
      <trkpt lat="48.4911" lon="-2.60138">
        <ele>102.7</ele>
        <time>2013-05-26T07:13:02.000Z</time>
      </trkpt>
      <trkpt lat="48.4911" lon="-2.60132">
        <ele>102.9</ele>
        <time>2013-05-26T07:13:03.000Z</time>
      </trkpt>
      <trkpt lat="48.4911" lon="-2.60127">
        <ele>103</ele>
        <time>2013-05-26T07:13:04.000Z</time>
      </trkpt>
      <trkpt lat="48.49111" lon="-2.60121">
        <ele>103.2</ele>
        <time>2013-05-26T07:13:05.000Z</time>
      </trkpt>
      <trkpt lat="48.49111" lon="-2.60116">
        <ele>103.2</ele>
        <time>2013-05-26T07:13:06.000Z</time>
      </trkpt>
      <trkpt lat="48.49111" lon="-2.60111">
        <ele>103.3</ele>
        <time>2013-05-26T07:13:07.000Z</time>
      </trkpt>
      <trkpt lat="48.4911" lon="-2.60106">
        <ele>103.1</ele>
        <time>2013-05-26T07:13:08.000Z</time>
      </trkpt>
      <trkpt lat="48.49107" lon="-2.60101">
        <ele>103.1</ele>
        <time>2013-05-26T07:13:10.000Z</time>
      </trkpt>
      <trkpt lat="48.49104" lon="-2.60099">
        <ele>103.1</ele>
        <time>2013-05-26T07:13:11.000Z</time>
      </trkpt>
      <trkpt lat="48.49101" lon="-2.60097">
        <ele>103.1</ele>
        <time>2013-05-26T07:13:12.000Z</time>
      </trkpt>
      <trkpt lat="48.49098" lon="-2.60095">
        <ele>103</ele>
        <time>2013-05-26T07:13:13.000Z</time>
      </trkpt>
      <trkpt lat="48.49095" lon="-2.60094">
        <ele>103.3</ele>
        <time>2013-05-26T07:13:14.000Z</time>
      </trkpt>
      <trkpt lat="48.49092" lon="-2.60092">
        <ele>103.6</ele>
        <time>2013-05-26T07:13:15.000Z</time>
      </trkpt>
      <trkpt lat="48.49089" lon="-2.60092">
        <ele>103.8</ele>
        <time>2013-05-26T07:13:16.000Z</time>
      </trkpt>
      <trkpt lat="48.49085" lon="-2.60091">
        <ele>103.9</ele>
        <time>2013-05-26T07:13:17.000Z</time>
      </trkpt>
      <trkpt lat="48.49078" lon="-2.60095">
        <ele>101.5</ele>
        <time>2013-05-26T07:13:20.000Z</time>
      </trkpt>
      <trkpt lat="48.49074" lon="-2.60097">
        <ele>100</ele>
        <time>2013-05-26T07:13:22.000Z</time>
      </trkpt>
      <trkpt lat="48.49072" lon="-2.60099">
        <ele>105.4</ele>
        <time>2013-05-26T07:13:23.000Z</time>
      </trkpt>
      <trkpt lat="48.49069" lon="-2.601">
        <ele>106.8</ele>
        <time>2013-05-26T07:13:24.000Z</time>
      </trkpt>
      <trkpt lat="48.49064" lon="-2.601">
        <ele>107.1</ele>
        <time>2013-05-26T07:13:25.000Z</time>
      </trkpt>
      <trkpt lat="48.49061" lon="-2.601">
        <ele>108.7</ele>
        <time>2013-05-26T07:13:26.000Z</time>
      </trkpt>
      <trkpt lat="48.49056" lon="-2.60101">
        <ele>108.2</ele>
        <time>2013-05-26T07:13:27.000Z</time>
      </trkpt>
      <trkpt lat="48.49051" lon="-2.60102">
        <ele>108.1</ele>
        <time>2013-05-26T07:13:28.000Z</time>
      </trkpt>
      <trkpt lat="48.49047" lon="-2.60103">
        <ele>109.1</ele>
        <time>2013-05-26T07:13:29.000Z</time>
      </trkpt>
      <trkpt lat="48.49044" lon="-2.60105">
        <ele>109.3</ele>
        <time>2013-05-26T07:13:30.000Z</time>
      </trkpt>
      <trkpt lat="48.4904" lon="-2.60107">
        <ele>109.7</ele>
        <time>2013-05-26T07:13:31.000Z</time>
      </trkpt>
      <trkpt lat="48.49035" lon="-2.60109">
        <ele>109.9</ele>
        <time>2013-05-26T07:13:32.000Z</time>
      </trkpt>
      <trkpt lat="48.49031" lon="-2.6011">
        <ele>109.7</ele>
        <time>2013-05-26T07:13:33.000Z</time>
      </trkpt>
      <trkpt lat="48.49027" lon="-2.60112">
        <ele>109.5</ele>
        <time>2013-05-26T07:13:34.000Z</time>
      </trkpt>
      <trkpt lat="48.49023" lon="-2.60113">
        <ele>109.4</ele>
        <time>2013-05-26T07:13:35.000Z</time>
      </trkpt>
      <trkpt lat="48.49019" lon="-2.60115">
        <ele>109.1</ele>
        <time>2013-05-26T07:13:36.000Z</time>
      </trkpt>
      <trkpt lat="48.49015" lon="-2.60117">
        <ele>109.1</ele>
        <time>2013-05-26T07:13:37.000Z</time>
      </trkpt>
      <trkpt lat="48.4901" lon="-2.60118">
        <ele>109.1</ele>
        <time>2013-05-26T07:13:38.000Z</time>
      </trkpt>
      <trkpt lat="48.49006" lon="-2.6012">
        <ele>108.9</ele>
        <time>2013-05-26T07:13:39.000Z</time>
      </trkpt>
      <trkpt lat="48.49002" lon="-2.60121">
        <ele>108.9</ele>
        <time>2013-05-26T07:13:40.000Z</time>
      </trkpt>
      <trkpt lat="48.48999" lon="-2.60122">
        <ele>110.9</ele>
        <time>2013-05-26T07:13:41.000Z</time>
      </trkpt>
      <trkpt lat="48.48994" lon="-2.60122">
        <ele>111.1</ele>
        <time>2013-05-26T07:13:42.000Z</time>
      </trkpt>
      <trkpt lat="48.4899" lon="-2.60123">
        <ele>111.6</ele>
        <time>2013-05-26T07:13:43.000Z</time>
      </trkpt>
      <trkpt lat="48.48986" lon="-2.60123">
        <ele>112.4</ele>
        <time>2013-05-26T07:13:44.000Z</time>
      </trkpt>
      <trkpt lat="48.48983" lon="-2.60125">
        <ele>114.2</ele>
        <time>2013-05-26T07:13:45.000Z</time>
      </trkpt>
      <trkpt lat="48.48979" lon="-2.60126">
        <ele>114.4</ele>
        <time>2013-05-26T07:13:46.000Z</time>
      </trkpt>
      <trkpt lat="48.48975" lon="-2.60127">
        <ele>114.9</ele>
        <time>2013-05-26T07:13:47.000Z</time>
      </trkpt>
      <trkpt lat="48.48972" lon="-2.60128">
        <ele>115.5</ele>
        <time>2013-05-26T07:13:48.000Z</time>
      </trkpt>
      <trkpt lat="48.48967" lon="-2.60128">
        <ele>114.3</ele>
        <time>2013-05-26T07:13:49.000Z</time>
      </trkpt>
      <trkpt lat="48.48964" lon="-2.60128">
        <ele>114.9</ele>
        <time>2013-05-26T07:13:50.000Z</time>
      </trkpt>
      <trkpt lat="48.4896" lon="-2.60128">
        <ele>114.9</ele>
        <time>2013-05-26T07:13:51.000Z</time>
      </trkpt>
      <trkpt lat="48.48956" lon="-2.60126">
        <ele>115</ele>
        <time>2013-05-26T07:13:52.000Z</time>
      </trkpt>
      <trkpt lat="48.48952" lon="-2.60126">
        <ele>115.2</ele>
        <time>2013-05-26T07:13:53.000Z</time>
      </trkpt>
      <trkpt lat="48.48948" lon="-2.60126">
        <ele>115.2</ele>
        <time>2013-05-26T07:13:54.000Z</time>
      </trkpt>
      <trkpt lat="48.48944" lon="-2.60126">
        <ele>115.2</ele>
        <time>2013-05-26T07:13:55.000Z</time>
      </trkpt>
      <trkpt lat="48.48941" lon="-2.60127">
        <ele>114.9</ele>
        <time>2013-05-26T07:13:56.000Z</time>
      </trkpt>
      <trkpt lat="48.48937" lon="-2.60128">
        <ele>114.7</ele>
        <time>2013-05-26T07:13:57.000Z</time>
      </trkpt>
      <trkpt lat="48.48933" lon="-2.60128">
        <ele>114.8</ele>
        <time>2013-05-26T07:13:58.000Z</time>
      </trkpt>
      <trkpt lat="48.48928" lon="-2.60127">
        <ele>114.4</ele>
        <time>2013-05-26T07:13:59.000Z</time>
      </trkpt>
      <trkpt lat="48.48924" lon="-2.60126">
        <ele>114.4</ele>
        <time>2013-05-26T07:14:00.000Z</time>
      </trkpt>
      <trkpt lat="48.4892" lon="-2.60126">
        <ele>114.6</ele>
        <time>2013-05-26T07:14:01.000Z</time>
      </trkpt>
      <trkpt lat="48.48916" lon="-2.60125">
        <ele>114.9</ele>
        <time>2013-05-26T07:14:02.000Z</time>
      </trkpt>
      <trkpt lat="48.48913" lon="-2.60124">
        <ele>114.9</ele>
        <time>2013-05-26T07:14:03.000Z</time>
      </trkpt>
      <trkpt lat="48.48909" lon="-2.60124">
        <ele>115</ele>
        <time>2013-05-26T07:14:04.000Z</time>
      </trkpt>
      <trkpt lat="48.48906" lon="-2.60124">
        <ele>114.8</ele>
        <time>2013-05-26T07:14:05.000Z</time>
      </trkpt>
      <trkpt lat="48.48902" lon="-2.60124">
        <ele>114.7</ele>
        <time>2013-05-26T07:14:06.000Z</time>
      </trkpt>
      <trkpt lat="48.48898" lon="-2.60123">
        <ele>114.5</ele>
        <time>2013-05-26T07:14:07.000Z</time>
      </trkpt>
      <trkpt lat="48.48894" lon="-2.60124">
        <ele>114.6</ele>
        <time>2013-05-26T07:14:08.000Z</time>
      </trkpt>
      <trkpt lat="48.4889" lon="-2.60124">
        <ele>114.5</ele>
        <time>2013-05-26T07:14:09.000Z</time>
      </trkpt>
      <trkpt lat="48.48886" lon="-2.60124">
        <ele>114.2</ele>
        <time>2013-05-26T07:14:10.000Z</time>
      </trkpt>
      <trkpt lat="48.48882" lon="-2.60124">
        <ele>114.1</ele>
        <time>2013-05-26T07:14:11.000Z</time>
      </trkpt>
      <trkpt lat="48.48877" lon="-2.60125">
        <ele>114</ele>
        <time>2013-05-26T07:14:12.000Z</time>
      </trkpt>
      <trkpt lat="48.48873" lon="-2.60124">
        <ele>113.9</ele>
        <time>2013-05-26T07:14:13.000Z</time>
      </trkpt>
      <trkpt lat="48.4887" lon="-2.60124">
        <ele>114</ele>
        <time>2013-05-26T07:14:14.000Z</time>
      </trkpt>
      <trkpt lat="48.48865" lon="-2.60124">
        <ele>113.9</ele>
        <time>2013-05-26T07:14:15.000Z</time>
      </trkpt>
      <trkpt lat="48.48861" lon="-2.60125">
        <ele>114</ele>
        <time>2013-05-26T07:14:16.000Z</time>
      </trkpt>
      <trkpt lat="48.48856" lon="-2.60125">
        <ele>114.2</ele>
        <time>2013-05-26T07:14:17.000Z</time>
      </trkpt>
      <trkpt lat="48.48832" lon="-2.60129">
        <ele>113.3</ele>
        <time>2013-05-26T07:14:20.000Z</time>
      </trkpt>
      <trkpt lat="48.48822" lon="-2.60128">
        <ele>108.5</ele>
        <time>2013-05-26T07:14:22.000Z</time>
      </trkpt>
      <trkpt lat="48.48818" lon="-2.60128">
        <ele>108.6</ele>
        <time>2013-05-26T07:14:23.000Z</time>
      </trkpt>
      <trkpt lat="48.48814" lon="-2.60128">
        <ele>109.2</ele>
        <time>2013-05-26T07:14:24.000Z</time>
      </trkpt>
      <trkpt lat="48.48811" lon="-2.60128">
        <ele>112.3</ele>
        <time>2013-05-26T07:14:25.000Z</time>
      </trkpt>
      <trkpt lat="48.48808" lon="-2.60128">
        <ele>114.6</ele>
        <time>2013-05-26T07:14:26.000Z</time>
      </trkpt>
      <trkpt lat="48.48804" lon="-2.60128">
        <ele>116.1</ele>
        <time>2013-05-26T07:14:27.000Z</time>
      </trkpt>
      <trkpt lat="48.488" lon="-2.60127">
        <ele>118.1</ele>
        <time>2013-05-26T07:14:28.000Z</time>
      </trkpt>
      <trkpt lat="48.48795" lon="-2.60126">
        <ele>116.7</ele>
        <time>2013-05-26T07:14:29.000Z</time>
      </trkpt>
      <trkpt lat="48.4879" lon="-2.60126">
        <ele>117.4</ele>
        <time>2013-05-26T07:14:30.000Z</time>
      </trkpt>
      <trkpt lat="48.48785" lon="-2.60127">
        <ele>117.3</ele>
        <time>2013-05-26T07:14:31.000Z</time>
      </trkpt>
      <trkpt lat="48.4878" lon="-2.60129">
        <ele>117.2</ele>
        <time>2013-05-26T07:14:32.000Z</time>
      </trkpt>
      <trkpt lat="48.48775" lon="-2.6013">
        <ele>118.1</ele>
        <time>2013-05-26T07:14:33.000Z</time>
      </trkpt>
      <trkpt lat="48.4877" lon="-2.60133">
        <ele>117.5</ele>
        <time>2013-05-26T07:14:34.000Z</time>
      </trkpt>
      <trkpt lat="48.48764" lon="-2.60136">
        <ele>116.2</ele>
        <time>2013-05-26T07:14:35.000Z</time>
      </trkpt>
      <trkpt lat="48.4876" lon="-2.60139">
        <ele>115.3</ele>
        <time>2013-05-26T07:14:36.000Z</time>
      </trkpt>
      <trkpt lat="48.48755" lon="-2.60143">
        <ele>115.7</ele>
        <time>2013-05-26T07:14:37.000Z</time>
      </trkpt>
      <trkpt lat="48.48751" lon="-2.60147">
        <ele>115.4</ele>
        <time>2013-05-26T07:14:38.000Z</time>
      </trkpt>
      <trkpt lat="48.48746" lon="-2.60151">
        <ele>115.5</ele>
        <time>2013-05-26T07:14:39.000Z</time>
      </trkpt>
      <trkpt lat="48.48741" lon="-2.60156">
        <ele>115</ele>
        <time>2013-05-26T07:14:40.000Z</time>
      </trkpt>
      <trkpt lat="48.48737" lon="-2.60159">
        <ele>114</ele>
        <time>2013-05-26T07:14:41.000Z</time>
      </trkpt>
      <trkpt lat="48.48732" lon="-2.60163">
        <ele>113.3</ele>
        <time>2013-05-26T07:14:42.000Z</time>
      </trkpt>
      <trkpt lat="48.48728" lon="-2.60166">
        <ele>112.5</ele>
        <time>2013-05-26T07:14:43.000Z</time>
      </trkpt>
      <trkpt lat="48.48723" lon="-2.6017">
        <ele>112.1</ele>
        <time>2013-05-26T07:14:44.000Z</time>
      </trkpt>
      <trkpt lat="48.48718" lon="-2.60173">
        <ele>112.3</ele>
        <time>2013-05-26T07:14:45.000Z</time>
      </trkpt>
      <trkpt lat="48.48713" lon="-2.60177">
        <ele>113</ele>
        <time>2013-05-26T07:14:46.000Z</time>
      </trkpt>
      <trkpt lat="48.48709" lon="-2.6018">
        <ele>112.6</ele>
        <time>2013-05-26T07:14:47.000Z</time>
      </trkpt>
      <trkpt lat="48.48704" lon="-2.60184">
        <ele>111.6</ele>
        <time>2013-05-26T07:14:48.000Z</time>
      </trkpt>
      <trkpt lat="48.48699" lon="-2.60187">
        <ele>111.6</ele>
        <time>2013-05-26T07:14:49.000Z</time>
      </trkpt>
      <trkpt lat="48.48694" lon="-2.60191">
        <ele>111.4</ele>
        <time>2013-05-26T07:14:50.000Z</time>
      </trkpt>
      <trkpt lat="48.48689" lon="-2.60194">
        <ele>111</ele>
        <time>2013-05-26T07:14:51.000Z</time>
      </trkpt>
      <trkpt lat="48.48683" lon="-2.60197">
        <ele>110.6</ele>
        <time>2013-05-26T07:14:52.000Z</time>
      </trkpt>
      <trkpt lat="48.48678" lon="-2.602">
        <ele>109.8</ele>
        <time>2013-05-26T07:14:53.000Z</time>
      </trkpt>
      <trkpt lat="48.48673" lon="-2.60205">
        <ele>109.4</ele>
        <time>2013-05-26T07:14:54.000Z</time>
      </trkpt>
      <trkpt lat="48.48668" lon="-2.60209">
        <ele>109.1</ele>
        <time>2013-05-26T07:14:55.000Z</time>
      </trkpt>
      <trkpt lat="48.48663" lon="-2.60213">
        <ele>108.8</ele>
        <time>2013-05-26T07:14:56.000Z</time>
      </trkpt>
      <trkpt lat="48.48658" lon="-2.60217">
        <ele>108.4</ele>
        <time>2013-05-26T07:14:57.000Z</time>
      </trkpt>
      <trkpt lat="48.48654" lon="-2.60222">
        <ele>108.4</ele>
        <time>2013-05-26T07:14:58.000Z</time>
      </trkpt>
      <trkpt lat="48.48649" lon="-2.60228">
        <ele>108.5</ele>
        <time>2013-05-26T07:14:59.000Z</time>
      </trkpt>
      <trkpt lat="48.48645" lon="-2.60235">
        <ele>108.1</ele>
        <time>2013-05-26T07:15:00.000Z</time>
      </trkpt>
      <trkpt lat="48.48642" lon="-2.60242">
        <ele>107.8</ele>
        <time>2013-05-26T07:15:01.000Z</time>
      </trkpt>
      <trkpt lat="48.48639" lon="-2.6025">
        <ele>107.5</ele>
        <time>2013-05-26T07:15:02.000Z</time>
      </trkpt>
      <trkpt lat="48.48638" lon="-2.60258">
        <ele>107.7</ele>
        <time>2013-05-26T07:15:03.000Z</time>
      </trkpt>
      <trkpt lat="48.48638" lon="-2.60267">
        <ele>107.6</ele>
        <time>2013-05-26T07:15:04.000Z</time>
      </trkpt>
      <trkpt lat="48.48638" lon="-2.60276">
        <ele>107.5</ele>
        <time>2013-05-26T07:15:05.000Z</time>
      </trkpt>
      <trkpt lat="48.48638" lon="-2.60285">
        <ele>107.1</ele>
        <time>2013-05-26T07:15:06.000Z</time>
      </trkpt>
      <trkpt lat="48.48639" lon="-2.60294">
        <ele>107</ele>
        <time>2013-05-26T07:15:07.000Z</time>
      </trkpt>
      <trkpt lat="48.4864" lon="-2.60303">
        <ele>106.9</ele>
        <time>2013-05-26T07:15:08.000Z</time>
      </trkpt>
      <trkpt lat="48.4864" lon="-2.60312">
        <ele>106.7</ele>
        <time>2013-05-26T07:15:09.000Z</time>
      </trkpt>
      <trkpt lat="48.4864" lon="-2.60322">
        <ele>106.6</ele>
        <time>2013-05-26T07:15:10.000Z</time>
      </trkpt>
      <trkpt lat="48.4864" lon="-2.60331">
        <ele>106.3</ele>
        <time>2013-05-26T07:15:11.000Z</time>
      </trkpt>
      <trkpt lat="48.48639" lon="-2.60341">
        <ele>106.4</ele>
        <time>2013-05-26T07:15:12.000Z</time>
      </trkpt>
      <trkpt lat="48.48638" lon="-2.6035">
        <ele>106.1</ele>
        <time>2013-05-26T07:15:13.000Z</time>
      </trkpt>
      <trkpt lat="48.48636" lon="-2.6036">
        <ele>105.9</ele>
        <time>2013-05-26T07:15:14.000Z</time>
      </trkpt>
      <trkpt lat="48.48634" lon="-2.60368">
        <ele>105.7</ele>
        <time>2013-05-26T07:15:15.000Z</time>
      </trkpt>
      <trkpt lat="48.48632" lon="-2.60377">
        <ele>105.4</ele>
        <time>2013-05-26T07:15:16.000Z</time>
      </trkpt>
      <trkpt lat="48.48629" lon="-2.60386">
        <ele>105.2</ele>
        <time>2013-05-26T07:15:17.000Z</time>
      </trkpt>
      <trkpt lat="48.4862" lon="-2.60425">
        <ele>97.3</ele>
        <time>2013-05-26T07:15:21.000Z</time>
      </trkpt>
      <trkpt lat="48.48619" lon="-2.60434">
        <ele>101</ele>
        <time>2013-05-26T07:15:22.000Z</time>
      </trkpt>
      <trkpt lat="48.48617" lon="-2.60442">
        <ele>99.3</ele>
        <time>2013-05-26T07:15:23.000Z</time>
      </trkpt>
      <trkpt lat="48.48613" lon="-2.60449">
        <ele>97.5</ele>
        <time>2013-05-26T07:15:24.000Z</time>
      </trkpt>
      <trkpt lat="48.4861" lon="-2.60458">
        <ele>100</ele>
        <time>2013-05-26T07:15:25.000Z</time>
      </trkpt>
      <trkpt lat="48.48608" lon="-2.60466">
        <ele>98.8</ele>
        <time>2013-05-26T07:15:26.000Z</time>
      </trkpt>
      <trkpt lat="48.48607" lon="-2.60475">
        <ele>99.7</ele>
        <time>2013-05-26T07:15:27.000Z</time>
      </trkpt>
      <trkpt lat="48.48605" lon="-2.60483">
        <ele>100.5</ele>
        <time>2013-05-26T07:15:28.000Z</time>
      </trkpt>
      <trkpt lat="48.48602" lon="-2.6049">
        <ele>100.1</ele>
        <time>2013-05-26T07:15:29.000Z</time>
      </trkpt>
      <trkpt lat="48.486" lon="-2.60499">
        <ele>100.3</ele>
        <time>2013-05-26T07:15:30.000Z</time>
      </trkpt>
      <trkpt lat="48.48598" lon="-2.60507">
        <ele>100.7</ele>
        <time>2013-05-26T07:15:31.000Z</time>
      </trkpt>
      <trkpt lat="48.48596" lon="-2.60515">
        <ele>100.8</ele>
        <time>2013-05-26T07:15:32.000Z</time>
      </trkpt>
      <trkpt lat="48.48593" lon="-2.60524">
        <ele>100.8</ele>
        <time>2013-05-26T07:15:33.000Z</time>
      </trkpt>
      <trkpt lat="48.48591" lon="-2.60532">
        <ele>100.8</ele>
        <time>2013-05-26T07:15:34.000Z</time>
      </trkpt>
      <trkpt lat="48.48589" lon="-2.6054">
        <ele>100.9</ele>
        <time>2013-05-26T07:15:35.000Z</time>
      </trkpt>
      <trkpt lat="48.48587" lon="-2.60548">
        <ele>100.9</ele>
        <time>2013-05-26T07:15:36.000Z</time>
      </trkpt>
      <trkpt lat="48.48585" lon="-2.60557">
        <ele>101.3</ele>
        <time>2013-05-26T07:15:37.000Z</time>
      </trkpt>
      <trkpt lat="48.48582" lon="-2.60565">
        <ele>101.4</ele>
        <time>2013-05-26T07:15:38.000Z</time>
      </trkpt>
      <trkpt lat="48.4858" lon="-2.60573">
        <ele>101.2</ele>
        <time>2013-05-26T07:15:39.000Z</time>
      </trkpt>
      <trkpt lat="48.48578" lon="-2.60581">
        <ele>101.3</ele>
        <time>2013-05-26T07:15:40.000Z</time>
      </trkpt>
      <trkpt lat="48.48575" lon="-2.6059">
        <ele>101.3</ele>
        <time>2013-05-26T07:15:41.000Z</time>
      </trkpt>
      <trkpt lat="48.48573" lon="-2.60598">
        <ele>101.1</ele>
        <time>2013-05-26T07:15:42.000Z</time>
      </trkpt>
      <trkpt lat="48.48571" lon="-2.60607">
        <ele>101.2</ele>
        <time>2013-05-26T07:15:43.000Z</time>
      </trkpt>
      <trkpt lat="48.48569" lon="-2.60615">
        <ele>101.2</ele>
        <time>2013-05-26T07:15:44.000Z</time>
      </trkpt>
      <trkpt lat="48.48566" lon="-2.60623">
        <ele>101.3</ele>
        <time>2013-05-26T07:15:45.000Z</time>
      </trkpt>
      <trkpt lat="48.48564" lon="-2.60631">
        <ele>101.1</ele>
        <time>2013-05-26T07:15:46.000Z</time>
      </trkpt>
      <trkpt lat="48.48562" lon="-2.6064">
        <ele>101.1</ele>
        <time>2013-05-26T07:15:47.000Z</time>
      </trkpt>
      <trkpt lat="48.48562" lon="-2.60648">
        <ele>100.8</ele>
        <time>2013-05-26T07:15:48.000Z</time>
      </trkpt>
      <trkpt lat="48.48561" lon="-2.60657">
        <ele>100.6</ele>
        <time>2013-05-26T07:15:49.000Z</time>
      </trkpt>
      <trkpt lat="48.48561" lon="-2.60666">
        <ele>100.3</ele>
        <time>2013-05-26T07:15:50.000Z</time>
      </trkpt>
      <trkpt lat="48.4856" lon="-2.60674">
        <ele>100.3</ele>
        <time>2013-05-26T07:15:51.000Z</time>
      </trkpt>
      <trkpt lat="48.4856" lon="-2.60683">
        <ele>100.2</ele>
        <time>2013-05-26T07:15:52.000Z</time>
      </trkpt>
      <trkpt lat="48.4856" lon="-2.60691">
        <ele>100.1</ele>
        <time>2013-05-26T07:15:53.000Z</time>
      </trkpt>
      <trkpt lat="48.4856" lon="-2.607">
        <ele>99.9</ele>
        <time>2013-05-26T07:15:54.000Z</time>
      </trkpt>
      <trkpt lat="48.4856" lon="-2.60708">
        <ele>99.8</ele>
        <time>2013-05-26T07:15:55.000Z</time>
      </trkpt>
      <trkpt lat="48.48561" lon="-2.60717">
        <ele>100</ele>
        <time>2013-05-26T07:15:56.000Z</time>
      </trkpt>
      <trkpt lat="48.48563" lon="-2.60726">
        <ele>100.1</ele>
        <time>2013-05-26T07:15:57.000Z</time>
      </trkpt>
      <trkpt lat="48.48564" lon="-2.60735">
        <ele>100.2</ele>
        <time>2013-05-26T07:15:58.000Z</time>
      </trkpt>
      <trkpt lat="48.48564" lon="-2.60744">
        <ele>100.1</ele>
        <time>2013-05-26T07:15:59.000Z</time>
      </trkpt>
      <trkpt lat="48.48563" lon="-2.60753">
        <ele>99.9</ele>
        <time>2013-05-26T07:16:00.000Z</time>
      </trkpt>
      <trkpt lat="48.48562" lon="-2.60762">
        <ele>100</ele>
        <time>2013-05-26T07:16:01.000Z</time>
      </trkpt>
      <trkpt lat="48.4856" lon="-2.60772">
        <ele>100</ele>
        <time>2013-05-26T07:16:02.000Z</time>
      </trkpt>
      <trkpt lat="48.48559" lon="-2.60781">
        <ele>100</ele>
        <time>2013-05-26T07:16:03.000Z</time>
      </trkpt>
      <trkpt lat="48.48558" lon="-2.6079">
        <ele>99.9</ele>
        <time>2013-05-26T07:16:04.000Z</time>
      </trkpt>
      <trkpt lat="48.48558" lon="-2.60799">
        <ele>99.7</ele>
        <time>2013-05-26T07:16:05.000Z</time>
      </trkpt>
      <trkpt lat="48.48558" lon="-2.60807">
        <ele>99.7</ele>
        <time>2013-05-26T07:16:06.000Z</time>
      </trkpt>
      <trkpt lat="48.48558" lon="-2.60816">
        <ele>99.7</ele>
        <time>2013-05-26T07:16:07.000Z</time>
      </trkpt>
      <trkpt lat="48.48558" lon="-2.60825">
        <ele>99.9</ele>
        <time>2013-05-26T07:16:08.000Z</time>
      </trkpt>
      <trkpt lat="48.48558" lon="-2.60834">
        <ele>100</ele>
        <time>2013-05-26T07:16:09.000Z</time>
      </trkpt>
      <trkpt lat="48.48558" lon="-2.60842">
        <ele>100</ele>
        <time>2013-05-26T07:16:10.000Z</time>
      </trkpt>
      <trkpt lat="48.48558" lon="-2.60851">
        <ele>99.9</ele>
        <time>2013-05-26T07:16:11.000Z</time>
      </trkpt>
      <trkpt lat="48.48558" lon="-2.60859">
        <ele>99.9</ele>
        <time>2013-05-26T07:16:12.000Z</time>
      </trkpt>
      <trkpt lat="48.48557" lon="-2.60867">
        <ele>99.8</ele>
        <time>2013-05-26T07:16:13.000Z</time>
      </trkpt>
      <trkpt lat="48.48557" lon="-2.60876">
        <ele>99.8</ele>
        <time>2013-05-26T07:16:14.000Z</time>
      </trkpt>
      <trkpt lat="48.48557" lon="-2.60883">
        <ele>100</ele>
        <time>2013-05-26T07:16:15.000Z</time>
      </trkpt>
      <trkpt lat="48.48558" lon="-2.6089">
        <ele>99.9</ele>
        <time>2013-05-26T07:16:16.000Z</time>
      </trkpt>
      <trkpt lat="48.4856" lon="-2.60895">
        <ele>99.9</ele>
        <time>2013-05-26T07:16:17.000Z</time>
      </trkpt>
      <trkpt lat="48.48562" lon="-2.60901">
        <ele>99.6</ele>
        <time>2013-05-26T07:16:18.000Z</time>
      </trkpt>
      <trkpt lat="48.48564" lon="-2.60905">
        <ele>99.4</ele>
        <time>2013-05-26T07:16:19.000Z</time>
      </trkpt>
      <trkpt lat="48.48564" lon="-2.60907">
        <ele>99.1</ele>
        <time>2013-05-26T07:16:20.000Z</time>
      </trkpt>
      <trkpt lat="48.48562" lon="-2.60912">
        <ele>99.2</ele>
        <time>2013-05-26T07:16:22.000Z</time>
      </trkpt>
      <trkpt lat="48.48561" lon="-2.60914">
        <ele>99.1</ele>
        <time>2013-05-26T07:16:23.000Z</time>
      </trkpt>
      <trkpt lat="48.4856" lon="-2.60918">
        <ele>99</ele>
        <time>2013-05-26T07:16:24.000Z</time>
      </trkpt>
      <trkpt lat="48.48559" lon="-2.6092">
        <ele>99</ele>
        <time>2013-05-26T07:16:25.000Z</time>
      </trkpt>
      <trkpt lat="48.48558" lon="-2.60926">
        <ele>98.8</ele>
        <time>2013-05-26T07:16:28.000Z</time>
      </trkpt>
      <trkpt lat="48.48558" lon="-2.60928">
        <ele>98.7</ele>
        <time>2013-05-26T07:16:29.000Z</time>
      </trkpt>
      <trkpt lat="48.48557" lon="-2.60932">
        <ele>98.5</ele>
        <time>2013-05-26T07:16:30.000Z</time>
      </trkpt>
      <trkpt lat="48.48556" lon="-2.60935">
        <ele>98.4</ele>
        <time>2013-05-26T07:16:31.000Z</time>
      </trkpt>
      <trkpt lat="48.48554" lon="-2.60941">
        <ele>98.4</ele>
        <time>2013-05-26T07:16:33.000Z</time>
      </trkpt>
      <trkpt lat="48.48553" lon="-2.60942">
        <ele>98.5</ele>
        <time>2013-05-26T07:16:34.000Z</time>
      </trkpt>
      <trkpt lat="48.4855" lon="-2.60948">
        <ele>98.3</ele>
        <time>2013-05-26T07:16:38.000Z</time>
      </trkpt>
      <trkpt lat="48.4855" lon="-2.6095">
        <ele>98.2</ele>
        <time>2013-05-26T07:16:39.000Z</time>
      </trkpt>
      <trkpt lat="48.48549" lon="-2.60956">
        <ele>98.4</ele>
        <time>2013-05-26T07:16:43.000Z</time>
      </trkpt>
      <trkpt lat="48.48549" lon="-2.60957">
        <ele>98.6</ele>
        <time>2013-05-26T07:16:44.000Z</time>
      </trkpt>
      <trkpt lat="48.48547" lon="-2.60962">
        <ele>98.6</ele>
        <time>2013-05-26T07:16:48.000Z</time>
      </trkpt>
      <trkpt lat="48.48547" lon="-2.60963">
        <ele>98.5</ele>
        <time>2013-05-26T07:16:49.000Z</time>
      </trkpt>
      <trkpt lat="48.48547" lon="-2.60968">
        <ele>98.5</ele>
        <time>2013-05-26T07:16:52.000Z</time>
      </trkpt>
      <trkpt lat="48.48547" lon="-2.60971">
        <ele>98.5</ele>
        <time>2013-05-26T07:16:53.000Z</time>
      </trkpt>
      <trkpt lat="48.48548" lon="-2.60974">
        <ele>98.4</ele>
        <time>2013-05-26T07:16:54.000Z</time>
      </trkpt>
      <trkpt lat="48.48549" lon="-2.60978">
        <ele>98.3</ele>
        <time>2013-05-26T07:16:55.000Z</time>
      </trkpt>
      <trkpt lat="48.48549" lon="-2.60981">
        <ele>98.3</ele>
        <time>2013-05-26T07:16:56.000Z</time>
      </trkpt>
      <trkpt lat="48.48549" lon="-2.60985">
        <ele>98.3</ele>
        <time>2013-05-26T07:16:57.000Z</time>
      </trkpt>
      <trkpt lat="48.48549" lon="-2.60989">
        <ele>98.2</ele>
        <time>2013-05-26T07:16:58.000Z</time>
      </trkpt>
      <trkpt lat="48.48548" lon="-2.60992">
        <ele>98.2</ele>
        <time>2013-05-26T07:16:59.000Z</time>
      </trkpt>
      <trkpt lat="48.48547" lon="-2.60995">
        <ele>98.2</ele>
        <time>2013-05-26T07:17:00.000Z</time>
      </trkpt>
      <trkpt lat="48.48546" lon="-2.60998">
        <ele>98.1</ele>
        <time>2013-05-26T07:17:01.000Z</time>
      </trkpt>
      <trkpt lat="48.48544" lon="-2.61001">
        <ele>98.1</ele>
        <time>2013-05-26T07:17:02.000Z</time>
      </trkpt>
      <trkpt lat="48.48541" lon="-2.61004">
        <ele>98</ele>
        <time>2013-05-26T07:17:03.000Z</time>
      </trkpt>
      <trkpt lat="48.48538" lon="-2.61006">
        <ele>97.9</ele>
        <time>2013-05-26T07:17:04.000Z</time>
      </trkpt>
      <trkpt lat="48.48535" lon="-2.61008">
        <ele>97.8</ele>
        <time>2013-05-26T07:17:05.000Z</time>
      </trkpt>
      <trkpt lat="48.48531" lon="-2.61009">
        <ele>97.8</ele>
        <time>2013-05-26T07:17:06.000Z</time>
      </trkpt>
      <trkpt lat="48.48527" lon="-2.61012">
        <ele>97.8</ele>
        <time>2013-05-26T07:17:07.000Z</time>
      </trkpt>
      <trkpt lat="48.48523" lon="-2.61014">
        <ele>97.9</ele>
        <time>2013-05-26T07:17:08.000Z</time>
      </trkpt>
      <trkpt lat="48.4852" lon="-2.61015">
        <ele>98</ele>
        <time>2013-05-26T07:17:09.000Z</time>
      </trkpt>
      <trkpt lat="48.48517" lon="-2.61016">
        <ele>98</ele>
        <time>2013-05-26T07:17:10.000Z</time>
      </trkpt>
      <trkpt lat="48.48514" lon="-2.61015">
        <ele>98</ele>
        <time>2013-05-26T07:17:11.000Z</time>
      </trkpt>
      <trkpt lat="48.48511" lon="-2.61014">
        <ele>98.1</ele>
        <time>2013-05-26T07:17:12.000Z</time>
      </trkpt>
      <trkpt lat="48.48506" lon="-2.61013">
        <ele>98.1</ele>
        <time>2013-05-26T07:17:13.000Z</time>
      </trkpt>
      <trkpt lat="48.48503" lon="-2.61013">
        <ele>98.2</ele>
        <time>2013-05-26T07:17:14.000Z</time>
      </trkpt>
      <trkpt lat="48.485" lon="-2.61014">
        <ele>98.1</ele>
        <time>2013-05-26T07:17:15.000Z</time>
      </trkpt>
      <trkpt lat="48.48497" lon="-2.61015">
        <ele>98.1</ele>
        <time>2013-05-26T07:17:16.000Z</time>
      </trkpt>
      <trkpt lat="48.48494" lon="-2.61016">
        <ele>98.1</ele>
        <time>2013-05-26T07:17:17.000Z</time>
      </trkpt>
      <trkpt lat="48.4848" lon="-2.61023">
        <ele>104.4</ele>
        <time>2013-05-26T07:17:23.000Z</time>
      </trkpt>
      <trkpt lat="48.48476" lon="-2.61023">
        <ele>100.4</ele>
        <time>2013-05-26T07:17:24.000Z</time>
      </trkpt>
      <trkpt lat="48.48472" lon="-2.61023">
        <ele>98.6</ele>
        <time>2013-05-26T07:17:25.000Z</time>
      </trkpt>
      <trkpt lat="48.48469" lon="-2.61026">
        <ele>97.2</ele>
        <time>2013-05-26T07:17:26.000Z</time>
      </trkpt>
      <trkpt lat="48.48467" lon="-2.61028">
        <ele>96</ele>
        <time>2013-05-26T07:17:27.000Z</time>
      </trkpt>
      <trkpt lat="48.48463" lon="-2.6103">
        <ele>95.8</ele>
        <time>2013-05-26T07:17:29.000Z</time>
      </trkpt>
      <trkpt lat="48.48462" lon="-2.61032">
        <ele>95.1</ele>
        <time>2013-05-26T07:17:30.000Z</time>
      </trkpt>
      <trkpt lat="48.4846" lon="-2.61033">
        <ele>95.7</ele>
        <time>2013-05-26T07:17:31.000Z</time>
      </trkpt>
      <trkpt lat="48.48457" lon="-2.61035">
        <ele>96.4</ele>
        <time>2013-05-26T07:17:32.000Z</time>
      </trkpt>
      <trkpt lat="48.48454" lon="-2.61035">
        <ele>96.6</ele>
        <time>2013-05-26T07:17:33.000Z</time>
      </trkpt>
      <trkpt lat="48.4845" lon="-2.61035">
        <ele>97.6</ele>
        <time>2013-05-26T07:17:34.000Z</time>
      </trkpt>
      <trkpt lat="48.48446" lon="-2.61035">
        <ele>97.2</ele>
        <time>2013-05-26T07:17:35.000Z</time>
      </trkpt>
      <trkpt lat="48.48442" lon="-2.61034">
        <ele>97.3</ele>
        <time>2013-05-26T07:17:36.000Z</time>
      </trkpt>
      <trkpt lat="48.48438" lon="-2.61034">
        <ele>97.5</ele>
        <time>2013-05-26T07:17:37.000Z</time>
      </trkpt>
      <trkpt lat="48.48434" lon="-2.61033">
        <ele>98.3</ele>
        <time>2013-05-26T07:17:38.000Z</time>
      </trkpt>
      <trkpt lat="48.48429" lon="-2.61033">
        <ele>98.7</ele>
        <time>2013-05-26T07:17:39.000Z</time>
      </trkpt>
      <trkpt lat="48.48425" lon="-2.61033">
        <ele>99.6</ele>
        <time>2013-05-26T07:17:40.000Z</time>
      </trkpt>
      <trkpt lat="48.48421" lon="-2.61034">
        <ele>100.1</ele>
        <time>2013-05-26T07:17:41.000Z</time>
      </trkpt>
      <trkpt lat="48.48418" lon="-2.61034">
        <ele>100.1</ele>
        <time>2013-05-26T07:17:42.000Z</time>
      </trkpt>
      <trkpt lat="48.48414" lon="-2.61035">
        <ele>100.7</ele>
        <time>2013-05-26T07:17:43.000Z</time>
      </trkpt>
      <trkpt lat="48.48411" lon="-2.61035">
        <ele>100.9</ele>
        <time>2013-05-26T07:17:44.000Z</time>
      </trkpt>
      <trkpt lat="48.48407" lon="-2.61034">
        <ele>101</ele>
        <time>2013-05-26T07:17:45.000Z</time>
      </trkpt>
      <trkpt lat="48.48403" lon="-2.61033">
        <ele>101.3</ele>
        <time>2013-05-26T07:17:46.000Z</time>
      </trkpt>
      <trkpt lat="48.48399" lon="-2.61031">
        <ele>101.6</ele>
        <time>2013-05-26T07:17:47.000Z</time>
      </trkpt>
      <trkpt lat="48.48396" lon="-2.61029">
        <ele>102.1</ele>
        <time>2013-05-26T07:17:48.000Z</time>
      </trkpt>
      <trkpt lat="48.48393" lon="-2.61026">
        <ele>102.4</ele>
        <time>2013-05-26T07:17:49.000Z</time>
      </trkpt>
      <trkpt lat="48.48389" lon="-2.61022">
        <ele>102.5</ele>
        <time>2013-05-26T07:17:51.000Z</time>
      </trkpt>
      <trkpt lat="48.48387" lon="-2.61021">
        <ele>103</ele>
        <time>2013-05-26T07:17:52.000Z</time>
      </trkpt>
      <trkpt lat="48.48383" lon="-2.61022">
        <ele>103.1</ele>
        <time>2013-05-26T07:17:54.000Z</time>
      </trkpt>
      <trkpt lat="48.4838" lon="-2.61024">
        <ele>102.7</ele>
        <time>2013-05-26T07:17:55.000Z</time>
      </trkpt>
      <trkpt lat="48.48378" lon="-2.61026">
        <ele>101.7</ele>
        <time>2013-05-26T07:17:56.000Z</time>
      </trkpt>
      <trkpt lat="48.48375" lon="-2.61026">
        <ele>101.2</ele>
        <time>2013-05-26T07:17:57.000Z</time>
      </trkpt>
      <trkpt lat="48.48371" lon="-2.61027">
        <ele>101.1</ele>
        <time>2013-05-26T07:17:58.000Z</time>
      </trkpt>
      <trkpt lat="48.48368" lon="-2.61026">
        <ele>100.8</ele>
        <time>2013-05-26T07:17:59.000Z</time>
      </trkpt>
      <trkpt lat="48.48366" lon="-2.61025">
        <ele>100.6</ele>
        <time>2013-05-26T07:18:00.000Z</time>
      </trkpt>
      <trkpt lat="48.48363" lon="-2.61023">
        <ele>100.5</ele>
        <time>2013-05-26T07:18:01.000Z</time>
      </trkpt>
      <trkpt lat="48.48361" lon="-2.61021">
        <ele>100.4</ele>
        <time>2013-05-26T07:18:02.000Z</time>
      </trkpt>
      <trkpt lat="48.48359" lon="-2.61018">
        <ele>100.6</ele>
        <time>2013-05-26T07:18:03.000Z</time>
      </trkpt>
      <trkpt lat="48.48357" lon="-2.61016">
        <ele>100.7</ele>
        <time>2013-05-26T07:18:04.000Z</time>
      </trkpt>
      <trkpt lat="48.48355" lon="-2.61014">
        <ele>100.8</ele>
        <time>2013-05-26T07:18:05.000Z</time>
      </trkpt>
      <trkpt lat="48.48352" lon="-2.61014">
        <ele>101</ele>
        <time>2013-05-26T07:18:06.000Z</time>
      </trkpt>
      <trkpt lat="48.48349" lon="-2.61017">
        <ele>101.1</ele>
        <time>2013-05-26T07:18:07.000Z</time>
      </trkpt>
      <trkpt lat="48.48346" lon="-2.61019">
        <ele>100.3</ele>
        <time>2013-05-26T07:18:08.000Z</time>
      </trkpt>
      <trkpt lat="48.48344" lon="-2.61019">
        <ele>100.6</ele>
        <time>2013-05-26T07:18:09.000Z</time>
      </trkpt>
      <trkpt lat="48.4834" lon="-2.61016">
        <ele>101</ele>
        <time>2013-05-26T07:18:11.000Z</time>
      </trkpt>
      <trkpt lat="48.48337" lon="-2.61012">
        <ele>101</ele>
        <time>2013-05-26T07:18:12.000Z</time>
      </trkpt>
      <trkpt lat="48.48334" lon="-2.61009">
        <ele>101.1</ele>
        <time>2013-05-26T07:18:13.000Z</time>
      </trkpt>
      <trkpt lat="48.4833" lon="-2.61005">
        <ele>101.5</ele>
        <time>2013-05-26T07:18:14.000Z</time>
      </trkpt>
      <trkpt lat="48.48327" lon="-2.61001">
        <ele>101.9</ele>
        <time>2013-05-26T07:18:15.000Z</time>
      </trkpt>
      <trkpt lat="48.48324" lon="-2.60997">
        <ele>102.3</ele>
        <time>2013-05-26T07:18:16.000Z</time>
      </trkpt>
      <trkpt lat="48.48321" lon="-2.60994">
        <ele>102.6</ele>
        <time>2013-05-26T07:18:17.000Z</time>
      </trkpt>
      <trkpt lat="48.48307" lon="-2.60992">
        <ele>105</ele>
        <time>2013-05-26T07:18:21.000Z</time>
      </trkpt>
      <trkpt lat="48.48302" lon="-2.60988">
        <ele>102.2</ele>
        <time>2013-05-26T07:18:22.000Z</time>
      </trkpt>
      <trkpt lat="48.48298" lon="-2.60983">
        <ele>101</ele>
        <time>2013-05-26T07:18:23.000Z</time>
      </trkpt>
      <trkpt lat="48.48292" lon="-2.60978">
        <ele>100.5</ele>
        <time>2013-05-26T07:18:24.000Z</time>
      </trkpt>
      <trkpt lat="48.48288" lon="-2.60975">
        <ele>99.6</ele>
        <time>2013-05-26T07:18:25.000Z</time>
      </trkpt>
      <trkpt lat="48.48284" lon="-2.60972">
        <ele>99.1</ele>
        <time>2013-05-26T07:18:26.000Z</time>
      </trkpt>
      <trkpt lat="48.4828" lon="-2.60969">
        <ele>98.5</ele>
        <time>2013-05-26T07:18:27.000Z</time>
      </trkpt>
      <trkpt lat="48.48277" lon="-2.60966">
        <ele>97.4</ele>
        <time>2013-05-26T07:18:28.000Z</time>
      </trkpt>
      <trkpt lat="48.48274" lon="-2.60963">
        <ele>97.6</ele>
        <time>2013-05-26T07:18:29.000Z</time>
      </trkpt>
      <trkpt lat="48.48272" lon="-2.6096">
        <ele>96.6</ele>
        <time>2013-05-26T07:18:30.000Z</time>
      </trkpt>
      <trkpt lat="48.48271" lon="-2.60956">
        <ele>96.8</ele>
        <time>2013-05-26T07:18:31.000Z</time>
      </trkpt>
      <trkpt lat="48.4827" lon="-2.60952">
        <ele>96.5</ele>
        <time>2013-05-26T07:18:32.000Z</time>
      </trkpt>
      <trkpt lat="48.48269" lon="-2.60947">
        <ele>95.8</ele>
        <time>2013-05-26T07:18:33.000Z</time>
      </trkpt>
      <trkpt lat="48.48268" lon="-2.60941">
        <ele>95.3</ele>
        <time>2013-05-26T07:18:34.000Z</time>
      </trkpt>
      <trkpt lat="48.48268" lon="-2.60936">
        <ele>95.7</ele>
        <time>2013-05-26T07:18:35.000Z</time>
      </trkpt>
      <trkpt lat="48.48267" lon="-2.60931">
        <ele>96.5</ele>
        <time>2013-05-26T07:18:36.000Z</time>
      </trkpt>
      <trkpt lat="48.48266" lon="-2.60926">
        <ele>96.7</ele>
        <time>2013-05-26T07:18:37.000Z</time>
      </trkpt>
      <trkpt lat="48.48265" lon="-2.60922">
        <ele>97.9</ele>
        <time>2013-05-26T07:18:38.000Z</time>
      </trkpt>
      <trkpt lat="48.48263" lon="-2.60917">
        <ele>98.3</ele>
        <time>2013-05-26T07:18:39.000Z</time>
      </trkpt>
      <trkpt lat="48.4826" lon="-2.60913">
        <ele>98.3</ele>
        <time>2013-05-26T07:18:40.000Z</time>
      </trkpt>
      <trkpt lat="48.48258" lon="-2.60909">
        <ele>98.1</ele>
        <time>2013-05-26T07:18:41.000Z</time>
      </trkpt>
      <trkpt lat="48.48256" lon="-2.60905">
        <ele>98</ele>
        <time>2013-05-26T07:18:42.000Z</time>
      </trkpt>
      <trkpt lat="48.48254" lon="-2.60902">
        <ele>98.3</ele>
        <time>2013-05-26T07:18:43.000Z</time>
      </trkpt>
      <trkpt lat="48.48252" lon="-2.60899">
        <ele>99.1</ele>
        <time>2013-05-26T07:18:44.000Z</time>
      </trkpt>
      <trkpt lat="48.4825" lon="-2.60896">
        <ele>99.5</ele>
        <time>2013-05-26T07:18:45.000Z</time>
      </trkpt>
      <trkpt lat="48.48249" lon="-2.60893">
        <ele>99.7</ele>
        <time>2013-05-26T07:18:46.000Z</time>
      </trkpt>
      <trkpt lat="48.48247" lon="-2.6089">
        <ele>100.2</ele>
        <time>2013-05-26T07:18:47.000Z</time>
      </trkpt>
      <trkpt lat="48.48244" lon="-2.60886">
        <ele>99.8</ele>
        <time>2013-05-26T07:18:49.000Z</time>
      </trkpt>
      <trkpt lat="48.48242" lon="-2.60883">
        <ele>99.2</ele>
        <time>2013-05-26T07:18:50.000Z</time>
      </trkpt>
      <trkpt lat="48.4824" lon="-2.60881">
        <ele>98.2</ele>
        <time>2013-05-26T07:18:51.000Z</time>
      </trkpt>
      <trkpt lat="48.48239" lon="-2.60879">
        <ele>97.5</ele>
        <time>2013-05-26T07:18:52.000Z</time>
      </trkpt>
      <trkpt lat="48.48235" lon="-2.60877">
        <ele>96.2</ele>
        <time>2013-05-26T07:18:56.000Z</time>
      </trkpt>
      <trkpt lat="48.48234" lon="-2.60877">
        <ele>96</ele>
        <time>2013-05-26T07:18:57.000Z</time>
      </trkpt>
      <trkpt lat="48.48232" lon="-2.60872">
        <ele>95.9</ele>
        <time>2013-05-26T07:19:02.000Z</time>
      </trkpt>
      <trkpt lat="48.48231" lon="-2.60871">
        <ele>95.8</ele>
        <time>2013-05-26T07:19:03.000Z</time>
      </trkpt>
      <trkpt lat="48.48229" lon="-2.60868">
        <ele>95.5</ele>
        <time>2013-05-26T07:19:06.000Z</time>
      </trkpt>
      <trkpt lat="48.48227" lon="-2.60867">
        <ele>95.5</ele>
        <time>2013-05-26T07:19:07.000Z</time>
      </trkpt>
      <trkpt lat="48.48225" lon="-2.60865">
        <ele>95.6</ele>
        <time>2013-05-26T07:19:08.000Z</time>
      </trkpt>
      <trkpt lat="48.48222" lon="-2.60864">
        <ele>95.8</ele>
        <time>2013-05-26T07:19:09.000Z</time>
      </trkpt>
      <trkpt lat="48.4822" lon="-2.60862">
        <ele>95.8</ele>
        <time>2013-05-26T07:19:10.000Z</time>
      </trkpt>
      <trkpt lat="48.48217" lon="-2.6086">
        <ele>95.7</ele>
        <time>2013-05-26T07:19:11.000Z</time>
      </trkpt>
      <trkpt lat="48.48215" lon="-2.60858">
        <ele>95.5</ele>
        <time>2013-05-26T07:19:12.000Z</time>
      </trkpt>
      <trkpt lat="48.48213" lon="-2.60855">
        <ele>95.5</ele>
        <time>2013-05-26T07:19:13.000Z</time>
      </trkpt>
      <trkpt lat="48.48211" lon="-2.60854">
        <ele>95.6</ele>
        <time>2013-05-26T07:19:14.000Z</time>
      </trkpt>
      <trkpt lat="48.48208" lon="-2.60852">
        <ele>95.7</ele>
        <time>2013-05-26T07:19:15.000Z</time>
      </trkpt>
      <trkpt lat="48.48206" lon="-2.6085">
        <ele>96.1</ele>
        <time>2013-05-26T07:19:16.000Z</time>
      </trkpt>
      <trkpt lat="48.48203" lon="-2.60848">
        <ele>96.2</ele>
        <time>2013-05-26T07:19:17.000Z</time>
      </trkpt>
      <trkpt lat="48.48199" lon="-2.60839">
        <ele>98.5</ele>
        <time>2013-05-26T07:19:20.000Z</time>
      </trkpt>
      <trkpt lat="48.48194" lon="-2.60835">
        <ele>100.6</ele>
        <time>2013-05-26T07:19:22.000Z</time>
      </trkpt>
      <trkpt lat="48.48189" lon="-2.60832">
        <ele>98.7</ele>
        <time>2013-05-26T07:19:23.000Z</time>
      </trkpt>
      <trkpt lat="48.48184" lon="-2.60829">
        <ele>98.7</ele>
        <time>2013-05-26T07:19:24.000Z</time>
      </trkpt>
      <trkpt lat="48.4818" lon="-2.60826">
        <ele>97.8</ele>
        <time>2013-05-26T07:19:25.000Z</time>
      </trkpt>
      <trkpt lat="48.48176" lon="-2.60822">
        <ele>97.5</ele>
        <time>2013-05-26T07:19:26.000Z</time>
      </trkpt>
      <trkpt lat="48.48172" lon="-2.6082">
        <ele>97.6</ele>
        <time>2013-05-26T07:19:27.000Z</time>
      </trkpt>
      <trkpt lat="48.48168" lon="-2.60818">
        <ele>96.7</ele>
        <time>2013-05-26T07:19:28.000Z</time>
      </trkpt>
      <trkpt lat="48.48164" lon="-2.60815">
        <ele>97.3</ele>
        <time>2013-05-26T07:19:29.000Z</time>
      </trkpt>
      <trkpt lat="48.4816" lon="-2.60813">
        <ele>96.5</ele>
        <time>2013-05-26T07:19:30.000Z</time>
      </trkpt>
      <trkpt lat="48.48156" lon="-2.60811">
        <ele>96.1</ele>
        <time>2013-05-26T07:19:31.000Z</time>
      </trkpt>
      <trkpt lat="48.48153" lon="-2.60808">
        <ele>95.8</ele>
        <time>2013-05-26T07:19:32.000Z</time>
      </trkpt>
      <trkpt lat="48.48149" lon="-2.60805">
        <ele>95.5</ele>
        <time>2013-05-26T07:19:33.000Z</time>
      </trkpt>
      <trkpt lat="48.48146" lon="-2.60802">
        <ele>95</ele>
        <time>2013-05-26T07:19:34.000Z</time>
      </trkpt>
      <trkpt lat="48.48143" lon="-2.60797">
        <ele>95</ele>
        <time>2013-05-26T07:19:35.000Z</time>
      </trkpt>
      <trkpt lat="48.48141" lon="-2.60793">
        <ele>95</ele>
        <time>2013-05-26T07:19:36.000Z</time>
      </trkpt>
      <trkpt lat="48.48139" lon="-2.60789">
        <ele>95</ele>
        <time>2013-05-26T07:19:37.000Z</time>
      </trkpt>
      <trkpt lat="48.48138" lon="-2.60785">
        <ele>95</ele>
        <time>2013-05-26T07:19:38.000Z</time>
      </trkpt>
      <trkpt lat="48.48136" lon="-2.6078">
        <ele>95</ele>
        <time>2013-05-26T07:19:39.000Z</time>
      </trkpt>
      <trkpt lat="48.48134" lon="-2.60775">
        <ele>94.8</ele>
        <time>2013-05-26T07:19:40.000Z</time>
      </trkpt>
      <trkpt lat="48.48133" lon="-2.6077">
        <ele>94.7</ele>
        <time>2013-05-26T07:19:41.000Z</time>
      </trkpt>
      <trkpt lat="48.48132" lon="-2.60765">
        <ele>94.6</ele>
        <time>2013-05-26T07:19:42.000Z</time>
      </trkpt>
      <trkpt lat="48.48131" lon="-2.60759">
        <ele>94.7</ele>
        <time>2013-05-26T07:19:43.000Z</time>
      </trkpt>
      <trkpt lat="48.4813" lon="-2.60754">
        <ele>95.4</ele>
        <time>2013-05-26T07:19:44.000Z</time>
      </trkpt>
      <trkpt lat="48.48129" lon="-2.60749">
        <ele>95.7</ele>
        <time>2013-05-26T07:19:45.000Z</time>
      </trkpt>
      <trkpt lat="48.48127" lon="-2.60744">
        <ele>96.2</ele>
        <time>2013-05-26T07:19:46.000Z</time>
      </trkpt>
      <trkpt lat="48.48126" lon="-2.60739">
        <ele>96.4</ele>
        <time>2013-05-26T07:19:47.000Z</time>
      </trkpt>
      <trkpt lat="48.48126" lon="-2.60735">
        <ele>96.8</ele>
        <time>2013-05-26T07:19:48.000Z</time>
      </trkpt>
      <trkpt lat="48.48127" lon="-2.60729">
        <ele>96.6</ele>
        <time>2013-05-26T07:19:50.000Z</time>
      </trkpt>
      <trkpt lat="48.4813" lon="-2.60726">
        <ele>96.7</ele>
        <time>2013-05-26T07:19:51.000Z</time>
      </trkpt>
      <trkpt lat="48.48132" lon="-2.60724">
        <ele>96.8</ele>
        <time>2013-05-26T07:19:52.000Z</time>
      </trkpt>
      <trkpt lat="48.48135" lon="-2.60721">
        <ele>97.2</ele>
        <time>2013-05-26T07:19:53.000Z</time>
      </trkpt>
      <trkpt lat="48.48137" lon="-2.60719">
        <ele>97.2</ele>
        <time>2013-05-26T07:19:54.000Z</time>
      </trkpt>
      <trkpt lat="48.48139" lon="-2.60717">
        <ele>97.1</ele>
        <time>2013-05-26T07:19:55.000Z</time>
      </trkpt>
      <trkpt lat="48.48141" lon="-2.60715">
        <ele>97.2</ele>
        <time>2013-05-26T07:19:56.000Z</time>
      </trkpt>
      <trkpt lat="48.48143" lon="-2.60712">
        <ele>97.2</ele>
        <time>2013-05-26T07:19:57.000Z</time>
      </trkpt>
      <trkpt lat="48.48144" lon="-2.60709">
        <ele>97.2</ele>
        <time>2013-05-26T07:19:58.000Z</time>
      </trkpt>
      <trkpt lat="48.48145" lon="-2.60706">
        <ele>97.3</ele>
        <time>2013-05-26T07:19:59.000Z</time>
      </trkpt>
      <trkpt lat="48.48146" lon="-2.60703">
        <ele>97.2</ele>
        <time>2013-05-26T07:20:00.000Z</time>
      </trkpt>
      <trkpt lat="48.48148" lon="-2.607">
        <ele>97.2</ele>
        <time>2013-05-26T07:20:01.000Z</time>
      </trkpt>
      <trkpt lat="48.48151" lon="-2.60699">
        <ele>97.1</ele>
        <time>2013-05-26T07:20:02.000Z</time>
      </trkpt>
      <trkpt lat="48.48154" lon="-2.60697">
        <ele>97.2</ele>
        <time>2013-05-26T07:20:03.000Z</time>
      </trkpt>
      <trkpt lat="48.48156" lon="-2.60695">
        <ele>97.2</ele>
        <time>2013-05-26T07:20:04.000Z</time>
      </trkpt>
      <trkpt lat="48.48159" lon="-2.60694">
        <ele>96.9</ele>
        <time>2013-05-26T07:20:05.000Z</time>
      </trkpt>
      <trkpt lat="48.48161" lon="-2.60692">
        <ele>97.2</ele>
        <time>2013-05-26T07:20:06.000Z</time>
      </trkpt>
      <trkpt lat="48.48164" lon="-2.6069">
        <ele>97.4</ele>
        <time>2013-05-26T07:20:07.000Z</time>
      </trkpt>
      <trkpt lat="48.48166" lon="-2.60688">
        <ele>97.6</ele>
        <time>2013-05-26T07:20:08.000Z</time>
      </trkpt>
      <trkpt lat="48.48168" lon="-2.60687">
        <ele>97.8</ele>
        <time>2013-05-26T07:20:09.000Z</time>
      </trkpt>
      <trkpt lat="48.4817" lon="-2.60685">
        <ele>98</ele>
        <time>2013-05-26T07:20:10.000Z</time>
      </trkpt>
      <trkpt lat="48.48173" lon="-2.60685">
        <ele>98</ele>
        <time>2013-05-26T07:20:11.000Z</time>
      </trkpt>
      <trkpt lat="48.48175" lon="-2.60685">
        <ele>98</ele>
        <time>2013-05-26T07:20:12.000Z</time>
      </trkpt>
      <trkpt lat="48.48177" lon="-2.60684">
        <ele>97.9</ele>
        <time>2013-05-26T07:20:13.000Z</time>
      </trkpt>
      <trkpt lat="48.48181" lon="-2.60681">
        <ele>98</ele>
        <time>2013-05-26T07:20:15.000Z</time>
      </trkpt>
      <trkpt lat="48.48183" lon="-2.60679">
        <ele>98.1</ele>
        <time>2013-05-26T07:20:16.000Z</time>
      </trkpt>
      <trkpt lat="48.48184" lon="-2.60677">
        <ele>98.2</ele>
        <time>2013-05-26T07:20:17.000Z</time>
      </trkpt>
      <trkpt lat="48.48188" lon="-2.60673">
        <ele>100.7</ele>
        <time>2013-05-26T07:20:20.000Z</time>
      </trkpt>
      <trkpt lat="48.4819" lon="-2.60668">
        <ele>102</ele>
        <time>2013-05-26T07:20:22.000Z</time>
      </trkpt>
      <trkpt lat="48.48192" lon="-2.60666">
        <ele>102.8</ele>
        <time>2013-05-26T07:20:23.000Z</time>
      </trkpt>
      <trkpt lat="48.48192" lon="-2.60663">
        <ele>104.1</ele>
        <time>2013-05-26T07:20:24.000Z</time>
      </trkpt>
      <trkpt lat="48.48196" lon="-2.60661">
        <ele>104.1</ele>
        <time>2013-05-26T07:20:25.000Z</time>
      </trkpt>
      <trkpt lat="48.48198" lon="-2.60659">
        <ele>103.9</ele>
        <time>2013-05-26T07:20:26.000Z</time>
      </trkpt>
      <trkpt lat="48.482" lon="-2.60658">
        <ele>104.2</ele>
        <time>2013-05-26T07:20:27.000Z</time>
      </trkpt>
      <trkpt lat="48.48203" lon="-2.60657">
        <ele>103.7</ele>
        <time>2013-05-26T07:20:28.000Z</time>
      </trkpt>
      <trkpt lat="48.48205" lon="-2.60656">
        <ele>104.1</ele>
        <time>2013-05-26T07:20:29.000Z</time>
      </trkpt>
      <trkpt lat="48.48207" lon="-2.60655">
        <ele>104</ele>
        <time>2013-05-26T07:20:30.000Z</time>
      </trkpt>
      <trkpt lat="48.4821" lon="-2.60653">
        <ele>103.8</ele>
        <time>2013-05-26T07:20:31.000Z</time>
      </trkpt>
      <trkpt lat="48.48212" lon="-2.60651">
        <ele>103.7</ele>
        <time>2013-05-26T07:20:32.000Z</time>
      </trkpt>
      <trkpt lat="48.48214" lon="-2.60649">
        <ele>103.6</ele>
        <time>2013-05-26T07:20:33.000Z</time>
      </trkpt>
      <trkpt lat="48.48216" lon="-2.60647">
        <ele>104.1</ele>
        <time>2013-05-26T07:20:34.000Z</time>
      </trkpt>
      <trkpt lat="48.48218" lon="-2.60644">
        <ele>102.9</ele>
        <time>2013-05-26T07:20:35.000Z</time>
      </trkpt>
      <trkpt lat="48.48219" lon="-2.60641">
        <ele>102.2</ele>
        <time>2013-05-26T07:20:36.000Z</time>
      </trkpt>
      <trkpt lat="48.48221" lon="-2.60637">
        <ele>101.8</ele>
        <time>2013-05-26T07:20:37.000Z</time>
      </trkpt>
      <trkpt lat="48.48221" lon="-2.60634">
        <ele>102.1</ele>
        <time>2013-05-26T07:20:38.000Z</time>
      </trkpt>
      <trkpt lat="48.48222" lon="-2.60631">
        <ele>102.5</ele>
        <time>2013-05-26T07:20:39.000Z</time>
      </trkpt>
      <trkpt lat="48.48223" lon="-2.60627">
        <ele>102.2</ele>
        <time>2013-05-26T07:20:40.000Z</time>
      </trkpt>
      <trkpt lat="48.48223" lon="-2.60624">
        <ele>102</ele>
        <time>2013-05-26T07:20:41.000Z</time>
      </trkpt>
      <trkpt lat="48.48223" lon="-2.6062">
        <ele>102.1</ele>
        <time>2013-05-26T07:20:42.000Z</time>
      </trkpt>
      <trkpt lat="48.48223" lon="-2.60617">
        <ele>102</ele>
        <time>2013-05-26T07:20:43.000Z</time>
      </trkpt>
      <trkpt lat="48.48223" lon="-2.60613">
        <ele>102.2</ele>
        <time>2013-05-26T07:20:44.000Z</time>
      </trkpt>
      <trkpt lat="48.48222" lon="-2.6061">
        <ele>102.4</ele>
        <time>2013-05-26T07:20:45.000Z</time>
      </trkpt>
      <trkpt lat="48.48222" lon="-2.60606">
        <ele>102.5</ele>
        <time>2013-05-26T07:20:46.000Z</time>
      </trkpt>
      <trkpt lat="48.48222" lon="-2.60603">
        <ele>102.7</ele>
        <time>2013-05-26T07:20:47.000Z</time>
      </trkpt>
      <trkpt lat="48.48222" lon="-2.60599">
        <ele>102.8</ele>
        <time>2013-05-26T07:20:48.000Z</time>
      </trkpt>
      <trkpt lat="48.48222" lon="-2.60596">
        <ele>102.7</ele>
        <time>2013-05-26T07:20:49.000Z</time>
      </trkpt>
      <trkpt lat="48.48221" lon="-2.60592">
        <ele>102.6</ele>
        <time>2013-05-26T07:20:50.000Z</time>
      </trkpt>
      <trkpt lat="48.48221" lon="-2.60589">
        <ele>102.2</ele>
        <time>2013-05-26T07:20:51.000Z</time>
      </trkpt>
      <trkpt lat="48.4822" lon="-2.60585">
        <ele>102.1</ele>
        <time>2013-05-26T07:20:52.000Z</time>
      </trkpt>
      <trkpt lat="48.4822" lon="-2.60582">
        <ele>102.2</ele>
        <time>2013-05-26T07:20:53.000Z</time>
      </trkpt>
      <trkpt lat="48.4822" lon="-2.60578">
        <ele>102.3</ele>
        <time>2013-05-26T07:20:54.000Z</time>
      </trkpt>
      <trkpt lat="48.48219" lon="-2.60574">
        <ele>102.4</ele>
        <time>2013-05-26T07:20:55.000Z</time>
      </trkpt>
      <trkpt lat="48.48218" lon="-2.6057">
        <ele>102.3</ele>
        <time>2013-05-26T07:20:56.000Z</time>
      </trkpt>
      <trkpt lat="48.48218" lon="-2.60566">
        <ele>102.1</ele>
        <time>2013-05-26T07:20:57.000Z</time>
      </trkpt>
      <trkpt lat="48.48218" lon="-2.60562">
        <ele>102.3</ele>
        <time>2013-05-26T07:20:58.000Z</time>
      </trkpt>
      <trkpt lat="48.48217" lon="-2.60558">
        <ele>102.4</ele>
        <time>2013-05-26T07:20:59.000Z</time>
      </trkpt>
      <trkpt lat="48.48217" lon="-2.60555">
        <ele>102.4</ele>
        <time>2013-05-26T07:21:00.000Z</time>
      </trkpt>
      <trkpt lat="48.48217" lon="-2.60551">
        <ele>102.5</ele>
        <time>2013-05-26T07:21:01.000Z</time>
      </trkpt>
      <trkpt lat="48.48216" lon="-2.60547">
        <ele>102.6</ele>
        <time>2013-05-26T07:21:02.000Z</time>
      </trkpt>
      <trkpt lat="48.48216" lon="-2.60543">
        <ele>102.7</ele>
        <time>2013-05-26T07:21:03.000Z</time>
      </trkpt>
      <trkpt lat="48.48216" lon="-2.60539">
        <ele>102.6</ele>
        <time>2013-05-26T07:21:04.000Z</time>
      </trkpt>
      <trkpt lat="48.48216" lon="-2.60535">
        <ele>102.5</ele>
        <time>2013-05-26T07:21:05.000Z</time>
      </trkpt>
      <trkpt lat="48.48216" lon="-2.6053">
        <ele>102.5</ele>
        <time>2013-05-26T07:21:06.000Z</time>
      </trkpt>
      <trkpt lat="48.48215" lon="-2.60526">
        <ele>102.5</ele>
        <time>2013-05-26T07:21:07.000Z</time>
      </trkpt>
      <trkpt lat="48.48215" lon="-2.60522">
        <ele>102.5</ele>
        <time>2013-05-26T07:21:08.000Z</time>
      </trkpt>
      <trkpt lat="48.48214" lon="-2.60518">
        <ele>102.5</ele>
        <time>2013-05-26T07:21:09.000Z</time>
      </trkpt>
      <trkpt lat="48.48214" lon="-2.60514">
        <ele>102.7</ele>
        <time>2013-05-26T07:21:10.000Z</time>
      </trkpt>
      <trkpt lat="48.48214" lon="-2.6051">
        <ele>102.9</ele>
        <time>2013-05-26T07:21:11.000Z</time>
      </trkpt>
      <trkpt lat="48.48214" lon="-2.60506">
        <ele>103</ele>
        <time>2013-05-26T07:21:12.000Z</time>
      </trkpt>
      <trkpt lat="48.48213" lon="-2.60502">
        <ele>103</ele>
        <time>2013-05-26T07:21:13.000Z</time>
      </trkpt>
      <trkpt lat="48.48213" lon="-2.60497">
        <ele>103.1</ele>
        <time>2013-05-26T07:21:14.000Z</time>
      </trkpt>
      <trkpt lat="48.48213" lon="-2.60493">
        <ele>103.2</ele>
        <time>2013-05-26T07:21:15.000Z</time>
      </trkpt>
      <trkpt lat="48.48212" lon="-2.60489">
        <ele>103.2</ele>
        <time>2013-05-26T07:21:16.000Z</time>
      </trkpt>
      <trkpt lat="48.48212" lon="-2.60485">
        <ele>103.3</ele>
        <time>2013-05-26T07:21:17.000Z</time>
      </trkpt>
      <trkpt lat="48.48214" lon="-2.60464">
        <ele>108</ele>
        <time>2013-05-26T07:21:20.000Z</time>
      </trkpt>
      <trkpt lat="48.48214" lon="-2.60461">
        <ele>107.5</ele>
        <time>2013-05-26T07:21:22.000Z</time>
      </trkpt>
      <trkpt lat="48.48213" lon="-2.60457">
        <ele>106.4</ele>
        <time>2013-05-26T07:21:23.000Z</time>
      </trkpt>
      <trkpt lat="48.48211" lon="-2.60451">
        <ele>105.7</ele>
        <time>2013-05-26T07:21:25.000Z</time>
      </trkpt>
      <trkpt lat="48.48211" lon="-2.60447">
        <ele>105.9</ele>
        <time>2013-05-26T07:21:26.000Z</time>
      </trkpt>
      <trkpt lat="48.48211" lon="-2.60443">
        <ele>106.7</ele>
        <time>2013-05-26T07:21:27.000Z</time>
      </trkpt>
      <trkpt lat="48.48211" lon="-2.60438">
        <ele>107</ele>
        <time>2013-05-26T07:21:28.000Z</time>
      </trkpt>
      <trkpt lat="48.4821" lon="-2.60434">
        <ele>106.7</ele>
        <time>2013-05-26T07:21:29.000Z</time>
      </trkpt>
      <trkpt lat="48.4821" lon="-2.60429">
        <ele>106.9</ele>
        <time>2013-05-26T07:21:30.000Z</time>
      </trkpt>
      <trkpt lat="48.4821" lon="-2.60424">
        <ele>107.3</ele>
        <time>2013-05-26T07:21:31.000Z</time>
      </trkpt>
      <trkpt lat="48.4821" lon="-2.60419">
        <ele>107.5</ele>
        <time>2013-05-26T07:21:32.000Z</time>
      </trkpt>
      <trkpt lat="48.4821" lon="-2.60414">
        <ele>107.6</ele>
        <time>2013-05-26T07:21:33.000Z</time>
      </trkpt>
      <trkpt lat="48.4821" lon="-2.6041">
        <ele>107.7</ele>
        <time>2013-05-26T07:21:34.000Z</time>
      </trkpt>
      <trkpt lat="48.4821" lon="-2.60405">
        <ele>108.2</ele>
        <time>2013-05-26T07:21:35.000Z</time>
      </trkpt>
      <trkpt lat="48.4821" lon="-2.60401">
        <ele>108.4</ele>
        <time>2013-05-26T07:21:36.000Z</time>
      </trkpt>
      <trkpt lat="48.4821" lon="-2.60396">
        <ele>108.9</ele>
        <time>2013-05-26T07:21:37.000Z</time>
      </trkpt>
      <trkpt lat="48.48209" lon="-2.60391">
        <ele>109</ele>
        <time>2013-05-26T07:21:38.000Z</time>
      </trkpt>
      <trkpt lat="48.48209" lon="-2.60387">
        <ele>109.1</ele>
        <time>2013-05-26T07:21:39.000Z</time>
      </trkpt>
      <trkpt lat="48.48209" lon="-2.60382">
        <ele>109.3</ele>
        <time>2013-05-26T07:21:40.000Z</time>
      </trkpt>
      <trkpt lat="48.48209" lon="-2.60377">
        <ele>109.5</ele>
        <time>2013-05-26T07:21:41.000Z</time>
      </trkpt>
      <trkpt lat="48.48209" lon="-2.60372">
        <ele>109.6</ele>
        <time>2013-05-26T07:21:42.000Z</time>
      </trkpt>
      <trkpt lat="48.48208" lon="-2.60367">
        <ele>109.7</ele>
        <time>2013-05-26T07:21:43.000Z</time>
      </trkpt>
      <trkpt lat="48.48208" lon="-2.60363">
        <ele>109.7</ele>
        <time>2013-05-26T07:21:44.000Z</time>
      </trkpt>
      <trkpt lat="48.48208" lon="-2.60358">
        <ele>109.8</ele>
        <time>2013-05-26T07:21:45.000Z</time>
      </trkpt>
      <trkpt lat="48.48207" lon="-2.60353">
        <ele>110.1</ele>
        <time>2013-05-26T07:21:46.000Z</time>
      </trkpt>
      <trkpt lat="48.48207" lon="-2.60349">
        <ele>110.4</ele>
        <time>2013-05-26T07:21:47.000Z</time>
      </trkpt>
      <trkpt lat="48.48207" lon="-2.60344">
        <ele>110.8</ele>
        <time>2013-05-26T07:21:48.000Z</time>
      </trkpt>
      <trkpt lat="48.48207" lon="-2.60339">
        <ele>110.9</ele>
        <time>2013-05-26T07:21:49.000Z</time>
      </trkpt>
      <trkpt lat="48.48207" lon="-2.60334">
        <ele>111</ele>
        <time>2013-05-26T07:21:50.000Z</time>
      </trkpt>
      <trkpt lat="48.48206" lon="-2.60329">
        <ele>111.1</ele>
        <time>2013-05-26T07:21:51.000Z</time>
      </trkpt>
      <trkpt lat="48.48206" lon="-2.60324">
        <ele>111.1</ele>
        <time>2013-05-26T07:21:52.000Z</time>
      </trkpt>
      <trkpt lat="48.48205" lon="-2.6032">
        <ele>111.1</ele>
        <time>2013-05-26T07:21:53.000Z</time>
      </trkpt>
      <trkpt lat="48.48205" lon="-2.60315">
        <ele>111.1</ele>
        <time>2013-05-26T07:21:54.000Z</time>
      </trkpt>
      <trkpt lat="48.48205" lon="-2.6031">
        <ele>111.1</ele>
        <time>2013-05-26T07:21:55.000Z</time>
      </trkpt>
      <trkpt lat="48.48206" lon="-2.60305">
        <ele>111.3</ele>
        <time>2013-05-26T07:21:56.000Z</time>
      </trkpt>
      <trkpt lat="48.48207" lon="-2.603">
        <ele>111.6</ele>
        <time>2013-05-26T07:21:57.000Z</time>
      </trkpt>
      <trkpt lat="48.48208" lon="-2.60296">
        <ele>111.8</ele>
        <time>2013-05-26T07:21:58.000Z</time>
      </trkpt>
      <trkpt lat="48.4821" lon="-2.60291">
        <ele>111.9</ele>
        <time>2013-05-26T07:21:59.000Z</time>
      </trkpt>
      <trkpt lat="48.48213" lon="-2.60288">
        <ele>111.9</ele>
        <time>2013-05-26T07:22:00.000Z</time>
      </trkpt>
      <trkpt lat="48.48216" lon="-2.60286">
        <ele>112</ele>
        <time>2013-05-26T07:22:01.000Z</time>
      </trkpt>
      <trkpt lat="48.48219" lon="-2.60284">
        <ele>112.3</ele>
        <time>2013-05-26T07:22:02.000Z</time>
      </trkpt>
      <trkpt lat="48.48223" lon="-2.60282">
        <ele>112.6</ele>
        <time>2013-05-26T07:22:03.000Z</time>
      </trkpt>
      <trkpt lat="48.48227" lon="-2.60281">
        <ele>112.9</ele>
        <time>2013-05-26T07:22:04.000Z</time>
      </trkpt>
      <trkpt lat="48.48231" lon="-2.6028">
        <ele>113.1</ele>
        <time>2013-05-26T07:22:05.000Z</time>
      </trkpt>
      <trkpt lat="48.48235" lon="-2.60279">
        <ele>113.3</ele>
        <time>2013-05-26T07:22:06.000Z</time>
      </trkpt>
      <trkpt lat="48.48238" lon="-2.60279">
        <ele>113.6</ele>
        <time>2013-05-26T07:22:07.000Z</time>
      </trkpt>
      <trkpt lat="48.48242" lon="-2.60278">
        <ele>113.8</ele>
        <time>2013-05-26T07:22:08.000Z</time>
      </trkpt>
      <trkpt lat="48.48246" lon="-2.60277">
        <ele>113.9</ele>
        <time>2013-05-26T07:22:09.000Z</time>
      </trkpt>
      <trkpt lat="48.4825" lon="-2.60276">
        <ele>114</ele>
        <time>2013-05-26T07:22:10.000Z</time>
      </trkpt>
      <trkpt lat="48.48254" lon="-2.60275">
        <ele>114.1</ele>
        <time>2013-05-26T07:22:11.000Z</time>
      </trkpt>
      <trkpt lat="48.48258" lon="-2.60275">
        <ele>114.2</ele>
        <time>2013-05-26T07:22:12.000Z</time>
      </trkpt>
      <trkpt lat="48.48262" lon="-2.60274">
        <ele>114.2</ele>
        <time>2013-05-26T07:22:13.000Z</time>
      </trkpt>
      <trkpt lat="48.48266" lon="-2.60274">
        <ele>114.3</ele>
        <time>2013-05-26T07:22:14.000Z</time>
      </trkpt>
      <trkpt lat="48.4827" lon="-2.60273">
        <ele>114.4</ele>
        <time>2013-05-26T07:22:15.000Z</time>
      </trkpt>
      <trkpt lat="48.48274" lon="-2.60272">
        <ele>114.5</ele>
        <time>2013-05-26T07:22:16.000Z</time>
      </trkpt>
      <trkpt lat="48.48278" lon="-2.60271">
        <ele>114.6</ele>
        <time>2013-05-26T07:22:17.000Z</time>
      </trkpt>
      <trkpt lat="48.48285" lon="-2.60258">
        <ele>120.2</ele>
        <time>2013-05-26T07:22:20.000Z</time>
      </trkpt>
      <trkpt lat="48.4829" lon="-2.60266">
        <ele>114.4</ele>
        <time>2013-05-26T07:22:21.000Z</time>
      </trkpt>
      <trkpt lat="48.48294" lon="-2.60266">
        <ele>113.9</ele>
        <time>2013-05-26T07:22:22.000Z</time>
      </trkpt>
      <trkpt lat="48.48298" lon="-2.60266">
        <ele>114.4</ele>
        <time>2013-05-26T07:22:23.000Z</time>
      </trkpt>
      <trkpt lat="48.48302" lon="-2.60265">
        <ele>115.3</ele>
        <time>2013-05-26T07:22:24.000Z</time>
      </trkpt>
      <trkpt lat="48.48306" lon="-2.60265">
        <ele>115.7</ele>
        <time>2013-05-26T07:22:25.000Z</time>
      </trkpt>
      <trkpt lat="48.48311" lon="-2.60264">
        <ele>115.6</ele>
        <time>2013-05-26T07:22:26.000Z</time>
      </trkpt>
      <trkpt lat="48.48315" lon="-2.60263">
        <ele>116.1</ele>
        <time>2013-05-26T07:22:27.000Z</time>
      </trkpt>
      <trkpt lat="48.48319" lon="-2.60261">
        <ele>115.5</ele>
        <time>2013-05-26T07:22:28.000Z</time>
      </trkpt>
      <trkpt lat="48.48323" lon="-2.60259">
        <ele>114.8</ele>
        <time>2013-05-26T07:22:29.000Z</time>
      </trkpt>
      <trkpt lat="48.48327" lon="-2.60257">
        <ele>114.4</ele>
        <time>2013-05-26T07:22:30.000Z</time>
      </trkpt>
      <trkpt lat="48.48331" lon="-2.60256">
        <ele>114.4</ele>
        <time>2013-05-26T07:22:31.000Z</time>
      </trkpt>
      <trkpt lat="48.48335" lon="-2.60255">
        <ele>114.5</ele>
        <time>2013-05-26T07:22:32.000Z</time>
      </trkpt>
      <trkpt lat="48.48338" lon="-2.60253">
        <ele>114.3</ele>
        <time>2013-05-26T07:22:33.000Z</time>
      </trkpt>
      <trkpt lat="48.48342" lon="-2.60251">
        <ele>114.2</ele>
        <time>2013-05-26T07:22:34.000Z</time>
      </trkpt>
      <trkpt lat="48.48346" lon="-2.60248">
        <ele>114.3</ele>
        <time>2013-05-26T07:22:35.000Z</time>
      </trkpt>
      <trkpt lat="48.48349" lon="-2.60247">
        <ele>114.7</ele>
        <time>2013-05-26T07:22:36.000Z</time>
      </trkpt>
      <trkpt lat="48.48353" lon="-2.60245">
        <ele>114.8</ele>
        <time>2013-05-26T07:22:37.000Z</time>
      </trkpt>
      <trkpt lat="48.48357" lon="-2.60243">
        <ele>115.3</ele>
        <time>2013-05-26T07:22:38.000Z</time>
      </trkpt>
      <trkpt lat="48.48362" lon="-2.60241">
        <ele>115.3</ele>
        <time>2013-05-26T07:22:39.000Z</time>
      </trkpt>
      <trkpt lat="48.48366" lon="-2.60238">
        <ele>115.1</ele>
        <time>2013-05-26T07:22:40.000Z</time>
      </trkpt>
      <trkpt lat="48.48371" lon="-2.60236">
        <ele>115</ele>
        <time>2013-05-26T07:22:41.000Z</time>
      </trkpt>
      <trkpt lat="48.48376" lon="-2.60234">
        <ele>115.1</ele>
        <time>2013-05-26T07:22:42.000Z</time>
      </trkpt>
      <trkpt lat="48.48381" lon="-2.60232">
        <ele>115.2</ele>
        <time>2013-05-26T07:22:43.000Z</time>
      </trkpt>
      <trkpt lat="48.48386" lon="-2.60229">
        <ele>115.2</ele>
        <time>2013-05-26T07:22:44.000Z</time>
      </trkpt>
      <trkpt lat="48.48391" lon="-2.60226">
        <ele>115</ele>
        <time>2013-05-26T07:22:45.000Z</time>
      </trkpt>
      <trkpt lat="48.48396" lon="-2.60224">
        <ele>115.2</ele>
        <time>2013-05-26T07:22:46.000Z</time>
      </trkpt>
      <trkpt lat="48.48401" lon="-2.60221">
        <ele>115.4</ele>
        <time>2013-05-26T07:22:47.000Z</time>
      </trkpt>
      <trkpt lat="48.48406" lon="-2.60219">
        <ele>115.8</ele>
        <time>2013-05-26T07:22:48.000Z</time>
      </trkpt>
      <trkpt lat="48.48411" lon="-2.60216">
        <ele>115.4</ele>
        <time>2013-05-26T07:22:49.000Z</time>
      </trkpt>
      <trkpt lat="48.48416" lon="-2.60213">
        <ele>115.4</ele>
        <time>2013-05-26T07:22:50.000Z</time>
      </trkpt>
      <trkpt lat="48.48421" lon="-2.60209">
        <ele>115.6</ele>
        <time>2013-05-26T07:22:51.000Z</time>
      </trkpt>
      <trkpt lat="48.48426" lon="-2.60206">
        <ele>115.7</ele>
        <time>2013-05-26T07:22:52.000Z</time>
      </trkpt>
      <trkpt lat="48.48431" lon="-2.60203">
        <ele>115.9</ele>
        <time>2013-05-26T07:22:53.000Z</time>
      </trkpt>
      <trkpt lat="48.48436" lon="-2.60199">
        <ele>116</ele>
        <time>2013-05-26T07:22:54.000Z</time>
      </trkpt>
      <trkpt lat="48.4844" lon="-2.60195">
        <ele>116.1</ele>
        <time>2013-05-26T07:22:55.000Z</time>
      </trkpt>
      <trkpt lat="48.48445" lon="-2.60191">
        <ele>116.1</ele>
        <time>2013-05-26T07:22:56.000Z</time>
      </trkpt>
      <trkpt lat="48.48448" lon="-2.60187">
        <ele>116.3</ele>
        <time>2013-05-26T07:22:57.000Z</time>
      </trkpt>
      <trkpt lat="48.48451" lon="-2.60181">
        <ele>116.4</ele>
        <time>2013-05-26T07:22:58.000Z</time>
      </trkpt>
      <trkpt lat="48.48453" lon="-2.60175">
        <ele>116.5</ele>
        <time>2013-05-26T07:22:59.000Z</time>
      </trkpt>
      <trkpt lat="48.48454" lon="-2.60168">
        <ele>116.7</ele>
        <time>2013-05-26T07:23:00.000Z</time>
      </trkpt>
      <trkpt lat="48.48453" lon="-2.60161">
        <ele>116.7</ele>
        <time>2013-05-26T07:23:01.000Z</time>
      </trkpt>
      <trkpt lat="48.48452" lon="-2.60155">
        <ele>116.7</ele>
        <time>2013-05-26T07:23:02.000Z</time>
      </trkpt>
      <trkpt lat="48.48451" lon="-2.60148">
        <ele>116.7</ele>
        <time>2013-05-26T07:23:03.000Z</time>
      </trkpt>
      <trkpt lat="48.4845" lon="-2.60142">
        <ele>116.8</ele>
        <time>2013-05-26T07:23:04.000Z</time>
      </trkpt>
      <trkpt lat="48.4845" lon="-2.60135">
        <ele>117</ele>
        <time>2013-05-26T07:23:05.000Z</time>
      </trkpt>
      <trkpt lat="48.48449" lon="-2.60129">
        <ele>117</ele>
        <time>2013-05-26T07:23:06.000Z</time>
      </trkpt>
      <trkpt lat="48.48449" lon="-2.60124">
        <ele>117</ele>
        <time>2013-05-26T07:23:07.000Z</time>
      </trkpt>
      <trkpt lat="48.4845" lon="-2.60119">
        <ele>117.1</ele>
        <time>2013-05-26T07:23:08.000Z</time>
      </trkpt>
      <trkpt lat="48.4845" lon="-2.60113">
        <ele>117.3</ele>
        <time>2013-05-26T07:23:09.000Z</time>
      </trkpt>
      <trkpt lat="48.48451" lon="-2.60108">
        <ele>117.7</ele>
        <time>2013-05-26T07:23:10.000Z</time>
      </trkpt>
      <trkpt lat="48.48451" lon="-2.60103">
        <ele>118.1</ele>
        <time>2013-05-26T07:23:11.000Z</time>
      </trkpt>
      <trkpt lat="48.48452" lon="-2.60097">
        <ele>118.3</ele>
        <time>2013-05-26T07:23:12.000Z</time>
      </trkpt>
      <trkpt lat="48.48452" lon="-2.60092">
        <ele>118.5</ele>
        <time>2013-05-26T07:23:13.000Z</time>
      </trkpt>
      <trkpt lat="48.48453" lon="-2.60085">
        <ele>118.8</ele>
        <time>2013-05-26T07:23:14.000Z</time>
      </trkpt>
      <trkpt lat="48.48454" lon="-2.6008">
        <ele>119.1</ele>
        <time>2013-05-26T07:23:15.000Z</time>
      </trkpt>
      <trkpt lat="48.48455" lon="-2.60074">
        <ele>119.2</ele>
        <time>2013-05-26T07:23:16.000Z</time>
      </trkpt>
      <trkpt lat="48.48456" lon="-2.60068">
        <ele>119.3</ele>
        <time>2013-05-26T07:23:17.000Z</time>
      </trkpt>
      <trkpt lat="48.48452" lon="-2.6004">
        <ele>108.6</ele>
        <time>2013-05-26T07:23:20.000Z</time>
      </trkpt>
      <trkpt lat="48.48454" lon="-2.60038">
        <ele>110.6</ele>
        <time>2013-05-26T07:23:21.000Z</time>
      </trkpt>
      <trkpt lat="48.4846" lon="-2.60036">
        <ele>115.7</ele>
        <time>2013-05-26T07:23:22.000Z</time>
      </trkpt>
      <trkpt lat="48.48462" lon="-2.60031">
        <ele>117.7</ele>
        <time>2013-05-26T07:23:23.000Z</time>
      </trkpt>
      <trkpt lat="48.48463" lon="-2.60026">
        <ele>118.2</ele>
        <time>2013-05-26T07:23:24.000Z</time>
      </trkpt>
      <trkpt lat="48.48464" lon="-2.60019">
        <ele>116.4</ele>
        <time>2013-05-26T07:23:25.000Z</time>
      </trkpt>
      <trkpt lat="48.48467" lon="-2.60014">
        <ele>117.7</ele>
        <time>2013-05-26T07:23:26.000Z</time>
      </trkpt>
      <trkpt lat="48.48468" lon="-2.60008">
        <ele>117.3</ele>
        <time>2013-05-26T07:23:27.000Z</time>
      </trkpt>
      <trkpt lat="48.48469" lon="-2.60003">
        <ele>117.2</ele>
        <time>2013-05-26T07:23:28.000Z</time>
      </trkpt>
      <trkpt lat="48.4847" lon="-2.59997">
        <ele>116.5</ele>
        <time>2013-05-26T07:23:29.000Z</time>
      </trkpt>
      <trkpt lat="48.48471" lon="-2.59992">
        <ele>117</ele>
        <time>2013-05-26T07:23:30.000Z</time>
      </trkpt>
      <trkpt lat="48.48473" lon="-2.59986">
        <ele>117.4</ele>
        <time>2013-05-26T07:23:31.000Z</time>
      </trkpt>
      <trkpt lat="48.48474" lon="-2.59981">
        <ele>117.8</ele>
        <time>2013-05-26T07:23:32.000Z</time>
      </trkpt>
      <trkpt lat="48.48475" lon="-2.59976">
        <ele>118.3</ele>
        <time>2013-05-26T07:23:33.000Z</time>
      </trkpt>
      <trkpt lat="48.48475" lon="-2.59971">
        <ele>118.9</ele>
        <time>2013-05-26T07:23:34.000Z</time>
      </trkpt>
      <trkpt lat="48.48476" lon="-2.59965">
        <ele>119</ele>
        <time>2013-05-26T07:23:35.000Z</time>
      </trkpt>
      <trkpt lat="48.48475" lon="-2.5996">
        <ele>119.7</ele>
        <time>2013-05-26T07:23:36.000Z</time>
      </trkpt>
      <trkpt lat="48.48474" lon="-2.59956">
        <ele>120.8</ele>
        <time>2013-05-26T07:23:37.000Z</time>
      </trkpt>
      <trkpt lat="48.48472" lon="-2.59952">
        <ele>121.8</ele>
        <time>2013-05-26T07:23:38.000Z</time>
      </trkpt>
      <trkpt lat="48.48471" lon="-2.5995">
        <ele>122.9</ele>
        <time>2013-05-26T07:23:39.000Z</time>
      </trkpt>
      <trkpt lat="48.48469" lon="-2.59947">
        <ele>123.7</ele>
        <time>2013-05-26T07:23:40.000Z</time>
      </trkpt>
      <trkpt lat="48.48467" lon="-2.59944">
        <ele>124.2</ele>
        <time>2013-05-26T07:23:41.000Z</time>
      </trkpt>
      <trkpt lat="48.48465" lon="-2.59941">
        <ele>125</ele>
        <time>2013-05-26T07:23:42.000Z</time>
      </trkpt>
      <trkpt lat="48.48463" lon="-2.59938">
        <ele>125.2</ele>
        <time>2013-05-26T07:23:43.000Z</time>
      </trkpt>
      <trkpt lat="48.48461" lon="-2.59935">
        <ele>125.3</ele>
        <time>2013-05-26T07:23:44.000Z</time>
      </trkpt>
      <trkpt lat="48.4846" lon="-2.59932">
        <ele>125.4</ele>
        <time>2013-05-26T07:23:45.000Z</time>
      </trkpt>
      <trkpt lat="48.48457" lon="-2.59928">
        <ele>125.4</ele>
        <time>2013-05-26T07:23:46.000Z</time>
      </trkpt>
      <trkpt lat="48.48455" lon="-2.59923">
        <ele>125.4</ele>
        <time>2013-05-26T07:23:47.000Z</time>
      </trkpt>
      <trkpt lat="48.48451" lon="-2.59919">
        <ele>125.2</ele>
        <time>2013-05-26T07:23:48.000Z</time>
      </trkpt>
      <trkpt lat="48.48448" lon="-2.59915">
        <ele>124.9</ele>
        <time>2013-05-26T07:23:49.000Z</time>
      </trkpt>
      <trkpt lat="48.48446" lon="-2.59911">
        <ele>124.6</ele>
        <time>2013-05-26T07:23:50.000Z</time>
      </trkpt>
      <trkpt lat="48.48443" lon="-2.59907">
        <ele>124.4</ele>
        <time>2013-05-26T07:23:51.000Z</time>
      </trkpt>
      <trkpt lat="48.4844" lon="-2.59904">
        <ele>124.1</ele>
        <time>2013-05-26T07:23:52.000Z</time>
      </trkpt>
      <trkpt lat="48.48438" lon="-2.599">
        <ele>123.9</ele>
        <time>2013-05-26T07:23:53.000Z</time>
      </trkpt>
      <trkpt lat="48.48435" lon="-2.59897">
        <ele>123.8</ele>
        <time>2013-05-26T07:23:54.000Z</time>
      </trkpt>
      <trkpt lat="48.48433" lon="-2.59893">
        <ele>123.6</ele>
        <time>2013-05-26T07:23:55.000Z</time>
      </trkpt>
      <trkpt lat="48.48431" lon="-2.59889">
        <ele>123.3</ele>
        <time>2013-05-26T07:23:56.000Z</time>
      </trkpt>
      <trkpt lat="48.48428" lon="-2.59886">
        <ele>123.1</ele>
        <time>2013-05-26T07:23:57.000Z</time>
      </trkpt>
      <trkpt lat="48.48426" lon="-2.59882">
        <ele>122.9</ele>
        <time>2013-05-26T07:23:58.000Z</time>
      </trkpt>
      <trkpt lat="48.48424" lon="-2.59879">
        <ele>122.9</ele>
        <time>2013-05-26T07:23:59.000Z</time>
      </trkpt>
      <trkpt lat="48.48421" lon="-2.59875">
        <ele>122.7</ele>
        <time>2013-05-26T07:24:00.000Z</time>
      </trkpt>
      <trkpt lat="48.48419" lon="-2.59872">
        <ele>122.7</ele>
        <time>2013-05-26T07:24:01.000Z</time>
      </trkpt>
      <trkpt lat="48.48416" lon="-2.59868">
        <ele>122.7</ele>
        <time>2013-05-26T07:24:02.000Z</time>
      </trkpt>
      <trkpt lat="48.48414" lon="-2.59865">
        <ele>122.6</ele>
        <time>2013-05-26T07:24:03.000Z</time>
      </trkpt>
      <trkpt lat="48.48412" lon="-2.59861">
        <ele>122.4</ele>
        <time>2013-05-26T07:24:04.000Z</time>
      </trkpt>
      <trkpt lat="48.48409" lon="-2.59857">
        <ele>122.1</ele>
        <time>2013-05-26T07:24:05.000Z</time>
      </trkpt>
      <trkpt lat="48.48407" lon="-2.59853">
        <ele>121.9</ele>
        <time>2013-05-26T07:24:06.000Z</time>
      </trkpt>
      <trkpt lat="48.48405" lon="-2.59849">
        <ele>121.6</ele>
        <time>2013-05-26T07:24:07.000Z</time>
      </trkpt>
      <trkpt lat="48.48403" lon="-2.59845">
        <ele>121.5</ele>
        <time>2013-05-26T07:24:08.000Z</time>
      </trkpt>
      <trkpt lat="48.48401" lon="-2.59841">
        <ele>121.6</ele>
        <time>2013-05-26T07:24:09.000Z</time>
      </trkpt>
      <trkpt lat="48.484" lon="-2.59837">
        <ele>121.6</ele>
        <time>2013-05-26T07:24:10.000Z</time>
      </trkpt>
      <trkpt lat="48.48398" lon="-2.59832">
        <ele>121.6</ele>
        <time>2013-05-26T07:24:11.000Z</time>
      </trkpt>
      <trkpt lat="48.48396" lon="-2.59828">
        <ele>121.4</ele>
        <time>2013-05-26T07:24:12.000Z</time>
      </trkpt>
      <trkpt lat="48.48395" lon="-2.59823">
        <ele>121.5</ele>
        <time>2013-05-26T07:24:13.000Z</time>
      </trkpt>
      <trkpt lat="48.48393" lon="-2.59819">
        <ele>121.4</ele>
        <time>2013-05-26T07:24:14.000Z</time>
      </trkpt>
      <trkpt lat="48.48391" lon="-2.59814">
        <ele>121.4</ele>
        <time>2013-05-26T07:24:15.000Z</time>
      </trkpt>
      <trkpt lat="48.4839" lon="-2.59809">
        <ele>121.4</ele>
        <time>2013-05-26T07:24:16.000Z</time>
      </trkpt>
      <trkpt lat="48.48388" lon="-2.59805">
        <ele>121.2</ele>
        <time>2013-05-26T07:24:17.000Z</time>
      </trkpt>
      <trkpt lat="48.48383" lon="-2.5979">
        <ele>118.3</ele>
        <time>2013-05-26T07:24:20.000Z</time>
      </trkpt>
      <trkpt lat="48.48382" lon="-2.59787">
        <ele>121.4</ele>
        <time>2013-05-26T07:24:21.000Z</time>
      </trkpt>
      <trkpt lat="48.4838" lon="-2.59782">
        <ele>122</ele>
        <time>2013-05-26T07:24:22.000Z</time>
      </trkpt>
      <trkpt lat="48.48378" lon="-2.59777">
        <ele>120.3</ele>
        <time>2013-05-26T07:24:23.000Z</time>
      </trkpt>
      <trkpt lat="48.48376" lon="-2.59772">
        <ele>120</ele>
        <time>2013-05-26T07:24:24.000Z</time>
      </trkpt>
      <trkpt lat="48.48376" lon="-2.59768">
        <ele>119.6</ele>
        <time>2013-05-26T07:24:25.000Z</time>
      </trkpt>
      <trkpt lat="48.48376" lon="-2.59764">
        <ele>120.2</ele>
        <time>2013-05-26T07:24:26.000Z</time>
      </trkpt>
      <trkpt lat="48.48376" lon="-2.59759">
        <ele>120.8</ele>
        <time>2013-05-26T07:24:27.000Z</time>
      </trkpt>
      <trkpt lat="48.48377" lon="-2.59754">
        <ele>120.7</ele>
        <time>2013-05-26T07:24:28.000Z</time>
      </trkpt>
      <trkpt lat="48.48377" lon="-2.59748">
        <ele>120.3</ele>
        <time>2013-05-26T07:24:29.000Z</time>
      </trkpt>
      <trkpt lat="48.48377" lon="-2.59743">
        <ele>119.3</ele>
        <time>2013-05-26T07:24:30.000Z</time>
      </trkpt>
      <trkpt lat="48.48378" lon="-2.59738">
        <ele>118.7</ele>
        <time>2013-05-26T07:24:31.000Z</time>
      </trkpt>
      <trkpt lat="48.48378" lon="-2.59732">
        <ele>118.4</ele>
        <time>2013-05-26T07:24:32.000Z</time>
      </trkpt>
      <trkpt lat="48.48378" lon="-2.59727">
        <ele>118.3</ele>
        <time>2013-05-26T07:24:33.000Z</time>
      </trkpt>
      <trkpt lat="48.48379" lon="-2.59722">
        <ele>118.3</ele>
        <time>2013-05-26T07:24:34.000Z</time>
      </trkpt>
      <trkpt lat="48.48379" lon="-2.59716">
        <ele>118.3</ele>
        <time>2013-05-26T07:24:35.000Z</time>
      </trkpt>
      <trkpt lat="48.48379" lon="-2.59711">
        <ele>118.3</ele>
        <time>2013-05-26T07:24:36.000Z</time>
      </trkpt>
      <trkpt lat="48.48379" lon="-2.59706">
        <ele>118.1</ele>
        <time>2013-05-26T07:24:37.000Z</time>
      </trkpt>
      <trkpt lat="48.4838" lon="-2.59701">
        <ele>118.2</ele>
        <time>2013-05-26T07:24:38.000Z</time>
      </trkpt>
      <trkpt lat="48.4838" lon="-2.59696">
        <ele>118.1</ele>
        <time>2013-05-26T07:24:39.000Z</time>
      </trkpt>
      <trkpt lat="48.48381" lon="-2.59691">
        <ele>118.4</ele>
        <time>2013-05-26T07:24:40.000Z</time>
      </trkpt>
      <trkpt lat="48.48382" lon="-2.59686">
        <ele>118.6</ele>
        <time>2013-05-26T07:24:41.000Z</time>
      </trkpt>
      <trkpt lat="48.48382" lon="-2.59682">
        <ele>118.4</ele>
        <time>2013-05-26T07:24:42.000Z</time>
      </trkpt>
      <trkpt lat="48.48382" lon="-2.59677">
        <ele>118.4</ele>
        <time>2013-05-26T07:24:43.000Z</time>
      </trkpt>
      <trkpt lat="48.48382" lon="-2.59672">
        <ele>118.4</ele>
        <time>2013-05-26T07:24:44.000Z</time>
      </trkpt>
      <trkpt lat="48.48383" lon="-2.59667">
        <ele>118.5</ele>
        <time>2013-05-26T07:24:45.000Z</time>
      </trkpt>
      <trkpt lat="48.48383" lon="-2.59662">
        <ele>118.7</ele>
        <time>2013-05-26T07:24:46.000Z</time>
      </trkpt>
      <trkpt lat="48.48383" lon="-2.59658">
        <ele>119</ele>
        <time>2013-05-26T07:24:47.000Z</time>
      </trkpt>
      <trkpt lat="48.48384" lon="-2.59653">
        <ele>119.1</ele>
        <time>2013-05-26T07:24:48.000Z</time>
      </trkpt>
      <trkpt lat="48.48384" lon="-2.59648">
        <ele>119</ele>
        <time>2013-05-26T07:24:49.000Z</time>
      </trkpt>
      <trkpt lat="48.48384" lon="-2.59643">
        <ele>119.2</ele>
        <time>2013-05-26T07:24:50.000Z</time>
      </trkpt>
      <trkpt lat="48.48385" lon="-2.59639">
        <ele>119.3</ele>
        <time>2013-05-26T07:24:51.000Z</time>
      </trkpt>
      <trkpt lat="48.48385" lon="-2.59634">
        <ele>119.4</ele>
        <time>2013-05-26T07:24:52.000Z</time>
      </trkpt>
      <trkpt lat="48.48385" lon="-2.5963">
        <ele>119.5</ele>
        <time>2013-05-26T07:24:53.000Z</time>
      </trkpt>
      <trkpt lat="48.48386" lon="-2.59625">
        <ele>119.7</ele>
        <time>2013-05-26T07:24:54.000Z</time>
      </trkpt>
      <trkpt lat="48.48386" lon="-2.59621">
        <ele>119.8</ele>
        <time>2013-05-26T07:24:55.000Z</time>
      </trkpt>
      <trkpt lat="48.48385" lon="-2.59616">
        <ele>120</ele>
        <time>2013-05-26T07:24:56.000Z</time>
      </trkpt>
      <trkpt lat="48.48385" lon="-2.59612">
        <ele>120</ele>
        <time>2013-05-26T07:24:57.000Z</time>
      </trkpt>
      <trkpt lat="48.48385" lon="-2.59608">
        <ele>120.1</ele>
        <time>2013-05-26T07:24:58.000Z</time>
      </trkpt>
      <trkpt lat="48.48384" lon="-2.59604">
        <ele>120.2</ele>
        <time>2013-05-26T07:24:59.000Z</time>
      </trkpt>
      <trkpt lat="48.48383" lon="-2.59599">
        <ele>120.3</ele>
        <time>2013-05-26T07:25:00.000Z</time>
      </trkpt>
      <trkpt lat="48.48382" lon="-2.59595">
        <ele>120.4</ele>
        <time>2013-05-26T07:25:01.000Z</time>
      </trkpt>
      <trkpt lat="48.48379" lon="-2.59591">
        <ele>120.6</ele>
        <time>2013-05-26T07:25:02.000Z</time>
      </trkpt>
      <trkpt lat="48.48377" lon="-2.59587">
        <ele>120.8</ele>
        <time>2013-05-26T07:25:03.000Z</time>
      </trkpt>
      <trkpt lat="48.48374" lon="-2.59584">
        <ele>121.3</ele>
        <time>2013-05-26T07:25:04.000Z</time>
      </trkpt>
      <trkpt lat="48.48372" lon="-2.59581">
        <ele>121.3</ele>
        <time>2013-05-26T07:25:05.000Z</time>
      </trkpt>
      <trkpt lat="48.48369" lon="-2.59578">
        <ele>121.4</ele>
        <time>2013-05-26T07:25:06.000Z</time>
      </trkpt>
      <trkpt lat="48.48366" lon="-2.59576">
        <ele>121.6</ele>
        <time>2013-05-26T07:25:07.000Z</time>
      </trkpt>
      <trkpt lat="48.48363" lon="-2.59573">
        <ele>121.8</ele>
        <time>2013-05-26T07:25:08.000Z</time>
      </trkpt>
      <trkpt lat="48.4836" lon="-2.59571">
        <ele>121.9</ele>
        <time>2013-05-26T07:25:09.000Z</time>
      </trkpt>
      <trkpt lat="48.48357" lon="-2.59568">
        <ele>122</ele>
        <time>2013-05-26T07:25:10.000Z</time>
      </trkpt>
      <trkpt lat="48.48354" lon="-2.59566">
        <ele>122.1</ele>
        <time>2013-05-26T07:25:11.000Z</time>
      </trkpt>
      <trkpt lat="48.48351" lon="-2.59564">
        <ele>122.4</ele>
        <time>2013-05-26T07:25:12.000Z</time>
      </trkpt>
      <trkpt lat="48.48348" lon="-2.59562">
        <ele>122.5</ele>
        <time>2013-05-26T07:25:13.000Z</time>
      </trkpt>
      <trkpt lat="48.48344" lon="-2.5956">
        <ele>122.6</ele>
        <time>2013-05-26T07:25:14.000Z</time>
      </trkpt>
      <trkpt lat="48.48341" lon="-2.59557">
        <ele>122.6</ele>
        <time>2013-05-26T07:25:15.000Z</time>
      </trkpt>
      <trkpt lat="48.48338" lon="-2.59555">
        <ele>122.7</ele>
        <time>2013-05-26T07:25:16.000Z</time>
      </trkpt>
      <trkpt lat="48.48335" lon="-2.59552">
        <ele>122.9</ele>
        <time>2013-05-26T07:25:17.000Z</time>
      </trkpt>
      <trkpt lat="48.4833" lon="-2.59539">
        <ele>131.7</ele>
        <time>2013-05-26T07:25:20.000Z</time>
      </trkpt>
      <trkpt lat="48.48324" lon="-2.59541">
        <ele>126.7</ele>
        <time>2013-05-26T07:25:21.000Z</time>
      </trkpt>
      <trkpt lat="48.48323" lon="-2.59539">
        <ele>130.1</ele>
        <time>2013-05-26T07:25:22.000Z</time>
      </trkpt>
      <trkpt lat="48.4832" lon="-2.59539">
        <ele>129.6</ele>
        <time>2013-05-26T07:25:23.000Z</time>
      </trkpt>
      <trkpt lat="48.48316" lon="-2.59537">
        <ele>130.1</ele>
        <time>2013-05-26T07:25:24.000Z</time>
      </trkpt>
      <trkpt lat="48.48313" lon="-2.59536">
        <ele>129.9</ele>
        <time>2013-05-26T07:25:25.000Z</time>
      </trkpt>
      <trkpt lat="48.48309" lon="-2.59534">
        <ele>129.8</ele>
        <time>2013-05-26T07:25:26.000Z</time>
      </trkpt>
      <trkpt lat="48.48306" lon="-2.59532">
        <ele>129.3</ele>
        <time>2013-05-26T07:25:27.000Z</time>
      </trkpt>
      <trkpt lat="48.48303" lon="-2.59531">
        <ele>129.2</ele>
        <time>2013-05-26T07:25:28.000Z</time>
      </trkpt>
      <trkpt lat="48.48299" lon="-2.59529">
        <ele>129.2</ele>
        <time>2013-05-26T07:25:29.000Z</time>
      </trkpt>
      <trkpt lat="48.48296" lon="-2.59528">
        <ele>128.9</ele>
        <time>2013-05-26T07:25:30.000Z</time>
      </trkpt>
      <trkpt lat="48.48293" lon="-2.59525">
        <ele>127.4</ele>
        <time>2013-05-26T07:25:31.000Z</time>
      </trkpt>
      <trkpt lat="48.4829" lon="-2.59524">
        <ele>127.2</ele>
        <time>2013-05-26T07:25:32.000Z</time>
      </trkpt>
      <trkpt lat="48.48286" lon="-2.59522">
        <ele>126.9</ele>
        <time>2013-05-26T07:25:33.000Z</time>
      </trkpt>
      <trkpt lat="48.48283" lon="-2.5952">
        <ele>126.9</ele>
        <time>2013-05-26T07:25:34.000Z</time>
      </trkpt>
      <trkpt lat="48.48279" lon="-2.59519">
        <ele>127</ele>
        <time>2013-05-26T07:25:35.000Z</time>
      </trkpt>
      <trkpt lat="48.48276" lon="-2.59517">
        <ele>127.2</ele>
        <time>2013-05-26T07:25:36.000Z</time>
      </trkpt>
      <trkpt lat="48.48273" lon="-2.59516">
        <ele>127.4</ele>
        <time>2013-05-26T07:25:37.000Z</time>
      </trkpt>
      <trkpt lat="48.4827" lon="-2.59514">
        <ele>127.7</ele>
        <time>2013-05-26T07:25:38.000Z</time>
      </trkpt>
      <trkpt lat="48.48267" lon="-2.59512">
        <ele>127.8</ele>
        <time>2013-05-26T07:25:39.000Z</time>
      </trkpt>
      <trkpt lat="48.48264" lon="-2.59511">
        <ele>128.1</ele>
        <time>2013-05-26T07:25:40.000Z</time>
      </trkpt>
      <trkpt lat="48.48261" lon="-2.59509">
        <ele>128.4</ele>
        <time>2013-05-26T07:25:41.000Z</time>
      </trkpt>
      <trkpt lat="48.48258" lon="-2.59508">
        <ele>128.6</ele>
        <time>2013-05-26T07:25:42.000Z</time>
      </trkpt>
      <trkpt lat="48.48254" lon="-2.59506">
        <ele>128.9</ele>
        <time>2013-05-26T07:25:43.000Z</time>
      </trkpt>
      <trkpt lat="48.48251" lon="-2.59505">
        <ele>129</ele>
        <time>2013-05-26T07:25:44.000Z</time>
      </trkpt>
      <trkpt lat="48.48248" lon="-2.59503">
        <ele>129.2</ele>
        <time>2013-05-26T07:25:45.000Z</time>
      </trkpt>
      <trkpt lat="48.48245" lon="-2.59502">
        <ele>129.6</ele>
        <time>2013-05-26T07:25:46.000Z</time>
      </trkpt>
      <trkpt lat="48.48242" lon="-2.595">
        <ele>130.2</ele>
        <time>2013-05-26T07:25:47.000Z</time>
      </trkpt>
      <trkpt lat="48.48238" lon="-2.59498">
        <ele>130.6</ele>
        <time>2013-05-26T07:25:48.000Z</time>
      </trkpt>
      <trkpt lat="48.48235" lon="-2.59496">
        <ele>130.4</ele>
        <time>2013-05-26T07:25:49.000Z</time>
      </trkpt>
      <trkpt lat="48.48232" lon="-2.59495">
        <ele>130.4</ele>
        <time>2013-05-26T07:25:50.000Z</time>
      </trkpt>
      <trkpt lat="48.48228" lon="-2.59493">
        <ele>130.6</ele>
        <time>2013-05-26T07:25:51.000Z</time>
      </trkpt>
      <trkpt lat="48.48225" lon="-2.59492">
        <ele>130.5</ele>
        <time>2013-05-26T07:25:52.000Z</time>
      </trkpt>
      <trkpt lat="48.48221" lon="-2.59491">
        <ele>130.7</ele>
        <time>2013-05-26T07:25:53.000Z</time>
      </trkpt>
      <trkpt lat="48.48218" lon="-2.5949">
        <ele>130.7</ele>
        <time>2013-05-26T07:25:54.000Z</time>
      </trkpt>
      <trkpt lat="48.48214" lon="-2.59488">
        <ele>130.8</ele>
        <time>2013-05-26T07:25:55.000Z</time>
      </trkpt>
      <trkpt lat="48.48211" lon="-2.59487">
        <ele>130.9</ele>
        <time>2013-05-26T07:25:56.000Z</time>
      </trkpt>
      <trkpt lat="48.48207" lon="-2.59486">
        <ele>130.8</ele>
        <time>2013-05-26T07:25:57.000Z</time>
      </trkpt>
      <trkpt lat="48.48204" lon="-2.59485">
        <ele>130.6</ele>
        <time>2013-05-26T07:25:58.000Z</time>
      </trkpt>
      <trkpt lat="48.482" lon="-2.59484">
        <ele>130.6</ele>
        <time>2013-05-26T07:25:59.000Z</time>
      </trkpt>
      <trkpt lat="48.48196" lon="-2.59483">
        <ele>130.6</ele>
        <time>2013-05-26T07:26:00.000Z</time>
      </trkpt>
      <trkpt lat="48.48192" lon="-2.59481">
        <ele>131.2</ele>
        <time>2013-05-26T07:26:01.000Z</time>
      </trkpt>
      <trkpt lat="48.48188" lon="-2.59481">
        <ele>131.5</ele>
        <time>2013-05-26T07:26:02.000Z</time>
      </trkpt>
      <trkpt lat="48.48185" lon="-2.59481">
        <ele>131.6</ele>
        <time>2013-05-26T07:26:03.000Z</time>
      </trkpt>
      <trkpt lat="48.48181" lon="-2.5948">
        <ele>131.8</ele>
        <time>2013-05-26T07:26:04.000Z</time>
      </trkpt>
      <trkpt lat="48.48178" lon="-2.5948">
        <ele>131.9</ele>
        <time>2013-05-26T07:26:05.000Z</time>
      </trkpt>
      <trkpt lat="48.48174" lon="-2.5948">
        <ele>132.1</ele>
        <time>2013-05-26T07:26:06.000Z</time>
      </trkpt>
      <trkpt lat="48.4817" lon="-2.5948">
        <ele>132.2</ele>
        <time>2013-05-26T07:26:07.000Z</time>
      </trkpt>
      <trkpt lat="48.48167" lon="-2.5948">
        <ele>132.2</ele>
        <time>2013-05-26T07:26:08.000Z</time>
      </trkpt>
      <trkpt lat="48.48163" lon="-2.5948">
        <ele>132.2</ele>
        <time>2013-05-26T07:26:09.000Z</time>
      </trkpt>
      <trkpt lat="48.48159" lon="-2.59481">
        <ele>132.2</ele>
        <time>2013-05-26T07:26:10.000Z</time>
      </trkpt>
      <trkpt lat="48.48155" lon="-2.59481">
        <ele>132.3</ele>
        <time>2013-05-26T07:26:11.000Z</time>
      </trkpt>
      <trkpt lat="48.48152" lon="-2.59482">
        <ele>132.3</ele>
        <time>2013-05-26T07:26:12.000Z</time>
      </trkpt>
      <trkpt lat="48.48148" lon="-2.59483">
        <ele>132.3</ele>
        <time>2013-05-26T07:26:13.000Z</time>
      </trkpt>
      <trkpt lat="48.48144" lon="-2.59483">
        <ele>132.2</ele>
        <time>2013-05-26T07:26:14.000Z</time>
      </trkpt>
      <trkpt lat="48.48141" lon="-2.59484">
        <ele>132.3</ele>
        <time>2013-05-26T07:26:15.000Z</time>
      </trkpt>
      <trkpt lat="48.48137" lon="-2.59484">
        <ele>132.4</ele>
        <time>2013-05-26T07:26:16.000Z</time>
      </trkpt>
      <trkpt lat="48.48134" lon="-2.59483">
        <ele>132.5</ele>
        <time>2013-05-26T07:26:17.000Z</time>
      </trkpt>
      <trkpt lat="48.48121" lon="-2.5947">
        <ele>135.7</ele>
        <time>2013-05-26T07:26:20.000Z</time>
      </trkpt>
      <trkpt lat="48.4812" lon="-2.59456">
        <ele>143</ele>
        <time>2013-05-26T07:26:21.000Z</time>
      </trkpt>
      <trkpt lat="48.48117" lon="-2.59449">
        <ele>143.2</ele>
        <time>2013-05-26T07:26:23.000Z</time>
      </trkpt>
      <trkpt lat="48.48113" lon="-2.59443">
        <ele>142.6</ele>
        <time>2013-05-26T07:26:24.000Z</time>
      </trkpt>
      <trkpt lat="48.4811" lon="-2.59438">
        <ele>145.3</ele>
        <time>2013-05-26T07:26:26.000Z</time>
      </trkpt>
      <trkpt lat="48.48108" lon="-2.59434">
        <ele>146.2</ele>
        <time>2013-05-26T07:26:27.000Z</time>
      </trkpt>
      <trkpt lat="48.48107" lon="-2.59429">
        <ele>148.3</ele>
        <time>2013-05-26T07:26:28.000Z</time>
      </trkpt>
      <trkpt lat="48.48106" lon="-2.59422">
        <ele>147.6</ele>
        <time>2013-05-26T07:26:29.000Z</time>
      </trkpt>
      <trkpt lat="48.48105" lon="-2.59417">
        <ele>148</ele>
        <time>2013-05-26T07:26:30.000Z</time>
      </trkpt>
      <trkpt lat="48.48103" lon="-2.59411">
        <ele>149.6</ele>
        <time>2013-05-26T07:26:31.000Z</time>
      </trkpt>
      <trkpt lat="48.48104" lon="-2.59406">
        <ele>150.6</ele>
        <time>2013-05-26T07:26:32.000Z</time>
      </trkpt>
      <trkpt lat="48.48104" lon="-2.59399">
        <ele>150.7</ele>
        <time>2013-05-26T07:26:33.000Z</time>
      </trkpt>
      <trkpt lat="48.48105" lon="-2.59393">
        <ele>151.3</ele>
        <time>2013-05-26T07:26:34.000Z</time>
      </trkpt>
      <trkpt lat="48.48107" lon="-2.59387">
        <ele>153.8</ele>
        <time>2013-05-26T07:26:35.000Z</time>
      </trkpt>
      <trkpt lat="48.48108" lon="-2.59381">
        <ele>153.6</ele>
        <time>2013-05-26T07:26:36.000Z</time>
      </trkpt>
      <trkpt lat="48.48111" lon="-2.59376">
        <ele>154.7</ele>
        <time>2013-05-26T07:26:37.000Z</time>
      </trkpt>
      <trkpt lat="48.48114" lon="-2.59371">
        <ele>154.6</ele>
        <time>2013-05-26T07:26:38.000Z</time>
      </trkpt>
      <trkpt lat="48.48117" lon="-2.59366">
        <ele>154.6</ele>
        <time>2013-05-26T07:26:39.000Z</time>
      </trkpt>
      <trkpt lat="48.48118" lon="-2.59359">
        <ele>152.4</ele>
        <time>2013-05-26T07:26:40.000Z</time>
      </trkpt>
      <trkpt lat="48.48121" lon="-2.59353">
        <ele>152.5</ele>
        <time>2013-05-26T07:26:41.000Z</time>
      </trkpt>
      <trkpt lat="48.48124" lon="-2.59348">
        <ele>152.2</ele>
        <time>2013-05-26T07:26:42.000Z</time>
      </trkpt>
      <trkpt lat="48.48127" lon="-2.59342">
        <ele>152.5</ele>
        <time>2013-05-26T07:26:43.000Z</time>
      </trkpt>
      <trkpt lat="48.4813" lon="-2.59336">
        <ele>151.6</ele>
        <time>2013-05-26T07:26:44.000Z</time>
      </trkpt>
      <trkpt lat="48.48133" lon="-2.59331">
        <ele>151.5</ele>
        <time>2013-05-26T07:26:45.000Z</time>
      </trkpt>
      <trkpt lat="48.48135" lon="-2.59325">
        <ele>151.6</ele>
        <time>2013-05-26T07:26:46.000Z</time>
      </trkpt>
      <trkpt lat="48.48139" lon="-2.59319">
        <ele>151.3</ele>
        <time>2013-05-26T07:26:47.000Z</time>
      </trkpt>
      <trkpt lat="48.48141" lon="-2.59313">
        <ele>151.6</ele>
        <time>2013-05-26T07:26:48.000Z</time>
      </trkpt>
      <trkpt lat="48.48146" lon="-2.59306">
        <ele>148.4</ele>
        <time>2013-05-26T07:26:49.000Z</time>
      </trkpt>
      <trkpt lat="48.48148" lon="-2.59299">
        <ele>148.2</ele>
        <time>2013-05-26T07:26:50.000Z</time>
      </trkpt>
      <trkpt lat="48.48151" lon="-2.59292">
        <ele>148.2</ele>
        <time>2013-05-26T07:26:51.000Z</time>
      </trkpt>
      <trkpt lat="48.48154" lon="-2.59285">
        <ele>148.6</ele>
        <time>2013-05-26T07:26:52.000Z</time>
      </trkpt>
      <trkpt lat="48.48157" lon="-2.59278">
        <ele>148.3</ele>
        <time>2013-05-26T07:26:53.000Z</time>
      </trkpt>
      <trkpt lat="48.48162" lon="-2.59272">
        <ele>146.7</ele>
        <time>2013-05-26T07:26:54.000Z</time>
      </trkpt>
      <trkpt lat="48.48168" lon="-2.59266">
        <ele>144.9</ele>
        <time>2013-05-26T07:26:55.000Z</time>
      </trkpt>
      <trkpt lat="48.48173" lon="-2.5926">
        <ele>143.3</ele>
        <time>2013-05-26T07:26:56.000Z</time>
      </trkpt>
      <trkpt lat="48.48178" lon="-2.59254">
        <ele>142.4</ele>
        <time>2013-05-26T07:26:57.000Z</time>
      </trkpt>
      <trkpt lat="48.48181" lon="-2.59248">
        <ele>141.7</ele>
        <time>2013-05-26T07:26:58.000Z</time>
      </trkpt>
      <trkpt lat="48.48184" lon="-2.59241">
        <ele>140.6</ele>
        <time>2013-05-26T07:26:59.000Z</time>
      </trkpt>
      <trkpt lat="48.48186" lon="-2.59235">
        <ele>140.2</ele>
        <time>2013-05-26T07:27:00.000Z</time>
      </trkpt>
      <trkpt lat="48.48188" lon="-2.59228">
        <ele>139.2</ele>
        <time>2013-05-26T07:27:01.000Z</time>
      </trkpt>
      <trkpt lat="48.4819" lon="-2.5922">
        <ele>138.5</ele>
        <time>2013-05-26T07:27:02.000Z</time>
      </trkpt>
      <trkpt lat="48.48192" lon="-2.59213">
        <ele>138.2</ele>
        <time>2013-05-26T07:27:03.000Z</time>
      </trkpt>
      <trkpt lat="48.48194" lon="-2.59205">
        <ele>137.7</ele>
        <time>2013-05-26T07:27:04.000Z</time>
      </trkpt>
      <trkpt lat="48.48196" lon="-2.59197">
        <ele>137.6</ele>
        <time>2013-05-26T07:27:05.000Z</time>
      </trkpt>
      <trkpt lat="48.48197" lon="-2.59189">
        <ele>137.2</ele>
        <time>2013-05-26T07:27:06.000Z</time>
      </trkpt>
      <trkpt lat="48.48199" lon="-2.59181">
        <ele>136.8</ele>
        <time>2013-05-26T07:27:07.000Z</time>
      </trkpt>
      <trkpt lat="48.482" lon="-2.59173">
        <ele>136.6</ele>
        <time>2013-05-26T07:27:08.000Z</time>
      </trkpt>
      <trkpt lat="48.48201" lon="-2.59166">
        <ele>136.3</ele>
        <time>2013-05-26T07:27:09.000Z</time>
      </trkpt>
      <trkpt lat="48.48202" lon="-2.59157">
        <ele>136.2</ele>
        <time>2013-05-26T07:27:10.000Z</time>
      </trkpt>
      <trkpt lat="48.48203" lon="-2.59149">
        <ele>136</ele>
        <time>2013-05-26T07:27:11.000Z</time>
      </trkpt>
      <trkpt lat="48.48204" lon="-2.59142">
        <ele>136</ele>
        <time>2013-05-26T07:27:12.000Z</time>
      </trkpt>
      <trkpt lat="48.48205" lon="-2.59135">
        <ele>135.9</ele>
        <time>2013-05-26T07:27:13.000Z</time>
      </trkpt>
      <trkpt lat="48.48206" lon="-2.59128">
        <ele>135.8</ele>
        <time>2013-05-26T07:27:14.000Z</time>
      </trkpt>
      <trkpt lat="48.48207" lon="-2.5912">
        <ele>135.6</ele>
        <time>2013-05-26T07:27:15.000Z</time>
      </trkpt>
      <trkpt lat="48.48208" lon="-2.59113">
        <ele>135.4</ele>
        <time>2013-05-26T07:27:16.000Z</time>
      </trkpt>
      <trkpt lat="48.4821" lon="-2.59105">
        <ele>135.2</ele>
        <time>2013-05-26T07:27:17.000Z</time>
      </trkpt>
      <trkpt lat="48.48214" lon="-2.59064">
        <ele>130.6</ele>
        <time>2013-05-26T07:27:21.000Z</time>
      </trkpt>
      <trkpt lat="48.48213" lon="-2.59059">
        <ele>127.8</ele>
        <time>2013-05-26T07:27:22.000Z</time>
      </trkpt>
      <trkpt lat="48.48217" lon="-2.59053">
        <ele>129.4</ele>
        <time>2013-05-26T07:27:23.000Z</time>
      </trkpt>
      <trkpt lat="48.48217" lon="-2.59042">
        <ele>126</ele>
        <time>2013-05-26T07:27:24.000Z</time>
      </trkpt>
      <trkpt lat="48.48218" lon="-2.59036">
        <ele>125.8</ele>
        <time>2013-05-26T07:27:25.000Z</time>
      </trkpt>
      <trkpt lat="48.48218" lon="-2.59028">
        <ele>125.6</ele>
        <time>2013-05-26T07:27:26.000Z</time>
      </trkpt>
      <trkpt lat="48.48219" lon="-2.5902">
        <ele>128.1</ele>
        <time>2013-05-26T07:27:27.000Z</time>
      </trkpt>
      <trkpt lat="48.48221" lon="-2.59017">
        <ele>129.3</ele>
        <time>2013-05-26T07:27:28.000Z</time>
      </trkpt>
      <trkpt lat="48.48222" lon="-2.59012">
        <ele>131</ele>
        <time>2013-05-26T07:27:29.000Z</time>
      </trkpt>
      <trkpt lat="48.48223" lon="-2.59009">
        <ele>132</ele>
        <time>2013-05-26T07:27:30.000Z</time>
      </trkpt>
      <trkpt lat="48.48224" lon="-2.59006">
        <ele>132.3</ele>
        <time>2013-05-26T07:27:31.000Z</time>
      </trkpt>
      <trkpt lat="48.48223" lon="-2.59">
        <ele>132</ele>
        <time>2013-05-26T07:27:34.000Z</time>
      </trkpt>
      <trkpt lat="48.48222" lon="-2.58998">
        <ele>132.1</ele>
        <time>2013-05-26T07:27:35.000Z</time>
      </trkpt>
      <trkpt lat="48.4822" lon="-2.58995">
        <ele>131.9</ele>
        <time>2013-05-26T07:27:37.000Z</time>
      </trkpt>
      <trkpt lat="48.48219" lon="-2.58994">
        <ele>132.4</ele>
        <time>2013-05-26T07:27:38.000Z</time>
      </trkpt>
      <trkpt lat="48.48216" lon="-2.58993">
        <ele>131.9</ele>
        <time>2013-05-26T07:27:39.000Z</time>
      </trkpt>
      <trkpt lat="48.48212" lon="-2.58993">
        <ele>131.4</ele>
        <time>2013-05-26T07:27:40.000Z</time>
      </trkpt>
      <trkpt lat="48.48209" lon="-2.58992">
        <ele>131</ele>
        <time>2013-05-26T07:27:41.000Z</time>
      </trkpt>
      <trkpt lat="48.48206" lon="-2.58991">
        <ele>131.1</ele>
        <time>2013-05-26T07:27:42.000Z</time>
      </trkpt>
      <trkpt lat="48.48202" lon="-2.5899">
        <ele>131.4</ele>
        <time>2013-05-26T07:27:43.000Z</time>
      </trkpt>
      <trkpt lat="48.48199" lon="-2.5899">
        <ele>131.6</ele>
        <time>2013-05-26T07:27:44.000Z</time>
      </trkpt>
      <trkpt lat="48.48195" lon="-2.58988">
        <ele>132</ele>
        <time>2013-05-26T07:27:45.000Z</time>
      </trkpt>
      <trkpt lat="48.48192" lon="-2.58987">
        <ele>132.2</ele>
        <time>2013-05-26T07:27:46.000Z</time>
      </trkpt>
      <trkpt lat="48.48188" lon="-2.58986">
        <ele>132.7</ele>
        <time>2013-05-26T07:27:47.000Z</time>
      </trkpt>
      <trkpt lat="48.48185" lon="-2.58985">
        <ele>132.7</ele>
        <time>2013-05-26T07:27:48.000Z</time>
      </trkpt>
      <trkpt lat="48.48181" lon="-2.58984">
        <ele>132.8</ele>
        <time>2013-05-26T07:27:49.000Z</time>
      </trkpt>
      <trkpt lat="48.48178" lon="-2.58983">
        <ele>132.9</ele>
        <time>2013-05-26T07:27:50.000Z</time>
      </trkpt>
      <trkpt lat="48.48174" lon="-2.58982">
        <ele>132.9</ele>
        <time>2013-05-26T07:27:51.000Z</time>
      </trkpt>
      <trkpt lat="48.4817" lon="-2.58981">
        <ele>133</ele>
        <time>2013-05-26T07:27:52.000Z</time>
      </trkpt>
      <trkpt lat="48.48166" lon="-2.5898">
        <ele>132.9</ele>
        <time>2013-05-26T07:27:53.000Z</time>
      </trkpt>
      <trkpt lat="48.48162" lon="-2.58979">
        <ele>132.9</ele>
        <time>2013-05-26T07:27:54.000Z</time>
      </trkpt>
      <trkpt lat="48.48158" lon="-2.58977">
        <ele>132.9</ele>
        <time>2013-05-26T07:27:55.000Z</time>
      </trkpt>
      <trkpt lat="48.48155" lon="-2.58976">
        <ele>132.9</ele>
        <time>2013-05-26T07:27:56.000Z</time>
      </trkpt>
      <trkpt lat="48.48151" lon="-2.58975">
        <ele>132.8</ele>
        <time>2013-05-26T07:27:57.000Z</time>
      </trkpt>
      <trkpt lat="48.48148" lon="-2.58975">
        <ele>132.9</ele>
        <time>2013-05-26T07:27:58.000Z</time>
      </trkpt>
      <trkpt lat="48.48144" lon="-2.58974">
        <ele>132.9</ele>
        <time>2013-05-26T07:27:59.000Z</time>
      </trkpt>
      <trkpt lat="48.48141" lon="-2.58972">
        <ele>133</ele>
        <time>2013-05-26T07:28:00.000Z</time>
      </trkpt>
      <trkpt lat="48.48138" lon="-2.5897">
        <ele>133.1</ele>
        <time>2013-05-26T07:28:01.000Z</time>
      </trkpt>
      <trkpt lat="48.48137" lon="-2.58966">
        <ele>133.1</ele>
        <time>2013-05-26T07:28:02.000Z</time>
      </trkpt>
      <trkpt lat="48.48136" lon="-2.58962">
        <ele>133.1</ele>
        <time>2013-05-26T07:28:03.000Z</time>
      </trkpt>
      <trkpt lat="48.48137" lon="-2.58958">
        <ele>133.1</ele>
        <time>2013-05-26T07:28:04.000Z</time>
      </trkpt>
      <trkpt lat="48.48138" lon="-2.58954">
        <ele>133.2</ele>
        <time>2013-05-26T07:28:05.000Z</time>
      </trkpt>
      <trkpt lat="48.4814" lon="-2.5895">
        <ele>133.3</ele>
        <time>2013-05-26T07:28:06.000Z</time>
      </trkpt>
      <trkpt lat="48.48142" lon="-2.58945">
        <ele>133.3</ele>
        <time>2013-05-26T07:28:07.000Z</time>
      </trkpt>
      <trkpt lat="48.48144" lon="-2.58939">
        <ele>133.4</ele>
        <time>2013-05-26T07:28:08.000Z</time>
      </trkpt>
      <trkpt lat="48.48147" lon="-2.58935">
        <ele>133.4</ele>
        <time>2013-05-26T07:28:09.000Z</time>
      </trkpt>
      <trkpt lat="48.4815" lon="-2.58929">
        <ele>133.4</ele>
        <time>2013-05-26T07:28:10.000Z</time>
      </trkpt>
      <trkpt lat="48.48152" lon="-2.58924">
        <ele>133.5</ele>
        <time>2013-05-26T07:28:11.000Z</time>
      </trkpt>
      <trkpt lat="48.48155" lon="-2.58918">
        <ele>133.6</ele>
        <time>2013-05-26T07:28:12.000Z</time>
      </trkpt>
      <trkpt lat="48.48157" lon="-2.58912">
        <ele>133.6</ele>
        <time>2013-05-26T07:28:13.000Z</time>
      </trkpt>
      <trkpt lat="48.4816" lon="-2.58906">
        <ele>133.7</ele>
        <time>2013-05-26T07:28:14.000Z</time>
      </trkpt>
      <trkpt lat="48.48162" lon="-2.589">
        <ele>133.8</ele>
        <time>2013-05-26T07:28:15.000Z</time>
      </trkpt>
      <trkpt lat="48.48164" lon="-2.58894">
        <ele>133.8</ele>
        <time>2013-05-26T07:28:16.000Z</time>
      </trkpt>
      <trkpt lat="48.48166" lon="-2.58889">
        <ele>133.8</ele>
        <time>2013-05-26T07:28:17.000Z</time>
      </trkpt>
      <trkpt lat="48.48183" lon="-2.58863">
        <ele>143.2</ele>
        <time>2013-05-26T07:28:21.000Z</time>
      </trkpt>
      <trkpt lat="48.48177" lon="-2.58861">
        <ele>132.8</ele>
        <time>2013-05-26T07:28:22.000Z</time>
      </trkpt>
      <trkpt lat="48.48178" lon="-2.58857">
        <ele>131.2</ele>
        <time>2013-05-26T07:28:23.000Z</time>
      </trkpt>
      <trkpt lat="48.4818" lon="-2.58852">
        <ele>130.5</ele>
        <time>2013-05-26T07:28:24.000Z</time>
      </trkpt>
      <trkpt lat="48.48181" lon="-2.58847">
        <ele>130.9</ele>
        <time>2013-05-26T07:28:25.000Z</time>
      </trkpt>
      <trkpt lat="48.48182" lon="-2.58843">
        <ele>131.7</ele>
        <time>2013-05-26T07:28:26.000Z</time>
      </trkpt>
      <trkpt lat="48.48184" lon="-2.58839">
        <ele>131.7</ele>
        <time>2013-05-26T07:28:27.000Z</time>
      </trkpt>
      <trkpt lat="48.48185" lon="-2.58835">
        <ele>131.9</ele>
        <time>2013-05-26T07:28:28.000Z</time>
      </trkpt>
      <trkpt lat="48.48187" lon="-2.58831">
        <ele>131.6</ele>
        <time>2013-05-26T07:28:29.000Z</time>
      </trkpt>
      <trkpt lat="48.48189" lon="-2.58826">
        <ele>131.4</ele>
        <time>2013-05-26T07:28:30.000Z</time>
      </trkpt>
      <trkpt lat="48.48191" lon="-2.58821">
        <ele>131.8</ele>
        <time>2013-05-26T07:28:31.000Z</time>
      </trkpt>
      <trkpt lat="48.48193" lon="-2.58816">
        <ele>132.1</ele>
        <time>2013-05-26T07:28:32.000Z</time>
      </trkpt>
      <trkpt lat="48.48194" lon="-2.58811">
        <ele>132.1</ele>
        <time>2013-05-26T07:28:33.000Z</time>
      </trkpt>
      <trkpt lat="48.48194" lon="-2.58806">
        <ele>132.4</ele>
        <time>2013-05-26T07:28:34.000Z</time>
      </trkpt>
      <trkpt lat="48.48192" lon="-2.58802">
        <ele>133.3</ele>
        <time>2013-05-26T07:28:35.000Z</time>
      </trkpt>
      <trkpt lat="48.48191" lon="-2.588">
        <ele>134.4</ele>
        <time>2013-05-26T07:28:36.000Z</time>
      </trkpt>
      <trkpt lat="48.48188" lon="-2.58796">
        <ele>137.1</ele>
        <time>2013-05-26T07:28:38.000Z</time>
      </trkpt>
      <trkpt lat="48.48186" lon="-2.58794">
        <ele>138.5</ele>
        <time>2013-05-26T07:28:39.000Z</time>
      </trkpt>
      <trkpt lat="48.48182" lon="-2.58791">
        <ele>142.2</ele>
        <time>2013-05-26T07:28:41.000Z</time>
      </trkpt>
      <trkpt lat="48.4818" lon="-2.58788">
        <ele>144</ele>
        <time>2013-05-26T07:28:42.000Z</time>
      </trkpt>
      <trkpt lat="48.48177" lon="-2.58787">
        <ele>146.3</ele>
        <time>2013-05-26T07:28:43.000Z</time>
      </trkpt>
      <trkpt lat="48.48175" lon="-2.58786">
        <ele>148.3</ele>
        <time>2013-05-26T07:28:44.000Z</time>
      </trkpt>
      <trkpt lat="48.48173" lon="-2.58786">
        <ele>149.6</ele>
        <time>2013-05-26T07:28:45.000Z</time>
      </trkpt>
      <trkpt lat="48.4817" lon="-2.58785">
        <ele>151.5</ele>
        <time>2013-05-26T07:28:46.000Z</time>
      </trkpt>
      <trkpt lat="48.48168" lon="-2.58784">
        <ele>153.1</ele>
        <time>2013-05-26T07:28:47.000Z</time>
      </trkpt>
      <trkpt lat="48.48166" lon="-2.58782">
        <ele>154.6</ele>
        <time>2013-05-26T07:28:48.000Z</time>
      </trkpt>
      <trkpt lat="48.48163" lon="-2.58781">
        <ele>156</ele>
        <time>2013-05-26T07:28:49.000Z</time>
      </trkpt>
      <trkpt lat="48.48159" lon="-2.58779">
        <ele>155.3</ele>
        <time>2013-05-26T07:28:50.000Z</time>
      </trkpt>
      <trkpt lat="48.48156" lon="-2.58777">
        <ele>154.3</ele>
        <time>2013-05-26T07:28:51.000Z</time>
      </trkpt>
      <trkpt lat="48.48152" lon="-2.58776">
        <ele>153.1</ele>
        <time>2013-05-26T07:28:52.000Z</time>
      </trkpt>
      <trkpt lat="48.48148" lon="-2.58775">
        <ele>152.1</ele>
        <time>2013-05-26T07:28:53.000Z</time>
      </trkpt>
      <trkpt lat="48.48144" lon="-2.58773">
        <ele>151.3</ele>
        <time>2013-05-26T07:28:54.000Z</time>
      </trkpt>
      <trkpt lat="48.4814" lon="-2.58772">
        <ele>150.2</ele>
        <time>2013-05-26T07:28:55.000Z</time>
      </trkpt>
      <trkpt lat="48.48135" lon="-2.58769">
        <ele>148.7</ele>
        <time>2013-05-26T07:28:56.000Z</time>
      </trkpt>
      <trkpt lat="48.48132" lon="-2.58766">
        <ele>147.4</ele>
        <time>2013-05-26T07:28:57.000Z</time>
      </trkpt>
      <trkpt lat="48.4813" lon="-2.58763">
        <ele>147</ele>
        <time>2013-05-26T07:28:58.000Z</time>
      </trkpt>
      <trkpt lat="48.48128" lon="-2.58759">
        <ele>146.5</ele>
        <time>2013-05-26T07:28:59.000Z</time>
      </trkpt>
      <trkpt lat="48.48127" lon="-2.58753">
        <ele>145.8</ele>
        <time>2013-05-26T07:29:01.000Z</time>
      </trkpt>
      <trkpt lat="48.48128" lon="-2.58752">
        <ele>145.5</ele>
        <time>2013-05-26T07:29:02.000Z</time>
      </trkpt>
      <trkpt lat="48.48131" lon="-2.5875">
        <ele>145.6</ele>
        <time>2013-05-26T07:29:04.000Z</time>
      </trkpt>
      <trkpt lat="48.48133" lon="-2.58748">
        <ele>146</ele>
        <time>2013-05-26T07:29:05.000Z</time>
      </trkpt>
      <trkpt lat="48.48135" lon="-2.58745">
        <ele>146.3</ele>
        <time>2013-05-26T07:29:06.000Z</time>
      </trkpt>
      <trkpt lat="48.48137" lon="-2.58743">
        <ele>146.7</ele>
        <time>2013-05-26T07:29:07.000Z</time>
      </trkpt>
      <trkpt lat="48.48139" lon="-2.5874">
        <ele>146.6</ele>
        <time>2013-05-26T07:29:08.000Z</time>
      </trkpt>
      <trkpt lat="48.48141" lon="-2.58736">
        <ele>146.2</ele>
        <time>2013-05-26T07:29:09.000Z</time>
      </trkpt>
      <trkpt lat="48.48143" lon="-2.58732">
        <ele>146.2</ele>
        <time>2013-05-26T07:29:10.000Z</time>
      </trkpt>
      <trkpt lat="48.48145" lon="-2.58728">
        <ele>145.9</ele>
        <time>2013-05-26T07:29:11.000Z</time>
      </trkpt>
      <trkpt lat="48.48148" lon="-2.58723">
        <ele>145.7</ele>
        <time>2013-05-26T07:29:12.000Z</time>
      </trkpt>
      <trkpt lat="48.4815" lon="-2.58717">
        <ele>144.5</ele>
        <time>2013-05-26T07:29:13.000Z</time>
      </trkpt>
      <trkpt lat="48.48153" lon="-2.58709">
        <ele>143.2</ele>
        <time>2013-05-26T07:29:14.000Z</time>
      </trkpt>
      <trkpt lat="48.48153" lon="-2.58703">
        <ele>142.4</ele>
        <time>2013-05-26T07:29:15.000Z</time>
      </trkpt>
      <trkpt lat="48.48152" lon="-2.58698">
        <ele>141.8</ele>
        <time>2013-05-26T07:29:16.000Z</time>
      </trkpt>
      <trkpt lat="48.48152" lon="-2.58692">
        <ele>141.2</ele>
        <time>2013-05-26T07:29:17.000Z</time>
      </trkpt>
      <trkpt lat="48.4816" lon="-2.58674">
        <ele>139.7</ele>
        <time>2013-05-26T07:29:20.000Z</time>
      </trkpt>
      <trkpt lat="48.48162" lon="-2.58662">
        <ele>135</ele>
        <time>2013-05-26T07:29:22.000Z</time>
      </trkpt>
      <trkpt lat="48.48165" lon="-2.58658">
        <ele>132.2</ele>
        <time>2013-05-26T07:29:23.000Z</time>
      </trkpt>
      <trkpt lat="48.48168" lon="-2.5865">
        <ele>131.4</ele>
        <time>2013-05-26T07:29:24.000Z</time>
      </trkpt>
      <trkpt lat="48.48172" lon="-2.58643">
        <ele>131</ele>
        <time>2013-05-26T07:29:25.000Z</time>
      </trkpt>
      <trkpt lat="48.48174" lon="-2.58637">
        <ele>130.4</ele>
        <time>2013-05-26T07:29:26.000Z</time>
      </trkpt>
      <trkpt lat="48.48176" lon="-2.58632">
        <ele>129.6</ele>
        <time>2013-05-26T07:29:27.000Z</time>
      </trkpt>
      <trkpt lat="48.48179" lon="-2.58626">
        <ele>129.9</ele>
        <time>2013-05-26T07:29:28.000Z</time>
      </trkpt>
      <trkpt lat="48.48181" lon="-2.58621">
        <ele>129.5</ele>
        <time>2013-05-26T07:29:29.000Z</time>
      </trkpt>
      <trkpt lat="48.48184" lon="-2.58617">
        <ele>130</ele>
        <time>2013-05-26T07:29:30.000Z</time>
      </trkpt>
      <trkpt lat="48.48188" lon="-2.58614">
        <ele>130.2</ele>
        <time>2013-05-26T07:29:31.000Z</time>
      </trkpt>
      <trkpt lat="48.48192" lon="-2.58614">
        <ele>130.1</ele>
        <time>2013-05-26T07:29:32.000Z</time>
      </trkpt>
      <trkpt lat="48.48197" lon="-2.58614">
        <ele>130.4</ele>
        <time>2013-05-26T07:29:33.000Z</time>
      </trkpt>
      <trkpt lat="48.48202" lon="-2.58615">
        <ele>130.6</ele>
        <time>2013-05-26T07:29:34.000Z</time>
      </trkpt>
      <trkpt lat="48.48206" lon="-2.58618">
        <ele>133</ele>
        <time>2013-05-26T07:29:35.000Z</time>
      </trkpt>
      <trkpt lat="48.4821" lon="-2.5862">
        <ele>133.8</ele>
        <time>2013-05-26T07:29:36.000Z</time>
      </trkpt>
      <trkpt lat="48.48214" lon="-2.58622">
        <ele>134.4</ele>
        <time>2013-05-26T07:29:37.000Z</time>
      </trkpt>
      <trkpt lat="48.48219" lon="-2.58623">
        <ele>134.8</ele>
        <time>2013-05-26T07:29:38.000Z</time>
      </trkpt>
      <trkpt lat="48.48223" lon="-2.58624">
        <ele>135</ele>
        <time>2013-05-26T07:29:39.000Z</time>
      </trkpt>
      <trkpt lat="48.48226" lon="-2.58624">
        <ele>135.3</ele>
        <time>2013-05-26T07:29:40.000Z</time>
      </trkpt>
      <trkpt lat="48.4823" lon="-2.58622">
        <ele>135.4</ele>
        <time>2013-05-26T07:29:41.000Z</time>
      </trkpt>
      <trkpt lat="48.48233" lon="-2.58618">
        <ele>135.6</ele>
        <time>2013-05-26T07:29:42.000Z</time>
      </trkpt>
      <trkpt lat="48.48236" lon="-2.58614">
        <ele>135.5</ele>
        <time>2013-05-26T07:29:43.000Z</time>
      </trkpt>
      <trkpt lat="48.48239" lon="-2.58609">
        <ele>135.5</ele>
        <time>2013-05-26T07:29:44.000Z</time>
      </trkpt>
      <trkpt lat="48.48242" lon="-2.58604">
        <ele>135.4</ele>
        <time>2013-05-26T07:29:45.000Z</time>
      </trkpt>
      <trkpt lat="48.48245" lon="-2.58599">
        <ele>135.4</ele>
        <time>2013-05-26T07:29:46.000Z</time>
      </trkpt>
      <trkpt lat="48.48248" lon="-2.58595">
        <ele>135.3</ele>
        <time>2013-05-26T07:29:47.000Z</time>
      </trkpt>
      <trkpt lat="48.4825" lon="-2.5859">
        <ele>135.5</ele>
        <time>2013-05-26T07:29:48.000Z</time>
      </trkpt>
      <trkpt lat="48.48253" lon="-2.58586">
        <ele>135.5</ele>
        <time>2013-05-26T07:29:49.000Z</time>
      </trkpt>
      <trkpt lat="48.48256" lon="-2.58582">
        <ele>135.4</ele>
        <time>2013-05-26T07:29:50.000Z</time>
      </trkpt>
      <trkpt lat="48.48259" lon="-2.58579">
        <ele>135.6</ele>
        <time>2013-05-26T07:29:51.000Z</time>
      </trkpt>
      <trkpt lat="48.48261" lon="-2.58577">
        <ele>135.4</ele>
        <time>2013-05-26T07:29:52.000Z</time>
      </trkpt>
      <trkpt lat="48.48265" lon="-2.58574">
        <ele>134.9</ele>
        <time>2013-05-26T07:29:57.000Z</time>
      </trkpt>
      <trkpt lat="48.48265" lon="-2.58573">
        <ele>134.9</ele>
        <time>2013-05-26T07:29:58.000Z</time>
      </trkpt>
      <trkpt lat="48.48267" lon="-2.58569">
        <ele>135</ele>
        <time>2013-05-26T07:30:03.000Z</time>
      </trkpt>
      <trkpt lat="48.48267" lon="-2.58567">
        <ele>135.1</ele>
        <time>2013-05-26T07:30:04.000Z</time>
      </trkpt>
      <trkpt lat="48.48269" lon="-2.58561">
        <ele>135.1</ele>
        <time>2013-05-26T07:30:06.000Z</time>
      </trkpt>
      <trkpt lat="48.4827" lon="-2.58557">
        <ele>135.2</ele>
        <time>2013-05-26T07:30:07.000Z</time>
      </trkpt>
      <trkpt lat="48.48272" lon="-2.58553">
        <ele>135.2</ele>
        <time>2013-05-26T07:30:08.000Z</time>
      </trkpt>
      <trkpt lat="48.48273" lon="-2.58547">
        <ele>135.2</ele>
        <time>2013-05-26T07:30:09.000Z</time>
      </trkpt>
      <trkpt lat="48.48274" lon="-2.58541">
        <ele>135.2</ele>
        <time>2013-05-26T07:30:10.000Z</time>
      </trkpt>
      <trkpt lat="48.48275" lon="-2.58534">
        <ele>135.4</ele>
        <time>2013-05-26T07:30:11.000Z</time>
      </trkpt>
      <trkpt lat="48.48276" lon="-2.58526">
        <ele>135.4</ele>
        <time>2013-05-26T07:30:12.000Z</time>
      </trkpt>
      <trkpt lat="48.48277" lon="-2.58518">
        <ele>135.3</ele>
        <time>2013-05-26T07:30:13.000Z</time>
      </trkpt>
      <trkpt lat="48.48278" lon="-2.5851">
        <ele>135.2</ele>
        <time>2013-05-26T07:30:14.000Z</time>
      </trkpt>
      <trkpt lat="48.4828" lon="-2.58501">
        <ele>134.9</ele>
        <time>2013-05-26T07:30:15.000Z</time>
      </trkpt>
      <trkpt lat="48.48281" lon="-2.58493">
        <ele>134.7</ele>
        <time>2013-05-26T07:30:16.000Z</time>
      </trkpt>
      <trkpt lat="48.48282" lon="-2.58485">
        <ele>134.5</ele>
        <time>2013-05-26T07:30:17.000Z</time>
      </trkpt>
      <trkpt lat="48.48278" lon="-2.58451">
        <ele>115.3</ele>
        <time>2013-05-26T07:30:20.000Z</time>
      </trkpt>
      <trkpt lat="48.48278" lon="-2.58446">
        <ele>119</ele>
        <time>2013-05-26T07:30:21.000Z</time>
      </trkpt>
      <trkpt lat="48.48283" lon="-2.58438">
        <ele>124.9</ele>
        <time>2013-05-26T07:30:22.000Z</time>
      </trkpt>
      <trkpt lat="48.48284" lon="-2.5843">
        <ele>125.5</ele>
        <time>2013-05-26T07:30:23.000Z</time>
      </trkpt>
      <trkpt lat="48.48286" lon="-2.58422">
        <ele>126.5</ele>
        <time>2013-05-26T07:30:24.000Z</time>
      </trkpt>
      <trkpt lat="48.48287" lon="-2.58414">
        <ele>125.3</ele>
        <time>2013-05-26T07:30:25.000Z</time>
      </trkpt>
      <trkpt lat="48.48288" lon="-2.58406">
        <ele>126.2</ele>
        <time>2013-05-26T07:30:26.000Z</time>
      </trkpt>
      <trkpt lat="48.4829" lon="-2.58397">
        <ele>126.2</ele>
        <time>2013-05-26T07:30:27.000Z</time>
      </trkpt>
      <trkpt lat="48.48291" lon="-2.58388">
        <ele>126.4</ele>
        <time>2013-05-26T07:30:28.000Z</time>
      </trkpt>
      <trkpt lat="48.48292" lon="-2.58379">
        <ele>125.6</ele>
        <time>2013-05-26T07:30:29.000Z</time>
      </trkpt>
      <trkpt lat="48.48293" lon="-2.58371">
        <ele>126.2</ele>
        <time>2013-05-26T07:30:30.000Z</time>
      </trkpt>
      <trkpt lat="48.48294" lon="-2.58362">
        <ele>126.2</ele>
        <time>2013-05-26T07:30:31.000Z</time>
      </trkpt>
      <trkpt lat="48.48295" lon="-2.58353">
        <ele>125.8</ele>
        <time>2013-05-26T07:30:32.000Z</time>
      </trkpt>
      <trkpt lat="48.48296" lon="-2.58345">
        <ele>125.9</ele>
        <time>2013-05-26T07:30:33.000Z</time>
      </trkpt>
      <trkpt lat="48.48297" lon="-2.58336">
        <ele>125.7</ele>
        <time>2013-05-26T07:30:34.000Z</time>
      </trkpt>
      <trkpt lat="48.48298" lon="-2.58327">
        <ele>125.5</ele>
        <time>2013-05-26T07:30:35.000Z</time>
      </trkpt>
      <trkpt lat="48.48299" lon="-2.58318">
        <ele>125.4</ele>
        <time>2013-05-26T07:30:36.000Z</time>
      </trkpt>
      <trkpt lat="48.483" lon="-2.58309">
        <ele>125.4</ele>
        <time>2013-05-26T07:30:37.000Z</time>
      </trkpt>
      <trkpt lat="48.48302" lon="-2.583">
        <ele>125.4</ele>
        <time>2013-05-26T07:30:38.000Z</time>
      </trkpt>
      <trkpt lat="48.48303" lon="-2.58291">
        <ele>125.3</ele>
        <time>2013-05-26T07:30:39.000Z</time>
      </trkpt>
      <trkpt lat="48.48304" lon="-2.58281">
        <ele>125.1</ele>
        <time>2013-05-26T07:30:40.000Z</time>
      </trkpt>
      <trkpt lat="48.48304" lon="-2.58272">
        <ele>125</ele>
        <time>2013-05-26T07:30:41.000Z</time>
      </trkpt>
      <trkpt lat="48.48304" lon="-2.58264">
        <ele>124.9</ele>
        <time>2013-05-26T07:30:42.000Z</time>
      </trkpt>
      <trkpt lat="48.483" lon="-2.58258">
        <ele>124.7</ele>
        <time>2013-05-26T07:30:43.000Z</time>
      </trkpt>
      <trkpt lat="48.48296" lon="-2.58254">
        <ele>124.9</ele>
        <time>2013-05-26T07:30:44.000Z</time>
      </trkpt>
      <trkpt lat="48.48291" lon="-2.5825">
        <ele>125</ele>
        <time>2013-05-26T07:30:45.000Z</time>
      </trkpt>
      <trkpt lat="48.48286" lon="-2.58246">
        <ele>124.9</ele>
        <time>2013-05-26T07:30:46.000Z</time>
      </trkpt>
      <trkpt lat="48.48282" lon="-2.58241">
        <ele>125.3</ele>
        <time>2013-05-26T07:30:47.000Z</time>
      </trkpt>
      <trkpt lat="48.48277" lon="-2.58236">
        <ele>125.9</ele>
        <time>2013-05-26T07:30:48.000Z</time>
      </trkpt>
      <trkpt lat="48.48272" lon="-2.58231">
        <ele>125.8</ele>
        <time>2013-05-26T07:30:49.000Z</time>
      </trkpt>
      <trkpt lat="48.48267" lon="-2.58226">
        <ele>125.8</ele>
        <time>2013-05-26T07:30:50.000Z</time>
      </trkpt>
      <trkpt lat="48.48262" lon="-2.5822">
        <ele>126</ele>
        <time>2013-05-26T07:30:51.000Z</time>
      </trkpt>
      <trkpt lat="48.48257" lon="-2.58214">
        <ele>126.3</ele>
        <time>2013-05-26T07:30:52.000Z</time>
      </trkpt>
      <trkpt lat="48.48253" lon="-2.58208">
        <ele>126.6</ele>
        <time>2013-05-26T07:30:53.000Z</time>
      </trkpt>
      <trkpt lat="48.48248" lon="-2.58202">
        <ele>126.9</ele>
        <time>2013-05-26T07:30:54.000Z</time>
      </trkpt>
      <trkpt lat="48.48243" lon="-2.58196">
        <ele>127.1</ele>
        <time>2013-05-26T07:30:55.000Z</time>
      </trkpt>
      <trkpt lat="48.48238" lon="-2.58192">
        <ele>127.4</ele>
        <time>2013-05-26T07:30:56.000Z</time>
      </trkpt>
      <trkpt lat="48.48232" lon="-2.5819">
        <ele>127.3</ele>
        <time>2013-05-26T07:30:57.000Z</time>
      </trkpt>
      <trkpt lat="48.48225" lon="-2.58187">
        <ele>127.3</ele>
        <time>2013-05-26T07:30:58.000Z</time>
      </trkpt>
      <trkpt lat="48.48219" lon="-2.58184">
        <ele>127</ele>
        <time>2013-05-26T07:30:59.000Z</time>
      </trkpt>
      <trkpt lat="48.48213" lon="-2.58181">
        <ele>126.7</ele>
        <time>2013-05-26T07:31:00.000Z</time>
      </trkpt>
      <trkpt lat="48.48208" lon="-2.58178">
        <ele>126.7</ele>
        <time>2013-05-26T07:31:01.000Z</time>
      </trkpt>
      <trkpt lat="48.48202" lon="-2.58175">
        <ele>126.8</ele>
        <time>2013-05-26T07:31:02.000Z</time>
      </trkpt>
      <trkpt lat="48.48196" lon="-2.58171">
        <ele>126.7</ele>
        <time>2013-05-26T07:31:03.000Z</time>
      </trkpt>
      <trkpt lat="48.48191" lon="-2.58168">
        <ele>126.7</ele>
        <time>2013-05-26T07:31:04.000Z</time>
      </trkpt>
      <trkpt lat="48.48185" lon="-2.58165">
        <ele>126.5</ele>
        <time>2013-05-26T07:31:05.000Z</time>
      </trkpt>
      <trkpt lat="48.48179" lon="-2.58162">
        <ele>126.4</ele>
        <time>2013-05-26T07:31:06.000Z</time>
      </trkpt>
      <trkpt lat="48.48174" lon="-2.58159">
        <ele>126.5</ele>
        <time>2013-05-26T07:31:07.000Z</time>
      </trkpt>
      <trkpt lat="48.48168" lon="-2.58155">
        <ele>126.5</ele>
        <time>2013-05-26T07:31:08.000Z</time>
      </trkpt>
      <trkpt lat="48.48162" lon="-2.58152">
        <ele>126.5</ele>
        <time>2013-05-26T07:31:09.000Z</time>
      </trkpt>
      <trkpt lat="48.48156" lon="-2.58148">
        <ele>126.4</ele>
        <time>2013-05-26T07:31:10.000Z</time>
      </trkpt>
      <trkpt lat="48.4815" lon="-2.58144">
        <ele>126.3</ele>
        <time>2013-05-26T07:31:11.000Z</time>
      </trkpt>
      <trkpt lat="48.48145" lon="-2.58138">
        <ele>126.2</ele>
        <time>2013-05-26T07:31:12.000Z</time>
      </trkpt>
      <trkpt lat="48.48142" lon="-2.5813">
        <ele>126</ele>
        <time>2013-05-26T07:31:13.000Z</time>
      </trkpt>
      <trkpt lat="48.48139" lon="-2.58121">
        <ele>126.1</ele>
        <time>2013-05-26T07:31:14.000Z</time>
      </trkpt>
      <trkpt lat="48.48137" lon="-2.58112">
        <ele>126.2</ele>
        <time>2013-05-26T07:31:15.000Z</time>
      </trkpt>
      <trkpt lat="48.48135" lon="-2.58102">
        <ele>126.3</ele>
        <time>2013-05-26T07:31:16.000Z</time>
      </trkpt>
      <trkpt lat="48.48134" lon="-2.58092">
        <ele>126.3</ele>
        <time>2013-05-26T07:31:17.000Z</time>
      </trkpt>
      <trkpt lat="48.48132" lon="-2.58055">
        <ele>132.1</ele>
        <time>2013-05-26T07:31:20.000Z</time>
      </trkpt>
      <trkpt lat="48.48127" lon="-2.58043">
        <ele>118.3</ele>
        <time>2013-05-26T07:31:21.000Z</time>
      </trkpt>
      <trkpt lat="48.48127" lon="-2.58031">
        <ele>123.8</ele>
        <time>2013-05-26T07:31:22.000Z</time>
      </trkpt>
      <trkpt lat="48.48126" lon="-2.58018">
        <ele>126</ele>
        <time>2013-05-26T07:31:24.000Z</time>
      </trkpt>
      <trkpt lat="48.48125" lon="-2.58009">
        <ele>126.4</ele>
        <time>2013-05-26T07:31:25.000Z</time>
      </trkpt>
      <trkpt lat="48.48124" lon="-2.58001">
        <ele>127.2</ele>
        <time>2013-05-26T07:31:26.000Z</time>
      </trkpt>
      <trkpt lat="48.48123" lon="-2.57993">
        <ele>126.3</ele>
        <time>2013-05-26T07:31:27.000Z</time>
      </trkpt>
      <trkpt lat="48.48121" lon="-2.57984">
        <ele>126.6</ele>
        <time>2013-05-26T07:31:28.000Z</time>
      </trkpt>
      <trkpt lat="48.48119" lon="-2.57976">
        <ele>126.5</ele>
        <time>2013-05-26T07:31:29.000Z</time>
      </trkpt>
      <trkpt lat="48.48117" lon="-2.57967">
        <ele>125.7</ele>
        <time>2013-05-26T07:31:30.000Z</time>
      </trkpt>
      <trkpt lat="48.48113" lon="-2.57959">
        <ele>125.6</ele>
        <time>2013-05-26T07:31:31.000Z</time>
      </trkpt>
      <trkpt lat="48.48108" lon="-2.57953">
        <ele>125</ele>
        <time>2013-05-26T07:31:32.000Z</time>
      </trkpt>
      <trkpt lat="48.48103" lon="-2.57948">
        <ele>124.2</ele>
        <time>2013-05-26T07:31:33.000Z</time>
      </trkpt>
      <trkpt lat="48.48097" lon="-2.57944">
        <ele>124</ele>
        <time>2013-05-26T07:31:34.000Z</time>
      </trkpt>
      <trkpt lat="48.48091" lon="-2.57941">
        <ele>123.7</ele>
        <time>2013-05-26T07:31:35.000Z</time>
      </trkpt>
      <trkpt lat="48.48084" lon="-2.57937">
        <ele>122.5</ele>
        <time>2013-05-26T07:31:36.000Z</time>
      </trkpt>
      <trkpt lat="48.48078" lon="-2.57934">
        <ele>121.8</ele>
        <time>2013-05-26T07:31:37.000Z</time>
      </trkpt>
      <trkpt lat="48.48073" lon="-2.5793">
        <ele>121.1</ele>
        <time>2013-05-26T07:31:38.000Z</time>
      </trkpt>
      <trkpt lat="48.48067" lon="-2.57927">
        <ele>120.2</ele>
        <time>2013-05-26T07:31:39.000Z</time>
      </trkpt>
      <trkpt lat="48.48062" lon="-2.57923">
        <ele>119.6</ele>
        <time>2013-05-26T07:31:40.000Z</time>
      </trkpt>
      <trkpt lat="48.48056" lon="-2.57922">
        <ele>119.1</ele>
        <time>2013-05-26T07:31:41.000Z</time>
      </trkpt>
      <trkpt lat="48.48051" lon="-2.57922">
        <ele>118.6</ele>
        <time>2013-05-26T07:31:42.000Z</time>
      </trkpt>
      <trkpt lat="48.48046" lon="-2.57925">
        <ele>118.5</ele>
        <time>2013-05-26T07:31:43.000Z</time>
      </trkpt>
      <trkpt lat="48.48042" lon="-2.57929">
        <ele>118.5</ele>
        <time>2013-05-26T07:31:44.000Z</time>
      </trkpt>
      <trkpt lat="48.48039" lon="-2.57933">
        <ele>118.6</ele>
        <time>2013-05-26T07:31:45.000Z</time>
      </trkpt>
      <trkpt lat="48.48034" lon="-2.57936">
        <ele>118.2</ele>
        <time>2013-05-26T07:31:46.000Z</time>
      </trkpt>
      <trkpt lat="48.4803" lon="-2.57936">
        <ele>118.1</ele>
        <time>2013-05-26T07:31:47.000Z</time>
      </trkpt>
      <trkpt lat="48.48026" lon="-2.57934">
        <ele>117.6</ele>
        <time>2013-05-26T07:31:48.000Z</time>
      </trkpt>
      <trkpt lat="48.48023" lon="-2.57929">
        <ele>117.1</ele>
        <time>2013-05-26T07:31:49.000Z</time>
      </trkpt>
      <trkpt lat="48.48021" lon="-2.57922">
        <ele>116.6</ele>
        <time>2013-05-26T07:31:50.000Z</time>
      </trkpt>
      <trkpt lat="48.48019" lon="-2.57914">
        <ele>116.6</ele>
        <time>2013-05-26T07:31:51.000Z</time>
      </trkpt>
      <trkpt lat="48.48017" lon="-2.57905">
        <ele>116.6</ele>
        <time>2013-05-26T07:31:52.000Z</time>
      </trkpt>
      <trkpt lat="48.48016" lon="-2.57895">
        <ele>116.7</ele>
        <time>2013-05-26T07:31:53.000Z</time>
      </trkpt>
      <trkpt lat="48.48013" lon="-2.57886">
        <ele>116.8</ele>
        <time>2013-05-26T07:31:54.000Z</time>
      </trkpt>
      <trkpt lat="48.48011" lon="-2.57876">
        <ele>116.8</ele>
        <time>2013-05-26T07:31:55.000Z</time>
      </trkpt>
      <trkpt lat="48.48009" lon="-2.57866">
        <ele>116.8</ele>
        <time>2013-05-26T07:31:56.000Z</time>
      </trkpt>
      <trkpt lat="48.48007" lon="-2.57855">
        <ele>116.7</ele>
        <time>2013-05-26T07:31:57.000Z</time>
      </trkpt>
      <trkpt lat="48.48004" lon="-2.57844">
        <ele>116.6</ele>
        <time>2013-05-26T07:31:58.000Z</time>
      </trkpt>
      <trkpt lat="48.48002" lon="-2.57832">
        <ele>116.5</ele>
        <time>2013-05-26T07:31:59.000Z</time>
      </trkpt>
      <trkpt lat="48.47999" lon="-2.5782">
        <ele>116.3</ele>
        <time>2013-05-26T07:32:00.000Z</time>
      </trkpt>
      <trkpt lat="48.47995" lon="-2.57809">
        <ele>116</ele>
        <time>2013-05-26T07:32:01.000Z</time>
      </trkpt>
      <trkpt lat="48.47989" lon="-2.57799">
        <ele>115.7</ele>
        <time>2013-05-26T07:32:02.000Z</time>
      </trkpt>
      <trkpt lat="48.47981" lon="-2.57792">
        <ele>115.4</ele>
        <time>2013-05-26T07:32:03.000Z</time>
      </trkpt>
      <trkpt lat="48.47973" lon="-2.57789">
        <ele>114.9</ele>
        <time>2013-05-26T07:32:04.000Z</time>
      </trkpt>
      <trkpt lat="48.47965" lon="-2.5779">
        <ele>114.7</ele>
        <time>2013-05-26T07:32:05.000Z</time>
      </trkpt>
      <trkpt lat="48.47956" lon="-2.57792">
        <ele>114.7</ele>
        <time>2013-05-26T07:32:06.000Z</time>
      </trkpt>
      <trkpt lat="48.47948" lon="-2.57794">
        <ele>114.6</ele>
        <time>2013-05-26T07:32:07.000Z</time>
      </trkpt>
      <trkpt lat="48.4794" lon="-2.57797">
        <ele>114.4</ele>
        <time>2013-05-26T07:32:08.000Z</time>
      </trkpt>
      <trkpt lat="48.47933" lon="-2.57799">
        <ele>114.3</ele>
        <time>2013-05-26T07:32:09.000Z</time>
      </trkpt>
      <trkpt lat="48.47925" lon="-2.57801">
        <ele>114</ele>
        <time>2013-05-26T07:32:10.000Z</time>
      </trkpt>
      <trkpt lat="48.47918" lon="-2.57804">
        <ele>113.8</ele>
        <time>2013-05-26T07:32:11.000Z</time>
      </trkpt>
      <trkpt lat="48.4791" lon="-2.57806">
        <ele>113.7</ele>
        <time>2013-05-26T07:32:12.000Z</time>
      </trkpt>
      <trkpt lat="48.47903" lon="-2.57808">
        <ele>113.7</ele>
        <time>2013-05-26T07:32:13.000Z</time>
      </trkpt>
      <trkpt lat="48.47896" lon="-2.5781">
        <ele>113.6</ele>
        <time>2013-05-26T07:32:14.000Z</time>
      </trkpt>
      <trkpt lat="48.47889" lon="-2.57811">
        <ele>113.6</ele>
        <time>2013-05-26T07:32:15.000Z</time>
      </trkpt>
      <trkpt lat="48.47883" lon="-2.57813">
        <ele>113.4</ele>
        <time>2013-05-26T07:32:16.000Z</time>
      </trkpt>
      <trkpt lat="48.47876" lon="-2.57815">
        <ele>113.4</ele>
        <time>2013-05-26T07:32:17.000Z</time>
      </trkpt>
      <trkpt lat="48.47842" lon="-2.57845">
        <ele>74.5</ele>
        <time>2013-05-26T07:32:19.000Z</time>
      </trkpt>
      <trkpt lat="48.4785" lon="-2.57824">
        <ele>108.4</ele>
        <time>2013-05-26T07:32:21.000Z</time>
      </trkpt>
      <trkpt lat="48.47843" lon="-2.57828">
        <ele>108.2</ele>
        <time>2013-05-26T07:32:22.000Z</time>
      </trkpt>
      <trkpt lat="48.47838" lon="-2.57829">
        <ele>109.6</ele>
        <time>2013-05-26T07:32:23.000Z</time>
      </trkpt>
      <trkpt lat="48.47832" lon="-2.5783">
        <ele>110.2</ele>
        <time>2013-05-26T07:32:24.000Z</time>
      </trkpt>
      <trkpt lat="48.47826" lon="-2.57831">
        <ele>110.4</ele>
        <time>2013-05-26T07:32:25.000Z</time>
      </trkpt>
      <trkpt lat="48.4782" lon="-2.5783">
        <ele>112.9</ele>
        <time>2013-05-26T07:32:26.000Z</time>
      </trkpt>
      <trkpt lat="48.47814" lon="-2.57832">
        <ele>113.4</ele>
        <time>2013-05-26T07:32:27.000Z</time>
      </trkpt>
      <trkpt lat="48.47808" lon="-2.57833">
        <ele>113.7</ele>
        <time>2013-05-26T07:32:28.000Z</time>
      </trkpt>
      <trkpt lat="48.47803" lon="-2.57836">
        <ele>113.3</ele>
        <time>2013-05-26T07:32:29.000Z</time>
      </trkpt>
      <trkpt lat="48.47797" lon="-2.57838">
        <ele>113.5</ele>
        <time>2013-05-26T07:32:30.000Z</time>
      </trkpt>
      <trkpt lat="48.47791" lon="-2.5784">
        <ele>113.7</ele>
        <time>2013-05-26T07:32:31.000Z</time>
      </trkpt>
      <trkpt lat="48.47786" lon="-2.57841">
        <ele>113.8</ele>
        <time>2013-05-26T07:32:32.000Z</time>
      </trkpt>
      <trkpt lat="48.4778" lon="-2.57842">
        <ele>114</ele>
        <time>2013-05-26T07:32:33.000Z</time>
      </trkpt>
      <trkpt lat="48.47774" lon="-2.57844">
        <ele>114.1</ele>
        <time>2013-05-26T07:32:34.000Z</time>
      </trkpt>
      <trkpt lat="48.47768" lon="-2.57846">
        <ele>113.9</ele>
        <time>2013-05-26T07:32:35.000Z</time>
      </trkpt>
      <trkpt lat="48.47762" lon="-2.57848">
        <ele>113.9</ele>
        <time>2013-05-26T07:32:36.000Z</time>
      </trkpt>
      <trkpt lat="48.47757" lon="-2.57849">
        <ele>114.1</ele>
        <time>2013-05-26T07:32:37.000Z</time>
      </trkpt>
      <trkpt lat="48.47751" lon="-2.5785">
        <ele>114.2</ele>
        <time>2013-05-26T07:32:38.000Z</time>
      </trkpt>
      <trkpt lat="48.47746" lon="-2.57852">
        <ele>114.3</ele>
        <time>2013-05-26T07:32:39.000Z</time>
      </trkpt>
      <trkpt lat="48.4774" lon="-2.57853">
        <ele>114.6</ele>
        <time>2013-05-26T07:32:40.000Z</time>
      </trkpt>
      <trkpt lat="48.47735" lon="-2.57855">
        <ele>114.7</ele>
        <time>2013-05-26T07:32:41.000Z</time>
      </trkpt>
      <trkpt lat="48.4773" lon="-2.57856">
        <ele>115.1</ele>
        <time>2013-05-26T07:32:42.000Z</time>
      </trkpt>
      <trkpt lat="48.47725" lon="-2.57857">
        <ele>115.4</ele>
        <time>2013-05-26T07:32:43.000Z</time>
      </trkpt>
      <trkpt lat="48.47719" lon="-2.57858">
        <ele>115.5</ele>
        <time>2013-05-26T07:32:44.000Z</time>
      </trkpt>
      <trkpt lat="48.47714" lon="-2.57859">
        <ele>115.8</ele>
        <time>2013-05-26T07:32:45.000Z</time>
      </trkpt>
      <trkpt lat="48.47708" lon="-2.5786">
        <ele>116</ele>
        <time>2013-05-26T07:32:46.000Z</time>
      </trkpt>
      <trkpt lat="48.47703" lon="-2.57862">
        <ele>116.3</ele>
        <time>2013-05-26T07:32:47.000Z</time>
      </trkpt>
      <trkpt lat="48.47698" lon="-2.57863">
        <ele>116.6</ele>
        <time>2013-05-26T07:32:48.000Z</time>
      </trkpt>
      <trkpt lat="48.47693" lon="-2.57864">
        <ele>116.6</ele>
        <time>2013-05-26T07:32:49.000Z</time>
      </trkpt>
      <trkpt lat="48.47687" lon="-2.57866">
        <ele>116.6</ele>
        <time>2013-05-26T07:32:50.000Z</time>
      </trkpt>
      <trkpt lat="48.47682" lon="-2.57867">
        <ele>116.6</ele>
        <time>2013-05-26T07:32:51.000Z</time>
      </trkpt>
      <trkpt lat="48.47677" lon="-2.57869">
        <ele>116.7</ele>
        <time>2013-05-26T07:32:52.000Z</time>
      </trkpt>
      <trkpt lat="48.47672" lon="-2.5787">
        <ele>116.7</ele>
        <time>2013-05-26T07:32:53.000Z</time>
      </trkpt>
      <trkpt lat="48.47667" lon="-2.57871">
        <ele>116.6</ele>
        <time>2013-05-26T07:32:54.000Z</time>
      </trkpt>
      <trkpt lat="48.47662" lon="-2.57872">
        <ele>116.6</ele>
        <time>2013-05-26T07:32:55.000Z</time>
      </trkpt>
      <trkpt lat="48.47657" lon="-2.57874">
        <ele>116.6</ele>
        <time>2013-05-26T07:32:56.000Z</time>
      </trkpt>
      <trkpt lat="48.47652" lon="-2.57875">
        <ele>116.7</ele>
        <time>2013-05-26T07:32:57.000Z</time>
      </trkpt>
      <trkpt lat="48.47648" lon="-2.57876">
        <ele>116.8</ele>
        <time>2013-05-26T07:32:58.000Z</time>
      </trkpt>
      <trkpt lat="48.47643" lon="-2.57877">
        <ele>116.8</ele>
        <time>2013-05-26T07:32:59.000Z</time>
      </trkpt>
      <trkpt lat="48.47639" lon="-2.57877">
        <ele>117</ele>
        <time>2013-05-26T07:33:00.000Z</time>
      </trkpt>
      <trkpt lat="48.47636" lon="-2.57876">
        <ele>117</ele>
        <time>2013-05-26T07:33:01.000Z</time>
      </trkpt>
      <trkpt lat="48.47632" lon="-2.57874">
        <ele>117.1</ele>
        <time>2013-05-26T07:33:02.000Z</time>
      </trkpt>
      <trkpt lat="48.4763" lon="-2.57871">
        <ele>117.5</ele>
        <time>2013-05-26T07:33:03.000Z</time>
      </trkpt>
      <trkpt lat="48.47628" lon="-2.57866">
        <ele>117.6</ele>
        <time>2013-05-26T07:33:04.000Z</time>
      </trkpt>
      <trkpt lat="48.47626" lon="-2.57861">
        <ele>117.7</ele>
        <time>2013-05-26T07:33:05.000Z</time>
      </trkpt>
      <trkpt lat="48.47626" lon="-2.57854">
        <ele>117.8</ele>
        <time>2013-05-26T07:33:06.000Z</time>
      </trkpt>
      <trkpt lat="48.47625" lon="-2.57846">
        <ele>118</ele>
        <time>2013-05-26T07:33:07.000Z</time>
      </trkpt>
      <trkpt lat="48.47625" lon="-2.57838">
        <ele>118.3</ele>
        <time>2013-05-26T07:33:08.000Z</time>
      </trkpt>
      <trkpt lat="48.47625" lon="-2.57831">
        <ele>118.5</ele>
        <time>2013-05-26T07:33:09.000Z</time>
      </trkpt>
      <trkpt lat="48.47624" lon="-2.57823">
        <ele>118.7</ele>
        <time>2013-05-26T07:33:10.000Z</time>
      </trkpt>
      <trkpt lat="48.47624" lon="-2.57815">
        <ele>118.9</ele>
        <time>2013-05-26T07:33:11.000Z</time>
      </trkpt>
      <trkpt lat="48.47624" lon="-2.57807">
        <ele>118.9</ele>
        <time>2013-05-26T07:33:12.000Z</time>
      </trkpt>
      <trkpt lat="48.47624" lon="-2.57799">
        <ele>119.1</ele>
        <time>2013-05-26T07:33:13.000Z</time>
      </trkpt>
      <trkpt lat="48.47623" lon="-2.5779">
        <ele>119.1</ele>
        <time>2013-05-26T07:33:14.000Z</time>
      </trkpt>
      <trkpt lat="48.47623" lon="-2.57782">
        <ele>119.2</ele>
        <time>2013-05-26T07:33:15.000Z</time>
      </trkpt>
      <trkpt lat="48.47622" lon="-2.57774">
        <ele>119</ele>
        <time>2013-05-26T07:33:16.000Z</time>
      </trkpt>
      <trkpt lat="48.47622" lon="-2.57766">
        <ele>119.1</ele>
        <time>2013-05-26T07:33:17.000Z</time>
      </trkpt>
      <trkpt lat="48.47629" lon="-2.57689">
        <ele>82.4</ele>
        <time>2013-05-26T07:33:20.000Z</time>
      </trkpt>
      <trkpt lat="48.47625" lon="-2.57706">
        <ele>101.9</ele>
        <time>2013-05-26T07:33:21.000Z</time>
      </trkpt>
      <trkpt lat="48.47621" lon="-2.57711">
        <ele>114.6</ele>
        <time>2013-05-26T07:33:22.000Z</time>
      </trkpt>
      <trkpt lat="48.47619" lon="-2.57707">
        <ele>122.7</ele>
        <time>2013-05-26T07:33:24.000Z</time>
      </trkpt>
      <trkpt lat="48.47618" lon="-2.577">
        <ele>121.7</ele>
        <time>2013-05-26T07:33:25.000Z</time>
      </trkpt>
      <trkpt lat="48.47619" lon="-2.57692">
        <ele>121.4</ele>
        <time>2013-05-26T07:33:26.000Z</time>
      </trkpt>
      <trkpt lat="48.47621" lon="-2.57684">
        <ele>121.2</ele>
        <time>2013-05-26T07:33:27.000Z</time>
      </trkpt>
      <trkpt lat="48.47621" lon="-2.57676">
        <ele>121.9</ele>
        <time>2013-05-26T07:33:28.000Z</time>
      </trkpt>
      <trkpt lat="48.47621" lon="-2.57671">
        <ele>125</ele>
        <time>2013-05-26T07:33:29.000Z</time>
      </trkpt>
      <trkpt lat="48.47622" lon="-2.57664">
        <ele>126.1</ele>
        <time>2013-05-26T07:33:30.000Z</time>
      </trkpt>
      <trkpt lat="48.47622" lon="-2.57657">
        <ele>126.1</ele>
        <time>2013-05-26T07:33:31.000Z</time>
      </trkpt>
      <trkpt lat="48.47621" lon="-2.5765">
        <ele>127</ele>
        <time>2013-05-26T07:33:32.000Z</time>
      </trkpt>
      <trkpt lat="48.47621" lon="-2.57642">
        <ele>127.8</ele>
        <time>2013-05-26T07:33:33.000Z</time>
      </trkpt>
      <trkpt lat="48.4762" lon="-2.57635">
        <ele>128</ele>
        <time>2013-05-26T07:33:34.000Z</time>
      </trkpt>
      <trkpt lat="48.4762" lon="-2.57628">
        <ele>130.1</ele>
        <time>2013-05-26T07:33:35.000Z</time>
      </trkpt>
      <trkpt lat="48.4762" lon="-2.57621">
        <ele>131.7</ele>
        <time>2013-05-26T07:33:36.000Z</time>
      </trkpt>
      <trkpt lat="48.47619" lon="-2.57613">
        <ele>133</ele>
        <time>2013-05-26T07:33:37.000Z</time>
      </trkpt>
      <trkpt lat="48.47619" lon="-2.57606">
        <ele>133.7</ele>
        <time>2013-05-26T07:33:38.000Z</time>
      </trkpt>
      <trkpt lat="48.47618" lon="-2.57599">
        <ele>133.3</ele>
        <time>2013-05-26T07:33:39.000Z</time>
      </trkpt>
      <trkpt lat="48.47617" lon="-2.57592">
        <ele>132.6</ele>
        <time>2013-05-26T07:33:40.000Z</time>
      </trkpt>
      <trkpt lat="48.47616" lon="-2.57584">
        <ele>132.3</ele>
        <time>2013-05-26T07:33:41.000Z</time>
      </trkpt>
      <trkpt lat="48.47615" lon="-2.57578">
        <ele>132.2</ele>
        <time>2013-05-26T07:33:42.000Z</time>
      </trkpt>
      <trkpt lat="48.47615" lon="-2.57571">
        <ele>132.2</ele>
        <time>2013-05-26T07:33:43.000Z</time>
      </trkpt>
      <trkpt lat="48.47615" lon="-2.57564">
        <ele>132.3</ele>
        <time>2013-05-26T07:33:44.000Z</time>
      </trkpt>
      <trkpt lat="48.47616" lon="-2.57558">
        <ele>132.4</ele>
        <time>2013-05-26T07:33:45.000Z</time>
      </trkpt>
      <trkpt lat="48.47616" lon="-2.57552">
        <ele>132.7</ele>
        <time>2013-05-26T07:33:46.000Z</time>
      </trkpt>
      <trkpt lat="48.47616" lon="-2.57547">
        <ele>133.4</ele>
        <time>2013-05-26T07:33:47.000Z</time>
      </trkpt>
      <trkpt lat="48.47617" lon="-2.57543">
        <ele>134.9</ele>
        <time>2013-05-26T07:33:48.000Z</time>
      </trkpt>
      <trkpt lat="48.47618" lon="-2.57538">
        <ele>134.6</ele>
        <time>2013-05-26T07:33:49.000Z</time>
      </trkpt>
      <trkpt lat="48.47619" lon="-2.57533">
        <ele>134.8</ele>
        <time>2013-05-26T07:33:50.000Z</time>
      </trkpt>
      <trkpt lat="48.4762" lon="-2.57529">
        <ele>135.4</ele>
        <time>2013-05-26T07:33:51.000Z</time>
      </trkpt>
      <trkpt lat="48.47621" lon="-2.57524">
        <ele>135.7</ele>
        <time>2013-05-26T07:33:52.000Z</time>
      </trkpt>
      <trkpt lat="48.47621" lon="-2.57519">
        <ele>136.2</ele>
        <time>2013-05-26T07:33:53.000Z</time>
      </trkpt>
      <trkpt lat="48.4762" lon="-2.57514">
        <ele>136.7</ele>
        <time>2013-05-26T07:33:54.000Z</time>
      </trkpt>
      <trkpt lat="48.4762" lon="-2.57509">
        <ele>137</ele>
        <time>2013-05-26T07:33:55.000Z</time>
      </trkpt>
      <trkpt lat="48.4762" lon="-2.57504">
        <ele>137</ele>
        <time>2013-05-26T07:33:56.000Z</time>
      </trkpt>
      <trkpt lat="48.47619" lon="-2.57499">
        <ele>136.9</ele>
        <time>2013-05-26T07:33:57.000Z</time>
      </trkpt>
      <trkpt lat="48.47619" lon="-2.57495">
        <ele>137.5</ele>
        <time>2013-05-26T07:33:58.000Z</time>
      </trkpt>
      <trkpt lat="48.47619" lon="-2.57491">
        <ele>136.9</ele>
        <time>2013-05-26T07:33:59.000Z</time>
      </trkpt>
      <trkpt lat="48.47619" lon="-2.57487">
        <ele>135.5</ele>
        <time>2013-05-26T07:34:00.000Z</time>
      </trkpt>
      <trkpt lat="48.47619" lon="-2.57483">
        <ele>132.9</ele>
        <time>2013-05-26T07:34:01.000Z</time>
      </trkpt>
      <trkpt lat="48.47618" lon="-2.57479">
        <ele>131.2</ele>
        <time>2013-05-26T07:34:02.000Z</time>
      </trkpt>
      <trkpt lat="48.47618" lon="-2.57475">
        <ele>130</ele>
        <time>2013-05-26T07:34:03.000Z</time>
      </trkpt>
      <trkpt lat="48.47617" lon="-2.57471">
        <ele>129.3</ele>
        <time>2013-05-26T07:34:04.000Z</time>
      </trkpt>
      <trkpt lat="48.47616" lon="-2.57467">
        <ele>128.8</ele>
        <time>2013-05-26T07:34:05.000Z</time>
      </trkpt>
      <trkpt lat="48.47615" lon="-2.57463">
        <ele>128.4</ele>
        <time>2013-05-26T07:34:06.000Z</time>
      </trkpt>
      <trkpt lat="48.47614" lon="-2.57459">
        <ele>128.5</ele>
        <time>2013-05-26T07:34:07.000Z</time>
      </trkpt>
      <trkpt lat="48.47612" lon="-2.57456">
        <ele>128.5</ele>
        <time>2013-05-26T07:34:08.000Z</time>
      </trkpt>
      <trkpt lat="48.4761" lon="-2.57452">
        <ele>128.6</ele>
        <time>2013-05-26T07:34:09.000Z</time>
      </trkpt>
      <trkpt lat="48.47609" lon="-2.57448">
        <ele>128.7</ele>
        <time>2013-05-26T07:34:10.000Z</time>
      </trkpt>
      <trkpt lat="48.47607" lon="-2.57444">
        <ele>128.7</ele>
        <time>2013-05-26T07:34:11.000Z</time>
      </trkpt>
      <trkpt lat="48.47605" lon="-2.57441">
        <ele>128.7</ele>
        <time>2013-05-26T07:34:12.000Z</time>
      </trkpt>
      <trkpt lat="48.47603" lon="-2.57437">
        <ele>128.6</ele>
        <time>2013-05-26T07:34:13.000Z</time>
      </trkpt>
      <trkpt lat="48.47601" lon="-2.57434">
        <ele>128.6</ele>
        <time>2013-05-26T07:34:14.000Z</time>
      </trkpt>
      <trkpt lat="48.47599" lon="-2.5743">
        <ele>128.4</ele>
        <time>2013-05-26T07:34:15.000Z</time>
      </trkpt>
      <trkpt lat="48.47597" lon="-2.57427">
        <ele>128.4</ele>
        <time>2013-05-26T07:34:16.000Z</time>
      </trkpt>
      <trkpt lat="48.47596" lon="-2.57423">
        <ele>128.4</ele>
        <time>2013-05-26T07:34:17.000Z</time>
      </trkpt>
      <trkpt lat="48.4759" lon="-2.57396">
        <ele>120</ele>
        <time>2013-05-26T07:34:20.000Z</time>
      </trkpt>
      <trkpt lat="48.47589" lon="-2.5739">
        <ele>117.8</ele>
        <time>2013-05-26T07:34:24.000Z</time>
      </trkpt>
      <trkpt lat="48.47589" lon="-2.57386">
        <ele>118.4</ele>
        <time>2013-05-26T07:34:25.000Z</time>
      </trkpt>
      <trkpt lat="48.47588" lon="-2.57381">
        <ele>116.5</ele>
        <time>2013-05-26T07:34:26.000Z</time>
      </trkpt>
      <trkpt lat="48.47588" lon="-2.57377">
        <ele>117.1</ele>
        <time>2013-05-26T07:34:27.000Z</time>
      </trkpt>
      <trkpt lat="48.4759" lon="-2.57371">
        <ele>116.7</ele>
        <time>2013-05-26T07:34:29.000Z</time>
      </trkpt>
      <trkpt lat="48.47592" lon="-2.57368">
        <ele>117.1</ele>
        <time>2013-05-26T07:34:30.000Z</time>
      </trkpt>
      <trkpt lat="48.47594" lon="-2.57366">
        <ele>116.9</ele>
        <time>2013-05-26T07:34:31.000Z</time>
      </trkpt>
      <trkpt lat="48.47597" lon="-2.57364">
        <ele>117</ele>
        <time>2013-05-26T07:34:32.000Z</time>
      </trkpt>
      <trkpt lat="48.476" lon="-2.57362">
        <ele>116.9</ele>
        <time>2013-05-26T07:34:33.000Z</time>
      </trkpt>
      <trkpt lat="48.47603" lon="-2.5736">
        <ele>116.4</ele>
        <time>2013-05-26T07:34:34.000Z</time>
      </trkpt>
      <trkpt lat="48.47606" lon="-2.57357">
        <ele>116.2</ele>
        <time>2013-05-26T07:34:35.000Z</time>
      </trkpt>
      <trkpt lat="48.47609" lon="-2.57354">
        <ele>116.3</ele>
        <time>2013-05-26T07:34:36.000Z</time>
      </trkpt>
      <trkpt lat="48.47613" lon="-2.5735">
        <ele>116.5</ele>
        <time>2013-05-26T07:34:37.000Z</time>
      </trkpt>
      <trkpt lat="48.47616" lon="-2.57346">
        <ele>117</ele>
        <time>2013-05-26T07:34:38.000Z</time>
      </trkpt>
      <trkpt lat="48.47619" lon="-2.57342">
        <ele>117.3</ele>
        <time>2013-05-26T07:34:39.000Z</time>
      </trkpt>
      <trkpt lat="48.47622" lon="-2.57337">
        <ele>117.6</ele>
        <time>2013-05-26T07:34:40.000Z</time>
      </trkpt>
      <trkpt lat="48.47625" lon="-2.57333">
        <ele>117.8</ele>
        <time>2013-05-26T07:34:41.000Z</time>
      </trkpt>
      <trkpt lat="48.47628" lon="-2.57328">
        <ele>117.9</ele>
        <time>2013-05-26T07:34:42.000Z</time>
      </trkpt>
      <trkpt lat="48.47631" lon="-2.57323">
        <ele>118.1</ele>
        <time>2013-05-26T07:34:43.000Z</time>
      </trkpt>
      <trkpt lat="48.47634" lon="-2.57318">
        <ele>118.2</ele>
        <time>2013-05-26T07:34:44.000Z</time>
      </trkpt>
      <trkpt lat="48.47636" lon="-2.57313">
        <ele>118.2</ele>
        <time>2013-05-26T07:34:45.000Z</time>
      </trkpt>
      <trkpt lat="48.47639" lon="-2.57308">
        <ele>118.5</ele>
        <time>2013-05-26T07:34:46.000Z</time>
      </trkpt>
      <trkpt lat="48.47642" lon="-2.57302">
        <ele>118.5</ele>
        <time>2013-05-26T07:34:47.000Z</time>
      </trkpt>
      <trkpt lat="48.47645" lon="-2.57297">
        <ele>118.4</ele>
        <time>2013-05-26T07:34:48.000Z</time>
      </trkpt>
      <trkpt lat="48.47647" lon="-2.57291">
        <ele>118.3</ele>
        <time>2013-05-26T07:34:49.000Z</time>
      </trkpt>
      <trkpt lat="48.4765" lon="-2.57286">
        <ele>118.2</ele>
        <time>2013-05-26T07:34:50.000Z</time>
      </trkpt>
      <trkpt lat="48.47653" lon="-2.5728">
        <ele>118.5</ele>
        <time>2013-05-26T07:34:51.000Z</time>
      </trkpt>
      <trkpt lat="48.47655" lon="-2.57274">
        <ele>118.8</ele>
        <time>2013-05-26T07:34:52.000Z</time>
      </trkpt>
      <trkpt lat="48.47658" lon="-2.57269">
        <ele>118.9</ele>
        <time>2013-05-26T07:34:53.000Z</time>
      </trkpt>
      <trkpt lat="48.47661" lon="-2.57263">
        <ele>118.9</ele>
        <time>2013-05-26T07:34:54.000Z</time>
      </trkpt>
      <trkpt lat="48.47664" lon="-2.57256">
        <ele>119</ele>
        <time>2013-05-26T07:34:55.000Z</time>
      </trkpt>
      <trkpt lat="48.47667" lon="-2.5725">
        <ele>119.1</ele>
        <time>2013-05-26T07:34:56.000Z</time>
      </trkpt>
      <trkpt lat="48.4767" lon="-2.57243">
        <ele>119.1</ele>
        <time>2013-05-26T07:34:57.000Z</time>
      </trkpt>
      <trkpt lat="48.47673" lon="-2.57236">
        <ele>119</ele>
        <time>2013-05-26T07:34:58.000Z</time>
      </trkpt>
      <trkpt lat="48.47676" lon="-2.57228">
        <ele>119</ele>
        <time>2013-05-26T07:34:59.000Z</time>
      </trkpt>
      <trkpt lat="48.47679" lon="-2.57221">
        <ele>119.2</ele>
        <time>2013-05-26T07:35:00.000Z</time>
      </trkpt>
      <trkpt lat="48.47682" lon="-2.57213">
        <ele>119.3</ele>
        <time>2013-05-26T07:35:01.000Z</time>
      </trkpt>
      <trkpt lat="48.47685" lon="-2.57205">
        <ele>119.3</ele>
        <time>2013-05-26T07:35:02.000Z</time>
      </trkpt>
      <trkpt lat="48.47688" lon="-2.57196">
        <ele>119.3</ele>
        <time>2013-05-26T07:35:03.000Z</time>
      </trkpt>
      <trkpt lat="48.47691" lon="-2.57188">
        <ele>119.2</ele>
        <time>2013-05-26T07:35:04.000Z</time>
      </trkpt>
      <trkpt lat="48.47695" lon="-2.57179">
        <ele>119</ele>
        <time>2013-05-26T07:35:05.000Z</time>
      </trkpt>
      <trkpt lat="48.47699" lon="-2.5717">
        <ele>118.8</ele>
        <time>2013-05-26T07:35:06.000Z</time>
      </trkpt>
      <trkpt lat="48.47703" lon="-2.5716">
        <ele>118.7</ele>
        <time>2013-05-26T07:35:07.000Z</time>
      </trkpt>
      <trkpt lat="48.47708" lon="-2.57151">
        <ele>118.5</ele>
        <time>2013-05-26T07:35:08.000Z</time>
      </trkpt>
      <trkpt lat="48.47713" lon="-2.57142">
        <ele>118.2</ele>
        <time>2013-05-26T07:35:09.000Z</time>
      </trkpt>
      <trkpt lat="48.47719" lon="-2.57132">
        <ele>117.8</ele>
        <time>2013-05-26T07:35:10.000Z</time>
      </trkpt>
      <trkpt lat="48.47725" lon="-2.57123">
        <ele>117.5</ele>
        <time>2013-05-26T07:35:11.000Z</time>
      </trkpt>
      <trkpt lat="48.47731" lon="-2.57114">
        <ele>117.3</ele>
        <time>2013-05-26T07:35:12.000Z</time>
      </trkpt>
      <trkpt lat="48.47737" lon="-2.57105">
        <ele>117.1</ele>
        <time>2013-05-26T07:35:13.000Z</time>
      </trkpt>
      <trkpt lat="48.47743" lon="-2.57096">
        <ele>116.8</ele>
        <time>2013-05-26T07:35:14.000Z</time>
      </trkpt>
      <trkpt lat="48.4775" lon="-2.57088">
        <ele>116.4</ele>
        <time>2013-05-26T07:35:15.000Z</time>
      </trkpt>
      <trkpt lat="48.47757" lon="-2.5708">
        <ele>115.8</ele>
        <time>2013-05-26T07:35:16.000Z</time>
      </trkpt>
      <trkpt lat="48.47764" lon="-2.57072">
        <ele>115.3</ele>
        <time>2013-05-26T07:35:17.000Z</time>
      </trkpt>
      <trkpt lat="48.47771" lon="-2.57064">
        <ele>114.7</ele>
        <time>2013-05-26T07:35:18.000Z</time>
      </trkpt>
      <trkpt lat="48.47778" lon="-2.57057">
        <ele>114.4</ele>
        <time>2013-05-26T07:35:19.000Z</time>
      </trkpt>
      <trkpt lat="48.47784" lon="-2.57051">
        <ele>114.1</ele>
        <time>2013-05-26T07:35:20.000Z</time>
      </trkpt>
      <trkpt lat="48.47791" lon="-2.57048">
        <ele>113.7</ele>
        <time>2013-05-26T07:35:21.000Z</time>
      </trkpt>
      <trkpt lat="48.47797" lon="-2.57049">
        <ele>113.6</ele>
        <time>2013-05-26T07:35:22.000Z</time>
      </trkpt>
      <trkpt lat="48.47803" lon="-2.57052">
        <ele>113.7</ele>
        <time>2013-05-26T07:35:23.000Z</time>
      </trkpt>
      <trkpt lat="48.47808" lon="-2.57059">
        <ele>113.7</ele>
        <time>2013-05-26T07:35:24.000Z</time>
      </trkpt>
      <trkpt lat="48.47812" lon="-2.57066">
        <ele>113.9</ele>
        <time>2013-05-26T07:35:25.000Z</time>
      </trkpt>
      <trkpt lat="48.47817" lon="-2.57073">
        <ele>114.1</ele>
        <time>2013-05-26T07:35:26.000Z</time>
      </trkpt>
      <trkpt lat="48.47821" lon="-2.5708">
        <ele>114.2</ele>
        <time>2013-05-26T07:35:27.000Z</time>
      </trkpt>
      <trkpt lat="48.47825" lon="-2.57087">
        <ele>114.2</ele>
        <time>2013-05-26T07:35:28.000Z</time>
      </trkpt>
      <trkpt lat="48.47829" lon="-2.57095">
        <ele>114.3</ele>
        <time>2013-05-26T07:35:29.000Z</time>
      </trkpt>
      <trkpt lat="48.47833" lon="-2.57103">
        <ele>114.4</ele>
        <time>2013-05-26T07:35:30.000Z</time>
      </trkpt>
      <trkpt lat="48.47837" lon="-2.57111">
        <ele>114.5</ele>
        <time>2013-05-26T07:35:31.000Z</time>
      </trkpt>
      <trkpt lat="48.47841" lon="-2.57119">
        <ele>114.6</ele>
        <time>2013-05-26T07:35:32.000Z</time>
      </trkpt>
      <trkpt lat="48.47845" lon="-2.57128">
        <ele>114.6</ele>
        <time>2013-05-26T07:35:33.000Z</time>
      </trkpt>
      <trkpt lat="48.47849" lon="-2.57136">
        <ele>114.6</ele>
        <time>2013-05-26T07:35:34.000Z</time>
      </trkpt>
      <trkpt lat="48.47852" lon="-2.57145">
        <ele>114.6</ele>
        <time>2013-05-26T07:35:35.000Z</time>
      </trkpt>
      <trkpt lat="48.47855" lon="-2.57155">
        <ele>114.7</ele>
        <time>2013-05-26T07:35:36.000Z</time>
      </trkpt>
      <trkpt lat="48.47858" lon="-2.57164">
        <ele>114.8</ele>
        <time>2013-05-26T07:35:37.000Z</time>
      </trkpt>
      <trkpt lat="48.47862" lon="-2.57173">
        <ele>115</ele>
        <time>2013-05-26T07:35:38.000Z</time>
      </trkpt>
      <trkpt lat="48.47865" lon="-2.57182">
        <ele>115.2</ele>
        <time>2013-05-26T07:35:39.000Z</time>
      </trkpt>
      <trkpt lat="48.47868" lon="-2.57191">
        <ele>115.2</ele>
        <time>2013-05-26T07:35:40.000Z</time>
      </trkpt>
      <trkpt lat="48.47872" lon="-2.57199">
        <ele>115.2</ele>
        <time>2013-05-26T07:35:41.000Z</time>
      </trkpt>
      <trkpt lat="48.47875" lon="-2.57208">
        <ele>115.2</ele>
        <time>2013-05-26T07:35:42.000Z</time>
      </trkpt>
      <trkpt lat="48.47878" lon="-2.57216">
        <ele>115.4</ele>
        <time>2013-05-26T07:35:43.000Z</time>
      </trkpt>
      <trkpt lat="48.47882" lon="-2.57223">
        <ele>115.6</ele>
        <time>2013-05-26T07:35:44.000Z</time>
      </trkpt>
      <trkpt lat="48.47885" lon="-2.5723">
        <ele>115.8</ele>
        <time>2013-05-26T07:35:45.000Z</time>
      </trkpt>
      <trkpt lat="48.47887" lon="-2.57235">
        <ele>115.8</ele>
        <time>2013-05-26T07:35:46.000Z</time>
      </trkpt>
      <trkpt lat="48.4789" lon="-2.5724">
        <ele>115.6</ele>
        <time>2013-05-26T07:35:47.000Z</time>
      </trkpt>
      <trkpt lat="48.47892" lon="-2.57246">
        <ele>115.5</ele>
        <time>2013-05-26T07:35:48.000Z</time>
      </trkpt>
      <trkpt lat="48.47894" lon="-2.57252">
        <ele>115.4</ele>
        <time>2013-05-26T07:35:49.000Z</time>
      </trkpt>
      <trkpt lat="48.47896" lon="-2.57258">
        <ele>115.5</ele>
        <time>2013-05-26T07:35:50.000Z</time>
      </trkpt>
      <trkpt lat="48.47898" lon="-2.57264">
        <ele>115.4</ele>
        <time>2013-05-26T07:35:51.000Z</time>
      </trkpt>
      <trkpt lat="48.47901" lon="-2.5727">
        <ele>115.5</ele>
        <time>2013-05-26T07:35:52.000Z</time>
      </trkpt>
      <trkpt lat="48.47904" lon="-2.57275">
        <ele>115.4</ele>
        <time>2013-05-26T07:35:53.000Z</time>
      </trkpt>
      <trkpt lat="48.47906" lon="-2.5728">
        <ele>115.2</ele>
        <time>2013-05-26T07:35:54.000Z</time>
      </trkpt>
      <trkpt lat="48.47909" lon="-2.57287">
        <ele>115.4</ele>
        <time>2013-05-26T07:35:55.000Z</time>
      </trkpt>
      <trkpt lat="48.47912" lon="-2.57294">
        <ele>115.5</ele>
        <time>2013-05-26T07:35:56.000Z</time>
      </trkpt>
      <trkpt lat="48.47915" lon="-2.57301">
        <ele>115.6</ele>
        <time>2013-05-26T07:35:57.000Z</time>
      </trkpt>
      <trkpt lat="48.47918" lon="-2.57308">
        <ele>115.6</ele>
        <time>2013-05-26T07:35:58.000Z</time>
      </trkpt>
      <trkpt lat="48.47921" lon="-2.57314">
        <ele>115.6</ele>
        <time>2013-05-26T07:35:59.000Z</time>
      </trkpt>
      <trkpt lat="48.47923" lon="-2.5732">
        <ele>115.5</ele>
        <time>2013-05-26T07:36:00.000Z</time>
      </trkpt>
      <trkpt lat="48.47925" lon="-2.57325">
        <ele>115.4</ele>
        <time>2013-05-26T07:36:01.000Z</time>
      </trkpt>
      <trkpt lat="48.47925" lon="-2.5733">
        <ele>115.3</ele>
        <time>2013-05-26T07:36:02.000Z</time>
      </trkpt>
      <trkpt lat="48.47925" lon="-2.57333">
        <ele>115.2</ele>
        <time>2013-05-26T07:36:03.000Z</time>
      </trkpt>
      <trkpt lat="48.47924" lon="-2.57337">
        <ele>115.1</ele>
        <time>2013-05-26T07:36:04.000Z</time>
      </trkpt>
      <trkpt lat="48.47925" lon="-2.57341">
        <ele>115.1</ele>
        <time>2013-05-26T07:36:05.000Z</time>
      </trkpt>
      <trkpt lat="48.47926" lon="-2.57344">
        <ele>115.2</ele>
        <time>2013-05-26T07:36:06.000Z</time>
      </trkpt>
      <trkpt lat="48.47928" lon="-2.57351">
        <ele>115.2</ele>
        <time>2013-05-26T07:36:08.000Z</time>
      </trkpt>
      <trkpt lat="48.47929" lon="-2.57354">
        <ele>115.2</ele>
        <time>2013-05-26T07:36:09.000Z</time>
      </trkpt>
      <trkpt lat="48.4793" lon="-2.57359">
        <ele>115.2</ele>
        <time>2013-05-26T07:36:10.000Z</time>
      </trkpt>
      <trkpt lat="48.47931" lon="-2.57364">
        <ele>115.1</ele>
        <time>2013-05-26T07:36:11.000Z</time>
      </trkpt>
      <trkpt lat="48.47932" lon="-2.57369">
        <ele>115</ele>
        <time>2013-05-26T07:36:12.000Z</time>
      </trkpt>
      <trkpt lat="48.47935" lon="-2.57375">
        <ele>114.9</ele>
        <time>2013-05-26T07:36:13.000Z</time>
      </trkpt>
      <trkpt lat="48.47938" lon="-2.5738">
        <ele>114.9</ele>
        <time>2013-05-26T07:36:14.000Z</time>
      </trkpt>
      <trkpt lat="48.47941" lon="-2.57383">
        <ele>114.8</ele>
        <time>2013-05-26T07:36:15.000Z</time>
      </trkpt>
      <trkpt lat="48.47942" lon="-2.57387">
        <ele>114.8</ele>
        <time>2013-05-26T07:36:16.000Z</time>
      </trkpt>
      <trkpt lat="48.47944" lon="-2.5739">
        <ele>114.8</ele>
        <time>2013-05-26T07:36:17.000Z</time>
      </trkpt>
      <trkpt lat="48.47956" lon="-2.57399">
        <ele>127.5</ele>
        <time>2013-05-26T07:36:20.000Z</time>
      </trkpt>
      <trkpt lat="48.47956" lon="-2.57406">
        <ele>117.4</ele>
        <time>2013-05-26T07:36:21.000Z</time>
      </trkpt>
      <trkpt lat="48.47957" lon="-2.57412">
        <ele>116.5</ele>
        <time>2013-05-26T07:36:23.000Z</time>
      </trkpt>
      <trkpt lat="48.47958" lon="-2.57413">
        <ele>113.5</ele>
        <time>2013-05-26T07:36:24.000Z</time>
      </trkpt>
      <trkpt lat="48.4796" lon="-2.57416">
        <ele>114.8</ele>
        <time>2013-05-26T07:36:26.000Z</time>
      </trkpt>
      <trkpt lat="48.47962" lon="-2.5742">
        <ele>116</ele>
        <time>2013-05-26T07:36:27.000Z</time>
      </trkpt>
      <trkpt lat="48.47964" lon="-2.57424">
        <ele>116.5</ele>
        <time>2013-05-26T07:36:28.000Z</time>
      </trkpt>
      <trkpt lat="48.47968" lon="-2.57428">
        <ele>116.9</ele>
        <time>2013-05-26T07:36:29.000Z</time>
      </trkpt>
      <trkpt lat="48.4797" lon="-2.57431">
        <ele>118.4</ele>
        <time>2013-05-26T07:36:30.000Z</time>
      </trkpt>
      <trkpt lat="48.47972" lon="-2.57434">
        <ele>117</ele>
        <time>2013-05-26T07:36:31.000Z</time>
      </trkpt>
      <trkpt lat="48.47975" lon="-2.57438">
        <ele>114.2</ele>
        <time>2013-05-26T07:36:32.000Z</time>
      </trkpt>
      <trkpt lat="48.47977" lon="-2.57443">
        <ele>113.9</ele>
        <time>2013-05-26T07:36:33.000Z</time>
      </trkpt>
      <trkpt lat="48.47978" lon="-2.57449">
        <ele>113.3</ele>
        <time>2013-05-26T07:36:34.000Z</time>
      </trkpt>
      <trkpt lat="48.4798" lon="-2.57453">
        <ele>112.6</ele>
        <time>2013-05-26T07:36:35.000Z</time>
      </trkpt>
      <trkpt lat="48.4798" lon="-2.57457">
        <ele>111.7</ele>
        <time>2013-05-26T07:36:36.000Z</time>
      </trkpt>
      <trkpt lat="48.4798" lon="-2.57461">
        <ele>110.9</ele>
        <time>2013-05-26T07:36:37.000Z</time>
      </trkpt>
      <trkpt lat="48.47979" lon="-2.57466">
        <ele>110.4</ele>
        <time>2013-05-26T07:36:39.000Z</time>
      </trkpt>
      <trkpt lat="48.47979" lon="-2.5747">
        <ele>110.8</ele>
        <time>2013-05-26T07:36:40.000Z</time>
      </trkpt>
      <trkpt lat="48.47982" lon="-2.57474">
        <ele>110.9</ele>
        <time>2013-05-26T07:36:42.000Z</time>
      </trkpt>
      <trkpt lat="48.47984" lon="-2.57475">
        <ele>111.2</ele>
        <time>2013-05-26T07:36:43.000Z</time>
      </trkpt>
      <trkpt lat="48.47987" lon="-2.57474">
        <ele>111.4</ele>
        <time>2013-05-26T07:36:44.000Z</time>
      </trkpt>
      <trkpt lat="48.4799" lon="-2.57472">
        <ele>111.1</ele>
        <time>2013-05-26T07:36:45.000Z</time>
      </trkpt>
      <trkpt lat="48.47994" lon="-2.57471">
        <ele>110.7</ele>
        <time>2013-05-26T07:36:46.000Z</time>
      </trkpt>
      <trkpt lat="48.47997" lon="-2.5747">
        <ele>110.4</ele>
        <time>2013-05-26T07:36:47.000Z</time>
      </trkpt>
      <trkpt lat="48.48001" lon="-2.57469">
        <ele>110.5</ele>
        <time>2013-05-26T07:36:48.000Z</time>
      </trkpt>
      <trkpt lat="48.48006" lon="-2.57469">
        <ele>110.3</ele>
        <time>2013-05-26T07:36:49.000Z</time>
      </trkpt>
      <trkpt lat="48.48011" lon="-2.57468">
        <ele>110.1</ele>
        <time>2013-05-26T07:36:50.000Z</time>
      </trkpt>
      <trkpt lat="48.48015" lon="-2.57468">
        <ele>109.8</ele>
        <time>2013-05-26T07:36:51.000Z</time>
      </trkpt>
      <trkpt lat="48.48021" lon="-2.57468">
        <ele>109.5</ele>
        <time>2013-05-26T07:36:52.000Z</time>
      </trkpt>
      <trkpt lat="48.48026" lon="-2.57468">
        <ele>109.3</ele>
        <time>2013-05-26T07:36:53.000Z</time>
      </trkpt>
      <trkpt lat="48.48031" lon="-2.57469">
        <ele>109.3</ele>
        <time>2013-05-26T07:36:54.000Z</time>
      </trkpt>
      <trkpt lat="48.48037" lon="-2.57471">
        <ele>109.4</ele>
        <time>2013-05-26T07:36:55.000Z</time>
      </trkpt>
      <trkpt lat="48.48042" lon="-2.57475">
        <ele>109.4</ele>
        <time>2013-05-26T07:36:56.000Z</time>
      </trkpt>
      <trkpt lat="48.48047" lon="-2.5748">
        <ele>109.5</ele>
        <time>2013-05-26T07:36:57.000Z</time>
      </trkpt>
      <trkpt lat="48.4805" lon="-2.57488">
        <ele>109.3</ele>
        <time>2013-05-26T07:36:58.000Z</time>
      </trkpt>
      <trkpt lat="48.48053" lon="-2.57496">
        <ele>109.1</ele>
        <time>2013-05-26T07:36:59.000Z</time>
      </trkpt>
      <trkpt lat="48.48055" lon="-2.57504">
        <ele>108.9</ele>
        <time>2013-05-26T07:37:00.000Z</time>
      </trkpt>
      <trkpt lat="48.48057" lon="-2.57512">
        <ele>108.5</ele>
        <time>2013-05-26T07:37:01.000Z</time>
      </trkpt>
      <trkpt lat="48.48059" lon="-2.5752">
        <ele>108.4</ele>
        <time>2013-05-26T07:37:02.000Z</time>
      </trkpt>
      <trkpt lat="48.48061" lon="-2.57527">
        <ele>108.4</ele>
        <time>2013-05-26T07:37:03.000Z</time>
      </trkpt>
      <trkpt lat="48.48062" lon="-2.57535">
        <ele>108.3</ele>
        <time>2013-05-26T07:37:04.000Z</time>
      </trkpt>
      <trkpt lat="48.48064" lon="-2.57542">
        <ele>108.3</ele>
        <time>2013-05-26T07:37:05.000Z</time>
      </trkpt>
      <trkpt lat="48.48065" lon="-2.57549">
        <ele>108.2</ele>
        <time>2013-05-26T07:37:06.000Z</time>
      </trkpt>
      <trkpt lat="48.48067" lon="-2.57556">
        <ele>108</ele>
        <time>2013-05-26T07:37:07.000Z</time>
      </trkpt>
      <trkpt lat="48.48068" lon="-2.57563">
        <ele>107.6</ele>
        <time>2013-05-26T07:37:08.000Z</time>
      </trkpt>
      <trkpt lat="48.48069" lon="-2.5757">
        <ele>107.3</ele>
        <time>2013-05-26T07:37:09.000Z</time>
      </trkpt>
      <trkpt lat="48.48071" lon="-2.57576">
        <ele>107.1</ele>
        <time>2013-05-26T07:37:10.000Z</time>
      </trkpt>
      <trkpt lat="48.48072" lon="-2.57583">
        <ele>107</ele>
        <time>2013-05-26T07:37:11.000Z</time>
      </trkpt>
      <trkpt lat="48.48074" lon="-2.57589">
        <ele>106.8</ele>
        <time>2013-05-26T07:37:12.000Z</time>
      </trkpt>
      <trkpt lat="48.48075" lon="-2.57595">
        <ele>106.8</ele>
        <time>2013-05-26T07:37:13.000Z</time>
      </trkpt>
      <trkpt lat="48.48076" lon="-2.57601">
        <ele>106.7</ele>
        <time>2013-05-26T07:37:14.000Z</time>
      </trkpt>
      <trkpt lat="48.48077" lon="-2.57607">
        <ele>106.6</ele>
        <time>2013-05-26T07:37:15.000Z</time>
      </trkpt>
      <trkpt lat="48.48079" lon="-2.57612">
        <ele>106.6</ele>
        <time>2013-05-26T07:37:16.000Z</time>
      </trkpt>
      <trkpt lat="48.4808" lon="-2.57617">
        <ele>106.6</ele>
        <time>2013-05-26T07:37:17.000Z</time>
      </trkpt>
      <trkpt lat="48.48082" lon="-2.57646">
        <ele>106.1</ele>
        <time>2013-05-26T07:37:21.000Z</time>
      </trkpt>
      <trkpt lat="48.48085" lon="-2.57649">
        <ele>104.3</ele>
        <time>2013-05-26T07:37:22.000Z</time>
      </trkpt>
      <trkpt lat="48.48086" lon="-2.57653">
        <ele>107</ele>
        <time>2013-05-26T07:37:23.000Z</time>
      </trkpt>
      <trkpt lat="48.48086" lon="-2.57659">
        <ele>107.6</ele>
        <time>2013-05-26T07:37:24.000Z</time>
      </trkpt>
      <trkpt lat="48.48087" lon="-2.57665">
        <ele>108.8</ele>
        <time>2013-05-26T07:37:25.000Z</time>
      </trkpt>
      <trkpt lat="48.48088" lon="-2.57671">
        <ele>109.2</ele>
        <time>2013-05-26T07:37:26.000Z</time>
      </trkpt>
      <trkpt lat="48.48089" lon="-2.57676">
        <ele>109.6</ele>
        <time>2013-05-26T07:37:27.000Z</time>
      </trkpt>
      <trkpt lat="48.4809" lon="-2.57682">
        <ele>109.4</ele>
        <time>2013-05-26T07:37:28.000Z</time>
      </trkpt>
      <trkpt lat="48.48091" lon="-2.57686">
        <ele>108.8</ele>
        <time>2013-05-26T07:37:29.000Z</time>
      </trkpt>
      <trkpt lat="48.48093" lon="-2.57691">
        <ele>108.6</ele>
        <time>2013-05-26T07:37:30.000Z</time>
      </trkpt>
      <trkpt lat="48.48094" lon="-2.57696">
        <ele>108.9</ele>
        <time>2013-05-26T07:37:31.000Z</time>
      </trkpt>
      <trkpt lat="48.48095" lon="-2.57701">
        <ele>108.6</ele>
        <time>2013-05-26T07:37:32.000Z</time>
      </trkpt>
      <trkpt lat="48.48097" lon="-2.57705">
        <ele>108.2</ele>
        <time>2013-05-26T07:37:33.000Z</time>
      </trkpt>
      <trkpt lat="48.48098" lon="-2.5771">
        <ele>108.7</ele>
        <time>2013-05-26T07:37:34.000Z</time>
      </trkpt>
      <trkpt lat="48.481" lon="-2.57715">
        <ele>108.9</ele>
        <time>2013-05-26T07:37:35.000Z</time>
      </trkpt>
      <trkpt lat="48.48101" lon="-2.5772">
        <ele>108.8</ele>
        <time>2013-05-26T07:37:36.000Z</time>
      </trkpt>
      <trkpt lat="48.48103" lon="-2.57724">
        <ele>108.8</ele>
        <time>2013-05-26T07:37:37.000Z</time>
      </trkpt>
      <trkpt lat="48.48105" lon="-2.57729">
        <ele>108.8</ele>
        <time>2013-05-26T07:37:38.000Z</time>
      </trkpt>
      <trkpt lat="48.48107" lon="-2.57733">
        <ele>109.5</ele>
        <time>2013-05-26T07:37:39.000Z</time>
      </trkpt>
      <trkpt lat="48.48109" lon="-2.57737">
        <ele>110</ele>
        <time>2013-05-26T07:37:40.000Z</time>
      </trkpt>
      <trkpt lat="48.48111" lon="-2.5774">
        <ele>110.7</ele>
        <time>2013-05-26T07:37:41.000Z</time>
      </trkpt>
      <trkpt lat="48.48115" lon="-2.5774">
        <ele>109.3</ele>
        <time>2013-05-26T07:37:42.000Z</time>
      </trkpt>
      <trkpt lat="48.48119" lon="-2.57737">
        <ele>108.5</ele>
        <time>2013-05-26T07:37:43.000Z</time>
      </trkpt>
      <trkpt lat="48.48122" lon="-2.57733">
        <ele>108.1</ele>
        <time>2013-05-26T07:37:44.000Z</time>
      </trkpt>
      <trkpt lat="48.48124" lon="-2.57729">
        <ele>108.4</ele>
        <time>2013-05-26T07:37:45.000Z</time>
      </trkpt>
      <trkpt lat="48.48127" lon="-2.57724">
        <ele>108.3</ele>
        <time>2013-05-26T07:37:46.000Z</time>
      </trkpt>
      <trkpt lat="48.4813" lon="-2.57717">
        <ele>107.8</ele>
        <time>2013-05-26T07:37:47.000Z</time>
      </trkpt>
      <trkpt lat="48.48133" lon="-2.57711">
        <ele>107.3</ele>
        <time>2013-05-26T07:37:48.000Z</time>
      </trkpt>
      <trkpt lat="48.48137" lon="-2.57705">
        <ele>107.2</ele>
        <time>2013-05-26T07:37:49.000Z</time>
      </trkpt>
      <trkpt lat="48.4814" lon="-2.57698">
        <ele>107.3</ele>
        <time>2013-05-26T07:37:50.000Z</time>
      </trkpt>
      <trkpt lat="48.48143" lon="-2.57692">
        <ele>107.2</ele>
        <time>2013-05-26T07:37:51.000Z</time>
      </trkpt>
      <trkpt lat="48.48146" lon="-2.57686">
        <ele>107.3</ele>
        <time>2013-05-26T07:37:52.000Z</time>
      </trkpt>
      <trkpt lat="48.48149" lon="-2.5768">
        <ele>107.5</ele>
        <time>2013-05-26T07:37:53.000Z</time>
      </trkpt>
      <trkpt lat="48.48152" lon="-2.57673">
        <ele>107.6</ele>
        <time>2013-05-26T07:37:54.000Z</time>
      </trkpt>
      <trkpt lat="48.48155" lon="-2.57667">
        <ele>107.6</ele>
        <time>2013-05-26T07:37:55.000Z</time>
      </trkpt>
      <trkpt lat="48.48159" lon="-2.57661">
        <ele>107.7</ele>
        <time>2013-05-26T07:37:56.000Z</time>
      </trkpt>
      <trkpt lat="48.48162" lon="-2.57654">
        <ele>107.7</ele>
        <time>2013-05-26T07:37:57.000Z</time>
      </trkpt>
      <trkpt lat="48.48166" lon="-2.57648">
        <ele>107.6</ele>
        <time>2013-05-26T07:37:58.000Z</time>
      </trkpt>
      <trkpt lat="48.48169" lon="-2.57641">
        <ele>107.8</ele>
        <time>2013-05-26T07:37:59.000Z</time>
      </trkpt>
      <trkpt lat="48.48173" lon="-2.57635">
        <ele>107.9</ele>
        <time>2013-05-26T07:38:00.000Z</time>
      </trkpt>
      <trkpt lat="48.48177" lon="-2.57629">
        <ele>108.1</ele>
        <time>2013-05-26T07:38:01.000Z</time>
      </trkpt>
      <trkpt lat="48.48182" lon="-2.57622">
        <ele>108.1</ele>
        <time>2013-05-26T07:38:02.000Z</time>
      </trkpt>
      <trkpt lat="48.48186" lon="-2.57616">
        <ele>108.2</ele>
        <time>2013-05-26T07:38:03.000Z</time>
      </trkpt>
      <trkpt lat="48.4819" lon="-2.57609">
        <ele>108.3</ele>
        <time>2013-05-26T07:38:04.000Z</time>
      </trkpt>
      <trkpt lat="48.48194" lon="-2.57603">
        <ele>108.4</ele>
        <time>2013-05-26T07:38:05.000Z</time>
      </trkpt>
      <trkpt lat="48.48198" lon="-2.57596">
        <ele>108.5</ele>
        <time>2013-05-26T07:38:06.000Z</time>
      </trkpt>
      <trkpt lat="48.48202" lon="-2.5759">
        <ele>108.5</ele>
        <time>2013-05-26T07:38:07.000Z</time>
      </trkpt>
      <trkpt lat="48.48206" lon="-2.57583">
        <ele>108.6</ele>
        <time>2013-05-26T07:38:08.000Z</time>
      </trkpt>
      <trkpt lat="48.48209" lon="-2.57577">
        <ele>108.8</ele>
        <time>2013-05-26T07:38:09.000Z</time>
      </trkpt>
      <trkpt lat="48.48213" lon="-2.5757">
        <ele>109</ele>
        <time>2013-05-26T07:38:10.000Z</time>
      </trkpt>
      <trkpt lat="48.48216" lon="-2.57563">
        <ele>109.1</ele>
        <time>2013-05-26T07:38:11.000Z</time>
      </trkpt>
      <trkpt lat="48.48219" lon="-2.57556">
        <ele>109.3</ele>
        <time>2013-05-26T07:38:12.000Z</time>
      </trkpt>
      <trkpt lat="48.48222" lon="-2.57549">
        <ele>109.5</ele>
        <time>2013-05-26T07:38:13.000Z</time>
      </trkpt>
      <trkpt lat="48.48224" lon="-2.57543">
        <ele>109.5</ele>
        <time>2013-05-26T07:38:14.000Z</time>
      </trkpt>
      <trkpt lat="48.48227" lon="-2.57536">
        <ele>109.5</ele>
        <time>2013-05-26T07:38:15.000Z</time>
      </trkpt>
      <trkpt lat="48.4823" lon="-2.57529">
        <ele>109.6</ele>
        <time>2013-05-26T07:38:16.000Z</time>
      </trkpt>
      <trkpt lat="48.48232" lon="-2.57521">
        <ele>109.4</ele>
        <time>2013-05-26T07:38:17.000Z</time>
      </trkpt>
      <trkpt lat="48.48266" lon="-2.57455">
        <ele>114.2</ele>
        <time>2013-05-26T07:38:27.000Z</time>
      </trkpt>
      <trkpt lat="48.4827" lon="-2.57454">
        <ele>118</ele>
        <time>2013-05-26T07:38:28.000Z</time>
      </trkpt>
      <trkpt lat="48.48274" lon="-2.57457">
        <ele>122.7</ele>
        <time>2013-05-26T07:38:29.000Z</time>
      </trkpt>
      <trkpt lat="48.48279" lon="-2.57459">
        <ele>119.5</ele>
        <time>2013-05-26T07:38:30.000Z</time>
      </trkpt>
      <trkpt lat="48.48282" lon="-2.57463">
        <ele>116.2</ele>
        <time>2013-05-26T07:38:31.000Z</time>
      </trkpt>
      <trkpt lat="48.48284" lon="-2.57469">
        <ele>115.3</ele>
        <time>2013-05-26T07:38:32.000Z</time>
      </trkpt>
      <trkpt lat="48.48286" lon="-2.57476">
        <ele>115.3</ele>
        <time>2013-05-26T07:38:33.000Z</time>
      </trkpt>
      <trkpt lat="48.48287" lon="-2.57482">
        <ele>114.7</ele>
        <time>2013-05-26T07:38:34.000Z</time>
      </trkpt>
      <trkpt lat="48.48289" lon="-2.57488">
        <ele>113.9</ele>
        <time>2013-05-26T07:38:35.000Z</time>
      </trkpt>
      <trkpt lat="48.48291" lon="-2.57493">
        <ele>112.2</ele>
        <time>2013-05-26T07:38:36.000Z</time>
      </trkpt>
      <trkpt lat="48.48293" lon="-2.57498">
        <ele>110.8</ele>
        <time>2013-05-26T07:38:37.000Z</time>
      </trkpt>
      <trkpt lat="48.48295" lon="-2.57502">
        <ele>110</ele>
        <time>2013-05-26T07:38:38.000Z</time>
      </trkpt>
      <trkpt lat="48.48297" lon="-2.57507">
        <ele>110.2</ele>
        <time>2013-05-26T07:38:39.000Z</time>
      </trkpt>
      <trkpt lat="48.48298" lon="-2.57512">
        <ele>109.7</ele>
        <time>2013-05-26T07:38:40.000Z</time>
      </trkpt>
      <trkpt lat="48.483" lon="-2.57517">
        <ele>108.9</ele>
        <time>2013-05-26T07:38:41.000Z</time>
      </trkpt>
      <trkpt lat="48.48302" lon="-2.57522">
        <ele>108.3</ele>
        <time>2013-05-26T07:38:42.000Z</time>
      </trkpt>
      <trkpt lat="48.48303" lon="-2.57526">
        <ele>108.2</ele>
        <time>2013-05-26T07:38:43.000Z</time>
      </trkpt>
      <trkpt lat="48.48304" lon="-2.57531">
        <ele>107.9</ele>
        <time>2013-05-26T07:38:44.000Z</time>
      </trkpt>
      <trkpt lat="48.48306" lon="-2.57536">
        <ele>107.8</ele>
        <time>2013-05-26T07:38:45.000Z</time>
      </trkpt>
      <trkpt lat="48.48307" lon="-2.57541">
        <ele>107.9</ele>
        <time>2013-05-26T07:38:46.000Z</time>
      </trkpt>
      <trkpt lat="48.48309" lon="-2.57545">
        <ele>108.1</ele>
        <time>2013-05-26T07:38:47.000Z</time>
      </trkpt>
      <trkpt lat="48.48311" lon="-2.5755">
        <ele>108.1</ele>
        <time>2013-05-26T07:38:48.000Z</time>
      </trkpt>
      <trkpt lat="48.48312" lon="-2.57555">
        <ele>108.5</ele>
        <time>2013-05-26T07:38:49.000Z</time>
      </trkpt>
      <trkpt lat="48.48314" lon="-2.57559">
        <ele>108.3</ele>
        <time>2013-05-26T07:38:50.000Z</time>
      </trkpt>
      <trkpt lat="48.48315" lon="-2.57564">
        <ele>109</ele>
        <time>2013-05-26T07:38:51.000Z</time>
      </trkpt>
      <trkpt lat="48.48317" lon="-2.57569">
        <ele>109.1</ele>
        <time>2013-05-26T07:38:52.000Z</time>
      </trkpt>
      <trkpt lat="48.48318" lon="-2.57574">
        <ele>110</ele>
        <time>2013-05-26T07:38:53.000Z</time>
      </trkpt>
      <trkpt lat="48.4832" lon="-2.57578">
        <ele>110.6</ele>
        <time>2013-05-26T07:38:54.000Z</time>
      </trkpt>
      <trkpt lat="48.48321" lon="-2.57583">
        <ele>110.9</ele>
        <time>2013-05-26T07:38:55.000Z</time>
      </trkpt>
      <trkpt lat="48.48323" lon="-2.57587">
        <ele>111.3</ele>
        <time>2013-05-26T07:38:56.000Z</time>
      </trkpt>
      <trkpt lat="48.48324" lon="-2.57592">
        <ele>111.6</ele>
        <time>2013-05-26T07:38:57.000Z</time>
      </trkpt>
      <trkpt lat="48.48326" lon="-2.57596">
        <ele>111.8</ele>
        <time>2013-05-26T07:38:58.000Z</time>
      </trkpt>
      <trkpt lat="48.48327" lon="-2.57601">
        <ele>111.9</ele>
        <time>2013-05-26T07:38:59.000Z</time>
      </trkpt>
      <trkpt lat="48.48329" lon="-2.57605">
        <ele>112.1</ele>
        <time>2013-05-26T07:39:00.000Z</time>
      </trkpt>
      <trkpt lat="48.4833" lon="-2.5761">
        <ele>112.5</ele>
        <time>2013-05-26T07:39:01.000Z</time>
      </trkpt>
      <trkpt lat="48.48331" lon="-2.57614">
        <ele>112.6</ele>
        <time>2013-05-26T07:39:02.000Z</time>
      </trkpt>
      <trkpt lat="48.48333" lon="-2.57619">
        <ele>112.9</ele>
        <time>2013-05-26T07:39:03.000Z</time>
      </trkpt>
      <trkpt lat="48.48334" lon="-2.57624">
        <ele>113.1</ele>
        <time>2013-05-26T07:39:04.000Z</time>
      </trkpt>
      <trkpt lat="48.48335" lon="-2.57629">
        <ele>113.6</ele>
        <time>2013-05-26T07:39:05.000Z</time>
      </trkpt>
      <trkpt lat="48.48337" lon="-2.57634">
        <ele>113.9</ele>
        <time>2013-05-26T07:39:06.000Z</time>
      </trkpt>
      <trkpt lat="48.48338" lon="-2.57638">
        <ele>114</ele>
        <time>2013-05-26T07:39:07.000Z</time>
      </trkpt>
      <trkpt lat="48.4834" lon="-2.57643">
        <ele>114.3</ele>
        <time>2013-05-26T07:39:08.000Z</time>
      </trkpt>
      <trkpt lat="48.48341" lon="-2.57648">
        <ele>114.6</ele>
        <time>2013-05-26T07:39:09.000Z</time>
      </trkpt>
      <trkpt lat="48.48342" lon="-2.57652">
        <ele>114.7</ele>
        <time>2013-05-26T07:39:10.000Z</time>
      </trkpt>
      <trkpt lat="48.48344" lon="-2.57657">
        <ele>115</ele>
        <time>2013-05-26T07:39:11.000Z</time>
      </trkpt>
      <trkpt lat="48.48345" lon="-2.57661">
        <ele>115.2</ele>
        <time>2013-05-26T07:39:12.000Z</time>
      </trkpt>
      <trkpt lat="48.48347" lon="-2.57666">
        <ele>115.5</ele>
        <time>2013-05-26T07:39:13.000Z</time>
      </trkpt>
      <trkpt lat="48.48348" lon="-2.57671">
        <ele>115.8</ele>
        <time>2013-05-26T07:39:14.000Z</time>
      </trkpt>
      <trkpt lat="48.4835" lon="-2.57676">
        <ele>116</ele>
        <time>2013-05-26T07:39:15.000Z</time>
      </trkpt>
      <trkpt lat="48.48351" lon="-2.5768">
        <ele>116.2</ele>
        <time>2013-05-26T07:39:16.000Z</time>
      </trkpt>
      <trkpt lat="48.48353" lon="-2.57686">
        <ele>116.4</ele>
        <time>2013-05-26T07:39:17.000Z</time>
      </trkpt>
      <trkpt lat="48.48361" lon="-2.57709">
        <ele>110.1</ele>
        <time>2013-05-26T07:39:21.000Z</time>
      </trkpt>
      <trkpt lat="48.4836" lon="-2.57717">
        <ele>120.3</ele>
        <time>2013-05-26T07:39:22.000Z</time>
      </trkpt>
      <trkpt lat="48.48359" lon="-2.57722">
        <ele>126.4</ele>
        <time>2013-05-26T07:39:23.000Z</time>
      </trkpt>
      <trkpt lat="48.48361" lon="-2.57726">
        <ele>124.9</ele>
        <time>2013-05-26T07:39:24.000Z</time>
      </trkpt>
      <trkpt lat="48.48364" lon="-2.57729">
        <ele>123</ele>
        <time>2013-05-26T07:39:25.000Z</time>
      </trkpt>
      <trkpt lat="48.48365" lon="-2.57734">
        <ele>123.4</ele>
        <time>2013-05-26T07:39:26.000Z</time>
      </trkpt>
      <trkpt lat="48.48368" lon="-2.57736">
        <ele>121.3</ele>
        <time>2013-05-26T07:39:27.000Z</time>
      </trkpt>
      <trkpt lat="48.4837" lon="-2.5774">
        <ele>119.4</ele>
        <time>2013-05-26T07:39:28.000Z</time>
      </trkpt>
      <trkpt lat="48.48371" lon="-2.57744">
        <ele>119.7</ele>
        <time>2013-05-26T07:39:29.000Z</time>
      </trkpt>
      <trkpt lat="48.48373" lon="-2.57748">
        <ele>119.9</ele>
        <time>2013-05-26T07:39:30.000Z</time>
      </trkpt>
      <trkpt lat="48.48376" lon="-2.57751">
        <ele>120.4</ele>
        <time>2013-05-26T07:39:31.000Z</time>
      </trkpt>
      <trkpt lat="48.48378" lon="-2.57753">
        <ele>121</ele>
        <time>2013-05-26T07:39:32.000Z</time>
      </trkpt>
      <trkpt lat="48.48382" lon="-2.57754">
        <ele>121.4</ele>
        <time>2013-05-26T07:39:33.000Z</time>
      </trkpt>
      <trkpt lat="48.48385" lon="-2.57754">
        <ele>122.1</ele>
        <time>2013-05-26T07:39:34.000Z</time>
      </trkpt>
      <trkpt lat="48.48387" lon="-2.57753">
        <ele>122.6</ele>
        <time>2013-05-26T07:39:35.000Z</time>
      </trkpt>
      <trkpt lat="48.4839" lon="-2.57752">
        <ele>123.4</ele>
        <time>2013-05-26T07:39:36.000Z</time>
      </trkpt>
      <trkpt lat="48.48393" lon="-2.5775">
        <ele>124</ele>
        <time>2013-05-26T07:39:37.000Z</time>
      </trkpt>
      <trkpt lat="48.48396" lon="-2.57748">
        <ele>124.6</ele>
        <time>2013-05-26T07:39:38.000Z</time>
      </trkpt>
      <trkpt lat="48.48399" lon="-2.57746">
        <ele>124.7</ele>
        <time>2013-05-26T07:39:39.000Z</time>
      </trkpt>
      <trkpt lat="48.48402" lon="-2.57743">
        <ele>125</ele>
        <time>2013-05-26T07:39:40.000Z</time>
      </trkpt>
      <trkpt lat="48.48405" lon="-2.5774">
        <ele>125.2</ele>
        <time>2013-05-26T07:39:41.000Z</time>
      </trkpt>
      <trkpt lat="48.48408" lon="-2.57738">
        <ele>125.5</ele>
        <time>2013-05-26T07:39:42.000Z</time>
      </trkpt>
      <trkpt lat="48.48411" lon="-2.57734">
        <ele>125.8</ele>
        <time>2013-05-26T07:39:43.000Z</time>
      </trkpt>
      <trkpt lat="48.48413" lon="-2.57731">
        <ele>125.6</ele>
        <time>2013-05-26T07:39:44.000Z</time>
      </trkpt>
      <trkpt lat="48.48416" lon="-2.57726">
        <ele>125.7</ele>
        <time>2013-05-26T07:39:45.000Z</time>
      </trkpt>
      <trkpt lat="48.48419" lon="-2.57722">
        <ele>125.6</ele>
        <time>2013-05-26T07:39:46.000Z</time>
      </trkpt>
      <trkpt lat="48.48423" lon="-2.57718">
        <ele>125.6</ele>
        <time>2013-05-26T07:39:47.000Z</time>
      </trkpt>
      <trkpt lat="48.48427" lon="-2.57714">
        <ele>125.2</ele>
        <time>2013-05-26T07:39:48.000Z</time>
      </trkpt>
      <trkpt lat="48.48431" lon="-2.57712">
        <ele>124.7</ele>
        <time>2013-05-26T07:39:49.000Z</time>
      </trkpt>
      <trkpt lat="48.48436" lon="-2.57711">
        <ele>124.3</ele>
        <time>2013-05-26T07:39:50.000Z</time>
      </trkpt>
      <trkpt lat="48.48441" lon="-2.57709">
        <ele>124</ele>
        <time>2013-05-26T07:39:51.000Z</time>
      </trkpt>
      <trkpt lat="48.48446" lon="-2.57708">
        <ele>123.8</ele>
        <time>2013-05-26T07:39:52.000Z</time>
      </trkpt>
      <trkpt lat="48.4845" lon="-2.57707">
        <ele>123.3</ele>
        <time>2013-05-26T07:39:53.000Z</time>
      </trkpt>
      <trkpt lat="48.48455" lon="-2.57706">
        <ele>123</ele>
        <time>2013-05-26T07:39:54.000Z</time>
      </trkpt>
      <trkpt lat="48.4846" lon="-2.57707">
        <ele>122.5</ele>
        <time>2013-05-26T07:39:55.000Z</time>
      </trkpt>
      <trkpt lat="48.48465" lon="-2.57708">
        <ele>122.3</ele>
        <time>2013-05-26T07:39:56.000Z</time>
      </trkpt>
      <trkpt lat="48.4847" lon="-2.57709">
        <ele>122.5</ele>
        <time>2013-05-26T07:39:57.000Z</time>
      </trkpt>
      <trkpt lat="48.48477" lon="-2.57707">
        <ele>122.1</ele>
        <time>2013-05-26T07:39:58.000Z</time>
      </trkpt>
      <trkpt lat="48.48484" lon="-2.57705">
        <ele>121.8</ele>
        <time>2013-05-26T07:39:59.000Z</time>
      </trkpt>
      <trkpt lat="48.48492" lon="-2.57702">
        <ele>121.4</ele>
        <time>2013-05-26T07:40:00.000Z</time>
      </trkpt>
      <trkpt lat="48.485" lon="-2.57698">
        <ele>121</ele>
        <time>2013-05-26T07:40:01.000Z</time>
      </trkpt>
      <trkpt lat="48.48509" lon="-2.57694">
        <ele>121</ele>
        <time>2013-05-26T07:40:02.000Z</time>
      </trkpt>
      <trkpt lat="48.48517" lon="-2.57691">
        <ele>120.9</ele>
        <time>2013-05-26T07:40:03.000Z</time>
      </trkpt>
      <trkpt lat="48.48525" lon="-2.57688">
        <ele>120.9</ele>
        <time>2013-05-26T07:40:04.000Z</time>
      </trkpt>
      <trkpt lat="48.48534" lon="-2.57686">
        <ele>120.6</ele>
        <time>2013-05-26T07:40:05.000Z</time>
      </trkpt>
      <trkpt lat="48.48542" lon="-2.57682">
        <ele>120</ele>
        <time>2013-05-26T07:40:06.000Z</time>
      </trkpt>
      <trkpt lat="48.48551" lon="-2.57676">
        <ele>119</ele>
        <time>2013-05-26T07:40:07.000Z</time>
      </trkpt>
      <trkpt lat="48.48561" lon="-2.57667">
        <ele>116.3</ele>
        <time>2013-05-26T07:40:08.000Z</time>
      </trkpt>
      <trkpt lat="48.4857" lon="-2.57659">
        <ele>114.1</ele>
        <time>2013-05-26T07:40:09.000Z</time>
      </trkpt>
      <trkpt lat="48.4858" lon="-2.57653">
        <ele>112.3</ele>
        <time>2013-05-26T07:40:10.000Z</time>
      </trkpt>
      <trkpt lat="48.48588" lon="-2.57647">
        <ele>111.7</ele>
        <time>2013-05-26T07:40:11.000Z</time>
      </trkpt>
      <trkpt lat="48.48595" lon="-2.57642">
        <ele>111.2</ele>
        <time>2013-05-26T07:40:12.000Z</time>
      </trkpt>
      <trkpt lat="48.48601" lon="-2.57638">
        <ele>110.9</ele>
        <time>2013-05-26T07:40:13.000Z</time>
      </trkpt>
      <trkpt lat="48.48606" lon="-2.57634">
        <ele>110.6</ele>
        <time>2013-05-26T07:40:14.000Z</time>
      </trkpt>
      <trkpt lat="48.48609" lon="-2.57632">
        <ele>110.7</ele>
        <time>2013-05-26T07:40:15.000Z</time>
      </trkpt>
      <trkpt lat="48.48612" lon="-2.57631">
        <ele>110.4</ele>
        <time>2013-05-26T07:40:16.000Z</time>
      </trkpt>
      <trkpt lat="48.48614" lon="-2.5763">
        <ele>110</ele>
        <time>2013-05-26T07:40:17.000Z</time>
      </trkpt>
      <trkpt lat="48.48665" lon="-2.57791">
        <ele>145.8</ele>
        <time>2013-05-26T07:41:17.000Z</time>
      </trkpt>
      <trkpt lat="48.48674" lon="-2.57806">
        <ele>120.9</ele>
        <time>2013-05-26T07:41:21.000Z</time>
      </trkpt>
      <trkpt lat="48.48677" lon="-2.5781">
        <ele>115.5</ele>
        <time>2013-05-26T07:41:23.000Z</time>
      </trkpt>
      <trkpt lat="48.48679" lon="-2.57812">
        <ele>117.3</ele>
        <time>2013-05-26T07:41:24.000Z</time>
      </trkpt>
      <trkpt lat="48.48678" lon="-2.57818">
        <ele>118.5</ele>
        <time>2013-05-26T07:41:27.000Z</time>
      </trkpt>
      <trkpt lat="48.48682" lon="-2.57821">
        <ele>116.3</ele>
        <time>2013-05-26T07:41:28.000Z</time>
      </trkpt>
      <trkpt lat="48.48681" lon="-2.57827">
        <ele>118.1</ele>
        <time>2013-05-26T07:41:34.000Z</time>
      </trkpt>
      <trkpt lat="48.4868" lon="-2.57828">
        <ele>119.3</ele>
        <time>2013-05-26T07:41:35.000Z</time>
      </trkpt>
      <trkpt lat="48.48679" lon="-2.57835">
        <ele>123.8</ele>
        <time>2013-05-26T07:41:40.000Z</time>
      </trkpt>
      <trkpt lat="48.48679" lon="-2.57836">
        <ele>123.9</ele>
        <time>2013-05-26T07:41:41.000Z</time>
      </trkpt>
      <trkpt lat="48.48677" lon="-2.57842">
        <ele>124.2</ele>
        <time>2013-05-26T07:41:45.000Z</time>
      </trkpt>
      <trkpt lat="48.48677" lon="-2.57843">
        <ele>124.1</ele>
        <time>2013-05-26T07:41:46.000Z</time>
      </trkpt>
      <trkpt lat="48.48675" lon="-2.57847">
        <ele>122</ele>
        <time>2013-05-26T07:41:49.000Z</time>
      </trkpt>
      <trkpt lat="48.48675" lon="-2.57849">
        <ele>122.5</ele>
        <time>2013-05-26T07:41:50.000Z</time>
      </trkpt>
      <trkpt lat="48.48671" lon="-2.57853">
        <ele>119.5</ele>
        <time>2013-05-26T07:41:57.000Z</time>
      </trkpt>
      <trkpt lat="48.48671" lon="-2.57854">
        <ele>119.2</ele>
        <time>2013-05-26T07:41:58.000Z</time>
      </trkpt>
      <trkpt lat="48.48667" lon="-2.57857">
        <ele>119.2</ele>
        <time>2013-05-26T07:42:04.000Z</time>
      </trkpt>
      <trkpt lat="48.48666" lon="-2.57857">
        <ele>119.1</ele>
        <time>2013-05-26T07:42:05.000Z</time>
      </trkpt>
      <trkpt lat="48.48666" lon="-2.57863">
        <ele>118.2</ele>
        <time>2013-05-26T07:42:13.000Z</time>
      </trkpt>
      <trkpt lat="48.48666" lon="-2.57864">
        <ele>118.4</ele>
        <time>2013-05-26T07:42:14.000Z</time>
      </trkpt>
      <trkpt lat="48.48666" lon="-2.57866">
        <ele>118.6</ele>
        <time>2013-05-26T07:42:17.000Z</time>
      </trkpt>
      <trkpt lat="48.48668" lon="-2.57872">
        <ele>126.9</ele>
        <time>2013-05-26T07:42:21.000Z</time>
      </trkpt>
      <trkpt lat="48.48665" lon="-2.57876">
        <ele>117.3</ele>
        <time>2013-05-26T07:42:40.000Z</time>
      </trkpt>
      <trkpt lat="48.48664" lon="-2.57878">
        <ele>117.1</ele>
        <time>2013-05-26T07:42:41.000Z</time>
      </trkpt>
      <trkpt lat="48.48664" lon="-2.57884">
        <ele>122</ele>
        <time>2013-05-26T07:42:47.000Z</time>
      </trkpt>
      <trkpt lat="48.48663" lon="-2.57885">
        <ele>125</ele>
        <time>2013-05-26T07:42:48.000Z</time>
      </trkpt>
      <trkpt lat="48.48662" lon="-2.57891">
        <ele>123.8</ele>
        <time>2013-05-26T07:42:52.000Z</time>
      </trkpt>
      <trkpt lat="48.48661" lon="-2.57893">
        <ele>122.4</ele>
        <time>2013-05-26T07:42:53.000Z</time>
      </trkpt>
      <trkpt lat="48.48658" lon="-2.57895">
        <ele>121.2</ele>
        <time>2013-05-26T07:42:56.000Z</time>
      </trkpt>
      <trkpt lat="48.48657" lon="-2.57896">
        <ele>120.7</ele>
        <time>2013-05-26T07:42:57.000Z</time>
      </trkpt>
      <trkpt lat="48.48653" lon="-2.57894">
        <ele>119.6</ele>
        <time>2013-05-26T07:43:00.000Z</time>
      </trkpt>
      <trkpt lat="48.48651" lon="-2.57894">
        <ele>119.4</ele>
        <time>2013-05-26T07:43:01.000Z</time>
      </trkpt>
      <trkpt lat="48.48647" lon="-2.57894">
        <ele>119.1</ele>
        <time>2013-05-26T07:43:03.000Z</time>
      </trkpt>
      <trkpt lat="48.48644" lon="-2.57895">
        <ele>118.7</ele>
        <time>2013-05-26T07:43:04.000Z</time>
      </trkpt>
      <trkpt lat="48.48642" lon="-2.57897">
        <ele>118.2</ele>
        <time>2013-05-26T07:43:05.000Z</time>
      </trkpt>
      <trkpt lat="48.48639" lon="-2.57899">
        <ele>116.8</ele>
        <time>2013-05-26T07:43:06.000Z</time>
      </trkpt>
      <trkpt lat="48.48636" lon="-2.57902">
        <ele>116.4</ele>
        <time>2013-05-26T07:43:07.000Z</time>
      </trkpt>
      <trkpt lat="48.48634" lon="-2.57904">
        <ele>116.6</ele>
        <time>2013-05-26T07:43:08.000Z</time>
      </trkpt>
      <trkpt lat="48.48632" lon="-2.57905">
        <ele>116.6</ele>
        <time>2013-05-26T07:43:09.000Z</time>
      </trkpt>
      <trkpt lat="48.4863" lon="-2.57906">
        <ele>116.9</ele>
        <time>2013-05-26T07:43:10.000Z</time>
      </trkpt>
      <trkpt lat="48.48625" lon="-2.57907">
        <ele>117</ele>
        <time>2013-05-26T07:43:12.000Z</time>
      </trkpt>
      <trkpt lat="48.48623" lon="-2.57908">
        <ele>117.1</ele>
        <time>2013-05-26T07:43:13.000Z</time>
      </trkpt>
      <trkpt lat="48.4862" lon="-2.57909">
        <ele>117.1</ele>
        <time>2013-05-26T07:43:15.000Z</time>
      </trkpt>
      <trkpt lat="48.48618" lon="-2.57909">
        <ele>117.1</ele>
        <time>2013-05-26T07:43:16.000Z</time>
      </trkpt>
      <trkpt lat="48.48614" lon="-2.57908">
        <ele>114.8</ele>
        <time>2013-05-26T07:43:20.000Z</time>
      </trkpt>
      <trkpt lat="48.48611" lon="-2.57911">
        <ele>114.6</ele>
        <time>2013-05-26T07:43:21.000Z</time>
      </trkpt>
      <trkpt lat="48.48607" lon="-2.57912">
        <ele>114.3</ele>
        <time>2013-05-26T07:43:23.000Z</time>
      </trkpt>
      <trkpt lat="48.48604" lon="-2.57911">
        <ele>115.4</ele>
        <time>2013-05-26T07:43:24.000Z</time>
      </trkpt>
      <trkpt lat="48.48602" lon="-2.57911">
        <ele>116.2</ele>
        <time>2013-05-26T07:43:25.000Z</time>
      </trkpt>
      <trkpt lat="48.48599" lon="-2.57911">
        <ele>115.9</ele>
        <time>2013-05-26T07:43:26.000Z</time>
      </trkpt>
      <trkpt lat="48.48595" lon="-2.57912">
        <ele>116.9</ele>
        <time>2013-05-26T07:43:28.000Z</time>
      </trkpt>
      <trkpt lat="48.48593" lon="-2.57913">
        <ele>116.3</ele>
        <time>2013-05-26T07:43:29.000Z</time>
      </trkpt>
      <trkpt lat="48.4859" lon="-2.57915">
        <ele>116.2</ele>
        <time>2013-05-26T07:43:31.000Z</time>
      </trkpt>
      <trkpt lat="48.48588" lon="-2.57916">
        <ele>116.5</ele>
        <time>2013-05-26T07:43:32.000Z</time>
      </trkpt>
      <trkpt lat="48.48584" lon="-2.57918">
        <ele>116.5</ele>
        <time>2013-05-26T07:43:34.000Z</time>
      </trkpt>
      <trkpt lat="48.48582" lon="-2.57918">
        <ele>116.4</ele>
        <time>2013-05-26T07:43:35.000Z</time>
      </trkpt>
      <trkpt lat="48.48578" lon="-2.5792">
        <ele>116.5</ele>
        <time>2013-05-26T07:43:37.000Z</time>
      </trkpt>
      <trkpt lat="48.48577" lon="-2.57921">
        <ele>116.5</ele>
        <time>2013-05-26T07:43:38.000Z</time>
      </trkpt>
      <trkpt lat="48.48573" lon="-2.57922">
        <ele>116.5</ele>
        <time>2013-05-26T07:43:40.000Z</time>
      </trkpt>
      <trkpt lat="48.48571" lon="-2.57923">
        <ele>116.4</ele>
        <time>2013-05-26T07:43:41.000Z</time>
      </trkpt>
      <trkpt lat="48.48567" lon="-2.57924">
        <ele>116.5</ele>
        <time>2013-05-26T07:43:43.000Z</time>
      </trkpt>
      <trkpt lat="48.48565" lon="-2.57925">
        <ele>116.5</ele>
        <time>2013-05-26T07:43:44.000Z</time>
      </trkpt>
      <trkpt lat="48.4856" lon="-2.57926">
        <ele>116.4</ele>
        <time>2013-05-26T07:43:46.000Z</time>
      </trkpt>
      <trkpt lat="48.48558" lon="-2.57926">
        <ele>116.5</ele>
        <time>2013-05-26T07:43:47.000Z</time>
      </trkpt>
      <trkpt lat="48.48554" lon="-2.57927">
        <ele>116.6</ele>
        <time>2013-05-26T07:43:49.000Z</time>
      </trkpt>
      <trkpt lat="48.48552" lon="-2.57927">
        <ele>116.7</ele>
        <time>2013-05-26T07:43:50.000Z</time>
      </trkpt>
      <trkpt lat="48.4855" lon="-2.57927">
        <ele>117.1</ele>
        <time>2013-05-26T07:43:51.000Z</time>
      </trkpt>
      <trkpt lat="48.48546" lon="-2.57927">
        <ele>117.6</ele>
        <time>2013-05-26T07:43:52.000Z</time>
      </trkpt>
      <trkpt lat="48.48544" lon="-2.57927">
        <ele>117.9</ele>
        <time>2013-05-26T07:43:53.000Z</time>
      </trkpt>
      <trkpt lat="48.48541" lon="-2.57927">
        <ele>118.1</ele>
        <time>2013-05-26T07:43:54.000Z</time>
      </trkpt>
      <trkpt lat="48.48538" lon="-2.57927">
        <ele>118.2</ele>
        <time>2013-05-26T07:43:55.000Z</time>
      </trkpt>
      <trkpt lat="48.48536" lon="-2.57927">
        <ele>118.2</ele>
        <time>2013-05-26T07:43:56.000Z</time>
      </trkpt>
      <trkpt lat="48.48531" lon="-2.57927">
        <ele>118.3</ele>
        <time>2013-05-26T07:43:58.000Z</time>
      </trkpt>
      <trkpt lat="48.48529" lon="-2.57927">
        <ele>118.3</ele>
        <time>2013-05-26T07:43:59.000Z</time>
      </trkpt>
      <trkpt lat="48.48525" lon="-2.57926">
        <ele>118.7</ele>
        <time>2013-05-26T07:44:01.000Z</time>
      </trkpt>
      <trkpt lat="48.48523" lon="-2.57926">
        <ele>118.8</ele>
        <time>2013-05-26T07:44:02.000Z</time>
      </trkpt>
      <trkpt lat="48.48519" lon="-2.57925">
        <ele>118.9</ele>
        <time>2013-05-26T07:44:04.000Z</time>
      </trkpt>
      <trkpt lat="48.48517" lon="-2.57925">
        <ele>119.1</ele>
        <time>2013-05-26T07:44:05.000Z</time>
      </trkpt>
      <trkpt lat="48.48514" lon="-2.57924">
        <ele>119.2</ele>
        <time>2013-05-26T07:44:06.000Z</time>
      </trkpt>
      <trkpt lat="48.48512" lon="-2.57923">
        <ele>119.4</ele>
        <time>2013-05-26T07:44:07.000Z</time>
      </trkpt>
      <trkpt lat="48.48509" lon="-2.57922">
        <ele>119.5</ele>
        <time>2013-05-26T07:44:08.000Z</time>
      </trkpt>
      <trkpt lat="48.48507" lon="-2.57921">
        <ele>119.6</ele>
        <time>2013-05-26T07:44:09.000Z</time>
      </trkpt>
      <trkpt lat="48.48505" lon="-2.5792">
        <ele>119.7</ele>
        <time>2013-05-26T07:44:10.000Z</time>
      </trkpt>
      <trkpt lat="48.48503" lon="-2.57918">
        <ele>119.8</ele>
        <time>2013-05-26T07:44:11.000Z</time>
      </trkpt>
      <trkpt lat="48.485" lon="-2.57917">
        <ele>119.9</ele>
        <time>2013-05-26T07:44:12.000Z</time>
      </trkpt>
      <trkpt lat="48.48498" lon="-2.57916">
        <ele>120</ele>
        <time>2013-05-26T07:44:13.000Z</time>
      </trkpt>
      <trkpt lat="48.48496" lon="-2.57914">
        <ele>120.1</ele>
        <time>2013-05-26T07:44:14.000Z</time>
      </trkpt>
      <trkpt lat="48.48494" lon="-2.57912">
        <ele>120.3</ele>
        <time>2013-05-26T07:44:15.000Z</time>
      </trkpt>
      <trkpt lat="48.48491" lon="-2.5791">
        <ele>120.4</ele>
        <time>2013-05-26T07:44:16.000Z</time>
      </trkpt>
      <trkpt lat="48.48489" lon="-2.57909">
        <ele>120.3</ele>
        <time>2013-05-26T07:44:17.000Z</time>
      </trkpt>
      <trkpt lat="48.4848" lon="-2.57901">
        <ele>123.6</ele>
        <time>2013-05-26T07:44:21.000Z</time>
      </trkpt>
      <trkpt lat="48.48475" lon="-2.57905">
        <ele>119.8</ele>
        <time>2013-05-26T07:44:23.000Z</time>
      </trkpt>
      <trkpt lat="48.48471" lon="-2.57906">
        <ele>119.3</ele>
        <time>2013-05-26T07:44:24.000Z</time>
      </trkpt>
      <trkpt lat="48.48468" lon="-2.57907">
        <ele>118.7</ele>
        <time>2013-05-26T07:44:25.000Z</time>
      </trkpt>
      <trkpt lat="48.48465" lon="-2.57906">
        <ele>118.9</ele>
        <time>2013-05-26T07:44:26.000Z</time>
      </trkpt>
      <trkpt lat="48.48462" lon="-2.57906">
        <ele>118.4</ele>
        <time>2013-05-26T07:44:27.000Z</time>
      </trkpt>
      <trkpt lat="48.48459" lon="-2.57907">
        <ele>117.7</ele>
        <time>2013-05-26T07:44:28.000Z</time>
      </trkpt>
      <trkpt lat="48.48457" lon="-2.57907">
        <ele>117.7</ele>
        <time>2013-05-26T07:44:29.000Z</time>
      </trkpt>
      <trkpt lat="48.48455" lon="-2.57909">
        <ele>117.9</ele>
        <time>2013-05-26T07:44:30.000Z</time>
      </trkpt>
      <trkpt lat="48.48453" lon="-2.5791">
        <ele>117.8</ele>
        <time>2013-05-26T07:44:31.000Z</time>
      </trkpt>
      <trkpt lat="48.4845" lon="-2.57911">
        <ele>117.8</ele>
        <time>2013-05-26T07:44:32.000Z</time>
      </trkpt>
      <trkpt lat="48.48448" lon="-2.57912">
        <ele>118</ele>
        <time>2013-05-26T07:44:33.000Z</time>
      </trkpt>
      <trkpt lat="48.48445" lon="-2.57913">
        <ele>117.7</ele>
        <time>2013-05-26T07:44:34.000Z</time>
      </trkpt>
      <trkpt lat="48.48442" lon="-2.57913">
        <ele>117.5</ele>
        <time>2013-05-26T07:44:35.000Z</time>
      </trkpt>
      <trkpt lat="48.48439" lon="-2.57914">
        <ele>117.1</ele>
        <time>2013-05-26T07:44:36.000Z</time>
      </trkpt>
      <trkpt lat="48.48437" lon="-2.57916">
        <ele>117</ele>
        <time>2013-05-26T07:44:37.000Z</time>
      </trkpt>
      <trkpt lat="48.48434" lon="-2.57917">
        <ele>117</ele>
        <time>2013-05-26T07:44:38.000Z</time>
      </trkpt>
      <trkpt lat="48.48432" lon="-2.57919">
        <ele>116.9</ele>
        <time>2013-05-26T07:44:39.000Z</time>
      </trkpt>
      <trkpt lat="48.48429" lon="-2.57923">
        <ele>116.5</ele>
        <time>2013-05-26T07:44:41.000Z</time>
      </trkpt>
      <trkpt lat="48.48428" lon="-2.57926">
        <ele>116.6</ele>
        <time>2013-05-26T07:44:42.000Z</time>
      </trkpt>
      <trkpt lat="48.48426" lon="-2.57931">
        <ele>117.6</ele>
        <time>2013-05-26T07:44:44.000Z</time>
      </trkpt>
      <trkpt lat="48.48425" lon="-2.57934">
        <ele>117.7</ele>
        <time>2013-05-26T07:44:45.000Z</time>
      </trkpt>
      <trkpt lat="48.48424" lon="-2.57938">
        <ele>117.6</ele>
        <time>2013-05-26T07:44:46.000Z</time>
      </trkpt>
      <trkpt lat="48.48423" lon="-2.57942">
        <ele>117.5</ele>
        <time>2013-05-26T07:44:47.000Z</time>
      </trkpt>
      <trkpt lat="48.48422" lon="-2.57945">
        <ele>117.9</ele>
        <time>2013-05-26T07:44:48.000Z</time>
      </trkpt>
      <trkpt lat="48.48421" lon="-2.57949">
        <ele>117.5</ele>
        <time>2013-05-26T07:44:49.000Z</time>
      </trkpt>
      <trkpt lat="48.4842" lon="-2.57952">
        <ele>117.4</ele>
        <time>2013-05-26T07:44:50.000Z</time>
      </trkpt>
      <trkpt lat="48.4842" lon="-2.57955">
        <ele>117.8</ele>
        <time>2013-05-26T07:44:51.000Z</time>
      </trkpt>
      <trkpt lat="48.48419" lon="-2.57961">
        <ele>118.3</ele>
        <time>2013-05-26T07:44:53.000Z</time>
      </trkpt>
      <trkpt lat="48.48419" lon="-2.57964">
        <ele>118.6</ele>
        <time>2013-05-26T07:44:54.000Z</time>
      </trkpt>
      <trkpt lat="48.4842" lon="-2.57971">
        <ele>118.8</ele>
        <time>2013-05-26T07:44:56.000Z</time>
      </trkpt>
      <trkpt lat="48.4842" lon="-2.57974">
        <ele>118.8</ele>
        <time>2013-05-26T07:44:57.000Z</time>
      </trkpt>
      <trkpt lat="48.48421" lon="-2.57977">
        <ele>118.9</ele>
        <time>2013-05-26T07:44:58.000Z</time>
      </trkpt>
      <trkpt lat="48.48422" lon="-2.5798">
        <ele>119</ele>
        <time>2013-05-26T07:44:59.000Z</time>
      </trkpt>
      <trkpt lat="48.48423" lon="-2.57984">
        <ele>119.1</ele>
        <time>2013-05-26T07:45:00.000Z</time>
      </trkpt>
      <trkpt lat="48.48424" lon="-2.57987">
        <ele>119.3</ele>
        <time>2013-05-26T07:45:01.000Z</time>
      </trkpt>
      <trkpt lat="48.48425" lon="-2.57991">
        <ele>119.5</ele>
        <time>2013-05-26T07:45:02.000Z</time>
      </trkpt>
      <trkpt lat="48.48425" lon="-2.57995">
        <ele>119.7</ele>
        <time>2013-05-26T07:45:03.000Z</time>
      </trkpt>
      <trkpt lat="48.48426" lon="-2.57998">
        <ele>119.8</ele>
        <time>2013-05-26T07:45:04.000Z</time>
      </trkpt>
      <trkpt lat="48.48427" lon="-2.58002">
        <ele>119.9</ele>
        <time>2013-05-26T07:45:05.000Z</time>
      </trkpt>
      <trkpt lat="48.48428" lon="-2.58006">
        <ele>120.2</ele>
        <time>2013-05-26T07:45:06.000Z</time>
      </trkpt>
      <trkpt lat="48.48429" lon="-2.5801">
        <ele>120.3</ele>
        <time>2013-05-26T07:45:07.000Z</time>
      </trkpt>
      <trkpt lat="48.4843" lon="-2.58014">
        <ele>120.5</ele>
        <time>2013-05-26T07:45:08.000Z</time>
      </trkpt>
      <trkpt lat="48.4843" lon="-2.58018">
        <ele>120.7</ele>
        <time>2013-05-26T07:45:09.000Z</time>
      </trkpt>
      <trkpt lat="48.48432" lon="-2.58021">
        <ele>120.9</ele>
        <time>2013-05-26T07:45:10.000Z</time>
      </trkpt>
      <trkpt lat="48.48433" lon="-2.58025">
        <ele>121.3</ele>
        <time>2013-05-26T07:45:11.000Z</time>
      </trkpt>
      <trkpt lat="48.48434" lon="-2.58029">
        <ele>121.4</ele>
        <time>2013-05-26T07:45:12.000Z</time>
      </trkpt>
      <trkpt lat="48.48435" lon="-2.58033">
        <ele>121.6</ele>
        <time>2013-05-26T07:45:13.000Z</time>
      </trkpt>
      <trkpt lat="48.48435" lon="-2.58037">
        <ele>121.7</ele>
        <time>2013-05-26T07:45:14.000Z</time>
      </trkpt>
      <trkpt lat="48.48436" lon="-2.58041">
        <ele>121.9</ele>
        <time>2013-05-26T07:45:15.000Z</time>
      </trkpt>
      <trkpt lat="48.48437" lon="-2.58045">
        <ele>122</ele>
        <time>2013-05-26T07:45:16.000Z</time>
      </trkpt>
      <trkpt lat="48.48438" lon="-2.58048">
        <ele>122.3</ele>
        <time>2013-05-26T07:45:17.000Z</time>
      </trkpt>
      <trkpt lat="48.48442" lon="-2.58067">
        <ele>120.9</ele>
        <time>2013-05-26T07:45:21.000Z</time>
      </trkpt>
      <trkpt lat="48.48441" lon="-2.58075">
        <ele>124.7</ele>
        <time>2013-05-26T07:45:23.000Z</time>
      </trkpt>
      <trkpt lat="48.48442" lon="-2.58077">
        <ele>125.1</ele>
        <time>2013-05-26T07:45:24.000Z</time>
      </trkpt>
      <trkpt lat="48.48443" lon="-2.58082">
        <ele>125.4</ele>
        <time>2013-05-26T07:45:25.000Z</time>
      </trkpt>
      <trkpt lat="48.48445" lon="-2.58085">
        <ele>125</ele>
        <time>2013-05-26T07:45:26.000Z</time>
      </trkpt>
      <trkpt lat="48.48446" lon="-2.58088">
        <ele>125.4</ele>
        <time>2013-05-26T07:45:27.000Z</time>
      </trkpt>
      <trkpt lat="48.48447" lon="-2.58091">
        <ele>125.4</ele>
        <time>2013-05-26T07:45:28.000Z</time>
      </trkpt>
      <trkpt lat="48.48448" lon="-2.58096">
        <ele>126.1</ele>
        <time>2013-05-26T07:45:29.000Z</time>
      </trkpt>
      <trkpt lat="48.4845" lon="-2.58099">
        <ele>125.8</ele>
        <time>2013-05-26T07:45:30.000Z</time>
      </trkpt>
      <trkpt lat="48.48451" lon="-2.58103">
        <ele>125.5</ele>
        <time>2013-05-26T07:45:31.000Z</time>
      </trkpt>
      <trkpt lat="48.48453" lon="-2.58106">
        <ele>125.6</ele>
        <time>2013-05-26T07:45:32.000Z</time>
      </trkpt>
      <trkpt lat="48.48455" lon="-2.58109">
        <ele>125.7</ele>
        <time>2013-05-26T07:45:33.000Z</time>
      </trkpt>
      <trkpt lat="48.48456" lon="-2.58112">
        <ele>125.4</ele>
        <time>2013-05-26T07:45:34.000Z</time>
      </trkpt>
      <trkpt lat="48.48458" lon="-2.58116">
        <ele>125</ele>
        <time>2013-05-26T07:45:35.000Z</time>
      </trkpt>
      <trkpt lat="48.48459" lon="-2.58119">
        <ele>124.3</ele>
        <time>2013-05-26T07:45:36.000Z</time>
      </trkpt>
      <trkpt lat="48.48461" lon="-2.58123">
        <ele>124.2</ele>
        <time>2013-05-26T07:45:37.000Z</time>
      </trkpt>
      <trkpt lat="48.48463" lon="-2.58126">
        <ele>123.6</ele>
        <time>2013-05-26T07:45:38.000Z</time>
      </trkpt>
      <trkpt lat="48.48465" lon="-2.5813">
        <ele>123.7</ele>
        <time>2013-05-26T07:45:39.000Z</time>
      </trkpt>
      <trkpt lat="48.48466" lon="-2.58133">
        <ele>123.8</ele>
        <time>2013-05-26T07:45:40.000Z</time>
      </trkpt>
      <trkpt lat="48.48468" lon="-2.58136">
        <ele>123.9</ele>
        <time>2013-05-26T07:45:41.000Z</time>
      </trkpt>
      <trkpt lat="48.48469" lon="-2.5814">
        <ele>124.2</ele>
        <time>2013-05-26T07:45:42.000Z</time>
      </trkpt>
      <trkpt lat="48.48471" lon="-2.58144">
        <ele>124</ele>
        <time>2013-05-26T07:45:43.000Z</time>
      </trkpt>
      <trkpt lat="48.48473" lon="-2.58148">
        <ele>124.5</ele>
        <time>2013-05-26T07:45:44.000Z</time>
      </trkpt>
      <trkpt lat="48.48475" lon="-2.58151">
        <ele>124.7</ele>
        <time>2013-05-26T07:45:45.000Z</time>
      </trkpt>
      <trkpt lat="48.48476" lon="-2.58155">
        <ele>124.6</ele>
        <time>2013-05-26T07:45:46.000Z</time>
      </trkpt>
      <trkpt lat="48.48478" lon="-2.58159">
        <ele>124.5</ele>
        <time>2013-05-26T07:45:47.000Z</time>
      </trkpt>
      <trkpt lat="48.4848" lon="-2.58162">
        <ele>124.6</ele>
        <time>2013-05-26T07:45:48.000Z</time>
      </trkpt>
      <trkpt lat="48.48482" lon="-2.58166">
        <ele>124.7</ele>
        <time>2013-05-26T07:45:49.000Z</time>
      </trkpt>
      <trkpt lat="48.48484" lon="-2.5817">
        <ele>124.6</ele>
        <time>2013-05-26T07:45:50.000Z</time>
      </trkpt>
      <trkpt lat="48.48485" lon="-2.58174">
        <ele>124.5</ele>
        <time>2013-05-26T07:45:51.000Z</time>
      </trkpt>
      <trkpt lat="48.48487" lon="-2.58177">
        <ele>124.5</ele>
        <time>2013-05-26T07:45:52.000Z</time>
      </trkpt>
      <trkpt lat="48.48489" lon="-2.58181">
        <ele>124.4</ele>
        <time>2013-05-26T07:45:53.000Z</time>
      </trkpt>
      <trkpt lat="48.48491" lon="-2.58185">
        <ele>124.3</ele>
        <time>2013-05-26T07:45:54.000Z</time>
      </trkpt>
      <trkpt lat="48.48493" lon="-2.58189">
        <ele>124.3</ele>
        <time>2013-05-26T07:45:55.000Z</time>
      </trkpt>
      <trkpt lat="48.48494" lon="-2.58193">
        <ele>124.4</ele>
        <time>2013-05-26T07:45:56.000Z</time>
      </trkpt>
      <trkpt lat="48.48496" lon="-2.58197">
        <ele>124.5</ele>
        <time>2013-05-26T07:45:57.000Z</time>
      </trkpt>
      <trkpt lat="48.48498" lon="-2.58201">
        <ele>124.3</ele>
        <time>2013-05-26T07:45:58.000Z</time>
      </trkpt>
      <trkpt lat="48.485" lon="-2.58205">
        <ele>124.2</ele>
        <time>2013-05-26T07:45:59.000Z</time>
      </trkpt>
      <trkpt lat="48.48502" lon="-2.58209">
        <ele>124.3</ele>
        <time>2013-05-26T07:46:00.000Z</time>
      </trkpt>
      <trkpt lat="48.48504" lon="-2.58213">
        <ele>124.3</ele>
        <time>2013-05-26T07:46:01.000Z</time>
      </trkpt>
      <trkpt lat="48.48506" lon="-2.58217">
        <ele>124.2</ele>
        <time>2013-05-26T07:46:02.000Z</time>
      </trkpt>
      <trkpt lat="48.48508" lon="-2.58221">
        <ele>124.1</ele>
        <time>2013-05-26T07:46:03.000Z</time>
      </trkpt>
      <trkpt lat="48.4851" lon="-2.58225">
        <ele>124</ele>
        <time>2013-05-26T07:46:04.000Z</time>
      </trkpt>
      <trkpt lat="48.48512" lon="-2.5823">
        <ele>123.9</ele>
        <time>2013-05-26T07:46:05.000Z</time>
      </trkpt>
      <trkpt lat="48.48514" lon="-2.58234">
        <ele>123.8</ele>
        <time>2013-05-26T07:46:06.000Z</time>
      </trkpt>
      <trkpt lat="48.48516" lon="-2.58238">
        <ele>123.7</ele>
        <time>2013-05-26T07:46:07.000Z</time>
      </trkpt>
      <trkpt lat="48.48518" lon="-2.58243">
        <ele>123.5</ele>
        <time>2013-05-26T07:46:08.000Z</time>
      </trkpt>
      <trkpt lat="48.4852" lon="-2.58247">
        <ele>123.5</ele>
        <time>2013-05-26T07:46:09.000Z</time>
      </trkpt>
      <trkpt lat="48.48523" lon="-2.58251">
        <ele>123.4</ele>
        <time>2013-05-26T07:46:10.000Z</time>
      </trkpt>
      <trkpt lat="48.48525" lon="-2.58256">
        <ele>123.4</ele>
        <time>2013-05-26T07:46:11.000Z</time>
      </trkpt>
      <trkpt lat="48.48527" lon="-2.5826">
        <ele>123.4</ele>
        <time>2013-05-26T07:46:12.000Z</time>
      </trkpt>
      <trkpt lat="48.48529" lon="-2.58265">
        <ele>123.3</ele>
        <time>2013-05-26T07:46:13.000Z</time>
      </trkpt>
      <trkpt lat="48.48531" lon="-2.58269">
        <ele>123.2</ele>
        <time>2013-05-26T07:46:14.000Z</time>
      </trkpt>
      <trkpt lat="48.48534" lon="-2.58274">
        <ele>123.1</ele>
        <time>2013-05-26T07:46:15.000Z</time>
      </trkpt>
      <trkpt lat="48.48536" lon="-2.58279">
        <ele>123.1</ele>
        <time>2013-05-26T07:46:16.000Z</time>
      </trkpt>
      <trkpt lat="48.48538" lon="-2.58284">
        <ele>123.1</ele>
        <time>2013-05-26T07:46:17.000Z</time>
      </trkpt>
      <trkpt lat="48.4854" lon="-2.58289">
        <ele>123.1</ele>
        <time>2013-05-26T07:46:18.000Z</time>
      </trkpt>
      <trkpt lat="48.48542" lon="-2.58293">
        <ele>123.1</ele>
        <time>2013-05-26T07:46:19.000Z</time>
      </trkpt>
      <trkpt lat="48.48544" lon="-2.58298">
        <ele>123.1</ele>
        <time>2013-05-26T07:46:20.000Z</time>
      </trkpt>
      <trkpt lat="48.48546" lon="-2.58303">
        <ele>123.3</ele>
        <time>2013-05-26T07:46:21.000Z</time>
      </trkpt>
      <trkpt lat="48.48548" lon="-2.58307">
        <ele>123.4</ele>
        <time>2013-05-26T07:46:22.000Z</time>
      </trkpt>
      <trkpt lat="48.48551" lon="-2.58312">
        <ele>123.5</ele>
        <time>2013-05-26T07:46:23.000Z</time>
      </trkpt>
      <trkpt lat="48.48553" lon="-2.58316">
        <ele>123.3</ele>
        <time>2013-05-26T07:46:24.000Z</time>
      </trkpt>
      <trkpt lat="48.48555" lon="-2.58321">
        <ele>123.3</ele>
        <time>2013-05-26T07:46:25.000Z</time>
      </trkpt>
      <trkpt lat="48.48557" lon="-2.58327">
        <ele>123.4</ele>
        <time>2013-05-26T07:46:26.000Z</time>
      </trkpt>
      <trkpt lat="48.48559" lon="-2.58332">
        <ele>123.5</ele>
        <time>2013-05-26T07:46:27.000Z</time>
      </trkpt>
      <trkpt lat="48.48561" lon="-2.58337">
        <ele>123.6</ele>
        <time>2013-05-26T07:46:28.000Z</time>
      </trkpt>
      <trkpt lat="48.48564" lon="-2.58342">
        <ele>123.6</ele>
        <time>2013-05-26T07:46:29.000Z</time>
      </trkpt>
      <trkpt lat="48.48566" lon="-2.58347">
        <ele>123.6</ele>
        <time>2013-05-26T07:46:30.000Z</time>
      </trkpt>
      <trkpt lat="48.48568" lon="-2.58352">
        <ele>123.7</ele>
        <time>2013-05-26T07:46:31.000Z</time>
      </trkpt>
      <trkpt lat="48.48571" lon="-2.58357">
        <ele>123.7</ele>
        <time>2013-05-26T07:46:32.000Z</time>
      </trkpt>
      <trkpt lat="48.48573" lon="-2.58362">
        <ele>123.8</ele>
        <time>2013-05-26T07:46:33.000Z</time>
      </trkpt>
      <trkpt lat="48.48575" lon="-2.58367">
        <ele>123.8</ele>
        <time>2013-05-26T07:46:34.000Z</time>
      </trkpt>
      <trkpt lat="48.48578" lon="-2.58372">
        <ele>123.8</ele>
        <time>2013-05-26T07:46:35.000Z</time>
      </trkpt>
      <trkpt lat="48.4858" lon="-2.58377">
        <ele>124</ele>
        <time>2013-05-26T07:46:36.000Z</time>
      </trkpt>
      <trkpt lat="48.48582" lon="-2.58381">
        <ele>124.1</ele>
        <time>2013-05-26T07:46:37.000Z</time>
      </trkpt>
      <trkpt lat="48.48585" lon="-2.58385">
        <ele>124.4</ele>
        <time>2013-05-26T07:46:38.000Z</time>
      </trkpt>
      <trkpt lat="48.48589" lon="-2.58388">
        <ele>124.3</ele>
        <time>2013-05-26T07:46:39.000Z</time>
      </trkpt>
      <trkpt lat="48.48593" lon="-2.5839">
        <ele>124.2</ele>
        <time>2013-05-26T07:46:40.000Z</time>
      </trkpt>
      <trkpt lat="48.48597" lon="-2.5839">
        <ele>124.2</ele>
        <time>2013-05-26T07:46:41.000Z</time>
      </trkpt>
      <trkpt lat="48.48601" lon="-2.58389">
        <ele>124.1</ele>
        <time>2013-05-26T07:46:42.000Z</time>
      </trkpt>
      <trkpt lat="48.48605" lon="-2.58387">
        <ele>124</ele>
        <time>2013-05-26T07:46:43.000Z</time>
      </trkpt>
      <trkpt lat="48.48609" lon="-2.58382">
        <ele>124.1</ele>
        <time>2013-05-26T07:46:44.000Z</time>
      </trkpt>
      <trkpt lat="48.48612" lon="-2.58378">
        <ele>124.2</ele>
        <time>2013-05-26T07:46:45.000Z</time>
      </trkpt>
      <trkpt lat="48.48616" lon="-2.58373">
        <ele>124.2</ele>
        <time>2013-05-26T07:46:46.000Z</time>
      </trkpt>
      <trkpt lat="48.48619" lon="-2.58367">
        <ele>124.4</ele>
        <time>2013-05-26T07:46:47.000Z</time>
      </trkpt>
      <trkpt lat="48.48622" lon="-2.58362">
        <ele>124.4</ele>
        <time>2013-05-26T07:46:48.000Z</time>
      </trkpt>
      <trkpt lat="48.48626" lon="-2.58357">
        <ele>124.5</ele>
        <time>2013-05-26T07:46:49.000Z</time>
      </trkpt>
      <trkpt lat="48.48629" lon="-2.58352">
        <ele>124.5</ele>
        <time>2013-05-26T07:46:50.000Z</time>
      </trkpt>
      <trkpt lat="48.48633" lon="-2.58346">
        <ele>124.4</ele>
        <time>2013-05-26T07:46:51.000Z</time>
      </trkpt>
      <trkpt lat="48.48636" lon="-2.58341">
        <ele>124.5</ele>
        <time>2013-05-26T07:46:52.000Z</time>
      </trkpt>
      <trkpt lat="48.4864" lon="-2.58336">
        <ele>124.6</ele>
        <time>2013-05-26T07:46:53.000Z</time>
      </trkpt>
      <trkpt lat="48.48643" lon="-2.5833">
        <ele>124.7</ele>
        <time>2013-05-26T07:46:54.000Z</time>
      </trkpt>
      <trkpt lat="48.48646" lon="-2.58325">
        <ele>124.7</ele>
        <time>2013-05-26T07:46:55.000Z</time>
      </trkpt>
      <trkpt lat="48.4865" lon="-2.5832">
        <ele>124.6</ele>
        <time>2013-05-26T07:46:56.000Z</time>
      </trkpt>
      <trkpt lat="48.48654" lon="-2.58315">
        <ele>124.6</ele>
        <time>2013-05-26T07:46:57.000Z</time>
      </trkpt>
      <trkpt lat="48.48658" lon="-2.5831">
        <ele>124.7</ele>
        <time>2013-05-26T07:46:58.000Z</time>
      </trkpt>
      <trkpt lat="48.48662" lon="-2.58306">
        <ele>124.7</ele>
        <time>2013-05-26T07:46:59.000Z</time>
      </trkpt>
      <trkpt lat="48.48665" lon="-2.58301">
        <ele>124.7</ele>
        <time>2013-05-26T07:47:00.000Z</time>
      </trkpt>
      <trkpt lat="48.48669" lon="-2.58297">
        <ele>124.7</ele>
        <time>2013-05-26T07:47:01.000Z</time>
      </trkpt>
      <trkpt lat="48.48673" lon="-2.58293">
        <ele>124.8</ele>
        <time>2013-05-26T07:47:02.000Z</time>
      </trkpt>
      <trkpt lat="48.48677" lon="-2.58288">
        <ele>124.8</ele>
        <time>2013-05-26T07:47:03.000Z</time>
      </trkpt>
      <trkpt lat="48.48681" lon="-2.58284">
        <ele>124.8</ele>
        <time>2013-05-26T07:47:04.000Z</time>
      </trkpt>
      <trkpt lat="48.48685" lon="-2.58279">
        <ele>124.8</ele>
        <time>2013-05-26T07:47:05.000Z</time>
      </trkpt>
      <trkpt lat="48.48689" lon="-2.58274">
        <ele>124.8</ele>
        <time>2013-05-26T07:47:06.000Z</time>
      </trkpt>
      <trkpt lat="48.48693" lon="-2.5827">
        <ele>124.9</ele>
        <time>2013-05-26T07:47:07.000Z</time>
      </trkpt>
      <trkpt lat="48.48697" lon="-2.58265">
        <ele>125</ele>
        <time>2013-05-26T07:47:08.000Z</time>
      </trkpt>
      <trkpt lat="48.48701" lon="-2.58261">
        <ele>125.1</ele>
        <time>2013-05-26T07:47:09.000Z</time>
      </trkpt>
      <trkpt lat="48.48705" lon="-2.58256">
        <ele>125.3</ele>
        <time>2013-05-26T07:47:10.000Z</time>
      </trkpt>
      <trkpt lat="48.48709" lon="-2.58252">
        <ele>125.4</ele>
        <time>2013-05-26T07:47:11.000Z</time>
      </trkpt>
      <trkpt lat="48.48713" lon="-2.58247">
        <ele>125.4</ele>
        <time>2013-05-26T07:47:12.000Z</time>
      </trkpt>
      <trkpt lat="48.48718" lon="-2.58243">
        <ele>125.3</ele>
        <time>2013-05-26T07:47:13.000Z</time>
      </trkpt>
      <trkpt lat="48.48723" lon="-2.58239">
        <ele>125.2</ele>
        <time>2013-05-26T07:47:14.000Z</time>
      </trkpt>
      <trkpt lat="48.48727" lon="-2.58235">
        <ele>125.2</ele>
        <time>2013-05-26T07:47:15.000Z</time>
      </trkpt>
      <trkpt lat="48.48732" lon="-2.58231">
        <ele>125.2</ele>
        <time>2013-05-26T07:47:16.000Z</time>
      </trkpt>
      <trkpt lat="48.48737" lon="-2.58228">
        <ele>125.3</ele>
        <time>2013-05-26T07:47:17.000Z</time>
      </trkpt>
      <trkpt lat="48.48751" lon="-2.58214">
        <ele>128</ele>
        <time>2013-05-26T07:47:21.000Z</time>
      </trkpt>
      <trkpt lat="48.48755" lon="-2.58211">
        <ele>126.5</ele>
        <time>2013-05-26T07:47:22.000Z</time>
      </trkpt>
      <trkpt lat="48.48762" lon="-2.58204">
        <ele>126.2</ele>
        <time>2013-05-26T07:47:23.000Z</time>
      </trkpt>
      <trkpt lat="48.48765" lon="-2.58202">
        <ele>131</ele>
        <time>2013-05-26T07:47:24.000Z</time>
      </trkpt>
      <trkpt lat="48.4877" lon="-2.58196">
        <ele>130.1</ele>
        <time>2013-05-26T07:47:25.000Z</time>
      </trkpt>
      <trkpt lat="48.48775" lon="-2.58192">
        <ele>131.2</ele>
        <time>2013-05-26T07:47:26.000Z</time>
      </trkpt>
      <trkpt lat="48.48778" lon="-2.58187">
        <ele>132.5</ele>
        <time>2013-05-26T07:47:27.000Z</time>
      </trkpt>
      <trkpt lat="48.48781" lon="-2.58182">
        <ele>131.8</ele>
        <time>2013-05-26T07:47:28.000Z</time>
      </trkpt>
      <trkpt lat="48.48785" lon="-2.58177">
        <ele>132.4</ele>
        <time>2013-05-26T07:47:29.000Z</time>
      </trkpt>
      <trkpt lat="48.4879" lon="-2.58171">
        <ele>131.7</ele>
        <time>2013-05-26T07:47:30.000Z</time>
      </trkpt>
      <trkpt lat="48.48794" lon="-2.58165">
        <ele>131.5</ele>
        <time>2013-05-26T07:47:31.000Z</time>
      </trkpt>
      <trkpt lat="48.48797" lon="-2.58159">
        <ele>133.1</ele>
        <time>2013-05-26T07:47:32.000Z</time>
      </trkpt>
      <trkpt lat="48.48801" lon="-2.58153">
        <ele>132.9</ele>
        <time>2013-05-26T07:47:33.000Z</time>
      </trkpt>
      <trkpt lat="48.48805" lon="-2.58147">
        <ele>134.4</ele>
        <time>2013-05-26T07:47:34.000Z</time>
      </trkpt>
      <trkpt lat="48.48808" lon="-2.58141">
        <ele>134.8</ele>
        <time>2013-05-26T07:47:35.000Z</time>
      </trkpt>
      <trkpt lat="48.48812" lon="-2.58134">
        <ele>135.1</ele>
        <time>2013-05-26T07:47:36.000Z</time>
      </trkpt>
      <trkpt lat="48.48815" lon="-2.58127">
        <ele>134.8</ele>
        <time>2013-05-26T07:47:37.000Z</time>
      </trkpt>
      <trkpt lat="48.48819" lon="-2.5812">
        <ele>134.6</ele>
        <time>2013-05-26T07:47:38.000Z</time>
      </trkpt>
      <trkpt lat="48.48822" lon="-2.58113">
        <ele>135.3</ele>
        <time>2013-05-26T07:47:39.000Z</time>
      </trkpt>
      <trkpt lat="48.48826" lon="-2.58106">
        <ele>136</ele>
        <time>2013-05-26T07:47:40.000Z</time>
      </trkpt>
      <trkpt lat="48.48829" lon="-2.58099">
        <ele>136.8</ele>
        <time>2013-05-26T07:47:41.000Z</time>
      </trkpt>
      <trkpt lat="48.48833" lon="-2.58092">
        <ele>137.5</ele>
        <time>2013-05-26T07:47:42.000Z</time>
      </trkpt>
      <trkpt lat="48.48837" lon="-2.58085">
        <ele>137.7</ele>
        <time>2013-05-26T07:47:43.000Z</time>
      </trkpt>
      <trkpt lat="48.48841" lon="-2.58078">
        <ele>137.8</ele>
        <time>2013-05-26T07:47:44.000Z</time>
      </trkpt>
      <trkpt lat="48.48845" lon="-2.5807">
        <ele>138.5</ele>
        <time>2013-05-26T07:47:45.000Z</time>
      </trkpt>
      <trkpt lat="48.48849" lon="-2.58063">
        <ele>138.6</ele>
        <time>2013-05-26T07:47:46.000Z</time>
      </trkpt>
      <trkpt lat="48.48853" lon="-2.58056">
        <ele>138.6</ele>
        <time>2013-05-26T07:47:47.000Z</time>
      </trkpt>
      <trkpt lat="48.48857" lon="-2.58049">
        <ele>138.4</ele>
        <time>2013-05-26T07:47:48.000Z</time>
      </trkpt>
      <trkpt lat="48.48861" lon="-2.58042">
        <ele>138.2</ele>
        <time>2013-05-26T07:47:49.000Z</time>
      </trkpt>
      <trkpt lat="48.48865" lon="-2.58035">
        <ele>137.9</ele>
        <time>2013-05-26T07:47:50.000Z</time>
      </trkpt>
      <trkpt lat="48.48868" lon="-2.58027">
        <ele>137.8</ele>
        <time>2013-05-26T07:47:51.000Z</time>
      </trkpt>
      <trkpt lat="48.48872" lon="-2.58021">
        <ele>137.6</ele>
        <time>2013-05-26T07:47:52.000Z</time>
      </trkpt>
      <trkpt lat="48.48876" lon="-2.58013">
        <ele>137</ele>
        <time>2013-05-26T07:47:53.000Z</time>
      </trkpt>
      <trkpt lat="48.48879" lon="-2.58006">
        <ele>137.2</ele>
        <time>2013-05-26T07:47:54.000Z</time>
      </trkpt>
      <trkpt lat="48.4888" lon="-2.57997">
        <ele>137.7</ele>
        <time>2013-05-26T07:47:55.000Z</time>
      </trkpt>
      <trkpt lat="48.48879" lon="-2.57989">
        <ele>136.8</ele>
        <time>2013-05-26T07:47:56.000Z</time>
      </trkpt>
      <trkpt lat="48.48876" lon="-2.57981">
        <ele>135.3</ele>
        <time>2013-05-26T07:47:57.000Z</time>
      </trkpt>
      <trkpt lat="48.48872" lon="-2.57973">
        <ele>134.1</ele>
        <time>2013-05-26T07:47:58.000Z</time>
      </trkpt>
      <trkpt lat="48.48867" lon="-2.57966">
        <ele>133</ele>
        <time>2013-05-26T07:47:59.000Z</time>
      </trkpt>
      <trkpt lat="48.48863" lon="-2.57959">
        <ele>132.1</ele>
        <time>2013-05-26T07:48:00.000Z</time>
      </trkpt>
      <trkpt lat="48.48858" lon="-2.57952">
        <ele>131.3</ele>
        <time>2013-05-26T07:48:01.000Z</time>
      </trkpt>
      <trkpt lat="48.48854" lon="-2.57944">
        <ele>130.6</ele>
        <time>2013-05-26T07:48:02.000Z</time>
      </trkpt>
      <trkpt lat="48.48849" lon="-2.57937">
        <ele>130</ele>
        <time>2013-05-26T07:48:03.000Z</time>
      </trkpt>
      <trkpt lat="48.48845" lon="-2.5793">
        <ele>129.4</ele>
        <time>2013-05-26T07:48:04.000Z</time>
      </trkpt>
      <trkpt lat="48.4884" lon="-2.57923">
        <ele>129</ele>
        <time>2013-05-26T07:48:05.000Z</time>
      </trkpt>
      <trkpt lat="48.48836" lon="-2.57916">
        <ele>128.6</ele>
        <time>2013-05-26T07:48:06.000Z</time>
      </trkpt>
      <trkpt lat="48.48831" lon="-2.57909">
        <ele>128.2</ele>
        <time>2013-05-26T07:48:07.000Z</time>
      </trkpt>
      <trkpt lat="48.48827" lon="-2.57902">
        <ele>127.9</ele>
        <time>2013-05-26T07:48:08.000Z</time>
      </trkpt>
      <trkpt lat="48.48823" lon="-2.57895">
        <ele>127.7</ele>
        <time>2013-05-26T07:48:09.000Z</time>
      </trkpt>
      <trkpt lat="48.48819" lon="-2.5789">
        <ele>127.5</ele>
        <time>2013-05-26T07:48:10.000Z</time>
      </trkpt>
      <trkpt lat="48.48814" lon="-2.57887">
        <ele>127.3</ele>
        <time>2013-05-26T07:48:11.000Z</time>
      </trkpt>
      <trkpt lat="48.4881" lon="-2.57887">
        <ele>127.1</ele>
        <time>2013-05-26T07:48:12.000Z</time>
      </trkpt>
      <trkpt lat="48.48806" lon="-2.57892">
        <ele>126.8</ele>
        <time>2013-05-26T07:48:13.000Z</time>
      </trkpt>
      <trkpt lat="48.48803" lon="-2.57896">
        <ele>126.6</ele>
        <time>2013-05-26T07:48:14.000Z</time>
      </trkpt>
      <trkpt lat="48.48798" lon="-2.57901">
        <ele>126.6</ele>
        <time>2013-05-26T07:48:15.000Z</time>
      </trkpt>
      <trkpt lat="48.48793" lon="-2.57903">
        <ele>126.5</ele>
        <time>2013-05-26T07:48:16.000Z</time>
      </trkpt>
      <trkpt lat="48.48786" lon="-2.57902">
        <ele>126.4</ele>
        <time>2013-05-26T07:48:17.000Z</time>
      </trkpt>
      <trkpt lat="48.48714" lon="-2.57793">
        <ele>116.6</ele>
        <time>2013-05-26T07:49:27.000Z</time>
      </trkpt>
      <trkpt lat="48.48718" lon="-2.57797">
        <ele>93.8</ele>
        <time>2013-05-26T07:49:28.000Z</time>
      </trkpt>
      <trkpt lat="48.48718" lon="-2.57789">
        <ele>100.7</ele>
        <time>2013-05-26T07:49:30.000Z</time>
      </trkpt>
      <trkpt lat="48.48717" lon="-2.57783">
        <ele>96.9</ele>
        <time>2013-05-26T07:49:31.000Z</time>
      </trkpt>
      <trkpt lat="48.48716" lon="-2.57775">
        <ele>92.5</ele>
        <time>2013-05-26T07:49:32.000Z</time>
      </trkpt>
      <trkpt lat="48.48715" lon="-2.57767">
        <ele>83.5</ele>
        <time>2013-05-26T07:49:33.000Z</time>
      </trkpt>
      <trkpt lat="48.48716" lon="-2.57759">
        <ele>81.6</ele>
        <time>2013-05-26T07:49:34.000Z</time>
      </trkpt>
      <trkpt lat="48.48718" lon="-2.57751">
        <ele>78.4</ele>
        <time>2013-05-26T07:49:35.000Z</time>
      </trkpt>
      <trkpt lat="48.48721" lon="-2.57742">
        <ele>75.1</ele>
        <time>2013-05-26T07:49:36.000Z</time>
      </trkpt>
      <trkpt lat="48.48722" lon="-2.57732">
        <ele>71.4</ele>
        <time>2013-05-26T07:49:37.000Z</time>
      </trkpt>
      <trkpt lat="48.48724" lon="-2.57724">
        <ele>68.7</ele>
        <time>2013-05-26T07:49:38.000Z</time>
      </trkpt>
      <trkpt lat="48.48726" lon="-2.57716">
        <ele>65.7</ele>
        <time>2013-05-26T07:49:39.000Z</time>
      </trkpt>
      <trkpt lat="48.48729" lon="-2.5771">
        <ele>64.2</ele>
        <time>2013-05-26T07:49:40.000Z</time>
      </trkpt>
      <trkpt lat="48.48733" lon="-2.57711">
        <ele>65</ele>
        <time>2013-05-26T07:49:41.000Z</time>
      </trkpt>
      <trkpt lat="48.48736" lon="-2.5771">
        <ele>66.9</ele>
        <time>2013-05-26T07:49:42.000Z</time>
      </trkpt>
      <trkpt lat="48.4874" lon="-2.57711">
        <ele>68.1</ele>
        <time>2013-05-26T07:49:43.000Z</time>
      </trkpt>
      <trkpt lat="48.48744" lon="-2.57712">
        <ele>67.4</ele>
        <time>2013-05-26T07:49:44.000Z</time>
      </trkpt>
      <trkpt lat="48.48747" lon="-2.57713">
        <ele>68.6</ele>
        <time>2013-05-26T07:49:45.000Z</time>
      </trkpt>
      <trkpt lat="48.48751" lon="-2.57712">
        <ele>68.2</ele>
        <time>2013-05-26T07:49:46.000Z</time>
      </trkpt>
      <trkpt lat="48.48754" lon="-2.57713">
        <ele>69.7</ele>
        <time>2013-05-26T07:49:47.000Z</time>
      </trkpt>
      <trkpt lat="48.48757" lon="-2.57712">
        <ele>71.4</ele>
        <time>2013-05-26T07:49:48.000Z</time>
      </trkpt>
      <trkpt lat="48.48761" lon="-2.57711">
        <ele>73.4</ele>
        <time>2013-05-26T07:49:49.000Z</time>
      </trkpt>
      <trkpt lat="48.48765" lon="-2.57709">
        <ele>73.1</ele>
        <time>2013-05-26T07:49:50.000Z</time>
      </trkpt>
      <trkpt lat="48.48768" lon="-2.57708">
        <ele>74.1</ele>
        <time>2013-05-26T07:49:51.000Z</time>
      </trkpt>
      <trkpt lat="48.48772" lon="-2.57706">
        <ele>74.6</ele>
        <time>2013-05-26T07:49:52.000Z</time>
      </trkpt>
      <trkpt lat="48.48775" lon="-2.57705">
        <ele>76.1</ele>
        <time>2013-05-26T07:49:53.000Z</time>
      </trkpt>
      <trkpt lat="48.48778" lon="-2.57704">
        <ele>77.6</ele>
        <time>2013-05-26T07:49:54.000Z</time>
      </trkpt>
      <trkpt lat="48.48782" lon="-2.57701">
        <ele>79.1</ele>
        <time>2013-05-26T07:49:55.000Z</time>
      </trkpt>
      <trkpt lat="48.48786" lon="-2.57699">
        <ele>80.2</ele>
        <time>2013-05-26T07:49:56.000Z</time>
      </trkpt>
      <trkpt lat="48.48789" lon="-2.57695">
        <ele>82.2</ele>
        <time>2013-05-26T07:49:57.000Z</time>
      </trkpt>
      <trkpt lat="48.48791" lon="-2.57692">
        <ele>82.7</ele>
        <time>2013-05-26T07:49:58.000Z</time>
      </trkpt>
      <trkpt lat="48.48795" lon="-2.57689">
        <ele>82.8</ele>
        <time>2013-05-26T07:49:59.000Z</time>
      </trkpt>
      <trkpt lat="48.48797" lon="-2.57686">
        <ele>83.4</ele>
        <time>2013-05-26T07:50:00.000Z</time>
      </trkpt>
      <trkpt lat="48.48799" lon="-2.57684">
        <ele>83.8</ele>
        <time>2013-05-26T07:50:01.000Z</time>
      </trkpt>
      <trkpt lat="48.48802" lon="-2.57683">
        <ele>85.2</ele>
        <time>2013-05-26T07:50:02.000Z</time>
      </trkpt>
      <trkpt lat="48.48804" lon="-2.57682">
        <ele>86.9</ele>
        <time>2013-05-26T07:50:03.000Z</time>
      </trkpt>
      <trkpt lat="48.48807" lon="-2.5768">
        <ele>87.9</ele>
        <time>2013-05-26T07:50:04.000Z</time>
      </trkpt>
      <trkpt lat="48.48809" lon="-2.57679">
        <ele>89.2</ele>
        <time>2013-05-26T07:50:05.000Z</time>
      </trkpt>
      <trkpt lat="48.48811" lon="-2.57677">
        <ele>89.8</ele>
        <time>2013-05-26T07:50:06.000Z</time>
      </trkpt>
      <trkpt lat="48.48813" lon="-2.57675">
        <ele>91</ele>
        <time>2013-05-26T07:50:07.000Z</time>
      </trkpt>
      <trkpt lat="48.48815" lon="-2.57672">
        <ele>91.6</ele>
        <time>2013-05-26T07:50:08.000Z</time>
      </trkpt>
      <trkpt lat="48.48818" lon="-2.57668">
        <ele>93.5</ele>
        <time>2013-05-26T07:50:10.000Z</time>
      </trkpt>
      <trkpt lat="48.4882" lon="-2.57666">
        <ele>93.6</ele>
        <time>2013-05-26T07:50:11.000Z</time>
      </trkpt>
      <trkpt lat="48.48823" lon="-2.57665">
        <ele>94.5</ele>
        <time>2013-05-26T07:50:13.000Z</time>
      </trkpt>
      <trkpt lat="48.48826" lon="-2.57665">
        <ele>94.9</ele>
        <time>2013-05-26T07:50:14.000Z</time>
      </trkpt>
      <trkpt lat="48.48829" lon="-2.57666">
        <ele>95.5</ele>
        <time>2013-05-26T07:50:15.000Z</time>
      </trkpt>
      <trkpt lat="48.48832" lon="-2.57666">
        <ele>96.1</ele>
        <time>2013-05-26T07:50:16.000Z</time>
      </trkpt>
      <trkpt lat="48.48834" lon="-2.57667">
        <ele>96.6</ele>
        <time>2013-05-26T07:50:17.000Z</time>
      </trkpt>
      <trkpt lat="48.48844" lon="-2.57665">
        <ele>98.8</ele>
        <time>2013-05-26T07:50:20.000Z</time>
      </trkpt>
      <trkpt lat="48.48846" lon="-2.5767">
        <ele>106.8</ele>
        <time>2013-05-26T07:50:23.000Z</time>
      </trkpt>
      <trkpt lat="48.48848" lon="-2.5767">
        <ele>108.1</ele>
        <time>2013-05-26T07:50:24.000Z</time>
      </trkpt>
      <trkpt lat="48.48849" lon="-2.57671">
        <ele>104.3</ele>
        <time>2013-05-26T07:50:26.000Z</time>
      </trkpt>
      <trkpt lat="48.48853" lon="-2.57672">
        <ele>103.8</ele>
        <time>2013-05-26T07:50:27.000Z</time>
      </trkpt>
      <trkpt lat="48.48855" lon="-2.57672">
        <ele>104.4</ele>
        <time>2013-05-26T07:50:28.000Z</time>
      </trkpt>
      <trkpt lat="48.48858" lon="-2.57672">
        <ele>102.7</ele>
        <time>2013-05-26T07:50:29.000Z</time>
      </trkpt>
      <trkpt lat="48.48862" lon="-2.57672">
        <ele>101.9</ele>
        <time>2013-05-26T07:50:31.000Z</time>
      </trkpt>
      <trkpt lat="48.48865" lon="-2.57671">
        <ele>102.8</ele>
        <time>2013-05-26T07:50:32.000Z</time>
      </trkpt>
      <trkpt lat="48.48869" lon="-2.5767">
        <ele>103</ele>
        <time>2013-05-26T07:50:36.000Z</time>
      </trkpt>
      <trkpt lat="48.4887" lon="-2.57669">
        <ele>104.2</ele>
        <time>2013-05-26T07:50:37.000Z</time>
      </trkpt>
      <trkpt lat="48.4887" lon="-2.57668">
        <ele>105.1</ele>
        <time>2013-05-26T07:50:57.000Z</time>
      </trkpt>
      <trkpt lat="48.48878" lon="-2.57673">
        <ele>108.9</ele>
        <time>2013-05-26T07:50:58.000Z</time>
      </trkpt>
      <trkpt lat="48.48882" lon="-2.57672">
        <ele>104.6</ele>
        <time>2013-05-26T07:51:15.000Z</time>
      </trkpt>
      <trkpt lat="48.48884" lon="-2.57672">
        <ele>104.5</ele>
        <time>2013-05-26T07:51:16.000Z</time>
      </trkpt>
      <trkpt lat="48.48887" lon="-2.57673">
        <ele>104.7</ele>
        <time>2013-05-26T07:51:18.000Z</time>
      </trkpt>
      <trkpt lat="48.4889" lon="-2.57672">
        <ele>105</ele>
        <time>2013-05-26T07:51:19.000Z</time>
      </trkpt>
      <trkpt lat="48.48892" lon="-2.5767">
        <ele>105.5</ele>
        <time>2013-05-26T07:51:20.000Z</time>
      </trkpt>
      <trkpt lat="48.48895" lon="-2.57669">
        <ele>105.5</ele>
        <time>2013-05-26T07:51:21.000Z</time>
      </trkpt>
      <trkpt lat="48.48897" lon="-2.57668">
        <ele>105.2</ele>
        <time>2013-05-26T07:51:22.000Z</time>
      </trkpt>
      <trkpt lat="48.48899" lon="-2.57666">
        <ele>105.2</ele>
        <time>2013-05-26T07:51:23.000Z</time>
      </trkpt>
      <trkpt lat="48.489" lon="-2.57662">
        <ele>105</ele>
        <time>2013-05-26T07:51:26.000Z</time>
      </trkpt>
      <trkpt lat="48.48901" lon="-2.5766">
        <ele>104.2</ele>
        <time>2013-05-26T07:51:27.000Z</time>
      </trkpt>
      <trkpt lat="48.48905" lon="-2.57658">
        <ele>102.2</ele>
        <time>2013-05-26T07:51:31.000Z</time>
      </trkpt>
      <trkpt lat="48.48905" lon="-2.57656">
        <ele>102</ele>
        <time>2013-05-26T07:51:32.000Z</time>
      </trkpt>
      <trkpt lat="48.48909" lon="-2.57655">
        <ele>101.6</ele>
        <time>2013-05-26T07:51:35.000Z</time>
      </trkpt>
      <trkpt lat="48.48911" lon="-2.57654">
        <ele>101.7</ele>
        <time>2013-05-26T07:51:36.000Z</time>
      </trkpt>
      <trkpt lat="48.48914" lon="-2.57652">
        <ele>102</ele>
        <time>2013-05-26T07:51:38.000Z</time>
      </trkpt>
      <trkpt lat="48.48916" lon="-2.5765">
        <ele>101.9</ele>
        <time>2013-05-26T07:51:39.000Z</time>
      </trkpt>
      <trkpt lat="48.48919" lon="-2.5765">
        <ele>101.8</ele>
        <time>2013-05-26T07:51:40.000Z</time>
      </trkpt>
      <trkpt lat="48.48923" lon="-2.57648">
        <ele>102</ele>
        <time>2013-05-26T07:51:41.000Z</time>
      </trkpt>
      <trkpt lat="48.48925" lon="-2.57647">
        <ele>102.2</ele>
        <time>2013-05-26T07:51:42.000Z</time>
      </trkpt>
      <trkpt lat="48.48927" lon="-2.57645">
        <ele>102.4</ele>
        <time>2013-05-26T07:51:43.000Z</time>
      </trkpt>
      <trkpt lat="48.48926" lon="-2.57639">
        <ele>103.4</ele>
        <time>2013-05-26T07:51:50.000Z</time>
      </trkpt>
      <trkpt lat="48.48925" lon="-2.57638">
        <ele>103.8</ele>
        <time>2013-05-26T07:51:51.000Z</time>
      </trkpt>
      <trkpt lat="48.48921" lon="-2.57636">
        <ele>105.1</ele>
        <time>2013-05-26T07:51:57.000Z</time>
      </trkpt>
      <trkpt lat="48.4892" lon="-2.57636">
        <ele>105.2</ele>
        <time>2013-05-26T07:51:58.000Z</time>
      </trkpt>
      <trkpt lat="48.48917" lon="-2.57634">
        <ele>106.3</ele>
        <time>2013-05-26T07:52:01.000Z</time>
      </trkpt>
      <trkpt lat="48.48916" lon="-2.57632">
        <ele>107.2</ele>
        <time>2013-05-26T07:52:02.000Z</time>
      </trkpt>
      <trkpt lat="48.48917" lon="-2.57638">
        <ele>107.6</ele>
        <time>2013-05-26T07:52:07.000Z</time>
      </trkpt>
      <trkpt lat="48.48919" lon="-2.5764">
        <ele>107.5</ele>
        <time>2013-05-26T07:52:08.000Z</time>
      </trkpt>
      <trkpt lat="48.48921" lon="-2.57644">
        <ele>107.5</ele>
        <time>2013-05-26T07:52:10.000Z</time>
      </trkpt>
      <trkpt lat="48.48923" lon="-2.57646">
        <ele>107.6</ele>
        <time>2013-05-26T07:52:11.000Z</time>
      </trkpt>
      <trkpt lat="48.48924" lon="-2.5765">
        <ele>107.5</ele>
        <time>2013-05-26T07:52:13.000Z</time>
      </trkpt>
      <trkpt lat="48.48926" lon="-2.57652">
        <ele>107.4</ele>
        <time>2013-05-26T07:52:14.000Z</time>
      </trkpt>
      <trkpt lat="48.48928" lon="-2.57657">
        <ele>107.6</ele>
        <time>2013-05-26T07:52:17.000Z</time>
      </trkpt>
      <trkpt lat="48.48933" lon="-2.57663">
        <ele>110.1</ele>
        <time>2013-05-26T07:52:20.000Z</time>
      </trkpt>
      <trkpt lat="48.4894" lon="-2.57669">
        <ele>118.1</ele>
        <time>2013-05-26T07:52:21.000Z</time>
      </trkpt>
      <trkpt lat="48.48945" lon="-2.57672">
        <ele>117.2</ele>
        <time>2013-05-26T07:52:22.000Z</time>
      </trkpt>
      <trkpt lat="48.48949" lon="-2.57672">
        <ele>110</ele>
        <time>2013-05-26T07:52:28.000Z</time>
      </trkpt>
      <trkpt lat="48.4895" lon="-2.57674">
        <ele>109.7</ele>
        <time>2013-05-26T07:52:29.000Z</time>
      </trkpt>
      <trkpt lat="48.48954" lon="-2.57675">
        <ele>111.9</ele>
        <time>2013-05-26T07:52:34.000Z</time>
      </trkpt>
      <trkpt lat="48.48955" lon="-2.57676">
        <ele>112.5</ele>
        <time>2013-05-26T07:52:35.000Z</time>
      </trkpt>
      <trkpt lat="48.48958" lon="-2.57678">
        <ele>113</ele>
        <time>2013-05-26T07:52:48.000Z</time>
      </trkpt>
      <trkpt lat="48.48961" lon="-2.57678">
        <ele>111.8</ele>
        <time>2013-05-26T07:52:49.000Z</time>
      </trkpt>
      <trkpt lat="48.48963" lon="-2.57677">
        <ele>113</ele>
        <time>2013-05-26T07:53:17.000Z</time>
      </trkpt>
      <trkpt lat="48.48967" lon="-2.57679">
        <ele>116.4</ele>
        <time>2013-05-26T07:53:20.000Z</time>
      </trkpt>
      <trkpt lat="48.48967" lon="-2.57673">
        <ele>114.5</ele>
        <time>2013-05-26T07:53:29.000Z</time>
      </trkpt>
      <trkpt lat="48.48968" lon="-2.5767">
        <ele>111</ele>
        <time>2013-05-26T07:53:30.000Z</time>
      </trkpt>
      <trkpt lat="48.48968" lon="-2.57666">
        <ele>106.2</ele>
        <time>2013-05-26T07:53:31.000Z</time>
      </trkpt>
      <trkpt lat="48.4897" lon="-2.57664">
        <ele>101.4</ele>
        <time>2013-05-26T07:53:32.000Z</time>
      </trkpt>
      <trkpt lat="48.48974" lon="-2.57663">
        <ele>88.5</ele>
        <time>2013-05-26T07:53:41.000Z</time>
      </trkpt>
      <trkpt lat="48.48974" lon="-2.57663">
        <ele>87.6</ele>
        <time>2013-05-26T07:53:42.000Z</time>
      </trkpt>
      <trkpt lat="48.48974" lon="-2.57669">
        <ele>104.6</ele>
        <time>2013-05-26T07:54:03.000Z</time>
      </trkpt>
      <trkpt lat="48.48973" lon="-2.57671">
        <ele>105.5</ele>
        <time>2013-05-26T07:54:04.000Z</time>
      </trkpt>
      <trkpt lat="48.48975" lon="-2.57677">
        <ele>109.4</ele>
        <time>2013-05-26T07:54:10.000Z</time>
      </trkpt>
      <trkpt lat="48.48975" lon="-2.57678">
        <ele>109.3</ele>
        <time>2013-05-26T07:54:11.000Z</time>
      </trkpt>
      <trkpt lat="48.48977" lon="-2.57678">
        <ele>111.5</ele>
        <time>2013-05-26T07:54:17.000Z</time>
      </trkpt>
      <trkpt lat="48.48986" lon="-2.57677">
        <ele>138.8</ele>
        <time>2013-05-26T07:54:32.000Z</time>
      </trkpt>
      <trkpt lat="48.48987" lon="-2.57673">
        <ele>131.7</ele>
        <time>2013-05-26T07:54:34.000Z</time>
      </trkpt>
      <trkpt lat="48.48993" lon="-2.57673">
        <ele>125.7</ele>
        <time>2013-05-26T07:54:36.000Z</time>
      </trkpt>
      <trkpt lat="48.48996" lon="-2.57676">
        <ele>129.4</ele>
        <time>2013-05-26T07:54:42.000Z</time>
      </trkpt>
      <trkpt lat="48.48998" lon="-2.57675">
        <ele>129.1</ele>
        <time>2013-05-26T07:54:43.000Z</time>
      </trkpt>
      <trkpt lat="48.49001" lon="-2.57677">
        <ele>131.2</ele>
        <time>2013-05-26T07:54:47.000Z</time>
      </trkpt>
      <trkpt lat="48.49002" lon="-2.57678">
        <ele>131.4</ele>
        <time>2013-05-26T07:54:48.000Z</time>
      </trkpt>
      <trkpt lat="48.49005" lon="-2.57677">
        <ele>118.2</ele>
        <time>2013-05-26T07:55:28.000Z</time>
      </trkpt>
      <trkpt lat="48.49008" lon="-2.57674">
        <ele>121.5</ele>
        <time>2013-05-26T07:55:29.000Z</time>
      </trkpt>
      <trkpt lat="48.49012" lon="-2.5767">
        <ele>119.9</ele>
        <time>2013-05-26T07:55:31.000Z</time>
      </trkpt>
      <trkpt lat="48.49014" lon="-2.57666">
        <ele>119</ele>
        <time>2013-05-26T07:55:32.000Z</time>
      </trkpt>
      <trkpt lat="48.49015" lon="-2.57662">
        <ele>119</ele>
        <time>2013-05-26T07:55:33.000Z</time>
      </trkpt>
      <trkpt lat="48.49017" lon="-2.57658">
        <ele>119</ele>
        <time>2013-05-26T07:55:34.000Z</time>
      </trkpt>
      <trkpt lat="48.49018" lon="-2.57653">
        <ele>117.4</ele>
        <time>2013-05-26T07:55:35.000Z</time>
      </trkpt>
      <trkpt lat="48.49021" lon="-2.57647">
        <ele>116.2</ele>
        <time>2013-05-26T07:55:36.000Z</time>
      </trkpt>
      <trkpt lat="48.49024" lon="-2.5764">
        <ele>116.4</ele>
        <time>2013-05-26T07:55:37.000Z</time>
      </trkpt>
      <trkpt lat="48.49027" lon="-2.57632">
        <ele>116.8</ele>
        <time>2013-05-26T07:55:38.000Z</time>
      </trkpt>
      <trkpt lat="48.4903" lon="-2.57623">
        <ele>117.4</ele>
        <time>2013-05-26T07:55:39.000Z</time>
      </trkpt>
      <trkpt lat="48.49032" lon="-2.57613">
        <ele>117.2</ele>
        <time>2013-05-26T07:55:40.000Z</time>
      </trkpt>
      <trkpt lat="48.49035" lon="-2.57603">
        <ele>116.7</ele>
        <time>2013-05-26T07:55:41.000Z</time>
      </trkpt>
      <trkpt lat="48.49037" lon="-2.57593">
        <ele>115.3</ele>
        <time>2013-05-26T07:55:42.000Z</time>
      </trkpt>
      <trkpt lat="48.49041" lon="-2.57583">
        <ele>113.7</ele>
        <time>2013-05-26T07:55:43.000Z</time>
      </trkpt>
      <trkpt lat="48.49045" lon="-2.57572">
        <ele>112.5</ele>
        <time>2013-05-26T07:55:44.000Z</time>
      </trkpt>
      <trkpt lat="48.49047" lon="-2.57561">
        <ele>111.7</ele>
        <time>2013-05-26T07:55:45.000Z</time>
      </trkpt>
      <trkpt lat="48.49048" lon="-2.57551">
        <ele>111.9</ele>
        <time>2013-05-26T07:55:46.000Z</time>
      </trkpt>
      <trkpt lat="48.49049" lon="-2.57542">
        <ele>110.1</ele>
        <time>2013-05-26T07:55:47.000Z</time>
      </trkpt>
      <trkpt lat="48.4905" lon="-2.57534">
        <ele>108.7</ele>
        <time>2013-05-26T07:55:48.000Z</time>
      </trkpt>
      <trkpt lat="48.49052" lon="-2.57526">
        <ele>107</ele>
        <time>2013-05-26T07:55:49.000Z</time>
      </trkpt>
      <trkpt lat="48.49054" lon="-2.57518">
        <ele>106.1</ele>
        <time>2013-05-26T07:55:50.000Z</time>
      </trkpt>
      <trkpt lat="48.49056" lon="-2.5751">
        <ele>106.7</ele>
        <time>2013-05-26T07:55:51.000Z</time>
      </trkpt>
      <trkpt lat="48.49058" lon="-2.57503">
        <ele>106.5</ele>
        <time>2013-05-26T07:55:52.000Z</time>
      </trkpt>
      <trkpt lat="48.49061" lon="-2.57496">
        <ele>106.1</ele>
        <time>2013-05-26T07:55:53.000Z</time>
      </trkpt>
      <trkpt lat="48.49064" lon="-2.57489">
        <ele>106</ele>
        <time>2013-05-26T07:55:54.000Z</time>
      </trkpt>
      <trkpt lat="48.49067" lon="-2.57483">
        <ele>105.9</ele>
        <time>2013-05-26T07:55:55.000Z</time>
      </trkpt>
      <trkpt lat="48.4907" lon="-2.57479">
        <ele>106</ele>
        <time>2013-05-26T07:55:56.000Z</time>
      </trkpt>
      <trkpt lat="48.49072" lon="-2.57476">
        <ele>106.3</ele>
        <time>2013-05-26T07:55:57.000Z</time>
      </trkpt>
      <trkpt lat="48.49074" lon="-2.57473">
        <ele>106.7</ele>
        <time>2013-05-26T07:55:58.000Z</time>
      </trkpt>
      <trkpt lat="48.49076" lon="-2.57469">
        <ele>106.8</ele>
        <time>2013-05-26T07:55:59.000Z</time>
      </trkpt>
      <trkpt lat="48.49079" lon="-2.57466">
        <ele>106.6</ele>
        <time>2013-05-26T07:56:00.000Z</time>
      </trkpt>
      <trkpt lat="48.49081" lon="-2.57464">
        <ele>106.5</ele>
        <time>2013-05-26T07:56:01.000Z</time>
      </trkpt>
      <trkpt lat="48.49082" lon="-2.57462">
        <ele>106.5</ele>
        <time>2013-05-26T07:56:02.000Z</time>
      </trkpt>
      <trkpt lat="48.49084" lon="-2.5746">
        <ele>106.4</ele>
        <time>2013-05-26T07:56:03.000Z</time>
      </trkpt>
      <trkpt lat="48.49088" lon="-2.57457">
        <ele>107</ele>
        <time>2013-05-26T07:56:05.000Z</time>
      </trkpt>
      <trkpt lat="48.49089" lon="-2.57456">
        <ele>107.1</ele>
        <time>2013-05-26T07:56:06.000Z</time>
      </trkpt>
      <trkpt lat="48.49092" lon="-2.57451">
        <ele>107.8</ele>
        <time>2013-05-26T07:56:18.000Z</time>
      </trkpt>
      <trkpt lat="48.49093" lon="-2.5745">
        <ele>107.8</ele>
        <time>2013-05-26T07:56:19.000Z</time>
      </trkpt>
      <trkpt lat="48.49093" lon="-2.57443">
        <ele>107.5</ele>
        <time>2013-05-26T07:56:22.000Z</time>
      </trkpt>
      <trkpt lat="48.49093" lon="-2.57441">
        <ele>107.3</ele>
        <time>2013-05-26T07:56:23.000Z</time>
      </trkpt>
      <trkpt lat="48.49092" lon="-2.57437">
        <ele>107.4</ele>
        <time>2013-05-26T07:56:24.000Z</time>
      </trkpt>
      <trkpt lat="48.49092" lon="-2.57433">
        <ele>107.2</ele>
        <time>2013-05-26T07:56:25.000Z</time>
      </trkpt>
      <trkpt lat="48.49091" lon="-2.57428">
        <ele>107</ele>
        <time>2013-05-26T07:56:26.000Z</time>
      </trkpt>
      <trkpt lat="48.4909" lon="-2.57424">
        <ele>106.8</ele>
        <time>2013-05-26T07:56:27.000Z</time>
      </trkpt>
      <trkpt lat="48.49088" lon="-2.57421">
        <ele>107</ele>
        <time>2013-05-26T07:56:28.000Z</time>
      </trkpt>
      <trkpt lat="48.49087" lon="-2.57419">
        <ele>106.8</ele>
        <time>2013-05-26T07:56:29.000Z</time>
      </trkpt>
      <trkpt lat="48.49085" lon="-2.57416">
        <ele>106.6</ele>
        <time>2013-05-26T07:56:30.000Z</time>
      </trkpt>
      <trkpt lat="48.49083" lon="-2.57412">
        <ele>106.5</ele>
        <time>2013-05-26T07:56:31.000Z</time>
      </trkpt>
      <trkpt lat="48.49081" lon="-2.57408">
        <ele>106.2</ele>
        <time>2013-05-26T07:56:32.000Z</time>
      </trkpt>
      <trkpt lat="48.4908" lon="-2.57406">
        <ele>105.8</ele>
        <time>2013-05-26T07:56:33.000Z</time>
      </trkpt>
      <trkpt lat="48.4908" lon="-2.57401">
        <ele>105.1</ele>
        <time>2013-05-26T07:56:36.000Z</time>
      </trkpt>
      <trkpt lat="48.49081" lon="-2.57397">
        <ele>105.2</ele>
        <time>2013-05-26T07:56:37.000Z</time>
      </trkpt>
      <trkpt lat="48.49082" lon="-2.57393">
        <ele>105.3</ele>
        <time>2013-05-26T07:56:38.000Z</time>
      </trkpt>
      <trkpt lat="48.49084" lon="-2.5739">
        <ele>105.4</ele>
        <time>2013-05-26T07:56:39.000Z</time>
      </trkpt>
      <trkpt lat="48.49086" lon="-2.57386">
        <ele>105.5</ele>
        <time>2013-05-26T07:56:40.000Z</time>
      </trkpt>
      <trkpt lat="48.49087" lon="-2.57381">
        <ele>105.5</ele>
        <time>2013-05-26T07:56:41.000Z</time>
      </trkpt>
      <trkpt lat="48.49088" lon="-2.57377">
        <ele>105.4</ele>
        <time>2013-05-26T07:56:42.000Z</time>
      </trkpt>
      <trkpt lat="48.49089" lon="-2.57373">
        <ele>105.4</ele>
        <time>2013-05-26T07:56:43.000Z</time>
      </trkpt>
      <trkpt lat="48.4909" lon="-2.57369">
        <ele>105.5</ele>
        <time>2013-05-26T07:56:44.000Z</time>
      </trkpt>
      <trkpt lat="48.49092" lon="-2.57365">
        <ele>105.6</ele>
        <time>2013-05-26T07:56:45.000Z</time>
      </trkpt>
      <trkpt lat="48.49094" lon="-2.57362">
        <ele>105.7</ele>
        <time>2013-05-26T07:56:46.000Z</time>
      </trkpt>
      <trkpt lat="48.49095" lon="-2.57358">
        <ele>105.7</ele>
        <time>2013-05-26T07:56:47.000Z</time>
      </trkpt>
      <trkpt lat="48.49097" lon="-2.57355">
        <ele>105.8</ele>
        <time>2013-05-26T07:56:48.000Z</time>
      </trkpt>
      <trkpt lat="48.491" lon="-2.57352">
        <ele>105.9</ele>
        <time>2013-05-26T07:56:49.000Z</time>
      </trkpt>
      <trkpt lat="48.49102" lon="-2.57348">
        <ele>106</ele>
        <time>2013-05-26T07:56:50.000Z</time>
      </trkpt>
      <trkpt lat="48.49104" lon="-2.57345">
        <ele>106</ele>
        <time>2013-05-26T07:56:51.000Z</time>
      </trkpt>
      <trkpt lat="48.49107" lon="-2.57342">
        <ele>106</ele>
        <time>2013-05-26T07:56:52.000Z</time>
      </trkpt>
      <trkpt lat="48.4911" lon="-2.5734">
        <ele>106.1</ele>
        <time>2013-05-26T07:56:53.000Z</time>
      </trkpt>
      <trkpt lat="48.49113" lon="-2.57338">
        <ele>106.1</ele>
        <time>2013-05-26T07:56:54.000Z</time>
      </trkpt>
      <trkpt lat="48.49116" lon="-2.57337">
        <ele>106</ele>
        <time>2013-05-26T07:56:55.000Z</time>
      </trkpt>
      <trkpt lat="48.49119" lon="-2.57335">
        <ele>106</ele>
        <time>2013-05-26T07:56:56.000Z</time>
      </trkpt>
      <trkpt lat="48.49122" lon="-2.57334">
        <ele>105.8</ele>
        <time>2013-05-26T07:56:57.000Z</time>
      </trkpt>
      <trkpt lat="48.49125" lon="-2.57333">
        <ele>105.7</ele>
        <time>2013-05-26T07:56:58.000Z</time>
      </trkpt>
      <trkpt lat="48.49128" lon="-2.57333">
        <ele>105.8</ele>
        <time>2013-05-26T07:56:59.000Z</time>
      </trkpt>
      <trkpt lat="48.4913" lon="-2.57333">
        <ele>105.7</ele>
        <time>2013-05-26T07:57:00.000Z</time>
      </trkpt>
      <trkpt lat="48.49133" lon="-2.57332">
        <ele>105.5</ele>
        <time>2013-05-26T07:57:01.000Z</time>
      </trkpt>
      <trkpt lat="48.49136" lon="-2.57331">
        <ele>105.5</ele>
        <time>2013-05-26T07:57:02.000Z</time>
      </trkpt>
      <trkpt lat="48.49138" lon="-2.5733">
        <ele>105.5</ele>
        <time>2013-05-26T07:57:03.000Z</time>
      </trkpt>
      <trkpt lat="48.4914" lon="-2.57329">
        <ele>105.4</ele>
        <time>2013-05-26T07:57:04.000Z</time>
      </trkpt>
      <trkpt lat="48.49143" lon="-2.57328">
        <ele>105.2</ele>
        <time>2013-05-26T07:57:05.000Z</time>
      </trkpt>
      <trkpt lat="48.49145" lon="-2.57327">
        <ele>105.2</ele>
        <time>2013-05-26T07:57:06.000Z</time>
      </trkpt>
      <trkpt lat="48.49148" lon="-2.57326">
        <ele>105.1</ele>
        <time>2013-05-26T07:57:07.000Z</time>
      </trkpt>
      <trkpt lat="48.49151" lon="-2.57324">
        <ele>105</ele>
        <time>2013-05-26T07:57:08.000Z</time>
      </trkpt>
      <trkpt lat="48.49155" lon="-2.57322">
        <ele>105</ele>
        <time>2013-05-26T07:57:09.000Z</time>
      </trkpt>
      <trkpt lat="48.49158" lon="-2.5732">
        <ele>105</ele>
        <time>2013-05-26T07:57:10.000Z</time>
      </trkpt>
      <trkpt lat="48.49162" lon="-2.57318">
        <ele>105</ele>
        <time>2013-05-26T07:57:11.000Z</time>
      </trkpt>
      <trkpt lat="48.49167" lon="-2.57316">
        <ele>105</ele>
        <time>2013-05-26T07:57:12.000Z</time>
      </trkpt>
      <trkpt lat="48.49171" lon="-2.57314">
        <ele>104.9</ele>
        <time>2013-05-26T07:57:13.000Z</time>
      </trkpt>
      <trkpt lat="48.49176" lon="-2.57311">
        <ele>104.7</ele>
        <time>2013-05-26T07:57:14.000Z</time>
      </trkpt>
      <trkpt lat="48.4918" lon="-2.57308">
        <ele>104.6</ele>
        <time>2013-05-26T07:57:15.000Z</time>
      </trkpt>
      <trkpt lat="48.49184" lon="-2.57306">
        <ele>104.4</ele>
        <time>2013-05-26T07:57:16.000Z</time>
      </trkpt>
      <trkpt lat="48.49188" lon="-2.57305">
        <ele>104.2</ele>
        <time>2013-05-26T07:57:17.000Z</time>
      </trkpt>
      <trkpt lat="48.49209" lon="-2.57294">
        <ele>94.2</ele>
        <time>2013-05-26T07:57:22.000Z</time>
      </trkpt>
      <trkpt lat="48.49215" lon="-2.5729">
        <ele>85.5</ele>
        <time>2013-05-26T07:57:23.000Z</time>
      </trkpt>
      <trkpt lat="48.4922" lon="-2.57288">
        <ele>81.2</ele>
        <time>2013-05-26T07:57:24.000Z</time>
      </trkpt>
      <trkpt lat="48.49224" lon="-2.57288">
        <ele>78.5</ele>
        <time>2013-05-26T07:57:25.000Z</time>
      </trkpt>
      <trkpt lat="48.49227" lon="-2.57288">
        <ele>80.1</ele>
        <time>2013-05-26T07:57:26.000Z</time>
      </trkpt>
      <trkpt lat="48.4923" lon="-2.57288">
        <ele>81.4</ele>
        <time>2013-05-26T07:57:27.000Z</time>
      </trkpt>
      <trkpt lat="48.49234" lon="-2.57288">
        <ele>83.1</ele>
        <time>2013-05-26T07:57:28.000Z</time>
      </trkpt>
      <trkpt lat="48.49237" lon="-2.57287">
        <ele>83.3</ele>
        <time>2013-05-26T07:57:29.000Z</time>
      </trkpt>
      <trkpt lat="48.49241" lon="-2.57286">
        <ele>82.8</ele>
        <time>2013-05-26T07:57:30.000Z</time>
      </trkpt>
      <trkpt lat="48.49244" lon="-2.57285">
        <ele>83.2</ele>
        <time>2013-05-26T07:57:31.000Z</time>
      </trkpt>
      <trkpt lat="48.49247" lon="-2.57286">
        <ele>84.9</ele>
        <time>2013-05-26T07:57:32.000Z</time>
      </trkpt>
      <trkpt lat="48.4925" lon="-2.57286">
        <ele>85.5</ele>
        <time>2013-05-26T07:57:33.000Z</time>
      </trkpt>
      <trkpt lat="48.49253" lon="-2.57286">
        <ele>86.6</ele>
        <time>2013-05-26T07:57:34.000Z</time>
      </trkpt>
      <trkpt lat="48.49256" lon="-2.57285">
        <ele>87</ele>
        <time>2013-05-26T07:57:35.000Z</time>
      </trkpt>
      <trkpt lat="48.49259" lon="-2.57285">
        <ele>87.9</ele>
        <time>2013-05-26T07:57:36.000Z</time>
      </trkpt>
      <trkpt lat="48.49263" lon="-2.57285">
        <ele>87.9</ele>
        <time>2013-05-26T07:57:37.000Z</time>
      </trkpt>
      <trkpt lat="48.49265" lon="-2.57284">
        <ele>88.4</ele>
        <time>2013-05-26T07:57:38.000Z</time>
      </trkpt>
      <trkpt lat="48.49269" lon="-2.57284">
        <ele>88.8</ele>
        <time>2013-05-26T07:57:39.000Z</time>
      </trkpt>
      <trkpt lat="48.49272" lon="-2.57284">
        <ele>89.8</ele>
        <time>2013-05-26T07:57:40.000Z</time>
      </trkpt>
      <trkpt lat="48.49275" lon="-2.57284">
        <ele>90</ele>
        <time>2013-05-26T07:57:41.000Z</time>
      </trkpt>
      <trkpt lat="48.49278" lon="-2.57284">
        <ele>90.6</ele>
        <time>2013-05-26T07:57:42.000Z</time>
      </trkpt>
      <trkpt lat="48.49281" lon="-2.57284">
        <ele>91.6</ele>
        <time>2013-05-26T07:57:43.000Z</time>
      </trkpt>
      <trkpt lat="48.49285" lon="-2.57284">
        <ele>92.5</ele>
        <time>2013-05-26T07:57:44.000Z</time>
      </trkpt>
      <trkpt lat="48.49288" lon="-2.57282">
        <ele>93.7</ele>
        <time>2013-05-26T07:57:45.000Z</time>
      </trkpt>
      <trkpt lat="48.49293" lon="-2.57283">
        <ele>93.3</ele>
        <time>2013-05-26T07:57:46.000Z</time>
      </trkpt>
      <trkpt lat="48.49296" lon="-2.57285">
        <ele>93.8</ele>
        <time>2013-05-26T07:57:47.000Z</time>
      </trkpt>
      <trkpt lat="48.49299" lon="-2.5729">
        <ele>94.4</ele>
        <time>2013-05-26T07:57:48.000Z</time>
      </trkpt>
      <trkpt lat="48.49298" lon="-2.57295">
        <ele>93.5</ele>
        <time>2013-05-26T07:57:49.000Z</time>
      </trkpt>
      <trkpt lat="48.49297" lon="-2.57301">
        <ele>94.4</ele>
        <time>2013-05-26T07:57:50.000Z</time>
      </trkpt>
      <trkpt lat="48.49295" lon="-2.57306">
        <ele>92.3</ele>
        <time>2013-05-26T07:57:52.000Z</time>
      </trkpt>
      <trkpt lat="48.49294" lon="-2.5731">
        <ele>92.3</ele>
        <time>2013-05-26T07:57:53.000Z</time>
      </trkpt>
      <trkpt lat="48.49292" lon="-2.57316">
        <ele>90.9</ele>
        <time>2013-05-26T07:57:55.000Z</time>
      </trkpt>
      <trkpt lat="48.49291" lon="-2.57319">
        <ele>90.9</ele>
        <time>2013-05-26T07:57:56.000Z</time>
      </trkpt>
      <trkpt lat="48.4929" lon="-2.57322">
        <ele>90.9</ele>
        <time>2013-05-26T07:57:57.000Z</time>
      </trkpt>
      <trkpt lat="48.49289" lon="-2.57326">
        <ele>91</ele>
        <time>2013-05-26T07:57:58.000Z</time>
      </trkpt>
      <trkpt lat="48.49287" lon="-2.57329">
        <ele>91.3</ele>
        <time>2013-05-26T07:57:59.000Z</time>
      </trkpt>
      <trkpt lat="48.49286" lon="-2.57332">
        <ele>90.8</ele>
        <time>2013-05-26T07:58:00.000Z</time>
      </trkpt>
      <trkpt lat="48.49285" lon="-2.57335">
        <ele>91.5</ele>
        <time>2013-05-26T07:58:01.000Z</time>
      </trkpt>
      <trkpt lat="48.49284" lon="-2.57338">
        <ele>91.3</ele>
        <time>2013-05-26T07:58:02.000Z</time>
      </trkpt>
      <trkpt lat="48.49283" lon="-2.57342">
        <ele>91.3</ele>
        <time>2013-05-26T07:58:03.000Z</time>
      </trkpt>
      <trkpt lat="48.49282" lon="-2.57345">
        <ele>91.2</ele>
        <time>2013-05-26T07:58:04.000Z</time>
      </trkpt>
      <trkpt lat="48.49281" lon="-2.57348">
        <ele>91.4</ele>
        <time>2013-05-26T07:58:05.000Z</time>
      </trkpt>
      <trkpt lat="48.4928" lon="-2.57351">
        <ele>91.3</ele>
        <time>2013-05-26T07:58:06.000Z</time>
      </trkpt>
      <trkpt lat="48.49279" lon="-2.57354">
        <ele>91.3</ele>
        <time>2013-05-26T07:58:07.000Z</time>
      </trkpt>
      <trkpt lat="48.49278" lon="-2.57357">
        <ele>91.1</ele>
        <time>2013-05-26T07:58:08.000Z</time>
      </trkpt>
      <trkpt lat="48.49277" lon="-2.5736">
        <ele>91.1</ele>
        <time>2013-05-26T07:58:09.000Z</time>
      </trkpt>
      <trkpt lat="48.49276" lon="-2.57363">
        <ele>90.9</ele>
        <time>2013-05-26T07:58:10.000Z</time>
      </trkpt>
      <trkpt lat="48.49275" lon="-2.57366">
        <ele>90.8</ele>
        <time>2013-05-26T07:58:11.000Z</time>
      </trkpt>
      <trkpt lat="48.49274" lon="-2.57369">
        <ele>90.7</ele>
        <time>2013-05-26T07:58:12.000Z</time>
      </trkpt>
      <trkpt lat="48.49273" lon="-2.57372">
        <ele>90.7</ele>
        <time>2013-05-26T07:58:13.000Z</time>
      </trkpt>
      <trkpt lat="48.49272" lon="-2.57375">
        <ele>90.7</ele>
        <time>2013-05-26T07:58:14.000Z</time>
      </trkpt>
      <trkpt lat="48.49271" lon="-2.57379">
        <ele>90.7</ele>
        <time>2013-05-26T07:58:15.000Z</time>
      </trkpt>
      <trkpt lat="48.4927" lon="-2.57382">
        <ele>90.8</ele>
        <time>2013-05-26T07:58:16.000Z</time>
      </trkpt>
      <trkpt lat="48.49269" lon="-2.57386">
        <ele>91.1</ele>
        <time>2013-05-26T07:58:17.000Z</time>
      </trkpt>
      <trkpt lat="48.49265" lon="-2.57405">
        <ele>95.1</ele>
        <time>2013-05-26T07:58:20.000Z</time>
      </trkpt>
      <trkpt lat="48.49263" lon="-2.57409">
        <ele>95.6</ele>
        <time>2013-05-26T07:58:22.000Z</time>
      </trkpt>
      <trkpt lat="48.49262" lon="-2.57411">
        <ele>96.8</ele>
        <time>2013-05-26T07:58:23.000Z</time>
      </trkpt>
      <trkpt lat="48.49261" lon="-2.57417">
        <ele>94.8</ele>
        <time>2013-05-26T07:58:25.000Z</time>
      </trkpt>
      <trkpt lat="48.4926" lon="-2.57419">
        <ele>95.3</ele>
        <time>2013-05-26T07:58:26.000Z</time>
      </trkpt>
      <trkpt lat="48.49258" lon="-2.57424">
        <ele>95.6</ele>
        <time>2013-05-26T07:58:28.000Z</time>
      </trkpt>
      <trkpt lat="48.49257" lon="-2.57428">
        <ele>95.5</ele>
        <time>2013-05-26T07:58:29.000Z</time>
      </trkpt>
      <trkpt lat="48.49256" lon="-2.57434">
        <ele>96</ele>
        <time>2013-05-26T07:58:31.000Z</time>
      </trkpt>
      <trkpt lat="48.49255" lon="-2.57437">
        <ele>96.2</ele>
        <time>2013-05-26T07:58:32.000Z</time>
      </trkpt>
      <trkpt lat="48.49254" lon="-2.5744">
        <ele>97.2</ele>
        <time>2013-05-26T07:58:33.000Z</time>
      </trkpt>
      <trkpt lat="48.49253" lon="-2.57443">
        <ele>97.2</ele>
        <time>2013-05-26T07:58:34.000Z</time>
      </trkpt>
      <trkpt lat="48.49251" lon="-2.57446">
        <ele>98</ele>
        <time>2013-05-26T07:58:35.000Z</time>
      </trkpt>
      <trkpt lat="48.4925" lon="-2.57449">
        <ele>98.1</ele>
        <time>2013-05-26T07:58:36.000Z</time>
      </trkpt>
      <trkpt lat="48.49249" lon="-2.57453">
        <ele>98</ele>
        <time>2013-05-26T07:58:37.000Z</time>
      </trkpt>
      <trkpt lat="48.49248" lon="-2.57456">
        <ele>98.5</ele>
        <time>2013-05-26T07:58:38.000Z</time>
      </trkpt>
      <trkpt lat="48.49247" lon="-2.57459">
        <ele>99</ele>
        <time>2013-05-26T07:58:39.000Z</time>
      </trkpt>
      <trkpt lat="48.49245" lon="-2.57462">
        <ele>99.6</ele>
        <time>2013-05-26T07:58:40.000Z</time>
      </trkpt>
      <trkpt lat="48.49244" lon="-2.57465">
        <ele>99.8</ele>
        <time>2013-05-26T07:58:41.000Z</time>
      </trkpt>
      <trkpt lat="48.49242" lon="-2.57468">
        <ele>99.6</ele>
        <time>2013-05-26T07:58:42.000Z</time>
      </trkpt>
      <trkpt lat="48.49241" lon="-2.57471">
        <ele>99.7</ele>
        <time>2013-05-26T07:58:43.000Z</time>
      </trkpt>
      <trkpt lat="48.49239" lon="-2.57474">
        <ele>99.9</ele>
        <time>2013-05-26T07:58:44.000Z</time>
      </trkpt>
      <trkpt lat="48.49238" lon="-2.57477">
        <ele>100.4</ele>
        <time>2013-05-26T07:58:45.000Z</time>
      </trkpt>
      <trkpt lat="48.49236" lon="-2.5748">
        <ele>100.4</ele>
        <time>2013-05-26T07:58:46.000Z</time>
      </trkpt>
      <trkpt lat="48.49233" lon="-2.57485">
        <ele>99.6</ele>
        <time>2013-05-26T07:58:48.000Z</time>
      </trkpt>
      <trkpt lat="48.49231" lon="-2.57487">
        <ele>99.8</ele>
        <time>2013-05-26T07:58:49.000Z</time>
      </trkpt>
      <trkpt lat="48.49229" lon="-2.5749">
        <ele>99.9</ele>
        <time>2013-05-26T07:58:50.000Z</time>
      </trkpt>
      <trkpt lat="48.49227" lon="-2.57493">
        <ele>100.2</ele>
        <time>2013-05-26T07:58:51.000Z</time>
      </trkpt>
      <trkpt lat="48.49225" lon="-2.57495">
        <ele>100.4</ele>
        <time>2013-05-26T07:58:52.000Z</time>
      </trkpt>
      <trkpt lat="48.49223" lon="-2.57498">
        <ele>100.4</ele>
        <time>2013-05-26T07:58:53.000Z</time>
      </trkpt>
      <trkpt lat="48.49221" lon="-2.575">
        <ele>100.6</ele>
        <time>2013-05-26T07:58:54.000Z</time>
      </trkpt>
      <trkpt lat="48.49219" lon="-2.57503">
        <ele>100.6</ele>
        <time>2013-05-26T07:58:55.000Z</time>
      </trkpt>
      <trkpt lat="48.49217" lon="-2.57505">
        <ele>100.6</ele>
        <time>2013-05-26T07:58:56.000Z</time>
      </trkpt>
      <trkpt lat="48.49215" lon="-2.57508">
        <ele>100.6</ele>
        <time>2013-05-26T07:58:57.000Z</time>
      </trkpt>
      <trkpt lat="48.49213" lon="-2.5751">
        <ele>100.8</ele>
        <time>2013-05-26T07:58:58.000Z</time>
      </trkpt>
      <trkpt lat="48.49211" lon="-2.57512">
        <ele>100.7</ele>
        <time>2013-05-26T07:58:59.000Z</time>
      </trkpt>
      <trkpt lat="48.49209" lon="-2.57515">
        <ele>100.7</ele>
        <time>2013-05-26T07:59:00.000Z</time>
      </trkpt>
      <trkpt lat="48.49208" lon="-2.57517">
        <ele>100.5</ele>
        <time>2013-05-26T07:59:01.000Z</time>
      </trkpt>
      <trkpt lat="48.49206" lon="-2.57519">
        <ele>100.5</ele>
        <time>2013-05-26T07:59:02.000Z</time>
      </trkpt>
      <trkpt lat="48.49204" lon="-2.57521">
        <ele>100.6</ele>
        <time>2013-05-26T07:59:03.000Z</time>
      </trkpt>
      <trkpt lat="48.49202" lon="-2.57523">
        <ele>100.6</ele>
        <time>2013-05-26T07:59:04.000Z</time>
      </trkpt>
      <trkpt lat="48.492" lon="-2.57526">
        <ele>100.4</ele>
        <time>2013-05-26T07:59:05.000Z</time>
      </trkpt>
      <trkpt lat="48.49197" lon="-2.5753">
        <ele>100.4</ele>
        <time>2013-05-26T07:59:07.000Z</time>
      </trkpt>
      <trkpt lat="48.49195" lon="-2.57531">
        <ele>100.5</ele>
        <time>2013-05-26T07:59:08.000Z</time>
      </trkpt>
      <trkpt lat="48.49194" lon="-2.57534">
        <ele>100.7</ele>
        <time>2013-05-26T07:59:09.000Z</time>
      </trkpt>
      <trkpt lat="48.49192" lon="-2.57536">
        <ele>100.6</ele>
        <time>2013-05-26T07:59:10.000Z</time>
      </trkpt>
      <trkpt lat="48.49191" lon="-2.57539">
        <ele>100.8</ele>
        <time>2013-05-26T07:59:11.000Z</time>
      </trkpt>
      <trkpt lat="48.49189" lon="-2.57542">
        <ele>100.8</ele>
        <time>2013-05-26T07:59:12.000Z</time>
      </trkpt>
      <trkpt lat="48.49187" lon="-2.57545">
        <ele>100.8</ele>
        <time>2013-05-26T07:59:13.000Z</time>
      </trkpt>
      <trkpt lat="48.49186" lon="-2.57547">
        <ele>100.8</ele>
        <time>2013-05-26T07:59:14.000Z</time>
      </trkpt>
      <trkpt lat="48.49184" lon="-2.57549">
        <ele>100.8</ele>
        <time>2013-05-26T07:59:15.000Z</time>
      </trkpt>
      <trkpt lat="48.49182" lon="-2.57552">
        <ele>100.7</ele>
        <time>2013-05-26T07:59:16.000Z</time>
      </trkpt>
      <trkpt lat="48.4918" lon="-2.57554">
        <ele>100.7</ele>
        <time>2013-05-26T07:59:17.000Z</time>
      </trkpt>
      <trkpt lat="48.49183" lon="-2.57563">
        <ele>97</ele>
        <time>2013-05-26T07:59:20.000Z</time>
      </trkpt>
      <trkpt lat="48.49181" lon="-2.57567">
        <ele>102.7</ele>
        <time>2013-05-26T07:59:21.000Z</time>
      </trkpt>
      <trkpt lat="48.49177" lon="-2.57572">
        <ele>102</ele>
        <time>2013-05-26T07:59:22.000Z</time>
      </trkpt>
      <trkpt lat="48.49173" lon="-2.5757">
        <ele>101.8</ele>
        <time>2013-05-26T07:59:23.000Z</time>
      </trkpt>
      <trkpt lat="48.49171" lon="-2.57571">
        <ele>102.9</ele>
        <time>2013-05-26T07:59:24.000Z</time>
      </trkpt>
      <trkpt lat="48.49167" lon="-2.57575">
        <ele>101.6</ele>
        <time>2013-05-26T07:59:25.000Z</time>
      </trkpt>
      <trkpt lat="48.49166" lon="-2.57577">
        <ele>101.8</ele>
        <time>2013-05-26T07:59:26.000Z</time>
      </trkpt>
      <trkpt lat="48.49164" lon="-2.57579">
        <ele>102.9</ele>
        <time>2013-05-26T07:59:27.000Z</time>
      </trkpt>
      <trkpt lat="48.49162" lon="-2.57581">
        <ele>102.9</ele>
        <time>2013-05-26T07:59:28.000Z</time>
      </trkpt>
      <trkpt lat="48.4916" lon="-2.57584">
        <ele>103</ele>
        <time>2013-05-26T07:59:29.000Z</time>
      </trkpt>
      <trkpt lat="48.49158" lon="-2.57586">
        <ele>102.8</ele>
        <time>2013-05-26T07:59:30.000Z</time>
      </trkpt>
      <trkpt lat="48.49157" lon="-2.57589">
        <ele>102.7</ele>
        <time>2013-05-26T07:59:31.000Z</time>
      </trkpt>
      <trkpt lat="48.49155" lon="-2.57591">
        <ele>103</ele>
        <time>2013-05-26T07:59:32.000Z</time>
      </trkpt>
      <trkpt lat="48.49151" lon="-2.57596">
        <ele>103.2</ele>
        <time>2013-05-26T07:59:34.000Z</time>
      </trkpt>
      <trkpt lat="48.4915" lon="-2.57597">
        <ele>103.5</ele>
        <time>2013-05-26T07:59:35.000Z</time>
      </trkpt>
      <trkpt lat="48.49148" lon="-2.57599">
        <ele>103.8</ele>
        <time>2013-05-26T07:59:36.000Z</time>
      </trkpt>
      <trkpt lat="48.49147" lon="-2.57602">
        <ele>103.9</ele>
        <time>2013-05-26T07:59:37.000Z</time>
      </trkpt>
      <trkpt lat="48.49143" lon="-2.57607">
        <ele>103.9</ele>
        <time>2013-05-26T07:59:39.000Z</time>
      </trkpt>
      <trkpt lat="48.49142" lon="-2.57609">
        <ele>104.1</ele>
        <time>2013-05-26T07:59:40.000Z</time>
      </trkpt>
      <trkpt lat="48.49138" lon="-2.57613">
        <ele>104.7</ele>
        <time>2013-05-26T07:59:42.000Z</time>
      </trkpt>
      <trkpt lat="48.49137" lon="-2.57615">
        <ele>104.5</ele>
        <time>2013-05-26T07:59:43.000Z</time>
      </trkpt>
      <trkpt lat="48.49134" lon="-2.5762">
        <ele>104.9</ele>
        <time>2013-05-26T07:59:45.000Z</time>
      </trkpt>
      <trkpt lat="48.49133" lon="-2.57623">
        <ele>105.1</ele>
        <time>2013-05-26T07:59:46.000Z</time>
      </trkpt>
      <trkpt lat="48.4913" lon="-2.57627">
        <ele>105.2</ele>
        <time>2013-05-26T07:59:48.000Z</time>
      </trkpt>
      <trkpt lat="48.49128" lon="-2.5763">
        <ele>105.3</ele>
        <time>2013-05-26T07:59:49.000Z</time>
      </trkpt>
      <trkpt lat="48.49125" lon="-2.57634">
        <ele>105.4</ele>
        <time>2013-05-26T07:59:51.000Z</time>
      </trkpt>
      <trkpt lat="48.49124" lon="-2.57637">
        <ele>105.5</ele>
        <time>2013-05-26T07:59:52.000Z</time>
      </trkpt>
      <trkpt lat="48.49122" lon="-2.57642">
        <ele>105.6</ele>
        <time>2013-05-26T07:59:54.000Z</time>
      </trkpt>
      <trkpt lat="48.49121" lon="-2.57646">
        <ele>105.5</ele>
        <time>2013-05-26T07:59:55.000Z</time>
      </trkpt>
      <trkpt lat="48.49122" lon="-2.57649">
        <ele>105.6</ele>
        <time>2013-05-26T07:59:56.000Z</time>
      </trkpt>
      <trkpt lat="48.49124" lon="-2.57652">
        <ele>105.7</ele>
        <time>2013-05-26T07:59:57.000Z</time>
      </trkpt>
      <trkpt lat="48.49125" lon="-2.57656">
        <ele>105.7</ele>
        <time>2013-05-26T07:59:58.000Z</time>
      </trkpt>
      <trkpt lat="48.49127" lon="-2.5766">
        <ele>105.8</ele>
        <time>2013-05-26T07:59:59.000Z</time>
      </trkpt>
      <trkpt lat="48.49129" lon="-2.57664">
        <ele>106</ele>
        <time>2013-05-26T08:00:00.000Z</time>
      </trkpt>
      <trkpt lat="48.49131" lon="-2.57667">
        <ele>106.1</ele>
        <time>2013-05-26T08:00:01.000Z</time>
      </trkpt>
      <trkpt lat="48.49133" lon="-2.57672">
        <ele>106.2</ele>
        <time>2013-05-26T08:00:02.000Z</time>
      </trkpt>
      <trkpt lat="48.49136" lon="-2.57676">
        <ele>106.2</ele>
        <time>2013-05-26T08:00:03.000Z</time>
      </trkpt>
      <trkpt lat="48.49138" lon="-2.5768">
        <ele>106.1</ele>
        <time>2013-05-26T08:00:04.000Z</time>
      </trkpt>
      <trkpt lat="48.4914" lon="-2.57685">
        <ele>106.1</ele>
        <time>2013-05-26T08:00:05.000Z</time>
      </trkpt>
      <trkpt lat="48.49143" lon="-2.57689">
        <ele>106</ele>
        <time>2013-05-26T08:00:06.000Z</time>
      </trkpt>
      <trkpt lat="48.49146" lon="-2.57694">
        <ele>105.8</ele>
        <time>2013-05-26T08:00:07.000Z</time>
      </trkpt>
      <trkpt lat="48.49148" lon="-2.577">
        <ele>105.7</ele>
        <time>2013-05-26T08:00:08.000Z</time>
      </trkpt>
      <trkpt lat="48.49151" lon="-2.57705">
        <ele>105.6</ele>
        <time>2013-05-26T08:00:09.000Z</time>
      </trkpt>
      <trkpt lat="48.49154" lon="-2.57711">
        <ele>105.5</ele>
        <time>2013-05-26T08:00:10.000Z</time>
      </trkpt>
      <trkpt lat="48.49157" lon="-2.57717">
        <ele>105.4</ele>
        <time>2013-05-26T08:00:11.000Z</time>
      </trkpt>
      <trkpt lat="48.49161" lon="-2.57723">
        <ele>105.4</ele>
        <time>2013-05-26T08:00:12.000Z</time>
      </trkpt>
      <trkpt lat="48.49164" lon="-2.57729">
        <ele>105.4</ele>
        <time>2013-05-26T08:00:13.000Z</time>
      </trkpt>
      <trkpt lat="48.49166" lon="-2.57736">
        <ele>105.4</ele>
        <time>2013-05-26T08:00:14.000Z</time>
      </trkpt>
      <trkpt lat="48.49167" lon="-2.57741">
        <ele>105.6</ele>
        <time>2013-05-26T08:00:15.000Z</time>
      </trkpt>
      <trkpt lat="48.49168" lon="-2.57746">
        <ele>105.6</ele>
        <time>2013-05-26T08:00:16.000Z</time>
      </trkpt>
      <trkpt lat="48.49167" lon="-2.57749">
        <ele>105.6</ele>
        <time>2013-05-26T08:00:17.000Z</time>
      </trkpt>
      <trkpt lat="48.4916" lon="-2.5776">
        <ele>100.9</ele>
        <time>2013-05-26T08:00:20.000Z</time>
      </trkpt>
      <trkpt lat="48.49159" lon="-2.57768">
        <ele>99.9</ele>
        <time>2013-05-26T08:00:22.000Z</time>
      </trkpt>
      <trkpt lat="48.49157" lon="-2.57771">
        <ele>105.2</ele>
        <time>2013-05-26T08:00:23.000Z</time>
      </trkpt>
      <trkpt lat="48.49157" lon="-2.57774">
        <ele>105.7</ele>
        <time>2013-05-26T08:00:24.000Z</time>
      </trkpt>
      <trkpt lat="48.49158" lon="-2.57779">
        <ele>104.7</ele>
        <time>2013-05-26T08:00:25.000Z</time>
      </trkpt>
      <trkpt lat="48.49157" lon="-2.57781">
        <ele>105.1</ele>
        <time>2013-05-26T08:00:26.000Z</time>
      </trkpt>
      <trkpt lat="48.49155" lon="-2.57785">
        <ele>106.8</ele>
        <time>2013-05-26T08:00:27.000Z</time>
      </trkpt>
      <trkpt lat="48.49154" lon="-2.57791">
        <ele>108.7</ele>
        <time>2013-05-26T08:00:28.000Z</time>
      </trkpt>
      <trkpt lat="48.49153" lon="-2.57796">
        <ele>110</ele>
        <time>2013-05-26T08:00:29.000Z</time>
      </trkpt>
      <trkpt lat="48.49151" lon="-2.578">
        <ele>112.1</ele>
        <time>2013-05-26T08:00:30.000Z</time>
      </trkpt>
      <trkpt lat="48.4915" lon="-2.57803">
        <ele>113.9</ele>
        <time>2013-05-26T08:00:31.000Z</time>
      </trkpt>
      <trkpt lat="48.49147" lon="-2.57807">
        <ele>115.9</ele>
        <time>2013-05-26T08:00:32.000Z</time>
      </trkpt>
      <trkpt lat="48.49146" lon="-2.5781">
        <ele>116.4</ele>
        <time>2013-05-26T08:00:33.000Z</time>
      </trkpt>
      <trkpt lat="48.49145" lon="-2.57813">
        <ele>117.4</ele>
        <time>2013-05-26T08:00:34.000Z</time>
      </trkpt>
      <trkpt lat="48.49146" lon="-2.57818">
        <ele>118.5</ele>
        <time>2013-05-26T08:00:35.000Z</time>
      </trkpt>
      <trkpt lat="48.49147" lon="-2.57823">
        <ele>118.3</ele>
        <time>2013-05-26T08:00:36.000Z</time>
      </trkpt>
      <trkpt lat="48.49148" lon="-2.57826">
        <ele>119</ele>
        <time>2013-05-26T08:00:37.000Z</time>
      </trkpt>
      <trkpt lat="48.4915" lon="-2.5783">
        <ele>120.5</ele>
        <time>2013-05-26T08:00:38.000Z</time>
      </trkpt>
      <trkpt lat="48.49151" lon="-2.57836">
        <ele>122.1</ele>
        <time>2013-05-26T08:00:39.000Z</time>
      </trkpt>
      <trkpt lat="48.49151" lon="-2.57841">
        <ele>123.2</ele>
        <time>2013-05-26T08:00:40.000Z</time>
      </trkpt>
      <trkpt lat="48.49151" lon="-2.57846">
        <ele>124.1</ele>
        <time>2013-05-26T08:00:41.000Z</time>
      </trkpt>
      <trkpt lat="48.4915" lon="-2.57849">
        <ele>124.7</ele>
        <time>2013-05-26T08:00:42.000Z</time>
      </trkpt>
      <trkpt lat="48.49149" lon="-2.57852">
        <ele>123.4</ele>
        <time>2013-05-26T08:00:43.000Z</time>
      </trkpt>
      <trkpt lat="48.49149" lon="-2.57856">
        <ele>123.1</ele>
        <time>2013-05-26T08:00:44.000Z</time>
      </trkpt>
      <trkpt lat="48.49149" lon="-2.57861">
        <ele>119.6</ele>
        <time>2013-05-26T08:00:46.000Z</time>
      </trkpt>
      <trkpt lat="48.4915" lon="-2.57864">
        <ele>119.6</ele>
        <time>2013-05-26T08:00:47.000Z</time>
      </trkpt>
      <trkpt lat="48.49151" lon="-2.5787">
        <ele>119.7</ele>
        <time>2013-05-26T08:00:49.000Z</time>
      </trkpt>
      <trkpt lat="48.49151" lon="-2.57872">
        <ele>119.9</ele>
        <time>2013-05-26T08:00:50.000Z</time>
      </trkpt>
      <trkpt lat="48.49152" lon="-2.57877">
        <ele>118.6</ele>
        <time>2013-05-26T08:00:52.000Z</time>
      </trkpt>
      <trkpt lat="48.49153" lon="-2.57879">
        <ele>118.5</ele>
        <time>2013-05-26T08:00:53.000Z</time>
      </trkpt>
      <trkpt lat="48.49153" lon="-2.57884">
        <ele>117.7</ele>
        <time>2013-05-26T08:00:55.000Z</time>
      </trkpt>
      <trkpt lat="48.49154" lon="-2.57887">
        <ele>117.4</ele>
        <time>2013-05-26T08:00:56.000Z</time>
      </trkpt>
      <trkpt lat="48.49154" lon="-2.57892">
        <ele>117</ele>
        <time>2013-05-26T08:00:58.000Z</time>
      </trkpt>
      <trkpt lat="48.49155" lon="-2.57895">
        <ele>116.8</ele>
        <time>2013-05-26T08:00:59.000Z</time>
      </trkpt>
      <trkpt lat="48.49155" lon="-2.579">
        <ele>116.6</ele>
        <time>2013-05-26T08:01:01.000Z</time>
      </trkpt>
      <trkpt lat="48.49155" lon="-2.57903">
        <ele>116.5</ele>
        <time>2013-05-26T08:01:02.000Z</time>
      </trkpt>
      <trkpt lat="48.49155" lon="-2.57907">
        <ele>116.5</ele>
        <time>2013-05-26T08:01:04.000Z</time>
      </trkpt>
      <trkpt lat="48.49155" lon="-2.57909">
        <ele>116.5</ele>
        <time>2013-05-26T08:01:05.000Z</time>
      </trkpt>
      <trkpt lat="48.49157" lon="-2.57915">
        <ele>116.7</ele>
        <time>2013-05-26T08:01:07.000Z</time>
      </trkpt>
      <trkpt lat="48.49158" lon="-2.57918">
        <ele>116.7</ele>
        <time>2013-05-26T08:01:08.000Z</time>
      </trkpt>
      <trkpt lat="48.49162" lon="-2.57921">
        <ele>116.6</ele>
        <time>2013-05-26T08:01:10.000Z</time>
      </trkpt>
      <trkpt lat="48.49163" lon="-2.57921">
        <ele>117</ele>
        <time>2013-05-26T08:01:11.000Z</time>
      </trkpt>
      <trkpt lat="48.49167" lon="-2.57923">
        <ele>117</ele>
        <time>2013-05-26T08:01:13.000Z</time>
      </trkpt>
      <trkpt lat="48.49169" lon="-2.57924">
        <ele>117.1</ele>
        <time>2013-05-26T08:01:14.000Z</time>
      </trkpt>
      <trkpt lat="48.49172" lon="-2.57926">
        <ele>117</ele>
        <time>2013-05-26T08:01:15.000Z</time>
      </trkpt>
      <trkpt lat="48.49174" lon="-2.5793">
        <ele>116.9</ele>
        <time>2013-05-26T08:01:16.000Z</time>
      </trkpt>
      <trkpt lat="48.49177" lon="-2.57934">
        <ele>117</ele>
        <time>2013-05-26T08:01:17.000Z</time>
      </trkpt>
      <trkpt lat="48.4918" lon="-2.57938">
        <ele>116.9</ele>
        <time>2013-05-26T08:01:18.000Z</time>
      </trkpt>
      <trkpt lat="48.49183" lon="-2.57942">
        <ele>116.8</ele>
        <time>2013-05-26T08:01:19.000Z</time>
      </trkpt>
      <trkpt lat="48.49185" lon="-2.57945">
        <ele>116.8</ele>
        <time>2013-05-26T08:01:20.000Z</time>
      </trkpt>
      <trkpt lat="48.49189" lon="-2.57947">
        <ele>116.5</ele>
        <time>2013-05-26T08:01:23.000Z</time>
      </trkpt>
      <trkpt lat="48.4919" lon="-2.57947">
        <ele>116.4</ele>
        <time>2013-05-26T08:01:24.000Z</time>
      </trkpt>
      <trkpt lat="48.49193" lon="-2.57942">
        <ele>116.1</ele>
        <time>2013-05-26T08:01:31.000Z</time>
      </trkpt>
      <trkpt lat="48.49193" lon="-2.57941">
        <ele>116.5</ele>
        <time>2013-05-26T08:01:32.000Z</time>
      </trkpt>
      <trkpt lat="48.4919" lon="-2.57938">
        <ele>116.9</ele>
        <time>2013-05-26T08:01:47.000Z</time>
      </trkpt>
      <trkpt lat="48.49189" lon="-2.57938">
        <ele>117.1</ele>
        <time>2013-05-26T08:01:48.000Z</time>
      </trkpt>
      <trkpt lat="48.49193" lon="-2.57934">
        <ele>117.4</ele>
        <time>2013-05-26T08:02:14.000Z</time>
      </trkpt>
      <trkpt lat="48.49195" lon="-2.57934">
        <ele>117.2</ele>
        <time>2013-05-26T08:02:15.000Z</time>
      </trkpt>
      <trkpt lat="48.49197" lon="-2.57934">
        <ele>117.1</ele>
        <time>2013-05-26T08:02:16.000Z</time>
      </trkpt>
      <trkpt lat="48.492" lon="-2.57934">
        <ele>116.9</ele>
        <time>2013-05-26T08:02:17.000Z</time>
      </trkpt>
      <trkpt lat="48.49204" lon="-2.57927">
        <ele>112.9</ele>
        <time>2013-05-26T08:02:21.000Z</time>
      </trkpt>
      <trkpt lat="48.49205" lon="-2.57921">
        <ele>103.3</ele>
        <time>2013-05-26T08:02:27.000Z</time>
      </trkpt>
      <trkpt lat="48.49205" lon="-2.5792">
        <ele>102.3</ele>
        <time>2013-05-26T08:02:28.000Z</time>
      </trkpt>
      <trkpt lat="48.49207" lon="-2.57915">
        <ele>97.2</ele>
        <time>2013-05-26T08:02:32.000Z</time>
      </trkpt>
      <trkpt lat="48.49207" lon="-2.57912">
        <ele>98.5</ele>
        <time>2013-05-26T08:02:33.000Z</time>
      </trkpt>
      <trkpt lat="48.49207" lon="-2.57906">
        <ele>98.7</ele>
        <time>2013-05-26T08:02:35.000Z</time>
      </trkpt>
      <trkpt lat="48.49208" lon="-2.57904">
        <ele>97.5</ele>
        <time>2013-05-26T08:02:36.000Z</time>
      </trkpt>
      <trkpt lat="48.4921" lon="-2.57899">
        <ele>92.5</ele>
        <time>2013-05-26T08:02:39.000Z</time>
      </trkpt>
      <trkpt lat="48.4921" lon="-2.57897">
        <ele>92.3</ele>
        <time>2013-05-26T08:02:40.000Z</time>
      </trkpt>
      <trkpt lat="48.49208" lon="-2.57893">
        <ele>91.9</ele>
        <time>2013-05-26T08:02:42.000Z</time>
      </trkpt>
      <trkpt lat="48.49207" lon="-2.5789">
        <ele>92.4</ele>
        <time>2013-05-26T08:02:43.000Z</time>
      </trkpt>
      <trkpt lat="48.49206" lon="-2.57883">
        <ele>92.6</ele>
        <time>2013-05-26T08:02:46.000Z</time>
      </trkpt>
      <trkpt lat="48.49204" lon="-2.57882">
        <ele>93.3</ele>
        <time>2013-05-26T08:02:47.000Z</time>
      </trkpt>
      <trkpt lat="48.49204" lon="-2.57876">
        <ele>95.4</ele>
        <time>2013-05-26T08:02:50.000Z</time>
      </trkpt>
      <trkpt lat="48.49203" lon="-2.57873">
        <ele>95.4</ele>
        <time>2013-05-26T08:02:51.000Z</time>
      </trkpt>
      <trkpt lat="48.49207" lon="-2.57876">
        <ele>95.8</ele>
        <time>2013-05-26T08:02:58.000Z</time>
      </trkpt>
      <trkpt lat="48.49207" lon="-2.57878">
        <ele>95.7</ele>
        <time>2013-05-26T08:02:59.000Z</time>
      </trkpt>
      <trkpt lat="48.49208" lon="-2.57882">
        <ele>95.6</ele>
        <time>2013-05-26T08:03:17.000Z</time>
      </trkpt>
      <trkpt lat="48.49207" lon="-2.57885">
        <ele>95.6</ele>
        <time>2013-05-26T08:03:21.000Z</time>
      </trkpt>
      <trkpt lat="48.49205" lon="-2.57883">
        <ele>94.5</ele>
        <time>2013-05-26T08:03:42.000Z</time>
      </trkpt>
      <trkpt lat="48.49213" lon="-2.57881">
        <ele>93.3</ele>
        <time>2013-05-26T08:03:43.000Z</time>
      </trkpt>
      <trkpt lat="48.49215" lon="-2.57883">
        <ele>93.8</ele>
        <time>2013-05-26T08:03:45.000Z</time>
      </trkpt>
      <trkpt lat="48.49217" lon="-2.57886">
        <ele>94.6</ele>
        <time>2013-05-26T08:03:46.000Z</time>
      </trkpt>
      <trkpt lat="48.49218" lon="-2.5789">
        <ele>94.9</ele>
        <time>2013-05-26T08:03:47.000Z</time>
      </trkpt>
      <trkpt lat="48.49221" lon="-2.57892">
        <ele>96</ele>
        <time>2013-05-26T08:03:48.000Z</time>
      </trkpt>
      <trkpt lat="48.49223" lon="-2.57896">
        <ele>95.9</ele>
        <time>2013-05-26T08:03:49.000Z</time>
      </trkpt>
      <trkpt lat="48.49225" lon="-2.57899">
        <ele>96.1</ele>
        <time>2013-05-26T08:03:50.000Z</time>
      </trkpt>
      <trkpt lat="48.49228" lon="-2.57904">
        <ele>97.6</ele>
        <time>2013-05-26T08:03:52.000Z</time>
      </trkpt>
      <trkpt lat="48.4923" lon="-2.57906">
        <ele>97.8</ele>
        <time>2013-05-26T08:03:53.000Z</time>
      </trkpt>
      <trkpt lat="48.49233" lon="-2.57908">
        <ele>97.5</ele>
        <time>2013-05-26T08:03:54.000Z</time>
      </trkpt>
      <trkpt lat="48.49236" lon="-2.57912">
        <ele>98</ele>
        <time>2013-05-26T08:03:55.000Z</time>
      </trkpt>
      <trkpt lat="48.49238" lon="-2.57915">
        <ele>98.2</ele>
        <time>2013-05-26T08:03:56.000Z</time>
      </trkpt>
      <trkpt lat="48.49241" lon="-2.57918">
        <ele>98.4</ele>
        <time>2013-05-26T08:03:57.000Z</time>
      </trkpt>
      <trkpt lat="48.49243" lon="-2.57921">
        <ele>99</ele>
        <time>2013-05-26T08:03:58.000Z</time>
      </trkpt>
      <trkpt lat="48.49245" lon="-2.57923">
        <ele>99.4</ele>
        <time>2013-05-26T08:03:59.000Z</time>
      </trkpt>
      <trkpt lat="48.49247" lon="-2.57925">
        <ele>99.4</ele>
        <time>2013-05-26T08:04:00.000Z</time>
      </trkpt>
      <trkpt lat="48.4925" lon="-2.57926">
        <ele>99.4</ele>
        <time>2013-05-26T08:04:01.000Z</time>
      </trkpt>
      <trkpt lat="48.49252" lon="-2.57929">
        <ele>99.7</ele>
        <time>2013-05-26T08:04:02.000Z</time>
      </trkpt>
      <trkpt lat="48.49254" lon="-2.57931">
        <ele>100.3</ele>
        <time>2013-05-26T08:04:03.000Z</time>
      </trkpt>
      <trkpt lat="48.49257" lon="-2.57934">
        <ele>100.7</ele>
        <time>2013-05-26T08:04:04.000Z</time>
      </trkpt>
      <trkpt lat="48.4926" lon="-2.57936">
        <ele>100.7</ele>
        <time>2013-05-26T08:04:05.000Z</time>
      </trkpt>
      <trkpt lat="48.49263" lon="-2.57941">
        <ele>101.2</ele>
        <time>2013-05-26T08:04:06.000Z</time>
      </trkpt>
      <trkpt lat="48.49266" lon="-2.57945">
        <ele>101.4</ele>
        <time>2013-05-26T08:04:07.000Z</time>
      </trkpt>
      <trkpt lat="48.4927" lon="-2.57948">
        <ele>101.7</ele>
        <time>2013-05-26T08:04:08.000Z</time>
      </trkpt>
      <trkpt lat="48.49272" lon="-2.57951">
        <ele>101.9</ele>
        <time>2013-05-26T08:04:09.000Z</time>
      </trkpt>
      <trkpt lat="48.49275" lon="-2.57955">
        <ele>102.2</ele>
        <time>2013-05-26T08:04:10.000Z</time>
      </trkpt>
      <trkpt lat="48.49276" lon="-2.57958">
        <ele>102.4</ele>
        <time>2013-05-26T08:04:11.000Z</time>
      </trkpt>
      <trkpt lat="48.49278" lon="-2.5796">
        <ele>102.5</ele>
        <time>2013-05-26T08:04:12.000Z</time>
      </trkpt>
      <trkpt lat="48.49282" lon="-2.5796">
        <ele>102.9</ele>
        <time>2013-05-26T08:04:16.000Z</time>
      </trkpt>
      <trkpt lat="48.49283" lon="-2.57961">
        <ele>103.1</ele>
        <time>2013-05-26T08:04:17.000Z</time>
      </trkpt>
      <trkpt lat="48.49288" lon="-2.57965">
        <ele>106.1</ele>
        <time>2013-05-26T08:04:20.000Z</time>
      </trkpt>
      <trkpt lat="48.49296" lon="-2.57968">
        <ele>116.4</ele>
        <time>2013-05-26T08:04:22.000Z</time>
      </trkpt>
      <trkpt lat="48.49296" lon="-2.57968">
        <ele>116.4</ele>
        <time>2013-05-26T08:04:23.000Z</time>
      </trkpt>
      <trkpt lat="48.49303" lon="-2.57971">
        <ele>115</ele>
        <time>2013-05-26T08:04:24.000Z</time>
      </trkpt>
      <trkpt lat="48.49305" lon="-2.57973">
        <ele>115.5</ele>
        <time>2013-05-26T08:04:25.000Z</time>
      </trkpt>
      <trkpt lat="48.49306" lon="-2.57976">
        <ele>113.5</ele>
        <time>2013-05-26T08:04:26.000Z</time>
      </trkpt>
      <trkpt lat="48.4931" lon="-2.5798">
        <ele>112.4</ele>
        <time>2013-05-26T08:04:30.000Z</time>
      </trkpt>
      <trkpt lat="48.49311" lon="-2.57981">
        <ele>112</ele>
        <time>2013-05-26T08:04:31.000Z</time>
      </trkpt>
      <trkpt lat="48.49314" lon="-2.57984">
        <ele>111</ele>
        <time>2013-05-26T08:04:33.000Z</time>
      </trkpt>
      <trkpt lat="48.49316" lon="-2.57985">
        <ele>109</ele>
        <time>2013-05-26T08:04:34.000Z</time>
      </trkpt>
      <trkpt lat="48.49319" lon="-2.57989">
        <ele>111.1</ele>
        <time>2013-05-26T08:04:37.000Z</time>
      </trkpt>
      <trkpt lat="48.4932" lon="-2.5799">
        <ele>111.4</ele>
        <time>2013-05-26T08:04:38.000Z</time>
      </trkpt>
      <trkpt lat="48.49324" lon="-2.57993">
        <ele>111.5</ele>
        <time>2013-05-26T08:04:41.000Z</time>
      </trkpt>
      <trkpt lat="48.49326" lon="-2.57994">
        <ele>111.7</ele>
        <time>2013-05-26T08:04:42.000Z</time>
      </trkpt>
      <trkpt lat="48.49328" lon="-2.57995">
        <ele>113.1</ele>
        <time>2013-05-26T08:04:43.000Z</time>
      </trkpt>
      <trkpt lat="48.49331" lon="-2.57996">
        <ele>112.2</ele>
        <time>2013-05-26T08:04:44.000Z</time>
      </trkpt>
      <trkpt lat="48.49334" lon="-2.57998">
        <ele>110.7</ele>
        <time>2013-05-26T08:04:46.000Z</time>
      </trkpt>
      <trkpt lat="48.49335" lon="-2.57999">
        <ele>109.2</ele>
        <time>2013-05-26T08:04:47.000Z</time>
      </trkpt>
      <trkpt lat="48.49338" lon="-2.58003">
        <ele>105.6</ele>
        <time>2013-05-26T08:04:51.000Z</time>
      </trkpt>
      <trkpt lat="48.49338" lon="-2.58004">
        <ele>105.3</ele>
        <time>2013-05-26T08:04:52.000Z</time>
      </trkpt>
      <trkpt lat="48.49334" lon="-2.58006">
        <ele>103.2</ele>
        <time>2013-05-26T08:04:58.000Z</time>
      </trkpt>
      <trkpt lat="48.49334" lon="-2.58007">
        <ele>103</ele>
        <time>2013-05-26T08:04:59.000Z</time>
      </trkpt>
      <trkpt lat="48.4933" lon="-2.58006">
        <ele>103.1</ele>
        <time>2013-05-26T08:05:04.000Z</time>
      </trkpt>
      <trkpt lat="48.49329" lon="-2.58006">
        <ele>103.2</ele>
        <time>2013-05-26T08:05:05.000Z</time>
      </trkpt>
      <trkpt lat="48.49325" lon="-2.58004">
        <ele>104</ele>
        <time>2013-05-26T08:05:11.000Z</time>
      </trkpt>
      <trkpt lat="48.49323" lon="-2.58004">
        <ele>104.5</ele>
        <time>2013-05-26T08:05:12.000Z</time>
      </trkpt>
      <trkpt lat="48.4932" lon="-2.58008">
        <ele>104.7</ele>
        <time>2013-05-26T08:05:15.000Z</time>
      </trkpt>
      <trkpt lat="48.4932" lon="-2.5801">
        <ele>104.8</ele>
        <time>2013-05-26T08:05:16.000Z</time>
      </trkpt>
      <trkpt lat="48.4932" lon="-2.58013">
        <ele>104.8</ele>
        <time>2013-05-26T08:05:17.000Z</time>
      </trkpt>
      <trkpt lat="48.49312" lon="-2.58015">
        <ele>106.5</ele>
        <time>2013-05-26T08:05:20.000Z</time>
      </trkpt>
      <trkpt lat="48.49307" lon="-2.58022">
        <ele>110.6</ele>
        <time>2013-05-26T08:05:22.000Z</time>
      </trkpt>
      <trkpt lat="48.49311" lon="-2.58024">
        <ele>109.7</ele>
        <time>2013-05-26T08:05:23.000Z</time>
      </trkpt>
      <trkpt lat="48.49312" lon="-2.58024">
        <ele>114.1</ele>
        <time>2013-05-26T08:05:24.000Z</time>
      </trkpt>
      <trkpt lat="48.49316" lon="-2.58027">
        <ele>110.4</ele>
        <time>2013-05-26T08:05:28.000Z</time>
      </trkpt>
      <trkpt lat="48.49317" lon="-2.58028">
        <ele>109.5</ele>
        <time>2013-05-26T08:05:29.000Z</time>
      </trkpt>
      <trkpt lat="48.4932" lon="-2.58029">
        <ele>112.9</ele>
        <time>2013-05-26T08:05:31.000Z</time>
      </trkpt>
      <trkpt lat="48.49322" lon="-2.58031">
        <ele>112.7</ele>
        <time>2013-05-26T08:05:32.000Z</time>
      </trkpt>
      <trkpt lat="48.49324" lon="-2.58033">
        <ele>113.3</ele>
        <time>2013-05-26T08:05:33.000Z</time>
      </trkpt>
      <trkpt lat="48.49326" lon="-2.58034">
        <ele>113.5</ele>
        <time>2013-05-26T08:05:34.000Z</time>
      </trkpt>
      <trkpt lat="48.49329" lon="-2.58038">
        <ele>114.3</ele>
        <time>2013-05-26T08:05:35.000Z</time>
      </trkpt>
      <trkpt lat="48.49332" lon="-2.58041">
        <ele>114.1</ele>
        <time>2013-05-26T08:05:36.000Z</time>
      </trkpt>
      <trkpt lat="48.49334" lon="-2.58046">
        <ele>113.5</ele>
        <time>2013-05-26T08:05:38.000Z</time>
      </trkpt>
      <trkpt lat="48.49335" lon="-2.58048">
        <ele>113.2</ele>
        <time>2013-05-26T08:05:39.000Z</time>
      </trkpt>
      <trkpt lat="48.49339" lon="-2.58051">
        <ele>116.9</ele>
        <time>2013-05-26T08:05:42.000Z</time>
      </trkpt>
      <trkpt lat="48.4934" lon="-2.58053">
        <ele>117.8</ele>
        <time>2013-05-26T08:05:43.000Z</time>
      </trkpt>
      <trkpt lat="48.49343" lon="-2.58057">
        <ele>118.4</ele>
        <time>2013-05-26T08:05:45.000Z</time>
      </trkpt>
      <trkpt lat="48.49344" lon="-2.58059">
        <ele>118.1</ele>
        <time>2013-05-26T08:05:46.000Z</time>
      </trkpt>
      <trkpt lat="48.49347" lon="-2.58064">
        <ele>116.8</ele>
        <time>2013-05-26T08:05:48.000Z</time>
      </trkpt>
      <trkpt lat="48.49349" lon="-2.58066">
        <ele>116.4</ele>
        <time>2013-05-26T08:05:49.000Z</time>
      </trkpt>
      <trkpt lat="48.49352" lon="-2.58069">
        <ele>116.3</ele>
        <time>2013-05-26T08:05:51.000Z</time>
      </trkpt>
      <trkpt lat="48.49353" lon="-2.5807">
        <ele>116.7</ele>
        <time>2013-05-26T08:05:52.000Z</time>
      </trkpt>
      <trkpt lat="48.49355" lon="-2.58075">
        <ele>117.3</ele>
        <time>2013-05-26T08:05:55.000Z</time>
      </trkpt>
      <trkpt lat="48.49356" lon="-2.58076">
        <ele>117.1</ele>
        <time>2013-05-26T08:05:56.000Z</time>
      </trkpt>
      <trkpt lat="48.49358" lon="-2.58081">
        <ele>117.2</ele>
        <time>2013-05-26T08:05:58.000Z</time>
      </trkpt>
      <trkpt lat="48.49359" lon="-2.58083">
        <ele>117</ele>
        <time>2013-05-26T08:05:59.000Z</time>
      </trkpt>
      <trkpt lat="48.49362" lon="-2.58088">
        <ele>116.8</ele>
        <time>2013-05-26T08:06:02.000Z</time>
      </trkpt>
      <trkpt lat="48.49364" lon="-2.58091">
        <ele>116.9</ele>
        <time>2013-05-26T08:06:03.000Z</time>
      </trkpt>
      <trkpt lat="48.49366" lon="-2.58095">
        <ele>117</ele>
        <time>2013-05-26T08:06:05.000Z</time>
      </trkpt>
      <trkpt lat="48.49367" lon="-2.58097">
        <ele>115.9</ele>
        <time>2013-05-26T08:06:06.000Z</time>
      </trkpt>
      <trkpt lat="48.4937" lon="-2.58102">
        <ele>115.5</ele>
        <time>2013-05-26T08:06:08.000Z</time>
      </trkpt>
      <trkpt lat="48.49371" lon="-2.58104">
        <ele>115.5</ele>
        <time>2013-05-26T08:06:09.000Z</time>
      </trkpt>
      <trkpt lat="48.49373" lon="-2.5811">
        <ele>115.9</ele>
        <time>2013-05-26T08:06:12.000Z</time>
      </trkpt>
      <trkpt lat="48.49373" lon="-2.58111">
        <ele>116</ele>
        <time>2013-05-26T08:06:13.000Z</time>
      </trkpt>
      <trkpt lat="48.49375" lon="-2.58117">
        <ele>116.6</ele>
        <time>2013-05-26T08:06:17.000Z</time>
      </trkpt>
      <trkpt lat="48.49377" lon="-2.58131">
        <ele>114.2</ele>
        <time>2013-05-26T08:06:20.000Z</time>
      </trkpt>
      <trkpt lat="48.49383" lon="-2.58136">
        <ele>108.3</ele>
        <time>2013-05-26T08:06:22.000Z</time>
      </trkpt>
      <trkpt lat="48.49388" lon="-2.58139">
        <ele>108</ele>
        <time>2013-05-26T08:06:23.000Z</time>
      </trkpt>
      <trkpt lat="48.4939" lon="-2.58139">
        <ele>106.7</ele>
        <time>2013-05-26T08:06:24.000Z</time>
      </trkpt>
      <trkpt lat="48.49392" lon="-2.58143">
        <ele>106.9</ele>
        <time>2013-05-26T08:06:25.000Z</time>
      </trkpt>
      <trkpt lat="48.49394" lon="-2.58148">
        <ele>108.4</ele>
        <time>2013-05-26T08:06:28.000Z</time>
      </trkpt>
      <trkpt lat="48.49394" lon="-2.5815">
        <ele>109.7</ele>
        <time>2013-05-26T08:06:29.000Z</time>
      </trkpt>
      <trkpt lat="48.49393" lon="-2.58157">
        <ele>111.2</ele>
        <time>2013-05-26T08:06:33.000Z</time>
      </trkpt>
      <trkpt lat="48.49392" lon="-2.58158">
        <ele>112.6</ele>
        <time>2013-05-26T08:06:34.000Z</time>
      </trkpt>
      <trkpt lat="48.49388" lon="-2.58161">
        <ele>115.9</ele>
        <time>2013-05-26T08:06:37.000Z</time>
      </trkpt>
      <trkpt lat="48.49387" lon="-2.58162">
        <ele>116.1</ele>
        <time>2013-05-26T08:06:38.000Z</time>
      </trkpt>
      <trkpt lat="48.49384" lon="-2.58164">
        <ele>116.6</ele>
        <time>2013-05-26T08:06:40.000Z</time>
      </trkpt>
      <trkpt lat="48.49383" lon="-2.58166">
        <ele>117.3</ele>
        <time>2013-05-26T08:06:41.000Z</time>
      </trkpt>
      <trkpt lat="48.4938" lon="-2.5817">
        <ele>116.8</ele>
        <time>2013-05-26T08:06:44.000Z</time>
      </trkpt>
      <trkpt lat="48.49378" lon="-2.58171">
        <ele>117.5</ele>
        <time>2013-05-26T08:06:45.000Z</time>
      </trkpt>
      <trkpt lat="48.49374" lon="-2.58173">
        <ele>117.7</ele>
        <time>2013-05-26T08:06:48.000Z</time>
      </trkpt>
      <trkpt lat="48.49373" lon="-2.58174">
        <ele>117.9</ele>
        <time>2013-05-26T08:06:49.000Z</time>
      </trkpt>
      <trkpt lat="48.49369" lon="-2.58177">
        <ele>118.3</ele>
        <time>2013-05-26T08:06:52.000Z</time>
      </trkpt>
      <trkpt lat="48.49368" lon="-2.58178">
        <ele>118.3</ele>
        <time>2013-05-26T08:06:53.000Z</time>
      </trkpt>
      <trkpt lat="48.49365" lon="-2.58181">
        <ele>118.4</ele>
        <time>2013-05-26T08:06:55.000Z</time>
      </trkpt>
      <trkpt lat="48.49363" lon="-2.58183">
        <ele>118.5</ele>
        <time>2013-05-26T08:06:56.000Z</time>
      </trkpt>
      <trkpt lat="48.4936" lon="-2.58185">
        <ele>118.9</ele>
        <time>2013-05-26T08:06:58.000Z</time>
      </trkpt>
      <trkpt lat="48.49359" lon="-2.58186">
        <ele>119.1</ele>
        <time>2013-05-26T08:06:59.000Z</time>
      </trkpt>
      <trkpt lat="48.49356" lon="-2.58187">
        <ele>119.2</ele>
        <time>2013-05-26T08:07:01.000Z</time>
      </trkpt>
      <trkpt lat="48.49354" lon="-2.58188">
        <ele>119.1</ele>
        <time>2013-05-26T08:07:02.000Z</time>
      </trkpt>
      <trkpt lat="48.49351" lon="-2.58189">
        <ele>119.3</ele>
        <time>2013-05-26T08:07:04.000Z</time>
      </trkpt>
      <trkpt lat="48.49349" lon="-2.58189">
        <ele>119.4</ele>
        <time>2013-05-26T08:07:05.000Z</time>
      </trkpt>
      <trkpt lat="48.49346" lon="-2.5819">
        <ele>119.7</ele>
        <time>2013-05-26T08:07:07.000Z</time>
      </trkpt>
      <trkpt lat="48.49344" lon="-2.5819">
        <ele>119.8</ele>
        <time>2013-05-26T08:07:08.000Z</time>
      </trkpt>
      <trkpt lat="48.49341" lon="-2.58191">
        <ele>120</ele>
        <time>2013-05-26T08:07:10.000Z</time>
      </trkpt>
      <trkpt lat="48.49339" lon="-2.58192">
        <ele>120.1</ele>
        <time>2013-05-26T08:07:11.000Z</time>
      </trkpt>
      <trkpt lat="48.49335" lon="-2.58192">
        <ele>120.4</ele>
        <time>2013-05-26T08:07:13.000Z</time>
      </trkpt>
      <trkpt lat="48.49333" lon="-2.58192">
        <ele>120.5</ele>
        <time>2013-05-26T08:07:14.000Z</time>
      </trkpt>
      <trkpt lat="48.49329" lon="-2.58193">
        <ele>120.9</ele>
        <time>2013-05-26T08:07:16.000Z</time>
      </trkpt>
      <trkpt lat="48.49327" lon="-2.58193">
        <ele>121.1</ele>
        <time>2013-05-26T08:07:17.000Z</time>
      </trkpt>
      <trkpt lat="48.49319" lon="-2.58205">
        <ele>105</ele>
        <time>2013-05-26T08:07:20.000Z</time>
      </trkpt>
      <trkpt lat="48.49316" lon="-2.58202">
        <ele>113.4</ele>
        <time>2013-05-26T08:07:24.000Z</time>
      </trkpt>
      <trkpt lat="48.49313" lon="-2.58201">
        <ele>113.7</ele>
        <time>2013-05-26T08:07:25.000Z</time>
      </trkpt>
      <trkpt lat="48.49309" lon="-2.58202">
        <ele>114.2</ele>
        <time>2013-05-26T08:07:27.000Z</time>
      </trkpt>
      <trkpt lat="48.49307" lon="-2.58201">
        <ele>114.7</ele>
        <time>2013-05-26T08:07:28.000Z</time>
      </trkpt>
      <trkpt lat="48.49303" lon="-2.58201">
        <ele>115.3</ele>
        <time>2013-05-26T08:07:30.000Z</time>
      </trkpt>
      <trkpt lat="48.49301" lon="-2.582">
        <ele>116.1</ele>
        <time>2013-05-26T08:07:31.000Z</time>
      </trkpt>
      <trkpt lat="48.49297" lon="-2.582">
        <ele>116.8</ele>
        <time>2013-05-26T08:07:33.000Z</time>
      </trkpt>
      <trkpt lat="48.49296" lon="-2.58201">
        <ele>116.9</ele>
        <time>2013-05-26T08:07:34.000Z</time>
      </trkpt>
      <trkpt lat="48.49292" lon="-2.582">
        <ele>117.5</ele>
        <time>2013-05-26T08:07:36.000Z</time>
      </trkpt>
      <trkpt lat="48.49291" lon="-2.582">
        <ele>117.5</ele>
        <time>2013-05-26T08:07:37.000Z</time>
      </trkpt>
      <trkpt lat="48.49287" lon="-2.582">
        <ele>118</ele>
        <time>2013-05-26T08:07:39.000Z</time>
      </trkpt>
      <trkpt lat="48.49286" lon="-2.582">
        <ele>118.3</ele>
        <time>2013-05-26T08:07:40.000Z</time>
      </trkpt>
      <trkpt lat="48.49283" lon="-2.582">
        <ele>118.4</ele>
        <time>2013-05-26T08:07:42.000Z</time>
      </trkpt>
      <trkpt lat="48.49281" lon="-2.58201">
        <ele>118.4</ele>
        <time>2013-05-26T08:07:43.000Z</time>
      </trkpt>
      <trkpt lat="48.49278" lon="-2.58202">
        <ele>118.6</ele>
        <time>2013-05-26T08:07:46.000Z</time>
      </trkpt>
      <trkpt lat="48.49277" lon="-2.58202">
        <ele>118.8</ele>
        <time>2013-05-26T08:07:47.000Z</time>
      </trkpt>
      <trkpt lat="48.49273" lon="-2.582">
        <ele>121.5</ele>
        <time>2013-05-26T08:08:57.000Z</time>
      </trkpt>
      <trkpt lat="48.49272" lon="-2.582">
        <ele>121.7</ele>
        <time>2013-05-26T08:08:58.000Z</time>
      </trkpt>
      <trkpt lat="48.49268" lon="-2.58199">
        <ele>122.2</ele>
        <time>2013-05-26T08:09:00.000Z</time>
      </trkpt>
      <trkpt lat="48.49266" lon="-2.58199">
        <ele>122.2</ele>
        <time>2013-05-26T08:09:01.000Z</time>
      </trkpt>
      <trkpt lat="48.49261" lon="-2.582">
        <ele>122.3</ele>
        <time>2013-05-26T08:09:03.000Z</time>
      </trkpt>
      <trkpt lat="48.49259" lon="-2.582">
        <ele>122.3</ele>
        <time>2013-05-26T08:09:04.000Z</time>
      </trkpt>
      <trkpt lat="48.49257" lon="-2.58201">
        <ele>122.4</ele>
        <time>2013-05-26T08:09:05.000Z</time>
      </trkpt>
      <trkpt lat="48.49254" lon="-2.58201">
        <ele>122.4</ele>
        <time>2013-05-26T08:09:06.000Z</time>
      </trkpt>
      <trkpt lat="48.4925" lon="-2.58203">
        <ele>122.5</ele>
        <time>2013-05-26T08:09:08.000Z</time>
      </trkpt>
      <trkpt lat="48.49248" lon="-2.58204">
        <ele>122.6</ele>
        <time>2013-05-26T08:09:09.000Z</time>
      </trkpt>
      <trkpt lat="48.49246" lon="-2.58205">
        <ele>122.6</ele>
        <time>2013-05-26T08:09:10.000Z</time>
      </trkpt>
      <trkpt lat="48.49243" lon="-2.58206">
        <ele>122.6</ele>
        <time>2013-05-26T08:09:11.000Z</time>
      </trkpt>
      <trkpt lat="48.49241" lon="-2.58208">
        <ele>122.6</ele>
        <time>2013-05-26T08:09:12.000Z</time>
      </trkpt>
      <trkpt lat="48.49239" lon="-2.5821">
        <ele>122.6</ele>
        <time>2013-05-26T08:09:13.000Z</time>
      </trkpt>
      <trkpt lat="48.49237" lon="-2.58212">
        <ele>122.6</ele>
        <time>2013-05-26T08:09:14.000Z</time>
      </trkpt>
      <trkpt lat="48.49235" lon="-2.58215">
        <ele>122.7</ele>
        <time>2013-05-26T08:09:15.000Z</time>
      </trkpt>
      <trkpt lat="48.49233" lon="-2.58217">
        <ele>122.7</ele>
        <time>2013-05-26T08:09:16.000Z</time>
      </trkpt>
      <trkpt lat="48.49231" lon="-2.58219">
        <ele>122.8</ele>
        <time>2013-05-26T08:09:17.000Z</time>
      </trkpt>
      <trkpt lat="48.49222" lon="-2.58239">
        <ele>119.9</ele>
        <time>2013-05-26T08:09:20.000Z</time>
      </trkpt>
      <trkpt lat="48.49219" lon="-2.58238">
        <ele>122.7</ele>
        <time>2013-05-26T08:09:22.000Z</time>
      </trkpt>
      <trkpt lat="48.49216" lon="-2.58237">
        <ele>124.4</ele>
        <time>2013-05-26T08:09:23.000Z</time>
      </trkpt>
      <trkpt lat="48.49213" lon="-2.58239">
        <ele>123.2</ele>
        <time>2013-05-26T08:09:24.000Z</time>
      </trkpt>
      <trkpt lat="48.4921" lon="-2.58242">
        <ele>123.5</ele>
        <time>2013-05-26T08:09:25.000Z</time>
      </trkpt>
      <trkpt lat="48.49207" lon="-2.58245">
        <ele>123.5</ele>
        <time>2013-05-26T08:09:26.000Z</time>
      </trkpt>
      <trkpt lat="48.49205" lon="-2.58247">
        <ele>123.8</ele>
        <time>2013-05-26T08:09:27.000Z</time>
      </trkpt>
      <trkpt lat="48.49202" lon="-2.58249">
        <ele>124.1</ele>
        <time>2013-05-26T08:09:28.000Z</time>
      </trkpt>
      <trkpt lat="48.492" lon="-2.58251">
        <ele>124.7</ele>
        <time>2013-05-26T08:09:29.000Z</time>
      </trkpt>
      <trkpt lat="48.49197" lon="-2.58254">
        <ele>123.9</ele>
        <time>2013-05-26T08:09:30.000Z</time>
      </trkpt>
      <trkpt lat="48.49195" lon="-2.58257">
        <ele>123.8</ele>
        <time>2013-05-26T08:09:31.000Z</time>
      </trkpt>
      <trkpt lat="48.49193" lon="-2.5826">
        <ele>123.7</ele>
        <time>2013-05-26T08:09:32.000Z</time>
      </trkpt>
      <trkpt lat="48.4919" lon="-2.58262">
        <ele>123.6</ele>
        <time>2013-05-26T08:09:33.000Z</time>
      </trkpt>
      <trkpt lat="48.49188" lon="-2.58265">
        <ele>123.9</ele>
        <time>2013-05-26T08:09:34.000Z</time>
      </trkpt>
      <trkpt lat="48.49186" lon="-2.58267">
        <ele>124.1</ele>
        <time>2013-05-26T08:09:35.000Z</time>
      </trkpt>
      <trkpt lat="48.49184" lon="-2.5827">
        <ele>124.4</ele>
        <time>2013-05-26T08:09:36.000Z</time>
      </trkpt>
      <trkpt lat="48.49181" lon="-2.58273">
        <ele>124.6</ele>
        <time>2013-05-26T08:09:37.000Z</time>
      </trkpt>
      <trkpt lat="48.49179" lon="-2.58275">
        <ele>124.9</ele>
        <time>2013-05-26T08:09:38.000Z</time>
      </trkpt>
      <trkpt lat="48.49177" lon="-2.58277">
        <ele>125.2</ele>
        <time>2013-05-26T08:09:39.000Z</time>
      </trkpt>
      <trkpt lat="48.49174" lon="-2.5828">
        <ele>125.3</ele>
        <time>2013-05-26T08:09:40.000Z</time>
      </trkpt>
      <trkpt lat="48.49172" lon="-2.58283">
        <ele>125.3</ele>
        <time>2013-05-26T08:09:41.000Z</time>
      </trkpt>
      <trkpt lat="48.49169" lon="-2.58285">
        <ele>125.5</ele>
        <time>2013-05-26T08:09:42.000Z</time>
      </trkpt>
      <trkpt lat="48.49167" lon="-2.58287">
        <ele>125.8</ele>
        <time>2013-05-26T08:09:43.000Z</time>
      </trkpt>
      <trkpt lat="48.49164" lon="-2.58289">
        <ele>126</ele>
        <time>2013-05-26T08:09:44.000Z</time>
      </trkpt>
      <trkpt lat="48.49161" lon="-2.58291">
        <ele>126.1</ele>
        <time>2013-05-26T08:09:45.000Z</time>
      </trkpt>
      <trkpt lat="48.49159" lon="-2.58293">
        <ele>126.3</ele>
        <time>2013-05-26T08:09:46.000Z</time>
      </trkpt>
      <trkpt lat="48.49156" lon="-2.58294">
        <ele>126.4</ele>
        <time>2013-05-26T08:09:47.000Z</time>
      </trkpt>
      <trkpt lat="48.49153" lon="-2.58295">
        <ele>126.4</ele>
        <time>2013-05-26T08:09:48.000Z</time>
      </trkpt>
      <trkpt lat="48.4915" lon="-2.58296">
        <ele>126.5</ele>
        <time>2013-05-26T08:09:49.000Z</time>
      </trkpt>
      <trkpt lat="48.49147" lon="-2.58298">
        <ele>126.5</ele>
        <time>2013-05-26T08:09:50.000Z</time>
      </trkpt>
      <trkpt lat="48.49144" lon="-2.58299">
        <ele>126.5</ele>
        <time>2013-05-26T08:09:51.000Z</time>
      </trkpt>
      <trkpt lat="48.49141" lon="-2.58299">
        <ele>126.7</ele>
        <time>2013-05-26T08:09:52.000Z</time>
      </trkpt>
      <trkpt lat="48.49139" lon="-2.583">
        <ele>126.8</ele>
        <time>2013-05-26T08:09:53.000Z</time>
      </trkpt>
      <trkpt lat="48.49136" lon="-2.58301">
        <ele>126.9</ele>
        <time>2013-05-26T08:09:54.000Z</time>
      </trkpt>
      <trkpt lat="48.49133" lon="-2.58302">
        <ele>126.9</ele>
        <time>2013-05-26T08:09:55.000Z</time>
      </trkpt>
      <trkpt lat="48.4913" lon="-2.58303">
        <ele>127.1</ele>
        <time>2013-05-26T08:09:56.000Z</time>
      </trkpt>
      <trkpt lat="48.49127" lon="-2.58304">
        <ele>127.2</ele>
        <time>2013-05-26T08:09:57.000Z</time>
      </trkpt>
      <trkpt lat="48.49124" lon="-2.58306">
        <ele>127.2</ele>
        <time>2013-05-26T08:09:58.000Z</time>
      </trkpt>
      <trkpt lat="48.49121" lon="-2.58307">
        <ele>127.3</ele>
        <time>2013-05-26T08:09:59.000Z</time>
      </trkpt>
      <trkpt lat="48.49119" lon="-2.58309">
        <ele>127.4</ele>
        <time>2013-05-26T08:10:00.000Z</time>
      </trkpt>
      <trkpt lat="48.49116" lon="-2.5831">
        <ele>127.4</ele>
        <time>2013-05-26T08:10:01.000Z</time>
      </trkpt>
      <trkpt lat="48.49113" lon="-2.58312">
        <ele>127.6</ele>
        <time>2013-05-26T08:10:02.000Z</time>
      </trkpt>
      <trkpt lat="48.4911" lon="-2.58314">
        <ele>127.7</ele>
        <time>2013-05-26T08:10:03.000Z</time>
      </trkpt>
      <trkpt lat="48.49106" lon="-2.58315">
        <ele>127.7</ele>
        <time>2013-05-26T08:10:04.000Z</time>
      </trkpt>
      <trkpt lat="48.49103" lon="-2.58317">
        <ele>127.8</ele>
        <time>2013-05-26T08:10:05.000Z</time>
      </trkpt>
      <trkpt lat="48.491" lon="-2.5832">
        <ele>127.9</ele>
        <time>2013-05-26T08:10:06.000Z</time>
      </trkpt>
      <trkpt lat="48.49097" lon="-2.58322">
        <ele>128.1</ele>
        <time>2013-05-26T08:10:07.000Z</time>
      </trkpt>
      <trkpt lat="48.49093" lon="-2.58324">
        <ele>128.1</ele>
        <time>2013-05-26T08:10:08.000Z</time>
      </trkpt>
      <trkpt lat="48.4909" lon="-2.58326">
        <ele>128.2</ele>
        <time>2013-05-26T08:10:09.000Z</time>
      </trkpt>
      <trkpt lat="48.49087" lon="-2.58328">
        <ele>128.1</ele>
        <time>2013-05-26T08:10:10.000Z</time>
      </trkpt>
      <trkpt lat="48.49083" lon="-2.58331">
        <ele>128</ele>
        <time>2013-05-26T08:10:11.000Z</time>
      </trkpt>
      <trkpt lat="48.4908" lon="-2.58333">
        <ele>127.9</ele>
        <time>2013-05-26T08:10:12.000Z</time>
      </trkpt>
      <trkpt lat="48.49076" lon="-2.58335">
        <ele>127.8</ele>
        <time>2013-05-26T08:10:13.000Z</time>
      </trkpt>
      <trkpt lat="48.49073" lon="-2.58338">
        <ele>127.6</ele>
        <time>2013-05-26T08:10:14.000Z</time>
      </trkpt>
      <trkpt lat="48.49069" lon="-2.58341">
        <ele>127.5</ele>
        <time>2013-05-26T08:10:15.000Z</time>
      </trkpt>
      <trkpt lat="48.49065" lon="-2.58343">
        <ele>127.4</ele>
        <time>2013-05-26T08:10:16.000Z</time>
      </trkpt>
      <trkpt lat="48.49062" lon="-2.58346">
        <ele>127.3</ele>
        <time>2013-05-26T08:10:17.000Z</time>
      </trkpt>
      <trkpt lat="48.49051" lon="-2.58363">
        <ele>129.1</ele>
        <time>2013-05-26T08:10:21.000Z</time>
      </trkpt>
      <trkpt lat="48.49053" lon="-2.58373">
        <ele>127.4</ele>
        <time>2013-05-26T08:10:22.000Z</time>
      </trkpt>
      <trkpt lat="48.49054" lon="-2.58381">
        <ele>124.4</ele>
        <time>2013-05-26T08:10:23.000Z</time>
      </trkpt>
      <trkpt lat="48.49054" lon="-2.58387">
        <ele>122.9</ele>
        <time>2013-05-26T08:10:24.000Z</time>
      </trkpt>
      <trkpt lat="48.49054" lon="-2.58393">
        <ele>123.7</ele>
        <time>2013-05-26T08:10:25.000Z</time>
      </trkpt>
      <trkpt lat="48.49053" lon="-2.58399">
        <ele>124.9</ele>
        <time>2013-05-26T08:10:26.000Z</time>
      </trkpt>
      <trkpt lat="48.49053" lon="-2.58405">
        <ele>124.6</ele>
        <time>2013-05-26T08:10:27.000Z</time>
      </trkpt>
      <trkpt lat="48.49053" lon="-2.58411">
        <ele>124.3</ele>
        <time>2013-05-26T08:10:28.000Z</time>
      </trkpt>
      <trkpt lat="48.49053" lon="-2.58417">
        <ele>124.1</ele>
        <time>2013-05-26T08:10:29.000Z</time>
      </trkpt>
      <trkpt lat="48.49053" lon="-2.58424">
        <ele>124.8</ele>
        <time>2013-05-26T08:10:30.000Z</time>
      </trkpt>
      <trkpt lat="48.49052" lon="-2.5843">
        <ele>124.9</ele>
        <time>2013-05-26T08:10:31.000Z</time>
      </trkpt>
      <trkpt lat="48.49052" lon="-2.58436">
        <ele>124.8</ele>
        <time>2013-05-26T08:10:32.000Z</time>
      </trkpt>
      <trkpt lat="48.49052" lon="-2.58443">
        <ele>124.9</ele>
        <time>2013-05-26T08:10:33.000Z</time>
      </trkpt>
      <trkpt lat="48.49051" lon="-2.58449">
        <ele>124.8</ele>
        <time>2013-05-26T08:10:34.000Z</time>
      </trkpt>
      <trkpt lat="48.49051" lon="-2.58455">
        <ele>124.7</ele>
        <time>2013-05-26T08:10:35.000Z</time>
      </trkpt>
      <trkpt lat="48.4905" lon="-2.58462">
        <ele>124.6</ele>
        <time>2013-05-26T08:10:36.000Z</time>
      </trkpt>
      <trkpt lat="48.4905" lon="-2.58468">
        <ele>124.6</ele>
        <time>2013-05-26T08:10:37.000Z</time>
      </trkpt>
      <trkpt lat="48.49049" lon="-2.58474">
        <ele>124.6</ele>
        <time>2013-05-26T08:10:38.000Z</time>
      </trkpt>
      <trkpt lat="48.49048" lon="-2.5848">
        <ele>124.7</ele>
        <time>2013-05-26T08:10:39.000Z</time>
      </trkpt>
      <trkpt lat="48.49047" lon="-2.58486">
        <ele>124.9</ele>
        <time>2013-05-26T08:10:40.000Z</time>
      </trkpt>
      <trkpt lat="48.49046" lon="-2.58492">
        <ele>124.9</ele>
        <time>2013-05-26T08:10:41.000Z</time>
      </trkpt>
      <trkpt lat="48.49046" lon="-2.58499">
        <ele>124.9</ele>
        <time>2013-05-26T08:10:42.000Z</time>
      </trkpt>
      <trkpt lat="48.49045" lon="-2.58505">
        <ele>125</ele>
        <time>2013-05-26T08:10:43.000Z</time>
      </trkpt>
      <trkpt lat="48.49044" lon="-2.58511">
        <ele>125.1</ele>
        <time>2013-05-26T08:10:44.000Z</time>
      </trkpt>
      <trkpt lat="48.49044" lon="-2.58517">
        <ele>125.3</ele>
        <time>2013-05-26T08:10:45.000Z</time>
      </trkpt>
      <trkpt lat="48.49043" lon="-2.58523">
        <ele>125.3</ele>
        <time>2013-05-26T08:10:46.000Z</time>
      </trkpt>
      <trkpt lat="48.49042" lon="-2.58529">
        <ele>125.4</ele>
        <time>2013-05-26T08:10:47.000Z</time>
      </trkpt>
      <trkpt lat="48.49042" lon="-2.58535">
        <ele>125.5</ele>
        <time>2013-05-26T08:10:48.000Z</time>
      </trkpt>
      <trkpt lat="48.49041" lon="-2.58542">
        <ele>125.6</ele>
        <time>2013-05-26T08:10:49.000Z</time>
      </trkpt>
      <trkpt lat="48.4904" lon="-2.58548">
        <ele>125.5</ele>
        <time>2013-05-26T08:10:50.000Z</time>
      </trkpt>
      <trkpt lat="48.49038" lon="-2.58554">
        <ele>125.6</ele>
        <time>2013-05-26T08:10:51.000Z</time>
      </trkpt>
      <trkpt lat="48.49037" lon="-2.58559">
        <ele>125.7</ele>
        <time>2013-05-26T08:10:52.000Z</time>
      </trkpt>
      <trkpt lat="48.49036" lon="-2.58565">
        <ele>125.6</ele>
        <time>2013-05-26T08:10:53.000Z</time>
      </trkpt>
      <trkpt lat="48.49035" lon="-2.5857">
        <ele>125.6</ele>
        <time>2013-05-26T08:10:54.000Z</time>
      </trkpt>
      <trkpt lat="48.49034" lon="-2.58575">
        <ele>125.7</ele>
        <time>2013-05-26T08:10:55.000Z</time>
      </trkpt>
      <trkpt lat="48.49032" lon="-2.58579">
        <ele>125.6</ele>
        <time>2013-05-26T08:10:56.000Z</time>
      </trkpt>
      <trkpt lat="48.49032" lon="-2.58584">
        <ele>125.5</ele>
        <time>2013-05-26T08:10:57.000Z</time>
      </trkpt>
      <trkpt lat="48.49031" lon="-2.5859">
        <ele>125.4</ele>
        <time>2013-05-26T08:10:58.000Z</time>
      </trkpt>
      <trkpt lat="48.49032" lon="-2.58595">
        <ele>125.3</ele>
        <time>2013-05-26T08:10:59.000Z</time>
      </trkpt>
      <trkpt lat="48.49034" lon="-2.58601">
        <ele>125.3</ele>
        <time>2013-05-26T08:11:00.000Z</time>
      </trkpt>
      <trkpt lat="48.49037" lon="-2.58607">
        <ele>125.2</ele>
        <time>2013-05-26T08:11:01.000Z</time>
      </trkpt>
      <trkpt lat="48.49039" lon="-2.58613">
        <ele>125.1</ele>
        <time>2013-05-26T08:11:02.000Z</time>
      </trkpt>
      <trkpt lat="48.49042" lon="-2.58619">
        <ele>124.9</ele>
        <time>2013-05-26T08:11:03.000Z</time>
      </trkpt>
      <trkpt lat="48.49045" lon="-2.58625">
        <ele>124.8</ele>
        <time>2013-05-26T08:11:04.000Z</time>
      </trkpt>
      <trkpt lat="48.49047" lon="-2.58631">
        <ele>124.7</ele>
        <time>2013-05-26T08:11:05.000Z</time>
      </trkpt>
      <trkpt lat="48.4905" lon="-2.58637">
        <ele>124.6</ele>
        <time>2013-05-26T08:11:06.000Z</time>
      </trkpt>
      <trkpt lat="48.49053" lon="-2.58642">
        <ele>124.6</ele>
        <time>2013-05-26T08:11:07.000Z</time>
      </trkpt>
      <trkpt lat="48.49055" lon="-2.58648">
        <ele>124.7</ele>
        <time>2013-05-26T08:11:08.000Z</time>
      </trkpt>
      <trkpt lat="48.49058" lon="-2.58654">
        <ele>124.7</ele>
        <time>2013-05-26T08:11:09.000Z</time>
      </trkpt>
      <trkpt lat="48.4906" lon="-2.58659">
        <ele>124.8</ele>
        <time>2013-05-26T08:11:10.000Z</time>
      </trkpt>
      <trkpt lat="48.49063" lon="-2.58665">
        <ele>125</ele>
        <time>2013-05-26T08:11:11.000Z</time>
      </trkpt>
      <trkpt lat="48.49066" lon="-2.5867">
        <ele>125</ele>
        <time>2013-05-26T08:11:12.000Z</time>
      </trkpt>
      <trkpt lat="48.49069" lon="-2.58675">
        <ele>125.1</ele>
        <time>2013-05-26T08:11:13.000Z</time>
      </trkpt>
      <trkpt lat="48.49071" lon="-2.58681">
        <ele>125</ele>
        <time>2013-05-26T08:11:14.000Z</time>
      </trkpt>
      <trkpt lat="48.49073" lon="-2.58687">
        <ele>124.9</ele>
        <time>2013-05-26T08:11:15.000Z</time>
      </trkpt>
      <trkpt lat="48.49075" lon="-2.58693">
        <ele>124.9</ele>
        <time>2013-05-26T08:11:16.000Z</time>
      </trkpt>
      <trkpt lat="48.49077" lon="-2.587">
        <ele>124.9</ele>
        <time>2013-05-26T08:11:17.000Z</time>
      </trkpt>
      <trkpt lat="48.49087" lon="-2.58728">
        <ele>129.6</ele>
        <time>2013-05-26T08:11:21.000Z</time>
      </trkpt>
      <trkpt lat="48.49089" lon="-2.58731">
        <ele>129.7</ele>
        <time>2013-05-26T08:11:22.000Z</time>
      </trkpt>
      <trkpt lat="48.49094" lon="-2.58731">
        <ele>125.6</ele>
        <time>2013-05-26T08:11:23.000Z</time>
      </trkpt>
      <trkpt lat="48.49098" lon="-2.58731">
        <ele>125.2</ele>
        <time>2013-05-26T08:11:24.000Z</time>
      </trkpt>
      <trkpt lat="48.49102" lon="-2.58732">
        <ele>126.7</ele>
        <time>2013-05-26T08:11:25.000Z</time>
      </trkpt>
      <trkpt lat="48.49106" lon="-2.58733">
        <ele>125.3</ele>
        <time>2013-05-26T08:11:26.000Z</time>
      </trkpt>
      <trkpt lat="48.4911" lon="-2.58734">
        <ele>125.5</ele>
        <time>2013-05-26T08:11:27.000Z</time>
      </trkpt>
      <trkpt lat="48.49115" lon="-2.58735">
        <ele>125.1</ele>
        <time>2013-05-26T08:11:28.000Z</time>
      </trkpt>
      <trkpt lat="48.4912" lon="-2.58737">
        <ele>123.3</ele>
        <time>2013-05-26T08:11:29.000Z</time>
      </trkpt>
      <trkpt lat="48.49125" lon="-2.58738">
        <ele>120.7</ele>
        <time>2013-05-26T08:11:30.000Z</time>
      </trkpt>
      <trkpt lat="48.49129" lon="-2.58741">
        <ele>120.4</ele>
        <time>2013-05-26T08:11:31.000Z</time>
      </trkpt>
      <trkpt lat="48.49134" lon="-2.58744">
        <ele>120.6</ele>
        <time>2013-05-26T08:11:32.000Z</time>
      </trkpt>
      <trkpt lat="48.49139" lon="-2.58747">
        <ele>120.1</ele>
        <time>2013-05-26T08:11:33.000Z</time>
      </trkpt>
      <trkpt lat="48.49144" lon="-2.58751">
        <ele>120.3</ele>
        <time>2013-05-26T08:11:34.000Z</time>
      </trkpt>
      <trkpt lat="48.49149" lon="-2.58753">
        <ele>119.6</ele>
        <time>2013-05-26T08:11:35.000Z</time>
      </trkpt>
      <trkpt lat="48.49154" lon="-2.58757">
        <ele>120.1</ele>
        <time>2013-05-26T08:11:36.000Z</time>
      </trkpt>
      <trkpt lat="48.49159" lon="-2.5876">
        <ele>119.9</ele>
        <time>2013-05-26T08:11:37.000Z</time>
      </trkpt>
      <trkpt lat="48.49165" lon="-2.58763">
        <ele>119.1</ele>
        <time>2013-05-26T08:11:38.000Z</time>
      </trkpt>
      <trkpt lat="48.4917" lon="-2.58766">
        <ele>118.2</ele>
        <time>2013-05-26T08:11:39.000Z</time>
      </trkpt>
      <trkpt lat="48.49176" lon="-2.5877">
        <ele>117.8</ele>
        <time>2013-05-26T08:11:40.000Z</time>
      </trkpt>
      <trkpt lat="48.49181" lon="-2.58773">
        <ele>116.4</ele>
        <time>2013-05-26T08:11:41.000Z</time>
      </trkpt>
      <trkpt lat="48.49188" lon="-2.58776">
        <ele>115.4</ele>
        <time>2013-05-26T08:11:42.000Z</time>
      </trkpt>
      <trkpt lat="48.49194" lon="-2.5878">
        <ele>115.3</ele>
        <time>2013-05-26T08:11:43.000Z</time>
      </trkpt>
      <trkpt lat="48.492" lon="-2.58784">
        <ele>115.9</ele>
        <time>2013-05-26T08:11:44.000Z</time>
      </trkpt>
      <trkpt lat="48.49205" lon="-2.58788">
        <ele>116</ele>
        <time>2013-05-26T08:11:45.000Z</time>
      </trkpt>
      <trkpt lat="48.4921" lon="-2.58791">
        <ele>115.9</ele>
        <time>2013-05-26T08:11:46.000Z</time>
      </trkpt>
      <trkpt lat="48.49215" lon="-2.58794">
        <ele>115.6</ele>
        <time>2013-05-26T08:11:47.000Z</time>
      </trkpt>
      <trkpt lat="48.49219" lon="-2.58797">
        <ele>115.4</ele>
        <time>2013-05-26T08:11:48.000Z</time>
      </trkpt>
      <trkpt lat="48.49223" lon="-2.58799">
        <ele>115.4</ele>
        <time>2013-05-26T08:11:49.000Z</time>
      </trkpt>
      <trkpt lat="48.49226" lon="-2.58801">
        <ele>115.5</ele>
        <time>2013-05-26T08:11:50.000Z</time>
      </trkpt>
      <trkpt lat="48.49229" lon="-2.58803">
        <ele>115.5</ele>
        <time>2013-05-26T08:11:51.000Z</time>
      </trkpt>
      <trkpt lat="48.49232" lon="-2.58803">
        <ele>115.3</ele>
        <time>2013-05-26T08:11:52.000Z</time>
      </trkpt>
      <trkpt lat="48.49235" lon="-2.58801">
        <ele>116</ele>
        <time>2013-05-26T08:11:55.000Z</time>
      </trkpt>
      <trkpt lat="48.49236" lon="-2.58801">
        <ele>116.1</ele>
        <time>2013-05-26T08:11:56.000Z</time>
      </trkpt>
      <trkpt lat="48.4924" lon="-2.58799">
        <ele>116.4</ele>
        <time>2013-05-26T08:12:01.000Z</time>
      </trkpt>
      <trkpt lat="48.49241" lon="-2.58798">
        <ele>116.4</ele>
        <time>2013-05-26T08:12:02.000Z</time>
      </trkpt>
      <trkpt lat="48.49242" lon="-2.58795">
        <ele>116.9</ele>
        <time>2013-05-26T08:12:17.000Z</time>
      </trkpt>
      <trkpt lat="48.49242" lon="-2.58789">
        <ele>115.1</ele>
        <time>2013-05-26T08:12:20.000Z</time>
      </trkpt>
      <trkpt lat="48.49238" lon="-2.58794">
        <ele>117.9</ele>
        <time>2013-05-26T08:12:21.000Z</time>
      </trkpt>
      <trkpt lat="48.4924" lon="-2.5879">
        <ele>128.4</ele>
        <time>2013-05-26T08:14:10.000Z</time>
      </trkpt>
      <trkpt lat="48.49242" lon="-2.58789">
        <ele>128.4</ele>
        <time>2013-05-26T08:14:11.000Z</time>
      </trkpt>
      <trkpt lat="48.49244" lon="-2.58787">
        <ele>128.5</ele>
        <time>2013-05-26T08:14:12.000Z</time>
      </trkpt>
      <trkpt lat="48.49245" lon="-2.58784">
        <ele>128.5</ele>
        <time>2013-05-26T08:14:13.000Z</time>
      </trkpt>
      <trkpt lat="48.49247" lon="-2.58781">
        <ele>128.4</ele>
        <time>2013-05-26T08:14:14.000Z</time>
      </trkpt>
      <trkpt lat="48.49249" lon="-2.58778">
        <ele>128.3</ele>
        <time>2013-05-26T08:14:15.000Z</time>
      </trkpt>
      <trkpt lat="48.49251" lon="-2.58774">
        <ele>128.2</ele>
        <time>2013-05-26T08:14:16.000Z</time>
      </trkpt>
      <trkpt lat="48.49253" lon="-2.58771">
        <ele>128.2</ele>
        <time>2013-05-26T08:14:17.000Z</time>
      </trkpt>
      <trkpt lat="48.49256" lon="-2.58767">
        <ele>128.2</ele>
        <time>2013-05-26T08:14:18.000Z</time>
      </trkpt>
      <trkpt lat="48.49258" lon="-2.58764">
        <ele>128.4</ele>
        <time>2013-05-26T08:14:19.000Z</time>
      </trkpt>
      <trkpt lat="48.49261" lon="-2.5876">
        <ele>128.5</ele>
        <time>2013-05-26T08:14:20.000Z</time>
      </trkpt>
      <trkpt lat="48.49264" lon="-2.58756">
        <ele>128.6</ele>
        <time>2013-05-26T08:14:21.000Z</time>
      </trkpt>
      <trkpt lat="48.49267" lon="-2.58752">
        <ele>128.7</ele>
        <time>2013-05-26T08:14:22.000Z</time>
      </trkpt>
      <trkpt lat="48.4927" lon="-2.58748">
        <ele>128.8</ele>
        <time>2013-05-26T08:14:23.000Z</time>
      </trkpt>
      <trkpt lat="48.49273" lon="-2.58744">
        <ele>128.8</ele>
        <time>2013-05-26T08:14:24.000Z</time>
      </trkpt>
      <trkpt lat="48.49276" lon="-2.5874">
        <ele>128.7</ele>
        <time>2013-05-26T08:14:25.000Z</time>
      </trkpt>
      <trkpt lat="48.4928" lon="-2.58736">
        <ele>128.8</ele>
        <time>2013-05-26T08:14:26.000Z</time>
      </trkpt>
      <trkpt lat="48.49283" lon="-2.58732">
        <ele>128.8</ele>
        <time>2013-05-26T08:14:27.000Z</time>
      </trkpt>
      <trkpt lat="48.49286" lon="-2.58728">
        <ele>128.7</ele>
        <time>2013-05-26T08:14:28.000Z</time>
      </trkpt>
      <trkpt lat="48.4929" lon="-2.58723">
        <ele>128.5</ele>
        <time>2013-05-26T08:14:29.000Z</time>
      </trkpt>
      <trkpt lat="48.49293" lon="-2.58718">
        <ele>128.3</ele>
        <time>2013-05-26T08:14:30.000Z</time>
      </trkpt>
      <trkpt lat="48.49297" lon="-2.58714">
        <ele>128.2</ele>
        <time>2013-05-26T08:14:31.000Z</time>
      </trkpt>
      <trkpt lat="48.493" lon="-2.58709">
        <ele>128.1</ele>
        <time>2013-05-26T08:14:32.000Z</time>
      </trkpt>
      <trkpt lat="48.49304" lon="-2.58704">
        <ele>128</ele>
        <time>2013-05-26T08:14:33.000Z</time>
      </trkpt>
      <trkpt lat="48.49307" lon="-2.587">
        <ele>127.9</ele>
        <time>2013-05-26T08:14:34.000Z</time>
      </trkpt>
      <trkpt lat="48.49311" lon="-2.58695">
        <ele>127.8</ele>
        <time>2013-05-26T08:14:35.000Z</time>
      </trkpt>
      <trkpt lat="48.49314" lon="-2.5869">
        <ele>127.6</ele>
        <time>2013-05-26T08:14:36.000Z</time>
      </trkpt>
      <trkpt lat="48.49317" lon="-2.58685">
        <ele>127.5</ele>
        <time>2013-05-26T08:14:37.000Z</time>
      </trkpt>
      <trkpt lat="48.49321" lon="-2.5868">
        <ele>127.4</ele>
        <time>2013-05-26T08:14:38.000Z</time>
      </trkpt>
      <trkpt lat="48.49325" lon="-2.58675">
        <ele>127.3</ele>
        <time>2013-05-26T08:14:39.000Z</time>
      </trkpt>
      <trkpt lat="48.49328" lon="-2.5867">
        <ele>127.3</ele>
        <time>2013-05-26T08:14:40.000Z</time>
      </trkpt>
      <trkpt lat="48.49332" lon="-2.58665">
        <ele>127.1</ele>
        <time>2013-05-26T08:14:41.000Z</time>
      </trkpt>
      <trkpt lat="48.49336" lon="-2.5866">
        <ele>127.1</ele>
        <time>2013-05-26T08:14:42.000Z</time>
      </trkpt>
      <trkpt lat="48.49339" lon="-2.58655">
        <ele>126.9</ele>
        <time>2013-05-26T08:14:43.000Z</time>
      </trkpt>
      <trkpt lat="48.49343" lon="-2.5865">
        <ele>126.8</ele>
        <time>2013-05-26T08:14:44.000Z</time>
      </trkpt>
      <trkpt lat="48.49347" lon="-2.58644">
        <ele>126.7</ele>
        <time>2013-05-26T08:14:45.000Z</time>
      </trkpt>
      <trkpt lat="48.4935" lon="-2.58639">
        <ele>126.6</ele>
        <time>2013-05-26T08:14:46.000Z</time>
      </trkpt>
      <trkpt lat="48.49354" lon="-2.58634">
        <ele>126.6</ele>
        <time>2013-05-26T08:14:47.000Z</time>
      </trkpt>
      <trkpt lat="48.49358" lon="-2.58629">
        <ele>126.5</ele>
        <time>2013-05-26T08:14:48.000Z</time>
      </trkpt>
      <trkpt lat="48.49361" lon="-2.58623">
        <ele>126.4</ele>
        <time>2013-05-26T08:14:49.000Z</time>
      </trkpt>
      <trkpt lat="48.49365" lon="-2.58618">
        <ele>126.4</ele>
        <time>2013-05-26T08:14:50.000Z</time>
      </trkpt>
      <trkpt lat="48.49369" lon="-2.58613">
        <ele>126.3</ele>
        <time>2013-05-26T08:14:51.000Z</time>
      </trkpt>
      <trkpt lat="48.49372" lon="-2.58608">
        <ele>126.1</ele>
        <time>2013-05-26T08:14:52.000Z</time>
      </trkpt>
      <trkpt lat="48.49376" lon="-2.58603">
        <ele>126</ele>
        <time>2013-05-26T08:14:53.000Z</time>
      </trkpt>
      <trkpt lat="48.49379" lon="-2.58598">
        <ele>125.8</ele>
        <time>2013-05-26T08:14:54.000Z</time>
      </trkpt>
      <trkpt lat="48.49383" lon="-2.58593">
        <ele>125.8</ele>
        <time>2013-05-26T08:14:55.000Z</time>
      </trkpt>
      <trkpt lat="48.49386" lon="-2.58588">
        <ele>125.7</ele>
        <time>2013-05-26T08:14:56.000Z</time>
      </trkpt>
      <trkpt lat="48.4939" lon="-2.58583">
        <ele>125.7</ele>
        <time>2013-05-26T08:14:57.000Z</time>
      </trkpt>
      <trkpt lat="48.49394" lon="-2.58578">
        <ele>125.5</ele>
        <time>2013-05-26T08:14:58.000Z</time>
      </trkpt>
      <trkpt lat="48.49397" lon="-2.58573">
        <ele>125.2</ele>
        <time>2013-05-26T08:14:59.000Z</time>
      </trkpt>
      <trkpt lat="48.49401" lon="-2.58568">
        <ele>125.1</ele>
        <time>2013-05-26T08:15:00.000Z</time>
      </trkpt>
      <trkpt lat="48.49405" lon="-2.58563">
        <ele>125</ele>
        <time>2013-05-26T08:15:01.000Z</time>
      </trkpt>
      <trkpt lat="48.49408" lon="-2.58558">
        <ele>124.7</ele>
        <time>2013-05-26T08:15:02.000Z</time>
      </trkpt>
      <trkpt lat="48.49412" lon="-2.58554">
        <ele>124.6</ele>
        <time>2013-05-26T08:15:03.000Z</time>
      </trkpt>
      <trkpt lat="48.49416" lon="-2.5855">
        <ele>124.5</ele>
        <time>2013-05-26T08:15:04.000Z</time>
      </trkpt>
      <trkpt lat="48.4942" lon="-2.58546">
        <ele>124.5</ele>
        <time>2013-05-26T08:15:05.000Z</time>
      </trkpt>
      <trkpt lat="48.49424" lon="-2.58542">
        <ele>124.5</ele>
        <time>2013-05-26T08:15:06.000Z</time>
      </trkpt>
      <trkpt lat="48.49428" lon="-2.58537">
        <ele>124.4</ele>
        <time>2013-05-26T08:15:07.000Z</time>
      </trkpt>
      <trkpt lat="48.49431" lon="-2.58533">
        <ele>124.3</ele>
        <time>2013-05-26T08:15:08.000Z</time>
      </trkpt>
      <trkpt lat="48.49435" lon="-2.58528">
        <ele>124.2</ele>
        <time>2013-05-26T08:15:09.000Z</time>
      </trkpt>
      <trkpt lat="48.49439" lon="-2.58524">
        <ele>124</ele>
        <time>2013-05-26T08:15:10.000Z</time>
      </trkpt>
      <trkpt lat="48.49443" lon="-2.58519">
        <ele>124</ele>
        <time>2013-05-26T08:15:11.000Z</time>
      </trkpt>
      <trkpt lat="48.49447" lon="-2.58515">
        <ele>124</ele>
        <time>2013-05-26T08:15:12.000Z</time>
      </trkpt>
      <trkpt lat="48.49451" lon="-2.5851">
        <ele>124.1</ele>
        <time>2013-05-26T08:15:13.000Z</time>
      </trkpt>
      <trkpt lat="48.49455" lon="-2.58506">
        <ele>124.2</ele>
        <time>2013-05-26T08:15:14.000Z</time>
      </trkpt>
      <trkpt lat="48.4946" lon="-2.58501">
        <ele>124.1</ele>
        <time>2013-05-26T08:15:15.000Z</time>
      </trkpt>
      <trkpt lat="48.49464" lon="-2.58496">
        <ele>124</ele>
        <time>2013-05-26T08:15:16.000Z</time>
      </trkpt>
      <trkpt lat="48.49469" lon="-2.58491">
        <ele>123.9</ele>
        <time>2013-05-26T08:15:17.000Z</time>
      </trkpt>
      <trkpt lat="48.49473" lon="-2.58485">
        <ele>123.7</ele>
        <time>2013-05-26T08:15:18.000Z</time>
      </trkpt>
      <trkpt lat="48.49477" lon="-2.58479">
        <ele>123.5</ele>
        <time>2013-05-26T08:15:19.000Z</time>
      </trkpt>
      <trkpt lat="48.49482" lon="-2.58473">
        <ele>123.4</ele>
        <time>2013-05-26T08:15:20.000Z</time>
      </trkpt>
      <trkpt lat="48.49486" lon="-2.58467">
        <ele>123.2</ele>
        <time>2013-05-26T08:15:21.000Z</time>
      </trkpt>
      <trkpt lat="48.4949" lon="-2.5846">
        <ele>123</ele>
        <time>2013-05-26T08:15:22.000Z</time>
      </trkpt>
      <trkpt lat="48.49493" lon="-2.58453">
        <ele>122.9</ele>
        <time>2013-05-26T08:15:23.000Z</time>
      </trkpt>
      <trkpt lat="48.49497" lon="-2.58445">
        <ele>122.6</ele>
        <time>2013-05-26T08:15:24.000Z</time>
      </trkpt>
      <trkpt lat="48.495" lon="-2.58437">
        <ele>122.7</ele>
        <time>2013-05-26T08:15:25.000Z</time>
      </trkpt>
      <trkpt lat="48.49503" lon="-2.58428">
        <ele>122.7</ele>
        <time>2013-05-26T08:15:26.000Z</time>
      </trkpt>
      <trkpt lat="48.49505" lon="-2.5842">
        <ele>122.6</ele>
        <time>2013-05-26T08:15:27.000Z</time>
      </trkpt>
      <trkpt lat="48.49507" lon="-2.58412">
        <ele>122.5</ele>
        <time>2013-05-26T08:15:28.000Z</time>
      </trkpt>
      <trkpt lat="48.49508" lon="-2.58403">
        <ele>122.3</ele>
        <time>2013-05-26T08:15:29.000Z</time>
      </trkpt>
      <trkpt lat="48.49508" lon="-2.58395">
        <ele>122.1</ele>
        <time>2013-05-26T08:15:30.000Z</time>
      </trkpt>
      <trkpt lat="48.49509" lon="-2.58388">
        <ele>122</ele>
        <time>2013-05-26T08:15:31.000Z</time>
      </trkpt>
      <trkpt lat="48.49509" lon="-2.58381">
        <ele>121.9</ele>
        <time>2013-05-26T08:15:32.000Z</time>
      </trkpt>
      <trkpt lat="48.4951" lon="-2.58375">
        <ele>121.9</ele>
        <time>2013-05-26T08:15:33.000Z</time>
      </trkpt>
      <trkpt lat="48.49511" lon="-2.58368">
        <ele>121.8</ele>
        <time>2013-05-26T08:15:34.000Z</time>
      </trkpt>
      <trkpt lat="48.49511" lon="-2.58362">
        <ele>121.8</ele>
        <time>2013-05-26T08:15:35.000Z</time>
      </trkpt>
      <trkpt lat="48.49511" lon="-2.58356">
        <ele>121.8</ele>
        <time>2013-05-26T08:15:36.000Z</time>
      </trkpt>
      <trkpt lat="48.4951" lon="-2.58351">
        <ele>121.7</ele>
        <time>2013-05-26T08:15:37.000Z</time>
      </trkpt>
      <trkpt lat="48.4951" lon="-2.58347">
        <ele>121.6</ele>
        <time>2013-05-26T08:15:38.000Z</time>
      </trkpt>
      <trkpt lat="48.49507" lon="-2.58341">
        <ele>121.3</ele>
        <time>2013-05-26T08:15:41.000Z</time>
      </trkpt>
      <trkpt lat="48.49506" lon="-2.58341">
        <ele>121.1</ele>
        <time>2013-05-26T08:15:42.000Z</time>
      </trkpt>
      <trkpt lat="48.49506" lon="-2.58335">
        <ele>120.3</ele>
        <time>2013-05-26T08:15:48.000Z</time>
      </trkpt>
      <trkpt lat="48.49506" lon="-2.58333">
        <ele>119.9</ele>
        <time>2013-05-26T08:15:49.000Z</time>
      </trkpt>
      <trkpt lat="48.49507" lon="-2.58329">
        <ele>119.6</ele>
        <time>2013-05-26T08:15:51.000Z</time>
      </trkpt>
      <trkpt lat="48.49509" lon="-2.58326">
        <ele>119.5</ele>
        <time>2013-05-26T08:15:52.000Z</time>
      </trkpt>
      <trkpt lat="48.4951" lon="-2.58321">
        <ele>119.3</ele>
        <time>2013-05-26T08:15:54.000Z</time>
      </trkpt>
      <trkpt lat="48.49511" lon="-2.58318">
        <ele>119.4</ele>
        <time>2013-05-26T08:15:55.000Z</time>
      </trkpt>
      <trkpt lat="48.49512" lon="-2.58313">
        <ele>119.6</ele>
        <time>2013-05-26T08:15:57.000Z</time>
      </trkpt>
      <trkpt lat="48.49512" lon="-2.58311">
        <ele>119.5</ele>
        <time>2013-05-26T08:15:58.000Z</time>
      </trkpt>
      <trkpt lat="48.49512" lon="-2.58304">
        <ele>119.2</ele>
        <time>2013-05-26T08:16:02.000Z</time>
      </trkpt>
      <trkpt lat="48.49513" lon="-2.58302">
        <ele>119.1</ele>
        <time>2013-05-26T08:16:03.000Z</time>
      </trkpt>
      <trkpt lat="48.49514" lon="-2.58299">
        <ele>119</ele>
        <time>2013-05-26T08:16:17.000Z</time>
      </trkpt>
      <trkpt lat="48.49516" lon="-2.5829">
        <ele>125.8</ele>
        <time>2013-05-26T08:16:20.000Z</time>
      </trkpt>
      <trkpt lat="48.49516" lon="-2.58284">
        <ele>130.5</ele>
        <time>2013-05-26T08:16:22.000Z</time>
      </trkpt>
      <trkpt lat="48.49517" lon="-2.5828">
        <ele>131</ele>
        <time>2013-05-26T08:16:24.000Z</time>
      </trkpt>
      <trkpt lat="48.49518" lon="-2.58274">
        <ele>129.2</ele>
        <time>2013-05-26T08:16:25.000Z</time>
      </trkpt>
      <trkpt lat="48.4952" lon="-2.58266">
        <ele>129.3</ele>
        <time>2013-05-26T08:16:26.000Z</time>
      </trkpt>
      <trkpt lat="48.49521" lon="-2.58259">
        <ele>129.3</ele>
        <time>2013-05-26T08:16:27.000Z</time>
      </trkpt>
      <trkpt lat="48.49524" lon="-2.58251">
        <ele>126.2</ele>
        <time>2013-05-26T08:16:28.000Z</time>
      </trkpt>
      <trkpt lat="48.49525" lon="-2.58245">
        <ele>123.6</ele>
        <time>2013-05-26T08:16:29.000Z</time>
      </trkpt>
      <trkpt lat="48.49527" lon="-2.5824">
        <ele>119.2</ele>
        <time>2013-05-26T08:16:30.000Z</time>
      </trkpt>
      <trkpt lat="48.4953" lon="-2.58237">
        <ele>114.7</ele>
        <time>2013-05-26T08:16:31.000Z</time>
      </trkpt>
      <trkpt lat="48.49532" lon="-2.58232">
        <ele>112</ele>
        <time>2013-05-26T08:16:32.000Z</time>
      </trkpt>
      <trkpt lat="48.49533" lon="-2.58226">
        <ele>111.1</ele>
        <time>2013-05-26T08:16:33.000Z</time>
      </trkpt>
      <trkpt lat="48.49535" lon="-2.58218">
        <ele>109</ele>
        <time>2013-05-26T08:16:34.000Z</time>
      </trkpt>
      <trkpt lat="48.49535" lon="-2.58211">
        <ele>108.1</ele>
        <time>2013-05-26T08:16:35.000Z</time>
      </trkpt>
      <trkpt lat="48.49536" lon="-2.58208">
        <ele>107.4</ele>
        <time>2013-05-26T08:16:36.000Z</time>
      </trkpt>
      <trkpt lat="48.49536" lon="-2.58204">
        <ele>107</ele>
        <time>2013-05-26T08:16:37.000Z</time>
      </trkpt>
      <trkpt lat="48.49536" lon="-2.58201">
        <ele>107.2</ele>
        <time>2013-05-26T08:16:38.000Z</time>
      </trkpt>
      <trkpt lat="48.49533" lon="-2.58196">
        <ele>101.9</ele>
        <time>2013-05-26T08:16:45.000Z</time>
      </trkpt>
      <trkpt lat="48.49533" lon="-2.58195">
        <ele>102.1</ele>
        <time>2013-05-26T08:16:46.000Z</time>
      </trkpt>
      <trkpt lat="48.49529" lon="-2.58194">
        <ele>102.8</ele>
        <time>2013-05-26T08:16:50.000Z</time>
      </trkpt>
      <trkpt lat="48.49528" lon="-2.58193">
        <ele>102.3</ele>
        <time>2013-05-26T08:16:51.000Z</time>
      </trkpt>
      <trkpt lat="48.49524" lon="-2.5819">
        <ele>102.2</ele>
        <time>2013-05-26T08:16:53.000Z</time>
      </trkpt>
      <trkpt lat="48.49523" lon="-2.58188">
        <ele>102.1</ele>
        <time>2013-05-26T08:16:54.000Z</time>
      </trkpt>
      <trkpt lat="48.4952" lon="-2.58184">
        <ele>101.9</ele>
        <time>2013-05-26T08:16:56.000Z</time>
      </trkpt>
      <trkpt lat="48.49518" lon="-2.58181">
        <ele>102</ele>
        <time>2013-05-26T08:16:57.000Z</time>
      </trkpt>
      <trkpt lat="48.49516" lon="-2.58179">
        <ele>102.3</ele>
        <time>2013-05-26T08:16:58.000Z</time>
      </trkpt>
      <trkpt lat="48.49514" lon="-2.58176">
        <ele>102.8</ele>
        <time>2013-05-26T08:16:59.000Z</time>
      </trkpt>
      <trkpt lat="48.49511" lon="-2.58174">
        <ele>103.2</ele>
        <time>2013-05-26T08:17:00.000Z</time>
      </trkpt>
      <trkpt lat="48.49508" lon="-2.58171">
        <ele>103.8</ele>
        <time>2013-05-26T08:17:01.000Z</time>
      </trkpt>
      <trkpt lat="48.49505" lon="-2.58168">
        <ele>104.1</ele>
        <time>2013-05-26T08:17:03.000Z</time>
      </trkpt>
      <trkpt lat="48.49504" lon="-2.58166">
        <ele>104</ele>
        <time>2013-05-26T08:17:04.000Z</time>
      </trkpt>
      <trkpt lat="48.49501" lon="-2.58167">
        <ele>103.4</ele>
        <time>2013-05-26T08:17:06.000Z</time>
      </trkpt>
      <trkpt lat="48.49499" lon="-2.58168">
        <ele>103.3</ele>
        <time>2013-05-26T08:17:07.000Z</time>
      </trkpt>
      <trkpt lat="48.49495" lon="-2.58167">
        <ele>103.8</ele>
        <time>2013-05-26T08:17:09.000Z</time>
      </trkpt>
      <trkpt lat="48.49492" lon="-2.58166">
        <ele>104.1</ele>
        <time>2013-05-26T08:17:10.000Z</time>
      </trkpt>
      <trkpt lat="48.49488" lon="-2.58165">
        <ele>104.9</ele>
        <time>2013-05-26T08:17:12.000Z</time>
      </trkpt>
      <trkpt lat="48.49484" lon="-2.58163">
        <ele>105.9</ele>
        <time>2013-05-26T08:17:13.000Z</time>
      </trkpt>
      <trkpt lat="48.49481" lon="-2.58161">
        <ele>106.4</ele>
        <time>2013-05-26T08:17:14.000Z</time>
      </trkpt>
      <trkpt lat="48.49479" lon="-2.5816">
        <ele>106.8</ele>
        <time>2013-05-26T08:17:15.000Z</time>
      </trkpt>
      <trkpt lat="48.49476" lon="-2.5816">
        <ele>107.3</ele>
        <time>2013-05-26T08:17:17.000Z</time>
      </trkpt>
      <trkpt lat="48.49465" lon="-2.58165">
        <ele>107.9</ele>
        <time>2013-05-26T08:17:20.000Z</time>
      </trkpt>
      <trkpt lat="48.49462" lon="-2.58161">
        <ele>106.6</ele>
        <time>2013-05-26T08:17:23.000Z</time>
      </trkpt>
      <trkpt lat="48.49457" lon="-2.58161">
        <ele>109.5</ele>
        <time>2013-05-26T08:17:24.000Z</time>
      </trkpt>
      <trkpt lat="48.49454" lon="-2.58161">
        <ele>108.6</ele>
        <time>2013-05-26T08:17:26.000Z</time>
      </trkpt>
      <trkpt lat="48.4945" lon="-2.58159">
        <ele>111.9</ele>
        <time>2013-05-26T08:17:27.000Z</time>
      </trkpt>
      <trkpt lat="48.49452" lon="-2.58155">
        <ele>111.3</ele>
        <time>2013-05-26T08:17:31.000Z</time>
      </trkpt>
      <trkpt lat="48.49453" lon="-2.58153">
        <ele>112.3</ele>
        <time>2013-05-26T08:17:32.000Z</time>
      </trkpt>
      <trkpt lat="48.49454" lon="-2.5815">
        <ele>113.2</ele>
        <time>2013-05-26T08:17:33.000Z</time>
      </trkpt>
      <trkpt lat="48.49455" lon="-2.58147">
        <ele>113</ele>
        <time>2013-05-26T08:17:34.000Z</time>
      </trkpt>
      <trkpt lat="48.49456" lon="-2.58141">
        <ele>112.7</ele>
        <time>2013-05-26T08:17:36.000Z</time>
      </trkpt>
      <trkpt lat="48.49457" lon="-2.58139">
        <ele>111.9</ele>
        <time>2013-05-26T08:17:37.000Z</time>
      </trkpt>
      <trkpt lat="48.4946" lon="-2.58134">
        <ele>112.7</ele>
        <time>2013-05-26T08:17:39.000Z</time>
      </trkpt>
      <trkpt lat="48.49462" lon="-2.58132">
        <ele>112.1</ele>
        <time>2013-05-26T08:17:40.000Z</time>
      </trkpt>
      <trkpt lat="48.49465" lon="-2.58131">
        <ele>112.1</ele>
        <time>2013-05-26T08:17:41.000Z</time>
      </trkpt>
      <trkpt lat="48.49469" lon="-2.5813">
        <ele>111.3</ele>
        <time>2013-05-26T08:17:42.000Z</time>
      </trkpt>
      <trkpt lat="48.49471" lon="-2.58129">
        <ele>111.4</ele>
        <time>2013-05-26T08:17:43.000Z</time>
      </trkpt>
      <trkpt lat="48.49474" lon="-2.58127">
        <ele>111.2</ele>
        <time>2013-05-26T08:17:44.000Z</time>
      </trkpt>
      <trkpt lat="48.49477" lon="-2.58125">
        <ele>110.4</ele>
        <time>2013-05-26T08:17:45.000Z</time>
      </trkpt>
      <trkpt lat="48.49479" lon="-2.58125">
        <ele>110.1</ele>
        <time>2013-05-26T08:17:46.000Z</time>
      </trkpt>
      <trkpt lat="48.49482" lon="-2.58126">
        <ele>109.6</ele>
        <time>2013-05-26T08:17:47.000Z</time>
      </trkpt>
      <trkpt lat="48.49485" lon="-2.58127">
        <ele>108.7</ele>
        <time>2013-05-26T08:17:48.000Z</time>
      </trkpt>
      <trkpt lat="48.49489" lon="-2.58129">
        <ele>106.1</ele>
        <time>2013-05-26T08:17:50.000Z</time>
      </trkpt>
      <trkpt lat="48.4949" lon="-2.5813">
        <ele>105.9</ele>
        <time>2013-05-26T08:17:51.000Z</time>
      </trkpt>
      <trkpt lat="48.49492" lon="-2.58132">
        <ele>105.2</ele>
        <time>2013-05-26T08:17:52.000Z</time>
      </trkpt>
      <trkpt lat="48.49494" lon="-2.58134">
        <ele>104.7</ele>
        <time>2013-05-26T08:17:53.000Z</time>
      </trkpt>
      <trkpt lat="48.49498" lon="-2.58137">
        <ele>104.3</ele>
        <time>2013-05-26T08:17:55.000Z</time>
      </trkpt>
      <trkpt lat="48.49499" lon="-2.58138">
        <ele>104.3</ele>
        <time>2013-05-26T08:17:56.000Z</time>
      </trkpt>
      <trkpt lat="48.49503" lon="-2.58138">
        <ele>102.3</ele>
        <time>2013-05-26T08:17:59.000Z</time>
      </trkpt>
      <trkpt lat="48.49506" lon="-2.58138">
        <ele>100.3</ele>
        <time>2013-05-26T08:18:00.000Z</time>
      </trkpt>
      <trkpt lat="48.4951" lon="-2.58139">
        <ele>99.4</ele>
        <time>2013-05-26T08:18:02.000Z</time>
      </trkpt>
      <trkpt lat="48.49511" lon="-2.5814">
        <ele>99.3</ele>
        <time>2013-05-26T08:18:03.000Z</time>
      </trkpt>
      <trkpt lat="48.49515" lon="-2.58141">
        <ele>98.1</ele>
        <time>2013-05-26T08:18:07.000Z</time>
      </trkpt>
      <trkpt lat="48.49516" lon="-2.58141">
        <ele>98</ele>
        <time>2013-05-26T08:18:08.000Z</time>
      </trkpt>
      <trkpt lat="48.49519" lon="-2.58145">
        <ele>98.7</ele>
        <time>2013-05-26T08:18:11.000Z</time>
      </trkpt>
      <trkpt lat="48.4952" lon="-2.58147">
        <ele>98.9</ele>
        <time>2013-05-26T08:18:12.000Z</time>
      </trkpt>
      <trkpt lat="48.49522" lon="-2.5815">
        <ele>98.9</ele>
        <time>2013-05-26T08:18:13.000Z</time>
      </trkpt>
      <trkpt lat="48.49524" lon="-2.58152">
        <ele>99</ele>
        <time>2013-05-26T08:18:14.000Z</time>
      </trkpt>
      <trkpt lat="48.49527" lon="-2.58156">
        <ele>98.4</ele>
        <time>2013-05-26T08:18:16.000Z</time>
      </trkpt>
      <trkpt lat="48.49529" lon="-2.58157">
        <ele>98.3</ele>
        <time>2013-05-26T08:18:17.000Z</time>
      </trkpt>
      <trkpt lat="48.49524" lon="-2.58152">
        <ele>105.7</ele>
        <time>2013-05-26T08:18:21.000Z</time>
      </trkpt>
      <trkpt lat="48.49542" lon="-2.58157">
        <ele>112.7</ele>
        <time>2013-05-26T08:18:22.000Z</time>
      </trkpt>
      <trkpt lat="48.49546" lon="-2.58162">
        <ele>111.4</ele>
        <time>2013-05-26T08:18:23.000Z</time>
      </trkpt>
      <trkpt lat="48.49549" lon="-2.58169">
        <ele>105.9</ele>
        <time>2013-05-26T08:18:24.000Z</time>
      </trkpt>
      <trkpt lat="48.49551" lon="-2.58171">
        <ele>102.8</ele>
        <time>2013-05-26T08:18:25.000Z</time>
      </trkpt>
      <trkpt lat="48.49554" lon="-2.58172">
        <ele>102.6</ele>
        <time>2013-05-26T08:18:26.000Z</time>
      </trkpt>
      <trkpt lat="48.49557" lon="-2.58175">
        <ele>102.9</ele>
        <time>2013-05-26T08:18:28.000Z</time>
      </trkpt>
      <trkpt lat="48.49557" lon="-2.58177">
        <ele>103</ele>
        <time>2013-05-26T08:18:29.000Z</time>
      </trkpt>
      <trkpt lat="48.49559" lon="-2.5818">
        <ele>102.6</ele>
        <time>2013-05-26T08:18:30.000Z</time>
      </trkpt>
      <trkpt lat="48.4956" lon="-2.58183">
        <ele>100.5</ele>
        <time>2013-05-26T08:18:31.000Z</time>
      </trkpt>
      <trkpt lat="48.49561" lon="-2.58189">
        <ele>101.6</ele>
        <time>2013-05-26T08:18:34.000Z</time>
      </trkpt>
      <trkpt lat="48.49561" lon="-2.58191">
        <ele>102.2</ele>
        <time>2013-05-26T08:18:35.000Z</time>
      </trkpt>
      <trkpt lat="48.49562" lon="-2.58195">
        <ele>102.1</ele>
        <time>2013-05-26T08:18:38.000Z</time>
      </trkpt>
      <trkpt lat="48.49562" lon="-2.58197">
        <ele>102.2</ele>
        <time>2013-05-26T08:18:39.000Z</time>
      </trkpt>
      <trkpt lat="48.49563" lon="-2.58204">
        <ele>100.7</ele>
        <time>2013-05-26T08:18:42.000Z</time>
      </trkpt>
      <trkpt lat="48.49562" lon="-2.58204">
        <ele>101.1</ele>
        <time>2013-05-26T08:18:43.000Z</time>
      </trkpt>
      <trkpt lat="48.49561" lon="-2.5821">
        <ele>100.5</ele>
        <time>2013-05-26T08:19:05.000Z</time>
      </trkpt>
      <trkpt lat="48.49561" lon="-2.58211">
        <ele>100.3</ele>
        <time>2013-05-26T08:19:06.000Z</time>
      </trkpt>
      <trkpt lat="48.49559" lon="-2.5821">
        <ele>101.4</ele>
        <time>2013-05-26T08:19:17.000Z</time>
      </trkpt>
      <trkpt lat="48.49565" lon="-2.58209">
        <ele>99.8</ele>
        <time>2013-05-26T08:19:21.000Z</time>
      </trkpt>
      <trkpt lat="48.49564" lon="-2.58209">
        <ele>100.8</ele>
        <time>2013-05-26T08:19:23.000Z</time>
      </trkpt>
      <trkpt lat="48.49557" lon="-2.58201">
        <ele>103</ele>
        <time>2013-05-26T08:19:24.000Z</time>
      </trkpt>
      <trkpt lat="48.49555" lon="-2.58207">
        <ele>100.9</ele>
        <time>2013-05-26T08:19:26.000Z</time>
      </trkpt>
      <trkpt lat="48.49555" lon="-2.58209">
        <ele>101.1</ele>
        <time>2013-05-26T08:19:27.000Z</time>
      </trkpt>
      <trkpt lat="48.49554" lon="-2.58212">
        <ele>100.8</ele>
        <time>2013-05-26T08:19:28.000Z</time>
      </trkpt>
      <trkpt lat="48.49553" lon="-2.58215">
        <ele>100.6</ele>
        <time>2013-05-26T08:19:29.000Z</time>
      </trkpt>
      <trkpt lat="48.49551" lon="-2.5822">
        <ele>99.7</ele>
        <time>2013-05-26T08:19:30.000Z</time>
      </trkpt>
      <trkpt lat="48.49551" lon="-2.58224">
        <ele>99.3</ele>
        <time>2013-05-26T08:19:31.000Z</time>
      </trkpt>
      <trkpt lat="48.49551" lon="-2.58229">
        <ele>98.3</ele>
        <time>2013-05-26T08:19:33.000Z</time>
      </trkpt>
      <trkpt lat="48.4955" lon="-2.58232">
        <ele>96.9</ele>
        <time>2013-05-26T08:19:34.000Z</time>
      </trkpt>
      <trkpt lat="48.49548" lon="-2.58238">
        <ele>96</ele>
        <time>2013-05-26T08:19:36.000Z</time>
      </trkpt>
      <trkpt lat="48.49548" lon="-2.58241">
        <ele>96.5</ele>
        <time>2013-05-26T08:19:37.000Z</time>
      </trkpt>
      <trkpt lat="48.49547" lon="-2.58246">
        <ele>96.2</ele>
        <time>2013-05-26T08:19:39.000Z</time>
      </trkpt>
      <trkpt lat="48.49547" lon="-2.58248">
        <ele>96.7</ele>
        <time>2013-05-26T08:19:40.000Z</time>
      </trkpt>
      <trkpt lat="48.49545" lon="-2.58253">
        <ele>103.3</ele>
        <time>2013-05-26T08:19:45.000Z</time>
      </trkpt>
      <trkpt lat="48.49544" lon="-2.58255">
        <ele>104.2</ele>
        <time>2013-05-26T08:19:46.000Z</time>
      </trkpt>
      <trkpt lat="48.49544" lon="-2.5826">
        <ele>105</ele>
        <time>2013-05-26T08:19:48.000Z</time>
      </trkpt>
      <trkpt lat="48.49544" lon="-2.58264">
        <ele>103.3</ele>
        <time>2013-05-26T08:19:49.000Z</time>
      </trkpt>
      <trkpt lat="48.49544" lon="-2.58267">
        <ele>103.1</ele>
        <time>2013-05-26T08:19:50.000Z</time>
      </trkpt>
      <trkpt lat="48.49544" lon="-2.58271">
        <ele>103.2</ele>
        <time>2013-05-26T08:19:51.000Z</time>
      </trkpt>
      <trkpt lat="48.49543" lon="-2.58274">
        <ele>103.7</ele>
        <time>2013-05-26T08:19:52.000Z</time>
      </trkpt>
      <trkpt lat="48.49542" lon="-2.58277">
        <ele>104.4</ele>
        <time>2013-05-26T08:19:53.000Z</time>
      </trkpt>
      <trkpt lat="48.49541" lon="-2.58283">
        <ele>104.8</ele>
        <time>2013-05-26T08:19:55.000Z</time>
      </trkpt>
      <trkpt lat="48.4954" lon="-2.58288">
        <ele>104.6</ele>
        <time>2013-05-26T08:19:56.000Z</time>
      </trkpt>
      <trkpt lat="48.49539" lon="-2.58293">
        <ele>105</ele>
        <time>2013-05-26T08:19:57.000Z</time>
      </trkpt>
      <trkpt lat="48.49539" lon="-2.58296">
        <ele>104.9</ele>
        <time>2013-05-26T08:19:58.000Z</time>
      </trkpt>
      <trkpt lat="48.49537" lon="-2.58302">
        <ele>104.5</ele>
        <time>2013-05-26T08:20:01.000Z</time>
      </trkpt>
      <trkpt lat="48.49536" lon="-2.58303">
        <ele>104.5</ele>
        <time>2013-05-26T08:20:02.000Z</time>
      </trkpt>
      <trkpt lat="48.49535" lon="-2.58308">
        <ele>105.5</ele>
        <time>2013-05-26T08:20:09.000Z</time>
      </trkpt>
      <trkpt lat="48.49534" lon="-2.5831">
        <ele>105.8</ele>
        <time>2013-05-26T08:20:10.000Z</time>
      </trkpt>
      <trkpt lat="48.49536" lon="-2.58314">
        <ele>106.7</ele>
        <time>2013-05-26T08:20:15.000Z</time>
      </trkpt>
      <trkpt lat="48.49536" lon="-2.58316">
        <ele>106.8</ele>
        <time>2013-05-26T08:20:16.000Z</time>
      </trkpt>
      <trkpt lat="48.49535" lon="-2.58318">
        <ele>106.9</ele>
        <time>2013-05-26T08:20:17.000Z</time>
      </trkpt>
      <trkpt lat="48.49529" lon="-2.58331">
        <ele>104.7</ele>
        <time>2013-05-26T08:20:21.000Z</time>
      </trkpt>
      <trkpt lat="48.49527" lon="-2.58335">
        <ele>104.6</ele>
        <time>2013-05-26T08:20:23.000Z</time>
      </trkpt>
      <trkpt lat="48.49523" lon="-2.5834">
        <ele>109.6</ele>
        <time>2013-05-26T08:20:24.000Z</time>
      </trkpt>
      <trkpt lat="48.49524" lon="-2.58343">
        <ele>111.6</ele>
        <time>2013-05-26T08:20:25.000Z</time>
      </trkpt>
      <trkpt lat="48.49524" lon="-2.5835">
        <ele>114.2</ele>
        <time>2013-05-26T08:20:26.000Z</time>
      </trkpt>
      <trkpt lat="48.49526" lon="-2.58354">
        <ele>112.4</ele>
        <time>2013-05-26T08:20:27.000Z</time>
      </trkpt>
      <trkpt lat="48.49527" lon="-2.58358">
        <ele>111.5</ele>
        <time>2013-05-26T08:20:28.000Z</time>
      </trkpt>
      <trkpt lat="48.49529" lon="-2.58362">
        <ele>111.3</ele>
        <time>2013-05-26T08:20:29.000Z</time>
      </trkpt>
      <trkpt lat="48.49531" lon="-2.58367">
        <ele>110.4</ele>
        <time>2013-05-26T08:20:30.000Z</time>
      </trkpt>
      <trkpt lat="48.49533" lon="-2.58372">
        <ele>110.2</ele>
        <time>2013-05-26T08:20:31.000Z</time>
      </trkpt>
      <trkpt lat="48.49534" lon="-2.58379">
        <ele>110.9</ele>
        <time>2013-05-26T08:20:32.000Z</time>
      </trkpt>
      <trkpt lat="48.49535" lon="-2.58385">
        <ele>112.8</ele>
        <time>2013-05-26T08:20:33.000Z</time>
      </trkpt>
      <trkpt lat="48.49535" lon="-2.58389">
        <ele>114.7</ele>
        <time>2013-05-26T08:20:34.000Z</time>
      </trkpt>
      <trkpt lat="48.49538" lon="-2.58391">
        <ele>112.9</ele>
        <time>2013-05-26T08:20:39.000Z</time>
      </trkpt>
      <trkpt lat="48.4954" lon="-2.58392">
        <ele>114.5</ele>
        <time>2013-05-26T08:20:40.000Z</time>
      </trkpt>
      <trkpt lat="48.49541" lon="-2.58397">
        <ele>113.7</ele>
        <time>2013-05-26T08:20:42.000Z</time>
      </trkpt>
      <trkpt lat="48.49542" lon="-2.58399">
        <ele>114.1</ele>
        <time>2013-05-26T08:20:43.000Z</time>
      </trkpt>
      <trkpt lat="48.49543" lon="-2.58405">
        <ele>116</ele>
        <time>2013-05-26T08:20:46.000Z</time>
      </trkpt>
      <trkpt lat="48.49543" lon="-2.58407">
        <ele>116.2</ele>
        <time>2013-05-26T08:20:47.000Z</time>
      </trkpt>
      <trkpt lat="48.49545" lon="-2.58413">
        <ele>115.1</ele>
        <time>2013-05-26T08:20:49.000Z</time>
      </trkpt>
      <trkpt lat="48.49545" lon="-2.58416">
        <ele>114.3</ele>
        <time>2013-05-26T08:20:50.000Z</time>
      </trkpt>
      <trkpt lat="48.49546" lon="-2.58418">
        <ele>112.8</ele>
        <time>2013-05-26T08:20:51.000Z</time>
      </trkpt>
      <trkpt lat="48.49547" lon="-2.58422">
        <ele>112.2</ele>
        <time>2013-05-26T08:20:52.000Z</time>
      </trkpt>
      <trkpt lat="48.49549" lon="-2.58426">
        <ele>112.1</ele>
        <time>2013-05-26T08:20:53.000Z</time>
      </trkpt>
      <trkpt lat="48.4955" lon="-2.58431">
        <ele>111.5</ele>
        <time>2013-05-26T08:20:54.000Z</time>
      </trkpt>
      <trkpt lat="48.49551" lon="-2.58435">
        <ele>111.6</ele>
        <time>2013-05-26T08:20:55.000Z</time>
      </trkpt>
      <trkpt lat="48.49553" lon="-2.58439">
        <ele>111.4</ele>
        <time>2013-05-26T08:20:56.000Z</time>
      </trkpt>
      <trkpt lat="48.49554" lon="-2.58444">
        <ele>110.9</ele>
        <time>2013-05-26T08:20:57.000Z</time>
      </trkpt>
      <trkpt lat="48.49556" lon="-2.58449">
        <ele>110.5</ele>
        <time>2013-05-26T08:20:58.000Z</time>
      </trkpt>
      <trkpt lat="48.49558" lon="-2.58453">
        <ele>109.8</ele>
        <time>2013-05-26T08:20:59.000Z</time>
      </trkpt>
      <trkpt lat="48.49561" lon="-2.58457">
        <ele>109.5</ele>
        <time>2013-05-26T08:21:00.000Z</time>
      </trkpt>
      <trkpt lat="48.49564" lon="-2.5846">
        <ele>109.4</ele>
        <time>2013-05-26T08:21:01.000Z</time>
      </trkpt>
      <trkpt lat="48.49567" lon="-2.58463">
        <ele>110</ele>
        <time>2013-05-26T08:21:02.000Z</time>
      </trkpt>
      <trkpt lat="48.49569" lon="-2.58465">
        <ele>110.4</ele>
        <time>2013-05-26T08:21:03.000Z</time>
      </trkpt>
      <trkpt lat="48.49571" lon="-2.58468">
        <ele>110.7</ele>
        <time>2013-05-26T08:21:04.000Z</time>
      </trkpt>
      <trkpt lat="48.49573" lon="-2.58471">
        <ele>110.8</ele>
        <time>2013-05-26T08:21:05.000Z</time>
      </trkpt>
      <trkpt lat="48.49575" lon="-2.58474">
        <ele>111.2</ele>
        <time>2013-05-26T08:21:06.000Z</time>
      </trkpt>
      <trkpt lat="48.49578" lon="-2.58478">
        <ele>111.6</ele>
        <time>2013-05-26T08:21:07.000Z</time>
      </trkpt>
      <trkpt lat="48.49582" lon="-2.58484">
        <ele>112.5</ele>
        <time>2013-05-26T08:21:08.000Z</time>
      </trkpt>
      <trkpt lat="48.49585" lon="-2.58488">
        <ele>113</ele>
        <time>2013-05-26T08:21:09.000Z</time>
      </trkpt>
      <trkpt lat="48.49588" lon="-2.58491">
        <ele>113.1</ele>
        <time>2013-05-26T08:21:10.000Z</time>
      </trkpt>
      <trkpt lat="48.4959" lon="-2.58494">
        <ele>113</ele>
        <time>2013-05-26T08:21:11.000Z</time>
      </trkpt>
      <trkpt lat="48.49592" lon="-2.58497">
        <ele>113.2</ele>
        <time>2013-05-26T08:21:12.000Z</time>
      </trkpt>
      <trkpt lat="48.49593" lon="-2.585">
        <ele>113.3</ele>
        <time>2013-05-26T08:21:13.000Z</time>
      </trkpt>
      <trkpt lat="48.49594" lon="-2.58506">
        <ele>113.1</ele>
        <time>2013-05-26T08:21:15.000Z</time>
      </trkpt>
      <trkpt lat="48.49595" lon="-2.58509">
        <ele>113.2</ele>
        <time>2013-05-26T08:21:16.000Z</time>
      </trkpt>
      <trkpt lat="48.49595" lon="-2.58511">
        <ele>113.3</ele>
        <time>2013-05-26T08:21:17.000Z</time>
      </trkpt>
      <trkpt lat="48.49594" lon="-2.58525">
        <ele>102.6</ele>
        <time>2013-05-26T08:21:21.000Z</time>
      </trkpt>
      <trkpt lat="48.49603" lon="-2.58537">
        <ele>90.5</ele>
        <time>2013-05-26T08:21:22.000Z</time>
      </trkpt>
      <trkpt lat="48.496" lon="-2.5854">
        <ele>101.9</ele>
        <time>2013-05-26T08:21:24.000Z</time>
      </trkpt>
      <trkpt lat="48.49597" lon="-2.58541">
        <ele>107.5</ele>
        <time>2013-05-26T08:21:25.000Z</time>
      </trkpt>
      <trkpt lat="48.49595" lon="-2.58544">
        <ele>109.6</ele>
        <time>2013-05-26T08:21:27.000Z</time>
      </trkpt>
      <trkpt lat="48.49593" lon="-2.58544">
        <ele>113.2</ele>
        <time>2013-05-26T08:21:28.000Z</time>
      </trkpt>
      <trkpt lat="48.49591" lon="-2.58549">
        <ele>113.3</ele>
        <time>2013-05-26T08:21:31.000Z</time>
      </trkpt>
      <trkpt lat="48.4959" lon="-2.58551">
        <ele>112.9</ele>
        <time>2013-05-26T08:21:32.000Z</time>
      </trkpt>
      <trkpt lat="48.49589" lon="-2.58556">
        <ele>112.5</ele>
        <time>2013-05-26T08:21:34.000Z</time>
      </trkpt>
      <trkpt lat="48.49588" lon="-2.58558">
        <ele>113.5</ele>
        <time>2013-05-26T08:21:35.000Z</time>
      </trkpt>
      <trkpt lat="48.49586" lon="-2.58563">
        <ele>114</ele>
        <time>2013-05-26T08:21:37.000Z</time>
      </trkpt>
      <trkpt lat="48.49586" lon="-2.58565">
        <ele>115</ele>
        <time>2013-05-26T08:21:38.000Z</time>
      </trkpt>
      <trkpt lat="48.49585" lon="-2.58568">
        <ele>114.9</ele>
        <time>2013-05-26T08:21:39.000Z</time>
      </trkpt>
      <trkpt lat="48.49584" lon="-2.58572">
        <ele>115.3</ele>
        <time>2013-05-26T08:21:40.000Z</time>
      </trkpt>
      <trkpt lat="48.49583" lon="-2.58576">
        <ele>114.3</ele>
        <time>2013-05-26T08:21:41.000Z</time>
      </trkpt>
      <trkpt lat="48.49582" lon="-2.5858">
        <ele>114.4</ele>
        <time>2013-05-26T08:21:42.000Z</time>
      </trkpt>
      <trkpt lat="48.49581" lon="-2.58584">
        <ele>115</ele>
        <time>2013-05-26T08:21:44.000Z</time>
      </trkpt>
      <trkpt lat="48.4958" lon="-2.58586">
        <ele>115.3</ele>
        <time>2013-05-26T08:21:45.000Z</time>
      </trkpt>
      <trkpt lat="48.49578" lon="-2.58591">
        <ele>115.2</ele>
        <time>2013-05-26T08:21:47.000Z</time>
      </trkpt>
      <trkpt lat="48.49577" lon="-2.58593">
        <ele>114.3</ele>
        <time>2013-05-26T08:21:48.000Z</time>
      </trkpt>
      <trkpt lat="48.49576" lon="-2.58598">
        <ele>112.5</ele>
        <time>2013-05-26T08:21:50.000Z</time>
      </trkpt>
      <trkpt lat="48.49576" lon="-2.586">
        <ele>111.6</ele>
        <time>2013-05-26T08:21:51.000Z</time>
      </trkpt>
      <trkpt lat="48.49575" lon="-2.58605">
        <ele>110.5</ele>
        <time>2013-05-26T08:21:53.000Z</time>
      </trkpt>
      <trkpt lat="48.49574" lon="-2.58607">
        <ele>111</ele>
        <time>2013-05-26T08:21:54.000Z</time>
      </trkpt>
      <trkpt lat="48.49573" lon="-2.58611">
        <ele>110.7</ele>
        <time>2013-05-26T08:21:56.000Z</time>
      </trkpt>
      <trkpt lat="48.49572" lon="-2.58614">
        <ele>110.5</ele>
        <time>2013-05-26T08:21:57.000Z</time>
      </trkpt>
      <trkpt lat="48.49571" lon="-2.58619">
        <ele>111.3</ele>
        <time>2013-05-26T08:21:59.000Z</time>
      </trkpt>
      <trkpt lat="48.4957" lon="-2.58621">
        <ele>111.4</ele>
        <time>2013-05-26T08:22:00.000Z</time>
      </trkpt>
      <trkpt lat="48.49569" lon="-2.58627">
        <ele>111.4</ele>
        <time>2013-05-26T08:22:02.000Z</time>
      </trkpt>
      <trkpt lat="48.49568" lon="-2.58629">
        <ele>111.5</ele>
        <time>2013-05-26T08:22:03.000Z</time>
      </trkpt>
      <trkpt lat="48.49567" lon="-2.58634">
        <ele>111.5</ele>
        <time>2013-05-26T08:22:05.000Z</time>
      </trkpt>
      <trkpt lat="48.49567" lon="-2.58637">
        <ele>111.4</ele>
        <time>2013-05-26T08:22:06.000Z</time>
      </trkpt>
      <trkpt lat="48.49565" lon="-2.58642">
        <ele>111.5</ele>
        <time>2013-05-26T08:22:08.000Z</time>
      </trkpt>
      <trkpt lat="48.49565" lon="-2.58645">
        <ele>111.4</ele>
        <time>2013-05-26T08:22:09.000Z</time>
      </trkpt>
      <trkpt lat="48.49564" lon="-2.58649">
        <ele>111.3</ele>
        <time>2013-05-26T08:22:11.000Z</time>
      </trkpt>
      <trkpt lat="48.49564" lon="-2.58651">
        <ele>111.3</ele>
        <time>2013-05-26T08:22:12.000Z</time>
      </trkpt>
      <trkpt lat="48.49563" lon="-2.58656">
        <ele>111.3</ele>
        <time>2013-05-26T08:22:14.000Z</time>
      </trkpt>
      <trkpt lat="48.49563" lon="-2.58658">
        <ele>111.5</ele>
        <time>2013-05-26T08:22:15.000Z</time>
      </trkpt>
      <trkpt lat="48.4956" lon="-2.58663">
        <ele>114</ele>
        <time>2013-05-26T08:22:52.000Z</time>
      </trkpt>
      <trkpt lat="48.49559" lon="-2.58664">
        <ele>113.9</ele>
        <time>2013-05-26T08:22:53.000Z</time>
      </trkpt>
      <trkpt lat="48.49558" lon="-2.58669">
        <ele>113.5</ele>
        <time>2013-05-26T08:22:55.000Z</time>
      </trkpt>
      <trkpt lat="48.49558" lon="-2.58671">
        <ele>113.4</ele>
        <time>2013-05-26T08:22:56.000Z</time>
      </trkpt>
      <trkpt lat="48.49556" lon="-2.58678">
        <ele>113</ele>
        <time>2013-05-26T08:22:58.000Z</time>
      </trkpt>
      <trkpt lat="48.49556" lon="-2.58681">
        <ele>112.8</ele>
        <time>2013-05-26T08:22:59.000Z</time>
      </trkpt>
      <trkpt lat="48.49555" lon="-2.58684">
        <ele>112.7</ele>
        <time>2013-05-26T08:23:00.000Z</time>
      </trkpt>
      <trkpt lat="48.49555" lon="-2.58688">
        <ele>112.7</ele>
        <time>2013-05-26T08:23:01.000Z</time>
      </trkpt>
      <trkpt lat="48.49554" lon="-2.58691">
        <ele>112.6</ele>
        <time>2013-05-26T08:23:02.000Z</time>
      </trkpt>
      <trkpt lat="48.49554" lon="-2.58695">
        <ele>112.5</ele>
        <time>2013-05-26T08:23:03.000Z</time>
      </trkpt>
      <trkpt lat="48.49553" lon="-2.58698">
        <ele>112.4</ele>
        <time>2013-05-26T08:23:04.000Z</time>
      </trkpt>
      <trkpt lat="48.49553" lon="-2.58702">
        <ele>112.4</ele>
        <time>2013-05-26T08:23:05.000Z</time>
      </trkpt>
      <trkpt lat="48.49552" lon="-2.58706">
        <ele>112.3</ele>
        <time>2013-05-26T08:23:06.000Z</time>
      </trkpt>
      <trkpt lat="48.49552" lon="-2.5871">
        <ele>112.3</ele>
        <time>2013-05-26T08:23:07.000Z</time>
      </trkpt>
      <trkpt lat="48.49551" lon="-2.58713">
        <ele>112.2</ele>
        <time>2013-05-26T08:23:08.000Z</time>
      </trkpt>
      <trkpt lat="48.4955" lon="-2.58717">
        <ele>112.1</ele>
        <time>2013-05-26T08:23:09.000Z</time>
      </trkpt>
      <trkpt lat="48.4955" lon="-2.58721">
        <ele>112</ele>
        <time>2013-05-26T08:23:10.000Z</time>
      </trkpt>
      <trkpt lat="48.49549" lon="-2.58725">
        <ele>111.9</ele>
        <time>2013-05-26T08:23:11.000Z</time>
      </trkpt>
      <trkpt lat="48.49548" lon="-2.58729">
        <ele>111.9</ele>
        <time>2013-05-26T08:23:12.000Z</time>
      </trkpt>
      <trkpt lat="48.49548" lon="-2.58733">
        <ele>111.9</ele>
        <time>2013-05-26T08:23:13.000Z</time>
      </trkpt>
      <trkpt lat="48.49547" lon="-2.58738">
        <ele>111.8</ele>
        <time>2013-05-26T08:23:14.000Z</time>
      </trkpt>
      <trkpt lat="48.49546" lon="-2.58742">
        <ele>111.8</ele>
        <time>2013-05-26T08:23:15.000Z</time>
      </trkpt>
      <trkpt lat="48.49545" lon="-2.58746">
        <ele>111.8</ele>
        <time>2013-05-26T08:23:16.000Z</time>
      </trkpt>
      <trkpt lat="48.49544" lon="-2.58751">
        <ele>111.7</ele>
        <time>2013-05-26T08:23:17.000Z</time>
      </trkpt>
      <trkpt lat="48.49549" lon="-2.58772">
        <ele>114.4</ele>
        <time>2013-05-26T08:23:19.000Z</time>
      </trkpt>
      <trkpt lat="48.49542" lon="-2.58775">
        <ele>114.9</ele>
        <time>2013-05-26T08:23:21.000Z</time>
      </trkpt>
      <trkpt lat="48.49542" lon="-2.58777">
        <ele>112</ele>
        <time>2013-05-26T08:23:22.000Z</time>
      </trkpt>
      <trkpt lat="48.4954" lon="-2.58781">
        <ele>112.6</ele>
        <time>2013-05-26T08:23:23.000Z</time>
      </trkpt>
      <trkpt lat="48.49539" lon="-2.58785">
        <ele>112.1</ele>
        <time>2013-05-26T08:23:24.000Z</time>
      </trkpt>
      <trkpt lat="48.49537" lon="-2.58789">
        <ele>111.9</ele>
        <time>2013-05-26T08:23:25.000Z</time>
      </trkpt>
      <trkpt lat="48.49536" lon="-2.58793">
        <ele>112.2</ele>
        <time>2013-05-26T08:23:26.000Z</time>
      </trkpt>
      <trkpt lat="48.49535" lon="-2.58798">
        <ele>112.2</ele>
        <time>2013-05-26T08:23:27.000Z</time>
      </trkpt>
      <trkpt lat="48.49535" lon="-2.58803">
        <ele>112</ele>
        <time>2013-05-26T08:23:28.000Z</time>
      </trkpt>
      <trkpt lat="48.49533" lon="-2.58806">
        <ele>114</ele>
        <time>2013-05-26T08:23:29.000Z</time>
      </trkpt>
      <trkpt lat="48.49532" lon="-2.58811">
        <ele>114.1</ele>
        <time>2013-05-26T08:23:30.000Z</time>
      </trkpt>
      <trkpt lat="48.49531" lon="-2.58816">
        <ele>114.6</ele>
        <time>2013-05-26T08:23:31.000Z</time>
      </trkpt>
      <trkpt lat="48.49531" lon="-2.58821">
        <ele>114.7</ele>
        <time>2013-05-26T08:23:32.000Z</time>
      </trkpt>
      <trkpt lat="48.4953" lon="-2.58825">
        <ele>114.9</ele>
        <time>2013-05-26T08:23:33.000Z</time>
      </trkpt>
      <trkpt lat="48.49529" lon="-2.5883">
        <ele>114.9</ele>
        <time>2013-05-26T08:23:34.000Z</time>
      </trkpt>
      <trkpt lat="48.49528" lon="-2.58835">
        <ele>114.8</ele>
        <time>2013-05-26T08:23:35.000Z</time>
      </trkpt>
      <trkpt lat="48.49527" lon="-2.5884">
        <ele>114.6</ele>
        <time>2013-05-26T08:23:36.000Z</time>
      </trkpt>
      <trkpt lat="48.49526" lon="-2.58845">
        <ele>114.6</ele>
        <time>2013-05-26T08:23:37.000Z</time>
      </trkpt>
      <trkpt lat="48.49525" lon="-2.5885">
        <ele>114.5</ele>
        <time>2013-05-26T08:23:38.000Z</time>
      </trkpt>
      <trkpt lat="48.49525" lon="-2.58855">
        <ele>114.5</ele>
        <time>2013-05-26T08:23:39.000Z</time>
      </trkpt>
      <trkpt lat="48.49524" lon="-2.5886">
        <ele>114.5</ele>
        <time>2013-05-26T08:23:40.000Z</time>
      </trkpt>
      <trkpt lat="48.49523" lon="-2.58865">
        <ele>114.4</ele>
        <time>2013-05-26T08:23:41.000Z</time>
      </trkpt>
      <trkpt lat="48.49522" lon="-2.58871">
        <ele>114.5</ele>
        <time>2013-05-26T08:23:42.000Z</time>
      </trkpt>
      <trkpt lat="48.49521" lon="-2.58876">
        <ele>114.4</ele>
        <time>2013-05-26T08:23:43.000Z</time>
      </trkpt>
      <trkpt lat="48.49521" lon="-2.58881">
        <ele>114.3</ele>
        <time>2013-05-26T08:23:44.000Z</time>
      </trkpt>
      <trkpt lat="48.49521" lon="-2.58885">
        <ele>114.4</ele>
        <time>2013-05-26T08:23:45.000Z</time>
      </trkpt>
      <trkpt lat="48.49523" lon="-2.58888">
        <ele>114.5</ele>
        <time>2013-05-26T08:23:46.000Z</time>
      </trkpt>
      <trkpt lat="48.49526" lon="-2.5889">
        <ele>114.6</ele>
        <time>2013-05-26T08:23:47.000Z</time>
      </trkpt>
      <trkpt lat="48.49529" lon="-2.5889">
        <ele>114.8</ele>
        <time>2013-05-26T08:23:48.000Z</time>
      </trkpt>
      <trkpt lat="48.49532" lon="-2.58891">
        <ele>114.7</ele>
        <time>2013-05-26T08:23:49.000Z</time>
      </trkpt>
      <trkpt lat="48.49536" lon="-2.58891">
        <ele>114.4</ele>
        <time>2013-05-26T08:23:50.000Z</time>
      </trkpt>
      <trkpt lat="48.49539" lon="-2.58891">
        <ele>114.3</ele>
        <time>2013-05-26T08:23:51.000Z</time>
      </trkpt>
      <trkpt lat="48.49542" lon="-2.58891">
        <ele>114.2</ele>
        <time>2013-05-26T08:23:52.000Z</time>
      </trkpt>
      <trkpt lat="48.49545" lon="-2.58891">
        <ele>114.2</ele>
        <time>2013-05-26T08:23:53.000Z</time>
      </trkpt>
      <trkpt lat="48.49549" lon="-2.58891">
        <ele>114.1</ele>
        <time>2013-05-26T08:23:54.000Z</time>
      </trkpt>
      <trkpt lat="48.49553" lon="-2.58891">
        <ele>114.1</ele>
        <time>2013-05-26T08:23:55.000Z</time>
      </trkpt>
      <trkpt lat="48.49556" lon="-2.58892">
        <ele>114.1</ele>
        <time>2013-05-26T08:23:56.000Z</time>
      </trkpt>
      <trkpt lat="48.4956" lon="-2.58892">
        <ele>114</ele>
        <time>2013-05-26T08:23:57.000Z</time>
      </trkpt>
      <trkpt lat="48.49564" lon="-2.58892">
        <ele>114</ele>
        <time>2013-05-26T08:23:58.000Z</time>
      </trkpt>
      <trkpt lat="48.49568" lon="-2.58892">
        <ele>114</ele>
        <time>2013-05-26T08:23:59.000Z</time>
      </trkpt>
      <trkpt lat="48.49572" lon="-2.58892">
        <ele>114</ele>
        <time>2013-05-26T08:24:00.000Z</time>
      </trkpt>
      <trkpt lat="48.49576" lon="-2.58891">
        <ele>113.9</ele>
        <time>2013-05-26T08:24:01.000Z</time>
      </trkpt>
      <trkpt lat="48.4958" lon="-2.58891">
        <ele>113.8</ele>
        <time>2013-05-26T08:24:02.000Z</time>
      </trkpt>
      <trkpt lat="48.49585" lon="-2.58891">
        <ele>113.7</ele>
        <time>2013-05-26T08:24:03.000Z</time>
      </trkpt>
      <trkpt lat="48.49589" lon="-2.58891">
        <ele>113.5</ele>
        <time>2013-05-26T08:24:04.000Z</time>
      </trkpt>
      <trkpt lat="48.49593" lon="-2.58891">
        <ele>113.3</ele>
        <time>2013-05-26T08:24:05.000Z</time>
      </trkpt>
      <trkpt lat="48.49598" lon="-2.58891">
        <ele>113.1</ele>
        <time>2013-05-26T08:24:06.000Z</time>
      </trkpt>
      <trkpt lat="48.49602" lon="-2.58891">
        <ele>112.8</ele>
        <time>2013-05-26T08:24:07.000Z</time>
      </trkpt>
      <trkpt lat="48.49607" lon="-2.5889">
        <ele>112.5</ele>
        <time>2013-05-26T08:24:08.000Z</time>
      </trkpt>
      <trkpt lat="48.49612" lon="-2.5889">
        <ele>112.3</ele>
        <time>2013-05-26T08:24:09.000Z</time>
      </trkpt>
      <trkpt lat="48.49617" lon="-2.5889">
        <ele>112</ele>
        <time>2013-05-26T08:24:10.000Z</time>
      </trkpt>
      <trkpt lat="48.49622" lon="-2.5889">
        <ele>111.9</ele>
        <time>2013-05-26T08:24:11.000Z</time>
      </trkpt>
      <trkpt lat="48.49627" lon="-2.5889">
        <ele>111.8</ele>
        <time>2013-05-26T08:24:12.000Z</time>
      </trkpt>
      <trkpt lat="48.49633" lon="-2.5889">
        <ele>111.7</ele>
        <time>2013-05-26T08:24:13.000Z</time>
      </trkpt>
      <trkpt lat="48.49638" lon="-2.5889">
        <ele>111.6</ele>
        <time>2013-05-26T08:24:14.000Z</time>
      </trkpt>
      <trkpt lat="48.49643" lon="-2.58889">
        <ele>111.3</ele>
        <time>2013-05-26T08:24:15.000Z</time>
      </trkpt>
      <trkpt lat="48.49649" lon="-2.58889">
        <ele>111.1</ele>
        <time>2013-05-26T08:24:16.000Z</time>
      </trkpt>
      <trkpt lat="48.49654" lon="-2.58888">
        <ele>110.9</ele>
        <time>2013-05-26T08:24:17.000Z</time>
      </trkpt>
      <trkpt lat="48.49674" lon="-2.58865">
        <ele>106.6</ele>
        <time>2013-05-26T08:24:20.000Z</time>
      </trkpt>
      <trkpt lat="48.49679" lon="-2.58868">
        <ele>105.6</ele>
        <time>2013-05-26T08:24:22.000Z</time>
      </trkpt>
      <trkpt lat="48.49683" lon="-2.58871">
        <ele>108.1</ele>
        <time>2013-05-26T08:24:23.000Z</time>
      </trkpt>
      <trkpt lat="48.49688" lon="-2.58868">
        <ele>108</ele>
        <time>2013-05-26T08:24:24.000Z</time>
      </trkpt>
      <trkpt lat="48.49694" lon="-2.58868">
        <ele>107.8</ele>
        <time>2013-05-26T08:24:25.000Z</time>
      </trkpt>
      <trkpt lat="48.49699" lon="-2.58866">
        <ele>108.5</ele>
        <time>2013-05-26T08:24:26.000Z</time>
      </trkpt>
      <trkpt lat="48.49704" lon="-2.58865">
        <ele>108.3</ele>
        <time>2013-05-26T08:24:27.000Z</time>
      </trkpt>
      <trkpt lat="48.49708" lon="-2.58863">
        <ele>108.3</ele>
        <time>2013-05-26T08:24:28.000Z</time>
      </trkpt>
      <trkpt lat="48.49713" lon="-2.58862">
        <ele>107.9</ele>
        <time>2013-05-26T08:24:29.000Z</time>
      </trkpt>
      <trkpt lat="48.49718" lon="-2.58861">
        <ele>108.2</ele>
        <time>2013-05-26T08:24:30.000Z</time>
      </trkpt>
      <trkpt lat="48.49724" lon="-2.58859">
        <ele>107.8</ele>
        <time>2013-05-26T08:24:31.000Z</time>
      </trkpt>
      <trkpt lat="48.49729" lon="-2.58857">
        <ele>107.5</ele>
        <time>2013-05-26T08:24:32.000Z</time>
      </trkpt>
      <trkpt lat="48.49734" lon="-2.58855">
        <ele>107.2</ele>
        <time>2013-05-26T08:24:33.000Z</time>
      </trkpt>
      <trkpt lat="48.49739" lon="-2.58853">
        <ele>107.1</ele>
        <time>2013-05-26T08:24:34.000Z</time>
      </trkpt>
      <trkpt lat="48.49744" lon="-2.5885">
        <ele>107.2</ele>
        <time>2013-05-26T08:24:35.000Z</time>
      </trkpt>
      <trkpt lat="48.49749" lon="-2.58846">
        <ele>107.3</ele>
        <time>2013-05-26T08:24:36.000Z</time>
      </trkpt>
      <trkpt lat="48.49753" lon="-2.58842">
        <ele>107.7</ele>
        <time>2013-05-26T08:24:37.000Z</time>
      </trkpt>
      <trkpt lat="48.49758" lon="-2.58838">
        <ele>108.2</ele>
        <time>2013-05-26T08:24:38.000Z</time>
      </trkpt>
      <trkpt lat="48.49762" lon="-2.58833">
        <ele>108.2</ele>
        <time>2013-05-26T08:24:39.000Z</time>
      </trkpt>
      <trkpt lat="48.49767" lon="-2.58829">
        <ele>108.1</ele>
        <time>2013-05-26T08:24:40.000Z</time>
      </trkpt>
      <trkpt lat="48.49771" lon="-2.58824">
        <ele>108.1</ele>
        <time>2013-05-26T08:24:41.000Z</time>
      </trkpt>
      <trkpt lat="48.49775" lon="-2.58819">
        <ele>108.1</ele>
        <time>2013-05-26T08:24:42.000Z</time>
      </trkpt>
      <trkpt lat="48.4978" lon="-2.58815">
        <ele>108.2</ele>
        <time>2013-05-26T08:24:43.000Z</time>
      </trkpt>
      <trkpt lat="48.49784" lon="-2.5881">
        <ele>108.2</ele>
        <time>2013-05-26T08:24:44.000Z</time>
      </trkpt>
      <trkpt lat="48.49788" lon="-2.58805">
        <ele>108</ele>
        <time>2013-05-26T08:24:45.000Z</time>
      </trkpt>
      <trkpt lat="48.49793" lon="-2.588">
        <ele>107.6</ele>
        <time>2013-05-26T08:24:46.000Z</time>
      </trkpt>
      <trkpt lat="48.49797" lon="-2.58795">
        <ele>107.3</ele>
        <time>2013-05-26T08:24:47.000Z</time>
      </trkpt>
      <trkpt lat="48.49802" lon="-2.5879">
        <ele>106.8</ele>
        <time>2013-05-26T08:24:48.000Z</time>
      </trkpt>
      <trkpt lat="48.49807" lon="-2.58784">
        <ele>106.1</ele>
        <time>2013-05-26T08:24:49.000Z</time>
      </trkpt>
      <trkpt lat="48.49812" lon="-2.58778">
        <ele>106</ele>
        <time>2013-05-26T08:24:50.000Z</time>
      </trkpt>
      <trkpt lat="48.49818" lon="-2.58771">
        <ele>105.4</ele>
        <time>2013-05-26T08:24:51.000Z</time>
      </trkpt>
      <trkpt lat="48.49824" lon="-2.58765">
        <ele>104.9</ele>
        <time>2013-05-26T08:24:52.000Z</time>
      </trkpt>
      <trkpt lat="48.4983" lon="-2.58758">
        <ele>104.4</ele>
        <time>2013-05-26T08:24:53.000Z</time>
      </trkpt>
      <trkpt lat="48.49836" lon="-2.58751">
        <ele>104</ele>
        <time>2013-05-26T08:24:54.000Z</time>
      </trkpt>
      <trkpt lat="48.49842" lon="-2.58744">
        <ele>103.5</ele>
        <time>2013-05-26T08:24:55.000Z</time>
      </trkpt>
      <trkpt lat="48.49848" lon="-2.58737">
        <ele>103</ele>
        <time>2013-05-26T08:24:56.000Z</time>
      </trkpt>
      <trkpt lat="48.49854" lon="-2.58729">
        <ele>102.6</ele>
        <time>2013-05-26T08:24:57.000Z</time>
      </trkpt>
      <trkpt lat="48.49861" lon="-2.58721">
        <ele>102.2</ele>
        <time>2013-05-26T08:24:58.000Z</time>
      </trkpt>
      <trkpt lat="48.49867" lon="-2.58714">
        <ele>101.9</ele>
        <time>2013-05-26T08:24:59.000Z</time>
      </trkpt>
      <trkpt lat="48.49873" lon="-2.58706">
        <ele>101.4</ele>
        <time>2013-05-26T08:25:00.000Z</time>
      </trkpt>
      <trkpt lat="48.49877" lon="-2.587">
        <ele>100.9</ele>
        <time>2013-05-26T08:25:01.000Z</time>
      </trkpt>
      <trkpt lat="48.49882" lon="-2.58694">
        <ele>100.4</ele>
        <time>2013-05-26T08:25:02.000Z</time>
      </trkpt>
      <trkpt lat="48.49886" lon="-2.58689">
        <ele>100</ele>
        <time>2013-05-26T08:25:03.000Z</time>
      </trkpt>
      <trkpt lat="48.49889" lon="-2.58682">
        <ele>99.5</ele>
        <time>2013-05-26T08:25:04.000Z</time>
      </trkpt>
      <trkpt lat="48.49893" lon="-2.58677">
        <ele>99.2</ele>
        <time>2013-05-26T08:25:05.000Z</time>
      </trkpt>
      <trkpt lat="48.49896" lon="-2.58673">
        <ele>99</ele>
        <time>2013-05-26T08:25:06.000Z</time>
      </trkpt>
      <trkpt lat="48.49898" lon="-2.5867">
        <ele>98.8</ele>
        <time>2013-05-26T08:25:07.000Z</time>
      </trkpt>
      <trkpt lat="48.499" lon="-2.58664">
        <ele>98.4</ele>
        <time>2013-05-26T08:25:10.000Z</time>
      </trkpt>
      <trkpt lat="48.49901" lon="-2.58663">
        <ele>98.3</ele>
        <time>2013-05-26T08:25:11.000Z</time>
      </trkpt>
      <trkpt lat="48.499" lon="-2.58662">
        <ele>96.8</ele>
        <time>2013-05-26T08:25:21.000Z</time>
      </trkpt>
      <trkpt lat="48.49898" lon="-2.58654">
        <ele>102</ele>
        <time>2013-05-26T08:25:23.000Z</time>
      </trkpt>
      <trkpt lat="48.49897" lon="-2.5865">
        <ele>104.3</ele>
        <time>2013-05-26T08:25:24.000Z</time>
      </trkpt>
      <trkpt lat="48.49896" lon="-2.58646">
        <ele>106.8</ele>
        <time>2013-05-26T08:25:25.000Z</time>
      </trkpt>
      <trkpt lat="48.49896" lon="-2.58641">
        <ele>107.1</ele>
        <time>2013-05-26T08:25:26.000Z</time>
      </trkpt>
      <trkpt lat="48.49896" lon="-2.58636">
        <ele>108</ele>
        <time>2013-05-26T08:25:27.000Z</time>
      </trkpt>
      <trkpt lat="48.49895" lon="-2.58631">
        <ele>112</ele>
        <time>2013-05-26T08:25:28.000Z</time>
      </trkpt>
      <trkpt lat="48.49895" lon="-2.58625">
        <ele>112.8</ele>
        <time>2013-05-26T08:25:29.000Z</time>
      </trkpt>
      <trkpt lat="48.49895" lon="-2.58621">
        <ele>113.7</ele>
        <time>2013-05-26T08:25:30.000Z</time>
      </trkpt>
      <trkpt lat="48.49895" lon="-2.58618">
        <ele>115.1</ele>
        <time>2013-05-26T08:25:31.000Z</time>
      </trkpt>
      <trkpt lat="48.49895" lon="-2.58614">
        <ele>116.4</ele>
        <time>2013-05-26T08:25:32.000Z</time>
      </trkpt>
      <trkpt lat="48.49894" lon="-2.5861">
        <ele>117</ele>
        <time>2013-05-26T08:25:33.000Z</time>
      </trkpt>
      <trkpt lat="48.49893" lon="-2.58606">
        <ele>117.4</ele>
        <time>2013-05-26T08:25:34.000Z</time>
      </trkpt>
      <trkpt lat="48.49893" lon="-2.58601">
        <ele>116</ele>
        <time>2013-05-26T08:25:35.000Z</time>
      </trkpt>
      <trkpt lat="48.49892" lon="-2.58596">
        <ele>115.2</ele>
        <time>2013-05-26T08:25:36.000Z</time>
      </trkpt>
      <trkpt lat="48.4989" lon="-2.58592">
        <ele>114.9</ele>
        <time>2013-05-26T08:25:37.000Z</time>
      </trkpt>
      <trkpt lat="48.49888" lon="-2.58588">
        <ele>113.7</ele>
        <time>2013-05-26T08:25:38.000Z</time>
      </trkpt>
      <trkpt lat="48.49886" lon="-2.58584">
        <ele>112.4</ele>
        <time>2013-05-26T08:25:39.000Z</time>
      </trkpt>
      <trkpt lat="48.49883" lon="-2.58579">
        <ele>112.7</ele>
        <time>2013-05-26T08:25:40.000Z</time>
      </trkpt>
      <trkpt lat="48.4988" lon="-2.58575">
        <ele>111.7</ele>
        <time>2013-05-26T08:25:41.000Z</time>
      </trkpt>
      <trkpt lat="48.49876" lon="-2.58572">
        <ele>111.5</ele>
        <time>2013-05-26T08:25:42.000Z</time>
      </trkpt>
      <trkpt lat="48.49873" lon="-2.5857">
        <ele>112.6</ele>
        <time>2013-05-26T08:25:43.000Z</time>
      </trkpt>
      <trkpt lat="48.49869" lon="-2.58569">
        <ele>113.1</ele>
        <time>2013-05-26T08:25:44.000Z</time>
      </trkpt>
      <trkpt lat="48.49866" lon="-2.58569">
        <ele>113.4</ele>
        <time>2013-05-26T08:25:45.000Z</time>
      </trkpt>
      <trkpt lat="48.49864" lon="-2.58569">
        <ele>114</ele>
        <time>2013-05-26T08:25:46.000Z</time>
      </trkpt>
      <trkpt lat="48.49861" lon="-2.58569">
        <ele>113.2</ele>
        <time>2013-05-26T08:25:47.000Z</time>
      </trkpt>
      <trkpt lat="48.49858" lon="-2.58567">
        <ele>112.4</ele>
        <time>2013-05-26T08:25:49.000Z</time>
      </trkpt>
      <trkpt lat="48.49856" lon="-2.58566">
        <ele>112.7</ele>
        <time>2013-05-26T08:25:50.000Z</time>
      </trkpt>
      <trkpt lat="48.49851" lon="-2.58564">
        <ele>108.8</ele>
        <time>2013-05-26T08:25:53.000Z</time>
      </trkpt>
      <trkpt lat="48.4985" lon="-2.58562">
        <ele>109</ele>
        <time>2013-05-26T08:25:54.000Z</time>
      </trkpt>
      <trkpt lat="48.49847" lon="-2.58558">
        <ele>104.3</ele>
        <time>2013-05-26T08:26:04.000Z</time>
      </trkpt>
      <trkpt lat="48.49847" lon="-2.58557">
        <ele>104.3</ele>
        <time>2013-05-26T08:26:05.000Z</time>
      </trkpt>
      <trkpt lat="48.49843" lon="-2.58556">
        <ele>103.2</ele>
        <time>2013-05-26T08:26:11.000Z</time>
      </trkpt>
      <trkpt lat="48.49842" lon="-2.58555">
        <ele>102.9</ele>
        <time>2013-05-26T08:26:12.000Z</time>
      </trkpt>
      <trkpt lat="48.49838" lon="-2.58553">
        <ele>102.8</ele>
        <time>2013-05-26T08:26:15.000Z</time>
      </trkpt>
      <trkpt lat="48.49837" lon="-2.58552">
        <ele>102.6</ele>
        <time>2013-05-26T08:26:16.000Z</time>
      </trkpt>
      <trkpt lat="48.49835" lon="-2.58552">
        <ele>102.7</ele>
        <time>2013-05-26T08:26:17.000Z</time>
      </trkpt>
      <trkpt lat="48.49825" lon="-2.58553">
        <ele>99.9</ele>
        <time>2013-05-26T08:26:21.000Z</time>
      </trkpt>
      <trkpt lat="48.49815" lon="-2.58549">
        <ele>95.3</ele>
        <time>2013-05-26T08:26:22.000Z</time>
      </trkpt>
      <trkpt lat="48.49811" lon="-2.58545">
        <ele>91.4</ele>
        <time>2013-05-26T08:26:23.000Z</time>
      </trkpt>
      <trkpt lat="48.49804" lon="-2.58538">
        <ele>94.2</ele>
        <time>2013-05-26T08:26:24.000Z</time>
      </trkpt>
      <trkpt lat="48.49801" lon="-2.58536">
        <ele>94.5</ele>
        <time>2013-05-26T08:26:25.000Z</time>
      </trkpt>
      <trkpt lat="48.49801" lon="-2.58534">
        <ele>94.1</ele>
        <time>2013-05-26T08:26:26.000Z</time>
      </trkpt>
      <trkpt lat="48.49798" lon="-2.5853">
        <ele>97</ele>
        <time>2013-05-26T08:26:31.000Z</time>
      </trkpt>
      <trkpt lat="48.49796" lon="-2.58528">
        <ele>97</ele>
        <time>2013-05-26T08:26:32.000Z</time>
      </trkpt>
      <trkpt lat="48.49793" lon="-2.58528">
        <ele>97.9</ele>
        <time>2013-05-26T08:26:34.000Z</time>
      </trkpt>
      <trkpt lat="48.49792" lon="-2.58528">
        <ele>97.9</ele>
        <time>2013-05-26T08:26:35.000Z</time>
      </trkpt>
      <trkpt lat="48.49788" lon="-2.58529">
        <ele>97.7</ele>
        <time>2013-05-26T08:26:37.000Z</time>
      </trkpt>
      <trkpt lat="48.49786" lon="-2.58529">
        <ele>97.9</ele>
        <time>2013-05-26T08:26:38.000Z</time>
      </trkpt>
      <trkpt lat="48.49783" lon="-2.58528">
        <ele>98.9</ele>
        <time>2013-05-26T08:26:39.000Z</time>
      </trkpt>
      <trkpt lat="48.4978" lon="-2.58528">
        <ele>99.7</ele>
        <time>2013-05-26T08:26:40.000Z</time>
      </trkpt>
      <trkpt lat="48.49777" lon="-2.58527">
        <ele>101.5</ele>
        <time>2013-05-26T08:26:41.000Z</time>
      </trkpt>
      <trkpt lat="48.49775" lon="-2.58527">
        <ele>102.9</ele>
        <time>2013-05-26T08:26:42.000Z</time>
      </trkpt>
      <trkpt lat="48.49773" lon="-2.58526">
        <ele>104.9</ele>
        <time>2013-05-26T08:26:43.000Z</time>
      </trkpt>
      <trkpt lat="48.4977" lon="-2.58525">
        <ele>105.5</ele>
        <time>2013-05-26T08:26:44.000Z</time>
      </trkpt>
      <trkpt lat="48.49767" lon="-2.58525">
        <ele>106.6</ele>
        <time>2013-05-26T08:26:45.000Z</time>
      </trkpt>
      <trkpt lat="48.49764" lon="-2.58524">
        <ele>107.5</ele>
        <time>2013-05-26T08:26:46.000Z</time>
      </trkpt>
      <trkpt lat="48.4976" lon="-2.58524">
        <ele>109.4</ele>
        <time>2013-05-26T08:26:48.000Z</time>
      </trkpt>
      <trkpt lat="48.49757" lon="-2.58524">
        <ele>108.6</ele>
        <time>2013-05-26T08:26:49.000Z</time>
      </trkpt>
      <trkpt lat="48.49754" lon="-2.58523">
        <ele>107.3</ele>
        <time>2013-05-26T08:26:50.000Z</time>
      </trkpt>
      <trkpt lat="48.49752" lon="-2.58523">
        <ele>106.3</ele>
        <time>2013-05-26T08:26:51.000Z</time>
      </trkpt>
      <trkpt lat="48.4975" lon="-2.58522">
        <ele>106.4</ele>
        <time>2013-05-26T08:26:52.000Z</time>
      </trkpt>
      <trkpt lat="48.49748" lon="-2.58522">
        <ele>106.4</ele>
        <time>2013-05-26T08:26:53.000Z</time>
      </trkpt>
      <trkpt lat="48.49743" lon="-2.58522">
        <ele>106.6</ele>
        <time>2013-05-26T08:26:55.000Z</time>
      </trkpt>
      <trkpt lat="48.49741" lon="-2.58523">
        <ele>106.9</ele>
        <time>2013-05-26T08:26:56.000Z</time>
      </trkpt>
      <trkpt lat="48.49737" lon="-2.58524">
        <ele>106.5</ele>
        <time>2013-05-26T08:26:58.000Z</time>
      </trkpt>
      <trkpt lat="48.49735" lon="-2.58524">
        <ele>106.2</ele>
        <time>2013-05-26T08:26:59.000Z</time>
      </trkpt>
      <trkpt lat="48.49731" lon="-2.58524">
        <ele>106</ele>
        <time>2013-05-26T08:27:02.000Z</time>
      </trkpt>
      <trkpt lat="48.4973" lon="-2.58524">
        <ele>106.2</ele>
        <time>2013-05-26T08:27:03.000Z</time>
      </trkpt>
      <trkpt lat="48.49725" lon="-2.58524">
        <ele>106.7</ele>
        <time>2013-05-26T08:27:05.000Z</time>
      </trkpt>
      <trkpt lat="48.49722" lon="-2.58524">
        <ele>106.8</ele>
        <time>2013-05-26T08:27:06.000Z</time>
      </trkpt>
      <trkpt lat="48.49718" lon="-2.58524">
        <ele>106.7</ele>
        <time>2013-05-26T08:27:08.000Z</time>
      </trkpt>
      <trkpt lat="48.49715" lon="-2.58525">
        <ele>106.7</ele>
        <time>2013-05-26T08:27:09.000Z</time>
      </trkpt>
      <trkpt lat="48.49712" lon="-2.58525">
        <ele>107.1</ele>
        <time>2013-05-26T08:27:11.000Z</time>
      </trkpt>
      <trkpt lat="48.4971" lon="-2.58526">
        <ele>107.2</ele>
        <time>2013-05-26T08:27:12.000Z</time>
      </trkpt>
      <trkpt lat="48.49706" lon="-2.58527">
        <ele>107</ele>
        <time>2013-05-26T08:27:14.000Z</time>
      </trkpt>
      <trkpt lat="48.49704" lon="-2.58527">
        <ele>106.9</ele>
        <time>2013-05-26T08:27:15.000Z</time>
      </trkpt>
      <trkpt lat="48.49701" lon="-2.58528">
        <ele>107</ele>
        <time>2013-05-26T08:27:17.000Z</time>
      </trkpt>
      <trkpt lat="48.49691" lon="-2.58538">
        <ele>108.3</ele>
        <time>2013-05-26T08:27:21.000Z</time>
      </trkpt>
      <trkpt lat="48.4968" lon="-2.58543">
        <ele>107.8</ele>
        <time>2013-05-26T08:27:22.000Z</time>
      </trkpt>
      <trkpt lat="48.49679" lon="-2.58544">
        <ele>105.6</ele>
        <time>2013-05-26T08:27:23.000Z</time>
      </trkpt>
      <trkpt lat="48.49676" lon="-2.58548">
        <ele>108.9</ele>
        <time>2013-05-26T08:27:24.000Z</time>
      </trkpt>
      <trkpt lat="48.49673" lon="-2.58549">
        <ele>107.8</ele>
        <time>2013-05-26T08:27:27.000Z</time>
      </trkpt>
      <trkpt lat="48.49671" lon="-2.58549">
        <ele>108.1</ele>
        <time>2013-05-26T08:27:28.000Z</time>
      </trkpt>
      <trkpt lat="48.49667" lon="-2.58549">
        <ele>109.2</ele>
        <time>2013-05-26T08:27:46.000Z</time>
      </trkpt>
      <trkpt lat="48.49666" lon="-2.58548">
        <ele>109</ele>
        <time>2013-05-26T08:27:47.000Z</time>
      </trkpt>
      <trkpt lat="48.49662" lon="-2.58546">
        <ele>109</ele>
        <time>2013-05-26T08:27:50.000Z</time>
      </trkpt>
      <trkpt lat="48.4966" lon="-2.58545">
        <ele>107.6</ele>
        <time>2013-05-26T08:27:51.000Z</time>
      </trkpt>
      <trkpt lat="48.49657" lon="-2.58545">
        <ele>108.1</ele>
        <time>2013-05-26T08:27:53.000Z</time>
      </trkpt>
      <trkpt lat="48.49655" lon="-2.58546">
        <ele>107.8</ele>
        <time>2013-05-26T08:27:54.000Z</time>
      </trkpt>
      <trkpt lat="48.49651" lon="-2.58545">
        <ele>108</ele>
        <time>2013-05-26T08:27:56.000Z</time>
      </trkpt>
      <trkpt lat="48.49649" lon="-2.58545">
        <ele>108.4</ele>
        <time>2013-05-26T08:27:57.000Z</time>
      </trkpt>
      <trkpt lat="48.49645" lon="-2.58547">
        <ele>109.3</ele>
        <time>2013-05-26T08:27:59.000Z</time>
      </trkpt>
      <trkpt lat="48.49643" lon="-2.58548">
        <ele>109.4</ele>
        <time>2013-05-26T08:28:00.000Z</time>
      </trkpt>
      <trkpt lat="48.49639" lon="-2.5855">
        <ele>109.6</ele>
        <time>2013-05-26T08:28:02.000Z</time>
      </trkpt>
      <trkpt lat="48.49637" lon="-2.5855">
        <ele>109.8</ele>
        <time>2013-05-26T08:28:03.000Z</time>
      </trkpt>
      <trkpt lat="48.49634" lon="-2.58551">
        <ele>110.5</ele>
        <time>2013-05-26T08:28:05.000Z</time>
      </trkpt>
      <trkpt lat="48.49633" lon="-2.5855">
        <ele>110.5</ele>
        <time>2013-05-26T08:28:06.000Z</time>
      </trkpt>
      <trkpt lat="48.49629" lon="-2.5855">
        <ele>110.5</ele>
        <time>2013-05-26T08:28:08.000Z</time>
      </trkpt>
      <trkpt lat="48.49627" lon="-2.5855">
        <ele>110.6</ele>
        <time>2013-05-26T08:28:09.000Z</time>
      </trkpt>
      <trkpt lat="48.49624" lon="-2.58549">
        <ele>110.8</ele>
        <time>2013-05-26T08:28:10.000Z</time>
      </trkpt>
      <trkpt lat="48.49622" lon="-2.58549">
        <ele>110.8</ele>
        <time>2013-05-26T08:28:11.000Z</time>
      </trkpt>
      <trkpt lat="48.49619" lon="-2.58548">
        <ele>110.7</ele>
        <time>2013-05-26T08:28:12.000Z</time>
      </trkpt>
      <trkpt lat="48.49617" lon="-2.58547">
        <ele>110.5</ele>
        <time>2013-05-26T08:28:13.000Z</time>
      </trkpt>
      <trkpt lat="48.49614" lon="-2.58547">
        <ele>110.5</ele>
        <time>2013-05-26T08:28:14.000Z</time>
      </trkpt>
      <trkpt lat="48.49611" lon="-2.58546">
        <ele>110.3</ele>
        <time>2013-05-26T08:28:15.000Z</time>
      </trkpt>
      <trkpt lat="48.49611" lon="-2.58541">
        <ele>92.3</ele>
        <time>2013-05-26T08:28:23.000Z</time>
      </trkpt>
      <trkpt lat="48.49613" lon="-2.58539">
        <ele>93.9</ele>
        <time>2013-05-26T08:28:24.000Z</time>
      </trkpt>
      <trkpt lat="48.49615" lon="-2.58537">
        <ele>94.1</ele>
        <time>2013-05-26T08:28:25.000Z</time>
      </trkpt>
      <trkpt lat="48.4962" lon="-2.58532">
        <ele>91.2</ele>
        <time>2013-05-26T08:28:26.000Z</time>
      </trkpt>
      <trkpt lat="48.49623" lon="-2.58529">
        <ele>90.3</ele>
        <time>2013-05-26T08:28:27.000Z</time>
      </trkpt>
      <trkpt lat="48.49626" lon="-2.58525">
        <ele>92.3</ele>
        <time>2013-05-26T08:28:28.000Z</time>
      </trkpt>
      <trkpt lat="48.49629" lon="-2.58521">
        <ele>94.8</ele>
        <time>2013-05-26T08:28:30.000Z</time>
      </trkpt>
      <trkpt lat="48.4963" lon="-2.58522">
        <ele>97.5</ele>
        <time>2013-05-26T08:28:31.000Z</time>
      </trkpt>
      <trkpt lat="48.49634" lon="-2.58522">
        <ele>96</ele>
        <time>2013-05-26T08:28:33.000Z</time>
      </trkpt>
      <trkpt lat="48.49635" lon="-2.58522">
        <ele>95.5</ele>
        <time>2013-05-26T08:28:34.000Z</time>
      </trkpt>
      <trkpt lat="48.49639" lon="-2.58525">
        <ele>99.4</ele>
        <time>2013-05-26T08:28:38.000Z</time>
      </trkpt>
      <trkpt lat="48.4964" lon="-2.58526">
        <ele>98.6</ele>
        <time>2013-05-26T08:28:39.000Z</time>
      </trkpt>
      <trkpt lat="48.49643" lon="-2.58529">
        <ele>96.3</ele>
        <time>2013-05-26T08:28:42.000Z</time>
      </trkpt>
      <trkpt lat="48.49644" lon="-2.58529">
        <ele>96.7</ele>
        <time>2013-05-26T08:28:43.000Z</time>
      </trkpt>
      <trkpt lat="48.49648" lon="-2.58528">
        <ele>97.3</ele>
        <time>2013-05-26T08:28:45.000Z</time>
      </trkpt>
      <trkpt lat="48.49649" lon="-2.58528">
        <ele>96.8</ele>
        <time>2013-05-26T08:28:46.000Z</time>
      </trkpt>
      <trkpt lat="48.49652" lon="-2.58527">
        <ele>96.6</ele>
        <time>2013-05-26T08:28:47.000Z</time>
      </trkpt>
      <trkpt lat="48.49654" lon="-2.58526">
        <ele>96.6</ele>
        <time>2013-05-26T08:28:48.000Z</time>
      </trkpt>
      <trkpt lat="48.49658" lon="-2.58525">
        <ele>96.9</ele>
        <time>2013-05-26T08:28:50.000Z</time>
      </trkpt>
      <trkpt lat="48.4966" lon="-2.58524">
        <ele>96</ele>
        <time>2013-05-26T08:28:51.000Z</time>
      </trkpt>
      <trkpt lat="48.49664" lon="-2.58525">
        <ele>94.7</ele>
        <time>2013-05-26T08:28:53.000Z</time>
      </trkpt>
      <trkpt lat="48.49666" lon="-2.58524">
        <ele>94</ele>
        <time>2013-05-26T08:28:54.000Z</time>
      </trkpt>
      <trkpt lat="48.4967" lon="-2.58521">
        <ele>93</ele>
        <time>2013-05-26T08:28:56.000Z</time>
      </trkpt>
      <trkpt lat="48.49672" lon="-2.58519">
        <ele>92.9</ele>
        <time>2013-05-26T08:28:57.000Z</time>
      </trkpt>
      <trkpt lat="48.49675" lon="-2.58517">
        <ele>92.4</ele>
        <time>2013-05-26T08:28:58.000Z</time>
      </trkpt>
      <trkpt lat="48.49679" lon="-2.58516">
        <ele>91.6</ele>
        <time>2013-05-26T08:28:59.000Z</time>
      </trkpt>
      <trkpt lat="48.49683" lon="-2.58514">
        <ele>90.9</ele>
        <time>2013-05-26T08:29:00.000Z</time>
      </trkpt>
      <trkpt lat="48.49688" lon="-2.58512">
        <ele>90.2</ele>
        <time>2013-05-26T08:29:01.000Z</time>
      </trkpt>
      <trkpt lat="48.49693" lon="-2.5851">
        <ele>89.5</ele>
        <time>2013-05-26T08:29:02.000Z</time>
      </trkpt>
      <trkpt lat="48.49699" lon="-2.58509">
        <ele>88.5</ele>
        <time>2013-05-26T08:29:03.000Z</time>
      </trkpt>
      <trkpt lat="48.49703" lon="-2.58507">
        <ele>88.2</ele>
        <time>2013-05-26T08:29:04.000Z</time>
      </trkpt>
      <trkpt lat="48.49708" lon="-2.58507">
        <ele>87.7</ele>
        <time>2013-05-26T08:29:05.000Z</time>
      </trkpt>
      <trkpt lat="48.49713" lon="-2.58507">
        <ele>87.4</ele>
        <time>2013-05-26T08:29:06.000Z</time>
      </trkpt>
      <trkpt lat="48.49718" lon="-2.58507">
        <ele>87.2</ele>
        <time>2013-05-26T08:29:07.000Z</time>
      </trkpt>
      <trkpt lat="48.49722" lon="-2.58506">
        <ele>87.1</ele>
        <time>2013-05-26T08:29:08.000Z</time>
      </trkpt>
      <trkpt lat="48.49727" lon="-2.58505">
        <ele>87.4</ele>
        <time>2013-05-26T08:29:09.000Z</time>
      </trkpt>
      <trkpt lat="48.49731" lon="-2.58505">
        <ele>87.5</ele>
        <time>2013-05-26T08:29:10.000Z</time>
      </trkpt>
      <trkpt lat="48.49734" lon="-2.58506">
        <ele>87.6</ele>
        <time>2013-05-26T08:29:11.000Z</time>
      </trkpt>
      <trkpt lat="48.49738" lon="-2.58506">
        <ele>88</ele>
        <time>2013-05-26T08:29:12.000Z</time>
      </trkpt>
      <trkpt lat="48.49741" lon="-2.58506">
        <ele>88.2</ele>
        <time>2013-05-26T08:29:13.000Z</time>
      </trkpt>
      <trkpt lat="48.49745" lon="-2.58507">
        <ele>88.6</ele>
        <time>2013-05-26T08:29:14.000Z</time>
      </trkpt>
      <trkpt lat="48.49748" lon="-2.58507">
        <ele>88.8</ele>
        <time>2013-05-26T08:29:15.000Z</time>
      </trkpt>
      <trkpt lat="48.49752" lon="-2.58507">
        <ele>89.1</ele>
        <time>2013-05-26T08:29:16.000Z</time>
      </trkpt>
      <trkpt lat="48.49755" lon="-2.58507">
        <ele>89.3</ele>
        <time>2013-05-26T08:29:17.000Z</time>
      </trkpt>
      <trkpt lat="48.49775" lon="-2.58498">
        <ele>89.1</ele>
        <time>2013-05-26T08:29:21.000Z</time>
      </trkpt>
      <trkpt lat="48.49785" lon="-2.58502">
        <ele>91.1</ele>
        <time>2013-05-26T08:29:22.000Z</time>
      </trkpt>
      <trkpt lat="48.49789" lon="-2.58505">
        <ele>90.7</ele>
        <time>2013-05-26T08:29:23.000Z</time>
      </trkpt>
      <trkpt lat="48.49793" lon="-2.58509">
        <ele>90.5</ele>
        <time>2013-05-26T08:29:25.000Z</time>
      </trkpt>
      <trkpt lat="48.49797" lon="-2.58512">
        <ele>91.7</ele>
        <time>2013-05-26T08:29:26.000Z</time>
      </trkpt>
      <trkpt lat="48.49799" lon="-2.58517">
        <ele>92.4</ele>
        <time>2013-05-26T08:29:27.000Z</time>
      </trkpt>
      <trkpt lat="48.49801" lon="-2.58521">
        <ele>94.2</ele>
        <time>2013-05-26T08:29:28.000Z</time>
      </trkpt>
      <trkpt lat="48.49805" lon="-2.58523">
        <ele>93.9</ele>
        <time>2013-05-26T08:29:29.000Z</time>
      </trkpt>
      <trkpt lat="48.49807" lon="-2.58527">
        <ele>93</ele>
        <time>2013-05-26T08:29:30.000Z</time>
      </trkpt>
      <trkpt lat="48.4981" lon="-2.58529">
        <ele>93.3</ele>
        <time>2013-05-26T08:29:31.000Z</time>
      </trkpt>
      <trkpt lat="48.49813" lon="-2.58531">
        <ele>95.2</ele>
        <time>2013-05-26T08:29:32.000Z</time>
      </trkpt>
      <trkpt lat="48.49814" lon="-2.58534">
        <ele>95.5</ele>
        <time>2013-05-26T08:29:33.000Z</time>
      </trkpt>
      <trkpt lat="48.49816" lon="-2.58534">
        <ele>95.6</ele>
        <time>2013-05-26T08:29:34.000Z</time>
      </trkpt>
      <trkpt lat="48.4982" lon="-2.58534">
        <ele>97.7</ele>
        <time>2013-05-26T08:29:35.000Z</time>
      </trkpt>
      <trkpt lat="48.49822" lon="-2.58534">
        <ele>100.6</ele>
        <time>2013-05-26T08:29:36.000Z</time>
      </trkpt>
      <trkpt lat="48.49825" lon="-2.58534">
        <ele>103.1</ele>
        <time>2013-05-26T08:29:37.000Z</time>
      </trkpt>
      <trkpt lat="48.49828" lon="-2.58534">
        <ele>104.8</ele>
        <time>2013-05-26T08:29:38.000Z</time>
      </trkpt>
      <trkpt lat="48.49831" lon="-2.58535">
        <ele>106.7</ele>
        <time>2013-05-26T08:29:39.000Z</time>
      </trkpt>
      <trkpt lat="48.49834" lon="-2.58535">
        <ele>108.6</ele>
        <time>2013-05-26T08:29:40.000Z</time>
      </trkpt>
      <trkpt lat="48.49837" lon="-2.58535">
        <ele>110.2</ele>
        <time>2013-05-26T08:29:41.000Z</time>
      </trkpt>
      <trkpt lat="48.49841" lon="-2.58536">
        <ele>110.3</ele>
        <time>2013-05-26T08:29:42.000Z</time>
      </trkpt>
      <trkpt lat="48.49844" lon="-2.58537">
        <ele>110.2</ele>
        <time>2013-05-26T08:29:43.000Z</time>
      </trkpt>
      <trkpt lat="48.49848" lon="-2.58539">
        <ele>110.3</ele>
        <time>2013-05-26T08:29:44.000Z</time>
      </trkpt>
      <trkpt lat="48.49851" lon="-2.5854">
        <ele>110.4</ele>
        <time>2013-05-26T08:29:45.000Z</time>
      </trkpt>
      <trkpt lat="48.49854" lon="-2.58542">
        <ele>111.6</ele>
        <time>2013-05-26T08:29:46.000Z</time>
      </trkpt>
      <trkpt lat="48.49857" lon="-2.58544">
        <ele>112.4</ele>
        <time>2013-05-26T08:29:47.000Z</time>
      </trkpt>
      <trkpt lat="48.49859" lon="-2.58546">
        <ele>112.1</ele>
        <time>2013-05-26T08:29:48.000Z</time>
      </trkpt>
      <trkpt lat="48.49861" lon="-2.58548">
        <ele>112.2</ele>
        <time>2013-05-26T08:29:49.000Z</time>
      </trkpt>
      <trkpt lat="48.49863" lon="-2.58551">
        <ele>110.3</ele>
        <time>2013-05-26T08:29:50.000Z</time>
      </trkpt>
      <trkpt lat="48.49865" lon="-2.58552">
        <ele>109.7</ele>
        <time>2013-05-26T08:29:51.000Z</time>
      </trkpt>
      <trkpt lat="48.49867" lon="-2.58554">
        <ele>109.9</ele>
        <time>2013-05-26T08:29:52.000Z</time>
      </trkpt>
      <trkpt lat="48.49869" lon="-2.58556">
        <ele>109.8</ele>
        <time>2013-05-26T08:29:53.000Z</time>
      </trkpt>
      <trkpt lat="48.49871" lon="-2.58559">
        <ele>109.6</ele>
        <time>2013-05-26T08:29:54.000Z</time>
      </trkpt>
      <trkpt lat="48.49873" lon="-2.5856">
        <ele>109.7</ele>
        <time>2013-05-26T08:29:55.000Z</time>
      </trkpt>
      <trkpt lat="48.49876" lon="-2.58563">
        <ele>109.2</ele>
        <time>2013-05-26T08:29:57.000Z</time>
      </trkpt>
      <trkpt lat="48.49878" lon="-2.58564">
        <ele>108.8</ele>
        <time>2013-05-26T08:29:58.000Z</time>
      </trkpt>
      <trkpt lat="48.49882" lon="-2.58567">
        <ele>109</ele>
        <time>2013-05-26T08:30:00.000Z</time>
      </trkpt>
      <trkpt lat="48.49884" lon="-2.5857">
        <ele>108.9</ele>
        <time>2013-05-26T08:30:01.000Z</time>
      </trkpt>
      <trkpt lat="48.49886" lon="-2.58573">
        <ele>108.3</ele>
        <time>2013-05-26T08:30:02.000Z</time>
      </trkpt>
      <trkpt lat="48.49889" lon="-2.58576">
        <ele>107.7</ele>
        <time>2013-05-26T08:30:03.000Z</time>
      </trkpt>
      <trkpt lat="48.49892" lon="-2.58578">
        <ele>107.7</ele>
        <time>2013-05-26T08:30:04.000Z</time>
      </trkpt>
      <trkpt lat="48.49895" lon="-2.58581">
        <ele>107.4</ele>
        <time>2013-05-26T08:30:05.000Z</time>
      </trkpt>
      <trkpt lat="48.49899" lon="-2.58583">
        <ele>106.9</ele>
        <time>2013-05-26T08:30:06.000Z</time>
      </trkpt>
      <trkpt lat="48.49902" lon="-2.58587">
        <ele>106.2</ele>
        <time>2013-05-26T08:30:07.000Z</time>
      </trkpt>
      <trkpt lat="48.49904" lon="-2.58591">
        <ele>105.8</ele>
        <time>2013-05-26T08:30:08.000Z</time>
      </trkpt>
      <trkpt lat="48.49906" lon="-2.58597">
        <ele>105.5</ele>
        <time>2013-05-26T08:30:09.000Z</time>
      </trkpt>
      <trkpt lat="48.49907" lon="-2.586">
        <ele>105.1</ele>
        <time>2013-05-26T08:30:10.000Z</time>
      </trkpt>
      <trkpt lat="48.49909" lon="-2.58604">
        <ele>104.7</ele>
        <time>2013-05-26T08:30:11.000Z</time>
      </trkpt>
      <trkpt lat="48.4991" lon="-2.58609">
        <ele>103.7</ele>
        <time>2013-05-26T08:30:12.000Z</time>
      </trkpt>
      <trkpt lat="48.49911" lon="-2.58612">
        <ele>103.4</ele>
        <time>2013-05-26T08:30:13.000Z</time>
      </trkpt>
      <trkpt lat="48.49913" lon="-2.58615">
        <ele>102.7</ele>
        <time>2013-05-26T08:30:15.000Z</time>
      </trkpt>
      <trkpt lat="48.49914" lon="-2.58618">
        <ele>102.5</ele>
        <time>2013-05-26T08:30:16.000Z</time>
      </trkpt>
      <trkpt lat="48.49914" lon="-2.5862">
        <ele>102.2</ele>
        <time>2013-05-26T08:30:17.000Z</time>
      </trkpt>
      <trkpt lat="48.49913" lon="-2.58636">
        <ele>93.8</ele>
        <time>2013-05-26T08:30:21.000Z</time>
      </trkpt>
      <trkpt lat="48.49907" lon="-2.58638">
        <ele>87.8</ele>
        <time>2013-05-26T08:30:22.000Z</time>
      </trkpt>
      <trkpt lat="48.49904" lon="-2.58635">
        <ele>88.4</ele>
        <time>2013-05-26T08:30:28.000Z</time>
      </trkpt>
      <trkpt lat="48.49909" lon="-2.58631">
        <ele>92.9</ele>
        <time>2013-05-26T08:30:29.000Z</time>
      </trkpt>
      <trkpt lat="48.49905" lon="-2.5863">
        <ele>96.2</ele>
        <time>2013-05-26T08:30:35.000Z</time>
      </trkpt>
      <trkpt lat="48.49904" lon="-2.58632">
        <ele>95.9</ele>
        <time>2013-05-26T08:30:36.000Z</time>
      </trkpt>
      <trkpt lat="48.49901" lon="-2.58635">
        <ele>95.7</ele>
        <time>2013-05-26T08:30:38.000Z</time>
      </trkpt>
      <trkpt lat="48.49901" lon="-2.58637">
        <ele>95.6</ele>
        <time>2013-05-26T08:30:39.000Z</time>
      </trkpt>
      <trkpt lat="48.499" lon="-2.58643">
        <ele>98.9</ele>
        <time>2013-05-26T08:30:42.000Z</time>
      </trkpt>
      <trkpt lat="48.499" lon="-2.58646">
        <ele>100.1</ele>
        <time>2013-05-26T08:30:43.000Z</time>
      </trkpt>
      <trkpt lat="48.49899" lon="-2.58651">
        <ele>101.1</ele>
        <time>2013-05-26T08:30:45.000Z</time>
      </trkpt>
      <trkpt lat="48.49898" lon="-2.58654">
        <ele>100.5</ele>
        <time>2013-05-26T08:30:46.000Z</time>
      </trkpt>
      <trkpt lat="48.49898" lon="-2.58659">
        <ele>100.7</ele>
        <time>2013-05-26T08:30:48.000Z</time>
      </trkpt>
      <trkpt lat="48.49897" lon="-2.58662">
        <ele>100.2</ele>
        <time>2013-05-26T08:30:49.000Z</time>
      </trkpt>
      <trkpt lat="48.49896" lon="-2.58668">
        <ele>100.8</ele>
        <time>2013-05-26T08:30:51.000Z</time>
      </trkpt>
      <trkpt lat="48.49896" lon="-2.5867">
        <ele>100.9</ele>
        <time>2013-05-26T08:30:52.000Z</time>
      </trkpt>
      <trkpt lat="48.49896" lon="-2.58675">
        <ele>100.4</ele>
        <time>2013-05-26T08:30:54.000Z</time>
      </trkpt>
      <trkpt lat="48.49897" lon="-2.58677">
        <ele>100.9</ele>
        <time>2013-05-26T08:30:55.000Z</time>
      </trkpt>
      <trkpt lat="48.49897" lon="-2.58683">
        <ele>101.9</ele>
        <time>2013-05-26T08:30:59.000Z</time>
      </trkpt>
      <trkpt lat="48.49896" lon="-2.58684">
        <ele>101.8</ele>
        <time>2013-05-26T08:31:00.000Z</time>
      </trkpt>
      <trkpt lat="48.49894" lon="-2.58689">
        <ele>101.3</ele>
        <time>2013-05-26T08:31:03.000Z</time>
      </trkpt>
      <trkpt lat="48.49894" lon="-2.5869">
        <ele>101.1</ele>
        <time>2013-05-26T08:31:04.000Z</time>
      </trkpt>
      <trkpt lat="48.49892" lon="-2.58697">
        <ele>101.3</ele>
        <time>2013-05-26T08:31:12.000Z</time>
      </trkpt>
      <trkpt lat="48.49892" lon="-2.58697">
        <ele>101.3</ele>
        <time>2013-05-26T08:31:13.000Z</time>
      </trkpt>
      <trkpt lat="48.49893" lon="-2.58702">
        <ele>101.1</ele>
        <time>2013-05-26T08:31:16.000Z</time>
      </trkpt>
      <trkpt lat="48.49894" lon="-2.58705">
        <ele>101.1</ele>
        <time>2013-05-26T08:31:17.000Z</time>
      </trkpt>
      <trkpt lat="48.499" lon="-2.5873">
        <ele>102.2</ele>
        <time>2013-05-26T08:31:21.000Z</time>
      </trkpt>
      <trkpt lat="48.49902" lon="-2.58735">
        <ele>102.3</ele>
        <time>2013-05-26T08:31:23.000Z</time>
      </trkpt>
      <trkpt lat="48.49905" lon="-2.58745">
        <ele>100.1</ele>
        <time>2013-05-26T08:31:24.000Z</time>
      </trkpt>
      <trkpt lat="48.49908" lon="-2.58747">
        <ele>97.3</ele>
        <time>2013-05-26T08:31:26.000Z</time>
      </trkpt>
      <trkpt lat="48.49909" lon="-2.58749">
        <ele>96.4</ele>
        <time>2013-05-26T08:31:27.000Z</time>
      </trkpt>
      <trkpt lat="48.49912" lon="-2.58751">
        <ele>96.3</ele>
        <time>2013-05-26T08:31:29.000Z</time>
      </trkpt>
      <trkpt lat="48.49914" lon="-2.58753">
        <ele>97</ele>
        <time>2013-05-26T08:31:30.000Z</time>
      </trkpt>
      <trkpt lat="48.49916" lon="-2.58758">
        <ele>99.1</ele>
        <time>2013-05-26T08:31:32.000Z</time>
      </trkpt>
      <trkpt lat="48.49918" lon="-2.5876">
        <ele>100.1</ele>
        <time>2013-05-26T08:31:33.000Z</time>
      </trkpt>
      <trkpt lat="48.49921" lon="-2.58763">
        <ele>100.3</ele>
        <time>2013-05-26T08:31:34.000Z</time>
      </trkpt>
      <trkpt lat="48.49923" lon="-2.58765">
        <ele>102.5</ele>
        <time>2013-05-26T08:31:35.000Z</time>
      </trkpt>
      <trkpt lat="48.49925" lon="-2.58768">
        <ele>102.5</ele>
        <time>2013-05-26T08:31:36.000Z</time>
      </trkpt>
      <trkpt lat="48.49926" lon="-2.5877">
        <ele>103</ele>
        <time>2013-05-26T08:31:37.000Z</time>
      </trkpt>
      <trkpt lat="48.49929" lon="-2.58775">
        <ele>104.3</ele>
        <time>2013-05-26T08:31:39.000Z</time>
      </trkpt>
      <trkpt lat="48.4993" lon="-2.58777">
        <ele>104.3</ele>
        <time>2013-05-26T08:31:40.000Z</time>
      </trkpt>
      <trkpt lat="48.49932" lon="-2.58781">
        <ele>104.7</ele>
        <time>2013-05-26T08:31:41.000Z</time>
      </trkpt>
      <trkpt lat="48.49933" lon="-2.58784">
        <ele>105</ele>
        <time>2013-05-26T08:31:42.000Z</time>
      </trkpt>
      <trkpt lat="48.49934" lon="-2.58791">
        <ele>106.3</ele>
        <time>2013-05-26T08:31:43.000Z</time>
      </trkpt>
      <trkpt lat="48.49935" lon="-2.58795">
        <ele>107.2</ele>
        <time>2013-05-26T08:31:44.000Z</time>
      </trkpt>
      <trkpt lat="48.49936" lon="-2.58798">
        <ele>106.7</ele>
        <time>2013-05-26T08:31:45.000Z</time>
      </trkpt>
      <trkpt lat="48.49937" lon="-2.58802">
        <ele>104.3</ele>
        <time>2013-05-26T08:31:46.000Z</time>
      </trkpt>
      <trkpt lat="48.49939" lon="-2.58806">
        <ele>103.4</ele>
        <time>2013-05-26T08:31:47.000Z</time>
      </trkpt>
      <trkpt lat="48.4994" lon="-2.58808">
        <ele>103.1</ele>
        <time>2013-05-26T08:31:48.000Z</time>
      </trkpt>
      <trkpt lat="48.49942" lon="-2.5881">
        <ele>101.3</ele>
        <time>2013-05-26T08:31:49.000Z</time>
      </trkpt>
      <trkpt lat="48.49943" lon="-2.58813">
        <ele>100.6</ele>
        <time>2013-05-26T08:31:50.000Z</time>
      </trkpt>
      <trkpt lat="48.49945" lon="-2.58816">
        <ele>100.4</ele>
        <time>2013-05-26T08:31:51.000Z</time>
      </trkpt>
      <trkpt lat="48.49947" lon="-2.58818">
        <ele>100</ele>
        <time>2013-05-26T08:31:52.000Z</time>
      </trkpt>
      <trkpt lat="48.49948" lon="-2.58821">
        <ele>99.6</ele>
        <time>2013-05-26T08:31:53.000Z</time>
      </trkpt>
      <trkpt lat="48.4995" lon="-2.58823">
        <ele>99.4</ele>
        <time>2013-05-26T08:31:54.000Z</time>
      </trkpt>
      <trkpt lat="48.49952" lon="-2.58827">
        <ele>99.1</ele>
        <time>2013-05-26T08:31:56.000Z</time>
      </trkpt>
      <trkpt lat="48.49952" lon="-2.5883">
        <ele>99</ele>
        <time>2013-05-26T08:31:57.000Z</time>
      </trkpt>
      <trkpt lat="48.49953" lon="-2.58835">
        <ele>99.2</ele>
        <time>2013-05-26T08:31:59.000Z</time>
      </trkpt>
      <trkpt lat="48.49954" lon="-2.58838">
        <ele>99.2</ele>
        <time>2013-05-26T08:32:00.000Z</time>
      </trkpt>
      <trkpt lat="48.49956" lon="-2.58842">
        <ele>99</ele>
        <time>2013-05-26T08:32:04.000Z</time>
      </trkpt>
      <trkpt lat="48.49957" lon="-2.58844">
        <ele>99</ele>
        <time>2013-05-26T08:32:05.000Z</time>
      </trkpt>
      <trkpt lat="48.49958" lon="-2.5885">
        <ele>98.7</ele>
        <time>2013-05-26T08:32:08.000Z</time>
      </trkpt>
      <trkpt lat="48.49959" lon="-2.58852">
        <ele>98.5</ele>
        <time>2013-05-26T08:32:09.000Z</time>
      </trkpt>
      <trkpt lat="48.4996" lon="-2.58855">
        <ele>98.3</ele>
        <time>2013-05-26T08:32:10.000Z</time>
      </trkpt>
      <trkpt lat="48.49962" lon="-2.58857">
        <ele>98.2</ele>
        <time>2013-05-26T08:32:11.000Z</time>
      </trkpt>
      <trkpt lat="48.49964" lon="-2.58861">
        <ele>98.3</ele>
        <time>2013-05-26T08:32:12.000Z</time>
      </trkpt>
      <trkpt lat="48.49965" lon="-2.58864">
        <ele>98.2</ele>
        <time>2013-05-26T08:32:13.000Z</time>
      </trkpt>
      <trkpt lat="48.49966" lon="-2.58867">
        <ele>98.1</ele>
        <time>2013-05-26T08:32:14.000Z</time>
      </trkpt>
      <trkpt lat="48.49968" lon="-2.58871">
        <ele>98.1</ele>
        <time>2013-05-26T08:32:15.000Z</time>
      </trkpt>
      <trkpt lat="48.49969" lon="-2.58873">
        <ele>98.3</ele>
        <time>2013-05-26T08:32:16.000Z</time>
      </trkpt>
      <trkpt lat="48.4997" lon="-2.58876">
        <ele>98.4</ele>
        <time>2013-05-26T08:32:17.000Z</time>
      </trkpt>
      <trkpt lat="48.49983" lon="-2.58895">
        <ele>102.9</ele>
        <time>2013-05-26T08:32:21.000Z</time>
      </trkpt>
      <trkpt lat="48.49987" lon="-2.58905">
        <ele>100.7</ele>
        <time>2013-05-26T08:32:22.000Z</time>
      </trkpt>
      <trkpt lat="48.49989" lon="-2.5891">
        <ele>99.4</ele>
        <time>2013-05-26T08:32:23.000Z</time>
      </trkpt>
      <trkpt lat="48.49993" lon="-2.58922">
        <ele>97.1</ele>
        <time>2013-05-26T08:32:25.000Z</time>
      </trkpt>
      <trkpt lat="48.49995" lon="-2.58927">
        <ele>97.4</ele>
        <time>2013-05-26T08:32:26.000Z</time>
      </trkpt>
      <trkpt lat="48.49996" lon="-2.58931">
        <ele>98.1</ele>
        <time>2013-05-26T08:32:27.000Z</time>
      </trkpt>
      <trkpt lat="48.49999" lon="-2.58936">
        <ele>97.4</ele>
        <time>2013-05-26T08:32:28.000Z</time>
      </trkpt>
      <trkpt lat="48.50002" lon="-2.58942">
        <ele>97.5</ele>
        <time>2013-05-26T08:32:29.000Z</time>
      </trkpt>
      <trkpt lat="48.50006" lon="-2.58947">
        <ele>96.2</ele>
        <time>2013-05-26T08:32:30.000Z</time>
      </trkpt>
      <trkpt lat="48.50008" lon="-2.58951">
        <ele>96.6</ele>
        <time>2013-05-26T08:32:31.000Z</time>
      </trkpt>
      <trkpt lat="48.5001" lon="-2.58955">
        <ele>97.2</ele>
        <time>2013-05-26T08:32:32.000Z</time>
      </trkpt>
      <trkpt lat="48.50012" lon="-2.58959">
        <ele>98.3</ele>
        <time>2013-05-26T08:32:33.000Z</time>
      </trkpt>
      <trkpt lat="48.50015" lon="-2.58963">
        <ele>98.3</ele>
        <time>2013-05-26T08:32:34.000Z</time>
      </trkpt>
      <trkpt lat="48.50016" lon="-2.58967">
        <ele>98.6</ele>
        <time>2013-05-26T08:32:35.000Z</time>
      </trkpt>
      <trkpt lat="48.50017" lon="-2.58972">
        <ele>97.7</ele>
        <time>2013-05-26T08:32:36.000Z</time>
      </trkpt>
      <trkpt lat="48.50017" lon="-2.58976">
        <ele>97.9</ele>
        <time>2013-05-26T08:32:37.000Z</time>
      </trkpt>
      <trkpt lat="48.50018" lon="-2.5898">
        <ele>98.7</ele>
        <time>2013-05-26T08:32:38.000Z</time>
      </trkpt>
      <trkpt lat="48.5002" lon="-2.58984">
        <ele>96.2</ele>
        <time>2013-05-26T08:32:39.000Z</time>
      </trkpt>
      <trkpt lat="48.50021" lon="-2.58988">
        <ele>94.4</ele>
        <time>2013-05-26T08:32:40.000Z</time>
      </trkpt>
      <trkpt lat="48.50023" lon="-2.58993">
        <ele>93.9</ele>
        <time>2013-05-26T08:32:41.000Z</time>
      </trkpt>
      <trkpt lat="48.50025" lon="-2.58998">
        <ele>93.8</ele>
        <time>2013-05-26T08:32:42.000Z</time>
      </trkpt>
      <trkpt lat="48.50027" lon="-2.59003">
        <ele>94.1</ele>
        <time>2013-05-26T08:32:43.000Z</time>
      </trkpt>
      <trkpt lat="48.50028" lon="-2.59008">
        <ele>94.2</ele>
        <time>2013-05-26T08:32:44.000Z</time>
      </trkpt>
      <trkpt lat="48.5003" lon="-2.59013">
        <ele>94.6</ele>
        <time>2013-05-26T08:32:45.000Z</time>
      </trkpt>
      <trkpt lat="48.50032" lon="-2.59018">
        <ele>95.4</ele>
        <time>2013-05-26T08:32:46.000Z</time>
      </trkpt>
      <trkpt lat="48.50034" lon="-2.59022">
        <ele>95.4</ele>
        <time>2013-05-26T08:32:47.000Z</time>
      </trkpt>
      <trkpt lat="48.50036" lon="-2.59026">
        <ele>93.9</ele>
        <time>2013-05-26T08:32:48.000Z</time>
      </trkpt>
      <trkpt lat="48.50038" lon="-2.59029">
        <ele>93.5</ele>
        <time>2013-05-26T08:32:49.000Z</time>
      </trkpt>
      <trkpt lat="48.50041" lon="-2.59031">
        <ele>93</ele>
        <time>2013-05-26T08:32:50.000Z</time>
      </trkpt>
      <trkpt lat="48.50043" lon="-2.59033">
        <ele>92.5</ele>
        <time>2013-05-26T08:32:51.000Z</time>
      </trkpt>
      <trkpt lat="48.50044" lon="-2.59035">
        <ele>92.3</ele>
        <time>2013-05-26T08:32:52.000Z</time>
      </trkpt>
      <trkpt lat="48.50046" lon="-2.59037">
        <ele>92.2</ele>
        <time>2013-05-26T08:32:53.000Z</time>
      </trkpt>
      <trkpt lat="48.50048" lon="-2.59039">
        <ele>92.4</ele>
        <time>2013-05-26T08:32:54.000Z</time>
      </trkpt>
      <trkpt lat="48.50051" lon="-2.59044">
        <ele>92.3</ele>
        <time>2013-05-26T08:32:56.000Z</time>
      </trkpt>
      <trkpt lat="48.50052" lon="-2.59046">
        <ele>92.3</ele>
        <time>2013-05-26T08:32:57.000Z</time>
      </trkpt>
      <trkpt lat="48.50054" lon="-2.5905">
        <ele>92.7</ele>
        <time>2013-05-26T08:32:58.000Z</time>
      </trkpt>
      <trkpt lat="48.50056" lon="-2.59052">
        <ele>92.7</ele>
        <time>2013-05-26T08:32:59.000Z</time>
      </trkpt>
      <trkpt lat="48.50057" lon="-2.59055">
        <ele>92.5</ele>
        <time>2013-05-26T08:33:00.000Z</time>
      </trkpt>
      <trkpt lat="48.50058" lon="-2.59058">
        <ele>92.7</ele>
        <time>2013-05-26T08:33:01.000Z</time>
      </trkpt>
      <trkpt lat="48.5006" lon="-2.59064">
        <ele>92.7</ele>
        <time>2013-05-26T08:33:03.000Z</time>
      </trkpt>
      <trkpt lat="48.50061" lon="-2.59066">
        <ele>92.6</ele>
        <time>2013-05-26T08:33:04.000Z</time>
      </trkpt>
      <trkpt lat="48.50063" lon="-2.5907">
        <ele>92.3</ele>
        <time>2013-05-26T08:33:06.000Z</time>
      </trkpt>
      <trkpt lat="48.50065" lon="-2.59072">
        <ele>92.5</ele>
        <time>2013-05-26T08:33:07.000Z</time>
      </trkpt>
      <trkpt lat="48.50066" lon="-2.59075">
        <ele>92.6</ele>
        <time>2013-05-26T08:33:08.000Z</time>
      </trkpt>
      <trkpt lat="48.50068" lon="-2.59077">
        <ele>92.7</ele>
        <time>2013-05-26T08:33:09.000Z</time>
      </trkpt>
      <trkpt lat="48.5007" lon="-2.59082">
        <ele>92.4</ele>
        <time>2013-05-26T08:33:11.000Z</time>
      </trkpt>
      <trkpt lat="48.50072" lon="-2.59084">
        <ele>92.1</ele>
        <time>2013-05-26T08:33:12.000Z</time>
      </trkpt>
      <trkpt lat="48.50073" lon="-2.59086">
        <ele>92</ele>
        <time>2013-05-26T08:33:13.000Z</time>
      </trkpt>
      <trkpt lat="48.50075" lon="-2.59089">
        <ele>92.1</ele>
        <time>2013-05-26T08:33:14.000Z</time>
      </trkpt>
      <trkpt lat="48.50077" lon="-2.59092">
        <ele>92.1</ele>
        <time>2013-05-26T08:33:15.000Z</time>
      </trkpt>
      <trkpt lat="48.50081" lon="-2.59095">
        <ele>91.9</ele>
        <time>2013-05-26T08:33:16.000Z</time>
      </trkpt>
      <trkpt lat="48.50084" lon="-2.59097">
        <ele>91.6</ele>
        <time>2013-05-26T08:33:17.000Z</time>
      </trkpt>
      <trkpt lat="48.50098" lon="-2.59121">
        <ele>102.3</ele>
        <time>2013-05-26T08:33:21.000Z</time>
      </trkpt>
      <trkpt lat="48.501" lon="-2.59122">
        <ele>106.6</ele>
        <time>2013-05-26T08:33:22.000Z</time>
      </trkpt>
      <trkpt lat="48.50111" lon="-2.59133">
        <ele>96.8</ele>
        <time>2013-05-26T08:33:24.000Z</time>
      </trkpt>
      <trkpt lat="48.50114" lon="-2.59139">
        <ele>96.9</ele>
        <time>2013-05-26T08:33:25.000Z</time>
      </trkpt>
      <trkpt lat="48.50116" lon="-2.59144">
        <ele>96.5</ele>
        <time>2013-05-26T08:33:26.000Z</time>
      </trkpt>
      <trkpt lat="48.50118" lon="-2.59148">
        <ele>96.2</ele>
        <time>2013-05-26T08:33:27.000Z</time>
      </trkpt>
      <trkpt lat="48.50118" lon="-2.5915">
        <ele>94.8</ele>
        <time>2013-05-26T08:33:28.000Z</time>
      </trkpt>
      <trkpt lat="48.50122" lon="-2.59156">
        <ele>93</ele>
        <time>2013-05-26T08:33:29.000Z</time>
      </trkpt>
      <trkpt lat="48.50125" lon="-2.59161">
        <ele>91.6</ele>
        <time>2013-05-26T08:33:30.000Z</time>
      </trkpt>
      <trkpt lat="48.50128" lon="-2.59164">
        <ele>91.5</ele>
        <time>2013-05-26T08:33:31.000Z</time>
      </trkpt>
      <trkpt lat="48.5013" lon="-2.59169">
        <ele>91.4</ele>
        <time>2013-05-26T08:33:32.000Z</time>
      </trkpt>
      <trkpt lat="48.50133" lon="-2.59174">
        <ele>91.7</ele>
        <time>2013-05-26T08:33:33.000Z</time>
      </trkpt>
      <trkpt lat="48.50136" lon="-2.59179">
        <ele>92.4</ele>
        <time>2013-05-26T08:33:34.000Z</time>
      </trkpt>
      <trkpt lat="48.5014" lon="-2.59185">
        <ele>93.6</ele>
        <time>2013-05-26T08:33:35.000Z</time>
      </trkpt>
      <trkpt lat="48.50143" lon="-2.59189">
        <ele>95</ele>
        <time>2013-05-26T08:33:36.000Z</time>
      </trkpt>
      <trkpt lat="48.50148" lon="-2.59192">
        <ele>95.5</ele>
        <time>2013-05-26T08:33:37.000Z</time>
      </trkpt>
      <trkpt lat="48.50153" lon="-2.59195">
        <ele>95</ele>
        <time>2013-05-26T08:33:38.000Z</time>
      </trkpt>
      <trkpt lat="48.50158" lon="-2.59197">
        <ele>94</ele>
        <time>2013-05-26T08:33:39.000Z</time>
      </trkpt>
      <trkpt lat="48.50164" lon="-2.592">
        <ele>92.8</ele>
        <time>2013-05-26T08:33:40.000Z</time>
      </trkpt>
      <trkpt lat="48.50169" lon="-2.59204">
        <ele>91</ele>
        <time>2013-05-26T08:33:41.000Z</time>
      </trkpt>
      <trkpt lat="48.50174" lon="-2.59207">
        <ele>89.3</ele>
        <time>2013-05-26T08:33:42.000Z</time>
      </trkpt>
      <trkpt lat="48.50177" lon="-2.59211">
        <ele>88.4</ele>
        <time>2013-05-26T08:33:43.000Z</time>
      </trkpt>
      <trkpt lat="48.50181" lon="-2.59214">
        <ele>87.2</ele>
        <time>2013-05-26T08:33:44.000Z</time>
      </trkpt>
      <trkpt lat="48.50184" lon="-2.59217">
        <ele>86.9</ele>
        <time>2013-05-26T08:33:45.000Z</time>
      </trkpt>
      <trkpt lat="48.50187" lon="-2.5922">
        <ele>87.2</ele>
        <time>2013-05-26T08:33:46.000Z</time>
      </trkpt>
      <trkpt lat="48.50189" lon="-2.59223">
        <ele>87.2</ele>
        <time>2013-05-26T08:33:47.000Z</time>
      </trkpt>
      <trkpt lat="48.50192" lon="-2.59225">
        <ele>87.8</ele>
        <time>2013-05-26T08:33:48.000Z</time>
      </trkpt>
      <trkpt lat="48.50195" lon="-2.59227">
        <ele>88.2</ele>
        <time>2013-05-26T08:33:49.000Z</time>
      </trkpt>
      <trkpt lat="48.50198" lon="-2.59229">
        <ele>88.4</ele>
        <time>2013-05-26T08:33:50.000Z</time>
      </trkpt>
      <trkpt lat="48.502" lon="-2.59231">
        <ele>88.4</ele>
        <time>2013-05-26T08:33:51.000Z</time>
      </trkpt>
      <trkpt lat="48.50203" lon="-2.59233">
        <ele>88.5</ele>
        <time>2013-05-26T08:33:52.000Z</time>
      </trkpt>
      <trkpt lat="48.50205" lon="-2.59236">
        <ele>88.5</ele>
        <time>2013-05-26T08:33:53.000Z</time>
      </trkpt>
      <trkpt lat="48.50208" lon="-2.5924">
        <ele>88.6</ele>
        <time>2013-05-26T08:33:54.000Z</time>
      </trkpt>
      <trkpt lat="48.50211" lon="-2.59243">
        <ele>88.9</ele>
        <time>2013-05-26T08:33:55.000Z</time>
      </trkpt>
      <trkpt lat="48.50214" lon="-2.59247">
        <ele>89</ele>
        <time>2013-05-26T08:33:56.000Z</time>
      </trkpt>
      <trkpt lat="48.50217" lon="-2.5925">
        <ele>89.1</ele>
        <time>2013-05-26T08:33:57.000Z</time>
      </trkpt>
      <trkpt lat="48.50221" lon="-2.59252">
        <ele>88.7</ele>
        <time>2013-05-26T08:33:58.000Z</time>
      </trkpt>
      <trkpt lat="48.50225" lon="-2.59255">
        <ele>88.3</ele>
        <time>2013-05-26T08:33:59.000Z</time>
      </trkpt>
      <trkpt lat="48.50228" lon="-2.59258">
        <ele>88.1</ele>
        <time>2013-05-26T08:34:00.000Z</time>
      </trkpt>
      <trkpt lat="48.50232" lon="-2.59261">
        <ele>87.7</ele>
        <time>2013-05-26T08:34:01.000Z</time>
      </trkpt>
      <trkpt lat="48.50235" lon="-2.59264">
        <ele>87.5</ele>
        <time>2013-05-26T08:34:02.000Z</time>
      </trkpt>
      <trkpt lat="48.50239" lon="-2.59267">
        <ele>87.3</ele>
        <time>2013-05-26T08:34:03.000Z</time>
      </trkpt>
      <trkpt lat="48.50242" lon="-2.59269">
        <ele>87</ele>
        <time>2013-05-26T08:34:04.000Z</time>
      </trkpt>
      <trkpt lat="48.50245" lon="-2.59272">
        <ele>86.8</ele>
        <time>2013-05-26T08:34:05.000Z</time>
      </trkpt>
      <trkpt lat="48.50249" lon="-2.59276">
        <ele>86.7</ele>
        <time>2013-05-26T08:34:06.000Z</time>
      </trkpt>
      <trkpt lat="48.50252" lon="-2.59279">
        <ele>86.6</ele>
        <time>2013-05-26T08:34:07.000Z</time>
      </trkpt>
      <trkpt lat="48.50255" lon="-2.59282">
        <ele>86.5</ele>
        <time>2013-05-26T08:34:08.000Z</time>
      </trkpt>
      <trkpt lat="48.50258" lon="-2.59285">
        <ele>86.4</ele>
        <time>2013-05-26T08:34:09.000Z</time>
      </trkpt>
      <trkpt lat="48.50261" lon="-2.59288">
        <ele>86.4</ele>
        <time>2013-05-26T08:34:10.000Z</time>
      </trkpt>
      <trkpt lat="48.50264" lon="-2.5929">
        <ele>86.2</ele>
        <time>2013-05-26T08:34:11.000Z</time>
      </trkpt>
      <trkpt lat="48.50267" lon="-2.59293">
        <ele>86.1</ele>
        <time>2013-05-26T08:34:12.000Z</time>
      </trkpt>
      <trkpt lat="48.5027" lon="-2.59295">
        <ele>85.9</ele>
        <time>2013-05-26T08:34:13.000Z</time>
      </trkpt>
      <trkpt lat="48.50272" lon="-2.59297">
        <ele>85.9</ele>
        <time>2013-05-26T08:34:14.000Z</time>
      </trkpt>
      <trkpt lat="48.50275" lon="-2.593">
        <ele>85.9</ele>
        <time>2013-05-26T08:34:15.000Z</time>
      </trkpt>
      <trkpt lat="48.50277" lon="-2.59301">
        <ele>85.7</ele>
        <time>2013-05-26T08:34:16.000Z</time>
      </trkpt>
      <trkpt lat="48.5028" lon="-2.59303">
        <ele>85.7</ele>
        <time>2013-05-26T08:34:17.000Z</time>
      </trkpt>
      <trkpt lat="48.50291" lon="-2.59309">
        <ele>88.4</ele>
        <time>2013-05-26T08:34:21.000Z</time>
      </trkpt>
      <trkpt lat="48.50295" lon="-2.59312">
        <ele>87.9</ele>
        <time>2013-05-26T08:34:23.000Z</time>
      </trkpt>
      <trkpt lat="48.50297" lon="-2.59313">
        <ele>86.3</ele>
        <time>2013-05-26T08:34:24.000Z</time>
      </trkpt>
      <trkpt lat="48.503" lon="-2.59314">
        <ele>84.5</ele>
        <time>2013-05-26T08:34:25.000Z</time>
      </trkpt>
      <trkpt lat="48.50301" lon="-2.59318">
        <ele>85.4</ele>
        <time>2013-05-26T08:34:26.000Z</time>
      </trkpt>
      <trkpt lat="48.50301" lon="-2.59321">
        <ele>86</ele>
        <time>2013-05-26T08:34:27.000Z</time>
      </trkpt>
      <trkpt lat="48.50301" lon="-2.59325">
        <ele>86.1</ele>
        <time>2013-05-26T08:34:28.000Z</time>
      </trkpt>
      <trkpt lat="48.50302" lon="-2.59328">
        <ele>85.2</ele>
        <time>2013-05-26T08:34:29.000Z</time>
      </trkpt>
      <trkpt lat="48.50302" lon="-2.59333">
        <ele>85</ele>
        <time>2013-05-26T08:34:30.000Z</time>
      </trkpt>
      <trkpt lat="48.50301" lon="-2.59337">
        <ele>84.5</ele>
        <time>2013-05-26T08:34:31.000Z</time>
      </trkpt>
      <trkpt lat="48.503" lon="-2.59342">
        <ele>84.5</ele>
        <time>2013-05-26T08:34:32.000Z</time>
      </trkpt>
      <trkpt lat="48.50299" lon="-2.59346">
        <ele>84</ele>
        <time>2013-05-26T08:34:33.000Z</time>
      </trkpt>
      <trkpt lat="48.50299" lon="-2.59351">
        <ele>83.8</ele>
        <time>2013-05-26T08:34:34.000Z</time>
      </trkpt>
      <trkpt lat="48.50298" lon="-2.59356">
        <ele>83.6</ele>
        <time>2013-05-26T08:34:35.000Z</time>
      </trkpt>
      <trkpt lat="48.50297" lon="-2.5936">
        <ele>83.3</ele>
        <time>2013-05-26T08:34:36.000Z</time>
      </trkpt>
      <trkpt lat="48.50296" lon="-2.59365">
        <ele>83.1</ele>
        <time>2013-05-26T08:34:37.000Z</time>
      </trkpt>
      <trkpt lat="48.50295" lon="-2.5937">
        <ele>82.7</ele>
        <time>2013-05-26T08:34:38.000Z</time>
      </trkpt>
      <trkpt lat="48.50293" lon="-2.59374">
        <ele>82.5</ele>
        <time>2013-05-26T08:34:39.000Z</time>
      </trkpt>
      <trkpt lat="48.50292" lon="-2.59379">
        <ele>82.4</ele>
        <time>2013-05-26T08:34:40.000Z</time>
      </trkpt>
      <trkpt lat="48.50291" lon="-2.59384">
        <ele>82.5</ele>
        <time>2013-05-26T08:34:41.000Z</time>
      </trkpt>
      <trkpt lat="48.50289" lon="-2.59388">
        <ele>82.8</ele>
        <time>2013-05-26T08:34:42.000Z</time>
      </trkpt>
      <trkpt lat="48.50288" lon="-2.59393">
        <ele>83.2</ele>
        <time>2013-05-26T08:34:43.000Z</time>
      </trkpt>
      <trkpt lat="48.50286" lon="-2.59397">
        <ele>83.5</ele>
        <time>2013-05-26T08:34:44.000Z</time>
      </trkpt>
      <trkpt lat="48.50284" lon="-2.59402">
        <ele>84.2</ele>
        <time>2013-05-26T08:34:45.000Z</time>
      </trkpt>
      <trkpt lat="48.50283" lon="-2.59407">
        <ele>84.8</ele>
        <time>2013-05-26T08:34:46.000Z</time>
      </trkpt>
      <trkpt lat="48.50282" lon="-2.59412">
        <ele>84.9</ele>
        <time>2013-05-26T08:34:47.000Z</time>
      </trkpt>
      <trkpt lat="48.50281" lon="-2.59417">
        <ele>85.4</ele>
        <time>2013-05-26T08:34:48.000Z</time>
      </trkpt>
      <trkpt lat="48.5028" lon="-2.59422">
        <ele>85.4</ele>
        <time>2013-05-26T08:34:49.000Z</time>
      </trkpt>
      <trkpt lat="48.50278" lon="-2.59427">
        <ele>85.7</ele>
        <time>2013-05-26T08:34:50.000Z</time>
      </trkpt>
      <trkpt lat="48.50276" lon="-2.59432">
        <ele>85.9</ele>
        <time>2013-05-26T08:34:51.000Z</time>
      </trkpt>
      <trkpt lat="48.50275" lon="-2.59437">
        <ele>86</ele>
        <time>2013-05-26T08:34:52.000Z</time>
      </trkpt>
      <trkpt lat="48.50272" lon="-2.59441">
        <ele>86.2</ele>
        <time>2013-05-26T08:34:53.000Z</time>
      </trkpt>
      <trkpt lat="48.5027" lon="-2.59445">
        <ele>86</ele>
        <time>2013-05-26T08:34:54.000Z</time>
      </trkpt>
      <trkpt lat="48.50268" lon="-2.59449">
        <ele>86</ele>
        <time>2013-05-26T08:34:55.000Z</time>
      </trkpt>
      <trkpt lat="48.50266" lon="-2.59454">
        <ele>85.6</ele>
        <time>2013-05-26T08:34:56.000Z</time>
      </trkpt>
      <trkpt lat="48.50265" lon="-2.5946">
        <ele>85.7</ele>
        <time>2013-05-26T08:34:57.000Z</time>
      </trkpt>
      <trkpt lat="48.50264" lon="-2.59464">
        <ele>85.5</ele>
        <time>2013-05-26T08:34:58.000Z</time>
      </trkpt>
      <trkpt lat="48.50263" lon="-2.59469">
        <ele>85.5</ele>
        <time>2013-05-26T08:34:59.000Z</time>
      </trkpt>
      <trkpt lat="48.50262" lon="-2.59474">
        <ele>85.5</ele>
        <time>2013-05-26T08:35:00.000Z</time>
      </trkpt>
      <trkpt lat="48.50261" lon="-2.59478">
        <ele>85.5</ele>
        <time>2013-05-26T08:35:01.000Z</time>
      </trkpt>
      <trkpt lat="48.50261" lon="-2.59483">
        <ele>85.5</ele>
        <time>2013-05-26T08:35:02.000Z</time>
      </trkpt>
      <trkpt lat="48.50261" lon="-2.59487">
        <ele>85.5</ele>
        <time>2013-05-26T08:35:03.000Z</time>
      </trkpt>
      <trkpt lat="48.50262" lon="-2.5949">
        <ele>85.4</ele>
        <time>2013-05-26T08:35:04.000Z</time>
      </trkpt>
      <trkpt lat="48.50262" lon="-2.59494">
        <ele>85.5</ele>
        <time>2013-05-26T08:35:05.000Z</time>
      </trkpt>
      <trkpt lat="48.50261" lon="-2.59497">
        <ele>85.5</ele>
        <time>2013-05-26T08:35:06.000Z</time>
      </trkpt>
      <trkpt lat="48.50262" lon="-2.59504">
        <ele>85.5</ele>
        <time>2013-05-26T08:35:08.000Z</time>
      </trkpt>
      <trkpt lat="48.50263" lon="-2.59506">
        <ele>85.3</ele>
        <time>2013-05-26T08:35:09.000Z</time>
      </trkpt>
      <trkpt lat="48.50264" lon="-2.5951">
        <ele>84.6</ele>
        <time>2013-05-26T08:35:17.000Z</time>
      </trkpt>
      <trkpt lat="48.50265" lon="-2.59513">
        <ele>88.8</ele>
        <time>2013-05-26T08:35:21.000Z</time>
      </trkpt>
      <trkpt lat="48.50264" lon="-2.59519">
        <ele>85.8</ele>
        <time>2013-05-26T08:35:48.000Z</time>
      </trkpt>
      <trkpt lat="48.50264" lon="-2.5952">
        <ele>86.1</ele>
        <time>2013-05-26T08:35:49.000Z</time>
      </trkpt>
      <trkpt lat="48.50265" lon="-2.59527">
        <ele>87.2</ele>
        <time>2013-05-26T08:36:58.000Z</time>
      </trkpt>
      <trkpt lat="48.50265" lon="-2.59527">
        <ele>87.8</ele>
        <time>2013-05-26T08:36:59.000Z</time>
      </trkpt>
      <trkpt lat="48.50267" lon="-2.59525">
        <ele>83</ele>
        <time>2013-05-26T08:38:18.000Z</time>
      </trkpt>
      <trkpt lat="48.5027" lon="-2.59524">
        <ele>80.1</ele>
        <time>2013-05-26T08:38:22.000Z</time>
      </trkpt>
      <trkpt lat="48.50266" lon="-2.59523">
        <ele>88</ele>
        <time>2013-05-26T08:39:18.000Z</time>
      </trkpt>
      <trkpt lat="48.50262" lon="-2.59516">
        <ele>86.6</ele>
        <time>2013-05-26T08:39:22.000Z</time>
      </trkpt>
      <trkpt lat="48.5026" lon="-2.59511">
        <ele>88.5</ele>
        <time>2013-05-26T08:40:18.000Z</time>
      </trkpt>
      <trkpt lat="48.5026" lon="-2.59508">
        <ele>90.3</ele>
        <time>2013-05-26T08:40:22.000Z</time>
      </trkpt>
      <trkpt lat="48.50258" lon="-2.59514">
        <ele>87.4</ele>
        <time>2013-05-26T08:40:30.000Z</time>
      </trkpt>
      <trkpt lat="48.50258" lon="-2.59515">
        <ele>87.7</ele>
        <time>2013-05-26T08:40:31.000Z</time>
      </trkpt>
      <trkpt lat="48.50262" lon="-2.59516">
        <ele>85.1</ele>
        <time>2013-05-26T08:41:16.000Z</time>
      </trkpt>
      <trkpt lat="48.50263" lon="-2.59515">
        <ele>85.7</ele>
        <time>2013-05-26T08:41:17.000Z</time>
      </trkpt>
      <trkpt lat="48.50262" lon="-2.59521">
        <ele>86.4</ele>
        <time>2013-05-26T08:42:46.000Z</time>
      </trkpt>
      <trkpt lat="48.50262" lon="-2.59523">
        <ele>86.3</ele>
        <time>2013-05-26T08:42:47.000Z</time>
      </trkpt>
      <trkpt lat="48.50263" lon="-2.59529">
        <ele>84.4</ele>
        <time>2013-05-26T08:42:58.000Z</time>
      </trkpt>
      <trkpt lat="48.50263" lon="-2.5953">
        <ele>84.6</ele>
        <time>2013-05-26T08:42:59.000Z</time>
      </trkpt>
      <trkpt lat="48.50263" lon="-2.59536">
        <ele>84.4</ele>
        <time>2013-05-26T08:43:04.000Z</time>
      </trkpt>
      <trkpt lat="48.50263" lon="-2.59538">
        <ele>84.5</ele>
        <time>2013-05-26T08:43:05.000Z</time>
      </trkpt>
      <trkpt lat="48.50265" lon="-2.59542">
        <ele>84.8</ele>
        <time>2013-05-26T08:43:08.000Z</time>
      </trkpt>
      <trkpt lat="48.50266" lon="-2.59543">
        <ele>85</ele>
        <time>2013-05-26T08:43:09.000Z</time>
      </trkpt>
      <trkpt lat="48.50266" lon="-2.59544">
        <ele>85.3</ele>
        <time>2013-05-26T08:43:18.000Z</time>
      </trkpt>
      <trkpt lat="48.50274" lon="-2.5954">
        <ele>108.8</ele>
        <time>2013-05-26T08:43:21.000Z</time>
      </trkpt>
      <trkpt lat="48.50271" lon="-2.59542">
        <ele>94</ele>
        <time>2013-05-26T08:43:24.000Z</time>
      </trkpt>
      <trkpt lat="48.5027" lon="-2.59542">
        <ele>94.2</ele>
        <time>2013-05-26T08:43:25.000Z</time>
      </trkpt>
      <trkpt lat="48.50269" lon="-2.59546">
        <ele>85.6</ele>
        <time>2013-05-26T08:44:26.000Z</time>
      </trkpt>
      <trkpt lat="48.50266" lon="-2.5954">
        <ele>85.1</ele>
        <time>2013-05-26T08:44:27.000Z</time>
      </trkpt>
      <trkpt lat="48.50264" lon="-2.59535">
        <ele>84.4</ele>
        <time>2013-05-26T08:44:33.000Z</time>
      </trkpt>
      <trkpt lat="48.50263" lon="-2.59533">
        <ele>84.6</ele>
        <time>2013-05-26T08:44:34.000Z</time>
      </trkpt>
      <trkpt lat="48.5026" lon="-2.5953">
        <ele>84.6</ele>
        <time>2013-05-26T08:44:36.000Z</time>
      </trkpt>
      <trkpt lat="48.50259" lon="-2.59527">
        <ele>84.5</ele>
        <time>2013-05-26T08:44:37.000Z</time>
      </trkpt>
      <trkpt lat="48.50256" lon="-2.59521">
        <ele>84.7</ele>
        <time>2013-05-26T08:44:39.000Z</time>
      </trkpt>
      <trkpt lat="48.50255" lon="-2.59519">
        <ele>84.9</ele>
        <time>2013-05-26T08:44:40.000Z</time>
      </trkpt>
      <trkpt lat="48.50254" lon="-2.59516">
        <ele>85.2</ele>
        <time>2013-05-26T08:44:41.000Z</time>
      </trkpt>
      <trkpt lat="48.50251" lon="-2.59512">
        <ele>85.3</ele>
        <time>2013-05-26T08:44:42.000Z</time>
      </trkpt>
      <trkpt lat="48.50249" lon="-2.59509">
        <ele>85.4</ele>
        <time>2013-05-26T08:44:43.000Z</time>
      </trkpt>
      <trkpt lat="48.50247" lon="-2.59505">
        <ele>85.7</ele>
        <time>2013-05-26T08:44:44.000Z</time>
      </trkpt>
      <trkpt lat="48.50245" lon="-2.59502">
        <ele>85.7</ele>
        <time>2013-05-26T08:44:45.000Z</time>
      </trkpt>
      <trkpt lat="48.50244" lon="-2.59498">
        <ele>85.9</ele>
        <time>2013-05-26T08:44:46.000Z</time>
      </trkpt>
      <trkpt lat="48.50242" lon="-2.59495">
        <ele>86.3</ele>
        <time>2013-05-26T08:44:47.000Z</time>
      </trkpt>
      <trkpt lat="48.5024" lon="-2.59491">
        <ele>86.6</ele>
        <time>2013-05-26T08:44:48.000Z</time>
      </trkpt>
      <trkpt lat="48.50239" lon="-2.59488">
        <ele>86.9</ele>
        <time>2013-05-26T08:44:49.000Z</time>
      </trkpt>
      <trkpt lat="48.50238" lon="-2.59485">
        <ele>87</ele>
        <time>2013-05-26T08:44:50.000Z</time>
      </trkpt>
      <trkpt lat="48.50236" lon="-2.59481">
        <ele>87.1</ele>
        <time>2013-05-26T08:44:51.000Z</time>
      </trkpt>
      <trkpt lat="48.50235" lon="-2.59478">
        <ele>87.2</ele>
        <time>2013-05-26T08:44:52.000Z</time>
      </trkpt>
      <trkpt lat="48.50233" lon="-2.59474">
        <ele>87.2</ele>
        <time>2013-05-26T08:44:53.000Z</time>
      </trkpt>
      <trkpt lat="48.50232" lon="-2.5947">
        <ele>87.1</ele>
        <time>2013-05-26T08:44:54.000Z</time>
      </trkpt>
      <trkpt lat="48.5023" lon="-2.59467">
        <ele>87.2</ele>
        <time>2013-05-26T08:44:55.000Z</time>
      </trkpt>
      <trkpt lat="48.50229" lon="-2.59463">
        <ele>87.3</ele>
        <time>2013-05-26T08:44:56.000Z</time>
      </trkpt>
      <trkpt lat="48.50228" lon="-2.5946">
        <ele>87.4</ele>
        <time>2013-05-26T08:44:57.000Z</time>
      </trkpt>
      <trkpt lat="48.50227" lon="-2.59456">
        <ele>87.6</ele>
        <time>2013-05-26T08:44:58.000Z</time>
      </trkpt>
      <trkpt lat="48.50226" lon="-2.59453">
        <ele>87.6</ele>
        <time>2013-05-26T08:44:59.000Z</time>
      </trkpt>
      <trkpt lat="48.50224" lon="-2.5945">
        <ele>87.9</ele>
        <time>2013-05-26T08:45:00.000Z</time>
      </trkpt>
      <trkpt lat="48.50222" lon="-2.59445">
        <ele>88.3</ele>
        <time>2013-05-26T08:45:02.000Z</time>
      </trkpt>
      <trkpt lat="48.5022" lon="-2.59443">
        <ele>88.4</ele>
        <time>2013-05-26T08:45:03.000Z</time>
      </trkpt>
      <trkpt lat="48.50218" lon="-2.59441">
        <ele>88.6</ele>
        <time>2013-05-26T08:45:04.000Z</time>
      </trkpt>
      <trkpt lat="48.50215" lon="-2.5944">
        <ele>89</ele>
        <time>2013-05-26T08:45:05.000Z</time>
      </trkpt>
      <trkpt lat="48.50213" lon="-2.59439">
        <ele>89.1</ele>
        <time>2013-05-26T08:45:06.000Z</time>
      </trkpt>
      <trkpt lat="48.50211" lon="-2.59439">
        <ele>89.4</ele>
        <time>2013-05-26T08:45:07.000Z</time>
      </trkpt>
      <trkpt lat="48.50208" lon="-2.59439">
        <ele>89.5</ele>
        <time>2013-05-26T08:45:08.000Z</time>
      </trkpt>
      <trkpt lat="48.50206" lon="-2.59439">
        <ele>89.6</ele>
        <time>2013-05-26T08:45:09.000Z</time>
      </trkpt>
      <trkpt lat="48.50202" lon="-2.59441">
        <ele>90.2</ele>
        <time>2013-05-26T08:45:11.000Z</time>
      </trkpt>
      <trkpt lat="48.50199" lon="-2.59442">
        <ele>90.4</ele>
        <time>2013-05-26T08:45:12.000Z</time>
      </trkpt>
      <trkpt lat="48.50197" lon="-2.59444">
        <ele>90.6</ele>
        <time>2013-05-26T08:45:13.000Z</time>
      </trkpt>
      <trkpt lat="48.50195" lon="-2.59445">
        <ele>90.8</ele>
        <time>2013-05-26T08:45:14.000Z</time>
      </trkpt>
      <trkpt lat="48.50193" lon="-2.59447">
        <ele>91</ele>
        <time>2013-05-26T08:45:15.000Z</time>
      </trkpt>
      <trkpt lat="48.5019" lon="-2.59448">
        <ele>91.1</ele>
        <time>2013-05-26T08:45:16.000Z</time>
      </trkpt>
      <trkpt lat="48.50188" lon="-2.59449">
        <ele>91.2</ele>
        <time>2013-05-26T08:45:17.000Z</time>
      </trkpt>
      <trkpt lat="48.50186" lon="-2.5945">
        <ele>91.3</ele>
        <time>2013-05-26T08:45:18.000Z</time>
      </trkpt>
      <trkpt lat="48.50174" lon="-2.59464">
        <ele>95.1</ele>
        <time>2013-05-26T08:45:21.000Z</time>
      </trkpt>
      <trkpt lat="48.50171" lon="-2.59461">
        <ele>98.3</ele>
        <time>2013-05-26T08:45:23.000Z</time>
      </trkpt>
      <trkpt lat="48.50169" lon="-2.59463">
        <ele>98.4</ele>
        <time>2013-05-26T08:45:24.000Z</time>
      </trkpt>
      <trkpt lat="48.50166" lon="-2.59464">
        <ele>97</ele>
        <time>2013-05-26T08:45:25.000Z</time>
      </trkpt>
      <trkpt lat="48.50164" lon="-2.59465">
        <ele>96.5</ele>
        <time>2013-05-26T08:45:26.000Z</time>
      </trkpt>
      <trkpt lat="48.50162" lon="-2.59466">
        <ele>96.1</ele>
        <time>2013-05-26T08:45:27.000Z</time>
      </trkpt>
      <trkpt lat="48.50159" lon="-2.59467">
        <ele>96.7</ele>
        <time>2013-05-26T08:45:28.000Z</time>
      </trkpt>
      <trkpt lat="48.50157" lon="-2.59468">
        <ele>96.6</ele>
        <time>2013-05-26T08:45:29.000Z</time>
      </trkpt>
      <trkpt lat="48.50154" lon="-2.59469">
        <ele>96.4</ele>
        <time>2013-05-26T08:45:30.000Z</time>
      </trkpt>
      <trkpt lat="48.50151" lon="-2.5947">
        <ele>96.7</ele>
        <time>2013-05-26T08:45:31.000Z</time>
      </trkpt>
      <trkpt lat="48.50149" lon="-2.59471">
        <ele>97</ele>
        <time>2013-05-26T08:45:32.000Z</time>
      </trkpt>
      <trkpt lat="48.50146" lon="-2.59472">
        <ele>97.3</ele>
        <time>2013-05-26T08:45:33.000Z</time>
      </trkpt>
      <trkpt lat="48.50144" lon="-2.59474">
        <ele>97.5</ele>
        <time>2013-05-26T08:45:34.000Z</time>
      </trkpt>
      <trkpt lat="48.50142" lon="-2.59475">
        <ele>97.7</ele>
        <time>2013-05-26T08:45:35.000Z</time>
      </trkpt>
      <trkpt lat="48.50139" lon="-2.59476">
        <ele>97.9</ele>
        <time>2013-05-26T08:45:36.000Z</time>
      </trkpt>
      <trkpt lat="48.50136" lon="-2.59477">
        <ele>98</ele>
        <time>2013-05-26T08:45:37.000Z</time>
      </trkpt>
      <trkpt lat="48.50133" lon="-2.59479">
        <ele>98</ele>
        <time>2013-05-26T08:45:38.000Z</time>
      </trkpt>
      <trkpt lat="48.50131" lon="-2.5948">
        <ele>98.2</ele>
        <time>2013-05-26T08:45:39.000Z</time>
      </trkpt>
      <trkpt lat="48.50128" lon="-2.59481">
        <ele>98.5</ele>
        <time>2013-05-26T08:45:40.000Z</time>
      </trkpt>
      <trkpt lat="48.50126" lon="-2.59482">
        <ele>98.7</ele>
        <time>2013-05-26T08:45:41.000Z</time>
      </trkpt>
      <trkpt lat="48.50123" lon="-2.59484">
        <ele>98.7</ele>
        <time>2013-05-26T08:45:42.000Z</time>
      </trkpt>
      <trkpt lat="48.5012" lon="-2.59485">
        <ele>98.7</ele>
        <time>2013-05-26T08:45:43.000Z</time>
      </trkpt>
      <trkpt lat="48.50118" lon="-2.59487">
        <ele>98.9</ele>
        <time>2013-05-26T08:45:44.000Z</time>
      </trkpt>
      <trkpt lat="48.50115" lon="-2.59489">
        <ele>98.9</ele>
        <time>2013-05-26T08:45:45.000Z</time>
      </trkpt>
      <trkpt lat="48.50113" lon="-2.5949">
        <ele>99.2</ele>
        <time>2013-05-26T08:45:46.000Z</time>
      </trkpt>
      <trkpt lat="48.50111" lon="-2.59492">
        <ele>99.4</ele>
        <time>2013-05-26T08:45:47.000Z</time>
      </trkpt>
      <trkpt lat="48.50108" lon="-2.59493">
        <ele>99.6</ele>
        <time>2013-05-26T08:45:48.000Z</time>
      </trkpt>
      <trkpt lat="48.50105" lon="-2.59495">
        <ele>99.7</ele>
        <time>2013-05-26T08:45:49.000Z</time>
      </trkpt>
      <trkpt lat="48.50103" lon="-2.59496">
        <ele>99.7</ele>
        <time>2013-05-26T08:45:50.000Z</time>
      </trkpt>
      <trkpt lat="48.50101" lon="-2.59498">
        <ele>99.8</ele>
        <time>2013-05-26T08:45:51.000Z</time>
      </trkpt>
      <trkpt lat="48.50098" lon="-2.595">
        <ele>99.8</ele>
        <time>2013-05-26T08:45:52.000Z</time>
      </trkpt>
      <trkpt lat="48.50096" lon="-2.59502">
        <ele>100</ele>
        <time>2013-05-26T08:45:53.000Z</time>
      </trkpt>
      <trkpt lat="48.50093" lon="-2.59505">
        <ele>100.1</ele>
        <time>2013-05-26T08:45:54.000Z</time>
      </trkpt>
      <trkpt lat="48.50091" lon="-2.59507">
        <ele>100.5</ele>
        <time>2013-05-26T08:45:55.000Z</time>
      </trkpt>
      <trkpt lat="48.50089" lon="-2.5951">
        <ele>100.8</ele>
        <time>2013-05-26T08:45:56.000Z</time>
      </trkpt>
      <trkpt lat="48.50087" lon="-2.59512">
        <ele>101</ele>
        <time>2013-05-26T08:45:57.000Z</time>
      </trkpt>
      <trkpt lat="48.50085" lon="-2.59515">
        <ele>101.4</ele>
        <time>2013-05-26T08:45:58.000Z</time>
      </trkpt>
      <trkpt lat="48.50083" lon="-2.59517">
        <ele>101.7</ele>
        <time>2013-05-26T08:45:59.000Z</time>
      </trkpt>
      <trkpt lat="48.50081" lon="-2.5952">
        <ele>101.8</ele>
        <time>2013-05-26T08:46:00.000Z</time>
      </trkpt>
      <trkpt lat="48.50078" lon="-2.59523">
        <ele>102.1</ele>
        <time>2013-05-26T08:46:01.000Z</time>
      </trkpt>
      <trkpt lat="48.50077" lon="-2.59525">
        <ele>102.4</ele>
        <time>2013-05-26T08:46:02.000Z</time>
      </trkpt>
      <trkpt lat="48.50074" lon="-2.59528">
        <ele>102.5</ele>
        <time>2013-05-26T08:46:03.000Z</time>
      </trkpt>
      <trkpt lat="48.50073" lon="-2.59531">
        <ele>102.5</ele>
        <time>2013-05-26T08:46:04.000Z</time>
      </trkpt>
      <trkpt lat="48.50071" lon="-2.59534">
        <ele>102.4</ele>
        <time>2013-05-26T08:46:05.000Z</time>
      </trkpt>
      <trkpt lat="48.50069" lon="-2.59537">
        <ele>102.5</ele>
        <time>2013-05-26T08:46:06.000Z</time>
      </trkpt>
      <trkpt lat="48.50067" lon="-2.59539">
        <ele>102.6</ele>
        <time>2013-05-26T08:46:07.000Z</time>
      </trkpt>
      <trkpt lat="48.50064" lon="-2.59542">
        <ele>102.8</ele>
        <time>2013-05-26T08:46:08.000Z</time>
      </trkpt>
      <trkpt lat="48.50062" lon="-2.59545">
        <ele>103</ele>
        <time>2013-05-26T08:46:09.000Z</time>
      </trkpt>
      <trkpt lat="48.50059" lon="-2.59548">
        <ele>103.1</ele>
        <time>2013-05-26T08:46:10.000Z</time>
      </trkpt>
      <trkpt lat="48.50057" lon="-2.5955">
        <ele>103.3</ele>
        <time>2013-05-26T08:46:11.000Z</time>
      </trkpt>
      <trkpt lat="48.50055" lon="-2.59553">
        <ele>103.5</ele>
        <time>2013-05-26T08:46:12.000Z</time>
      </trkpt>
      <trkpt lat="48.50052" lon="-2.59555">
        <ele>103.5</ele>
        <time>2013-05-26T08:46:13.000Z</time>
      </trkpt>
      <trkpt lat="48.5005" lon="-2.59558">
        <ele>103.6</ele>
        <time>2013-05-26T08:46:14.000Z</time>
      </trkpt>
      <trkpt lat="48.50048" lon="-2.5956">
        <ele>103.7</ele>
        <time>2013-05-26T08:46:15.000Z</time>
      </trkpt>
      <trkpt lat="48.50045" lon="-2.59562">
        <ele>103.8</ele>
        <time>2013-05-26T08:46:16.000Z</time>
      </trkpt>
      <trkpt lat="48.50043" lon="-2.59565">
        <ele>104</ele>
        <time>2013-05-26T08:46:17.000Z</time>
      </trkpt>
      <trkpt lat="48.50041" lon="-2.59567">
        <ele>103.9</ele>
        <time>2013-05-26T08:46:18.000Z</time>
      </trkpt>
      <trkpt lat="48.50036" lon="-2.59572">
        <ele>99.8</ele>
        <time>2013-05-26T08:46:20.000Z</time>
      </trkpt>
      <trkpt lat="48.50033" lon="-2.59577">
        <ele>101.5</ele>
        <time>2013-05-26T08:46:22.000Z</time>
      </trkpt>
      <trkpt lat="48.5003" lon="-2.59581">
        <ele>102.7</ele>
        <time>2013-05-26T08:46:23.000Z</time>
      </trkpt>
      <trkpt lat="48.50027" lon="-2.59585">
        <ele>102.3</ele>
        <time>2013-05-26T08:46:25.000Z</time>
      </trkpt>
      <trkpt lat="48.50025" lon="-2.59587">
        <ele>103</ele>
        <time>2013-05-26T08:46:26.000Z</time>
      </trkpt>
      <trkpt lat="48.50023" lon="-2.5959">
        <ele>104.9</ele>
        <time>2013-05-26T08:46:27.000Z</time>
      </trkpt>
      <trkpt lat="48.5002" lon="-2.59593">
        <ele>104.8</ele>
        <time>2013-05-26T08:46:28.000Z</time>
      </trkpt>
      <trkpt lat="48.50018" lon="-2.59596">
        <ele>104.6</ele>
        <time>2013-05-26T08:46:29.000Z</time>
      </trkpt>
      <trkpt lat="48.50016" lon="-2.59599">
        <ele>104.7</ele>
        <time>2013-05-26T08:46:30.000Z</time>
      </trkpt>
      <trkpt lat="48.50014" lon="-2.59602">
        <ele>104.8</ele>
        <time>2013-05-26T08:46:31.000Z</time>
      </trkpt>
      <trkpt lat="48.50012" lon="-2.59606">
        <ele>104.5</ele>
        <time>2013-05-26T08:46:32.000Z</time>
      </trkpt>
      <trkpt lat="48.5001" lon="-2.5961">
        <ele>104.6</ele>
        <time>2013-05-26T08:46:33.000Z</time>
      </trkpt>
      <trkpt lat="48.50008" lon="-2.59614">
        <ele>104.6</ele>
        <time>2013-05-26T08:46:34.000Z</time>
      </trkpt>
      <trkpt lat="48.50006" lon="-2.59618">
        <ele>104.7</ele>
        <time>2013-05-26T08:46:35.000Z</time>
      </trkpt>
      <trkpt lat="48.50003" lon="-2.59621">
        <ele>104.7</ele>
        <time>2013-05-26T08:46:36.000Z</time>
      </trkpt>
      <trkpt lat="48.50001" lon="-2.59625">
        <ele>104.8</ele>
        <time>2013-05-26T08:46:37.000Z</time>
      </trkpt>
      <trkpt lat="48.49999" lon="-2.59629">
        <ele>105.1</ele>
        <time>2013-05-26T08:46:38.000Z</time>
      </trkpt>
      <trkpt lat="48.49997" lon="-2.59632">
        <ele>105.7</ele>
        <time>2013-05-26T08:46:39.000Z</time>
      </trkpt>
      <trkpt lat="48.49995" lon="-2.59636">
        <ele>105.8</ele>
        <time>2013-05-26T08:46:40.000Z</time>
      </trkpt>
      <trkpt lat="48.49993" lon="-2.5964">
        <ele>105.6</ele>
        <time>2013-05-26T08:46:41.000Z</time>
      </trkpt>
      <trkpt lat="48.49991" lon="-2.59644">
        <ele>105.7</ele>
        <time>2013-05-26T08:46:42.000Z</time>
      </trkpt>
      <trkpt lat="48.49989" lon="-2.59648">
        <ele>105.7</ele>
        <time>2013-05-26T08:46:43.000Z</time>
      </trkpt>
      <trkpt lat="48.49987" lon="-2.59652">
        <ele>106</ele>
        <time>2013-05-26T08:46:44.000Z</time>
      </trkpt>
      <trkpt lat="48.49985" lon="-2.59656">
        <ele>105.9</ele>
        <time>2013-05-26T08:46:45.000Z</time>
      </trkpt>
      <trkpt lat="48.49983" lon="-2.5966">
        <ele>105.9</ele>
        <time>2013-05-26T08:46:46.000Z</time>
      </trkpt>
      <trkpt lat="48.49981" lon="-2.59664">
        <ele>106</ele>
        <time>2013-05-26T08:46:47.000Z</time>
      </trkpt>
      <trkpt lat="48.49979" lon="-2.59668">
        <ele>105.9</ele>
        <time>2013-05-26T08:46:48.000Z</time>
      </trkpt>
      <trkpt lat="48.49977" lon="-2.59672">
        <ele>105.9</ele>
        <time>2013-05-26T08:46:49.000Z</time>
      </trkpt>
      <trkpt lat="48.49975" lon="-2.59676">
        <ele>105.8</ele>
        <time>2013-05-26T08:46:50.000Z</time>
      </trkpt>
      <trkpt lat="48.49973" lon="-2.59682">
        <ele>105.3</ele>
        <time>2013-05-26T08:46:51.000Z</time>
      </trkpt>
      <trkpt lat="48.49971" lon="-2.59687">
        <ele>105.2</ele>
        <time>2013-05-26T08:46:52.000Z</time>
      </trkpt>
      <trkpt lat="48.49969" lon="-2.59691">
        <ele>105.1</ele>
        <time>2013-05-26T08:46:53.000Z</time>
      </trkpt>
      <trkpt lat="48.49968" lon="-2.59695">
        <ele>105.1</ele>
        <time>2013-05-26T08:46:54.000Z</time>
      </trkpt>
      <trkpt lat="48.49965" lon="-2.59699">
        <ele>104.7</ele>
        <time>2013-05-26T08:46:55.000Z</time>
      </trkpt>
      <trkpt lat="48.49964" lon="-2.59704">
        <ele>104.4</ele>
        <time>2013-05-26T08:46:56.000Z</time>
      </trkpt>
      <trkpt lat="48.49962" lon="-2.59708">
        <ele>104.3</ele>
        <time>2013-05-26T08:46:57.000Z</time>
      </trkpt>
      <trkpt lat="48.4996" lon="-2.59712">
        <ele>104.2</ele>
        <time>2013-05-26T08:46:58.000Z</time>
      </trkpt>
      <trkpt lat="48.49958" lon="-2.59716">
        <ele>104.1</ele>
        <time>2013-05-26T08:46:59.000Z</time>
      </trkpt>
      <trkpt lat="48.49957" lon="-2.5972">
        <ele>104</ele>
        <time>2013-05-26T08:47:00.000Z</time>
      </trkpt>
      <trkpt lat="48.49955" lon="-2.59723">
        <ele>104.3</ele>
        <time>2013-05-26T08:47:01.000Z</time>
      </trkpt>
      <trkpt lat="48.49953" lon="-2.59726">
        <ele>104.6</ele>
        <time>2013-05-26T08:47:02.000Z</time>
      </trkpt>
      <trkpt lat="48.4995" lon="-2.59729">
        <ele>104.8</ele>
        <time>2013-05-26T08:47:03.000Z</time>
      </trkpt>
      <trkpt lat="48.49948" lon="-2.5973">
        <ele>105</ele>
        <time>2013-05-26T08:47:04.000Z</time>
      </trkpt>
      <trkpt lat="48.49944" lon="-2.59729">
        <ele>105.1</ele>
        <time>2013-05-26T08:47:05.000Z</time>
      </trkpt>
      <trkpt lat="48.49942" lon="-2.59729">
        <ele>105.1</ele>
        <time>2013-05-26T08:47:06.000Z</time>
      </trkpt>
      <trkpt lat="48.49939" lon="-2.59728">
        <ele>105.1</ele>
        <time>2013-05-26T08:47:07.000Z</time>
      </trkpt>
      <trkpt lat="48.49936" lon="-2.59726">
        <ele>105.2</ele>
        <time>2013-05-26T08:47:08.000Z</time>
      </trkpt>
      <trkpt lat="48.49932" lon="-2.59725">
        <ele>105.3</ele>
        <time>2013-05-26T08:47:09.000Z</time>
      </trkpt>
      <trkpt lat="48.49929" lon="-2.59723">
        <ele>105.3</ele>
        <time>2013-05-26T08:47:10.000Z</time>
      </trkpt>
      <trkpt lat="48.49925" lon="-2.59721">
        <ele>105.3</ele>
        <time>2013-05-26T08:47:11.000Z</time>
      </trkpt>
      <trkpt lat="48.49922" lon="-2.5972">
        <ele>105.4</ele>
        <time>2013-05-26T08:47:12.000Z</time>
      </trkpt>
      <trkpt lat="48.49918" lon="-2.59718">
        <ele>105.6</ele>
        <time>2013-05-26T08:47:13.000Z</time>
      </trkpt>
      <trkpt lat="48.49914" lon="-2.59717">
        <ele>105.8</ele>
        <time>2013-05-26T08:47:14.000Z</time>
      </trkpt>
      <trkpt lat="48.49911" lon="-2.59716">
        <ele>105.8</ele>
        <time>2013-05-26T08:47:15.000Z</time>
      </trkpt>
      <trkpt lat="48.49907" lon="-2.59715">
        <ele>106</ele>
        <time>2013-05-26T08:47:16.000Z</time>
      </trkpt>
      <trkpt lat="48.49903" lon="-2.59713">
        <ele>106.1</ele>
        <time>2013-05-26T08:47:17.000Z</time>
      </trkpt>
      <trkpt lat="48.49899" lon="-2.59712">
        <ele>106.2</ele>
        <time>2013-05-26T08:47:18.000Z</time>
      </trkpt>
      <trkpt lat="48.49885" lon="-2.59705">
        <ele>108</ele>
        <time>2013-05-26T08:47:21.000Z</time>
      </trkpt>
      <trkpt lat="48.49881" lon="-2.59703">
        <ele>103.5</ele>
        <time>2013-05-26T08:47:22.000Z</time>
      </trkpt>
      <trkpt lat="48.49878" lon="-2.59703">
        <ele>106.6</ele>
        <time>2013-05-26T08:47:23.000Z</time>
      </trkpt>
      <trkpt lat="48.49875" lon="-2.59702">
        <ele>109.3</ele>
        <time>2013-05-26T08:47:24.000Z</time>
      </trkpt>
      <trkpt lat="48.49871" lon="-2.59701">
        <ele>108.9</ele>
        <time>2013-05-26T08:47:25.000Z</time>
      </trkpt>
      <trkpt lat="48.49867" lon="-2.59699">
        <ele>109.7</ele>
        <time>2013-05-26T08:47:26.000Z</time>
      </trkpt>
      <trkpt lat="48.49862" lon="-2.59699">
        <ele>108.6</ele>
        <time>2013-05-26T08:47:27.000Z</time>
      </trkpt>
      <trkpt lat="48.49858" lon="-2.59697">
        <ele>108.6</ele>
        <time>2013-05-26T08:47:28.000Z</time>
      </trkpt>
      <trkpt lat="48.49854" lon="-2.59695">
        <ele>108.4</ele>
        <time>2013-05-26T08:47:29.000Z</time>
      </trkpt>
      <trkpt lat="48.4985" lon="-2.59693">
        <ele>108.8</ele>
        <time>2013-05-26T08:47:30.000Z</time>
      </trkpt>
      <trkpt lat="48.49846" lon="-2.59691">
        <ele>107.5</ele>
        <time>2013-05-26T08:47:31.000Z</time>
      </trkpt>
      <trkpt lat="48.49842" lon="-2.5969">
        <ele>107.3</ele>
        <time>2013-05-26T08:47:32.000Z</time>
      </trkpt>
      <trkpt lat="48.49838" lon="-2.59688">
        <ele>106.8</ele>
        <time>2013-05-26T08:47:33.000Z</time>
      </trkpt>
      <trkpt lat="48.49834" lon="-2.59686">
        <ele>106.7</ele>
        <time>2013-05-26T08:47:34.000Z</time>
      </trkpt>
      <trkpt lat="48.4983" lon="-2.59684">
        <ele>106.7</ele>
        <time>2013-05-26T08:47:35.000Z</time>
      </trkpt>
      <trkpt lat="48.49826" lon="-2.59682">
        <ele>106.6</ele>
        <time>2013-05-26T08:47:36.000Z</time>
      </trkpt>
      <trkpt lat="48.49822" lon="-2.5968">
        <ele>106.9</ele>
        <time>2013-05-26T08:47:37.000Z</time>
      </trkpt>
      <trkpt lat="48.49818" lon="-2.59678">
        <ele>107.1</ele>
        <time>2013-05-26T08:47:38.000Z</time>
      </trkpt>
      <trkpt lat="48.49813" lon="-2.59675">
        <ele>108</ele>
        <time>2013-05-26T08:47:39.000Z</time>
      </trkpt>
      <trkpt lat="48.49808" lon="-2.59673">
        <ele>107.2</ele>
        <time>2013-05-26T08:47:40.000Z</time>
      </trkpt>
      <trkpt lat="48.49804" lon="-2.59671">
        <ele>106.6</ele>
        <time>2013-05-26T08:47:41.000Z</time>
      </trkpt>
      <trkpt lat="48.498" lon="-2.5967">
        <ele>106.2</ele>
        <time>2013-05-26T08:47:42.000Z</time>
      </trkpt>
      <trkpt lat="48.49796" lon="-2.59669">
        <ele>106.2</ele>
        <time>2013-05-26T08:47:43.000Z</time>
      </trkpt>
      <trkpt lat="48.49791" lon="-2.5967">
        <ele>105.8</ele>
        <time>2013-05-26T08:47:44.000Z</time>
      </trkpt>
      <trkpt lat="48.49787" lon="-2.59672">
        <ele>105.7</ele>
        <time>2013-05-26T08:47:45.000Z</time>
      </trkpt>
      <trkpt lat="48.49783" lon="-2.59674">
        <ele>105.7</ele>
        <time>2013-05-26T08:47:46.000Z</time>
      </trkpt>
      <trkpt lat="48.49779" lon="-2.59676">
        <ele>105.5</ele>
        <time>2013-05-26T08:47:47.000Z</time>
      </trkpt>
      <trkpt lat="48.49774" lon="-2.59678">
        <ele>105.4</ele>
        <time>2013-05-26T08:47:48.000Z</time>
      </trkpt>
      <trkpt lat="48.4977" lon="-2.5968">
        <ele>105.3</ele>
        <time>2013-05-26T08:47:49.000Z</time>
      </trkpt>
      <trkpt lat="48.49766" lon="-2.59682">
        <ele>105.3</ele>
        <time>2013-05-26T08:47:50.000Z</time>
      </trkpt>
      <trkpt lat="48.49761" lon="-2.59684">
        <ele>105.4</ele>
        <time>2013-05-26T08:47:51.000Z</time>
      </trkpt>
      <trkpt lat="48.49757" lon="-2.59686">
        <ele>105.6</ele>
        <time>2013-05-26T08:47:52.000Z</time>
      </trkpt>
      <trkpt lat="48.49752" lon="-2.59688">
        <ele>105.6</ele>
        <time>2013-05-26T08:47:53.000Z</time>
      </trkpt>
      <trkpt lat="48.49748" lon="-2.5969">
        <ele>105.7</ele>
        <time>2013-05-26T08:47:54.000Z</time>
      </trkpt>
      <trkpt lat="48.49744" lon="-2.59691">
        <ele>105.9</ele>
        <time>2013-05-26T08:47:55.000Z</time>
      </trkpt>
      <trkpt lat="48.49739" lon="-2.59693">
        <ele>106.1</ele>
        <time>2013-05-26T08:47:56.000Z</time>
      </trkpt>
      <trkpt lat="48.49735" lon="-2.59695">
        <ele>106.2</ele>
        <time>2013-05-26T08:47:57.000Z</time>
      </trkpt>
      <trkpt lat="48.49731" lon="-2.59696">
        <ele>106.4</ele>
        <time>2013-05-26T08:47:58.000Z</time>
      </trkpt>
      <trkpt lat="48.49727" lon="-2.59697">
        <ele>106.5</ele>
        <time>2013-05-26T08:47:59.000Z</time>
      </trkpt>
      <trkpt lat="48.49723" lon="-2.59699">
        <ele>106.5</ele>
        <time>2013-05-26T08:48:00.000Z</time>
      </trkpt>
      <trkpt lat="48.49719" lon="-2.59701">
        <ele>106.6</ele>
        <time>2013-05-26T08:48:01.000Z</time>
      </trkpt>
      <trkpt lat="48.49714" lon="-2.59702">
        <ele>106.6</ele>
        <time>2013-05-26T08:48:02.000Z</time>
      </trkpt>
      <trkpt lat="48.4971" lon="-2.59704">
        <ele>106.6</ele>
        <time>2013-05-26T08:48:03.000Z</time>
      </trkpt>
      <trkpt lat="48.49706" lon="-2.59706">
        <ele>106.5</ele>
        <time>2013-05-26T08:48:04.000Z</time>
      </trkpt>
      <trkpt lat="48.49701" lon="-2.59707">
        <ele>106.5</ele>
        <time>2013-05-26T08:48:05.000Z</time>
      </trkpt>
      <trkpt lat="48.49697" lon="-2.59709">
        <ele>106.4</ele>
        <time>2013-05-26T08:48:06.000Z</time>
      </trkpt>
      <trkpt lat="48.49693" lon="-2.5971">
        <ele>106.4</ele>
        <time>2013-05-26T08:48:07.000Z</time>
      </trkpt>
      <trkpt lat="48.49688" lon="-2.59712">
        <ele>106.4</ele>
        <time>2013-05-26T08:48:08.000Z</time>
      </trkpt>
      <trkpt lat="48.49684" lon="-2.59714">
        <ele>106.3</ele>
        <time>2013-05-26T08:48:09.000Z</time>
      </trkpt>
      <trkpt lat="48.4968" lon="-2.59716">
        <ele>106.3</ele>
        <time>2013-05-26T08:48:10.000Z</time>
      </trkpt>
      <trkpt lat="48.49676" lon="-2.59717">
        <ele>106.3</ele>
        <time>2013-05-26T08:48:11.000Z</time>
      </trkpt>
      <trkpt lat="48.49671" lon="-2.59719">
        <ele>106.4</ele>
        <time>2013-05-26T08:48:12.000Z</time>
      </trkpt>
      <trkpt lat="48.49667" lon="-2.59721">
        <ele>106.6</ele>
        <time>2013-05-26T08:48:13.000Z</time>
      </trkpt>
      <trkpt lat="48.49663" lon="-2.59723">
        <ele>106.7</ele>
        <time>2013-05-26T08:48:14.000Z</time>
      </trkpt>
      <trkpt lat="48.49659" lon="-2.59726">
        <ele>106.9</ele>
        <time>2013-05-26T08:48:15.000Z</time>
      </trkpt>
      <trkpt lat="48.49655" lon="-2.59729">
        <ele>107</ele>
        <time>2013-05-26T08:48:16.000Z</time>
      </trkpt>
      <trkpt lat="48.49651" lon="-2.59732">
        <ele>107.1</ele>
        <time>2013-05-26T08:48:17.000Z</time>
      </trkpt>
      <trkpt lat="48.49647" lon="-2.59735">
        <ele>107.1</ele>
        <time>2013-05-26T08:48:18.000Z</time>
      </trkpt>
      <trkpt lat="48.49634" lon="-2.59744">
        <ele>128.1</ele>
        <time>2013-05-26T08:48:21.000Z</time>
      </trkpt>
      <trkpt lat="48.49631" lon="-2.59752">
        <ele>109.7</ele>
        <time>2013-05-26T08:48:22.000Z</time>
      </trkpt>
      <trkpt lat="48.49626" lon="-2.59751">
        <ele>113.1</ele>
        <time>2013-05-26T08:48:23.000Z</time>
      </trkpt>
      <trkpt lat="48.49622" lon="-2.59756">
        <ele>110.1</ele>
        <time>2013-05-26T08:48:24.000Z</time>
      </trkpt>
      <trkpt lat="48.49618" lon="-2.59759">
        <ele>108.8</ele>
        <time>2013-05-26T08:48:25.000Z</time>
      </trkpt>
      <trkpt lat="48.49614" lon="-2.59762">
        <ele>108.8</ele>
        <time>2013-05-26T08:48:26.000Z</time>
      </trkpt>
      <trkpt lat="48.49609" lon="-2.59765">
        <ele>108.9</ele>
        <time>2013-05-26T08:48:27.000Z</time>
      </trkpt>
      <trkpt lat="48.49605" lon="-2.59766">
        <ele>109.3</ele>
        <time>2013-05-26T08:48:28.000Z</time>
      </trkpt>
      <trkpt lat="48.49601" lon="-2.59767">
        <ele>110.3</ele>
        <time>2013-05-26T08:48:29.000Z</time>
      </trkpt>
      <trkpt lat="48.49596" lon="-2.59768">
        <ele>110</ele>
        <time>2013-05-26T08:48:30.000Z</time>
      </trkpt>
      <trkpt lat="48.49591" lon="-2.59769">
        <ele>110.4</ele>
        <time>2013-05-26T08:48:31.000Z</time>
      </trkpt>
      <trkpt lat="48.49587" lon="-2.59771">
        <ele>110.6</ele>
        <time>2013-05-26T08:48:32.000Z</time>
      </trkpt>
      <trkpt lat="48.49582" lon="-2.59772">
        <ele>111.1</ele>
        <time>2013-05-26T08:48:33.000Z</time>
      </trkpt>
      <trkpt lat="48.49578" lon="-2.59773">
        <ele>110.9</ele>
        <time>2013-05-26T08:48:34.000Z</time>
      </trkpt>
      <trkpt lat="48.49573" lon="-2.59774">
        <ele>110.9</ele>
        <time>2013-05-26T08:48:35.000Z</time>
      </trkpt>
      <trkpt lat="48.49569" lon="-2.59775">
        <ele>111.2</ele>
        <time>2013-05-26T08:48:36.000Z</time>
      </trkpt>
      <trkpt lat="48.49565" lon="-2.59776">
        <ele>111.3</ele>
        <time>2013-05-26T08:48:37.000Z</time>
      </trkpt>
      <trkpt lat="48.4956" lon="-2.59777">
        <ele>111.1</ele>
        <time>2013-05-26T08:48:38.000Z</time>
      </trkpt>
      <trkpt lat="48.49556" lon="-2.59778">
        <ele>110.6</ele>
        <time>2013-05-26T08:48:39.000Z</time>
      </trkpt>
      <trkpt lat="48.49552" lon="-2.5978">
        <ele>110.2</ele>
        <time>2013-05-26T08:48:40.000Z</time>
      </trkpt>
      <trkpt lat="48.49548" lon="-2.5978">
        <ele>110.2</ele>
        <time>2013-05-26T08:48:41.000Z</time>
      </trkpt>
      <trkpt lat="48.49543" lon="-2.59781">
        <ele>110.4</ele>
        <time>2013-05-26T08:48:42.000Z</time>
      </trkpt>
      <trkpt lat="48.49539" lon="-2.59783">
        <ele>110.5</ele>
        <time>2013-05-26T08:48:43.000Z</time>
      </trkpt>
      <trkpt lat="48.49535" lon="-2.59785">
        <ele>109.7</ele>
        <time>2013-05-26T08:48:44.000Z</time>
      </trkpt>
      <trkpt lat="48.49531" lon="-2.59788">
        <ele>109.2</ele>
        <time>2013-05-26T08:48:45.000Z</time>
      </trkpt>
      <trkpt lat="48.49528" lon="-2.59792">
        <ele>109.3</ele>
        <time>2013-05-26T08:48:46.000Z</time>
      </trkpt>
      <trkpt lat="48.49524" lon="-2.59797">
        <ele>109.4</ele>
        <time>2013-05-26T08:48:47.000Z</time>
      </trkpt>
      <trkpt lat="48.49521" lon="-2.59803">
        <ele>109.5</ele>
        <time>2013-05-26T08:48:48.000Z</time>
      </trkpt>
      <trkpt lat="48.49519" lon="-2.59809">
        <ele>109.5</ele>
        <time>2013-05-26T08:48:49.000Z</time>
      </trkpt>
      <trkpt lat="48.49518" lon="-2.59817">
        <ele>109.4</ele>
        <time>2013-05-26T08:48:50.000Z</time>
      </trkpt>
      <trkpt lat="48.49517" lon="-2.59824">
        <ele>109.3</ele>
        <time>2013-05-26T08:48:51.000Z</time>
      </trkpt>
      <trkpt lat="48.49516" lon="-2.59833">
        <ele>109.2</ele>
        <time>2013-05-26T08:48:52.000Z</time>
      </trkpt>
      <trkpt lat="48.49515" lon="-2.59841">
        <ele>109.1</ele>
        <time>2013-05-26T08:48:53.000Z</time>
      </trkpt>
      <trkpt lat="48.49514" lon="-2.59849">
        <ele>109.1</ele>
        <time>2013-05-26T08:48:54.000Z</time>
      </trkpt>
      <trkpt lat="48.49514" lon="-2.59858">
        <ele>109.1</ele>
        <time>2013-05-26T08:48:55.000Z</time>
      </trkpt>
      <trkpt lat="48.49513" lon="-2.59867">
        <ele>108.9</ele>
        <time>2013-05-26T08:48:56.000Z</time>
      </trkpt>
      <trkpt lat="48.49512" lon="-2.59875">
        <ele>108.7</ele>
        <time>2013-05-26T08:48:57.000Z</time>
      </trkpt>
      <trkpt lat="48.49511" lon="-2.59883">
        <ele>108.7</ele>
        <time>2013-05-26T08:48:58.000Z</time>
      </trkpt>
      <trkpt lat="48.4951" lon="-2.59892">
        <ele>108.8</ele>
        <time>2013-05-26T08:48:59.000Z</time>
      </trkpt>
      <trkpt lat="48.4951" lon="-2.599">
        <ele>108.8</ele>
        <time>2013-05-26T08:49:00.000Z</time>
      </trkpt>
      <trkpt lat="48.49509" lon="-2.59908">
        <ele>109</ele>
        <time>2013-05-26T08:49:01.000Z</time>
      </trkpt>
      <trkpt lat="48.49508" lon="-2.59916">
        <ele>109</ele>
        <time>2013-05-26T08:49:02.000Z</time>
      </trkpt>
      <trkpt lat="48.49507" lon="-2.59925">
        <ele>109.1</ele>
        <time>2013-05-26T08:49:03.000Z</time>
      </trkpt>
      <trkpt lat="48.49507" lon="-2.59934">
        <ele>109.4</ele>
        <time>2013-05-26T08:49:04.000Z</time>
      </trkpt>
      <trkpt lat="48.49506" lon="-2.59942">
        <ele>109.9</ele>
        <time>2013-05-26T08:49:05.000Z</time>
      </trkpt>
      <trkpt lat="48.49505" lon="-2.59951">
        <ele>110</ele>
        <time>2013-05-26T08:49:06.000Z</time>
      </trkpt>
      <trkpt lat="48.49504" lon="-2.5996">
        <ele>109.8</ele>
        <time>2013-05-26T08:49:07.000Z</time>
      </trkpt>
      <trkpt lat="48.49502" lon="-2.59969">
        <ele>109.7</ele>
        <time>2013-05-26T08:49:08.000Z</time>
      </trkpt>
      <trkpt lat="48.49501" lon="-2.59978">
        <ele>109.6</ele>
        <time>2013-05-26T08:49:09.000Z</time>
      </trkpt>
      <trkpt lat="48.49499" lon="-2.59986">
        <ele>109.3</ele>
        <time>2013-05-26T08:49:10.000Z</time>
      </trkpt>
      <trkpt lat="48.49498" lon="-2.59994">
        <ele>108.9</ele>
        <time>2013-05-26T08:49:11.000Z</time>
      </trkpt>
      <trkpt lat="48.49496" lon="-2.60003">
        <ele>107.9</ele>
        <time>2013-05-26T08:49:12.000Z</time>
      </trkpt>
      <trkpt lat="48.49496" lon="-2.60012">
        <ele>107.2</ele>
        <time>2013-05-26T08:49:13.000Z</time>
      </trkpt>
      <trkpt lat="48.49497" lon="-2.6002">
        <ele>106.8</ele>
        <time>2013-05-26T08:49:14.000Z</time>
      </trkpt>
      <trkpt lat="48.49498" lon="-2.60026">
        <ele>106.3</ele>
        <time>2013-05-26T08:49:15.000Z</time>
      </trkpt>
      <trkpt lat="48.49501" lon="-2.60029">
        <ele>105.8</ele>
        <time>2013-05-26T08:49:16.000Z</time>
      </trkpt>
      <trkpt lat="48.49503" lon="-2.60031">
        <ele>105.4</ele>
        <time>2013-05-26T08:49:17.000Z</time>
      </trkpt>
      <trkpt lat="48.49506" lon="-2.6003">
        <ele>105.1</ele>
        <time>2013-05-26T08:49:18.000Z</time>
      </trkpt>
      <trkpt lat="48.49514" lon="-2.60025">
        <ele>107.9</ele>
        <time>2013-05-26T08:49:22.000Z</time>
      </trkpt>
      <trkpt lat="48.4952" lon="-2.60025">
        <ele>107.1</ele>
        <time>2013-05-26T08:49:24.000Z</time>
      </trkpt>
      <trkpt lat="48.49524" lon="-2.60024">
        <ele>107.7</ele>
        <time>2013-05-26T08:49:25.000Z</time>
      </trkpt>
      <trkpt lat="48.49528" lon="-2.60022">
        <ele>107.9</ele>
        <time>2013-05-26T08:49:26.000Z</time>
      </trkpt>
      <trkpt lat="48.49531" lon="-2.6002">
        <ele>109</ele>
        <time>2013-05-26T08:49:27.000Z</time>
      </trkpt>
      <trkpt lat="48.49536" lon="-2.60017">
        <ele>107.9</ele>
        <time>2013-05-26T08:49:28.000Z</time>
      </trkpt>
      <trkpt lat="48.4954" lon="-2.60016">
        <ele>107.7</ele>
        <time>2013-05-26T08:49:29.000Z</time>
      </trkpt>
      <trkpt lat="48.49545" lon="-2.60014">
        <ele>106.3</ele>
        <time>2013-05-26T08:49:30.000Z</time>
      </trkpt>
      <trkpt lat="48.4955" lon="-2.60011">
        <ele>105.8</ele>
        <time>2013-05-26T08:49:31.000Z</time>
      </trkpt>
      <trkpt lat="48.49555" lon="-2.60009">
        <ele>104.3</ele>
        <time>2013-05-26T08:49:32.000Z</time>
      </trkpt>
      <trkpt lat="48.49559" lon="-2.60006">
        <ele>104</ele>
        <time>2013-05-26T08:49:33.000Z</time>
      </trkpt>
      <trkpt lat="48.49564" lon="-2.60004">
        <ele>104</ele>
        <time>2013-05-26T08:49:34.000Z</time>
      </trkpt>
      <trkpt lat="48.49568" lon="-2.60002">
        <ele>104.3</ele>
        <time>2013-05-26T08:49:35.000Z</time>
      </trkpt>
      <trkpt lat="48.49572" lon="-2.6">
        <ele>104.7</ele>
        <time>2013-05-26T08:49:36.000Z</time>
      </trkpt>
      <trkpt lat="48.49576" lon="-2.59997">
        <ele>104.7</ele>
        <time>2013-05-26T08:49:37.000Z</time>
      </trkpt>
      <trkpt lat="48.4958" lon="-2.59996">
        <ele>104.9</ele>
        <time>2013-05-26T08:49:38.000Z</time>
      </trkpt>
      <trkpt lat="48.49584" lon="-2.59994">
        <ele>104.9</ele>
        <time>2013-05-26T08:49:39.000Z</time>
      </trkpt>
      <trkpt lat="48.49588" lon="-2.59992">
        <ele>105.3</ele>
        <time>2013-05-26T08:49:40.000Z</time>
      </trkpt>
      <trkpt lat="48.49592" lon="-2.5999">
        <ele>104.7</ele>
        <time>2013-05-26T08:49:41.000Z</time>
      </trkpt>
      <trkpt lat="48.49596" lon="-2.59988">
        <ele>103.9</ele>
        <time>2013-05-26T08:49:42.000Z</time>
      </trkpt>
      <trkpt lat="48.496" lon="-2.59986">
        <ele>103.8</ele>
        <time>2013-05-26T08:49:43.000Z</time>
      </trkpt>
      <trkpt lat="48.49604" lon="-2.59985">
        <ele>103.5</ele>
        <time>2013-05-26T08:49:44.000Z</time>
      </trkpt>
      <trkpt lat="48.49609" lon="-2.59984">
        <ele>103.7</ele>
        <time>2013-05-26T08:49:45.000Z</time>
      </trkpt>
      <trkpt lat="48.49613" lon="-2.59983">
        <ele>103.9</ele>
        <time>2013-05-26T08:49:46.000Z</time>
      </trkpt>
      <trkpt lat="48.49617" lon="-2.59983">
        <ele>103.9</ele>
        <time>2013-05-26T08:49:47.000Z</time>
      </trkpt>
      <trkpt lat="48.49621" lon="-2.59983">
        <ele>104</ele>
        <time>2013-05-26T08:49:48.000Z</time>
      </trkpt>
      <trkpt lat="48.49625" lon="-2.59985">
        <ele>104</ele>
        <time>2013-05-26T08:49:49.000Z</time>
      </trkpt>
      <trkpt lat="48.49629" lon="-2.59988">
        <ele>103.9</ele>
        <time>2013-05-26T08:49:50.000Z</time>
      </trkpt>
      <trkpt lat="48.49633" lon="-2.5999">
        <ele>104</ele>
        <time>2013-05-26T08:49:51.000Z</time>
      </trkpt>
      <trkpt lat="48.49636" lon="-2.59994">
        <ele>104.3</ele>
        <time>2013-05-26T08:49:52.000Z</time>
      </trkpt>
      <trkpt lat="48.4964" lon="-2.59997">
        <ele>104.5</ele>
        <time>2013-05-26T08:49:53.000Z</time>
      </trkpt>
      <trkpt lat="48.49644" lon="-2.6">
        <ele>104.6</ele>
        <time>2013-05-26T08:49:54.000Z</time>
      </trkpt>
      <trkpt lat="48.49647" lon="-2.60003">
        <ele>104.6</ele>
        <time>2013-05-26T08:49:55.000Z</time>
      </trkpt>
      <trkpt lat="48.49651" lon="-2.60006">
        <ele>104.7</ele>
        <time>2013-05-26T08:49:56.000Z</time>
      </trkpt>
      <trkpt lat="48.49654" lon="-2.6001">
        <ele>104.9</ele>
        <time>2013-05-26T08:49:57.000Z</time>
      </trkpt>
      <trkpt lat="48.49658" lon="-2.60013">
        <ele>104.8</ele>
        <time>2013-05-26T08:49:58.000Z</time>
      </trkpt>
      <trkpt lat="48.49661" lon="-2.60016">
        <ele>104.8</ele>
        <time>2013-05-26T08:49:59.000Z</time>
      </trkpt>
      <trkpt lat="48.49665" lon="-2.60019">
        <ele>104.8</ele>
        <time>2013-05-26T08:50:00.000Z</time>
      </trkpt>
      <trkpt lat="48.49669" lon="-2.60022">
        <ele>104.9</ele>
        <time>2013-05-26T08:50:01.000Z</time>
      </trkpt>
      <trkpt lat="48.49672" lon="-2.60025">
        <ele>104.9</ele>
        <time>2013-05-26T08:50:02.000Z</time>
      </trkpt>
      <trkpt lat="48.49676" lon="-2.60028">
        <ele>104.9</ele>
        <time>2013-05-26T08:50:03.000Z</time>
      </trkpt>
      <trkpt lat="48.4968" lon="-2.60031">
        <ele>104.9</ele>
        <time>2013-05-26T08:50:04.000Z</time>
      </trkpt>
      <trkpt lat="48.49683" lon="-2.60034">
        <ele>105</ele>
        <time>2013-05-26T08:50:05.000Z</time>
      </trkpt>
      <trkpt lat="48.49687" lon="-2.60038">
        <ele>104.9</ele>
        <time>2013-05-26T08:50:06.000Z</time>
      </trkpt>
      <trkpt lat="48.49691" lon="-2.60041">
        <ele>105.1</ele>
        <time>2013-05-26T08:50:07.000Z</time>
      </trkpt>
      <trkpt lat="48.49694" lon="-2.60044">
        <ele>105.2</ele>
        <time>2013-05-26T08:50:08.000Z</time>
      </trkpt>
      <trkpt lat="48.49698" lon="-2.60048">
        <ele>105.4</ele>
        <time>2013-05-26T08:50:09.000Z</time>
      </trkpt>
      <trkpt lat="48.49701" lon="-2.60051">
        <ele>105.5</ele>
        <time>2013-05-26T08:50:10.000Z</time>
      </trkpt>
      <trkpt lat="48.49705" lon="-2.60055">
        <ele>105.6</ele>
        <time>2013-05-26T08:50:11.000Z</time>
      </trkpt>
      <trkpt lat="48.49709" lon="-2.60058">
        <ele>105.7</ele>
        <time>2013-05-26T08:50:12.000Z</time>
      </trkpt>
      <trkpt lat="48.49712" lon="-2.60061">
        <ele>105.9</ele>
        <time>2013-05-26T08:50:13.000Z</time>
      </trkpt>
      <trkpt lat="48.49716" lon="-2.60065">
        <ele>106</ele>
        <time>2013-05-26T08:50:14.000Z</time>
      </trkpt>
      <trkpt lat="48.49719" lon="-2.60068">
        <ele>106.1</ele>
        <time>2013-05-26T08:50:15.000Z</time>
      </trkpt>
      <trkpt lat="48.49723" lon="-2.60071">
        <ele>106.1</ele>
        <time>2013-05-26T08:50:16.000Z</time>
      </trkpt>
      <trkpt lat="48.49727" lon="-2.60074">
        <ele>106.1</ele>
        <time>2013-05-26T08:50:17.000Z</time>
      </trkpt>
      <trkpt lat="48.49731" lon="-2.60077">
        <ele>106.1</ele>
        <time>2013-05-26T08:50:18.000Z</time>
      </trkpt>
      <trkpt lat="48.4975" lon="-2.60087">
        <ele>102.8</ele>
        <time>2013-05-26T08:50:22.000Z</time>
      </trkpt>
      <trkpt lat="48.49759" lon="-2.6009">
        <ele>101.9</ele>
        <time>2013-05-26T08:50:24.000Z</time>
      </trkpt>
      <trkpt lat="48.49761" lon="-2.60093">
        <ele>105.2</ele>
        <time>2013-05-26T08:50:25.000Z</time>
      </trkpt>
      <trkpt lat="48.49765" lon="-2.60095">
        <ele>105.2</ele>
        <time>2013-05-26T08:50:26.000Z</time>
      </trkpt>
      <trkpt lat="48.49769" lon="-2.60096">
        <ele>103.7</ele>
        <time>2013-05-26T08:50:27.000Z</time>
      </trkpt>
      <trkpt lat="48.49773" lon="-2.60098">
        <ele>105.2</ele>
        <time>2013-05-26T08:50:28.000Z</time>
      </trkpt>
      <trkpt lat="48.49777" lon="-2.601">
        <ele>106</ele>
        <time>2013-05-26T08:50:29.000Z</time>
      </trkpt>
      <trkpt lat="48.49781" lon="-2.60102">
        <ele>106.5</ele>
        <time>2013-05-26T08:50:30.000Z</time>
      </trkpt>
      <trkpt lat="48.49785" lon="-2.60104">
        <ele>107.1</ele>
        <time>2013-05-26T08:50:31.000Z</time>
      </trkpt>
      <trkpt lat="48.49789" lon="-2.60106">
        <ele>107.3</ele>
        <time>2013-05-26T08:50:32.000Z</time>
      </trkpt>
      <trkpt lat="48.49794" lon="-2.60108">
        <ele>106.9</ele>
        <time>2013-05-26T08:50:33.000Z</time>
      </trkpt>
      <trkpt lat="48.49798" lon="-2.6011">
        <ele>106.6</ele>
        <time>2013-05-26T08:50:34.000Z</time>
      </trkpt>
      <trkpt lat="48.49803" lon="-2.60111">
        <ele>105.8</ele>
        <time>2013-05-26T08:50:35.000Z</time>
      </trkpt>
      <trkpt lat="48.49807" lon="-2.60113">
        <ele>105.1</ele>
        <time>2013-05-26T08:50:36.000Z</time>
      </trkpt>
      <trkpt lat="48.49812" lon="-2.60115">
        <ele>105</ele>
        <time>2013-05-26T08:50:37.000Z</time>
      </trkpt>
      <trkpt lat="48.49816" lon="-2.60117">
        <ele>105</ele>
        <time>2013-05-26T08:50:38.000Z</time>
      </trkpt>
      <trkpt lat="48.4982" lon="-2.60119">
        <ele>105</ele>
        <time>2013-05-26T08:50:39.000Z</time>
      </trkpt>
      <trkpt lat="48.49825" lon="-2.60121">
        <ele>105.1</ele>
        <time>2013-05-26T08:50:40.000Z</time>
      </trkpt>
      <trkpt lat="48.49829" lon="-2.60123">
        <ele>105.2</ele>
        <time>2013-05-26T08:50:41.000Z</time>
      </trkpt>
      <trkpt lat="48.49833" lon="-2.60126">
        <ele>105.3</ele>
        <time>2013-05-26T08:50:42.000Z</time>
      </trkpt>
      <trkpt lat="48.49837" lon="-2.60128">
        <ele>105.6</ele>
        <time>2013-05-26T08:50:43.000Z</time>
      </trkpt>
      <trkpt lat="48.49841" lon="-2.60131">
        <ele>106</ele>
        <time>2013-05-26T08:50:44.000Z</time>
      </trkpt>
      <trkpt lat="48.49846" lon="-2.60133">
        <ele>106.2</ele>
        <time>2013-05-26T08:50:45.000Z</time>
      </trkpt>
      <trkpt lat="48.4985" lon="-2.60135">
        <ele>106.4</ele>
        <time>2013-05-26T08:50:46.000Z</time>
      </trkpt>
      <trkpt lat="48.49854" lon="-2.60138">
        <ele>106.6</ele>
        <time>2013-05-26T08:50:47.000Z</time>
      </trkpt>
      <trkpt lat="48.49858" lon="-2.60141">
        <ele>106.8</ele>
        <time>2013-05-26T08:50:48.000Z</time>
      </trkpt>
      <trkpt lat="48.49863" lon="-2.60144">
        <ele>106.9</ele>
        <time>2013-05-26T08:50:49.000Z</time>
      </trkpt>
      <trkpt lat="48.49867" lon="-2.60146">
        <ele>106.9</ele>
        <time>2013-05-26T08:50:50.000Z</time>
      </trkpt>
      <trkpt lat="48.49871" lon="-2.60149">
        <ele>106.8</ele>
        <time>2013-05-26T08:50:51.000Z</time>
      </trkpt>
      <trkpt lat="48.49876" lon="-2.60152">
        <ele>106.7</ele>
        <time>2013-05-26T08:50:52.000Z</time>
      </trkpt>
      <trkpt lat="48.49881" lon="-2.60155">
        <ele>106.6</ele>
        <time>2013-05-26T08:50:53.000Z</time>
      </trkpt>
      <trkpt lat="48.49885" lon="-2.60157">
        <ele>106.7</ele>
        <time>2013-05-26T08:50:54.000Z</time>
      </trkpt>
      <trkpt lat="48.4989" lon="-2.6016">
        <ele>106.7</ele>
        <time>2013-05-26T08:50:55.000Z</time>
      </trkpt>
      <trkpt lat="48.49895" lon="-2.60162">
        <ele>106.8</ele>
        <time>2013-05-26T08:50:56.000Z</time>
      </trkpt>
      <trkpt lat="48.49899" lon="-2.60165">
        <ele>106.8</ele>
        <time>2013-05-26T08:50:57.000Z</time>
      </trkpt>
      <trkpt lat="48.49904" lon="-2.60167">
        <ele>106.8</ele>
        <time>2013-05-26T08:50:58.000Z</time>
      </trkpt>
      <trkpt lat="48.4991" lon="-2.60169">
        <ele>106.8</ele>
        <time>2013-05-26T08:50:59.000Z</time>
      </trkpt>
      <trkpt lat="48.49915" lon="-2.6017">
        <ele>106.9</ele>
        <time>2013-05-26T08:51:00.000Z</time>
      </trkpt>
      <trkpt lat="48.4992" lon="-2.60172">
        <ele>107.1</ele>
        <time>2013-05-26T08:51:01.000Z</time>
      </trkpt>
      <trkpt lat="48.49924" lon="-2.60173">
        <ele>107.2</ele>
        <time>2013-05-26T08:51:02.000Z</time>
      </trkpt>
      <trkpt lat="48.49929" lon="-2.60174">
        <ele>107.3</ele>
        <time>2013-05-26T08:51:03.000Z</time>
      </trkpt>
      <trkpt lat="48.49933" lon="-2.60175">
        <ele>107.4</ele>
        <time>2013-05-26T08:51:04.000Z</time>
      </trkpt>
      <trkpt lat="48.49937" lon="-2.60177">
        <ele>107.4</ele>
        <time>2013-05-26T08:51:05.000Z</time>
      </trkpt>
      <trkpt lat="48.49942" lon="-2.60178">
        <ele>107.5</ele>
        <time>2013-05-26T08:51:06.000Z</time>
      </trkpt>
      <trkpt lat="48.49947" lon="-2.60179">
        <ele>107.7</ele>
        <time>2013-05-26T08:51:07.000Z</time>
      </trkpt>
      <trkpt lat="48.49952" lon="-2.60181">
        <ele>107.8</ele>
        <time>2013-05-26T08:51:08.000Z</time>
      </trkpt>
      <trkpt lat="48.49957" lon="-2.60182">
        <ele>107.7</ele>
        <time>2013-05-26T08:51:09.000Z</time>
      </trkpt>
      <trkpt lat="48.49962" lon="-2.60183">
        <ele>107.6</ele>
        <time>2013-05-26T08:51:10.000Z</time>
      </trkpt>
      <trkpt lat="48.49967" lon="-2.60184">
        <ele>107.5</ele>
        <time>2013-05-26T08:51:11.000Z</time>
      </trkpt>
      <trkpt lat="48.49973" lon="-2.60185">
        <ele>107.3</ele>
        <time>2013-05-26T08:51:12.000Z</time>
      </trkpt>
      <trkpt lat="48.49978" lon="-2.60187">
        <ele>107.2</ele>
        <time>2013-05-26T08:51:13.000Z</time>
      </trkpt>
      <trkpt lat="48.49983" lon="-2.60188">
        <ele>107.1</ele>
        <time>2013-05-26T08:51:14.000Z</time>
      </trkpt>
      <trkpt lat="48.49988" lon="-2.60189">
        <ele>107.1</ele>
        <time>2013-05-26T08:51:15.000Z</time>
      </trkpt>
      <trkpt lat="48.49994" lon="-2.6019">
        <ele>107.1</ele>
        <time>2013-05-26T08:51:16.000Z</time>
      </trkpt>
      <trkpt lat="48.5" lon="-2.60191">
        <ele>107</ele>
        <time>2013-05-26T08:51:17.000Z</time>
      </trkpt>
      <trkpt lat="48.50005" lon="-2.60192">
        <ele>106.9</ele>
        <time>2013-05-26T08:51:18.000Z</time>
      </trkpt>
      <trkpt lat="48.50035" lon="-2.60201">
        <ele>109.7</ele>
        <time>2013-05-26T08:51:20.000Z</time>
      </trkpt>
      <trkpt lat="48.50043" lon="-2.60196">
        <ele>98.3</ele>
        <time>2013-05-26T08:51:22.000Z</time>
      </trkpt>
      <trkpt lat="48.50049" lon="-2.60197">
        <ele>96.7</ele>
        <time>2013-05-26T08:51:23.000Z</time>
      </trkpt>
      <trkpt lat="48.50057" lon="-2.60197">
        <ele>94.5</ele>
        <time>2013-05-26T08:51:24.000Z</time>
      </trkpt>
      <trkpt lat="48.50064" lon="-2.60198">
        <ele>94.7</ele>
        <time>2013-05-26T08:51:25.000Z</time>
      </trkpt>
      <trkpt lat="48.50072" lon="-2.602">
        <ele>93</ele>
        <time>2013-05-26T08:51:26.000Z</time>
      </trkpt>
      <trkpt lat="48.5008" lon="-2.60201">
        <ele>92.7</ele>
        <time>2013-05-26T08:51:27.000Z</time>
      </trkpt>
      <trkpt lat="48.50089" lon="-2.60202">
        <ele>91</ele>
        <time>2013-05-26T08:51:28.000Z</time>
      </trkpt>
      <trkpt lat="48.50098" lon="-2.60203">
        <ele>91</ele>
        <time>2013-05-26T08:51:29.000Z</time>
      </trkpt>
      <trkpt lat="48.50107" lon="-2.60204">
        <ele>90.8</ele>
        <time>2013-05-26T08:51:30.000Z</time>
      </trkpt>
      <trkpt lat="48.50116" lon="-2.60204">
        <ele>90.7</ele>
        <time>2013-05-26T08:51:31.000Z</time>
      </trkpt>
      <trkpt lat="48.50126" lon="-2.60204">
        <ele>90</ele>
        <time>2013-05-26T08:51:32.000Z</time>
      </trkpt>
      <trkpt lat="48.50135" lon="-2.60203">
        <ele>89.1</ele>
        <time>2013-05-26T08:51:33.000Z</time>
      </trkpt>
      <trkpt lat="48.50145" lon="-2.60201">
        <ele>88.2</ele>
        <time>2013-05-26T08:51:34.000Z</time>
      </trkpt>
      <trkpt lat="48.50155" lon="-2.60199">
        <ele>87.4</ele>
        <time>2013-05-26T08:51:35.000Z</time>
      </trkpt>
      <trkpt lat="48.50163" lon="-2.60197">
        <ele>86.6</ele>
        <time>2013-05-26T08:51:36.000Z</time>
      </trkpt>
      <trkpt lat="48.50171" lon="-2.60195">
        <ele>85.6</ele>
        <time>2013-05-26T08:51:37.000Z</time>
      </trkpt>
      <trkpt lat="48.50177" lon="-2.60194">
        <ele>85</ele>
        <time>2013-05-26T08:51:38.000Z</time>
      </trkpt>
      <trkpt lat="48.50182" lon="-2.60196">
        <ele>84.9</ele>
        <time>2013-05-26T08:51:39.000Z</time>
      </trkpt>
      <trkpt lat="48.50185" lon="-2.60201">
        <ele>84.1</ele>
        <time>2013-05-26T08:51:40.000Z</time>
      </trkpt>
      <trkpt lat="48.50186" lon="-2.60207">
        <ele>84.1</ele>
        <time>2013-05-26T08:51:41.000Z</time>
      </trkpt>
      <trkpt lat="48.50187" lon="-2.60214">
        <ele>83.6</ele>
        <time>2013-05-26T08:51:42.000Z</time>
      </trkpt>
      <trkpt lat="48.50188" lon="-2.6022">
        <ele>82.7</ele>
        <time>2013-05-26T08:51:43.000Z</time>
      </trkpt>
      <trkpt lat="48.5019" lon="-2.60225">
        <ele>82.3</ele>
        <time>2013-05-26T08:51:44.000Z</time>
      </trkpt>
      <trkpt lat="48.50191" lon="-2.60232">
        <ele>82.6</ele>
        <time>2013-05-26T08:51:45.000Z</time>
      </trkpt>
      <trkpt lat="48.50191" lon="-2.60238">
        <ele>82.7</ele>
        <time>2013-05-26T08:51:46.000Z</time>
      </trkpt>
      <trkpt lat="48.50191" lon="-2.60243">
        <ele>83.4</ele>
        <time>2013-05-26T08:51:47.000Z</time>
      </trkpt>
      <trkpt lat="48.50192" lon="-2.6025">
        <ele>84</ele>
        <time>2013-05-26T08:51:48.000Z</time>
      </trkpt>
      <trkpt lat="48.50194" lon="-2.60256">
        <ele>84.8</ele>
        <time>2013-05-26T08:51:49.000Z</time>
      </trkpt>
      <trkpt lat="48.50195" lon="-2.60263">
        <ele>85.2</ele>
        <time>2013-05-26T08:51:50.000Z</time>
      </trkpt>
      <trkpt lat="48.50196" lon="-2.60268">
        <ele>85.7</ele>
        <time>2013-05-26T08:51:51.000Z</time>
      </trkpt>
      <trkpt lat="48.50196" lon="-2.60273">
        <ele>86.3</ele>
        <time>2013-05-26T08:51:52.000Z</time>
      </trkpt>
      <trkpt lat="48.50197" lon="-2.60279">
        <ele>87.1</ele>
        <time>2013-05-26T08:51:53.000Z</time>
      </trkpt>
      <trkpt lat="48.50198" lon="-2.60283">
        <ele>87.9</ele>
        <time>2013-05-26T08:51:54.000Z</time>
      </trkpt>
      <trkpt lat="48.50198" lon="-2.60288">
        <ele>88.4</ele>
        <time>2013-05-26T08:51:55.000Z</time>
      </trkpt>
      <trkpt lat="48.502" lon="-2.60293">
        <ele>88.7</ele>
        <time>2013-05-26T08:51:56.000Z</time>
      </trkpt>
      <trkpt lat="48.50201" lon="-2.60298">
        <ele>89</ele>
        <time>2013-05-26T08:51:57.000Z</time>
      </trkpt>
      <trkpt lat="48.50202" lon="-2.60303">
        <ele>89.4</ele>
        <time>2013-05-26T08:51:58.000Z</time>
      </trkpt>
      <trkpt lat="48.50202" lon="-2.60309">
        <ele>89.8</ele>
        <time>2013-05-26T08:51:59.000Z</time>
      </trkpt>
      <trkpt lat="48.50203" lon="-2.60314">
        <ele>90.1</ele>
        <time>2013-05-26T08:52:00.000Z</time>
      </trkpt>
      <trkpt lat="48.50204" lon="-2.60318">
        <ele>90.6</ele>
        <time>2013-05-26T08:52:01.000Z</time>
      </trkpt>
      <trkpt lat="48.50205" lon="-2.60322">
        <ele>90.6</ele>
        <time>2013-05-26T08:52:02.000Z</time>
      </trkpt>
      <trkpt lat="48.50207" lon="-2.60327">
        <ele>90.3</ele>
        <time>2013-05-26T08:52:03.000Z</time>
      </trkpt>
      <trkpt lat="48.50209" lon="-2.60332">
        <ele>90</ele>
        <time>2013-05-26T08:52:04.000Z</time>
      </trkpt>
      <trkpt lat="48.50212" lon="-2.60337">
        <ele>88.7</ele>
        <time>2013-05-26T08:52:05.000Z</time>
      </trkpt>
      <trkpt lat="48.50216" lon="-2.6034">
        <ele>88.7</ele>
        <time>2013-05-26T08:52:06.000Z</time>
      </trkpt>
      <trkpt lat="48.50219" lon="-2.60343">
        <ele>89</ele>
        <time>2013-05-26T08:52:07.000Z</time>
      </trkpt>
      <trkpt lat="48.50224" lon="-2.60346">
        <ele>89.2</ele>
        <time>2013-05-26T08:52:08.000Z</time>
      </trkpt>
      <trkpt lat="48.50229" lon="-2.6035">
        <ele>89.5</ele>
        <time>2013-05-26T08:52:09.000Z</time>
      </trkpt>
      <trkpt lat="48.50233" lon="-2.60355">
        <ele>89.6</ele>
        <time>2013-05-26T08:52:10.000Z</time>
      </trkpt>
      <trkpt lat="48.50236" lon="-2.6036">
        <ele>89.7</ele>
        <time>2013-05-26T08:52:11.000Z</time>
      </trkpt>
      <trkpt lat="48.50239" lon="-2.60364">
        <ele>89.6</ele>
        <time>2013-05-26T08:52:12.000Z</time>
      </trkpt>
      <trkpt lat="48.50242" lon="-2.60368">
        <ele>89.6</ele>
        <time>2013-05-26T08:52:13.000Z</time>
      </trkpt>
      <trkpt lat="48.50246" lon="-2.60373">
        <ele>89.6</ele>
        <time>2013-05-26T08:52:14.000Z</time>
      </trkpt>
      <trkpt lat="48.5025" lon="-2.60378">
        <ele>89.5</ele>
        <time>2013-05-26T08:52:15.000Z</time>
      </trkpt>
      <trkpt lat="48.50254" lon="-2.60382">
        <ele>89.5</ele>
        <time>2013-05-26T08:52:16.000Z</time>
      </trkpt>
      <trkpt lat="48.5026" lon="-2.60388">
        <ele>89.4</ele>
        <time>2013-05-26T08:52:17.000Z</time>
      </trkpt>
      <trkpt lat="48.50266" lon="-2.60394">
        <ele>89.2</ele>
        <time>2013-05-26T08:52:18.000Z</time>
      </trkpt>
      <trkpt lat="48.50325" lon="-2.6037">
        <ele>62.5</ele>
        <time>2013-05-26T08:52:36.000Z</time>
      </trkpt>
      <trkpt lat="48.50309" lon="-2.6034">
        <ele>110.1</ele>
        <time>2013-05-26T08:52:38.000Z</time>
      </trkpt>
      <trkpt lat="48.50305" lon="-2.6034">
        <ele>110.7</ele>
        <time>2013-05-26T08:52:40.000Z</time>
      </trkpt>
      <trkpt lat="48.50302" lon="-2.6034">
        <ele>105.8</ele>
        <time>2013-05-26T08:52:41.000Z</time>
      </trkpt>
      <trkpt lat="48.50298" lon="-2.60339">
        <ele>102.4</ele>
        <time>2013-05-26T08:52:42.000Z</time>
      </trkpt>
      <trkpt lat="48.50293" lon="-2.60338">
        <ele>102.2</ele>
        <time>2013-05-26T08:52:43.000Z</time>
      </trkpt>
      <trkpt lat="48.50288" lon="-2.60338">
        <ele>100.4</ele>
        <time>2013-05-26T08:52:44.000Z</time>
      </trkpt>
      <trkpt lat="48.50284" lon="-2.60337">
        <ele>100</ele>
        <time>2013-05-26T08:52:45.000Z</time>
      </trkpt>
      <trkpt lat="48.50281" lon="-2.60336">
        <ele>99.4</ele>
        <time>2013-05-26T08:52:46.000Z</time>
      </trkpt>
      <trkpt lat="48.50279" lon="-2.60334">
        <ele>98.7</ele>
        <time>2013-05-26T08:52:47.000Z</time>
      </trkpt>
      <trkpt lat="48.50277" lon="-2.60332">
        <ele>97.9</ele>
        <time>2013-05-26T08:52:48.000Z</time>
      </trkpt>
      <trkpt lat="48.50275" lon="-2.60328">
        <ele>97.2</ele>
        <time>2013-05-26T08:52:49.000Z</time>
      </trkpt>
      <trkpt lat="48.50273" lon="-2.60324">
        <ele>96.2</ele>
        <time>2013-05-26T08:52:50.000Z</time>
      </trkpt>
      <trkpt lat="48.5027" lon="-2.60319">
        <ele>94.7</ele>
        <time>2013-05-26T08:52:51.000Z</time>
      </trkpt>
      <trkpt lat="48.50267" lon="-2.60314">
        <ele>93.3</ele>
        <time>2013-05-26T08:52:52.000Z</time>
      </trkpt>
      <trkpt lat="48.50265" lon="-2.6031">
        <ele>92.2</ele>
        <time>2013-05-26T08:52:53.000Z</time>
      </trkpt>
      <trkpt lat="48.50263" lon="-2.60305">
        <ele>91.2</ele>
        <time>2013-05-26T08:52:54.000Z</time>
      </trkpt>
      <trkpt lat="48.50262" lon="-2.60301">
        <ele>90.5</ele>
        <time>2013-05-26T08:52:55.000Z</time>
      </trkpt>
      <trkpt lat="48.50261" lon="-2.60297">
        <ele>88.9</ele>
        <time>2013-05-26T08:52:56.000Z</time>
      </trkpt>
      <trkpt lat="48.50259" lon="-2.60293">
        <ele>88.6</ele>
        <time>2013-05-26T08:52:57.000Z</time>
      </trkpt>
      <trkpt lat="48.50257" lon="-2.60289">
        <ele>88.5</ele>
        <time>2013-05-26T08:52:58.000Z</time>
      </trkpt>
      <trkpt lat="48.50255" lon="-2.60285">
        <ele>88.4</ele>
        <time>2013-05-26T08:52:59.000Z</time>
      </trkpt>
      <trkpt lat="48.50253" lon="-2.6028">
        <ele>88.3</ele>
        <time>2013-05-26T08:53:00.000Z</time>
      </trkpt>
      <trkpt lat="48.50251" lon="-2.60275">
        <ele>88.9</ele>
        <time>2013-05-26T08:53:01.000Z</time>
      </trkpt>
      <trkpt lat="48.50249" lon="-2.6027">
        <ele>89.7</ele>
        <time>2013-05-26T08:53:02.000Z</time>
      </trkpt>
      <trkpt lat="48.50247" lon="-2.60265">
        <ele>91</ele>
        <time>2013-05-26T08:53:03.000Z</time>
      </trkpt>
      <trkpt lat="48.50246" lon="-2.6026">
        <ele>91.9</ele>
        <time>2013-05-26T08:53:04.000Z</time>
      </trkpt>
      <trkpt lat="48.50244" lon="-2.60256">
        <ele>92.4</ele>
        <time>2013-05-26T08:53:05.000Z</time>
      </trkpt>
      <trkpt lat="48.50242" lon="-2.60251">
        <ele>92.1</ele>
        <time>2013-05-26T08:53:06.000Z</time>
      </trkpt>
      <trkpt lat="48.50241" lon="-2.60246">
        <ele>92.2</ele>
        <time>2013-05-26T08:53:07.000Z</time>
      </trkpt>
      <trkpt lat="48.5024" lon="-2.60241">
        <ele>92</ele>
        <time>2013-05-26T08:53:08.000Z</time>
      </trkpt>
      <trkpt lat="48.50239" lon="-2.60237">
        <ele>92</ele>
        <time>2013-05-26T08:53:09.000Z</time>
      </trkpt>
      <trkpt lat="48.50239" lon="-2.60233">
        <ele>91.8</ele>
        <time>2013-05-26T08:53:10.000Z</time>
      </trkpt>
      <trkpt lat="48.50238" lon="-2.60228">
        <ele>91.9</ele>
        <time>2013-05-26T08:53:11.000Z</time>
      </trkpt>
      <trkpt lat="48.50238" lon="-2.60222">
        <ele>91.3</ele>
        <time>2013-05-26T08:53:12.000Z</time>
      </trkpt>
      <trkpt lat="48.50239" lon="-2.60217">
        <ele>90.8</ele>
        <time>2013-05-26T08:53:13.000Z</time>
      </trkpt>
      <trkpt lat="48.50239" lon="-2.60212">
        <ele>90.9</ele>
        <time>2013-05-26T08:53:14.000Z</time>
      </trkpt>
      <trkpt lat="48.5024" lon="-2.60206">
        <ele>91</ele>
        <time>2013-05-26T08:53:15.000Z</time>
      </trkpt>
      <trkpt lat="48.50241" lon="-2.602">
        <ele>91.1</ele>
        <time>2013-05-26T08:53:16.000Z</time>
      </trkpt>
      <trkpt lat="48.50241" lon="-2.60193">
        <ele>91.2</ele>
        <time>2013-05-26T08:53:17.000Z</time>
      </trkpt>
      <trkpt lat="48.50242" lon="-2.60188">
        <ele>91.3</ele>
        <time>2013-05-26T08:53:18.000Z</time>
      </trkpt>
      <trkpt lat="48.50261" lon="-2.60166">
        <ele>96.5</ele>
        <time>2013-05-26T08:53:22.000Z</time>
      </trkpt>
      <trkpt lat="48.50264" lon="-2.60155">
        <ele>102.1</ele>
        <time>2013-05-26T08:53:24.000Z</time>
      </trkpt>
      <trkpt lat="48.50267" lon="-2.60153">
        <ele>99</ele>
        <time>2013-05-26T08:53:25.000Z</time>
      </trkpt>
      <trkpt lat="48.50266" lon="-2.60146">
        <ele>96.2</ele>
        <time>2013-05-26T08:53:26.000Z</time>
      </trkpt>
      <trkpt lat="48.50265" lon="-2.60141">
        <ele>95.6</ele>
        <time>2013-05-26T08:53:27.000Z</time>
      </trkpt>
      <trkpt lat="48.50265" lon="-2.60136">
        <ele>96.2</ele>
        <time>2013-05-26T08:53:28.000Z</time>
      </trkpt>
      <trkpt lat="48.50261" lon="-2.60129">
        <ele>92.4</ele>
        <time>2013-05-26T08:53:29.000Z</time>
      </trkpt>
      <trkpt lat="48.5026" lon="-2.60124">
        <ele>92.4</ele>
        <time>2013-05-26T08:53:30.000Z</time>
      </trkpt>
      <trkpt lat="48.5026" lon="-2.60119">
        <ele>93.4</ele>
        <time>2013-05-26T08:53:31.000Z</time>
      </trkpt>
      <trkpt lat="48.50259" lon="-2.60113">
        <ele>93.4</ele>
        <time>2013-05-26T08:53:32.000Z</time>
      </trkpt>
      <trkpt lat="48.50258" lon="-2.60107">
        <ele>93.7</ele>
        <time>2013-05-26T08:53:33.000Z</time>
      </trkpt>
      <trkpt lat="48.50256" lon="-2.60101">
        <ele>93.5</ele>
        <time>2013-05-26T08:53:34.000Z</time>
      </trkpt>
      <trkpt lat="48.50255" lon="-2.60094">
        <ele>93.5</ele>
        <time>2013-05-26T08:53:35.000Z</time>
      </trkpt>
      <trkpt lat="48.50254" lon="-2.60088">
        <ele>93</ele>
        <time>2013-05-26T08:53:36.000Z</time>
      </trkpt>
      <trkpt lat="48.50252" lon="-2.60082">
        <ele>92.8</ele>
        <time>2013-05-26T08:53:37.000Z</time>
      </trkpt>
      <trkpt lat="48.5025" lon="-2.60076">
        <ele>92.8</ele>
        <time>2013-05-26T08:53:38.000Z</time>
      </trkpt>
      <trkpt lat="48.50248" lon="-2.6007">
        <ele>92.9</ele>
        <time>2013-05-26T08:53:39.000Z</time>
      </trkpt>
      <trkpt lat="48.50245" lon="-2.60064">
        <ele>91.3</ele>
        <time>2013-05-26T08:53:40.000Z</time>
      </trkpt>
      <trkpt lat="48.50242" lon="-2.60058">
        <ele>91.1</ele>
        <time>2013-05-26T08:53:41.000Z</time>
      </trkpt>
      <trkpt lat="48.50241" lon="-2.60051">
        <ele>90.7</ele>
        <time>2013-05-26T08:53:42.000Z</time>
      </trkpt>
      <trkpt lat="48.50239" lon="-2.60045">
        <ele>90.3</ele>
        <time>2013-05-26T08:53:43.000Z</time>
      </trkpt>
      <trkpt lat="48.50239" lon="-2.60039">
        <ele>90.3</ele>
        <time>2013-05-26T08:53:44.000Z</time>
      </trkpt>
      <trkpt lat="48.50238" lon="-2.60032">
        <ele>89.8</ele>
        <time>2013-05-26T08:53:45.000Z</time>
      </trkpt>
      <trkpt lat="48.50238" lon="-2.60026">
        <ele>89.5</ele>
        <time>2013-05-26T08:53:46.000Z</time>
      </trkpt>
      <trkpt lat="48.50237" lon="-2.60019">
        <ele>89.1</ele>
        <time>2013-05-26T08:53:47.000Z</time>
      </trkpt>
      <trkpt lat="48.50237" lon="-2.60013">
        <ele>88.6</ele>
        <time>2013-05-26T08:53:48.000Z</time>
      </trkpt>
      <trkpt lat="48.50237" lon="-2.60007">
        <ele>88.1</ele>
        <time>2013-05-26T08:53:49.000Z</time>
      </trkpt>
      <trkpt lat="48.50237" lon="-2.60001">
        <ele>87.9</ele>
        <time>2013-05-26T08:53:50.000Z</time>
      </trkpt>
      <trkpt lat="48.50237" lon="-2.59995">
        <ele>87.5</ele>
        <time>2013-05-26T08:53:51.000Z</time>
      </trkpt>
      <trkpt lat="48.50237" lon="-2.5999">
        <ele>87.2</ele>
        <time>2013-05-26T08:53:52.000Z</time>
      </trkpt>
      <trkpt lat="48.50237" lon="-2.59984">
        <ele>87.1</ele>
        <time>2013-05-26T08:53:53.000Z</time>
      </trkpt>
      <trkpt lat="48.50237" lon="-2.59979">
        <ele>87</ele>
        <time>2013-05-26T08:53:54.000Z</time>
      </trkpt>
      <trkpt lat="48.50236" lon="-2.59975">
        <ele>86.9</ele>
        <time>2013-05-26T08:53:55.000Z</time>
      </trkpt>
      <trkpt lat="48.50235" lon="-2.5997">
        <ele>86.5</ele>
        <time>2013-05-26T08:53:56.000Z</time>
      </trkpt>
      <trkpt lat="48.50233" lon="-2.59965">
        <ele>86</ele>
        <time>2013-05-26T08:53:57.000Z</time>
      </trkpt>
      <trkpt lat="48.50231" lon="-2.59961">
        <ele>85.6</ele>
        <time>2013-05-26T08:53:58.000Z</time>
      </trkpt>
      <trkpt lat="48.50229" lon="-2.59956">
        <ele>85.3</ele>
        <time>2013-05-26T08:53:59.000Z</time>
      </trkpt>
      <trkpt lat="48.50227" lon="-2.59951">
        <ele>85.3</ele>
        <time>2013-05-26T08:54:00.000Z</time>
      </trkpt>
      <trkpt lat="48.50225" lon="-2.59946">
        <ele>85.1</ele>
        <time>2013-05-26T08:54:01.000Z</time>
      </trkpt>
      <trkpt lat="48.50223" lon="-2.59941">
        <ele>84.9</ele>
        <time>2013-05-26T08:54:02.000Z</time>
      </trkpt>
      <trkpt lat="48.5022" lon="-2.59936">
        <ele>84.8</ele>
        <time>2013-05-26T08:54:03.000Z</time>
      </trkpt>
      <trkpt lat="48.50218" lon="-2.5993">
        <ele>85.1</ele>
        <time>2013-05-26T08:54:04.000Z</time>
      </trkpt>
      <trkpt lat="48.50215" lon="-2.59925">
        <ele>85.5</ele>
        <time>2013-05-26T08:54:05.000Z</time>
      </trkpt>
      <trkpt lat="48.50211" lon="-2.59921">
        <ele>86.3</ele>
        <time>2013-05-26T08:54:06.000Z</time>
      </trkpt>
      <trkpt lat="48.50208" lon="-2.59916">
        <ele>86.4</ele>
        <time>2013-05-26T08:54:07.000Z</time>
      </trkpt>
      <trkpt lat="48.50206" lon="-2.59911">
        <ele>86.4</ele>
        <time>2013-05-26T08:54:08.000Z</time>
      </trkpt>
      <trkpt lat="48.50203" lon="-2.59906">
        <ele>86.3</ele>
        <time>2013-05-26T08:54:09.000Z</time>
      </trkpt>
      <trkpt lat="48.502" lon="-2.59902">
        <ele>86.1</ele>
        <time>2013-05-26T08:54:10.000Z</time>
      </trkpt>
      <trkpt lat="48.50197" lon="-2.59897">
        <ele>86.1</ele>
        <time>2013-05-26T08:54:11.000Z</time>
      </trkpt>
      <trkpt lat="48.50194" lon="-2.59892">
        <ele>86.1</ele>
        <time>2013-05-26T08:54:12.000Z</time>
      </trkpt>
      <trkpt lat="48.5019" lon="-2.59887">
        <ele>86.3</ele>
        <time>2013-05-26T08:54:13.000Z</time>
      </trkpt>
      <trkpt lat="48.50187" lon="-2.59881">
        <ele>86.6</ele>
        <time>2013-05-26T08:54:14.000Z</time>
      </trkpt>
      <trkpt lat="48.50184" lon="-2.59875">
        <ele>86.8</ele>
        <time>2013-05-26T08:54:15.000Z</time>
      </trkpt>
      <trkpt lat="48.50181" lon="-2.59868">
        <ele>86.9</ele>
        <time>2013-05-26T08:54:16.000Z</time>
      </trkpt>
      <trkpt lat="48.50179" lon="-2.59861">
        <ele>87.1</ele>
        <time>2013-05-26T08:54:17.000Z</time>
      </trkpt>
      <trkpt lat="48.50177" lon="-2.59854">
        <ele>87.5</ele>
        <time>2013-05-26T08:54:18.000Z</time>
      </trkpt>
      <trkpt lat="48.50171" lon="-2.59847">
        <ele>87.5</ele>
        <time>2013-05-26T08:54:20.000Z</time>
      </trkpt>
      <trkpt lat="48.50173" lon="-2.59828">
        <ele>81.7</ele>
        <time>2013-05-26T08:54:22.000Z</time>
      </trkpt>
      <trkpt lat="48.50179" lon="-2.59824">
        <ele>85.8</ele>
        <time>2013-05-26T08:54:24.000Z</time>
      </trkpt>
      <trkpt lat="48.50182" lon="-2.59823">
        <ele>89.5</ele>
        <time>2013-05-26T08:54:25.000Z</time>
      </trkpt>
      <trkpt lat="48.50185" lon="-2.59818">
        <ele>89.5</ele>
        <time>2013-05-26T08:54:26.000Z</time>
      </trkpt>
      <trkpt lat="48.50188" lon="-2.59812">
        <ele>87.9</ele>
        <time>2013-05-26T08:54:27.000Z</time>
      </trkpt>
      <trkpt lat="48.50192" lon="-2.59809">
        <ele>88.1</ele>
        <time>2013-05-26T08:54:28.000Z</time>
      </trkpt>
      <trkpt lat="48.50195" lon="-2.59806">
        <ele>88.5</ele>
        <time>2013-05-26T08:54:29.000Z</time>
      </trkpt>
      <trkpt lat="48.50199" lon="-2.59804">
        <ele>88.5</ele>
        <time>2013-05-26T08:54:30.000Z</time>
      </trkpt>
      <trkpt lat="48.50203" lon="-2.59802">
        <ele>88.8</ele>
        <time>2013-05-26T08:54:31.000Z</time>
      </trkpt>
      <trkpt lat="48.50206" lon="-2.59799">
        <ele>88.6</ele>
        <time>2013-05-26T08:54:32.000Z</time>
      </trkpt>
      <trkpt lat="48.50209" lon="-2.59796">
        <ele>89.1</ele>
        <time>2013-05-26T08:54:33.000Z</time>
      </trkpt>
      <trkpt lat="48.50213" lon="-2.59793">
        <ele>89.9</ele>
        <time>2013-05-26T08:54:34.000Z</time>
      </trkpt>
      <trkpt lat="48.50216" lon="-2.59789">
        <ele>89.8</ele>
        <time>2013-05-26T08:54:35.000Z</time>
      </trkpt>
      <trkpt lat="48.50219" lon="-2.59785">
        <ele>89.8</ele>
        <time>2013-05-26T08:54:36.000Z</time>
      </trkpt>
      <trkpt lat="48.50221" lon="-2.59781">
        <ele>89.9</ele>
        <time>2013-05-26T08:54:37.000Z</time>
      </trkpt>
      <trkpt lat="48.50223" lon="-2.59777">
        <ele>89.9</ele>
        <time>2013-05-26T08:54:38.000Z</time>
      </trkpt>
      <trkpt lat="48.50225" lon="-2.59771">
        <ele>90.2</ele>
        <time>2013-05-26T08:54:39.000Z</time>
      </trkpt>
      <trkpt lat="48.50227" lon="-2.59766">
        <ele>90.4</ele>
        <time>2013-05-26T08:54:40.000Z</time>
      </trkpt>
      <trkpt lat="48.50228" lon="-2.59761">
        <ele>90.3</ele>
        <time>2013-05-26T08:54:41.000Z</time>
      </trkpt>
      <trkpt lat="48.5023" lon="-2.59755">
        <ele>90.1</ele>
        <time>2013-05-26T08:54:42.000Z</time>
      </trkpt>
      <trkpt lat="48.50231" lon="-2.59751">
        <ele>90.2</ele>
        <time>2013-05-26T08:54:43.000Z</time>
      </trkpt>
      <trkpt lat="48.50233" lon="-2.59746">
        <ele>90</ele>
        <time>2013-05-26T08:54:44.000Z</time>
      </trkpt>
      <trkpt lat="48.50234" lon="-2.59741">
        <ele>89.8</ele>
        <time>2013-05-26T08:54:45.000Z</time>
      </trkpt>
      <trkpt lat="48.50236" lon="-2.59736">
        <ele>89.3</ele>
        <time>2013-05-26T08:54:46.000Z</time>
      </trkpt>
      <trkpt lat="48.50238" lon="-2.59732">
        <ele>89</ele>
        <time>2013-05-26T08:54:47.000Z</time>
      </trkpt>
      <trkpt lat="48.50241" lon="-2.59729">
        <ele>88.9</ele>
        <time>2013-05-26T08:54:48.000Z</time>
      </trkpt>
      <trkpt lat="48.50244" lon="-2.59727">
        <ele>88.5</ele>
        <time>2013-05-26T08:54:49.000Z</time>
      </trkpt>
      <trkpt lat="48.50247" lon="-2.59725">
        <ele>88.3</ele>
        <time>2013-05-26T08:54:50.000Z</time>
      </trkpt>
      <trkpt lat="48.5025" lon="-2.59723">
        <ele>88.3</ele>
        <time>2013-05-26T08:54:51.000Z</time>
      </trkpt>
      <trkpt lat="48.50253" lon="-2.59722">
        <ele>88.3</ele>
        <time>2013-05-26T08:54:52.000Z</time>
      </trkpt>
      <trkpt lat="48.50256" lon="-2.59721">
        <ele>88.3</ele>
        <time>2013-05-26T08:54:53.000Z</time>
      </trkpt>
      <trkpt lat="48.50259" lon="-2.5972">
        <ele>88.4</ele>
        <time>2013-05-26T08:54:54.000Z</time>
      </trkpt>
      <trkpt lat="48.50262" lon="-2.59719">
        <ele>88.4</ele>
        <time>2013-05-26T08:54:55.000Z</time>
      </trkpt>
      <trkpt lat="48.50265" lon="-2.59718">
        <ele>88.4</ele>
        <time>2013-05-26T08:54:56.000Z</time>
      </trkpt>
      <trkpt lat="48.50268" lon="-2.59716">
        <ele>88.4</ele>
        <time>2013-05-26T08:54:57.000Z</time>
      </trkpt>
      <trkpt lat="48.50271" lon="-2.59715">
        <ele>88.4</ele>
        <time>2013-05-26T08:54:58.000Z</time>
      </trkpt>
      <trkpt lat="48.50274" lon="-2.59714">
        <ele>88.5</ele>
        <time>2013-05-26T08:54:59.000Z</time>
      </trkpt>
      <trkpt lat="48.50277" lon="-2.59713">
        <ele>88.5</ele>
        <time>2013-05-26T08:55:00.000Z</time>
      </trkpt>
      <trkpt lat="48.50279" lon="-2.59712">
        <ele>88.5</ele>
        <time>2013-05-26T08:55:01.000Z</time>
      </trkpt>
      <trkpt lat="48.50282" lon="-2.5971">
        <ele>88.4</ele>
        <time>2013-05-26T08:55:02.000Z</time>
      </trkpt>
      <trkpt lat="48.50285" lon="-2.5971">
        <ele>88.1</ele>
        <time>2013-05-26T08:55:03.000Z</time>
      </trkpt>
      <trkpt lat="48.50289" lon="-2.5971">
        <ele>88.4</ele>
        <time>2013-05-26T08:55:05.000Z</time>
      </trkpt>
      <trkpt lat="48.50291" lon="-2.5971">
        <ele>88.4</ele>
        <time>2013-05-26T08:55:06.000Z</time>
      </trkpt>
      <trkpt lat="48.50295" lon="-2.59711">
        <ele>88.9</ele>
        <time>2013-05-26T08:55:08.000Z</time>
      </trkpt>
      <trkpt lat="48.50297" lon="-2.59712">
        <ele>89</ele>
        <time>2013-05-26T08:55:09.000Z</time>
      </trkpt>
      <trkpt lat="48.503" lon="-2.59713">
        <ele>88.9</ele>
        <time>2013-05-26T08:55:11.000Z</time>
      </trkpt>
      <trkpt lat="48.50302" lon="-2.59714">
        <ele>89</ele>
        <time>2013-05-26T08:55:12.000Z</time>
      </trkpt>
      <trkpt lat="48.50305" lon="-2.59718">
        <ele>89.1</ele>
        <time>2013-05-26T08:55:14.000Z</time>
      </trkpt>
      <trkpt lat="48.50306" lon="-2.59721">
        <ele>89.2</ele>
        <time>2013-05-26T08:55:15.000Z</time>
      </trkpt>
      <trkpt lat="48.50308" lon="-2.59727">
        <ele>89.3</ele>
        <time>2013-05-26T08:55:17.000Z</time>
      </trkpt>
      <trkpt lat="48.50309" lon="-2.5973">
        <ele>89.4</ele>
        <time>2013-05-26T08:55:18.000Z</time>
      </trkpt>
      <trkpt lat="48.50301" lon="-2.59728">
        <ele>89.1</ele>
        <time>2013-05-26T08:55:20.000Z</time>
      </trkpt>
      <trkpt lat="48.50301" lon="-2.59747">
        <ele>100.9</ele>
        <time>2013-05-26T08:55:22.000Z</time>
      </trkpt>
      <trkpt lat="48.50306" lon="-2.59748">
        <ele>97</ele>
        <time>2013-05-26T08:55:23.000Z</time>
      </trkpt>
      <trkpt lat="48.50311" lon="-2.59749">
        <ele>93.4</ele>
        <time>2013-05-26T08:55:24.000Z</time>
      </trkpt>
      <trkpt lat="48.50314" lon="-2.59753">
        <ele>93.1</ele>
        <time>2013-05-26T08:55:26.000Z</time>
      </trkpt>
      <trkpt lat="48.50315" lon="-2.59754">
        <ele>93.5</ele>
        <time>2013-05-26T08:55:27.000Z</time>
      </trkpt>
      <trkpt lat="48.50319" lon="-2.59755">
        <ele>94.8</ele>
        <time>2013-05-26T08:55:30.000Z</time>
      </trkpt>
      <trkpt lat="48.50322" lon="-2.59755">
        <ele>93</ele>
        <time>2013-05-26T08:55:31.000Z</time>
      </trkpt>
      <trkpt lat="48.50325" lon="-2.59756">
        <ele>93.3</ele>
        <time>2013-05-26T08:55:33.000Z</time>
      </trkpt>
      <trkpt lat="48.50326" lon="-2.59755">
        <ele>93.4</ele>
        <time>2013-05-26T08:55:34.000Z</time>
      </trkpt>
      <trkpt lat="48.50329" lon="-2.59752">
        <ele>94.5</ele>
        <time>2013-05-26T08:55:36.000Z</time>
      </trkpt>
      <trkpt lat="48.50331" lon="-2.59751">
        <ele>94.8</ele>
        <time>2013-05-26T08:55:37.000Z</time>
      </trkpt>
      <trkpt lat="48.50335" lon="-2.59748">
        <ele>96.3</ele>
        <time>2013-05-26T08:55:40.000Z</time>
      </trkpt>
      <trkpt lat="48.50336" lon="-2.59746">
        <ele>96.2</ele>
        <time>2013-05-26T08:55:41.000Z</time>
      </trkpt>
      <trkpt lat="48.5034" lon="-2.59743">
        <ele>96.3</ele>
        <time>2013-05-26T08:55:43.000Z</time>
      </trkpt>
      <trkpt lat="48.50341" lon="-2.59742">
        <ele>96.6</ele>
        <time>2013-05-26T08:55:44.000Z</time>
      </trkpt>
      <trkpt lat="48.50345" lon="-2.59743">
        <ele>97.4</ele>
        <time>2013-05-26T08:55:47.000Z</time>
      </trkpt>
      <trkpt lat="48.50346" lon="-2.59745">
        <ele>97.2</ele>
        <time>2013-05-26T08:55:48.000Z</time>
      </trkpt>
      <trkpt lat="48.50349" lon="-2.59749">
        <ele>96.9</ele>
        <time>2013-05-26T08:55:50.000Z</time>
      </trkpt>
      <trkpt lat="48.50349" lon="-2.59751">
        <ele>96.8</ele>
        <time>2013-05-26T08:55:51.000Z</time>
      </trkpt>
      <trkpt lat="48.50352" lon="-2.59753">
        <ele>96.8</ele>
        <time>2013-05-26T08:55:53.000Z</time>
      </trkpt>
      <trkpt lat="48.50353" lon="-2.59755">
        <ele>96.9</ele>
        <time>2013-05-26T08:55:54.000Z</time>
      </trkpt>
      <trkpt lat="48.50356" lon="-2.59759">
        <ele>97.1</ele>
        <time>2013-05-26T08:55:56.000Z</time>
      </trkpt>
      <trkpt lat="48.50358" lon="-2.59761">
        <ele>97.1</ele>
        <time>2013-05-26T08:55:57.000Z</time>
      </trkpt>
      <trkpt lat="48.50361" lon="-2.59765">
        <ele>97.2</ele>
        <time>2013-05-26T08:55:59.000Z</time>
      </trkpt>
      <trkpt lat="48.50363" lon="-2.59767">
        <ele>97.1</ele>
        <time>2013-05-26T08:56:00.000Z</time>
      </trkpt>
      <trkpt lat="48.50366" lon="-2.59771">
        <ele>97</ele>
        <time>2013-05-26T08:56:02.000Z</time>
      </trkpt>
      <trkpt lat="48.50367" lon="-2.59774">
        <ele>97</ele>
        <time>2013-05-26T08:56:03.000Z</time>
      </trkpt>
      <trkpt lat="48.50368" lon="-2.59777">
        <ele>97.1</ele>
        <time>2013-05-26T08:56:04.000Z</time>
      </trkpt>
      <trkpt lat="48.50369" lon="-2.5978">
        <ele>97.1</ele>
        <time>2013-05-26T08:56:05.000Z</time>
      </trkpt>
      <trkpt lat="48.50371" lon="-2.59783">
        <ele>97.1</ele>
        <time>2013-05-26T08:56:06.000Z</time>
      </trkpt>
      <trkpt lat="48.50372" lon="-2.59786">
        <ele>97</ele>
        <time>2013-05-26T08:56:07.000Z</time>
      </trkpt>
      <trkpt lat="48.50373" lon="-2.59789">
        <ele>97</ele>
        <time>2013-05-26T08:56:08.000Z</time>
      </trkpt>
      <trkpt lat="48.50374" lon="-2.59792">
        <ele>97</ele>
        <time>2013-05-26T08:56:09.000Z</time>
      </trkpt>
      <trkpt lat="48.50376" lon="-2.59795">
        <ele>97.1</ele>
        <time>2013-05-26T08:56:10.000Z</time>
      </trkpt>
      <trkpt lat="48.50377" lon="-2.59799">
        <ele>97.1</ele>
        <time>2013-05-26T08:56:11.000Z</time>
      </trkpt>
      <trkpt lat="48.50378" lon="-2.59802">
        <ele>97.3</ele>
        <time>2013-05-26T08:56:12.000Z</time>
      </trkpt>
      <trkpt lat="48.5038" lon="-2.59805">
        <ele>97.4</ele>
        <time>2013-05-26T08:56:13.000Z</time>
      </trkpt>
      <trkpt lat="48.50381" lon="-2.59808">
        <ele>97.5</ele>
        <time>2013-05-26T08:56:14.000Z</time>
      </trkpt>
      <trkpt lat="48.50382" lon="-2.59812">
        <ele>97.7</ele>
        <time>2013-05-26T08:56:15.000Z</time>
      </trkpt>
      <trkpt lat="48.50383" lon="-2.59815">
        <ele>97.8</ele>
        <time>2013-05-26T08:56:16.000Z</time>
      </trkpt>
      <trkpt lat="48.50384" lon="-2.59819">
        <ele>97.8</ele>
        <time>2013-05-26T08:56:17.000Z</time>
      </trkpt>
      <trkpt lat="48.50386" lon="-2.59823">
        <ele>97.8</ele>
        <time>2013-05-26T08:56:18.000Z</time>
      </trkpt>
      <trkpt lat="48.50388" lon="-2.59826">
        <ele>96.6</ele>
        <time>2013-05-26T08:56:20.000Z</time>
      </trkpt>
      <trkpt lat="48.50389" lon="-2.59835">
        <ele>98.8</ele>
        <time>2013-05-26T08:56:22.000Z</time>
      </trkpt>
      <trkpt lat="48.50386" lon="-2.5984">
        <ele>101</ele>
        <time>2013-05-26T08:56:23.000Z</time>
      </trkpt>
      <trkpt lat="48.50388" lon="-2.59843">
        <ele>98.2</ele>
        <time>2013-05-26T08:56:24.000Z</time>
      </trkpt>
      <trkpt lat="48.50389" lon="-2.59847">
        <ele>97.9</ele>
        <time>2013-05-26T08:56:25.000Z</time>
      </trkpt>
      <trkpt lat="48.50389" lon="-2.59852">
        <ele>99.4</ele>
        <time>2013-05-26T08:56:26.000Z</time>
      </trkpt>
      <trkpt lat="48.50391" lon="-2.59858">
        <ele>98.4</ele>
        <time>2013-05-26T08:56:27.000Z</time>
      </trkpt>
      <trkpt lat="48.50392" lon="-2.59863">
        <ele>98.5</ele>
        <time>2013-05-26T08:56:28.000Z</time>
      </trkpt>
      <trkpt lat="48.50392" lon="-2.59868">
        <ele>99.5</ele>
        <time>2013-05-26T08:56:29.000Z</time>
      </trkpt>
      <trkpt lat="48.50393" lon="-2.59873">
        <ele>99.5</ele>
        <time>2013-05-26T08:56:30.000Z</time>
      </trkpt>
      <trkpt lat="48.50394" lon="-2.59878">
        <ele>100.1</ele>
        <time>2013-05-26T08:56:31.000Z</time>
      </trkpt>
      <trkpt lat="48.50395" lon="-2.59882">
        <ele>101</ele>
        <time>2013-05-26T08:56:32.000Z</time>
      </trkpt>
      <trkpt lat="48.50397" lon="-2.59887">
        <ele>100.8</ele>
        <time>2013-05-26T08:56:33.000Z</time>
      </trkpt>
      <trkpt lat="48.50398" lon="-2.59891">
        <ele>101.1</ele>
        <time>2013-05-26T08:56:34.000Z</time>
      </trkpt>
      <trkpt lat="48.50399" lon="-2.59896">
        <ele>101.7</ele>
        <time>2013-05-26T08:56:35.000Z</time>
      </trkpt>
      <trkpt lat="48.504" lon="-2.59901">
        <ele>101.9</ele>
        <time>2013-05-26T08:56:36.000Z</time>
      </trkpt>
      <trkpt lat="48.50401" lon="-2.59906">
        <ele>102.5</ele>
        <time>2013-05-26T08:56:37.000Z</time>
      </trkpt>
      <trkpt lat="48.50402" lon="-2.59911">
        <ele>102.6</ele>
        <time>2013-05-26T08:56:38.000Z</time>
      </trkpt>
      <trkpt lat="48.50403" lon="-2.59915">
        <ele>103</ele>
        <time>2013-05-26T08:56:39.000Z</time>
      </trkpt>
      <trkpt lat="48.50404" lon="-2.5992">
        <ele>103.4</ele>
        <time>2013-05-26T08:56:40.000Z</time>
      </trkpt>
      <trkpt lat="48.50404" lon="-2.59924">
        <ele>103.6</ele>
        <time>2013-05-26T08:56:41.000Z</time>
      </trkpt>
      <trkpt lat="48.50405" lon="-2.59929">
        <ele>104.1</ele>
        <time>2013-05-26T08:56:42.000Z</time>
      </trkpt>
      <trkpt lat="48.50406" lon="-2.59933">
        <ele>104.6</ele>
        <time>2013-05-26T08:56:43.000Z</time>
      </trkpt>
      <trkpt lat="48.50407" lon="-2.59938">
        <ele>105.2</ele>
        <time>2013-05-26T08:56:44.000Z</time>
      </trkpt>
      <trkpt lat="48.50408" lon="-2.59943">
        <ele>105.2</ele>
        <time>2013-05-26T08:56:45.000Z</time>
      </trkpt>
      <trkpt lat="48.50409" lon="-2.59947">
        <ele>105</ele>
        <time>2013-05-26T08:56:46.000Z</time>
      </trkpt>
      <trkpt lat="48.5041" lon="-2.59952">
        <ele>104.9</ele>
        <time>2013-05-26T08:56:47.000Z</time>
      </trkpt>
      <trkpt lat="48.50412" lon="-2.59957">
        <ele>104.5</ele>
        <time>2013-05-26T08:56:48.000Z</time>
      </trkpt>
      <trkpt lat="48.50413" lon="-2.59963">
        <ele>104.4</ele>
        <time>2013-05-26T08:56:49.000Z</time>
      </trkpt>
      <trkpt lat="48.50414" lon="-2.59968">
        <ele>104.1</ele>
        <time>2013-05-26T08:56:50.000Z</time>
      </trkpt>
      <trkpt lat="48.50415" lon="-2.59973">
        <ele>104.2</ele>
        <time>2013-05-26T08:56:51.000Z</time>
      </trkpt>
      <trkpt lat="48.50416" lon="-2.59979">
        <ele>104.2</ele>
        <time>2013-05-26T08:56:52.000Z</time>
      </trkpt>
      <trkpt lat="48.50417" lon="-2.59984">
        <ele>104.2</ele>
        <time>2013-05-26T08:56:53.000Z</time>
      </trkpt>
      <trkpt lat="48.50419" lon="-2.59989">
        <ele>104.3</ele>
        <time>2013-05-26T08:56:54.000Z</time>
      </trkpt>
      <trkpt lat="48.5042" lon="-2.59995">
        <ele>104.4</ele>
        <time>2013-05-26T08:56:55.000Z</time>
      </trkpt>
      <trkpt lat="48.50421" lon="-2.60001">
        <ele>104.3</ele>
        <time>2013-05-26T08:56:56.000Z</time>
      </trkpt>
      <trkpt lat="48.50423" lon="-2.60006">
        <ele>104.3</ele>
        <time>2013-05-26T08:56:57.000Z</time>
      </trkpt>
      <trkpt lat="48.50424" lon="-2.60012">
        <ele>104.2</ele>
        <time>2013-05-26T08:56:58.000Z</time>
      </trkpt>
      <trkpt lat="48.50426" lon="-2.60018">
        <ele>104.2</ele>
        <time>2013-05-26T08:56:59.000Z</time>
      </trkpt>
      <trkpt lat="48.50428" lon="-2.60025">
        <ele>104.2</ele>
        <time>2013-05-26T08:57:00.000Z</time>
      </trkpt>
      <trkpt lat="48.50429" lon="-2.60031">
        <ele>104.2</ele>
        <time>2013-05-26T08:57:01.000Z</time>
      </trkpt>
      <trkpt lat="48.50431" lon="-2.60038">
        <ele>104.3</ele>
        <time>2013-05-26T08:57:02.000Z</time>
      </trkpt>
      <trkpt lat="48.50433" lon="-2.60044">
        <ele>104.2</ele>
        <time>2013-05-26T08:57:03.000Z</time>
      </trkpt>
      <trkpt lat="48.50434" lon="-2.60049">
        <ele>104.1</ele>
        <time>2013-05-26T08:57:04.000Z</time>
      </trkpt>
      <trkpt lat="48.50436" lon="-2.60054">
        <ele>104.2</ele>
        <time>2013-05-26T08:57:05.000Z</time>
      </trkpt>
      <trkpt lat="48.50438" lon="-2.60057">
        <ele>104.2</ele>
        <time>2013-05-26T08:57:06.000Z</time>
      </trkpt>
      <trkpt lat="48.5044" lon="-2.60061">
        <ele>104.2</ele>
        <time>2013-05-26T08:57:07.000Z</time>
      </trkpt>
      <trkpt lat="48.50442" lon="-2.60065">
        <ele>104.1</ele>
        <time>2013-05-26T08:57:08.000Z</time>
      </trkpt>
      <trkpt lat="48.50444" lon="-2.60068">
        <ele>104.1</ele>
        <time>2013-05-26T08:57:09.000Z</time>
      </trkpt>
      <trkpt lat="48.50447" lon="-2.60071">
        <ele>104</ele>
        <time>2013-05-26T08:57:10.000Z</time>
      </trkpt>
      <trkpt lat="48.50449" lon="-2.60075">
        <ele>103.8</ele>
        <time>2013-05-26T08:57:11.000Z</time>
      </trkpt>
      <trkpt lat="48.50451" lon="-2.60078">
        <ele>103.7</ele>
        <time>2013-05-26T08:57:12.000Z</time>
      </trkpt>
      <trkpt lat="48.50454" lon="-2.6008">
        <ele>103.5</ele>
        <time>2013-05-26T08:57:13.000Z</time>
      </trkpt>
      <trkpt lat="48.50458" lon="-2.60082">
        <ele>103.4</ele>
        <time>2013-05-26T08:57:14.000Z</time>
      </trkpt>
      <trkpt lat="48.50462" lon="-2.60084">
        <ele>103.2</ele>
        <time>2013-05-26T08:57:15.000Z</time>
      </trkpt>
      <trkpt lat="48.50466" lon="-2.60085">
        <ele>103.2</ele>
        <time>2013-05-26T08:57:16.000Z</time>
      </trkpt>
      <trkpt lat="48.5047" lon="-2.60086">
        <ele>103.2</ele>
        <time>2013-05-26T08:57:17.000Z</time>
      </trkpt>
      <trkpt lat="48.50475" lon="-2.60087">
        <ele>103</ele>
        <time>2013-05-26T08:57:18.000Z</time>
      </trkpt>
      <trkpt lat="48.50494" lon="-2.60095">
        <ele>90.9</ele>
        <time>2013-05-26T08:57:21.000Z</time>
      </trkpt>
      <trkpt lat="48.50501" lon="-2.60091">
        <ele>94</ele>
        <time>2013-05-26T08:57:23.000Z</time>
      </trkpt>
      <trkpt lat="48.50505" lon="-2.60091">
        <ele>95.4</ele>
        <time>2013-05-26T08:57:24.000Z</time>
      </trkpt>
      <trkpt lat="48.5051" lon="-2.60092">
        <ele>97.5</ele>
        <time>2013-05-26T08:57:25.000Z</time>
      </trkpt>
      <trkpt lat="48.50514" lon="-2.60092">
        <ele>94.1</ele>
        <time>2013-05-26T08:57:26.000Z</time>
      </trkpt>
      <trkpt lat="48.50518" lon="-2.60093">
        <ele>93.8</ele>
        <time>2013-05-26T08:57:27.000Z</time>
      </trkpt>
      <trkpt lat="48.50521" lon="-2.60094">
        <ele>94.4</ele>
        <time>2013-05-26T08:57:28.000Z</time>
      </trkpt>
      <trkpt lat="48.50523" lon="-2.60094">
        <ele>98.6</ele>
        <time>2013-05-26T08:57:29.000Z</time>
      </trkpt>
      <trkpt lat="48.50526" lon="-2.60092">
        <ele>99.6</ele>
        <time>2013-05-26T08:57:30.000Z</time>
      </trkpt>
      <trkpt lat="48.50528" lon="-2.60091">
        <ele>100.3</ele>
        <time>2013-05-26T08:57:31.000Z</time>
      </trkpt>
      <trkpt lat="48.5053" lon="-2.6009">
        <ele>101.4</ele>
        <time>2013-05-26T08:57:32.000Z</time>
      </trkpt>
      <trkpt lat="48.50533" lon="-2.60088">
        <ele>100.1</ele>
        <time>2013-05-26T08:57:33.000Z</time>
      </trkpt>
      <trkpt lat="48.50537" lon="-2.60088">
        <ele>100.4</ele>
        <time>2013-05-26T08:57:34.000Z</time>
      </trkpt>
      <trkpt lat="48.5054" lon="-2.60087">
        <ele>100.7</ele>
        <time>2013-05-26T08:57:35.000Z</time>
      </trkpt>
      <trkpt lat="48.50543" lon="-2.60085">
        <ele>100.8</ele>
        <time>2013-05-26T08:57:36.000Z</time>
      </trkpt>
      <trkpt lat="48.50547" lon="-2.60084">
        <ele>98.9</ele>
        <time>2013-05-26T08:57:37.000Z</time>
      </trkpt>
      <trkpt lat="48.5055" lon="-2.60082">
        <ele>100</ele>
        <time>2013-05-26T08:57:38.000Z</time>
      </trkpt>
      <trkpt lat="48.50554" lon="-2.60081">
        <ele>101</ele>
        <time>2013-05-26T08:57:39.000Z</time>
      </trkpt>
      <trkpt lat="48.50557" lon="-2.60081">
        <ele>101.6</ele>
        <time>2013-05-26T08:57:40.000Z</time>
      </trkpt>
      <trkpt lat="48.50561" lon="-2.60082">
        <ele>101.8</ele>
        <time>2013-05-26T08:57:41.000Z</time>
      </trkpt>
      <trkpt lat="48.50565" lon="-2.60083">
        <ele>102.2</ele>
        <time>2013-05-26T08:57:42.000Z</time>
      </trkpt>
      <trkpt lat="48.5057" lon="-2.60086">
        <ele>103.1</ele>
        <time>2013-05-26T08:57:43.000Z</time>
      </trkpt>
      <trkpt lat="48.50576" lon="-2.6009">
        <ele>102.4</ele>
        <time>2013-05-26T08:57:44.000Z</time>
      </trkpt>
      <trkpt lat="48.50581" lon="-2.60093">
        <ele>102.9</ele>
        <time>2013-05-26T08:57:45.000Z</time>
      </trkpt>
      <trkpt lat="48.50586" lon="-2.60095">
        <ele>103.4</ele>
        <time>2013-05-26T08:57:46.000Z</time>
      </trkpt>
      <trkpt lat="48.50589" lon="-2.60098">
        <ele>104.2</ele>
        <time>2013-05-26T08:57:47.000Z</time>
      </trkpt>
      <trkpt lat="48.50592" lon="-2.60099">
        <ele>104.4</ele>
        <time>2013-05-26T08:57:48.000Z</time>
      </trkpt>
      <trkpt lat="48.50594" lon="-2.60102">
        <ele>105.1</ele>
        <time>2013-05-26T08:57:49.000Z</time>
      </trkpt>
      <trkpt lat="48.50596" lon="-2.60105">
        <ele>104.2</ele>
        <time>2013-05-26T08:57:50.000Z</time>
      </trkpt>
      <trkpt lat="48.50597" lon="-2.60111">
        <ele>103</ele>
        <time>2013-05-26T08:57:52.000Z</time>
      </trkpt>
      <trkpt lat="48.506" lon="-2.60113">
        <ele>102.9</ele>
        <time>2013-05-26T08:57:53.000Z</time>
      </trkpt>
      <trkpt lat="48.50602" lon="-2.60114">
        <ele>102.8</ele>
        <time>2013-05-26T08:57:54.000Z</time>
      </trkpt>
      <trkpt lat="48.50606" lon="-2.60114">
        <ele>102.7</ele>
        <time>2013-05-26T08:57:55.000Z</time>
      </trkpt>
      <trkpt lat="48.50608" lon="-2.60115">
        <ele>102.4</ele>
        <time>2013-05-26T08:57:56.000Z</time>
      </trkpt>
      <trkpt lat="48.50611" lon="-2.60115">
        <ele>101.5</ele>
        <time>2013-05-26T08:57:57.000Z</time>
      </trkpt>
      <trkpt lat="48.50614" lon="-2.60116">
        <ele>101</ele>
        <time>2013-05-26T08:57:58.000Z</time>
      </trkpt>
      <trkpt lat="48.50617" lon="-2.60118">
        <ele>100.6</ele>
        <time>2013-05-26T08:57:59.000Z</time>
      </trkpt>
      <trkpt lat="48.5062" lon="-2.6012">
        <ele>100.4</ele>
        <time>2013-05-26T08:58:00.000Z</time>
      </trkpt>
      <trkpt lat="48.50623" lon="-2.60123">
        <ele>100.2</ele>
        <time>2013-05-26T08:58:01.000Z</time>
      </trkpt>
      <trkpt lat="48.50624" lon="-2.60128">
        <ele>100.5</ele>
        <time>2013-05-26T08:58:02.000Z</time>
      </trkpt>
      <trkpt lat="48.50624" lon="-2.60132">
        <ele>100.7</ele>
        <time>2013-05-26T08:58:03.000Z</time>
      </trkpt>
      <trkpt lat="48.50625" lon="-2.60136">
        <ele>100.9</ele>
        <time>2013-05-26T08:58:04.000Z</time>
      </trkpt>
      <trkpt lat="48.50625" lon="-2.60141">
        <ele>100.9</ele>
        <time>2013-05-26T08:58:05.000Z</time>
      </trkpt>
      <trkpt lat="48.50624" lon="-2.60146">
        <ele>100.9</ele>
        <time>2013-05-26T08:58:06.000Z</time>
      </trkpt>
      <trkpt lat="48.50624" lon="-2.60151">
        <ele>101</ele>
        <time>2013-05-26T08:58:07.000Z</time>
      </trkpt>
      <trkpt lat="48.50623" lon="-2.60154">
        <ele>100.9</ele>
        <time>2013-05-26T08:58:08.000Z</time>
      </trkpt>
      <trkpt lat="48.50623" lon="-2.60159">
        <ele>100.9</ele>
        <time>2013-05-26T08:58:09.000Z</time>
      </trkpt>
      <trkpt lat="48.50622" lon="-2.60163">
        <ele>100.8</ele>
        <time>2013-05-26T08:58:10.000Z</time>
      </trkpt>
      <trkpt lat="48.50622" lon="-2.60168">
        <ele>100.7</ele>
        <time>2013-05-26T08:58:11.000Z</time>
      </trkpt>
      <trkpt lat="48.50622" lon="-2.60172">
        <ele>100.7</ele>
        <time>2013-05-26T08:58:12.000Z</time>
      </trkpt>
      <trkpt lat="48.50622" lon="-2.60177">
        <ele>100.6</ele>
        <time>2013-05-26T08:58:13.000Z</time>
      </trkpt>
      <trkpt lat="48.50621" lon="-2.60181">
        <ele>100.8</ele>
        <time>2013-05-26T08:58:14.000Z</time>
      </trkpt>
      <trkpt lat="48.50621" lon="-2.60185">
        <ele>100.9</ele>
        <time>2013-05-26T08:58:15.000Z</time>
      </trkpt>
      <trkpt lat="48.50621" lon="-2.60189">
        <ele>101</ele>
        <time>2013-05-26T08:58:16.000Z</time>
      </trkpt>
      <trkpt lat="48.50621" lon="-2.60194">
        <ele>101</ele>
        <time>2013-05-26T08:58:17.000Z</time>
      </trkpt>
      <trkpt lat="48.50622" lon="-2.60198">
        <ele>100.7</ele>
        <time>2013-05-26T08:58:18.000Z</time>
      </trkpt>
      <trkpt lat="48.5063" lon="-2.6021">
        <ele>101.6</ele>
        <time>2013-05-26T08:58:21.000Z</time>
      </trkpt>
      <trkpt lat="48.50625" lon="-2.60226">
        <ele>101.7</ele>
        <time>2013-05-26T08:58:23.000Z</time>
      </trkpt>
      <trkpt lat="48.50624" lon="-2.60231">
        <ele>102.8</ele>
        <time>2013-05-26T08:58:24.000Z</time>
      </trkpt>
      <trkpt lat="48.50623" lon="-2.60233">
        <ele>104.2</ele>
        <time>2013-05-26T08:58:25.000Z</time>
      </trkpt>
      <trkpt lat="48.50626" lon="-2.60237">
        <ele>103</ele>
        <time>2013-05-26T08:58:26.000Z</time>
      </trkpt>
      <trkpt lat="48.50626" lon="-2.60241">
        <ele>103</ele>
        <time>2013-05-26T08:58:27.000Z</time>
      </trkpt>
      <trkpt lat="48.50626" lon="-2.60245">
        <ele>103.5</ele>
        <time>2013-05-26T08:58:28.000Z</time>
      </trkpt>
      <trkpt lat="48.50627" lon="-2.6025">
        <ele>103.1</ele>
        <time>2013-05-26T08:58:29.000Z</time>
      </trkpt>
      <trkpt lat="48.50628" lon="-2.60254">
        <ele>103.7</ele>
        <time>2013-05-26T08:58:30.000Z</time>
      </trkpt>
      <trkpt lat="48.50628" lon="-2.60259">
        <ele>103.3</ele>
        <time>2013-05-26T08:58:31.000Z</time>
      </trkpt>
      <trkpt lat="48.50627" lon="-2.60264">
        <ele>101.2</ele>
        <time>2013-05-26T08:58:32.000Z</time>
      </trkpt>
      <trkpt lat="48.50626" lon="-2.60269">
        <ele>100.5</ele>
        <time>2013-05-26T08:58:33.000Z</time>
      </trkpt>
      <trkpt lat="48.50626" lon="-2.60273">
        <ele>100.8</ele>
        <time>2013-05-26T08:58:34.000Z</time>
      </trkpt>
      <trkpt lat="48.50626" lon="-2.60279">
        <ele>100.5</ele>
        <time>2013-05-26T08:58:35.000Z</time>
      </trkpt>
      <trkpt lat="48.50626" lon="-2.60284">
        <ele>99.1</ele>
        <time>2013-05-26T08:58:36.000Z</time>
      </trkpt>
      <trkpt lat="48.50626" lon="-2.60289">
        <ele>98.1</ele>
        <time>2013-05-26T08:58:37.000Z</time>
      </trkpt>
      <trkpt lat="48.50626" lon="-2.60294">
        <ele>97.2</ele>
        <time>2013-05-26T08:58:38.000Z</time>
      </trkpt>
      <trkpt lat="48.50626" lon="-2.60299">
        <ele>97.1</ele>
        <time>2013-05-26T08:58:39.000Z</time>
      </trkpt>
      <trkpt lat="48.50626" lon="-2.60304">
        <ele>97.3</ele>
        <time>2013-05-26T08:58:40.000Z</time>
      </trkpt>
      <trkpt lat="48.50626" lon="-2.60309">
        <ele>98.2</ele>
        <time>2013-05-26T08:58:41.000Z</time>
      </trkpt>
      <trkpt lat="48.50626" lon="-2.60314">
        <ele>98</ele>
        <time>2013-05-26T08:58:42.000Z</time>
      </trkpt>
      <trkpt lat="48.50625" lon="-2.60319">
        <ele>98</ele>
        <time>2013-05-26T08:58:43.000Z</time>
      </trkpt>
      <trkpt lat="48.50625" lon="-2.60324">
        <ele>98.5</ele>
        <time>2013-05-26T08:58:44.000Z</time>
      </trkpt>
      <trkpt lat="48.50626" lon="-2.60328">
        <ele>98.6</ele>
        <time>2013-05-26T08:58:45.000Z</time>
      </trkpt>
      <trkpt lat="48.50626" lon="-2.60333">
        <ele>98.3</ele>
        <time>2013-05-26T08:58:46.000Z</time>
      </trkpt>
      <trkpt lat="48.50626" lon="-2.60337">
        <ele>98.7</ele>
        <time>2013-05-26T08:58:47.000Z</time>
      </trkpt>
      <trkpt lat="48.50627" lon="-2.60342">
        <ele>99.1</ele>
        <time>2013-05-26T08:58:48.000Z</time>
      </trkpt>
      <trkpt lat="48.50627" lon="-2.60347">
        <ele>99.4</ele>
        <time>2013-05-26T08:58:49.000Z</time>
      </trkpt>
      <trkpt lat="48.50628" lon="-2.60352">
        <ele>99</ele>
        <time>2013-05-26T08:58:50.000Z</time>
      </trkpt>
      <trkpt lat="48.50628" lon="-2.60357">
        <ele>98.7</ele>
        <time>2013-05-26T08:58:51.000Z</time>
      </trkpt>
      <trkpt lat="48.50629" lon="-2.60362">
        <ele>98.5</ele>
        <time>2013-05-26T08:58:52.000Z</time>
      </trkpt>
      <trkpt lat="48.50629" lon="-2.60367">
        <ele>98.7</ele>
        <time>2013-05-26T08:58:53.000Z</time>
      </trkpt>
      <trkpt lat="48.5063" lon="-2.60372">
        <ele>98.2</ele>
        <time>2013-05-26T08:58:54.000Z</time>
      </trkpt>
      <trkpt lat="48.50631" lon="-2.60376">
        <ele>98.3</ele>
        <time>2013-05-26T08:58:55.000Z</time>
      </trkpt>
      <trkpt lat="48.50631" lon="-2.60381">
        <ele>98.8</ele>
        <time>2013-05-26T08:58:56.000Z</time>
      </trkpt>
      <trkpt lat="48.50632" lon="-2.60386">
        <ele>98.8</ele>
        <time>2013-05-26T08:58:57.000Z</time>
      </trkpt>
      <trkpt lat="48.50633" lon="-2.60392">
        <ele>98.7</ele>
        <time>2013-05-26T08:58:58.000Z</time>
      </trkpt>
      <trkpt lat="48.50633" lon="-2.60397">
        <ele>98.5</ele>
        <time>2013-05-26T08:58:59.000Z</time>
      </trkpt>
      <trkpt lat="48.50634" lon="-2.60402">
        <ele>98.3</ele>
        <time>2013-05-26T08:59:00.000Z</time>
      </trkpt>
      <trkpt lat="48.50635" lon="-2.60407">
        <ele>98.1</ele>
        <time>2013-05-26T08:59:01.000Z</time>
      </trkpt>
      <trkpt lat="48.50636" lon="-2.60411">
        <ele>98.1</ele>
        <time>2013-05-26T08:59:02.000Z</time>
      </trkpt>
      <trkpt lat="48.50637" lon="-2.60416">
        <ele>98.1</ele>
        <time>2013-05-26T08:59:03.000Z</time>
      </trkpt>
      <trkpt lat="48.50638" lon="-2.6042">
        <ele>97.9</ele>
        <time>2013-05-26T08:59:04.000Z</time>
      </trkpt>
      <trkpt lat="48.50639" lon="-2.60425">
        <ele>97.8</ele>
        <time>2013-05-26T08:59:05.000Z</time>
      </trkpt>
      <trkpt lat="48.5064" lon="-2.6043">
        <ele>97.9</ele>
        <time>2013-05-26T08:59:06.000Z</time>
      </trkpt>
      <trkpt lat="48.50641" lon="-2.60434">
        <ele>98.1</ele>
        <time>2013-05-26T08:59:07.000Z</time>
      </trkpt>
      <trkpt lat="48.50643" lon="-2.60439">
        <ele>98.1</ele>
        <time>2013-05-26T08:59:08.000Z</time>
      </trkpt>
      <trkpt lat="48.50644" lon="-2.60443">
        <ele>98.1</ele>
        <time>2013-05-26T08:59:09.000Z</time>
      </trkpt>
      <trkpt lat="48.50645" lon="-2.60448">
        <ele>98.1</ele>
        <time>2013-05-26T08:59:10.000Z</time>
      </trkpt>
      <trkpt lat="48.50647" lon="-2.60452">
        <ele>98</ele>
        <time>2013-05-26T08:59:11.000Z</time>
      </trkpt>
      <trkpt lat="48.50648" lon="-2.60457">
        <ele>98</ele>
        <time>2013-05-26T08:59:12.000Z</time>
      </trkpt>
      <trkpt lat="48.50649" lon="-2.60461">
        <ele>98</ele>
        <time>2013-05-26T08:59:13.000Z</time>
      </trkpt>
      <trkpt lat="48.5065" lon="-2.60466">
        <ele>98</ele>
        <time>2013-05-26T08:59:14.000Z</time>
      </trkpt>
      <trkpt lat="48.50652" lon="-2.6047">
        <ele>98</ele>
        <time>2013-05-26T08:59:15.000Z</time>
      </trkpt>
      <trkpt lat="48.50653" lon="-2.60475">
        <ele>97.9</ele>
        <time>2013-05-26T08:59:16.000Z</time>
      </trkpt>
      <trkpt lat="48.50654" lon="-2.60479">
        <ele>97.8</ele>
        <time>2013-05-26T08:59:17.000Z</time>
      </trkpt>
      <trkpt lat="48.50654" lon="-2.60482">
        <ele>98.8</ele>
        <time>2013-05-26T08:59:20.000Z</time>
      </trkpt>
      <trkpt lat="48.50655" lon="-2.605">
        <ele>102.3</ele>
        <time>2013-05-26T08:59:22.000Z</time>
      </trkpt>
      <trkpt lat="48.50659" lon="-2.60507">
        <ele>100.1</ele>
        <time>2013-05-26T08:59:24.000Z</time>
      </trkpt>
      <trkpt lat="48.50662" lon="-2.60511">
        <ele>100.8</ele>
        <time>2013-05-26T08:59:25.000Z</time>
      </trkpt>
      <trkpt lat="48.50664" lon="-2.60514">
        <ele>99.3</ele>
        <time>2013-05-26T08:59:26.000Z</time>
      </trkpt>
      <trkpt lat="48.50668" lon="-2.60517">
        <ele>98.8</ele>
        <time>2013-05-26T08:59:27.000Z</time>
      </trkpt>
      <trkpt lat="48.50671" lon="-2.60518">
        <ele>98.6</ele>
        <time>2013-05-26T08:59:28.000Z</time>
      </trkpt>
      <trkpt lat="48.50674" lon="-2.60517">
        <ele>99.1</ele>
        <time>2013-05-26T08:59:29.000Z</time>
      </trkpt>
      <trkpt lat="48.50677" lon="-2.60514">
        <ele>98.5</ele>
        <time>2013-05-26T08:59:30.000Z</time>
      </trkpt>
      <trkpt lat="48.50679" lon="-2.60511">
        <ele>98.1</ele>
        <time>2013-05-26T08:59:31.000Z</time>
      </trkpt>
      <trkpt lat="48.50681" lon="-2.60507">
        <ele>98.2</ele>
        <time>2013-05-26T08:59:32.000Z</time>
      </trkpt>
      <trkpt lat="48.50682" lon="-2.60504">
        <ele>98.6</ele>
        <time>2013-05-26T08:59:33.000Z</time>
      </trkpt>
      <trkpt lat="48.50684" lon="-2.60501">
        <ele>98.8</ele>
        <time>2013-05-26T08:59:34.000Z</time>
      </trkpt>
      <trkpt lat="48.50686" lon="-2.60498">
        <ele>99.2</ele>
        <time>2013-05-26T08:59:35.000Z</time>
      </trkpt>
      <trkpt lat="48.50688" lon="-2.60494">
        <ele>99.4</ele>
        <time>2013-05-26T08:59:36.000Z</time>
      </trkpt>
      <trkpt lat="48.50689" lon="-2.60491">
        <ele>99.8</ele>
        <time>2013-05-26T08:59:37.000Z</time>
      </trkpt>
      <trkpt lat="48.50691" lon="-2.60487">
        <ele>99.8</ele>
        <time>2013-05-26T08:59:38.000Z</time>
      </trkpt>
      <trkpt lat="48.50692" lon="-2.60483">
        <ele>100.3</ele>
        <time>2013-05-26T08:59:39.000Z</time>
      </trkpt>
      <trkpt lat="48.50693" lon="-2.60479">
        <ele>100.7</ele>
        <time>2013-05-26T08:59:40.000Z</time>
      </trkpt>
      <trkpt lat="48.50694" lon="-2.60475">
        <ele>100.4</ele>
        <time>2013-05-26T08:59:41.000Z</time>
      </trkpt>
      <trkpt lat="48.50695" lon="-2.60471">
        <ele>100.9</ele>
        <time>2013-05-26T08:59:42.000Z</time>
      </trkpt>
      <trkpt lat="48.50697" lon="-2.60467">
        <ele>100.8</ele>
        <time>2013-05-26T08:59:43.000Z</time>
      </trkpt>
      <trkpt lat="48.50698" lon="-2.60462">
        <ele>100.6</ele>
        <time>2013-05-26T08:59:44.000Z</time>
      </trkpt>
      <trkpt lat="48.507" lon="-2.60458">
        <ele>100.2</ele>
        <time>2013-05-26T08:59:45.000Z</time>
      </trkpt>
      <trkpt lat="48.50702" lon="-2.60453">
        <ele>100.1</ele>
        <time>2013-05-26T08:59:46.000Z</time>
      </trkpt>
      <trkpt lat="48.50704" lon="-2.60449">
        <ele>100.2</ele>
        <time>2013-05-26T08:59:47.000Z</time>
      </trkpt>
      <trkpt lat="48.50706" lon="-2.60444">
        <ele>100.2</ele>
        <time>2013-05-26T08:59:48.000Z</time>
      </trkpt>
      <trkpt lat="48.50707" lon="-2.60442">
        <ele>100.9</ele>
        <time>2013-05-26T08:59:49.000Z</time>
      </trkpt>
      <trkpt lat="48.5071" lon="-2.60438">
        <ele>100.3</ele>
        <time>2013-05-26T08:59:50.000Z</time>
      </trkpt>
      <trkpt lat="48.50712" lon="-2.60435">
        <ele>100.3</ele>
        <time>2013-05-26T08:59:51.000Z</time>
      </trkpt>
      <trkpt lat="48.50715" lon="-2.60433">
        <ele>101</ele>
        <time>2013-05-26T08:59:52.000Z</time>
      </trkpt>
      <trkpt lat="48.50717" lon="-2.60432">
        <ele>101.6</ele>
        <time>2013-05-26T08:59:53.000Z</time>
      </trkpt>
      <trkpt lat="48.5072" lon="-2.60432">
        <ele>102.3</ele>
        <time>2013-05-26T08:59:54.000Z</time>
      </trkpt>
      <trkpt lat="48.50723" lon="-2.60433">
        <ele>102.7</ele>
        <time>2013-05-26T08:59:55.000Z</time>
      </trkpt>
      <trkpt lat="48.50726" lon="-2.60433">
        <ele>103</ele>
        <time>2013-05-26T08:59:56.000Z</time>
      </trkpt>
      <trkpt lat="48.50729" lon="-2.60433">
        <ele>102.9</ele>
        <time>2013-05-26T08:59:57.000Z</time>
      </trkpt>
      <trkpt lat="48.50733" lon="-2.60433">
        <ele>102.4</ele>
        <time>2013-05-26T08:59:58.000Z</time>
      </trkpt>
      <trkpt lat="48.50736" lon="-2.60433">
        <ele>102.5</ele>
        <time>2013-05-26T08:59:59.000Z</time>
      </trkpt>
      <trkpt lat="48.5074" lon="-2.60433">
        <ele>102.9</ele>
        <time>2013-05-26T09:00:00.000Z</time>
      </trkpt>
      <trkpt lat="48.50743" lon="-2.60432">
        <ele>103.1</ele>
        <time>2013-05-26T09:00:01.000Z</time>
      </trkpt>
      <trkpt lat="48.50745" lon="-2.6043">
        <ele>103.4</ele>
        <time>2013-05-26T09:00:02.000Z</time>
      </trkpt>
      <trkpt lat="48.50747" lon="-2.60426">
        <ele>103.7</ele>
        <time>2013-05-26T09:00:03.000Z</time>
      </trkpt>
      <trkpt lat="48.50748" lon="-2.60423">
        <ele>103.8</ele>
        <time>2013-05-26T09:00:04.000Z</time>
      </trkpt>
      <trkpt lat="48.50749" lon="-2.60419">
        <ele>103.9</ele>
        <time>2013-05-26T09:00:05.000Z</time>
      </trkpt>
      <trkpt lat="48.50751" lon="-2.60415">
        <ele>103.8</ele>
        <time>2013-05-26T09:00:06.000Z</time>
      </trkpt>
      <trkpt lat="48.50752" lon="-2.60411">
        <ele>103.5</ele>
        <time>2013-05-26T09:00:07.000Z</time>
      </trkpt>
      <trkpt lat="48.50754" lon="-2.60406">
        <ele>103.4</ele>
        <time>2013-05-26T09:00:08.000Z</time>
      </trkpt>
      <trkpt lat="48.50756" lon="-2.60401">
        <ele>103.3</ele>
        <time>2013-05-26T09:00:09.000Z</time>
      </trkpt>
      <trkpt lat="48.50758" lon="-2.60395">
        <ele>103.5</ele>
        <time>2013-05-26T09:00:10.000Z</time>
      </trkpt>
      <trkpt lat="48.50759" lon="-2.6039">
        <ele>103.7</ele>
        <time>2013-05-26T09:00:11.000Z</time>
      </trkpt>
      <trkpt lat="48.50761" lon="-2.60385">
        <ele>103.9</ele>
        <time>2013-05-26T09:00:12.000Z</time>
      </trkpt>
      <trkpt lat="48.50762" lon="-2.60379">
        <ele>103.9</ele>
        <time>2013-05-26T09:00:13.000Z</time>
      </trkpt>
      <trkpt lat="48.50762" lon="-2.60374">
        <ele>103.9</ele>
        <time>2013-05-26T09:00:14.000Z</time>
      </trkpt>
      <trkpt lat="48.50763" lon="-2.60369">
        <ele>103.8</ele>
        <time>2013-05-26T09:00:15.000Z</time>
      </trkpt>
      <trkpt lat="48.50762" lon="-2.60362">
        <ele>103.6</ele>
        <time>2013-05-26T09:00:16.000Z</time>
      </trkpt>
      <trkpt lat="48.50762" lon="-2.60356">
        <ele>103.6</ele>
        <time>2013-05-26T09:00:17.000Z</time>
      </trkpt>
      <trkpt lat="48.50762" lon="-2.6035">
        <ele>103.7</ele>
        <time>2013-05-26T09:00:18.000Z</time>
      </trkpt>
      <trkpt lat="48.50771" lon="-2.60339">
        <ele>103.6</ele>
        <time>2013-05-26T09:00:21.000Z</time>
      </trkpt>
      <trkpt lat="48.50773" lon="-2.60316">
        <ele>84</ele>
        <time>2013-05-26T09:00:23.000Z</time>
      </trkpt>
      <trkpt lat="48.5077" lon="-2.6031">
        <ele>93.2</ele>
        <time>2013-05-26T09:00:24.000Z</time>
      </trkpt>
      <trkpt lat="48.5077" lon="-2.60306">
        <ele>96.2</ele>
        <time>2013-05-26T09:00:25.000Z</time>
      </trkpt>
      <trkpt lat="48.50772" lon="-2.60302">
        <ele>94.4</ele>
        <time>2013-05-26T09:00:26.000Z</time>
      </trkpt>
      <trkpt lat="48.50776" lon="-2.60296">
        <ele>89.7</ele>
        <time>2013-05-26T09:00:27.000Z</time>
      </trkpt>
      <trkpt lat="48.50779" lon="-2.60292">
        <ele>87.5</ele>
        <time>2013-05-26T09:00:28.000Z</time>
      </trkpt>
      <trkpt lat="48.5078" lon="-2.60287">
        <ele>88.4</ele>
        <time>2013-05-26T09:00:29.000Z</time>
      </trkpt>
      <trkpt lat="48.50778" lon="-2.60281">
        <ele>92.3</ele>
        <time>2013-05-26T09:00:30.000Z</time>
      </trkpt>
      <trkpt lat="48.5078" lon="-2.60275">
        <ele>93</ele>
        <time>2013-05-26T09:00:31.000Z</time>
      </trkpt>
      <trkpt lat="48.50782" lon="-2.60271">
        <ele>92.8</ele>
        <time>2013-05-26T09:00:32.000Z</time>
      </trkpt>
      <trkpt lat="48.50783" lon="-2.60265">
        <ele>92.1</ele>
        <time>2013-05-26T09:00:33.000Z</time>
      </trkpt>
      <trkpt lat="48.50784" lon="-2.60259">
        <ele>93.4</ele>
        <time>2013-05-26T09:00:34.000Z</time>
      </trkpt>
      <trkpt lat="48.50785" lon="-2.60252">
        <ele>93.4</ele>
        <time>2013-05-26T09:00:35.000Z</time>
      </trkpt>
      <trkpt lat="48.50786" lon="-2.60246">
        <ele>94.9</ele>
        <time>2013-05-26T09:00:36.000Z</time>
      </trkpt>
      <trkpt lat="48.50787" lon="-2.6024">
        <ele>95.6</ele>
        <time>2013-05-26T09:00:37.000Z</time>
      </trkpt>
      <trkpt lat="48.50788" lon="-2.60235">
        <ele>96.6</ele>
        <time>2013-05-26T09:00:38.000Z</time>
      </trkpt>
      <trkpt lat="48.50789" lon="-2.6023">
        <ele>97.4</ele>
        <time>2013-05-26T09:00:39.000Z</time>
      </trkpt>
      <trkpt lat="48.5079" lon="-2.60225">
        <ele>97.5</ele>
        <time>2013-05-26T09:00:40.000Z</time>
      </trkpt>
      <trkpt lat="48.50791" lon="-2.60221">
        <ele>98.4</ele>
        <time>2013-05-26T09:00:41.000Z</time>
      </trkpt>
      <trkpt lat="48.50792" lon="-2.60217">
        <ele>99.6</ele>
        <time>2013-05-26T09:00:42.000Z</time>
      </trkpt>
      <trkpt lat="48.50794" lon="-2.60214">
        <ele>100.3</ele>
        <time>2013-05-26T09:00:43.000Z</time>
      </trkpt>
      <trkpt lat="48.50795" lon="-2.6021">
        <ele>100.7</ele>
        <time>2013-05-26T09:00:44.000Z</time>
      </trkpt>
      <trkpt lat="48.50797" lon="-2.60205">
        <ele>100.7</ele>
        <time>2013-05-26T09:00:45.000Z</time>
      </trkpt>
      <trkpt lat="48.50797" lon="-2.60201">
        <ele>101.7</ele>
        <time>2013-05-26T09:00:46.000Z</time>
      </trkpt>
      <trkpt lat="48.50798" lon="-2.60197">
        <ele>102.4</ele>
        <time>2013-05-26T09:00:47.000Z</time>
      </trkpt>
      <trkpt lat="48.50797" lon="-2.60194">
        <ele>102.5</ele>
        <time>2013-05-26T09:00:48.000Z</time>
      </trkpt>
      <trkpt lat="48.50795" lon="-2.6019">
        <ele>103.4</ele>
        <time>2013-05-26T09:00:49.000Z</time>
      </trkpt>
      <trkpt lat="48.50793" lon="-2.60185">
        <ele>104.2</ele>
        <time>2013-05-26T09:00:50.000Z</time>
      </trkpt>
      <trkpt lat="48.50791" lon="-2.60182">
        <ele>103.5</ele>
        <time>2013-05-26T09:00:51.000Z</time>
      </trkpt>
      <trkpt lat="48.50789" lon="-2.60178">
        <ele>104</ele>
        <time>2013-05-26T09:00:52.000Z</time>
      </trkpt>
      <trkpt lat="48.50788" lon="-2.60175">
        <ele>104</ele>
        <time>2013-05-26T09:00:53.000Z</time>
      </trkpt>
      <trkpt lat="48.50786" lon="-2.6017">
        <ele>103.7</ele>
        <time>2013-05-26T09:00:54.000Z</time>
      </trkpt>
      <trkpt lat="48.50785" lon="-2.60165">
        <ele>104</ele>
        <time>2013-05-26T09:00:55.000Z</time>
      </trkpt>
      <trkpt lat="48.50783" lon="-2.6016">
        <ele>104.5</ele>
        <time>2013-05-26T09:00:56.000Z</time>
      </trkpt>
      <trkpt lat="48.50782" lon="-2.60156">
        <ele>104.9</ele>
        <time>2013-05-26T09:00:57.000Z</time>
      </trkpt>
      <trkpt lat="48.50781" lon="-2.60151">
        <ele>105.2</ele>
        <time>2013-05-26T09:00:58.000Z</time>
      </trkpt>
      <trkpt lat="48.5078" lon="-2.60146">
        <ele>105.7</ele>
        <time>2013-05-26T09:00:59.000Z</time>
      </trkpt>
      <trkpt lat="48.50779" lon="-2.6014">
        <ele>106</ele>
        <time>2013-05-26T09:01:00.000Z</time>
      </trkpt>
      <trkpt lat="48.50779" lon="-2.60135">
        <ele>106.2</ele>
        <time>2013-05-26T09:01:01.000Z</time>
      </trkpt>
      <trkpt lat="48.50779" lon="-2.60131">
        <ele>106.2</ele>
        <time>2013-05-26T09:01:02.000Z</time>
      </trkpt>
      <trkpt lat="48.5078" lon="-2.60126">
        <ele>106.2</ele>
        <time>2013-05-26T09:01:03.000Z</time>
      </trkpt>
      <trkpt lat="48.50781" lon="-2.60122">
        <ele>106</ele>
        <time>2013-05-26T09:01:04.000Z</time>
      </trkpt>
      <trkpt lat="48.50782" lon="-2.60117">
        <ele>105.9</ele>
        <time>2013-05-26T09:01:05.000Z</time>
      </trkpt>
      <trkpt lat="48.50783" lon="-2.60113">
        <ele>105.7</ele>
        <time>2013-05-26T09:01:06.000Z</time>
      </trkpt>
      <trkpt lat="48.50785" lon="-2.6011">
        <ele>105.7</ele>
        <time>2013-05-26T09:01:07.000Z</time>
      </trkpt>
      <trkpt lat="48.50786" lon="-2.60106">
        <ele>105.5</ele>
        <time>2013-05-26T09:01:08.000Z</time>
      </trkpt>
      <trkpt lat="48.50788" lon="-2.60102">
        <ele>105.3</ele>
        <time>2013-05-26T09:01:09.000Z</time>
      </trkpt>
      <trkpt lat="48.50789" lon="-2.60098">
        <ele>105.3</ele>
        <time>2013-05-26T09:01:10.000Z</time>
      </trkpt>
      <trkpt lat="48.50791" lon="-2.60094">
        <ele>105.3</ele>
        <time>2013-05-26T09:01:11.000Z</time>
      </trkpt>
      <trkpt lat="48.50793" lon="-2.6009">
        <ele>105.6</ele>
        <time>2013-05-26T09:01:12.000Z</time>
      </trkpt>
      <trkpt lat="48.50795" lon="-2.60085">
        <ele>105.8</ele>
        <time>2013-05-26T09:01:13.000Z</time>
      </trkpt>
      <trkpt lat="48.50797" lon="-2.60081">
        <ele>106</ele>
        <time>2013-05-26T09:01:14.000Z</time>
      </trkpt>
      <trkpt lat="48.50799" lon="-2.60077">
        <ele>106</ele>
        <time>2013-05-26T09:01:15.000Z</time>
      </trkpt>
      <trkpt lat="48.50801" lon="-2.60074">
        <ele>106.1</ele>
        <time>2013-05-26T09:01:16.000Z</time>
      </trkpt>
      <trkpt lat="48.50803" lon="-2.6007">
        <ele>106.2</ele>
        <time>2013-05-26T09:01:17.000Z</time>
      </trkpt>
      <trkpt lat="48.50805" lon="-2.60066">
        <ele>106.6</ele>
        <time>2013-05-26T09:01:18.000Z</time>
      </trkpt>
      <trkpt lat="48.50802" lon="-2.60059">
        <ele>118.6</ele>
        <time>2013-05-26T09:01:22.000Z</time>
      </trkpt>
      <trkpt lat="48.5081" lon="-2.60054">
        <ele>116.6</ele>
        <time>2013-05-26T09:01:23.000Z</time>
      </trkpt>
      <trkpt lat="48.50816" lon="-2.60048">
        <ele>114.6</ele>
        <time>2013-05-26T09:01:25.000Z</time>
      </trkpt>
      <trkpt lat="48.50818" lon="-2.60044">
        <ele>114.7</ele>
        <time>2013-05-26T09:01:26.000Z</time>
      </trkpt>
      <trkpt lat="48.50821" lon="-2.60039">
        <ele>113.3</ele>
        <time>2013-05-26T09:01:27.000Z</time>
      </trkpt>
      <trkpt lat="48.50823" lon="-2.60036">
        <ele>113.3</ele>
        <time>2013-05-26T09:01:28.000Z</time>
      </trkpt>
      <trkpt lat="48.50826" lon="-2.60034">
        <ele>114.2</ele>
        <time>2013-05-26T09:01:29.000Z</time>
      </trkpt>
      <trkpt lat="48.50828" lon="-2.60032">
        <ele>115</ele>
        <time>2013-05-26T09:01:30.000Z</time>
      </trkpt>
      <trkpt lat="48.5083" lon="-2.60029">
        <ele>115</ele>
        <time>2013-05-26T09:01:31.000Z</time>
      </trkpt>
      <trkpt lat="48.50832" lon="-2.60026">
        <ele>114.1</ele>
        <time>2013-05-26T09:01:32.000Z</time>
      </trkpt>
      <trkpt lat="48.50835" lon="-2.60024">
        <ele>114.8</ele>
        <time>2013-05-26T09:01:33.000Z</time>
      </trkpt>
      <trkpt lat="48.50836" lon="-2.60022">
        <ele>115.2</ele>
        <time>2013-05-26T09:01:34.000Z</time>
      </trkpt>
      <trkpt lat="48.50838" lon="-2.6002">
        <ele>115.7</ele>
        <time>2013-05-26T09:01:35.000Z</time>
      </trkpt>
      <trkpt lat="48.5084" lon="-2.60017">
        <ele>116.5</ele>
        <time>2013-05-26T09:01:36.000Z</time>
      </trkpt>
      <trkpt lat="48.50841" lon="-2.60015">
        <ele>116.4</ele>
        <time>2013-05-26T09:01:37.000Z</time>
      </trkpt>
      <trkpt lat="48.50843" lon="-2.60013">
        <ele>117</ele>
        <time>2013-05-26T09:01:38.000Z</time>
      </trkpt>
      <trkpt lat="48.50845" lon="-2.60011">
        <ele>117.4</ele>
        <time>2013-05-26T09:01:39.000Z</time>
      </trkpt>
      <trkpt lat="48.50847" lon="-2.60008">
        <ele>117.4</ele>
        <time>2013-05-26T09:01:40.000Z</time>
      </trkpt>
      <trkpt lat="48.50849" lon="-2.60006">
        <ele>117.5</ele>
        <time>2013-05-26T09:01:41.000Z</time>
      </trkpt>
      <trkpt lat="48.50852" lon="-2.60004">
        <ele>117.2</ele>
        <time>2013-05-26T09:01:42.000Z</time>
      </trkpt>
      <trkpt lat="48.50855" lon="-2.60001">
        <ele>116.2</ele>
        <time>2013-05-26T09:01:43.000Z</time>
      </trkpt>
      <trkpt lat="48.50858" lon="-2.59998">
        <ele>116.8</ele>
        <time>2013-05-26T09:01:44.000Z</time>
      </trkpt>
      <trkpt lat="48.50861" lon="-2.59996">
        <ele>116.9</ele>
        <time>2013-05-26T09:01:45.000Z</time>
      </trkpt>
      <trkpt lat="48.50863" lon="-2.59994">
        <ele>117.1</ele>
        <time>2013-05-26T09:01:46.000Z</time>
      </trkpt>
      <trkpt lat="48.50865" lon="-2.5999">
        <ele>118.3</ele>
        <time>2013-05-26T09:01:47.000Z</time>
      </trkpt>
      <trkpt lat="48.50866" lon="-2.59988">
        <ele>118.3</ele>
        <time>2013-05-26T09:01:48.000Z</time>
      </trkpt>
      <trkpt lat="48.50868" lon="-2.59985">
        <ele>118</ele>
        <time>2013-05-26T09:01:49.000Z</time>
      </trkpt>
      <trkpt lat="48.50869" lon="-2.5998">
        <ele>116.5</ele>
        <time>2013-05-26T09:01:51.000Z</time>
      </trkpt>
      <trkpt lat="48.50869" lon="-2.59977">
        <ele>116.8</ele>
        <time>2013-05-26T09:01:52.000Z</time>
      </trkpt>
      <trkpt lat="48.5087" lon="-2.59973">
        <ele>116.6</ele>
        <time>2013-05-26T09:01:53.000Z</time>
      </trkpt>
      <trkpt lat="48.5087" lon="-2.5997">
        <ele>116.2</ele>
        <time>2013-05-26T09:01:54.000Z</time>
      </trkpt>
      <trkpt lat="48.50869" lon="-2.59963">
        <ele>116</ele>
        <time>2013-05-26T09:01:56.000Z</time>
      </trkpt>
      <trkpt lat="48.50869" lon="-2.5996">
        <ele>115.9</ele>
        <time>2013-05-26T09:01:57.000Z</time>
      </trkpt>
      <trkpt lat="48.50868" lon="-2.59953">
        <ele>115.2</ele>
        <time>2013-05-26T09:01:59.000Z</time>
      </trkpt>
      <trkpt lat="48.50868" lon="-2.59949">
        <ele>115</ele>
        <time>2013-05-26T09:02:00.000Z</time>
      </trkpt>
      <trkpt lat="48.50868" lon="-2.59945">
        <ele>115</ele>
        <time>2013-05-26T09:02:01.000Z</time>
      </trkpt>
      <trkpt lat="48.50868" lon="-2.59941">
        <ele>114.8</ele>
        <time>2013-05-26T09:02:02.000Z</time>
      </trkpt>
      <trkpt lat="48.50868" lon="-2.59937">
        <ele>114.5</ele>
        <time>2013-05-26T09:02:03.000Z</time>
      </trkpt>
      <trkpt lat="48.50869" lon="-2.59933">
        <ele>114.5</ele>
        <time>2013-05-26T09:02:04.000Z</time>
      </trkpt>
      <trkpt lat="48.50869" lon="-2.59929">
        <ele>114.8</ele>
        <time>2013-05-26T09:02:05.000Z</time>
      </trkpt>
      <trkpt lat="48.50871" lon="-2.59924">
        <ele>114.8</ele>
        <time>2013-05-26T09:02:06.000Z</time>
      </trkpt>
      <trkpt lat="48.50873" lon="-2.59919">
        <ele>114.9</ele>
        <time>2013-05-26T09:02:07.000Z</time>
      </trkpt>
      <trkpt lat="48.50874" lon="-2.59914">
        <ele>114.9</ele>
        <time>2013-05-26T09:02:08.000Z</time>
      </trkpt>
      <trkpt lat="48.50876" lon="-2.59909">
        <ele>114.8</ele>
        <time>2013-05-26T09:02:09.000Z</time>
      </trkpt>
      <trkpt lat="48.50879" lon="-2.59904">
        <ele>114.6</ele>
        <time>2013-05-26T09:02:10.000Z</time>
      </trkpt>
      <trkpt lat="48.50881" lon="-2.599">
        <ele>114.5</ele>
        <time>2013-05-26T09:02:11.000Z</time>
      </trkpt>
      <trkpt lat="48.50884" lon="-2.59895">
        <ele>114.4</ele>
        <time>2013-05-26T09:02:12.000Z</time>
      </trkpt>
      <trkpt lat="48.50887" lon="-2.5989">
        <ele>114.5</ele>
        <time>2013-05-26T09:02:13.000Z</time>
      </trkpt>
      <trkpt lat="48.50889" lon="-2.59887">
        <ele>114.6</ele>
        <time>2013-05-26T09:02:14.000Z</time>
      </trkpt>
      <trkpt lat="48.50892" lon="-2.59883">
        <ele>114.4</ele>
        <time>2013-05-26T09:02:15.000Z</time>
      </trkpt>
      <trkpt lat="48.50894" lon="-2.59878">
        <ele>114.2</ele>
        <time>2013-05-26T09:02:16.000Z</time>
      </trkpt>
      <trkpt lat="48.50897" lon="-2.59874">
        <ele>114.3</ele>
        <time>2013-05-26T09:02:17.000Z</time>
      </trkpt>
      <trkpt lat="48.509" lon="-2.5987">
        <ele>114.3</ele>
        <time>2013-05-26T09:02:18.000Z</time>
      </trkpt>
      <trkpt lat="48.50906" lon="-2.59853">
        <ele>120.2</ele>
        <time>2013-05-26T09:02:21.000Z</time>
      </trkpt>
      <trkpt lat="48.50911" lon="-2.59852">
        <ele>117.9</ele>
        <time>2013-05-26T09:02:22.000Z</time>
      </trkpt>
      <trkpt lat="48.50914" lon="-2.59849">
        <ele>120.7</ele>
        <time>2013-05-26T09:02:25.000Z</time>
      </trkpt>
      <trkpt lat="48.50916" lon="-2.59845">
        <ele>120.1</ele>
        <time>2013-05-26T09:02:26.000Z</time>
      </trkpt>
      <trkpt lat="48.50919" lon="-2.59841">
        <ele>119.9</ele>
        <time>2013-05-26T09:02:27.000Z</time>
      </trkpt>
      <trkpt lat="48.50922" lon="-2.59837">
        <ele>119.1</ele>
        <time>2013-05-26T09:02:28.000Z</time>
      </trkpt>
      <trkpt lat="48.50926" lon="-2.59834">
        <ele>117.9</ele>
        <time>2013-05-26T09:02:29.000Z</time>
      </trkpt>
      <trkpt lat="48.50929" lon="-2.59831">
        <ele>119.1</ele>
        <time>2013-05-26T09:02:30.000Z</time>
      </trkpt>
      <trkpt lat="48.50933" lon="-2.59829">
        <ele>118.3</ele>
        <time>2013-05-26T09:02:31.000Z</time>
      </trkpt>
      <trkpt lat="48.50936" lon="-2.59826">
        <ele>117.8</ele>
        <time>2013-05-26T09:02:32.000Z</time>
      </trkpt>
      <trkpt lat="48.50939" lon="-2.59823">
        <ele>117.8</ele>
        <time>2013-05-26T09:02:33.000Z</time>
      </trkpt>
      <trkpt lat="48.50942" lon="-2.5982">
        <ele>117.9</ele>
        <time>2013-05-26T09:02:34.000Z</time>
      </trkpt>
      <trkpt lat="48.50945" lon="-2.59816">
        <ele>117.8</ele>
        <time>2013-05-26T09:02:35.000Z</time>
      </trkpt>
      <trkpt lat="48.50947" lon="-2.59814">
        <ele>117.4</ele>
        <time>2013-05-26T09:02:36.000Z</time>
      </trkpt>
      <trkpt lat="48.50951" lon="-2.59812">
        <ele>117.1</ele>
        <time>2013-05-26T09:02:37.000Z</time>
      </trkpt>
      <trkpt lat="48.50954" lon="-2.5981">
        <ele>116.8</ele>
        <time>2013-05-26T09:02:38.000Z</time>
      </trkpt>
      <trkpt lat="48.50957" lon="-2.59807">
        <ele>117.5</ele>
        <time>2013-05-26T09:02:39.000Z</time>
      </trkpt>
      <trkpt lat="48.50961" lon="-2.59805">
        <ele>117.5</ele>
        <time>2013-05-26T09:02:40.000Z</time>
      </trkpt>
      <trkpt lat="48.50964" lon="-2.59802">
        <ele>117.7</ele>
        <time>2013-05-26T09:02:41.000Z</time>
      </trkpt>
      <trkpt lat="48.50966" lon="-2.59799">
        <ele>118.4</ele>
        <time>2013-05-26T09:02:42.000Z</time>
      </trkpt>
      <trkpt lat="48.50969" lon="-2.59796">
        <ele>119.1</ele>
        <time>2013-05-26T09:02:43.000Z</time>
      </trkpt>
      <trkpt lat="48.50972" lon="-2.59793">
        <ele>119.5</ele>
        <time>2013-05-26T09:02:44.000Z</time>
      </trkpt>
      <trkpt lat="48.50975" lon="-2.59791">
        <ele>120.6</ele>
        <time>2013-05-26T09:02:45.000Z</time>
      </trkpt>
      <trkpt lat="48.50977" lon="-2.59788">
        <ele>120.8</ele>
        <time>2013-05-26T09:02:46.000Z</time>
      </trkpt>
      <trkpt lat="48.50981" lon="-2.59785">
        <ele>120.6</ele>
        <time>2013-05-26T09:02:47.000Z</time>
      </trkpt>
      <trkpt lat="48.50984" lon="-2.59782">
        <ele>120.6</ele>
        <time>2013-05-26T09:02:48.000Z</time>
      </trkpt>
      <trkpt lat="48.50987" lon="-2.5978">
        <ele>120.9</ele>
        <time>2013-05-26T09:02:49.000Z</time>
      </trkpt>
      <trkpt lat="48.5099" lon="-2.59778">
        <ele>120.1</ele>
        <time>2013-05-26T09:02:50.000Z</time>
      </trkpt>
      <trkpt lat="48.50993" lon="-2.59776">
        <ele>120.5</ele>
        <time>2013-05-26T09:02:51.000Z</time>
      </trkpt>
      <trkpt lat="48.50995" lon="-2.59773">
        <ele>120.5</ele>
        <time>2013-05-26T09:02:52.000Z</time>
      </trkpt>
      <trkpt lat="48.50999" lon="-2.5977">
        <ele>120</ele>
        <time>2013-05-26T09:02:53.000Z</time>
      </trkpt>
      <trkpt lat="48.51001" lon="-2.59767">
        <ele>119.5</ele>
        <time>2013-05-26T09:02:54.000Z</time>
      </trkpt>
      <trkpt lat="48.51003" lon="-2.59765">
        <ele>119.6</ele>
        <time>2013-05-26T09:02:55.000Z</time>
      </trkpt>
      <trkpt lat="48.51007" lon="-2.59762">
        <ele>119.8</ele>
        <time>2013-05-26T09:02:57.000Z</time>
      </trkpt>
      <trkpt lat="48.51009" lon="-2.59761">
        <ele>119.8</ele>
        <time>2013-05-26T09:02:58.000Z</time>
      </trkpt>
      <trkpt lat="48.51013" lon="-2.5976">
        <ele>120.2</ele>
        <time>2013-05-26T09:03:02.000Z</time>
      </trkpt>
      <trkpt lat="48.51014" lon="-2.5976">
        <ele>120.2</ele>
        <time>2013-05-26T09:03:03.000Z</time>
      </trkpt>
      <trkpt lat="48.51017" lon="-2.59759">
        <ele>119.9</ele>
        <time>2013-05-26T09:03:06.000Z</time>
      </trkpt>
      <trkpt lat="48.51018" lon="-2.59758">
        <ele>120</ele>
        <time>2013-05-26T09:03:07.000Z</time>
      </trkpt>
      <trkpt lat="48.5102" lon="-2.59757">
        <ele>119.9</ele>
        <time>2013-05-26T09:03:08.000Z</time>
      </trkpt>
      <trkpt lat="48.51023" lon="-2.59756">
        <ele>119.7</ele>
        <time>2013-05-26T09:03:09.000Z</time>
      </trkpt>
      <trkpt lat="48.51026" lon="-2.59754">
        <ele>119.7</ele>
        <time>2013-05-26T09:03:11.000Z</time>
      </trkpt>
      <trkpt lat="48.51027" lon="-2.59753">
        <ele>119.8</ele>
        <time>2013-05-26T09:03:12.000Z</time>
      </trkpt>
      <trkpt lat="48.5103" lon="-2.5975">
        <ele>119.6</ele>
        <time>2013-05-26T09:03:14.000Z</time>
      </trkpt>
      <trkpt lat="48.51032" lon="-2.59748">
        <ele>119.5</ele>
        <time>2013-05-26T09:03:15.000Z</time>
      </trkpt>
      <trkpt lat="48.51033" lon="-2.59745">
        <ele>119.4</ele>
        <time>2013-05-26T09:03:16.000Z</time>
      </trkpt>
      <trkpt lat="48.51035" lon="-2.59743">
        <ele>119.5</ele>
        <time>2013-05-26T09:03:17.000Z</time>
      </trkpt>
      <trkpt lat="48.51036" lon="-2.59741">
        <ele>119.6</ele>
        <time>2013-05-26T09:03:18.000Z</time>
      </trkpt>
      <trkpt lat="48.51046" lon="-2.597">
        <ele>116.2</ele>
        <time>2013-05-26T09:03:23.000Z</time>
      </trkpt>
      <trkpt lat="48.51048" lon="-2.59694">
        <ele>114.8</ele>
        <time>2013-05-26T09:03:24.000Z</time>
      </trkpt>
      <trkpt lat="48.51048" lon="-2.59688">
        <ele>114.3</ele>
        <time>2013-05-26T09:03:25.000Z</time>
      </trkpt>
      <trkpt lat="48.51049" lon="-2.59682">
        <ele>116.2</ele>
        <time>2013-05-26T09:03:26.000Z</time>
      </trkpt>
      <trkpt lat="48.51051" lon="-2.59679">
        <ele>117</ele>
        <time>2013-05-26T09:03:27.000Z</time>
      </trkpt>
      <trkpt lat="48.51054" lon="-2.59678">
        <ele>118.1</ele>
        <time>2013-05-26T09:03:29.000Z</time>
      </trkpt>
      <trkpt lat="48.51057" lon="-2.59679">
        <ele>117.9</ele>
        <time>2013-05-26T09:03:30.000Z</time>
      </trkpt>
      <trkpt lat="48.51059" lon="-2.59681">
        <ele>118.1</ele>
        <time>2013-05-26T09:03:31.000Z</time>
      </trkpt>
      <trkpt lat="48.51062" lon="-2.59683">
        <ele>119.8</ele>
        <time>2013-05-26T09:03:32.000Z</time>
      </trkpt>
      <trkpt lat="48.51065" lon="-2.59685">
        <ele>124.6</ele>
        <time>2013-05-26T09:03:34.000Z</time>
      </trkpt>
      <trkpt lat="48.51068" lon="-2.59685">
        <ele>124.9</ele>
        <time>2013-05-26T09:03:35.000Z</time>
      </trkpt>
      <trkpt lat="48.51071" lon="-2.59684">
        <ele>125.5</ele>
        <time>2013-05-26T09:03:36.000Z</time>
      </trkpt>
      <trkpt lat="48.51074" lon="-2.59682">
        <ele>124.6</ele>
        <time>2013-05-26T09:03:37.000Z</time>
      </trkpt>
      <trkpt lat="48.51077" lon="-2.5968">
        <ele>124.1</ele>
        <time>2013-05-26T09:03:38.000Z</time>
      </trkpt>
      <trkpt lat="48.5108" lon="-2.59678">
        <ele>124</ele>
        <time>2013-05-26T09:03:39.000Z</time>
      </trkpt>
      <trkpt lat="48.51083" lon="-2.59675">
        <ele>124.1</ele>
        <time>2013-05-26T09:03:40.000Z</time>
      </trkpt>
      <trkpt lat="48.51086" lon="-2.59673">
        <ele>123.7</ele>
        <time>2013-05-26T09:03:41.000Z</time>
      </trkpt>
      <trkpt lat="48.51088" lon="-2.5967">
        <ele>124</ele>
        <time>2013-05-26T09:03:42.000Z</time>
      </trkpt>
      <trkpt lat="48.51091" lon="-2.59667">
        <ele>123.5</ele>
        <time>2013-05-26T09:03:43.000Z</time>
      </trkpt>
      <trkpt lat="48.51094" lon="-2.59665">
        <ele>123.2</ele>
        <time>2013-05-26T09:03:44.000Z</time>
      </trkpt>
      <trkpt lat="48.51096" lon="-2.59661">
        <ele>122.5</ele>
        <time>2013-05-26T09:03:45.000Z</time>
      </trkpt>
      <trkpt lat="48.51098" lon="-2.59659">
        <ele>121.7</ele>
        <time>2013-05-26T09:03:46.000Z</time>
      </trkpt>
      <trkpt lat="48.511" lon="-2.59656">
        <ele>120</ele>
        <time>2013-05-26T09:03:47.000Z</time>
      </trkpt>
      <trkpt lat="48.51102" lon="-2.59653">
        <ele>119.3</ele>
        <time>2013-05-26T09:03:48.000Z</time>
      </trkpt>
      <trkpt lat="48.51104" lon="-2.59651">
        <ele>119.2</ele>
        <time>2013-05-26T09:03:49.000Z</time>
      </trkpt>
      <trkpt lat="48.51107" lon="-2.59648">
        <ele>118.4</ele>
        <time>2013-05-26T09:03:50.000Z</time>
      </trkpt>
      <trkpt lat="48.51108" lon="-2.59645">
        <ele>118.1</ele>
        <time>2013-05-26T09:03:51.000Z</time>
      </trkpt>
      <trkpt lat="48.5111" lon="-2.59641">
        <ele>117.9</ele>
        <time>2013-05-26T09:03:52.000Z</time>
      </trkpt>
      <trkpt lat="48.51112" lon="-2.59638">
        <ele>117.7</ele>
        <time>2013-05-26T09:03:53.000Z</time>
      </trkpt>
      <trkpt lat="48.51114" lon="-2.59634">
        <ele>117.4</ele>
        <time>2013-05-26T09:03:54.000Z</time>
      </trkpt>
      <trkpt lat="48.51116" lon="-2.5963">
        <ele>117.6</ele>
        <time>2013-05-26T09:03:55.000Z</time>
      </trkpt>
      <trkpt lat="48.51119" lon="-2.59627">
        <ele>117.5</ele>
        <time>2013-05-26T09:03:56.000Z</time>
      </trkpt>
      <trkpt lat="48.51121" lon="-2.59624">
        <ele>117.6</ele>
        <time>2013-05-26T09:03:57.000Z</time>
      </trkpt>
      <trkpt lat="48.51124" lon="-2.59621">
        <ele>117.5</ele>
        <time>2013-05-26T09:03:58.000Z</time>
      </trkpt>
      <trkpt lat="48.51126" lon="-2.59618">
        <ele>117.6</ele>
        <time>2013-05-26T09:03:59.000Z</time>
      </trkpt>
      <trkpt lat="48.51128" lon="-2.59616">
        <ele>117.5</ele>
        <time>2013-05-26T09:04:00.000Z</time>
      </trkpt>
      <trkpt lat="48.51131" lon="-2.59614">
        <ele>117.8</ele>
        <time>2013-05-26T09:04:01.000Z</time>
      </trkpt>
      <trkpt lat="48.51133" lon="-2.59611">
        <ele>117.9</ele>
        <time>2013-05-26T09:04:02.000Z</time>
      </trkpt>
      <trkpt lat="48.51135" lon="-2.59609">
        <ele>117.8</ele>
        <time>2013-05-26T09:04:03.000Z</time>
      </trkpt>
      <trkpt lat="48.51137" lon="-2.59607">
        <ele>117.8</ele>
        <time>2013-05-26T09:04:04.000Z</time>
      </trkpt>
      <trkpt lat="48.5114" lon="-2.59604">
        <ele>117.7</ele>
        <time>2013-05-26T09:04:05.000Z</time>
      </trkpt>
      <trkpt lat="48.51143" lon="-2.59601">
        <ele>117.6</ele>
        <time>2013-05-26T09:04:06.000Z</time>
      </trkpt>
      <trkpt lat="48.51146" lon="-2.59598">
        <ele>117.9</ele>
        <time>2013-05-26T09:04:07.000Z</time>
      </trkpt>
      <trkpt lat="48.51148" lon="-2.59595">
        <ele>118.1</ele>
        <time>2013-05-26T09:04:08.000Z</time>
      </trkpt>
      <trkpt lat="48.51151" lon="-2.59593">
        <ele>118</ele>
        <time>2013-05-26T09:04:09.000Z</time>
      </trkpt>
      <trkpt lat="48.51154" lon="-2.5959">
        <ele>118.4</ele>
        <time>2013-05-26T09:04:10.000Z</time>
      </trkpt>
      <trkpt lat="48.51158" lon="-2.59587">
        <ele>118.6</ele>
        <time>2013-05-26T09:04:11.000Z</time>
      </trkpt>
      <trkpt lat="48.51161" lon="-2.59585">
        <ele>118.7</ele>
        <time>2013-05-26T09:04:12.000Z</time>
      </trkpt>
      <trkpt lat="48.51164" lon="-2.59583">
        <ele>118.8</ele>
        <time>2013-05-26T09:04:13.000Z</time>
      </trkpt>
      <trkpt lat="48.51166" lon="-2.59581">
        <ele>119</ele>
        <time>2013-05-26T09:04:14.000Z</time>
      </trkpt>
      <trkpt lat="48.51169" lon="-2.59579">
        <ele>118.9</ele>
        <time>2013-05-26T09:04:15.000Z</time>
      </trkpt>
      <trkpt lat="48.51172" lon="-2.59577">
        <ele>118.9</ele>
        <time>2013-05-26T09:04:16.000Z</time>
      </trkpt>
      <trkpt lat="48.51175" lon="-2.59576">
        <ele>119</ele>
        <time>2013-05-26T09:04:17.000Z</time>
      </trkpt>
      <trkpt lat="48.51179" lon="-2.59575">
        <ele>130.8</ele>
        <time>2013-05-26T09:04:20.000Z</time>
      </trkpt>
      <trkpt lat="48.51182" lon="-2.59575">
        <ele>129.1</ele>
        <time>2013-05-26T09:04:21.000Z</time>
      </trkpt>
      <trkpt lat="48.51191" lon="-2.59574">
        <ele>124.7</ele>
        <time>2013-05-26T09:04:23.000Z</time>
      </trkpt>
      <trkpt lat="48.51194" lon="-2.59575">
        <ele>124.6</ele>
        <time>2013-05-26T09:04:25.000Z</time>
      </trkpt>
      <trkpt lat="48.51196" lon="-2.59577">
        <ele>124.4</ele>
        <time>2013-05-26T09:04:26.000Z</time>
      </trkpt>
      <trkpt lat="48.512" lon="-2.59576">
        <ele>125.4</ele>
        <time>2013-05-26T09:04:27.000Z</time>
      </trkpt>
      <trkpt lat="48.51202" lon="-2.59576">
        <ele>126.6</ele>
        <time>2013-05-26T09:04:28.000Z</time>
      </trkpt>
      <trkpt lat="48.51205" lon="-2.59575">
        <ele>125.7</ele>
        <time>2013-05-26T09:04:29.000Z</time>
      </trkpt>
      <trkpt lat="48.51208" lon="-2.59576">
        <ele>123.7</ele>
        <time>2013-05-26T09:04:30.000Z</time>
      </trkpt>
      <trkpt lat="48.51211" lon="-2.59576">
        <ele>123.6</ele>
        <time>2013-05-26T09:04:31.000Z</time>
      </trkpt>
      <trkpt lat="48.51214" lon="-2.59575">
        <ele>123</ele>
        <time>2013-05-26T09:04:32.000Z</time>
      </trkpt>
      <trkpt lat="48.51217" lon="-2.59575">
        <ele>122.8</ele>
        <time>2013-05-26T09:04:33.000Z</time>
      </trkpt>
      <trkpt lat="48.51219" lon="-2.59574">
        <ele>123</ele>
        <time>2013-05-26T09:04:34.000Z</time>
      </trkpt>
      <trkpt lat="48.51222" lon="-2.59573">
        <ele>123.1</ele>
        <time>2013-05-26T09:04:35.000Z</time>
      </trkpt>
      <trkpt lat="48.51225" lon="-2.59571">
        <ele>122.8</ele>
        <time>2013-05-26T09:04:36.000Z</time>
      </trkpt>
      <trkpt lat="48.51227" lon="-2.59568">
        <ele>122.8</ele>
        <time>2013-05-26T09:04:37.000Z</time>
      </trkpt>
      <trkpt lat="48.51229" lon="-2.59566">
        <ele>123.4</ele>
        <time>2013-05-26T09:04:38.000Z</time>
      </trkpt>
      <trkpt lat="48.51231" lon="-2.59562">
        <ele>123.9</ele>
        <time>2013-05-26T09:04:39.000Z</time>
      </trkpt>
      <trkpt lat="48.51232" lon="-2.59558">
        <ele>124.6</ele>
        <time>2013-05-26T09:04:40.000Z</time>
      </trkpt>
      <trkpt lat="48.51233" lon="-2.59555">
        <ele>125</ele>
        <time>2013-05-26T09:04:41.000Z</time>
      </trkpt>
      <trkpt lat="48.51235" lon="-2.59551">
        <ele>125.3</ele>
        <time>2013-05-26T09:04:42.000Z</time>
      </trkpt>
      <trkpt lat="48.51236" lon="-2.59546">
        <ele>125.3</ele>
        <time>2013-05-26T09:04:43.000Z</time>
      </trkpt>
      <trkpt lat="48.51236" lon="-2.59542">
        <ele>125.6</ele>
        <time>2013-05-26T09:04:44.000Z</time>
      </trkpt>
      <trkpt lat="48.51237" lon="-2.59538">
        <ele>125.5</ele>
        <time>2013-05-26T09:04:45.000Z</time>
      </trkpt>
      <trkpt lat="48.51237" lon="-2.59534">
        <ele>125.6</ele>
        <time>2013-05-26T09:04:46.000Z</time>
      </trkpt>
      <trkpt lat="48.51238" lon="-2.59529">
        <ele>125.8</ele>
        <time>2013-05-26T09:04:47.000Z</time>
      </trkpt>
      <trkpt lat="48.51239" lon="-2.59524">
        <ele>125.7</ele>
        <time>2013-05-26T09:04:48.000Z</time>
      </trkpt>
      <trkpt lat="48.51239" lon="-2.5952">
        <ele>125.1</ele>
        <time>2013-05-26T09:04:49.000Z</time>
      </trkpt>
      <trkpt lat="48.5124" lon="-2.59515">
        <ele>124.5</ele>
        <time>2013-05-26T09:04:50.000Z</time>
      </trkpt>
      <trkpt lat="48.5124" lon="-2.59511">
        <ele>124.2</ele>
        <time>2013-05-26T09:04:51.000Z</time>
      </trkpt>
      <trkpt lat="48.51241" lon="-2.59506">
        <ele>124.1</ele>
        <time>2013-05-26T09:04:52.000Z</time>
      </trkpt>
      <trkpt lat="48.51242" lon="-2.59502">
        <ele>124</ele>
        <time>2013-05-26T09:04:53.000Z</time>
      </trkpt>
      <trkpt lat="48.51243" lon="-2.59498">
        <ele>124.1</ele>
        <time>2013-05-26T09:04:54.000Z</time>
      </trkpt>
      <trkpt lat="48.51245" lon="-2.59493">
        <ele>124</ele>
        <time>2013-05-26T09:04:55.000Z</time>
      </trkpt>
      <trkpt lat="48.51246" lon="-2.59489">
        <ele>124</ele>
        <time>2013-05-26T09:04:56.000Z</time>
      </trkpt>
      <trkpt lat="48.51247" lon="-2.59484">
        <ele>123.9</ele>
        <time>2013-05-26T09:04:57.000Z</time>
      </trkpt>
      <trkpt lat="48.51248" lon="-2.5948">
        <ele>124</ele>
        <time>2013-05-26T09:04:58.000Z</time>
      </trkpt>
      <trkpt lat="48.5125" lon="-2.59475">
        <ele>124</ele>
        <time>2013-05-26T09:04:59.000Z</time>
      </trkpt>
      <trkpt lat="48.51251" lon="-2.59471">
        <ele>123.9</ele>
        <time>2013-05-26T09:05:00.000Z</time>
      </trkpt>
      <trkpt lat="48.51252" lon="-2.59466">
        <ele>123.9</ele>
        <time>2013-05-26T09:05:01.000Z</time>
      </trkpt>
      <trkpt lat="48.51254" lon="-2.59462">
        <ele>123.8</ele>
        <time>2013-05-26T09:05:02.000Z</time>
      </trkpt>
      <trkpt lat="48.51255" lon="-2.59458">
        <ele>123.7</ele>
        <time>2013-05-26T09:05:03.000Z</time>
      </trkpt>
      <trkpt lat="48.51257" lon="-2.59454">
        <ele>123.7</ele>
        <time>2013-05-26T09:05:04.000Z</time>
      </trkpt>
      <trkpt lat="48.51259" lon="-2.5945">
        <ele>123.7</ele>
        <time>2013-05-26T09:05:05.000Z</time>
      </trkpt>
      <trkpt lat="48.51261" lon="-2.59445">
        <ele>123.6</ele>
        <time>2013-05-26T09:05:06.000Z</time>
      </trkpt>
      <trkpt lat="48.51263" lon="-2.59441">
        <ele>123.5</ele>
        <time>2013-05-26T09:05:07.000Z</time>
      </trkpt>
      <trkpt lat="48.51265" lon="-2.59437">
        <ele>123.4</ele>
        <time>2013-05-26T09:05:08.000Z</time>
      </trkpt>
      <trkpt lat="48.51267" lon="-2.59433">
        <ele>123.4</ele>
        <time>2013-05-26T09:05:09.000Z</time>
      </trkpt>
      <trkpt lat="48.51268" lon="-2.59429">
        <ele>123.5</ele>
        <time>2013-05-26T09:05:10.000Z</time>
      </trkpt>
      <trkpt lat="48.5127" lon="-2.59425">
        <ele>123.4</ele>
        <time>2013-05-26T09:05:11.000Z</time>
      </trkpt>
      <trkpt lat="48.51272" lon="-2.59421">
        <ele>123.3</ele>
        <time>2013-05-26T09:05:12.000Z</time>
      </trkpt>
      <trkpt lat="48.51274" lon="-2.59416">
        <ele>123.1</ele>
        <time>2013-05-26T09:05:13.000Z</time>
      </trkpt>
      <trkpt lat="48.51276" lon="-2.59412">
        <ele>123</ele>
        <time>2013-05-26T09:05:14.000Z</time>
      </trkpt>
      <trkpt lat="48.51278" lon="-2.59408">
        <ele>122.9</ele>
        <time>2013-05-26T09:05:15.000Z</time>
      </trkpt>
      <trkpt lat="48.5128" lon="-2.59404">
        <ele>122.9</ele>
        <time>2013-05-26T09:05:16.000Z</time>
      </trkpt>
      <trkpt lat="48.51283" lon="-2.594">
        <ele>122.9</ele>
        <time>2013-05-26T09:05:17.000Z</time>
      </trkpt>
      <trkpt lat="48.51285" lon="-2.59396">
        <ele>122.9</ele>
        <time>2013-05-26T09:05:18.000Z</time>
      </trkpt>
      <trkpt lat="48.5129" lon="-2.59398">
        <ele>130.2</ele>
        <time>2013-05-26T09:05:20.000Z</time>
      </trkpt>
      <trkpt lat="48.5129" lon="-2.59395">
        <ele>134.6</ele>
        <time>2013-05-26T09:05:22.000Z</time>
      </trkpt>
      <trkpt lat="48.51294" lon="-2.59387">
        <ele>129.5</ele>
        <time>2013-05-26T09:05:23.000Z</time>
      </trkpt>
      <trkpt lat="48.51297" lon="-2.59382">
        <ele>130.5</ele>
        <time>2013-05-26T09:05:24.000Z</time>
      </trkpt>
      <trkpt lat="48.51299" lon="-2.59376">
        <ele>128.9</ele>
        <time>2013-05-26T09:05:25.000Z</time>
      </trkpt>
      <trkpt lat="48.51302" lon="-2.59371">
        <ele>127.9</ele>
        <time>2013-05-26T09:05:26.000Z</time>
      </trkpt>
      <trkpt lat="48.51303" lon="-2.59366">
        <ele>128.8</ele>
        <time>2013-05-26T09:05:27.000Z</time>
      </trkpt>
      <trkpt lat="48.51305" lon="-2.59363">
        <ele>130.2</ele>
        <time>2013-05-26T09:05:28.000Z</time>
      </trkpt>
      <trkpt lat="48.51308" lon="-2.59358">
        <ele>129.4</ele>
        <time>2013-05-26T09:05:29.000Z</time>
      </trkpt>
      <trkpt lat="48.5131" lon="-2.59353">
        <ele>130</ele>
        <time>2013-05-26T09:05:30.000Z</time>
      </trkpt>
      <trkpt lat="48.51313" lon="-2.59349">
        <ele>130.7</ele>
        <time>2013-05-26T09:05:31.000Z</time>
      </trkpt>
      <trkpt lat="48.51315" lon="-2.59345">
        <ele>131.2</ele>
        <time>2013-05-26T09:05:32.000Z</time>
      </trkpt>
      <trkpt lat="48.51318" lon="-2.5934">
        <ele>130.5</ele>
        <time>2013-05-26T09:05:33.000Z</time>
      </trkpt>
      <trkpt lat="48.5132" lon="-2.59335">
        <ele>130.5</ele>
        <time>2013-05-26T09:05:34.000Z</time>
      </trkpt>
      <trkpt lat="48.51323" lon="-2.5933">
        <ele>131.5</ele>
        <time>2013-05-26T09:05:35.000Z</time>
      </trkpt>
      <trkpt lat="48.51325" lon="-2.59326">
        <ele>132.2</ele>
        <time>2013-05-26T09:05:36.000Z</time>
      </trkpt>
      <trkpt lat="48.51328" lon="-2.59321">
        <ele>132.2</ele>
        <time>2013-05-26T09:05:37.000Z</time>
      </trkpt>
      <trkpt lat="48.51331" lon="-2.59316">
        <ele>132.5</ele>
        <time>2013-05-26T09:05:38.000Z</time>
      </trkpt>
      <trkpt lat="48.51333" lon="-2.59312">
        <ele>132.8</ele>
        <time>2013-05-26T09:05:39.000Z</time>
      </trkpt>
      <trkpt lat="48.51336" lon="-2.59306">
        <ele>132</ele>
        <time>2013-05-26T09:05:40.000Z</time>
      </trkpt>
      <trkpt lat="48.51338" lon="-2.593">
        <ele>131.2</ele>
        <time>2013-05-26T09:05:41.000Z</time>
      </trkpt>
      <trkpt lat="48.51341" lon="-2.59295">
        <ele>131.7</ele>
        <time>2013-05-26T09:05:42.000Z</time>
      </trkpt>
      <trkpt lat="48.51344" lon="-2.59289">
        <ele>131.7</ele>
        <time>2013-05-26T09:05:43.000Z</time>
      </trkpt>
      <trkpt lat="48.51346" lon="-2.59282">
        <ele>131.7</ele>
        <time>2013-05-26T09:05:44.000Z</time>
      </trkpt>
      <trkpt lat="48.51349" lon="-2.59275">
        <ele>131</ele>
        <time>2013-05-26T09:05:45.000Z</time>
      </trkpt>
      <trkpt lat="48.51352" lon="-2.59267">
        <ele>130.9</ele>
        <time>2013-05-26T09:05:46.000Z</time>
      </trkpt>
      <trkpt lat="48.51354" lon="-2.5926">
        <ele>130.8</ele>
        <time>2013-05-26T09:05:47.000Z</time>
      </trkpt>
      <trkpt lat="48.51357" lon="-2.59252">
        <ele>130.8</ele>
        <time>2013-05-26T09:05:48.000Z</time>
      </trkpt>
      <trkpt lat="48.51358" lon="-2.59244">
        <ele>129.8</ele>
        <time>2013-05-26T09:05:49.000Z</time>
      </trkpt>
      <trkpt lat="48.5136" lon="-2.59236">
        <ele>129</ele>
        <time>2013-05-26T09:05:50.000Z</time>
      </trkpt>
      <trkpt lat="48.51362" lon="-2.59228">
        <ele>128.5</ele>
        <time>2013-05-26T09:05:51.000Z</time>
      </trkpt>
      <trkpt lat="48.51364" lon="-2.59221">
        <ele>128.3</ele>
        <time>2013-05-26T09:05:52.000Z</time>
      </trkpt>
      <trkpt lat="48.51365" lon="-2.59213">
        <ele>127.8</ele>
        <time>2013-05-26T09:05:53.000Z</time>
      </trkpt>
      <trkpt lat="48.51367" lon="-2.59206">
        <ele>127.2</ele>
        <time>2013-05-26T09:05:54.000Z</time>
      </trkpt>
      <trkpt lat="48.51368" lon="-2.59198">
        <ele>126.9</ele>
        <time>2013-05-26T09:05:55.000Z</time>
      </trkpt>
      <trkpt lat="48.51369" lon="-2.59191">
        <ele>126.7</ele>
        <time>2013-05-26T09:05:56.000Z</time>
      </trkpt>
      <trkpt lat="48.51369" lon="-2.59183">
        <ele>126.8</ele>
        <time>2013-05-26T09:05:57.000Z</time>
      </trkpt>
      <trkpt lat="48.51371" lon="-2.59176">
        <ele>126.8</ele>
        <time>2013-05-26T09:05:58.000Z</time>
      </trkpt>
      <trkpt lat="48.51372" lon="-2.59169">
        <ele>126.8</ele>
        <time>2013-05-26T09:05:59.000Z</time>
      </trkpt>
      <trkpt lat="48.51374" lon="-2.59163">
        <ele>126.8</ele>
        <time>2013-05-26T09:06:00.000Z</time>
      </trkpt>
      <trkpt lat="48.51376" lon="-2.59156">
        <ele>126.7</ele>
        <time>2013-05-26T09:06:01.000Z</time>
      </trkpt>
      <trkpt lat="48.51379" lon="-2.59151">
        <ele>126.5</ele>
        <time>2013-05-26T09:06:02.000Z</time>
      </trkpt>
      <trkpt lat="48.51381" lon="-2.59145">
        <ele>126.4</ele>
        <time>2013-05-26T09:06:03.000Z</time>
      </trkpt>
      <trkpt lat="48.51384" lon="-2.5914">
        <ele>126.4</ele>
        <time>2013-05-26T09:06:04.000Z</time>
      </trkpt>
      <trkpt lat="48.51386" lon="-2.59134">
        <ele>126.3</ele>
        <time>2013-05-26T09:06:05.000Z</time>
      </trkpt>
      <trkpt lat="48.51389" lon="-2.59129">
        <ele>126.1</ele>
        <time>2013-05-26T09:06:06.000Z</time>
      </trkpt>
      <trkpt lat="48.51392" lon="-2.59123">
        <ele>126</ele>
        <time>2013-05-26T09:06:07.000Z</time>
      </trkpt>
      <trkpt lat="48.51395" lon="-2.59118">
        <ele>125.9</ele>
        <time>2013-05-26T09:06:08.000Z</time>
      </trkpt>
      <trkpt lat="48.51397" lon="-2.59113">
        <ele>125.9</ele>
        <time>2013-05-26T09:06:09.000Z</time>
      </trkpt>
      <trkpt lat="48.514" lon="-2.59108">
        <ele>126.1</ele>
        <time>2013-05-26T09:06:10.000Z</time>
      </trkpt>
      <trkpt lat="48.51402" lon="-2.59103">
        <ele>126.1</ele>
        <time>2013-05-26T09:06:11.000Z</time>
      </trkpt>
      <trkpt lat="48.51404" lon="-2.59099">
        <ele>126.3</ele>
        <time>2013-05-26T09:06:12.000Z</time>
      </trkpt>
      <trkpt lat="48.51406" lon="-2.59094">
        <ele>126.4</ele>
        <time>2013-05-26T09:06:13.000Z</time>
      </trkpt>
      <trkpt lat="48.51408" lon="-2.59088">
        <ele>126.5</ele>
        <time>2013-05-26T09:06:14.000Z</time>
      </trkpt>
      <trkpt lat="48.5141" lon="-2.59083">
        <ele>126.6</ele>
        <time>2013-05-26T09:06:15.000Z</time>
      </trkpt>
      <trkpt lat="48.51412" lon="-2.59078">
        <ele>126.8</ele>
        <time>2013-05-26T09:06:16.000Z</time>
      </trkpt>
      <trkpt lat="48.51413" lon="-2.59073">
        <ele>127</ele>
        <time>2013-05-26T09:06:17.000Z</time>
      </trkpt>
      <trkpt lat="48.51415" lon="-2.59068">
        <ele>127.2</ele>
        <time>2013-05-26T09:06:18.000Z</time>
      </trkpt>
      <trkpt lat="48.51413" lon="-2.59042">
        <ele>121.5</ele>
        <time>2013-05-26T09:06:22.000Z</time>
      </trkpt>
      <trkpt lat="48.51415" lon="-2.59042">
        <ele>127.4</ele>
        <time>2013-05-26T09:06:23.000Z</time>
      </trkpt>
      <trkpt lat="48.51417" lon="-2.59036">
        <ele>127.8</ele>
        <time>2013-05-26T09:06:24.000Z</time>
      </trkpt>
      <trkpt lat="48.51417" lon="-2.59029">
        <ele>128.1</ele>
        <time>2013-05-26T09:06:25.000Z</time>
      </trkpt>
      <trkpt lat="48.51418" lon="-2.59022">
        <ele>127.1</ele>
        <time>2013-05-26T09:06:26.000Z</time>
      </trkpt>
      <trkpt lat="48.51418" lon="-2.59015">
        <ele>126.9</ele>
        <time>2013-05-26T09:06:27.000Z</time>
      </trkpt>
      <trkpt lat="48.5142" lon="-2.59008">
        <ele>126.8</ele>
        <time>2013-05-26T09:06:28.000Z</time>
      </trkpt>
      <trkpt lat="48.51421" lon="-2.59001">
        <ele>126.4</ele>
        <time>2013-05-26T09:06:29.000Z</time>
      </trkpt>
      <trkpt lat="48.51422" lon="-2.58994">
        <ele>126.5</ele>
        <time>2013-05-26T09:06:30.000Z</time>
      </trkpt>
      <trkpt lat="48.51423" lon="-2.58988">
        <ele>126.4</ele>
        <time>2013-05-26T09:06:31.000Z</time>
      </trkpt>
      <trkpt lat="48.51423" lon="-2.58981">
        <ele>126.4</ele>
        <time>2013-05-26T09:06:32.000Z</time>
      </trkpt>
      <trkpt lat="48.51424" lon="-2.58975">
        <ele>126.5</ele>
        <time>2013-05-26T09:06:33.000Z</time>
      </trkpt>
      <trkpt lat="48.51425" lon="-2.58968">
        <ele>126.5</ele>
        <time>2013-05-26T09:06:34.000Z</time>
      </trkpt>
      <trkpt lat="48.51425" lon="-2.58962">
        <ele>126.5</ele>
        <time>2013-05-26T09:06:35.000Z</time>
      </trkpt>
      <trkpt lat="48.51426" lon="-2.58956">
        <ele>126.6</ele>
        <time>2013-05-26T09:06:36.000Z</time>
      </trkpt>
      <trkpt lat="48.51426" lon="-2.5895">
        <ele>126.6</ele>
        <time>2013-05-26T09:06:37.000Z</time>
      </trkpt>
      <trkpt lat="48.51427" lon="-2.58943">
        <ele>126.6</ele>
        <time>2013-05-26T09:06:38.000Z</time>
      </trkpt>
      <trkpt lat="48.51427" lon="-2.58937">
        <ele>126.7</ele>
        <time>2013-05-26T09:06:39.000Z</time>
      </trkpt>
      <trkpt lat="48.51428" lon="-2.58931">
        <ele>126.9</ele>
        <time>2013-05-26T09:06:40.000Z</time>
      </trkpt>
      <trkpt lat="48.51429" lon="-2.58925">
        <ele>126.9</ele>
        <time>2013-05-26T09:06:41.000Z</time>
      </trkpt>
      <trkpt lat="48.51429" lon="-2.58919">
        <ele>126.9</ele>
        <time>2013-05-26T09:06:42.000Z</time>
      </trkpt>
      <trkpt lat="48.5143" lon="-2.58912">
        <ele>126.8</ele>
        <time>2013-05-26T09:06:43.000Z</time>
      </trkpt>
      <trkpt lat="48.51431" lon="-2.58906">
        <ele>126.7</ele>
        <time>2013-05-26T09:06:44.000Z</time>
      </trkpt>
      <trkpt lat="48.51431" lon="-2.589">
        <ele>126.7</ele>
        <time>2013-05-26T09:06:45.000Z</time>
      </trkpt>
      <trkpt lat="48.51432" lon="-2.58894">
        <ele>126.7</ele>
        <time>2013-05-26T09:06:46.000Z</time>
      </trkpt>
      <trkpt lat="48.51433" lon="-2.58887">
        <ele>126.7</ele>
        <time>2013-05-26T09:06:47.000Z</time>
      </trkpt>
      <trkpt lat="48.51434" lon="-2.58881">
        <ele>126.8</ele>
        <time>2013-05-26T09:06:48.000Z</time>
      </trkpt>
      <trkpt lat="48.51435" lon="-2.58875">
        <ele>127</ele>
        <time>2013-05-26T09:06:49.000Z</time>
      </trkpt>
      <trkpt lat="48.51436" lon="-2.58869">
        <ele>127.1</ele>
        <time>2013-05-26T09:06:50.000Z</time>
      </trkpt>
      <trkpt lat="48.51438" lon="-2.58863">
        <ele>127.3</ele>
        <time>2013-05-26T09:06:51.000Z</time>
      </trkpt>
      <trkpt lat="48.51439" lon="-2.5886">
        <ele>127.2</ele>
        <time>2013-05-26T09:06:52.000Z</time>
      </trkpt>
      <trkpt lat="48.51441" lon="-2.58854">
        <ele>127.2</ele>
        <time>2013-05-26T09:06:53.000Z</time>
      </trkpt>
      <trkpt lat="48.51443" lon="-2.58849">
        <ele>127.2</ele>
        <time>2013-05-26T09:06:54.000Z</time>
      </trkpt>
      <trkpt lat="48.51445" lon="-2.58844">
        <ele>127.4</ele>
        <time>2013-05-26T09:06:55.000Z</time>
      </trkpt>
      <trkpt lat="48.51447" lon="-2.58839">
        <ele>127.5</ele>
        <time>2013-05-26T09:06:56.000Z</time>
      </trkpt>
      <trkpt lat="48.5145" lon="-2.58834">
        <ele>127.5</ele>
        <time>2013-05-26T09:06:57.000Z</time>
      </trkpt>
      <trkpt lat="48.51453" lon="-2.58829">
        <ele>127.5</ele>
        <time>2013-05-26T09:06:58.000Z</time>
      </trkpt>
      <trkpt lat="48.51456" lon="-2.58825">
        <ele>127.5</ele>
        <time>2013-05-26T09:06:59.000Z</time>
      </trkpt>
      <trkpt lat="48.51458" lon="-2.58821">
        <ele>127.5</ele>
        <time>2013-05-26T09:07:00.000Z</time>
      </trkpt>
      <trkpt lat="48.5146" lon="-2.58818">
        <ele>127.4</ele>
        <time>2013-05-26T09:07:01.000Z</time>
      </trkpt>
      <trkpt lat="48.51463" lon="-2.58813">
        <ele>127.3</ele>
        <time>2013-05-26T09:07:03.000Z</time>
      </trkpt>
      <trkpt lat="48.51464" lon="-2.58811">
        <ele>127.3</ele>
        <time>2013-05-26T09:07:04.000Z</time>
      </trkpt>
      <trkpt lat="48.51467" lon="-2.58808">
        <ele>127.5</ele>
        <time>2013-05-26T09:07:06.000Z</time>
      </trkpt>
      <trkpt lat="48.51468" lon="-2.58807">
        <ele>127.6</ele>
        <time>2013-05-26T09:07:07.000Z</time>
      </trkpt>
      <trkpt lat="48.5147" lon="-2.58805">
        <ele>122.2</ele>
        <time>2013-05-26T09:07:20.000Z</time>
      </trkpt>
      <trkpt lat="48.51466" lon="-2.58816">
        <ele>125.4</ele>
        <time>2013-05-26T09:07:22.000Z</time>
      </trkpt>
      <trkpt lat="48.51466" lon="-2.5881">
        <ele>124.7</ele>
        <time>2013-05-26T09:07:53.000Z</time>
      </trkpt>
      <trkpt lat="48.51466" lon="-2.58808">
        <ele>127.5</ele>
        <time>2013-05-26T09:07:54.000Z</time>
      </trkpt>
      <trkpt lat="48.5147" lon="-2.58804">
        <ele>127.9</ele>
        <time>2013-05-26T09:07:57.000Z</time>
      </trkpt>
      <trkpt lat="48.51472" lon="-2.58802">
        <ele>128</ele>
        <time>2013-05-26T09:07:58.000Z</time>
      </trkpt>
      <trkpt lat="48.51474" lon="-2.58799">
        <ele>128.1</ele>
        <time>2013-05-26T09:07:59.000Z</time>
      </trkpt>
      <trkpt lat="48.51477" lon="-2.58795">
        <ele>128.1</ele>
        <time>2013-05-26T09:08:00.000Z</time>
      </trkpt>
      <trkpt lat="48.5148" lon="-2.5879">
        <ele>128.1</ele>
        <time>2013-05-26T09:08:01.000Z</time>
      </trkpt>
      <trkpt lat="48.51484" lon="-2.58785">
        <ele>128.2</ele>
        <time>2013-05-26T09:08:02.000Z</time>
      </trkpt>
      <trkpt lat="48.51488" lon="-2.58779">
        <ele>128.2</ele>
        <time>2013-05-26T09:08:03.000Z</time>
      </trkpt>
      <trkpt lat="48.51492" lon="-2.58774">
        <ele>128.2</ele>
        <time>2013-05-26T09:08:04.000Z</time>
      </trkpt>
      <trkpt lat="48.51497" lon="-2.58768">
        <ele>128.3</ele>
        <time>2013-05-26T09:08:05.000Z</time>
      </trkpt>
      <trkpt lat="48.51502" lon="-2.58764">
        <ele>128.5</ele>
        <time>2013-05-26T09:08:06.000Z</time>
      </trkpt>
      <trkpt lat="48.51506" lon="-2.58759">
        <ele>128.6</ele>
        <time>2013-05-26T09:08:07.000Z</time>
      </trkpt>
      <trkpt lat="48.51511" lon="-2.58754">
        <ele>128.8</ele>
        <time>2013-05-26T09:08:08.000Z</time>
      </trkpt>
      <trkpt lat="48.51516" lon="-2.58749">
        <ele>128.9</ele>
        <time>2013-05-26T09:08:09.000Z</time>
      </trkpt>
      <trkpt lat="48.51521" lon="-2.58745">
        <ele>129</ele>
        <time>2013-05-26T09:08:10.000Z</time>
      </trkpt>
      <trkpt lat="48.51527" lon="-2.5874">
        <ele>129.1</ele>
        <time>2013-05-26T09:08:11.000Z</time>
      </trkpt>
      <trkpt lat="48.51532" lon="-2.58736">
        <ele>129.1</ele>
        <time>2013-05-26T09:08:12.000Z</time>
      </trkpt>
      <trkpt lat="48.51537" lon="-2.58732">
        <ele>129.1</ele>
        <time>2013-05-26T09:08:13.000Z</time>
      </trkpt>
      <trkpt lat="48.51543" lon="-2.58728">
        <ele>129.3</ele>
        <time>2013-05-26T09:08:14.000Z</time>
      </trkpt>
      <trkpt lat="48.51548" lon="-2.58724">
        <ele>129.5</ele>
        <time>2013-05-26T09:08:15.000Z</time>
      </trkpt>
      <trkpt lat="48.51554" lon="-2.5872">
        <ele>129.6</ele>
        <time>2013-05-26T09:08:16.000Z</time>
      </trkpt>
      <trkpt lat="48.51559" lon="-2.58716">
        <ele>129.8</ele>
        <time>2013-05-26T09:08:17.000Z</time>
      </trkpt>
      <trkpt lat="48.51565" lon="-2.58712">
        <ele>129.8</ele>
        <time>2013-05-26T09:08:18.000Z</time>
      </trkpt>
      <trkpt lat="48.51595" lon="-2.58688">
        <ele>143.1</ele>
        <time>2013-05-26T09:08:22.000Z</time>
      </trkpt>
      <trkpt lat="48.51603" lon="-2.58677">
        <ele>127.1</ele>
        <time>2013-05-26T09:08:24.000Z</time>
      </trkpt>
      <trkpt lat="48.51607" lon="-2.58671">
        <ele>127.7</ele>
        <time>2013-05-26T09:08:25.000Z</time>
      </trkpt>
      <trkpt lat="48.51612" lon="-2.58663">
        <ele>128.2</ele>
        <time>2013-05-26T09:08:26.000Z</time>
      </trkpt>
      <trkpt lat="48.51615" lon="-2.58656">
        <ele>131.4</ele>
        <time>2013-05-26T09:08:27.000Z</time>
      </trkpt>
      <trkpt lat="48.51621" lon="-2.58649">
        <ele>132.2</ele>
        <time>2013-05-26T09:08:28.000Z</time>
      </trkpt>
      <trkpt lat="48.51625" lon="-2.58642">
        <ele>132.7</ele>
        <time>2013-05-26T09:08:29.000Z</time>
      </trkpt>
      <trkpt lat="48.51631" lon="-2.58634">
        <ele>133.3</ele>
        <time>2013-05-26T09:08:30.000Z</time>
      </trkpt>
      <trkpt lat="48.51636" lon="-2.58626">
        <ele>133.5</ele>
        <time>2013-05-26T09:08:31.000Z</time>
      </trkpt>
      <trkpt lat="48.51641" lon="-2.58618">
        <ele>133.6</ele>
        <time>2013-05-26T09:08:32.000Z</time>
      </trkpt>
      <trkpt lat="48.51647" lon="-2.5861">
        <ele>134.2</ele>
        <time>2013-05-26T09:08:33.000Z</time>
      </trkpt>
      <trkpt lat="48.51651" lon="-2.58602">
        <ele>134.4</ele>
        <time>2013-05-26T09:08:34.000Z</time>
      </trkpt>
      <trkpt lat="48.51656" lon="-2.58594">
        <ele>134.1</ele>
        <time>2013-05-26T09:08:35.000Z</time>
      </trkpt>
      <trkpt lat="48.51662" lon="-2.58586">
        <ele>133.7</ele>
        <time>2013-05-26T09:08:36.000Z</time>
      </trkpt>
      <trkpt lat="48.51667" lon="-2.58579">
        <ele>132.6</ele>
        <time>2013-05-26T09:08:37.000Z</time>
      </trkpt>
      <trkpt lat="48.51672" lon="-2.58572">
        <ele>132.4</ele>
        <time>2013-05-26T09:08:38.000Z</time>
      </trkpt>
      <trkpt lat="48.51678" lon="-2.58564">
        <ele>132.1</ele>
        <time>2013-05-26T09:08:39.000Z</time>
      </trkpt>
      <trkpt lat="48.51683" lon="-2.58557">
        <ele>132</ele>
        <time>2013-05-26T09:08:40.000Z</time>
      </trkpt>
      <trkpt lat="48.51688" lon="-2.58551">
        <ele>132.2</ele>
        <time>2013-05-26T09:08:41.000Z</time>
      </trkpt>
      <trkpt lat="48.51693" lon="-2.58544">
        <ele>132.5</ele>
        <time>2013-05-26T09:08:42.000Z</time>
      </trkpt>
      <trkpt lat="48.51699" lon="-2.58539">
        <ele>132.4</ele>
        <time>2013-05-26T09:08:43.000Z</time>
      </trkpt>
      <trkpt lat="48.51704" lon="-2.58533">
        <ele>132.3</ele>
        <time>2013-05-26T09:08:44.000Z</time>
      </trkpt>
      <trkpt lat="48.5171" lon="-2.58528">
        <ele>131.9</ele>
        <time>2013-05-26T09:08:45.000Z</time>
      </trkpt>
      <trkpt lat="48.51716" lon="-2.58522">
        <ele>131.5</ele>
        <time>2013-05-26T09:08:46.000Z</time>
      </trkpt>
      <trkpt lat="48.51722" lon="-2.58516">
        <ele>130.7</ele>
        <time>2013-05-26T09:08:47.000Z</time>
      </trkpt>
      <trkpt lat="48.51728" lon="-2.5851">
        <ele>130.4</ele>
        <time>2013-05-26T09:08:48.000Z</time>
      </trkpt>
      <trkpt lat="48.51733" lon="-2.58504">
        <ele>129.9</ele>
        <time>2013-05-26T09:08:49.000Z</time>
      </trkpt>
      <trkpt lat="48.51739" lon="-2.58498">
        <ele>129.7</ele>
        <time>2013-05-26T09:08:50.000Z</time>
      </trkpt>
      <trkpt lat="48.51744" lon="-2.58491">
        <ele>129.9</ele>
        <time>2013-05-26T09:08:51.000Z</time>
      </trkpt>
      <trkpt lat="48.5175" lon="-2.58485">
        <ele>129.9</ele>
        <time>2013-05-26T09:08:52.000Z</time>
      </trkpt>
      <trkpt lat="48.51755" lon="-2.58478">
        <ele>130</ele>
        <time>2013-05-26T09:08:53.000Z</time>
      </trkpt>
      <trkpt lat="48.5176" lon="-2.58471">
        <ele>130.2</ele>
        <time>2013-05-26T09:08:54.000Z</time>
      </trkpt>
      <trkpt lat="48.51765" lon="-2.58464">
        <ele>130.3</ele>
        <time>2013-05-26T09:08:55.000Z</time>
      </trkpt>
      <trkpt lat="48.51771" lon="-2.58457">
        <ele>130.3</ele>
        <time>2013-05-26T09:08:56.000Z</time>
      </trkpt>
      <trkpt lat="48.51776" lon="-2.5845">
        <ele>130.3</ele>
        <time>2013-05-26T09:08:57.000Z</time>
      </trkpt>
      <trkpt lat="48.51781" lon="-2.58442">
        <ele>130.2</ele>
        <time>2013-05-26T09:08:58.000Z</time>
      </trkpt>
      <trkpt lat="48.51786" lon="-2.58435">
        <ele>130</ele>
        <time>2013-05-26T09:08:59.000Z</time>
      </trkpt>
      <trkpt lat="48.51792" lon="-2.58428">
        <ele>130</ele>
        <time>2013-05-26T09:09:00.000Z</time>
      </trkpt>
      <trkpt lat="48.51798" lon="-2.58423">
        <ele>130.1</ele>
        <time>2013-05-26T09:09:01.000Z</time>
      </trkpt>
      <trkpt lat="48.51804" lon="-2.58418">
        <ele>130.5</ele>
        <time>2013-05-26T09:09:02.000Z</time>
      </trkpt>
      <trkpt lat="48.5181" lon="-2.58414">
        <ele>130.7</ele>
        <time>2013-05-26T09:09:03.000Z</time>
      </trkpt>
      <trkpt lat="48.51816" lon="-2.58409">
        <ele>130.8</ele>
        <time>2013-05-26T09:09:04.000Z</time>
      </trkpt>
      <trkpt lat="48.51822" lon="-2.58405">
        <ele>130.5</ele>
        <time>2013-05-26T09:09:05.000Z</time>
      </trkpt>
      <trkpt lat="48.51828" lon="-2.584">
        <ele>130.2</ele>
        <time>2013-05-26T09:09:06.000Z</time>
      </trkpt>
      <trkpt lat="48.51834" lon="-2.58395">
        <ele>130.1</ele>
        <time>2013-05-26T09:09:07.000Z</time>
      </trkpt>
      <trkpt lat="48.51839" lon="-2.5839">
        <ele>129.9</ele>
        <time>2013-05-26T09:09:08.000Z</time>
      </trkpt>
      <trkpt lat="48.51844" lon="-2.58384">
        <ele>129.8</ele>
        <time>2013-05-26T09:09:09.000Z</time>
      </trkpt>
      <trkpt lat="48.51849" lon="-2.58378">
        <ele>129.7</ele>
        <time>2013-05-26T09:09:10.000Z</time>
      </trkpt>
      <trkpt lat="48.51854" lon="-2.58372">
        <ele>129.7</ele>
        <time>2013-05-26T09:09:11.000Z</time>
      </trkpt>
      <trkpt lat="48.51859" lon="-2.58367">
        <ele>129.5</ele>
        <time>2013-05-26T09:09:12.000Z</time>
      </trkpt>
      <trkpt lat="48.51864" lon="-2.58361">
        <ele>129.3</ele>
        <time>2013-05-26T09:09:13.000Z</time>
      </trkpt>
      <trkpt lat="48.5187" lon="-2.58355">
        <ele>129.2</ele>
        <time>2013-05-26T09:09:14.000Z</time>
      </trkpt>
      <trkpt lat="48.51875" lon="-2.58349">
        <ele>128.9</ele>
        <time>2013-05-26T09:09:15.000Z</time>
      </trkpt>
      <trkpt lat="48.51881" lon="-2.58344">
        <ele>128.6</ele>
        <time>2013-05-26T09:09:16.000Z</time>
      </trkpt>
      <trkpt lat="48.51886" lon="-2.58339">
        <ele>128.5</ele>
        <time>2013-05-26T09:09:17.000Z</time>
      </trkpt>
      <trkpt lat="48.51892" lon="-2.58333">
        <ele>128.3</ele>
        <time>2013-05-26T09:09:18.000Z</time>
      </trkpt>
      <trkpt lat="48.51916" lon="-2.58306">
        <ele>126.5</ele>
        <time>2013-05-26T09:09:21.000Z</time>
      </trkpt>
      <trkpt lat="48.51917" lon="-2.58308">
        <ele>127.2</ele>
        <time>2013-05-26T09:09:23.000Z</time>
      </trkpt>
      <trkpt lat="48.51923" lon="-2.583">
        <ele>126.6</ele>
        <time>2013-05-26T09:09:24.000Z</time>
      </trkpt>
      <trkpt lat="48.51926" lon="-2.58294">
        <ele>126.1</ele>
        <time>2013-05-26T09:09:25.000Z</time>
      </trkpt>
      <trkpt lat="48.5193" lon="-2.58285">
        <ele>125.9</ele>
        <time>2013-05-26T09:09:26.000Z</time>
      </trkpt>
      <trkpt lat="48.51933" lon="-2.58277">
        <ele>126.9</ele>
        <time>2013-05-26T09:09:27.000Z</time>
      </trkpt>
      <trkpt lat="48.51934" lon="-2.58267">
        <ele>126.9</ele>
        <time>2013-05-26T09:09:28.000Z</time>
      </trkpt>
      <trkpt lat="48.51937" lon="-2.58257">
        <ele>127.1</ele>
        <time>2013-05-26T09:09:29.000Z</time>
      </trkpt>
      <trkpt lat="48.51939" lon="-2.58247">
        <ele>126.7</ele>
        <time>2013-05-26T09:09:30.000Z</time>
      </trkpt>
      <trkpt lat="48.51942" lon="-2.58239">
        <ele>126.9</ele>
        <time>2013-05-26T09:09:31.000Z</time>
      </trkpt>
      <trkpt lat="48.51946" lon="-2.58231">
        <ele>127.2</ele>
        <time>2013-05-26T09:09:32.000Z</time>
      </trkpt>
      <trkpt lat="48.51951" lon="-2.58225">
        <ele>127.1</ele>
        <time>2013-05-26T09:09:33.000Z</time>
      </trkpt>
      <trkpt lat="48.51957" lon="-2.5822">
        <ele>127.2</ele>
        <time>2013-05-26T09:09:34.000Z</time>
      </trkpt>
      <trkpt lat="48.51963" lon="-2.58217">
        <ele>127.8</ele>
        <time>2013-05-26T09:09:35.000Z</time>
      </trkpt>
      <trkpt lat="48.51969" lon="-2.58214">
        <ele>127.9</ele>
        <time>2013-05-26T09:09:36.000Z</time>
      </trkpt>
      <trkpt lat="48.51975" lon="-2.58211">
        <ele>128.2</ele>
        <time>2013-05-26T09:09:37.000Z</time>
      </trkpt>
      <trkpt lat="48.51981" lon="-2.58209">
        <ele>127.9</ele>
        <time>2013-05-26T09:09:38.000Z</time>
      </trkpt>
      <trkpt lat="48.51987" lon="-2.58207">
        <ele>127.5</ele>
        <time>2013-05-26T09:09:39.000Z</time>
      </trkpt>
      <trkpt lat="48.51993" lon="-2.58205">
        <ele>127.5</ele>
        <time>2013-05-26T09:09:40.000Z</time>
      </trkpt>
      <trkpt lat="48.51998" lon="-2.58203">
        <ele>127.1</ele>
        <time>2013-05-26T09:09:41.000Z</time>
      </trkpt>
      <trkpt lat="48.52004" lon="-2.58201">
        <ele>127.1</ele>
        <time>2013-05-26T09:09:42.000Z</time>
      </trkpt>
      <trkpt lat="48.52009" lon="-2.58198">
        <ele>126.9</ele>
        <time>2013-05-26T09:09:43.000Z</time>
      </trkpt>
      <trkpt lat="48.52014" lon="-2.58195">
        <ele>126.9</ele>
        <time>2013-05-26T09:09:44.000Z</time>
      </trkpt>
      <trkpt lat="48.52018" lon="-2.5819">
        <ele>126.9</ele>
        <time>2013-05-26T09:09:45.000Z</time>
      </trkpt>
      <trkpt lat="48.52022" lon="-2.58184">
        <ele>126.6</ele>
        <time>2013-05-26T09:09:46.000Z</time>
      </trkpt>
      <trkpt lat="48.52023" lon="-2.58177">
        <ele>126.7</ele>
        <time>2013-05-26T09:09:47.000Z</time>
      </trkpt>
      <trkpt lat="48.52023" lon="-2.58169">
        <ele>127.3</ele>
        <time>2013-05-26T09:09:48.000Z</time>
      </trkpt>
      <trkpt lat="48.52021" lon="-2.58161">
        <ele>127.5</ele>
        <time>2013-05-26T09:09:49.000Z</time>
      </trkpt>
      <trkpt lat="48.5202" lon="-2.58152">
        <ele>127.4</ele>
        <time>2013-05-26T09:09:50.000Z</time>
      </trkpt>
      <trkpt lat="48.52018" lon="-2.58144">
        <ele>127.4</ele>
        <time>2013-05-26T09:09:51.000Z</time>
      </trkpt>
      <trkpt lat="48.52016" lon="-2.58135">
        <ele>127.4</ele>
        <time>2013-05-26T09:09:52.000Z</time>
      </trkpt>
      <trkpt lat="48.52014" lon="-2.58127">
        <ele>127.2</ele>
        <time>2013-05-26T09:09:53.000Z</time>
      </trkpt>
      <trkpt lat="48.52012" lon="-2.58118">
        <ele>127.4</ele>
        <time>2013-05-26T09:09:54.000Z</time>
      </trkpt>
      <trkpt lat="48.5201" lon="-2.58109">
        <ele>127.5</ele>
        <time>2013-05-26T09:09:55.000Z</time>
      </trkpt>
      <trkpt lat="48.52009" lon="-2.581">
        <ele>127.4</ele>
        <time>2013-05-26T09:09:56.000Z</time>
      </trkpt>
      <trkpt lat="48.52007" lon="-2.5809">
        <ele>127</ele>
        <time>2013-05-26T09:09:57.000Z</time>
      </trkpt>
      <trkpt lat="48.52006" lon="-2.5808">
        <ele>126.4</ele>
        <time>2013-05-26T09:09:58.000Z</time>
      </trkpt>
      <trkpt lat="48.52004" lon="-2.5807">
        <ele>125.8</ele>
        <time>2013-05-26T09:09:59.000Z</time>
      </trkpt>
      <trkpt lat="48.52003" lon="-2.58061">
        <ele>125.4</ele>
        <time>2013-05-26T09:10:00.000Z</time>
      </trkpt>
      <trkpt lat="48.52001" lon="-2.58051">
        <ele>125.2</ele>
        <time>2013-05-26T09:10:01.000Z</time>
      </trkpt>
      <trkpt lat="48.52001" lon="-2.58042">
        <ele>125.2</ele>
        <time>2013-05-26T09:10:02.000Z</time>
      </trkpt>
      <trkpt lat="48.52" lon="-2.58032">
        <ele>125</ele>
        <time>2013-05-26T09:10:03.000Z</time>
      </trkpt>
      <trkpt lat="48.51999" lon="-2.58022">
        <ele>124.8</ele>
        <time>2013-05-26T09:10:04.000Z</time>
      </trkpt>
      <trkpt lat="48.51999" lon="-2.58012">
        <ele>124.5</ele>
        <time>2013-05-26T09:10:05.000Z</time>
      </trkpt>
      <trkpt lat="48.51998" lon="-2.58002">
        <ele>124.3</ele>
        <time>2013-05-26T09:10:06.000Z</time>
      </trkpt>
      <trkpt lat="48.51998" lon="-2.57991">
        <ele>124.2</ele>
        <time>2013-05-26T09:10:07.000Z</time>
      </trkpt>
      <trkpt lat="48.51997" lon="-2.5798">
        <ele>124</ele>
        <time>2013-05-26T09:10:08.000Z</time>
      </trkpt>
      <trkpt lat="48.51997" lon="-2.5797">
        <ele>123.8</ele>
        <time>2013-05-26T09:10:09.000Z</time>
      </trkpt>
      <trkpt lat="48.51996" lon="-2.57959">
        <ele>123.7</ele>
        <time>2013-05-26T09:10:10.000Z</time>
      </trkpt>
      <trkpt lat="48.51996" lon="-2.57948">
        <ele>123.5</ele>
        <time>2013-05-26T09:10:11.000Z</time>
      </trkpt>
      <trkpt lat="48.51995" lon="-2.57937">
        <ele>123.2</ele>
        <time>2013-05-26T09:10:12.000Z</time>
      </trkpt>
      <trkpt lat="48.51994" lon="-2.57925">
        <ele>122.8</ele>
        <time>2013-05-26T09:10:13.000Z</time>
      </trkpt>
      <trkpt lat="48.51994" lon="-2.57914">
        <ele>122.5</ele>
        <time>2013-05-26T09:10:14.000Z</time>
      </trkpt>
      <trkpt lat="48.51993" lon="-2.57903">
        <ele>122.3</ele>
        <time>2013-05-26T09:10:15.000Z</time>
      </trkpt>
      <trkpt lat="48.51992" lon="-2.57891">
        <ele>122.2</ele>
        <time>2013-05-26T09:10:16.000Z</time>
      </trkpt>
      <trkpt lat="48.51992" lon="-2.5788">
        <ele>122.1</ele>
        <time>2013-05-26T09:10:17.000Z</time>
      </trkpt>
      <trkpt lat="48.51991" lon="-2.57869">
        <ele>122</ele>
        <time>2013-05-26T09:10:18.000Z</time>
      </trkpt>
      <trkpt lat="48.51984" lon="-2.57809">
        <ele>110.2</ele>
        <time>2013-05-26T09:10:23.000Z</time>
      </trkpt>
      <trkpt lat="48.51984" lon="-2.57798">
        <ele>107.3</ele>
        <time>2013-05-26T09:10:24.000Z</time>
      </trkpt>
      <trkpt lat="48.51985" lon="-2.57788">
        <ele>107.8</ele>
        <time>2013-05-26T09:10:25.000Z</time>
      </trkpt>
      <trkpt lat="48.51985" lon="-2.57777">
        <ele>105.5</ele>
        <time>2013-05-26T09:10:26.000Z</time>
      </trkpt>
      <trkpt lat="48.51987" lon="-2.57768">
        <ele>107.4</ele>
        <time>2013-05-26T09:10:27.000Z</time>
      </trkpt>
      <trkpt lat="48.51989" lon="-2.57759">
        <ele>109.8</ele>
        <time>2013-05-26T09:10:28.000Z</time>
      </trkpt>
      <trkpt lat="48.51989" lon="-2.5775">
        <ele>111.7</ele>
        <time>2013-05-26T09:10:29.000Z</time>
      </trkpt>
      <trkpt lat="48.51988" lon="-2.57742">
        <ele>112.6</ele>
        <time>2013-05-26T09:10:30.000Z</time>
      </trkpt>
      <trkpt lat="48.51988" lon="-2.57733">
        <ele>113</ele>
        <time>2013-05-26T09:10:31.000Z</time>
      </trkpt>
      <trkpt lat="48.51987" lon="-2.57725">
        <ele>113</ele>
        <time>2013-05-26T09:10:32.000Z</time>
      </trkpt>
      <trkpt lat="48.51986" lon="-2.57716">
        <ele>113.4</ele>
        <time>2013-05-26T09:10:33.000Z</time>
      </trkpt>
      <trkpt lat="48.51986" lon="-2.57708">
        <ele>113.8</ele>
        <time>2013-05-26T09:10:34.000Z</time>
      </trkpt>
      <trkpt lat="48.51986" lon="-2.577">
        <ele>114.4</ele>
        <time>2013-05-26T09:10:35.000Z</time>
      </trkpt>
      <trkpt lat="48.51986" lon="-2.57693">
        <ele>114.6</ele>
        <time>2013-05-26T09:10:36.000Z</time>
      </trkpt>
      <trkpt lat="48.51987" lon="-2.57686">
        <ele>115.6</ele>
        <time>2013-05-26T09:10:37.000Z</time>
      </trkpt>
      <trkpt lat="48.51986" lon="-2.57679">
        <ele>115.6</ele>
        <time>2013-05-26T09:10:38.000Z</time>
      </trkpt>
      <trkpt lat="48.51986" lon="-2.57673">
        <ele>115.9</ele>
        <time>2013-05-26T09:10:39.000Z</time>
      </trkpt>
      <trkpt lat="48.51987" lon="-2.57667">
        <ele>116.8</ele>
        <time>2013-05-26T09:10:40.000Z</time>
      </trkpt>
      <trkpt lat="48.51987" lon="-2.57661">
        <ele>118.1</ele>
        <time>2013-05-26T09:10:41.000Z</time>
      </trkpt>
      <trkpt lat="48.51988" lon="-2.57655">
        <ele>119.4</ele>
        <time>2013-05-26T09:10:42.000Z</time>
      </trkpt>
      <trkpt lat="48.51988" lon="-2.57649">
        <ele>120.3</ele>
        <time>2013-05-26T09:10:43.000Z</time>
      </trkpt>
      <trkpt lat="48.51988" lon="-2.57644">
        <ele>121.3</ele>
        <time>2013-05-26T09:10:44.000Z</time>
      </trkpt>
      <trkpt lat="48.51989" lon="-2.57638">
        <ele>122</ele>
        <time>2013-05-26T09:10:45.000Z</time>
      </trkpt>
      <trkpt lat="48.5199" lon="-2.57633">
        <ele>122.4</ele>
        <time>2013-05-26T09:10:46.000Z</time>
      </trkpt>
      <trkpt lat="48.5199" lon="-2.57627">
        <ele>123</ele>
        <time>2013-05-26T09:10:47.000Z</time>
      </trkpt>
      <trkpt lat="48.51991" lon="-2.57622">
        <ele>123.5</ele>
        <time>2013-05-26T09:10:48.000Z</time>
      </trkpt>
      <trkpt lat="48.51992" lon="-2.57617">
        <ele>124.3</ele>
        <time>2013-05-26T09:10:49.000Z</time>
      </trkpt>
      <trkpt lat="48.51993" lon="-2.57611">
        <ele>123.8</ele>
        <time>2013-05-26T09:10:50.000Z</time>
      </trkpt>
      <trkpt lat="48.51993" lon="-2.57605">
        <ele>123.3</ele>
        <time>2013-05-26T09:10:51.000Z</time>
      </trkpt>
      <trkpt lat="48.51993" lon="-2.57599">
        <ele>123.1</ele>
        <time>2013-05-26T09:10:52.000Z</time>
      </trkpt>
      <trkpt lat="48.51993" lon="-2.57593">
        <ele>123</ele>
        <time>2013-05-26T09:10:53.000Z</time>
      </trkpt>
      <trkpt lat="48.51993" lon="-2.57588">
        <ele>123.1</ele>
        <time>2013-05-26T09:10:54.000Z</time>
      </trkpt>
      <trkpt lat="48.51993" lon="-2.57582">
        <ele>123.3</ele>
        <time>2013-05-26T09:10:55.000Z</time>
      </trkpt>
      <trkpt lat="48.51993" lon="-2.57576">
        <ele>123.4</ele>
        <time>2013-05-26T09:10:56.000Z</time>
      </trkpt>
      <trkpt lat="48.51993" lon="-2.57571">
        <ele>123.2</ele>
        <time>2013-05-26T09:10:57.000Z</time>
      </trkpt>
      <trkpt lat="48.51992" lon="-2.57565">
        <ele>123.1</ele>
        <time>2013-05-26T09:10:58.000Z</time>
      </trkpt>
      <trkpt lat="48.51992" lon="-2.57559">
        <ele>123</ele>
        <time>2013-05-26T09:10:59.000Z</time>
      </trkpt>
      <trkpt lat="48.51992" lon="-2.57554">
        <ele>123</ele>
        <time>2013-05-26T09:11:00.000Z</time>
      </trkpt>
      <trkpt lat="48.51991" lon="-2.57548">
        <ele>123.1</ele>
        <time>2013-05-26T09:11:01.000Z</time>
      </trkpt>
      <trkpt lat="48.51991" lon="-2.57542">
        <ele>123.1</ele>
        <time>2013-05-26T09:11:02.000Z</time>
      </trkpt>
      <trkpt lat="48.51991" lon="-2.57537">
        <ele>123.3</ele>
        <time>2013-05-26T09:11:03.000Z</time>
      </trkpt>
      <trkpt lat="48.51991" lon="-2.57531">
        <ele>123.7</ele>
        <time>2013-05-26T09:11:04.000Z</time>
      </trkpt>
      <trkpt lat="48.5199" lon="-2.57525">
        <ele>123.8</ele>
        <time>2013-05-26T09:11:05.000Z</time>
      </trkpt>
      <trkpt lat="48.5199" lon="-2.5752">
        <ele>124.1</ele>
        <time>2013-05-26T09:11:06.000Z</time>
      </trkpt>
      <trkpt lat="48.51989" lon="-2.57514">
        <ele>124.3</ele>
        <time>2013-05-26T09:11:07.000Z</time>
      </trkpt>
      <trkpt lat="48.51988" lon="-2.57508">
        <ele>124.4</ele>
        <time>2013-05-26T09:11:08.000Z</time>
      </trkpt>
      <trkpt lat="48.51988" lon="-2.57503">
        <ele>124.5</ele>
        <time>2013-05-26T09:11:09.000Z</time>
      </trkpt>
      <trkpt lat="48.51987" lon="-2.57497">
        <ele>124.6</ele>
        <time>2013-05-26T09:11:10.000Z</time>
      </trkpt>
      <trkpt lat="48.51987" lon="-2.57492">
        <ele>124.9</ele>
        <time>2013-05-26T09:11:11.000Z</time>
      </trkpt>
      <trkpt lat="48.51986" lon="-2.57486">
        <ele>124.9</ele>
        <time>2013-05-26T09:11:12.000Z</time>
      </trkpt>
      <trkpt lat="48.51985" lon="-2.5748">
        <ele>125</ele>
        <time>2013-05-26T09:11:13.000Z</time>
      </trkpt>
      <trkpt lat="48.51984" lon="-2.57475">
        <ele>125.1</ele>
        <time>2013-05-26T09:11:14.000Z</time>
      </trkpt>
      <trkpt lat="48.51984" lon="-2.57469">
        <ele>125.3</ele>
        <time>2013-05-26T09:11:15.000Z</time>
      </trkpt>
      <trkpt lat="48.51983" lon="-2.57463">
        <ele>125.1</ele>
        <time>2013-05-26T09:11:16.000Z</time>
      </trkpt>
      <trkpt lat="48.51982" lon="-2.57457">
        <ele>125</ele>
        <time>2013-05-26T09:11:17.000Z</time>
      </trkpt>
      <trkpt lat="48.51982" lon="-2.57452">
        <ele>125</ele>
        <time>2013-05-26T09:11:18.000Z</time>
      </trkpt>
      <trkpt lat="48.51984" lon="-2.57446">
        <ele>123.8</ele>
        <time>2013-05-26T09:11:20.000Z</time>
      </trkpt>
      <trkpt lat="48.51985" lon="-2.57438">
        <ele>127.5</ele>
        <time>2013-05-26T09:11:21.000Z</time>
      </trkpt>
      <trkpt lat="48.51982" lon="-2.57426">
        <ele>126.3</ele>
        <time>2013-05-26T09:11:23.000Z</time>
      </trkpt>
      <trkpt lat="48.51982" lon="-2.5742">
        <ele>126.6</ele>
        <time>2013-05-26T09:11:24.000Z</time>
      </trkpt>
      <trkpt lat="48.51981" lon="-2.57415">
        <ele>126.8</ele>
        <time>2013-05-26T09:11:25.000Z</time>
      </trkpt>
      <trkpt lat="48.5198" lon="-2.57408">
        <ele>127.6</ele>
        <time>2013-05-26T09:11:26.000Z</time>
      </trkpt>
      <trkpt lat="48.5198" lon="-2.57402">
        <ele>128.8</ele>
        <time>2013-05-26T09:11:27.000Z</time>
      </trkpt>
      <trkpt lat="48.5198" lon="-2.57396">
        <ele>128</ele>
        <time>2013-05-26T09:11:28.000Z</time>
      </trkpt>
      <trkpt lat="48.51978" lon="-2.57389">
        <ele>128.6</ele>
        <time>2013-05-26T09:11:29.000Z</time>
      </trkpt>
      <trkpt lat="48.51978" lon="-2.57384">
        <ele>128.3</ele>
        <time>2013-05-26T09:11:30.000Z</time>
      </trkpt>
      <trkpt lat="48.51978" lon="-2.57377">
        <ele>129.3</ele>
        <time>2013-05-26T09:11:31.000Z</time>
      </trkpt>
      <trkpt lat="48.51977" lon="-2.57371">
        <ele>128.9</ele>
        <time>2013-05-26T09:11:32.000Z</time>
      </trkpt>
      <trkpt lat="48.51977" lon="-2.57366">
        <ele>128.9</ele>
        <time>2013-05-26T09:11:33.000Z</time>
      </trkpt>
      <trkpt lat="48.51976" lon="-2.57361">
        <ele>128.2</ele>
        <time>2013-05-26T09:11:34.000Z</time>
      </trkpt>
      <trkpt lat="48.51976" lon="-2.57356">
        <ele>127.2</ele>
        <time>2013-05-26T09:11:35.000Z</time>
      </trkpt>
      <trkpt lat="48.51976" lon="-2.57352">
        <ele>127.1</ele>
        <time>2013-05-26T09:11:36.000Z</time>
      </trkpt>
      <trkpt lat="48.51976" lon="-2.57347">
        <ele>126.9</ele>
        <time>2013-05-26T09:11:37.000Z</time>
      </trkpt>
      <trkpt lat="48.51976" lon="-2.57342">
        <ele>126.6</ele>
        <time>2013-05-26T09:11:38.000Z</time>
      </trkpt>
      <trkpt lat="48.51976" lon="-2.57337">
        <ele>126.6</ele>
        <time>2013-05-26T09:11:39.000Z</time>
      </trkpt>
      <trkpt lat="48.51976" lon="-2.57331">
        <ele>126.9</ele>
        <time>2013-05-26T09:11:40.000Z</time>
      </trkpt>
      <trkpt lat="48.51975" lon="-2.57326">
        <ele>127.1</ele>
        <time>2013-05-26T09:11:41.000Z</time>
      </trkpt>
      <trkpt lat="48.51975" lon="-2.5732">
        <ele>127.3</ele>
        <time>2013-05-26T09:11:42.000Z</time>
      </trkpt>
      <trkpt lat="48.51975" lon="-2.57314">
        <ele>127.7</ele>
        <time>2013-05-26T09:11:43.000Z</time>
      </trkpt>
      <trkpt lat="48.51975" lon="-2.57309">
        <ele>128.1</ele>
        <time>2013-05-26T09:11:44.000Z</time>
      </trkpt>
      <trkpt lat="48.51974" lon="-2.57303">
        <ele>128.4</ele>
        <time>2013-05-26T09:11:45.000Z</time>
      </trkpt>
      <trkpt lat="48.51974" lon="-2.57297">
        <ele>128.5</ele>
        <time>2013-05-26T09:11:46.000Z</time>
      </trkpt>
      <trkpt lat="48.51974" lon="-2.57291">
        <ele>129.2</ele>
        <time>2013-05-26T09:11:47.000Z</time>
      </trkpt>
      <trkpt lat="48.51974" lon="-2.57285">
        <ele>129.7</ele>
        <time>2013-05-26T09:11:48.000Z</time>
      </trkpt>
      <trkpt lat="48.51973" lon="-2.57279">
        <ele>129.7</ele>
        <time>2013-05-26T09:11:49.000Z</time>
      </trkpt>
      <trkpt lat="48.51973" lon="-2.57273">
        <ele>129.2</ele>
        <time>2013-05-26T09:11:50.000Z</time>
      </trkpt>
      <trkpt lat="48.51973" lon="-2.57267">
        <ele>129.4</ele>
        <time>2013-05-26T09:11:51.000Z</time>
      </trkpt>
      <trkpt lat="48.51972" lon="-2.57261">
        <ele>129.3</ele>
        <time>2013-05-26T09:11:52.000Z</time>
      </trkpt>
      <trkpt lat="48.51972" lon="-2.57255">
        <ele>129.5</ele>
        <time>2013-05-26T09:11:53.000Z</time>
      </trkpt>
      <trkpt lat="48.51971" lon="-2.57249">
        <ele>129.5</ele>
        <time>2013-05-26T09:11:54.000Z</time>
      </trkpt>
      <trkpt lat="48.51971" lon="-2.57243">
        <ele>129.5</ele>
        <time>2013-05-26T09:11:55.000Z</time>
      </trkpt>
      <trkpt lat="48.51971" lon="-2.57236">
        <ele>129.5</ele>
        <time>2013-05-26T09:11:56.000Z</time>
      </trkpt>
      <trkpt lat="48.51971" lon="-2.5723">
        <ele>129.5</ele>
        <time>2013-05-26T09:11:57.000Z</time>
      </trkpt>
      <trkpt lat="48.51972" lon="-2.57224">
        <ele>129.7</ele>
        <time>2013-05-26T09:11:58.000Z</time>
      </trkpt>
      <trkpt lat="48.51973" lon="-2.57219">
        <ele>129.8</ele>
        <time>2013-05-26T09:11:59.000Z</time>
      </trkpt>
      <trkpt lat="48.51975" lon="-2.57214">
        <ele>129.7</ele>
        <time>2013-05-26T09:12:00.000Z</time>
      </trkpt>
      <trkpt lat="48.51978" lon="-2.57209">
        <ele>129.7</ele>
        <time>2013-05-26T09:12:01.000Z</time>
      </trkpt>
      <trkpt lat="48.5198" lon="-2.57204">
        <ele>129.6</ele>
        <time>2013-05-26T09:12:02.000Z</time>
      </trkpt>
      <trkpt lat="48.51983" lon="-2.57201">
        <ele>129.7</ele>
        <time>2013-05-26T09:12:03.000Z</time>
      </trkpt>
      <trkpt lat="48.51986" lon="-2.57197">
        <ele>129.6</ele>
        <time>2013-05-26T09:12:04.000Z</time>
      </trkpt>
      <trkpt lat="48.5199" lon="-2.57194">
        <ele>129.8</ele>
        <time>2013-05-26T09:12:05.000Z</time>
      </trkpt>
      <trkpt lat="48.51993" lon="-2.5719">
        <ele>130</ele>
        <time>2013-05-26T09:12:06.000Z</time>
      </trkpt>
      <trkpt lat="48.51996" lon="-2.57187">
        <ele>130</ele>
        <time>2013-05-26T09:12:07.000Z</time>
      </trkpt>
      <trkpt lat="48.51999" lon="-2.57183">
        <ele>130</ele>
        <time>2013-05-26T09:12:08.000Z</time>
      </trkpt>
      <trkpt lat="48.52001" lon="-2.57178">
        <ele>130.1</ele>
        <time>2013-05-26T09:12:09.000Z</time>
      </trkpt>
      <trkpt lat="48.52003" lon="-2.57174">
        <ele>130.1</ele>
        <time>2013-05-26T09:12:10.000Z</time>
      </trkpt>
      <trkpt lat="48.52005" lon="-2.57168">
        <ele>130</ele>
        <time>2013-05-26T09:12:11.000Z</time>
      </trkpt>
      <trkpt lat="48.52006" lon="-2.57163">
        <ele>130.2</ele>
        <time>2013-05-26T09:12:12.000Z</time>
      </trkpt>
      <trkpt lat="48.52008" lon="-2.57157">
        <ele>130.3</ele>
        <time>2013-05-26T09:12:13.000Z</time>
      </trkpt>
      <trkpt lat="48.52009" lon="-2.57152">
        <ele>130.4</ele>
        <time>2013-05-26T09:12:14.000Z</time>
      </trkpt>
      <trkpt lat="48.5201" lon="-2.57146">
        <ele>130.5</ele>
        <time>2013-05-26T09:12:15.000Z</time>
      </trkpt>
      <trkpt lat="48.52011" lon="-2.57141">
        <ele>130.6</ele>
        <time>2013-05-26T09:12:16.000Z</time>
      </trkpt>
      <trkpt lat="48.52013" lon="-2.57136">
        <ele>130.7</ele>
        <time>2013-05-26T09:12:17.000Z</time>
      </trkpt>
      <trkpt lat="48.52014" lon="-2.57131">
        <ele>130.8</ele>
        <time>2013-05-26T09:12:18.000Z</time>
      </trkpt>
      <trkpt lat="48.52013" lon="-2.57115">
        <ele>129.6</ele>
        <time>2013-05-26T09:12:22.000Z</time>
      </trkpt>
      <trkpt lat="48.52016" lon="-2.57102">
        <ele>126.3</ele>
        <time>2013-05-26T09:12:24.000Z</time>
      </trkpt>
      <trkpt lat="48.52016" lon="-2.57093">
        <ele>129.9</ele>
        <time>2013-05-26T09:12:25.000Z</time>
      </trkpt>
      <trkpt lat="48.52018" lon="-2.57087">
        <ele>132.1</ele>
        <time>2013-05-26T09:12:26.000Z</time>
      </trkpt>
      <trkpt lat="48.52018" lon="-2.57081">
        <ele>133.5</ele>
        <time>2013-05-26T09:12:27.000Z</time>
      </trkpt>
      <trkpt lat="48.52019" lon="-2.57074">
        <ele>132.7</ele>
        <time>2013-05-26T09:12:28.000Z</time>
      </trkpt>
      <trkpt lat="48.5202" lon="-2.57068">
        <ele>134.5</ele>
        <time>2013-05-26T09:12:29.000Z</time>
      </trkpt>
      <trkpt lat="48.52021" lon="-2.57061">
        <ele>134.7</ele>
        <time>2013-05-26T09:12:30.000Z</time>
      </trkpt>
      <trkpt lat="48.52023" lon="-2.57055">
        <ele>135.3</ele>
        <time>2013-05-26T09:12:31.000Z</time>
      </trkpt>
      <trkpt lat="48.52024" lon="-2.57049">
        <ele>137.1</ele>
        <time>2013-05-26T09:12:32.000Z</time>
      </trkpt>
      <trkpt lat="48.52024" lon="-2.57043">
        <ele>137.5</ele>
        <time>2013-05-26T09:12:33.000Z</time>
      </trkpt>
      <trkpt lat="48.52025" lon="-2.57037">
        <ele>138.1</ele>
        <time>2013-05-26T09:12:34.000Z</time>
      </trkpt>
      <trkpt lat="48.52026" lon="-2.57031">
        <ele>138.3</ele>
        <time>2013-05-26T09:12:35.000Z</time>
      </trkpt>
      <trkpt lat="48.52027" lon="-2.57025">
        <ele>138.7</ele>
        <time>2013-05-26T09:12:36.000Z</time>
      </trkpt>
      <trkpt lat="48.52028" lon="-2.5702">
        <ele>139.7</ele>
        <time>2013-05-26T09:12:37.000Z</time>
      </trkpt>
      <trkpt lat="48.52029" lon="-2.57014">
        <ele>140</ele>
        <time>2013-05-26T09:12:38.000Z</time>
      </trkpt>
      <trkpt lat="48.52029" lon="-2.57009">
        <ele>140.8</ele>
        <time>2013-05-26T09:12:39.000Z</time>
      </trkpt>
      <trkpt lat="48.5203" lon="-2.57003">
        <ele>141.4</ele>
        <time>2013-05-26T09:12:40.000Z</time>
      </trkpt>
      <trkpt lat="48.5203" lon="-2.56997">
        <ele>141.8</ele>
        <time>2013-05-26T09:12:41.000Z</time>
      </trkpt>
      <trkpt lat="48.5203" lon="-2.56992">
        <ele>142.7</ele>
        <time>2013-05-26T09:12:42.000Z</time>
      </trkpt>
      <trkpt lat="48.52031" lon="-2.56986">
        <ele>143.3</ele>
        <time>2013-05-26T09:12:43.000Z</time>
      </trkpt>
      <trkpt lat="48.52032" lon="-2.56981">
        <ele>144.6</ele>
        <time>2013-05-26T09:12:44.000Z</time>
      </trkpt>
      <trkpt lat="48.52032" lon="-2.56974">
        <ele>145.1</ele>
        <time>2013-05-26T09:12:45.000Z</time>
      </trkpt>
      <trkpt lat="48.52032" lon="-2.56969">
        <ele>146.2</ele>
        <time>2013-05-26T09:12:46.000Z</time>
      </trkpt>
      <trkpt lat="48.52033" lon="-2.56963">
        <ele>146.9</ele>
        <time>2013-05-26T09:12:47.000Z</time>
      </trkpt>
      <trkpt lat="48.52033" lon="-2.56958">
        <ele>147.8</ele>
        <time>2013-05-26T09:12:48.000Z</time>
      </trkpt>
      <trkpt lat="48.52034" lon="-2.56952">
        <ele>147.6</ele>
        <time>2013-05-26T09:12:49.000Z</time>
      </trkpt>
      <trkpt lat="48.52034" lon="-2.56946">
        <ele>148.1</ele>
        <time>2013-05-26T09:12:50.000Z</time>
      </trkpt>
      <trkpt lat="48.52035" lon="-2.56939">
        <ele>148.4</ele>
        <time>2013-05-26T09:12:51.000Z</time>
      </trkpt>
      <trkpt lat="48.52036" lon="-2.56931">
        <ele>147.9</ele>
        <time>2013-05-26T09:12:52.000Z</time>
      </trkpt>
      <trkpt lat="48.52036" lon="-2.56923">
        <ele>147</ele>
        <time>2013-05-26T09:12:53.000Z</time>
      </trkpt>
      <trkpt lat="48.52036" lon="-2.56915">
        <ele>146.5</ele>
        <time>2013-05-26T09:12:54.000Z</time>
      </trkpt>
      <trkpt lat="48.52035" lon="-2.56908">
        <ele>145.6</ele>
        <time>2013-05-26T09:12:55.000Z</time>
      </trkpt>
      <trkpt lat="48.52034" lon="-2.56901">
        <ele>145.2</ele>
        <time>2013-05-26T09:12:56.000Z</time>
      </trkpt>
      <trkpt lat="48.52034" lon="-2.56894">
        <ele>144.7</ele>
        <time>2013-05-26T09:12:57.000Z</time>
      </trkpt>
      <trkpt lat="48.52034" lon="-2.56886">
        <ele>144.3</ele>
        <time>2013-05-26T09:12:58.000Z</time>
      </trkpt>
      <trkpt lat="48.52033" lon="-2.5688">
        <ele>144.2</ele>
        <time>2013-05-26T09:12:59.000Z</time>
      </trkpt>
      <trkpt lat="48.52034" lon="-2.56874">
        <ele>144.3</ele>
        <time>2013-05-26T09:13:00.000Z</time>
      </trkpt>
      <trkpt lat="48.52033" lon="-2.56868">
        <ele>143.9</ele>
        <time>2013-05-26T09:13:01.000Z</time>
      </trkpt>
      <trkpt lat="48.52033" lon="-2.56862">
        <ele>143.6</ele>
        <time>2013-05-26T09:13:02.000Z</time>
      </trkpt>
      <trkpt lat="48.52032" lon="-2.56855">
        <ele>143.2</ele>
        <time>2013-05-26T09:13:03.000Z</time>
      </trkpt>
      <trkpt lat="48.52032" lon="-2.56849">
        <ele>142.8</ele>
        <time>2013-05-26T09:13:04.000Z</time>
      </trkpt>
      <trkpt lat="48.52032" lon="-2.56843">
        <ele>142.1</ele>
        <time>2013-05-26T09:13:05.000Z</time>
      </trkpt>
      <trkpt lat="48.52031" lon="-2.56836">
        <ele>141.2</ele>
        <time>2013-05-26T09:13:06.000Z</time>
      </trkpt>
      <trkpt lat="48.52031" lon="-2.56829">
        <ele>140.4</ele>
        <time>2013-05-26T09:13:07.000Z</time>
      </trkpt>
      <trkpt lat="48.52031" lon="-2.56822">
        <ele>139.9</ele>
        <time>2013-05-26T09:13:08.000Z</time>
      </trkpt>
      <trkpt lat="48.5203" lon="-2.56816">
        <ele>139.3</ele>
        <time>2013-05-26T09:13:09.000Z</time>
      </trkpt>
      <trkpt lat="48.5203" lon="-2.56809">
        <ele>138.8</ele>
        <time>2013-05-26T09:13:10.000Z</time>
      </trkpt>
      <trkpt lat="48.52029" lon="-2.56802">
        <ele>138.3</ele>
        <time>2013-05-26T09:13:11.000Z</time>
      </trkpt>
      <trkpt lat="48.52029" lon="-2.56795">
        <ele>137.9</ele>
        <time>2013-05-26T09:13:12.000Z</time>
      </trkpt>
      <trkpt lat="48.52028" lon="-2.56789">
        <ele>137.4</ele>
        <time>2013-05-26T09:13:13.000Z</time>
      </trkpt>
      <trkpt lat="48.52027" lon="-2.56782">
        <ele>137.1</ele>
        <time>2013-05-26T09:13:14.000Z</time>
      </trkpt>
      <trkpt lat="48.52026" lon="-2.56775">
        <ele>136.8</ele>
        <time>2013-05-26T09:13:15.000Z</time>
      </trkpt>
      <trkpt lat="48.52025" lon="-2.56768">
        <ele>136.6</ele>
        <time>2013-05-26T09:13:16.000Z</time>
      </trkpt>
      <trkpt lat="48.52024" lon="-2.56761">
        <ele>136.6</ele>
        <time>2013-05-26T09:13:17.000Z</time>
      </trkpt>
      <trkpt lat="48.52022" lon="-2.56754">
        <ele>136.4</ele>
        <time>2013-05-26T09:13:18.000Z</time>
      </trkpt>
      <trkpt lat="48.52002" lon="-2.56717">
        <ele>127.6</ele>
        <time>2013-05-26T09:13:22.000Z</time>
      </trkpt>
      <trkpt lat="48.51999" lon="-2.56712">
        <ele>125.5</ele>
        <time>2013-05-26T09:13:23.000Z</time>
      </trkpt>
      <trkpt lat="48.51999" lon="-2.56703">
        <ele>126.5</ele>
        <time>2013-05-26T09:13:25.000Z</time>
      </trkpt>
      <trkpt lat="48.51997" lon="-2.56695">
        <ele>126.6</ele>
        <time>2013-05-26T09:13:26.000Z</time>
      </trkpt>
      <trkpt lat="48.51994" lon="-2.56688">
        <ele>127</ele>
        <time>2013-05-26T09:13:27.000Z</time>
      </trkpt>
      <trkpt lat="48.51992" lon="-2.56682">
        <ele>127.2</ele>
        <time>2013-05-26T09:13:28.000Z</time>
      </trkpt>
      <trkpt lat="48.5199" lon="-2.56675">
        <ele>127.2</ele>
        <time>2013-05-26T09:13:29.000Z</time>
      </trkpt>
      <trkpt lat="48.51986" lon="-2.56668">
        <ele>126.1</ele>
        <time>2013-05-26T09:13:30.000Z</time>
      </trkpt>
      <trkpt lat="48.51984" lon="-2.56661">
        <ele>126</ele>
        <time>2013-05-26T09:13:31.000Z</time>
      </trkpt>
      <trkpt lat="48.51982" lon="-2.56653">
        <ele>126.1</ele>
        <time>2013-05-26T09:13:32.000Z</time>
      </trkpt>
      <trkpt lat="48.5198" lon="-2.56645">
        <ele>126.5</ele>
        <time>2013-05-26T09:13:33.000Z</time>
      </trkpt>
      <trkpt lat="48.51977" lon="-2.56637">
        <ele>126.1</ele>
        <time>2013-05-26T09:13:34.000Z</time>
      </trkpt>
      <trkpt lat="48.51974" lon="-2.56629">
        <ele>125.6</ele>
        <time>2013-05-26T09:13:35.000Z</time>
      </trkpt>
      <trkpt lat="48.51971" lon="-2.56621">
        <ele>125</ele>
        <time>2013-05-26T09:13:36.000Z</time>
      </trkpt>
      <trkpt lat="48.51968" lon="-2.56613">
        <ele>124.3</ele>
        <time>2013-05-26T09:13:37.000Z</time>
      </trkpt>
      <trkpt lat="48.51965" lon="-2.56605">
        <ele>124</ele>
        <time>2013-05-26T09:13:38.000Z</time>
      </trkpt>
      <trkpt lat="48.51962" lon="-2.56596">
        <ele>124.2</ele>
        <time>2013-05-26T09:13:39.000Z</time>
      </trkpt>
      <trkpt lat="48.5196" lon="-2.56588">
        <ele>124.1</ele>
        <time>2013-05-26T09:13:40.000Z</time>
      </trkpt>
      <trkpt lat="48.51957" lon="-2.5658">
        <ele>123.6</ele>
        <time>2013-05-26T09:13:41.000Z</time>
      </trkpt>
      <trkpt lat="48.51953" lon="-2.56572">
        <ele>122.9</ele>
        <time>2013-05-26T09:13:42.000Z</time>
      </trkpt>
      <trkpt lat="48.51951" lon="-2.56563">
        <ele>122.7</ele>
        <time>2013-05-26T09:13:43.000Z</time>
      </trkpt>
      <trkpt lat="48.51948" lon="-2.56555">
        <ele>122.8</ele>
        <time>2013-05-26T09:13:44.000Z</time>
      </trkpt>
      <trkpt lat="48.51946" lon="-2.56547">
        <ele>123</ele>
        <time>2013-05-26T09:13:45.000Z</time>
      </trkpt>
      <trkpt lat="48.51943" lon="-2.56539">
        <ele>123.3</ele>
        <time>2013-05-26T09:13:46.000Z</time>
      </trkpt>
      <trkpt lat="48.51942" lon="-2.56531">
        <ele>124</ele>
        <time>2013-05-26T09:13:47.000Z</time>
      </trkpt>
      <trkpt lat="48.51939" lon="-2.56523">
        <ele>124.1</ele>
        <time>2013-05-26T09:13:48.000Z</time>
      </trkpt>
      <trkpt lat="48.51937" lon="-2.56515">
        <ele>124.5</ele>
        <time>2013-05-26T09:13:49.000Z</time>
      </trkpt>
      <trkpt lat="48.51935" lon="-2.56507">
        <ele>125.2</ele>
        <time>2013-05-26T09:13:50.000Z</time>
      </trkpt>
      <trkpt lat="48.51933" lon="-2.56498">
        <ele>125.4</ele>
        <time>2013-05-26T09:13:51.000Z</time>
      </trkpt>
      <trkpt lat="48.51931" lon="-2.5649">
        <ele>125.6</ele>
        <time>2013-05-26T09:13:52.000Z</time>
      </trkpt>
      <trkpt lat="48.51929" lon="-2.56482">
        <ele>125.2</ele>
        <time>2013-05-26T09:13:53.000Z</time>
      </trkpt>
      <trkpt lat="48.51927" lon="-2.56473">
        <ele>125.2</ele>
        <time>2013-05-26T09:13:54.000Z</time>
      </trkpt>
      <trkpt lat="48.51924" lon="-2.56465">
        <ele>124.9</ele>
        <time>2013-05-26T09:13:55.000Z</time>
      </trkpt>
      <trkpt lat="48.51922" lon="-2.56456">
        <ele>124.7</ele>
        <time>2013-05-26T09:13:56.000Z</time>
      </trkpt>
      <trkpt lat="48.5192" lon="-2.56448">
        <ele>124.6</ele>
        <time>2013-05-26T09:13:57.000Z</time>
      </trkpt>
      <trkpt lat="48.51918" lon="-2.5644">
        <ele>124.7</ele>
        <time>2013-05-26T09:13:58.000Z</time>
      </trkpt>
      <trkpt lat="48.51916" lon="-2.56432">
        <ele>124.7</ele>
        <time>2013-05-26T09:13:59.000Z</time>
      </trkpt>
      <trkpt lat="48.51913" lon="-2.56423">
        <ele>124.5</ele>
        <time>2013-05-26T09:14:00.000Z</time>
      </trkpt>
      <trkpt lat="48.51911" lon="-2.56414">
        <ele>124.4</ele>
        <time>2013-05-26T09:14:01.000Z</time>
      </trkpt>
      <trkpt lat="48.51908" lon="-2.56406">
        <ele>124.3</ele>
        <time>2013-05-26T09:14:02.000Z</time>
      </trkpt>
      <trkpt lat="48.51906" lon="-2.56398">
        <ele>124.3</ele>
        <time>2013-05-26T09:14:03.000Z</time>
      </trkpt>
      <trkpt lat="48.51904" lon="-2.5639">
        <ele>124.2</ele>
        <time>2013-05-26T09:14:04.000Z</time>
      </trkpt>
      <trkpt lat="48.51902" lon="-2.56382">
        <ele>124</ele>
        <time>2013-05-26T09:14:05.000Z</time>
      </trkpt>
      <trkpt lat="48.51901" lon="-2.56374">
        <ele>124.1</ele>
        <time>2013-05-26T09:14:06.000Z</time>
      </trkpt>
      <trkpt lat="48.51902" lon="-2.56366">
        <ele>124.2</ele>
        <time>2013-05-26T09:14:07.000Z</time>
      </trkpt>
      <trkpt lat="48.51905" lon="-2.56359">
        <ele>124.9</ele>
        <time>2013-05-26T09:14:08.000Z</time>
      </trkpt>
      <trkpt lat="48.51909" lon="-2.56353">
        <ele>125</ele>
        <time>2013-05-26T09:14:09.000Z</time>
      </trkpt>
      <trkpt lat="48.51914" lon="-2.56349">
        <ele>125.1</ele>
        <time>2013-05-26T09:14:10.000Z</time>
      </trkpt>
      <trkpt lat="48.5192" lon="-2.56345">
        <ele>125</ele>
        <time>2013-05-26T09:14:11.000Z</time>
      </trkpt>
      <trkpt lat="48.51925" lon="-2.56341">
        <ele>125.1</ele>
        <time>2013-05-26T09:14:12.000Z</time>
      </trkpt>
      <trkpt lat="48.51929" lon="-2.56336">
        <ele>125.3</ele>
        <time>2013-05-26T09:14:13.000Z</time>
      </trkpt>
      <trkpt lat="48.51933" lon="-2.5633">
        <ele>125.5</ele>
        <time>2013-05-26T09:14:14.000Z</time>
      </trkpt>
      <trkpt lat="48.51937" lon="-2.56323">
        <ele>125.6</ele>
        <time>2013-05-26T09:14:15.000Z</time>
      </trkpt>
      <trkpt lat="48.5194" lon="-2.56316">
        <ele>125.8</ele>
        <time>2013-05-26T09:14:16.000Z</time>
      </trkpt>
      <trkpt lat="48.51943" lon="-2.56309">
        <ele>125.9</ele>
        <time>2013-05-26T09:14:17.000Z</time>
      </trkpt>
      <trkpt lat="48.51946" lon="-2.56302">
        <ele>126.1</ele>
        <time>2013-05-26T09:14:18.000Z</time>
      </trkpt>
      <trkpt lat="48.51969" lon="-2.56268">
        <ele>127.7</ele>
        <time>2013-05-26T09:14:22.000Z</time>
      </trkpt>
      <trkpt lat="48.51972" lon="-2.56262">
        <ele>125.1</ele>
        <time>2013-05-26T09:14:24.000Z</time>
      </trkpt>
      <trkpt lat="48.51975" lon="-2.56258">
        <ele>127.6</ele>
        <time>2013-05-26T09:14:25.000Z</time>
      </trkpt>
      <trkpt lat="48.51979" lon="-2.56253">
        <ele>125.8</ele>
        <time>2013-05-26T09:14:26.000Z</time>
      </trkpt>
      <trkpt lat="48.51982" lon="-2.56247">
        <ele>124.3</ele>
        <time>2013-05-26T09:14:27.000Z</time>
      </trkpt>
      <trkpt lat="48.51986" lon="-2.56241">
        <ele>123.8</ele>
        <time>2013-05-26T09:14:28.000Z</time>
      </trkpt>
      <trkpt lat="48.5199" lon="-2.56235">
        <ele>125</ele>
        <time>2013-05-26T09:14:29.000Z</time>
      </trkpt>
      <trkpt lat="48.51994" lon="-2.56229">
        <ele>125.6</ele>
        <time>2013-05-26T09:14:30.000Z</time>
      </trkpt>
      <trkpt lat="48.51998" lon="-2.56222">
        <ele>126</ele>
        <time>2013-05-26T09:14:31.000Z</time>
      </trkpt>
      <trkpt lat="48.52002" lon="-2.56216">
        <ele>127.1</ele>
        <time>2013-05-26T09:14:32.000Z</time>
      </trkpt>
      <trkpt lat="48.52006" lon="-2.5621">
        <ele>128.2</ele>
        <time>2013-05-26T09:14:33.000Z</time>
      </trkpt>
      <trkpt lat="48.5201" lon="-2.56204">
        <ele>128.6</ele>
        <time>2013-05-26T09:14:34.000Z</time>
      </trkpt>
      <trkpt lat="48.52014" lon="-2.56199">
        <ele>128.8</ele>
        <time>2013-05-26T09:14:35.000Z</time>
      </trkpt>
      <trkpt lat="48.52018" lon="-2.56194">
        <ele>129.1</ele>
        <time>2013-05-26T09:14:36.000Z</time>
      </trkpt>
      <trkpt lat="48.52023" lon="-2.56192">
        <ele>130.1</ele>
        <time>2013-05-26T09:14:37.000Z</time>
      </trkpt>
      <trkpt lat="48.52028" lon="-2.56192">
        <ele>130.6</ele>
        <time>2013-05-26T09:14:38.000Z</time>
      </trkpt>
      <trkpt lat="48.52033" lon="-2.56196">
        <ele>130.8</ele>
        <time>2013-05-26T09:14:39.000Z</time>
      </trkpt>
      <trkpt lat="48.52038" lon="-2.56201">
        <ele>130.7</ele>
        <time>2013-05-26T09:14:40.000Z</time>
      </trkpt>
      <trkpt lat="48.52042" lon="-2.56208">
        <ele>130.8</ele>
        <time>2013-05-26T09:14:41.000Z</time>
      </trkpt>
      <trkpt lat="48.52045" lon="-2.56215">
        <ele>130.9</ele>
        <time>2013-05-26T09:14:42.000Z</time>
      </trkpt>
      <trkpt lat="48.52048" lon="-2.56222">
        <ele>130.4</ele>
        <time>2013-05-26T09:14:43.000Z</time>
      </trkpt>
      <trkpt lat="48.52052" lon="-2.56228">
        <ele>130.3</ele>
        <time>2013-05-26T09:14:44.000Z</time>
      </trkpt>
      <trkpt lat="48.52055" lon="-2.56235">
        <ele>130.3</ele>
        <time>2013-05-26T09:14:45.000Z</time>
      </trkpt>
      <trkpt lat="48.52057" lon="-2.56242">
        <ele>130.3</ele>
        <time>2013-05-26T09:14:46.000Z</time>
      </trkpt>
      <trkpt lat="48.5206" lon="-2.56248">
        <ele>130.5</ele>
        <time>2013-05-26T09:14:47.000Z</time>
      </trkpt>
      <trkpt lat="48.52063" lon="-2.56254">
        <ele>130.6</ele>
        <time>2013-05-26T09:14:48.000Z</time>
      </trkpt>
      <trkpt lat="48.52067" lon="-2.56259">
        <ele>130.9</ele>
        <time>2013-05-26T09:14:49.000Z</time>
      </trkpt>
      <trkpt lat="48.5207" lon="-2.56265">
        <ele>130.6</ele>
        <time>2013-05-26T09:14:50.000Z</time>
      </trkpt>
      <trkpt lat="48.52074" lon="-2.5627">
        <ele>130.8</ele>
        <time>2013-05-26T09:14:51.000Z</time>
      </trkpt>
      <trkpt lat="48.52078" lon="-2.56274">
        <ele>130.8</ele>
        <time>2013-05-26T09:14:52.000Z</time>
      </trkpt>
      <trkpt lat="48.52082" lon="-2.56278">
        <ele>130.8</ele>
        <time>2013-05-26T09:14:53.000Z</time>
      </trkpt>
      <trkpt lat="48.52087" lon="-2.56281">
        <ele>131</ele>
        <time>2013-05-26T09:14:54.000Z</time>
      </trkpt>
      <trkpt lat="48.52091" lon="-2.56283">
        <ele>131</ele>
        <time>2013-05-26T09:14:55.000Z</time>
      </trkpt>
      <trkpt lat="48.52096" lon="-2.56285">
        <ele>130.8</ele>
        <time>2013-05-26T09:14:56.000Z</time>
      </trkpt>
      <trkpt lat="48.52101" lon="-2.56288">
        <ele>130.7</ele>
        <time>2013-05-26T09:14:57.000Z</time>
      </trkpt>
      <trkpt lat="48.52105" lon="-2.5629">
        <ele>130.4</ele>
        <time>2013-05-26T09:14:58.000Z</time>
      </trkpt>
      <trkpt lat="48.5211" lon="-2.56294">
        <ele>130.1</ele>
        <time>2013-05-26T09:14:59.000Z</time>
      </trkpt>
      <trkpt lat="48.52114" lon="-2.56299">
        <ele>129.9</ele>
        <time>2013-05-26T09:15:00.000Z</time>
      </trkpt>
      <trkpt lat="48.52118" lon="-2.56303">
        <ele>129.8</ele>
        <time>2013-05-26T09:15:01.000Z</time>
      </trkpt>
      <trkpt lat="48.52123" lon="-2.56307">
        <ele>129.5</ele>
        <time>2013-05-26T09:15:02.000Z</time>
      </trkpt>
      <trkpt lat="48.52127" lon="-2.56312">
        <ele>129.5</ele>
        <time>2013-05-26T09:15:03.000Z</time>
      </trkpt>
      <trkpt lat="48.52132" lon="-2.56316">
        <ele>129.4</ele>
        <time>2013-05-26T09:15:04.000Z</time>
      </trkpt>
      <trkpt lat="48.52136" lon="-2.5632">
        <ele>129.2</ele>
        <time>2013-05-26T09:15:05.000Z</time>
      </trkpt>
      <trkpt lat="48.52141" lon="-2.56326">
        <ele>128.9</ele>
        <time>2013-05-26T09:15:06.000Z</time>
      </trkpt>
      <trkpt lat="48.52146" lon="-2.56329">
        <ele>128.8</ele>
        <time>2013-05-26T09:15:07.000Z</time>
      </trkpt>
      <trkpt lat="48.52152" lon="-2.56333">
        <ele>128.8</ele>
        <time>2013-05-26T09:15:08.000Z</time>
      </trkpt>
      <trkpt lat="48.52157" lon="-2.56336">
        <ele>128.8</ele>
        <time>2013-05-26T09:15:09.000Z</time>
      </trkpt>
      <trkpt lat="48.52164" lon="-2.5634">
        <ele>128.7</ele>
        <time>2013-05-26T09:15:10.000Z</time>
      </trkpt>
      <trkpt lat="48.5217" lon="-2.56344">
        <ele>128.7</ele>
        <time>2013-05-26T09:15:11.000Z</time>
      </trkpt>
      <trkpt lat="48.52177" lon="-2.56348">
        <ele>128.7</ele>
        <time>2013-05-26T09:15:12.000Z</time>
      </trkpt>
      <trkpt lat="48.52183" lon="-2.56353">
        <ele>128.8</ele>
        <time>2013-05-26T09:15:13.000Z</time>
      </trkpt>
      <trkpt lat="48.5219" lon="-2.56357">
        <ele>128.9</ele>
        <time>2013-05-26T09:15:14.000Z</time>
      </trkpt>
      <trkpt lat="48.52196" lon="-2.5636">
        <ele>128.9</ele>
        <time>2013-05-26T09:15:15.000Z</time>
      </trkpt>
      <trkpt lat="48.52203" lon="-2.56363">
        <ele>128.8</ele>
        <time>2013-05-26T09:15:16.000Z</time>
      </trkpt>
      <trkpt lat="48.5221" lon="-2.56365">
        <ele>128.6</ele>
        <time>2013-05-26T09:15:17.000Z</time>
      </trkpt>
      <trkpt lat="48.52216" lon="-2.56367">
        <ele>128.5</ele>
        <time>2013-05-26T09:15:18.000Z</time>
      </trkpt>
      <trkpt lat="48.5226" lon="-2.56358">
        <ele>118.7</ele>
        <time>2013-05-26T09:15:23.000Z</time>
      </trkpt>
      <trkpt lat="48.52264" lon="-2.56359">
        <ele>116.1</ele>
        <time>2013-05-26T09:15:24.000Z</time>
      </trkpt>
      <trkpt lat="48.52266" lon="-2.56359">
        <ele>120.9</ele>
        <time>2013-05-26T09:15:25.000Z</time>
      </trkpt>
      <trkpt lat="48.5227" lon="-2.56357">
        <ele>120.2</ele>
        <time>2013-05-26T09:15:27.000Z</time>
      </trkpt>
      <trkpt lat="48.52273" lon="-2.56358">
        <ele>121.2</ele>
        <time>2013-05-26T09:15:28.000Z</time>
      </trkpt>
      <trkpt lat="48.52277" lon="-2.56358">
        <ele>124.3</ele>
        <time>2013-05-26T09:15:29.000Z</time>
      </trkpt>
      <trkpt lat="48.52281" lon="-2.56356">
        <ele>125.8</ele>
        <time>2013-05-26T09:15:30.000Z</time>
      </trkpt>
      <trkpt lat="48.52285" lon="-2.56358">
        <ele>128.7</ele>
        <time>2013-05-26T09:15:31.000Z</time>
      </trkpt>
      <trkpt lat="48.52288" lon="-2.56359">
        <ele>131.5</ele>
        <time>2013-05-26T09:15:32.000Z</time>
      </trkpt>
      <trkpt lat="48.52291" lon="-2.5636">
        <ele>132.8</ele>
        <time>2013-05-26T09:15:33.000Z</time>
      </trkpt>
      <trkpt lat="48.52295" lon="-2.5636">
        <ele>133.9</ele>
        <time>2013-05-26T09:15:34.000Z</time>
      </trkpt>
      <trkpt lat="48.52298" lon="-2.5636">
        <ele>133.9</ele>
        <time>2013-05-26T09:15:35.000Z</time>
      </trkpt>
      <trkpt lat="48.52302" lon="-2.5636">
        <ele>134.4</ele>
        <time>2013-05-26T09:15:36.000Z</time>
      </trkpt>
      <trkpt lat="48.52306" lon="-2.56359">
        <ele>134.6</ele>
        <time>2013-05-26T09:15:37.000Z</time>
      </trkpt>
      <trkpt lat="48.52312" lon="-2.56357">
        <ele>132.1</ele>
        <time>2013-05-26T09:15:38.000Z</time>
      </trkpt>
      <trkpt lat="48.52316" lon="-2.56356">
        <ele>131.1</ele>
        <time>2013-05-26T09:15:39.000Z</time>
      </trkpt>
      <trkpt lat="48.5232" lon="-2.56356">
        <ele>131</ele>
        <time>2013-05-26T09:15:40.000Z</time>
      </trkpt>
      <trkpt lat="48.52324" lon="-2.56354">
        <ele>131.8</ele>
        <time>2013-05-26T09:15:41.000Z</time>
      </trkpt>
      <trkpt lat="48.52328" lon="-2.56352">
        <ele>132.1</ele>
        <time>2013-05-26T09:15:42.000Z</time>
      </trkpt>
      <trkpt lat="48.52332" lon="-2.5635">
        <ele>131.9</ele>
        <time>2013-05-26T09:15:43.000Z</time>
      </trkpt>
      <trkpt lat="48.52336" lon="-2.56348">
        <ele>132.3</ele>
        <time>2013-05-26T09:15:44.000Z</time>
      </trkpt>
      <trkpt lat="48.5234" lon="-2.56345">
        <ele>132.2</ele>
        <time>2013-05-26T09:15:45.000Z</time>
      </trkpt>
      <trkpt lat="48.52344" lon="-2.56342">
        <ele>131.9</ele>
        <time>2013-05-26T09:15:46.000Z</time>
      </trkpt>
      <trkpt lat="48.52348" lon="-2.5634">
        <ele>131.9</ele>
        <time>2013-05-26T09:15:47.000Z</time>
      </trkpt>
      <trkpt lat="48.52352" lon="-2.56337">
        <ele>131.9</ele>
        <time>2013-05-26T09:15:48.000Z</time>
      </trkpt>
      <trkpt lat="48.52356" lon="-2.56335">
        <ele>131.9</ele>
        <time>2013-05-26T09:15:49.000Z</time>
      </trkpt>
      <trkpt lat="48.52359" lon="-2.56332">
        <ele>131.7</ele>
        <time>2013-05-26T09:15:50.000Z</time>
      </trkpt>
      <trkpt lat="48.52363" lon="-2.56329">
        <ele>131.7</ele>
        <time>2013-05-26T09:15:51.000Z</time>
      </trkpt>
      <trkpt lat="48.52367" lon="-2.56327">
        <ele>131.4</ele>
        <time>2013-05-26T09:15:52.000Z</time>
      </trkpt>
      <trkpt lat="48.52371" lon="-2.56325">
        <ele>131.5</ele>
        <time>2013-05-26T09:15:53.000Z</time>
      </trkpt>
      <trkpt lat="48.52375" lon="-2.56322">
        <ele>131.5</ele>
        <time>2013-05-26T09:15:54.000Z</time>
      </trkpt>
      <trkpt lat="48.52379" lon="-2.5632">
        <ele>131.3</ele>
        <time>2013-05-26T09:15:55.000Z</time>
      </trkpt>
      <trkpt lat="48.52382" lon="-2.56318">
        <ele>131.1</ele>
        <time>2013-05-26T09:15:56.000Z</time>
      </trkpt>
      <trkpt lat="48.52386" lon="-2.56315">
        <ele>130.8</ele>
        <time>2013-05-26T09:15:57.000Z</time>
      </trkpt>
      <trkpt lat="48.5239" lon="-2.56313">
        <ele>130.6</ele>
        <time>2013-05-26T09:15:58.000Z</time>
      </trkpt>
      <trkpt lat="48.52394" lon="-2.56311">
        <ele>130.8</ele>
        <time>2013-05-26T09:15:59.000Z</time>
      </trkpt>
      <trkpt lat="48.52397" lon="-2.56309">
        <ele>131</ele>
        <time>2013-05-26T09:16:00.000Z</time>
      </trkpt>
      <trkpt lat="48.52401" lon="-2.56307">
        <ele>131.2</ele>
        <time>2013-05-26T09:16:01.000Z</time>
      </trkpt>
      <trkpt lat="48.52405" lon="-2.56305">
        <ele>131.3</ele>
        <time>2013-05-26T09:16:02.000Z</time>
      </trkpt>
      <trkpt lat="48.52409" lon="-2.56303">
        <ele>131.3</ele>
        <time>2013-05-26T09:16:03.000Z</time>
      </trkpt>
      <trkpt lat="48.52413" lon="-2.56301">
        <ele>131.4</ele>
        <time>2013-05-26T09:16:04.000Z</time>
      </trkpt>
      <trkpt lat="48.52416" lon="-2.56299">
        <ele>131.5</ele>
        <time>2013-05-26T09:16:05.000Z</time>
      </trkpt>
      <trkpt lat="48.5242" lon="-2.56297">
        <ele>131.5</ele>
        <time>2013-05-26T09:16:06.000Z</time>
      </trkpt>
      <trkpt lat="48.52424" lon="-2.56294">
        <ele>131.5</ele>
        <time>2013-05-26T09:16:07.000Z</time>
      </trkpt>
      <trkpt lat="48.52429" lon="-2.56292">
        <ele>131.5</ele>
        <time>2013-05-26T09:16:08.000Z</time>
      </trkpt>
      <trkpt lat="48.52433" lon="-2.56289">
        <ele>131.5</ele>
        <time>2013-05-26T09:16:09.000Z</time>
      </trkpt>
      <trkpt lat="48.52437" lon="-2.56286">
        <ele>131.6</ele>
        <time>2013-05-26T09:16:10.000Z</time>
      </trkpt>
      <trkpt lat="48.52441" lon="-2.56283">
        <ele>131.7</ele>
        <time>2013-05-26T09:16:11.000Z</time>
      </trkpt>
      <trkpt lat="48.52445" lon="-2.5628">
        <ele>131.7</ele>
        <time>2013-05-26T09:16:12.000Z</time>
      </trkpt>
      <trkpt lat="48.52449" lon="-2.56278">
        <ele>131.7</ele>
        <time>2013-05-26T09:16:13.000Z</time>
      </trkpt>
      <trkpt lat="48.52453" lon="-2.56275">
        <ele>131.7</ele>
        <time>2013-05-26T09:16:14.000Z</time>
      </trkpt>
      <trkpt lat="48.52457" lon="-2.56272">
        <ele>131.6</ele>
        <time>2013-05-26T09:16:15.000Z</time>
      </trkpt>
      <trkpt lat="48.52461" lon="-2.56269">
        <ele>131.7</ele>
        <time>2013-05-26T09:16:16.000Z</time>
      </trkpt>
      <trkpt lat="48.52466" lon="-2.56266">
        <ele>131.7</ele>
        <time>2013-05-26T09:16:17.000Z</time>
      </trkpt>
      <trkpt lat="48.5247" lon="-2.56263">
        <ele>131.6</ele>
        <time>2013-05-26T09:16:18.000Z</time>
      </trkpt>
      <trkpt lat="48.52477" lon="-2.56244">
        <ele>115.3</ele>
        <time>2013-05-26T09:16:20.000Z</time>
      </trkpt>
      <trkpt lat="48.52476" lon="-2.56259">
        <ele>122.2</ele>
        <time>2013-05-26T09:16:21.000Z</time>
      </trkpt>
      <trkpt lat="48.52486" lon="-2.56247">
        <ele>115.1</ele>
        <time>2013-05-26T09:16:22.000Z</time>
      </trkpt>
      <trkpt lat="48.52492" lon="-2.56242">
        <ele>122.8</ele>
        <time>2013-05-26T09:16:23.000Z</time>
      </trkpt>
      <trkpt lat="48.52497" lon="-2.56239">
        <ele>128.1</ele>
        <time>2013-05-26T09:16:25.000Z</time>
      </trkpt>
      <trkpt lat="48.52501" lon="-2.56236">
        <ele>127.8</ele>
        <time>2013-05-26T09:16:26.000Z</time>
      </trkpt>
      <trkpt lat="48.52506" lon="-2.56235">
        <ele>128.3</ele>
        <time>2013-05-26T09:16:27.000Z</time>
      </trkpt>
      <trkpt lat="48.5251" lon="-2.56233">
        <ele>128.7</ele>
        <time>2013-05-26T09:16:28.000Z</time>
      </trkpt>
      <trkpt lat="48.52515" lon="-2.56232">
        <ele>128.1</ele>
        <time>2013-05-26T09:16:29.000Z</time>
      </trkpt>
      <trkpt lat="48.5252" lon="-2.56232">
        <ele>128.1</ele>
        <time>2013-05-26T09:16:30.000Z</time>
      </trkpt>
      <trkpt lat="48.52524" lon="-2.56233">
        <ele>129.7</ele>
        <time>2013-05-26T09:16:31.000Z</time>
      </trkpt>
      <trkpt lat="48.52528" lon="-2.56233">
        <ele>130.2</ele>
        <time>2013-05-26T09:16:32.000Z</time>
      </trkpt>
      <trkpt lat="48.52533" lon="-2.56233">
        <ele>130.4</ele>
        <time>2013-05-26T09:16:33.000Z</time>
      </trkpt>
      <trkpt lat="48.52538" lon="-2.56232">
        <ele>130.4</ele>
        <time>2013-05-26T09:16:34.000Z</time>
      </trkpt>
      <trkpt lat="48.52543" lon="-2.56232">
        <ele>130.2</ele>
        <time>2013-05-26T09:16:35.000Z</time>
      </trkpt>
      <trkpt lat="48.52548" lon="-2.56232">
        <ele>130.4</ele>
        <time>2013-05-26T09:16:36.000Z</time>
      </trkpt>
      <trkpt lat="48.52553" lon="-2.56233">
        <ele>130.8</ele>
        <time>2013-05-26T09:16:37.000Z</time>
      </trkpt>
      <trkpt lat="48.52558" lon="-2.56233">
        <ele>131</ele>
        <time>2013-05-26T09:16:38.000Z</time>
      </trkpt>
      <trkpt lat="48.52563" lon="-2.56233">
        <ele>131.3</ele>
        <time>2013-05-26T09:16:39.000Z</time>
      </trkpt>
      <trkpt lat="48.52567" lon="-2.56234">
        <ele>131.9</ele>
        <time>2013-05-26T09:16:40.000Z</time>
      </trkpt>
      <trkpt lat="48.52572" lon="-2.56234">
        <ele>132.4</ele>
        <time>2013-05-26T09:16:41.000Z</time>
      </trkpt>
      <trkpt lat="48.52577" lon="-2.56234">
        <ele>132.9</ele>
        <time>2013-05-26T09:16:42.000Z</time>
      </trkpt>
      <trkpt lat="48.52582" lon="-2.56234">
        <ele>133.2</ele>
        <time>2013-05-26T09:16:43.000Z</time>
      </trkpt>
      <trkpt lat="48.52587" lon="-2.56234">
        <ele>133.5</ele>
        <time>2013-05-26T09:16:44.000Z</time>
      </trkpt>
      <trkpt lat="48.52593" lon="-2.56234">
        <ele>133.8</ele>
        <time>2013-05-26T09:16:45.000Z</time>
      </trkpt>
      <trkpt lat="48.52598" lon="-2.56235">
        <ele>134</ele>
        <time>2013-05-26T09:16:46.000Z</time>
      </trkpt>
      <trkpt lat="48.52603" lon="-2.56235">
        <ele>133.6</ele>
        <time>2013-05-26T09:16:47.000Z</time>
      </trkpt>
      <trkpt lat="48.52608" lon="-2.56236">
        <ele>133.8</ele>
        <time>2013-05-26T09:16:48.000Z</time>
      </trkpt>
      <trkpt lat="48.52613" lon="-2.56236">
        <ele>133.8</ele>
        <time>2013-05-26T09:16:49.000Z</time>
      </trkpt>
      <trkpt lat="48.52619" lon="-2.56236">
        <ele>133.6</ele>
        <time>2013-05-26T09:16:50.000Z</time>
      </trkpt>
      <trkpt lat="48.52624" lon="-2.56236">
        <ele>133.9</ele>
        <time>2013-05-26T09:16:51.000Z</time>
      </trkpt>
      <trkpt lat="48.52629" lon="-2.56237">
        <ele>133.7</ele>
        <time>2013-05-26T09:16:52.000Z</time>
      </trkpt>
      <trkpt lat="48.52634" lon="-2.56238">
        <ele>133.7</ele>
        <time>2013-05-26T09:16:53.000Z</time>
      </trkpt>
      <trkpt lat="48.5264" lon="-2.56239">
        <ele>133.7</ele>
        <time>2013-05-26T09:16:54.000Z</time>
      </trkpt>
      <trkpt lat="48.52645" lon="-2.56242">
        <ele>133.7</ele>
        <time>2013-05-26T09:16:55.000Z</time>
      </trkpt>
      <trkpt lat="48.5265" lon="-2.56245">
        <ele>133.7</ele>
        <time>2013-05-26T09:16:56.000Z</time>
      </trkpt>
      <trkpt lat="48.52655" lon="-2.56248">
        <ele>133.7</ele>
        <time>2013-05-26T09:16:57.000Z</time>
      </trkpt>
      <trkpt lat="48.5266" lon="-2.5625">
        <ele>133.5</ele>
        <time>2013-05-26T09:16:58.000Z</time>
      </trkpt>
      <trkpt lat="48.52665" lon="-2.56253">
        <ele>133.5</ele>
        <time>2013-05-26T09:16:59.000Z</time>
      </trkpt>
      <trkpt lat="48.5267" lon="-2.56257">
        <ele>133.5</ele>
        <time>2013-05-26T09:17:00.000Z</time>
      </trkpt>
      <trkpt lat="48.52675" lon="-2.5626">
        <ele>133.6</ele>
        <time>2013-05-26T09:17:01.000Z</time>
      </trkpt>
      <trkpt lat="48.5268" lon="-2.56264">
        <ele>133.7</ele>
        <time>2013-05-26T09:17:02.000Z</time>
      </trkpt>
      <trkpt lat="48.52685" lon="-2.56267">
        <ele>133.8</ele>
        <time>2013-05-26T09:17:03.000Z</time>
      </trkpt>
      <trkpt lat="48.5269" lon="-2.56271">
        <ele>133.8</ele>
        <time>2013-05-26T09:17:04.000Z</time>
      </trkpt>
      <trkpt lat="48.52695" lon="-2.56274">
        <ele>133.9</ele>
        <time>2013-05-26T09:17:05.000Z</time>
      </trkpt>
      <trkpt lat="48.527" lon="-2.56277">
        <ele>133.9</ele>
        <time>2013-05-26T09:17:06.000Z</time>
      </trkpt>
      <trkpt lat="48.52705" lon="-2.56281">
        <ele>134.1</ele>
        <time>2013-05-26T09:17:07.000Z</time>
      </trkpt>
      <trkpt lat="48.5271" lon="-2.56284">
        <ele>134.3</ele>
        <time>2013-05-26T09:17:08.000Z</time>
      </trkpt>
      <trkpt lat="48.52715" lon="-2.56287">
        <ele>134.2</ele>
        <time>2013-05-26T09:17:09.000Z</time>
      </trkpt>
      <trkpt lat="48.52719" lon="-2.5629">
        <ele>134.4</ele>
        <time>2013-05-26T09:17:10.000Z</time>
      </trkpt>
      <trkpt lat="48.52724" lon="-2.56294">
        <ele>134.5</ele>
        <time>2013-05-26T09:17:11.000Z</time>
      </trkpt>
      <trkpt lat="48.52729" lon="-2.56297">
        <ele>134.4</ele>
        <time>2013-05-26T09:17:12.000Z</time>
      </trkpt>
      <trkpt lat="48.52734" lon="-2.563">
        <ele>134.3</ele>
        <time>2013-05-26T09:17:13.000Z</time>
      </trkpt>
      <trkpt lat="48.52738" lon="-2.56303">
        <ele>134.2</ele>
        <time>2013-05-26T09:17:14.000Z</time>
      </trkpt>
      <trkpt lat="48.52743" lon="-2.56307">
        <ele>134.3</ele>
        <time>2013-05-26T09:17:15.000Z</time>
      </trkpt>
      <trkpt lat="48.52747" lon="-2.56312">
        <ele>134.3</ele>
        <time>2013-05-26T09:17:16.000Z</time>
      </trkpt>
      <trkpt lat="48.52751" lon="-2.56317">
        <ele>134.4</ele>
        <time>2013-05-26T09:17:17.000Z</time>
      </trkpt>
      <trkpt lat="48.52756" lon="-2.56322">
        <ele>134.4</ele>
        <time>2013-05-26T09:17:18.000Z</time>
      </trkpt>
      <trkpt lat="48.52775" lon="-2.56353">
        <ele>127.3</ele>
        <time>2013-05-26T09:17:22.000Z</time>
      </trkpt>
      <trkpt lat="48.52781" lon="-2.56357">
        <ele>129.3</ele>
        <time>2013-05-26T09:17:24.000Z</time>
      </trkpt>
      <trkpt lat="48.52784" lon="-2.56361">
        <ele>131.4</ele>
        <time>2013-05-26T09:17:25.000Z</time>
      </trkpt>
      <trkpt lat="48.5279" lon="-2.56366">
        <ele>130.1</ele>
        <time>2013-05-26T09:17:26.000Z</time>
      </trkpt>
      <trkpt lat="48.52796" lon="-2.56369">
        <ele>132.1</ele>
        <time>2013-05-26T09:17:27.000Z</time>
      </trkpt>
      <trkpt lat="48.528" lon="-2.56374">
        <ele>131.4</ele>
        <time>2013-05-26T09:17:28.000Z</time>
      </trkpt>
      <trkpt lat="48.52805" lon="-2.56378">
        <ele>130.8</ele>
        <time>2013-05-26T09:17:29.000Z</time>
      </trkpt>
      <trkpt lat="48.52809" lon="-2.56382">
        <ele>131.2</ele>
        <time>2013-05-26T09:17:30.000Z</time>
      </trkpt>
      <trkpt lat="48.52813" lon="-2.56386">
        <ele>131.8</ele>
        <time>2013-05-26T09:17:31.000Z</time>
      </trkpt>
      <trkpt lat="48.52817" lon="-2.56391">
        <ele>132.5</ele>
        <time>2013-05-26T09:17:32.000Z</time>
      </trkpt>
      <trkpt lat="48.52821" lon="-2.56395">
        <ele>132.7</ele>
        <time>2013-05-26T09:17:33.000Z</time>
      </trkpt>
      <trkpt lat="48.52825" lon="-2.56399">
        <ele>133</ele>
        <time>2013-05-26T09:17:34.000Z</time>
      </trkpt>
      <trkpt lat="48.52828" lon="-2.56404">
        <ele>133</ele>
        <time>2013-05-26T09:17:35.000Z</time>
      </trkpt>
      <trkpt lat="48.52832" lon="-2.56409">
        <ele>133</ele>
        <time>2013-05-26T09:17:36.000Z</time>
      </trkpt>
      <trkpt lat="48.52836" lon="-2.56413">
        <ele>133.2</ele>
        <time>2013-05-26T09:17:37.000Z</time>
      </trkpt>
      <trkpt lat="48.52839" lon="-2.56418">
        <ele>133.4</ele>
        <time>2013-05-26T09:17:38.000Z</time>
      </trkpt>
      <trkpt lat="48.52843" lon="-2.56423">
        <ele>133.4</ele>
        <time>2013-05-26T09:17:39.000Z</time>
      </trkpt>
      <trkpt lat="48.52846" lon="-2.56427">
        <ele>133.5</ele>
        <time>2013-05-26T09:17:40.000Z</time>
      </trkpt>
      <trkpt lat="48.52849" lon="-2.56431">
        <ele>134</ele>
        <time>2013-05-26T09:17:41.000Z</time>
      </trkpt>
      <trkpt lat="48.52852" lon="-2.56435">
        <ele>134.4</ele>
        <time>2013-05-26T09:17:42.000Z</time>
      </trkpt>
      <trkpt lat="48.52855" lon="-2.56437">
        <ele>134.7</ele>
        <time>2013-05-26T09:17:43.000Z</time>
      </trkpt>
      <trkpt lat="48.52857" lon="-2.56436">
        <ele>135.2</ele>
        <time>2013-05-26T09:17:44.000Z</time>
      </trkpt>
      <trkpt lat="48.52859" lon="-2.56434">
        <ele>135.5</ele>
        <time>2013-05-26T09:17:45.000Z</time>
      </trkpt>
      <trkpt lat="48.52861" lon="-2.5643">
        <ele>136.2</ele>
        <time>2013-05-26T09:17:46.000Z</time>
      </trkpt>
      <trkpt lat="48.5286" lon="-2.56426">
        <ele>136.9</ele>
        <time>2013-05-26T09:17:47.000Z</time>
      </trkpt>
      <trkpt lat="48.52859" lon="-2.56422">
        <ele>137.5</ele>
        <time>2013-05-26T09:17:48.000Z</time>
      </trkpt>
      <trkpt lat="48.52857" lon="-2.56417">
        <ele>137.8</ele>
        <time>2013-05-26T09:17:49.000Z</time>
      </trkpt>
      <trkpt lat="48.52854" lon="-2.56412">
        <ele>137.6</ele>
        <time>2013-05-26T09:17:50.000Z</time>
      </trkpt>
      <trkpt lat="48.52852" lon="-2.56405">
        <ele>137.5</ele>
        <time>2013-05-26T09:17:51.000Z</time>
      </trkpt>
      <trkpt lat="48.5285" lon="-2.56399">
        <ele>137.5</ele>
        <time>2013-05-26T09:17:52.000Z</time>
      </trkpt>
      <trkpt lat="48.52848" lon="-2.56392">
        <ele>137.4</ele>
        <time>2013-05-26T09:17:53.000Z</time>
      </trkpt>
      <trkpt lat="48.52846" lon="-2.56385">
        <ele>137.3</ele>
        <time>2013-05-26T09:17:54.000Z</time>
      </trkpt>
      <trkpt lat="48.52843" lon="-2.56378">
        <ele>137.4</ele>
        <time>2013-05-26T09:17:55.000Z</time>
      </trkpt>
      <trkpt lat="48.5284" lon="-2.56371">
        <ele>137.4</ele>
        <time>2013-05-26T09:17:56.000Z</time>
      </trkpt>
      <trkpt lat="48.52837" lon="-2.56364">
        <ele>137.2</ele>
        <time>2013-05-26T09:17:57.000Z</time>
      </trkpt>
      <trkpt lat="48.52835" lon="-2.56356">
        <ele>137.1</ele>
        <time>2013-05-26T09:17:58.000Z</time>
      </trkpt>
      <trkpt lat="48.52832" lon="-2.56349">
        <ele>137</ele>
        <time>2013-05-26T09:17:59.000Z</time>
      </trkpt>
      <trkpt lat="48.5283" lon="-2.56341">
        <ele>136.7</ele>
        <time>2013-05-26T09:18:00.000Z</time>
      </trkpt>
      <trkpt lat="48.52827" lon="-2.56334">
        <ele>136.6</ele>
        <time>2013-05-26T09:18:01.000Z</time>
      </trkpt>
      <trkpt lat="48.52825" lon="-2.56326">
        <ele>136.2</ele>
        <time>2013-05-26T09:18:02.000Z</time>
      </trkpt>
      <trkpt lat="48.52822" lon="-2.56318">
        <ele>136.1</ele>
        <time>2013-05-26T09:18:03.000Z</time>
      </trkpt>
      <trkpt lat="48.5282" lon="-2.56311">
        <ele>135.8</ele>
        <time>2013-05-26T09:18:04.000Z</time>
      </trkpt>
      <trkpt lat="48.52817" lon="-2.56304">
        <ele>135.4</ele>
        <time>2013-05-26T09:18:05.000Z</time>
      </trkpt>
      <trkpt lat="48.52816" lon="-2.56297">
        <ele>135.1</ele>
        <time>2013-05-26T09:18:06.000Z</time>
      </trkpt>
      <trkpt lat="48.52814" lon="-2.56291">
        <ele>134.9</ele>
        <time>2013-05-26T09:18:07.000Z</time>
      </trkpt>
      <trkpt lat="48.52813" lon="-2.56286">
        <ele>134.7</ele>
        <time>2013-05-26T09:18:08.000Z</time>
      </trkpt>
      <trkpt lat="48.52813" lon="-2.56282">
        <ele>134.5</ele>
        <time>2013-05-26T09:18:09.000Z</time>
      </trkpt>
      <trkpt lat="48.52813" lon="-2.56277">
        <ele>134.3</ele>
        <time>2013-05-26T09:18:10.000Z</time>
      </trkpt>
      <trkpt lat="48.52812" lon="-2.56273">
        <ele>134.2</ele>
        <time>2013-05-26T09:18:11.000Z</time>
      </trkpt>
      <trkpt lat="48.52812" lon="-2.5627">
        <ele>134.1</ele>
        <time>2013-05-26T09:18:12.000Z</time>
      </trkpt>
      <trkpt lat="48.5281" lon="-2.56264">
        <ele>133.6</ele>
        <time>2013-05-26T09:18:15.000Z</time>
      </trkpt>
      <trkpt lat="48.5281" lon="-2.56263">
        <ele>133.4</ele>
        <time>2013-05-26T09:18:16.000Z</time>
      </trkpt>
      <trkpt lat="48.52809" lon="-2.5626">
        <ele>133</ele>
        <time>2013-05-26T09:18:18.000Z</time>
      </trkpt>
      <trkpt lat="48.52803" lon="-2.56259">
        <ele>129.8</ele>
        <time>2013-05-26T09:18:21.000Z</time>
      </trkpt>
      <trkpt lat="48.52805" lon="-2.56261">
        <ele>130.4</ele>
        <time>2013-05-26T09:18:25.000Z</time>
      </trkpt>
      <trkpt lat="48.52809" lon="-2.56255">
        <ele>133.3</ele>
        <time>2013-05-26T09:18:26.000Z</time>
      </trkpt>
      <trkpt lat="48.52807" lon="-2.56254">
        <ele>133.5</ele>
        <time>2013-05-26T09:18:38.000Z</time>
      </trkpt>
      <trkpt lat="48.52805" lon="-2.56251">
        <ele>133.6</ele>
        <time>2013-05-26T09:18:39.000Z</time>
      </trkpt>
      <trkpt lat="48.52803" lon="-2.56248">
        <ele>133.9</ele>
        <time>2013-05-26T09:18:40.000Z</time>
      </trkpt>
      <trkpt lat="48.52801" lon="-2.56243">
        <ele>133.6</ele>
        <time>2013-05-26T09:18:41.000Z</time>
      </trkpt>
      <trkpt lat="48.52799" lon="-2.56238">
        <ele>133.7</ele>
        <time>2013-05-26T09:18:42.000Z</time>
      </trkpt>
      <trkpt lat="48.52797" lon="-2.56231">
        <ele>133.6</ele>
        <time>2013-05-26T09:18:43.000Z</time>
      </trkpt>
      <trkpt lat="48.52795" lon="-2.56223">
        <ele>133.4</ele>
        <time>2013-05-26T09:18:44.000Z</time>
      </trkpt>
      <trkpt lat="48.52793" lon="-2.56214">
        <ele>133.4</ele>
        <time>2013-05-26T09:18:45.000Z</time>
      </trkpt>
      <trkpt lat="48.52791" lon="-2.56204">
        <ele>133.1</ele>
        <time>2013-05-26T09:18:46.000Z</time>
      </trkpt>
      <trkpt lat="48.52788" lon="-2.56194">
        <ele>133.1</ele>
        <time>2013-05-26T09:18:47.000Z</time>
      </trkpt>
      <trkpt lat="48.52786" lon="-2.56184">
        <ele>133</ele>
        <time>2013-05-26T09:18:48.000Z</time>
      </trkpt>
      <trkpt lat="48.52783" lon="-2.56173">
        <ele>132.6</ele>
        <time>2013-05-26T09:18:49.000Z</time>
      </trkpt>
      <trkpt lat="48.5278" lon="-2.56163">
        <ele>132.8</ele>
        <time>2013-05-26T09:18:50.000Z</time>
      </trkpt>
      <trkpt lat="48.52777" lon="-2.56152">
        <ele>132.3</ele>
        <time>2013-05-26T09:18:51.000Z</time>
      </trkpt>
      <trkpt lat="48.52774" lon="-2.56141">
        <ele>132.1</ele>
        <time>2013-05-26T09:18:52.000Z</time>
      </trkpt>
      <trkpt lat="48.52771" lon="-2.5613">
        <ele>132</ele>
        <time>2013-05-26T09:18:53.000Z</time>
      </trkpt>
      <trkpt lat="48.52768" lon="-2.56119">
        <ele>131.7</ele>
        <time>2013-05-26T09:18:54.000Z</time>
      </trkpt>
      <trkpt lat="48.52765" lon="-2.56108">
        <ele>131.6</ele>
        <time>2013-05-26T09:18:55.000Z</time>
      </trkpt>
      <trkpt lat="48.52762" lon="-2.56096">
        <ele>131.4</ele>
        <time>2013-05-26T09:18:56.000Z</time>
      </trkpt>
      <trkpt lat="48.52759" lon="-2.56085">
        <ele>131.2</ele>
        <time>2013-05-26T09:18:57.000Z</time>
      </trkpt>
      <trkpt lat="48.52756" lon="-2.56073">
        <ele>131.2</ele>
        <time>2013-05-26T09:18:58.000Z</time>
      </trkpt>
      <trkpt lat="48.52753" lon="-2.56061">
        <ele>131</ele>
        <time>2013-05-26T09:18:59.000Z</time>
      </trkpt>
      <trkpt lat="48.5275" lon="-2.56049">
        <ele>130.7</ele>
        <time>2013-05-26T09:19:00.000Z</time>
      </trkpt>
      <trkpt lat="48.52746" lon="-2.56038">
        <ele>130.2</ele>
        <time>2013-05-26T09:19:01.000Z</time>
      </trkpt>
      <trkpt lat="48.52743" lon="-2.56025">
        <ele>130.1</ele>
        <time>2013-05-26T09:19:02.000Z</time>
      </trkpt>
      <trkpt lat="48.5274" lon="-2.56013">
        <ele>129.8</ele>
        <time>2013-05-26T09:19:03.000Z</time>
      </trkpt>
      <trkpt lat="48.52737" lon="-2.56001">
        <ele>129.6</ele>
        <time>2013-05-26T09:19:04.000Z</time>
      </trkpt>
      <trkpt lat="48.52734" lon="-2.55989">
        <ele>129.6</ele>
        <time>2013-05-26T09:19:05.000Z</time>
      </trkpt>
      <trkpt lat="48.52731" lon="-2.55977">
        <ele>129.4</ele>
        <time>2013-05-26T09:19:06.000Z</time>
      </trkpt>
      <trkpt lat="48.52728" lon="-2.55964">
        <ele>129.3</ele>
        <time>2013-05-26T09:19:07.000Z</time>
      </trkpt>
      <trkpt lat="48.52725" lon="-2.55952">
        <ele>129.1</ele>
        <time>2013-05-26T09:19:08.000Z</time>
      </trkpt>
      <trkpt lat="48.52722" lon="-2.5594">
        <ele>129</ele>
        <time>2013-05-26T09:19:09.000Z</time>
      </trkpt>
      <trkpt lat="48.5272" lon="-2.55927">
        <ele>128.9</ele>
        <time>2013-05-26T09:19:10.000Z</time>
      </trkpt>
      <trkpt lat="48.52718" lon="-2.55915">
        <ele>128.9</ele>
        <time>2013-05-26T09:19:11.000Z</time>
      </trkpt>
      <trkpt lat="48.52716" lon="-2.55904">
        <ele>128.8</ele>
        <time>2013-05-26T09:19:12.000Z</time>
      </trkpt>
      <trkpt lat="48.52715" lon="-2.55892">
        <ele>128.8</ele>
        <time>2013-05-26T09:19:13.000Z</time>
      </trkpt>
      <trkpt lat="48.52713" lon="-2.5588">
        <ele>128.7</ele>
        <time>2013-05-26T09:19:14.000Z</time>
      </trkpt>
      <trkpt lat="48.52712" lon="-2.55869">
        <ele>128.7</ele>
        <time>2013-05-26T09:19:15.000Z</time>
      </trkpt>
      <trkpt lat="48.52711" lon="-2.55858">
        <ele>128.8</ele>
        <time>2013-05-26T09:19:16.000Z</time>
      </trkpt>
      <trkpt lat="48.5271" lon="-2.55847">
        <ele>128.8</ele>
        <time>2013-05-26T09:19:17.000Z</time>
      </trkpt>
      <trkpt lat="48.52709" lon="-2.55836">
        <ele>128.7</ele>
        <time>2013-05-26T09:19:18.000Z</time>
      </trkpt>
      <trkpt lat="48.52704" lon="-2.55803">
        <ele>128.9</ele>
        <time>2013-05-26T09:19:21.000Z</time>
      </trkpt>
      <trkpt lat="48.52701" lon="-2.55792">
        <ele>124.2</ele>
        <time>2013-05-26T09:19:22.000Z</time>
      </trkpt>
      <trkpt lat="48.52699" lon="-2.55785">
        <ele>124</ele>
        <time>2013-05-26T09:19:23.000Z</time>
      </trkpt>
      <trkpt lat="48.52699" lon="-2.55774">
        <ele>122.6</ele>
        <time>2013-05-26T09:19:24.000Z</time>
      </trkpt>
      <trkpt lat="48.52698" lon="-2.55764">
        <ele>122.5</ele>
        <time>2013-05-26T09:19:25.000Z</time>
      </trkpt>
      <trkpt lat="48.52699" lon="-2.55756">
        <ele>126.7</ele>
        <time>2013-05-26T09:19:26.000Z</time>
      </trkpt>
      <trkpt lat="48.52699" lon="-2.55746">
        <ele>127.4</ele>
        <time>2013-05-26T09:19:27.000Z</time>
      </trkpt>
      <trkpt lat="48.52698" lon="-2.55737">
        <ele>128.3</ele>
        <time>2013-05-26T09:19:28.000Z</time>
      </trkpt>
      <trkpt lat="48.52697" lon="-2.55727">
        <ele>128.9</ele>
        <time>2013-05-26T09:19:29.000Z</time>
      </trkpt>
      <trkpt lat="48.52696" lon="-2.55717">
        <ele>128.9</ele>
        <time>2013-05-26T09:19:30.000Z</time>
      </trkpt>
      <trkpt lat="48.52696" lon="-2.55707">
        <ele>128.4</ele>
        <time>2013-05-26T09:19:31.000Z</time>
      </trkpt>
      <trkpt lat="48.52696" lon="-2.55697">
        <ele>128.6</ele>
        <time>2013-05-26T09:19:32.000Z</time>
      </trkpt>
      <trkpt lat="48.52696" lon="-2.55688">
        <ele>128.6</ele>
        <time>2013-05-26T09:19:33.000Z</time>
      </trkpt>
      <trkpt lat="48.52695" lon="-2.55678">
        <ele>128.4</ele>
        <time>2013-05-26T09:19:34.000Z</time>
      </trkpt>
      <trkpt lat="48.52694" lon="-2.55668">
        <ele>127.9</ele>
        <time>2013-05-26T09:19:35.000Z</time>
      </trkpt>
      <trkpt lat="48.52694" lon="-2.55659">
        <ele>127.8</ele>
        <time>2013-05-26T09:19:36.000Z</time>
      </trkpt>
      <trkpt lat="48.52694" lon="-2.55649">
        <ele>128.5</ele>
        <time>2013-05-26T09:19:37.000Z</time>
      </trkpt>
      <trkpt lat="48.52693" lon="-2.5564">
        <ele>128.6</ele>
        <time>2013-05-26T09:19:38.000Z</time>
      </trkpt>
      <trkpt lat="48.52693" lon="-2.5563">
        <ele>128.7</ele>
        <time>2013-05-26T09:19:39.000Z</time>
      </trkpt>
      <trkpt lat="48.52693" lon="-2.55621">
        <ele>128.9</ele>
        <time>2013-05-26T09:19:40.000Z</time>
      </trkpt>
      <trkpt lat="48.52693" lon="-2.55613">
        <ele>129.2</ele>
        <time>2013-05-26T09:19:41.000Z</time>
      </trkpt>
      <trkpt lat="48.52693" lon="-2.55604">
        <ele>129.1</ele>
        <time>2013-05-26T09:19:42.000Z</time>
      </trkpt>
      <trkpt lat="48.52693" lon="-2.55596">
        <ele>129.3</ele>
        <time>2013-05-26T09:19:43.000Z</time>
      </trkpt>
      <trkpt lat="48.52693" lon="-2.55588">
        <ele>129.6</ele>
        <time>2013-05-26T09:19:44.000Z</time>
      </trkpt>
      <trkpt lat="48.52693" lon="-2.5558">
        <ele>130.2</ele>
        <time>2013-05-26T09:19:45.000Z</time>
      </trkpt>
      <trkpt lat="48.52694" lon="-2.55572">
        <ele>130.8</ele>
        <time>2013-05-26T09:19:46.000Z</time>
      </trkpt>
      <trkpt lat="48.52695" lon="-2.55565">
        <ele>131.8</ele>
        <time>2013-05-26T09:19:47.000Z</time>
      </trkpt>
      <trkpt lat="48.52697" lon="-2.55557">
        <ele>132.9</ele>
        <time>2013-05-26T09:19:48.000Z</time>
      </trkpt>
      <trkpt lat="48.52699" lon="-2.55549">
        <ele>133.9</ele>
        <time>2013-05-26T09:19:49.000Z</time>
      </trkpt>
      <trkpt lat="48.52701" lon="-2.55541">
        <ele>134</ele>
        <time>2013-05-26T09:19:50.000Z</time>
      </trkpt>
      <trkpt lat="48.52704" lon="-2.55534">
        <ele>134.3</ele>
        <time>2013-05-26T09:19:51.000Z</time>
      </trkpt>
      <trkpt lat="48.52708" lon="-2.55526">
        <ele>134.3</ele>
        <time>2013-05-26T09:19:52.000Z</time>
      </trkpt>
      <trkpt lat="48.52712" lon="-2.55518">
        <ele>134.5</ele>
        <time>2013-05-26T09:19:53.000Z</time>
      </trkpt>
      <trkpt lat="48.52715" lon="-2.5551">
        <ele>134.7</ele>
        <time>2013-05-26T09:19:54.000Z</time>
      </trkpt>
      <trkpt lat="48.52719" lon="-2.55503">
        <ele>134.6</ele>
        <time>2013-05-26T09:19:55.000Z</time>
      </trkpt>
      <trkpt lat="48.52722" lon="-2.55495">
        <ele>134.6</ele>
        <time>2013-05-26T09:19:56.000Z</time>
      </trkpt>
      <trkpt lat="48.52725" lon="-2.55487">
        <ele>134.9</ele>
        <time>2013-05-26T09:19:57.000Z</time>
      </trkpt>
      <trkpt lat="48.52729" lon="-2.55479">
        <ele>135</ele>
        <time>2013-05-26T09:19:58.000Z</time>
      </trkpt>
      <trkpt lat="48.52732" lon="-2.55471">
        <ele>135.2</ele>
        <time>2013-05-26T09:19:59.000Z</time>
      </trkpt>
      <trkpt lat="48.52736" lon="-2.55464">
        <ele>135.3</ele>
        <time>2013-05-26T09:20:00.000Z</time>
      </trkpt>
      <trkpt lat="48.52739" lon="-2.55456">
        <ele>135.4</ele>
        <time>2013-05-26T09:20:01.000Z</time>
      </trkpt>
      <trkpt lat="48.52743" lon="-2.55448">
        <ele>135.4</ele>
        <time>2013-05-26T09:20:02.000Z</time>
      </trkpt>
      <trkpt lat="48.52746" lon="-2.55441">
        <ele>135.4</ele>
        <time>2013-05-26T09:20:03.000Z</time>
      </trkpt>
      <trkpt lat="48.5275" lon="-2.55434">
        <ele>135.4</ele>
        <time>2013-05-26T09:20:04.000Z</time>
      </trkpt>
      <trkpt lat="48.52753" lon="-2.55426">
        <ele>135.2</ele>
        <time>2013-05-26T09:20:05.000Z</time>
      </trkpt>
      <trkpt lat="48.52755" lon="-2.55418">
        <ele>134.8</ele>
        <time>2013-05-26T09:20:06.000Z</time>
      </trkpt>
      <trkpt lat="48.52757" lon="-2.5541">
        <ele>134.5</ele>
        <time>2013-05-26T09:20:07.000Z</time>
      </trkpt>
      <trkpt lat="48.52759" lon="-2.55402">
        <ele>134.4</ele>
        <time>2013-05-26T09:20:08.000Z</time>
      </trkpt>
      <trkpt lat="48.52761" lon="-2.55394">
        <ele>134.3</ele>
        <time>2013-05-26T09:20:09.000Z</time>
      </trkpt>
      <trkpt lat="48.52761" lon="-2.55386">
        <ele>134.1</ele>
        <time>2013-05-26T09:20:10.000Z</time>
      </trkpt>
      <trkpt lat="48.52761" lon="-2.55378">
        <ele>134.1</ele>
        <time>2013-05-26T09:20:11.000Z</time>
      </trkpt>
      <trkpt lat="48.52761" lon="-2.5537">
        <ele>134.2</ele>
        <time>2013-05-26T09:20:12.000Z</time>
      </trkpt>
      <trkpt lat="48.5276" lon="-2.55362">
        <ele>134.1</ele>
        <time>2013-05-26T09:20:13.000Z</time>
      </trkpt>
      <trkpt lat="48.52758" lon="-2.55353">
        <ele>134.1</ele>
        <time>2013-05-26T09:20:14.000Z</time>
      </trkpt>
      <trkpt lat="48.52757" lon="-2.55345">
        <ele>134.1</ele>
        <time>2013-05-26T09:20:15.000Z</time>
      </trkpt>
      <trkpt lat="48.52755" lon="-2.55336">
        <ele>134.1</ele>
        <time>2013-05-26T09:20:16.000Z</time>
      </trkpt>
      <trkpt lat="48.52753" lon="-2.55328">
        <ele>134</ele>
        <time>2013-05-26T09:20:17.000Z</time>
      </trkpt>
      <trkpt lat="48.52752" lon="-2.55319">
        <ele>134</ele>
        <time>2013-05-26T09:20:18.000Z</time>
      </trkpt>
      <trkpt lat="48.52736" lon="-2.55285">
        <ele>134</ele>
        <time>2013-05-26T09:20:20.000Z</time>
      </trkpt>
      <trkpt lat="48.52746" lon="-2.55279">
        <ele>131.6</ele>
        <time>2013-05-26T09:20:22.000Z</time>
      </trkpt>
      <trkpt lat="48.52744" lon="-2.55272">
        <ele>130.6</ele>
        <time>2013-05-26T09:20:23.000Z</time>
      </trkpt>
      <trkpt lat="48.52747" lon="-2.55265">
        <ele>130.5</ele>
        <time>2013-05-26T09:20:25.000Z</time>
      </trkpt>
      <trkpt lat="48.52752" lon="-2.55251">
        <ele>129</ele>
        <time>2013-05-26T09:20:26.000Z</time>
      </trkpt>
      <trkpt lat="48.52755" lon="-2.55242">
        <ele>129.3</ele>
        <time>2013-05-26T09:20:27.000Z</time>
      </trkpt>
      <trkpt lat="48.52757" lon="-2.55235">
        <ele>130.7</ele>
        <time>2013-05-26T09:20:28.000Z</time>
      </trkpt>
      <trkpt lat="48.52759" lon="-2.5523">
        <ele>132.2</ele>
        <time>2013-05-26T09:20:29.000Z</time>
      </trkpt>
      <trkpt lat="48.52762" lon="-2.55222">
        <ele>133.1</ele>
        <time>2013-05-26T09:20:30.000Z</time>
      </trkpt>
      <trkpt lat="48.52765" lon="-2.55215">
        <ele>133.7</ele>
        <time>2013-05-26T09:20:31.000Z</time>
      </trkpt>
      <trkpt lat="48.52768" lon="-2.55207">
        <ele>133.9</ele>
        <time>2013-05-26T09:20:32.000Z</time>
      </trkpt>
      <trkpt lat="48.52771" lon="-2.552">
        <ele>134.2</ele>
        <time>2013-05-26T09:20:33.000Z</time>
      </trkpt>
      <trkpt lat="48.52774" lon="-2.55193">
        <ele>134.7</ele>
        <time>2013-05-26T09:20:34.000Z</time>
      </trkpt>
      <trkpt lat="48.52777" lon="-2.55186">
        <ele>135.7</ele>
        <time>2013-05-26T09:20:35.000Z</time>
      </trkpt>
      <trkpt lat="48.5278" lon="-2.55178">
        <ele>135.8</ele>
        <time>2013-05-26T09:20:36.000Z</time>
      </trkpt>
      <trkpt lat="48.52783" lon="-2.55171">
        <ele>136.1</ele>
        <time>2013-05-26T09:20:37.000Z</time>
      </trkpt>
      <trkpt lat="48.52786" lon="-2.55163">
        <ele>136</ele>
        <time>2013-05-26T09:20:38.000Z</time>
      </trkpt>
      <trkpt lat="48.52788" lon="-2.55156">
        <ele>136.6</ele>
        <time>2013-05-26T09:20:39.000Z</time>
      </trkpt>
      <trkpt lat="48.52791" lon="-2.55149">
        <ele>136.8</ele>
        <time>2013-05-26T09:20:40.000Z</time>
      </trkpt>
      <trkpt lat="48.52794" lon="-2.55142">
        <ele>137.1</ele>
        <time>2013-05-26T09:20:41.000Z</time>
      </trkpt>
      <trkpt lat="48.52797" lon="-2.55135">
        <ele>137.3</ele>
        <time>2013-05-26T09:20:42.000Z</time>
      </trkpt>
      <trkpt lat="48.52799" lon="-2.55128">
        <ele>137.7</ele>
        <time>2013-05-26T09:20:43.000Z</time>
      </trkpt>
      <trkpt lat="48.52802" lon="-2.5512">
        <ele>137.8</ele>
        <time>2013-05-26T09:20:44.000Z</time>
      </trkpt>
      <trkpt lat="48.52805" lon="-2.55113">
        <ele>137.8</ele>
        <time>2013-05-26T09:20:45.000Z</time>
      </trkpt>
      <trkpt lat="48.52807" lon="-2.55106">
        <ele>138.6</ele>
        <time>2013-05-26T09:20:46.000Z</time>
      </trkpt>
      <trkpt lat="48.52809" lon="-2.55098">
        <ele>139.5</ele>
        <time>2013-05-26T09:20:47.000Z</time>
      </trkpt>
      <trkpt lat="48.52812" lon="-2.5509">
        <ele>139.8</ele>
        <time>2013-05-26T09:20:48.000Z</time>
      </trkpt>
      <trkpt lat="48.52814" lon="-2.55083">
        <ele>140.4</ele>
        <time>2013-05-26T09:20:49.000Z</time>
      </trkpt>
      <trkpt lat="48.52816" lon="-2.55075">
        <ele>141</ele>
        <time>2013-05-26T09:20:50.000Z</time>
      </trkpt>
      <trkpt lat="48.52817" lon="-2.55067">
        <ele>140.8</ele>
        <time>2013-05-26T09:20:51.000Z</time>
      </trkpt>
      <trkpt lat="48.52819" lon="-2.55059">
        <ele>140.7</ele>
        <time>2013-05-26T09:20:52.000Z</time>
      </trkpt>
      <trkpt lat="48.52821" lon="-2.55052">
        <ele>140.9</ele>
        <time>2013-05-26T09:20:53.000Z</time>
      </trkpt>
      <trkpt lat="48.52822" lon="-2.55045">
        <ele>141.2</ele>
        <time>2013-05-26T09:20:54.000Z</time>
      </trkpt>
      <trkpt lat="48.52824" lon="-2.55038">
        <ele>141.4</ele>
        <time>2013-05-26T09:20:55.000Z</time>
      </trkpt>
      <trkpt lat="48.52826" lon="-2.55032">
        <ele>141.5</ele>
        <time>2013-05-26T09:20:56.000Z</time>
      </trkpt>
      <trkpt lat="48.52827" lon="-2.55026">
        <ele>141.5</ele>
        <time>2013-05-26T09:20:57.000Z</time>
      </trkpt>
      <trkpt lat="48.52827" lon="-2.5502">
        <ele>141.4</ele>
        <time>2013-05-26T09:20:58.000Z</time>
      </trkpt>
      <trkpt lat="48.52825" lon="-2.55017">
        <ele>141.2</ele>
        <time>2013-05-26T09:20:59.000Z</time>
      </trkpt>
      <trkpt lat="48.52823" lon="-2.55015">
        <ele>141.1</ele>
        <time>2013-05-26T09:21:00.000Z</time>
      </trkpt>
      <trkpt lat="48.52821" lon="-2.55012">
        <ele>141.1</ele>
        <time>2013-05-26T09:21:01.000Z</time>
      </trkpt>
      <trkpt lat="48.52818" lon="-2.5501">
        <ele>141.2</ele>
        <time>2013-05-26T09:21:02.000Z</time>
      </trkpt>
      <trkpt lat="48.52815" lon="-2.55008">
        <ele>141.1</ele>
        <time>2013-05-26T09:21:03.000Z</time>
      </trkpt>
      <trkpt lat="48.52811" lon="-2.55005">
        <ele>140.8</ele>
        <time>2013-05-26T09:21:04.000Z</time>
      </trkpt>
      <trkpt lat="48.52807" lon="-2.55003">
        <ele>140.6</ele>
        <time>2013-05-26T09:21:05.000Z</time>
      </trkpt>
      <trkpt lat="48.52803" lon="-2.55001">
        <ele>140.4</ele>
        <time>2013-05-26T09:21:06.000Z</time>
      </trkpt>
      <trkpt lat="48.52799" lon="-2.54998">
        <ele>140.2</ele>
        <time>2013-05-26T09:21:07.000Z</time>
      </trkpt>
      <trkpt lat="48.52794" lon="-2.54996">
        <ele>140</ele>
        <time>2013-05-26T09:21:08.000Z</time>
      </trkpt>
      <trkpt lat="48.5279" lon="-2.54994">
        <ele>139.7</ele>
        <time>2013-05-26T09:21:09.000Z</time>
      </trkpt>
      <trkpt lat="48.52786" lon="-2.54993">
        <ele>139.7</ele>
        <time>2013-05-26T09:21:10.000Z</time>
      </trkpt>
      <trkpt lat="48.52781" lon="-2.5499">
        <ele>139.5</ele>
        <time>2013-05-26T09:21:11.000Z</time>
      </trkpt>
      <trkpt lat="48.52777" lon="-2.54987">
        <ele>139.2</ele>
        <time>2013-05-26T09:21:12.000Z</time>
      </trkpt>
      <trkpt lat="48.52774" lon="-2.54984">
        <ele>139.2</ele>
        <time>2013-05-26T09:21:13.000Z</time>
      </trkpt>
      <trkpt lat="48.5277" lon="-2.54982">
        <ele>139.2</ele>
        <time>2013-05-26T09:21:14.000Z</time>
      </trkpt>
      <trkpt lat="48.52767" lon="-2.5498">
        <ele>139.3</ele>
        <time>2013-05-26T09:21:15.000Z</time>
      </trkpt>
      <trkpt lat="48.52764" lon="-2.54977">
        <ele>139.5</ele>
        <time>2013-05-26T09:21:16.000Z</time>
      </trkpt>
      <trkpt lat="48.52761" lon="-2.54975">
        <ele>139.4</ele>
        <time>2013-05-26T09:21:17.000Z</time>
      </trkpt>
      <trkpt lat="48.52758" lon="-2.54972">
        <ele>139.4</ele>
        <time>2013-05-26T09:21:18.000Z</time>
      </trkpt>
      <trkpt lat="48.52746" lon="-2.54968">
        <ele>146.3</ele>
        <time>2013-05-26T09:21:21.000Z</time>
      </trkpt>
      <trkpt lat="48.52735" lon="-2.54955">
        <ele>148.8</ele>
        <time>2013-05-26T09:21:23.000Z</time>
      </trkpt>
      <trkpt lat="48.52731" lon="-2.54951">
        <ele>143.3</ele>
        <time>2013-05-26T09:21:24.000Z</time>
      </trkpt>
      <trkpt lat="48.52727" lon="-2.54948">
        <ele>141.9</ele>
        <time>2013-05-26T09:21:25.000Z</time>
      </trkpt>
      <trkpt lat="48.52723" lon="-2.54946">
        <ele>140.3</ele>
        <time>2013-05-26T09:21:26.000Z</time>
      </trkpt>
      <trkpt lat="48.5272" lon="-2.54942">
        <ele>143.3</ele>
        <time>2013-05-26T09:21:27.000Z</time>
      </trkpt>
      <trkpt lat="48.52716" lon="-2.54941">
        <ele>142.4</ele>
        <time>2013-05-26T09:21:28.000Z</time>
      </trkpt>
      <trkpt lat="48.52711" lon="-2.54939">
        <ele>139.8</ele>
        <time>2013-05-26T09:21:29.000Z</time>
      </trkpt>
      <trkpt lat="48.52708" lon="-2.54938">
        <ele>138.9</ele>
        <time>2013-05-26T09:21:30.000Z</time>
      </trkpt>
      <trkpt lat="48.52705" lon="-2.54937">
        <ele>139.9</ele>
        <time>2013-05-26T09:21:31.000Z</time>
      </trkpt>
      <trkpt lat="48.52702" lon="-2.54933">
        <ele>140.7</ele>
        <time>2013-05-26T09:21:32.000Z</time>
      </trkpt>
      <trkpt lat="48.527" lon="-2.54931">
        <ele>142.5</ele>
        <time>2013-05-26T09:21:33.000Z</time>
      </trkpt>
      <trkpt lat="48.52697" lon="-2.54928">
        <ele>143.8</ele>
        <time>2013-05-26T09:21:34.000Z</time>
      </trkpt>
      <trkpt lat="48.52694" lon="-2.54926">
        <ele>143.5</ele>
        <time>2013-05-26T09:21:35.000Z</time>
      </trkpt>
      <trkpt lat="48.5269" lon="-2.54921">
        <ele>145.8</ele>
        <time>2013-05-26T09:21:36.000Z</time>
      </trkpt>
      <trkpt lat="48.52686" lon="-2.54917">
        <ele>145.8</ele>
        <time>2013-05-26T09:21:37.000Z</time>
      </trkpt>
      <trkpt lat="48.52682" lon="-2.54914">
        <ele>146.1</ele>
        <time>2013-05-26T09:21:38.000Z</time>
      </trkpt>
      <trkpt lat="48.52678" lon="-2.54909">
        <ele>145.8</ele>
        <time>2013-05-26T09:21:39.000Z</time>
      </trkpt>
      <trkpt lat="48.52674" lon="-2.54905">
        <ele>145.6</ele>
        <time>2013-05-26T09:21:40.000Z</time>
      </trkpt>
      <trkpt lat="48.5267" lon="-2.54902">
        <ele>145.2</ele>
        <time>2013-05-26T09:21:41.000Z</time>
      </trkpt>
      <trkpt lat="48.52666" lon="-2.54899">
        <ele>145.3</ele>
        <time>2013-05-26T09:21:42.000Z</time>
      </trkpt>
      <trkpt lat="48.52663" lon="-2.54896">
        <ele>145.4</ele>
        <time>2013-05-26T09:21:43.000Z</time>
      </trkpt>
      <trkpt lat="48.52659" lon="-2.54893">
        <ele>145.2</ele>
        <time>2013-05-26T09:21:44.000Z</time>
      </trkpt>
      <trkpt lat="48.52655" lon="-2.54891">
        <ele>144.4</ele>
        <time>2013-05-26T09:21:45.000Z</time>
      </trkpt>
      <trkpt lat="48.52651" lon="-2.5489">
        <ele>144.6</ele>
        <time>2013-05-26T09:21:46.000Z</time>
      </trkpt>
      <trkpt lat="48.52646" lon="-2.54888">
        <ele>143.8</ele>
        <time>2013-05-26T09:21:47.000Z</time>
      </trkpt>
      <trkpt lat="48.52641" lon="-2.54886">
        <ele>144.3</ele>
        <time>2013-05-26T09:21:48.000Z</time>
      </trkpt>
      <trkpt lat="48.52637" lon="-2.54883">
        <ele>143.9</ele>
        <time>2013-05-26T09:21:49.000Z</time>
      </trkpt>
      <trkpt lat="48.52632" lon="-2.5488">
        <ele>142.6</ele>
        <time>2013-05-26T09:21:50.000Z</time>
      </trkpt>
      <trkpt lat="48.52628" lon="-2.54877">
        <ele>141.8</ele>
        <time>2013-05-26T09:21:51.000Z</time>
      </trkpt>
      <trkpt lat="48.52623" lon="-2.54874">
        <ele>141</ele>
        <time>2013-05-26T09:21:52.000Z</time>
      </trkpt>
      <trkpt lat="48.52618" lon="-2.54871">
        <ele>140.1</ele>
        <time>2013-05-26T09:21:53.000Z</time>
      </trkpt>
      <trkpt lat="48.52614" lon="-2.54868">
        <ele>139.2</ele>
        <time>2013-05-26T09:21:54.000Z</time>
      </trkpt>
      <trkpt lat="48.52609" lon="-2.54865">
        <ele>138.3</ele>
        <time>2013-05-26T09:21:55.000Z</time>
      </trkpt>
      <trkpt lat="48.52605" lon="-2.54863">
        <ele>138.2</ele>
        <time>2013-05-26T09:21:56.000Z</time>
      </trkpt>
      <trkpt lat="48.526" lon="-2.5486">
        <ele>138.2</ele>
        <time>2013-05-26T09:21:57.000Z</time>
      </trkpt>
      <trkpt lat="48.52595" lon="-2.54856">
        <ele>137.9</ele>
        <time>2013-05-26T09:21:58.000Z</time>
      </trkpt>
      <trkpt lat="48.52589" lon="-2.54853">
        <ele>137.5</ele>
        <time>2013-05-26T09:21:59.000Z</time>
      </trkpt>
      <trkpt lat="48.52583" lon="-2.5485">
        <ele>137.1</ele>
        <time>2013-05-26T09:22:00.000Z</time>
      </trkpt>
      <trkpt lat="48.52578" lon="-2.54848">
        <ele>136.8</ele>
        <time>2013-05-26T09:22:01.000Z</time>
      </trkpt>
      <trkpt lat="48.52572" lon="-2.54846">
        <ele>136.6</ele>
        <time>2013-05-26T09:22:02.000Z</time>
      </trkpt>
      <trkpt lat="48.52566" lon="-2.54845">
        <ele>136.7</ele>
        <time>2013-05-26T09:22:03.000Z</time>
      </trkpt>
      <trkpt lat="48.52561" lon="-2.54845">
        <ele>137.1</ele>
        <time>2013-05-26T09:22:04.000Z</time>
      </trkpt>
      <trkpt lat="48.52555" lon="-2.54845">
        <ele>137.1</ele>
        <time>2013-05-26T09:22:05.000Z</time>
      </trkpt>
      <trkpt lat="48.52549" lon="-2.54844">
        <ele>136.7</ele>
        <time>2013-05-26T09:22:06.000Z</time>
      </trkpt>
      <trkpt lat="48.52543" lon="-2.54844">
        <ele>136.7</ele>
        <time>2013-05-26T09:22:07.000Z</time>
      </trkpt>
      <trkpt lat="48.52538" lon="-2.54843">
        <ele>137.1</ele>
        <time>2013-05-26T09:22:08.000Z</time>
      </trkpt>
      <trkpt lat="48.52537" lon="-2.54836">
        <ele>137.8</ele>
        <time>2013-05-26T09:22:12.000Z</time>
      </trkpt>
      <trkpt lat="48.52536" lon="-2.54831">
        <ele>138</ele>
        <time>2013-05-26T09:22:13.000Z</time>
      </trkpt>
      <trkpt lat="48.52535" lon="-2.54824">
        <ele>138.3</ele>
        <time>2013-05-26T09:22:14.000Z</time>
      </trkpt>
      <trkpt lat="48.52535" lon="-2.54818">
        <ele>138.4</ele>
        <time>2013-05-26T09:22:15.000Z</time>
      </trkpt>
      <trkpt lat="48.52534" lon="-2.54811">
        <ele>138.5</ele>
        <time>2013-05-26T09:22:16.000Z</time>
      </trkpt>
      <trkpt lat="48.52532" lon="-2.54806">
        <ele>138.4</ele>
        <time>2013-05-26T09:22:17.000Z</time>
      </trkpt>
      <trkpt lat="48.52531" lon="-2.54799">
        <ele>138.6</ele>
        <time>2013-05-26T09:22:18.000Z</time>
      </trkpt>
      <trkpt lat="48.52512" lon="-2.54753">
        <ele>146.4</ele>
        <time>2013-05-26T09:22:22.000Z</time>
      </trkpt>
      <trkpt lat="48.5251" lon="-2.54743">
        <ele>148.2</ele>
        <time>2013-05-26T09:22:23.000Z</time>
      </trkpt>
      <trkpt lat="48.52507" lon="-2.54738">
        <ele>146.2</ele>
        <time>2013-05-26T09:22:24.000Z</time>
      </trkpt>
      <trkpt lat="48.52504" lon="-2.54733">
        <ele>145.2</ele>
        <time>2013-05-26T09:22:25.000Z</time>
      </trkpt>
      <trkpt lat="48.52499" lon="-2.54727">
        <ele>142.5</ele>
        <time>2013-05-26T09:22:26.000Z</time>
      </trkpt>
      <trkpt lat="48.52494" lon="-2.54724">
        <ele>140.8</ele>
        <time>2013-05-26T09:22:27.000Z</time>
      </trkpt>
      <trkpt lat="48.52489" lon="-2.54723">
        <ele>141.4</ele>
        <time>2013-05-26T09:22:28.000Z</time>
      </trkpt>
      <trkpt lat="48.52483" lon="-2.54726">
        <ele>141.4</ele>
        <time>2013-05-26T09:22:29.000Z</time>
      </trkpt>
      <trkpt lat="48.52477" lon="-2.54729">
        <ele>139.8</ele>
        <time>2013-05-26T09:22:30.000Z</time>
      </trkpt>
      <trkpt lat="48.52472" lon="-2.5473">
        <ele>140</ele>
        <time>2013-05-26T09:22:31.000Z</time>
      </trkpt>
      <trkpt lat="48.52468" lon="-2.54733">
        <ele>140.5</ele>
        <time>2013-05-26T09:22:32.000Z</time>
      </trkpt>
      <trkpt lat="48.52462" lon="-2.54735">
        <ele>140.9</ele>
        <time>2013-05-26T09:22:33.000Z</time>
      </trkpt>
      <trkpt lat="48.52457" lon="-2.54736">
        <ele>141.1</ele>
        <time>2013-05-26T09:22:34.000Z</time>
      </trkpt>
      <trkpt lat="48.52451" lon="-2.54739">
        <ele>140</ele>
        <time>2013-05-26T09:22:35.000Z</time>
      </trkpt>
      <trkpt lat="48.52445" lon="-2.5474">
        <ele>140.1</ele>
        <time>2013-05-26T09:22:36.000Z</time>
      </trkpt>
      <trkpt lat="48.52439" lon="-2.54743">
        <ele>140.9</ele>
        <time>2013-05-26T09:22:37.000Z</time>
      </trkpt>
      <trkpt lat="48.52434" lon="-2.54746">
        <ele>140.6</ele>
        <time>2013-05-26T09:22:38.000Z</time>
      </trkpt>
      <trkpt lat="48.5243" lon="-2.54749">
        <ele>140.5</ele>
        <time>2013-05-26T09:22:39.000Z</time>
      </trkpt>
      <trkpt lat="48.52426" lon="-2.54755">
        <ele>141.3</ele>
        <time>2013-05-26T09:22:40.000Z</time>
      </trkpt>
      <trkpt lat="48.52423" lon="-2.5476">
        <ele>141.1</ele>
        <time>2013-05-26T09:22:41.000Z</time>
      </trkpt>
      <trkpt lat="48.5242" lon="-2.54766">
        <ele>142.2</ele>
        <time>2013-05-26T09:22:42.000Z</time>
      </trkpt>
      <trkpt lat="48.52416" lon="-2.54772">
        <ele>141.9</ele>
        <time>2013-05-26T09:22:43.000Z</time>
      </trkpt>
      <trkpt lat="48.52414" lon="-2.54777">
        <ele>141.9</ele>
        <time>2013-05-26T09:22:44.000Z</time>
      </trkpt>
      <trkpt lat="48.52412" lon="-2.54782">
        <ele>142.8</ele>
        <time>2013-05-26T09:22:45.000Z</time>
      </trkpt>
      <trkpt lat="48.5241" lon="-2.54788">
        <ele>143.8</ele>
        <time>2013-05-26T09:22:46.000Z</time>
      </trkpt>
      <trkpt lat="48.52407" lon="-2.54792">
        <ele>145</ele>
        <time>2013-05-26T09:22:47.000Z</time>
      </trkpt>
      <trkpt lat="48.52404" lon="-2.54799">
        <ele>144.9</ele>
        <time>2013-05-26T09:22:48.000Z</time>
      </trkpt>
      <trkpt lat="48.52401" lon="-2.54804">
        <ele>144.9</ele>
        <time>2013-05-26T09:22:49.000Z</time>
      </trkpt>
      <trkpt lat="48.52398" lon="-2.5481">
        <ele>144.4</ele>
        <time>2013-05-26T09:22:50.000Z</time>
      </trkpt>
      <trkpt lat="48.52394" lon="-2.54815">
        <ele>144.3</ele>
        <time>2013-05-26T09:22:51.000Z</time>
      </trkpt>
      <trkpt lat="48.52389" lon="-2.5482">
        <ele>144.2</ele>
        <time>2013-05-26T09:22:52.000Z</time>
      </trkpt>
      <trkpt lat="48.52385" lon="-2.54824">
        <ele>144</ele>
        <time>2013-05-26T09:22:53.000Z</time>
      </trkpt>
      <trkpt lat="48.52381" lon="-2.54829">
        <ele>143.6</ele>
        <time>2013-05-26T09:22:54.000Z</time>
      </trkpt>
      <trkpt lat="48.52376" lon="-2.54833">
        <ele>143.3</ele>
        <time>2013-05-26T09:22:55.000Z</time>
      </trkpt>
      <trkpt lat="48.52372" lon="-2.54836">
        <ele>143.1</ele>
        <time>2013-05-26T09:22:56.000Z</time>
      </trkpt>
      <trkpt lat="48.52367" lon="-2.5484">
        <ele>143.2</ele>
        <time>2013-05-26T09:22:57.000Z</time>
      </trkpt>
      <trkpt lat="48.52363" lon="-2.54843">
        <ele>143.1</ele>
        <time>2013-05-26T09:22:58.000Z</time>
      </trkpt>
      <trkpt lat="48.52357" lon="-2.54846">
        <ele>143.2</ele>
        <time>2013-05-26T09:22:59.000Z</time>
      </trkpt>
      <trkpt lat="48.52353" lon="-2.54849">
        <ele>143.1</ele>
        <time>2013-05-26T09:23:00.000Z</time>
      </trkpt>
      <trkpt lat="48.52347" lon="-2.54851">
        <ele>143.2</ele>
        <time>2013-05-26T09:23:01.000Z</time>
      </trkpt>
      <trkpt lat="48.52342" lon="-2.54853">
        <ele>143</ele>
        <time>2013-05-26T09:23:02.000Z</time>
      </trkpt>
      <trkpt lat="48.52337" lon="-2.54853">
        <ele>142.9</ele>
        <time>2013-05-26T09:23:03.000Z</time>
      </trkpt>
      <trkpt lat="48.52332" lon="-2.54853">
        <ele>142.5</ele>
        <time>2013-05-26T09:23:04.000Z</time>
      </trkpt>
      <trkpt lat="48.52327" lon="-2.54851">
        <ele>142.1</ele>
        <time>2013-05-26T09:23:05.000Z</time>
      </trkpt>
      <trkpt lat="48.52323" lon="-2.54849">
        <ele>141.7</ele>
        <time>2013-05-26T09:23:06.000Z</time>
      </trkpt>
      <trkpt lat="48.52318" lon="-2.54848">
        <ele>141.2</ele>
        <time>2013-05-26T09:23:07.000Z</time>
      </trkpt>
      <trkpt lat="48.52313" lon="-2.54846">
        <ele>140.7</ele>
        <time>2013-05-26T09:23:08.000Z</time>
      </trkpt>
      <trkpt lat="48.52308" lon="-2.54843">
        <ele>140.5</ele>
        <time>2013-05-26T09:23:09.000Z</time>
      </trkpt>
      <trkpt lat="48.52304" lon="-2.54841">
        <ele>140.3</ele>
        <time>2013-05-26T09:23:10.000Z</time>
      </trkpt>
      <trkpt lat="48.52299" lon="-2.54838">
        <ele>140.3</ele>
        <time>2013-05-26T09:23:11.000Z</time>
      </trkpt>
      <trkpt lat="48.52295" lon="-2.54835">
        <ele>140.2</ele>
        <time>2013-05-26T09:23:12.000Z</time>
      </trkpt>
      <trkpt lat="48.52291" lon="-2.54831">
        <ele>140.1</ele>
        <time>2013-05-26T09:23:13.000Z</time>
      </trkpt>
      <trkpt lat="48.52286" lon="-2.54828">
        <ele>139.8</ele>
        <time>2013-05-26T09:23:14.000Z</time>
      </trkpt>
      <trkpt lat="48.52282" lon="-2.54824">
        <ele>139.6</ele>
        <time>2013-05-26T09:23:15.000Z</time>
      </trkpt>
      <trkpt lat="48.52279" lon="-2.5482">
        <ele>139.2</ele>
        <time>2013-05-26T09:23:16.000Z</time>
      </trkpt>
      <trkpt lat="48.52275" lon="-2.54817">
        <ele>139</ele>
        <time>2013-05-26T09:23:17.000Z</time>
      </trkpt>
      <trkpt lat="48.52272" lon="-2.54813">
        <ele>138.9</ele>
        <time>2013-05-26T09:23:18.000Z</time>
      </trkpt>
      <trkpt lat="48.52252" lon="-2.54808">
        <ele>148.3</ele>
        <time>2013-05-26T09:23:22.000Z</time>
      </trkpt>
      <trkpt lat="48.52249" lon="-2.54806">
        <ele>152.2</ele>
        <time>2013-05-26T09:23:24.000Z</time>
      </trkpt>
      <trkpt lat="48.52244" lon="-2.54803">
        <ele>149.7</ele>
        <time>2013-05-26T09:23:25.000Z</time>
      </trkpt>
      <trkpt lat="48.52241" lon="-2.54801">
        <ele>150.2</ele>
        <time>2013-05-26T09:23:26.000Z</time>
      </trkpt>
      <trkpt lat="48.52236" lon="-2.54799">
        <ele>147.3</ele>
        <time>2013-05-26T09:23:27.000Z</time>
      </trkpt>
      <trkpt lat="48.52228" lon="-2.54797">
        <ele>142.3</ele>
        <time>2013-05-26T09:23:28.000Z</time>
      </trkpt>
      <trkpt lat="48.52223" lon="-2.54797">
        <ele>141.3</ele>
        <time>2013-05-26T09:23:29.000Z</time>
      </trkpt>
      <trkpt lat="48.52219" lon="-2.54798">
        <ele>142.4</ele>
        <time>2013-05-26T09:23:30.000Z</time>
      </trkpt>
      <trkpt lat="48.52216" lon="-2.54801">
        <ele>142.3</ele>
        <time>2013-05-26T09:23:31.000Z</time>
      </trkpt>
      <trkpt lat="48.52214" lon="-2.54806">
        <ele>143.6</ele>
        <time>2013-05-26T09:23:32.000Z</time>
      </trkpt>
      <trkpt lat="48.52214" lon="-2.54812">
        <ele>143.3</ele>
        <time>2013-05-26T09:23:33.000Z</time>
      </trkpt>
      <trkpt lat="48.52215" lon="-2.5482">
        <ele>143</ele>
        <time>2013-05-26T09:23:34.000Z</time>
      </trkpt>
      <trkpt lat="48.52216" lon="-2.54827">
        <ele>142.8</ele>
        <time>2013-05-26T09:23:35.000Z</time>
      </trkpt>
      <trkpt lat="48.52218" lon="-2.54835">
        <ele>142.4</ele>
        <time>2013-05-26T09:23:36.000Z</time>
      </trkpt>
      <trkpt lat="48.52219" lon="-2.54843">
        <ele>142.1</ele>
        <time>2013-05-26T09:23:37.000Z</time>
      </trkpt>
      <trkpt lat="48.5222" lon="-2.54851">
        <ele>142</ele>
        <time>2013-05-26T09:23:38.000Z</time>
      </trkpt>
      <trkpt lat="48.52221" lon="-2.54859">
        <ele>142.3</ele>
        <time>2013-05-26T09:23:39.000Z</time>
      </trkpt>
      <trkpt lat="48.52222" lon="-2.54867">
        <ele>142.4</ele>
        <time>2013-05-26T09:23:40.000Z</time>
      </trkpt>
      <trkpt lat="48.52223" lon="-2.54875">
        <ele>142.4</ele>
        <time>2013-05-26T09:23:41.000Z</time>
      </trkpt>
      <trkpt lat="48.52223" lon="-2.54884">
        <ele>142.4</ele>
        <time>2013-05-26T09:23:42.000Z</time>
      </trkpt>
      <trkpt lat="48.52224" lon="-2.54893">
        <ele>142.2</ele>
        <time>2013-05-26T09:23:43.000Z</time>
      </trkpt>
      <trkpt lat="48.52225" lon="-2.54902">
        <ele>142.2</ele>
        <time>2013-05-26T09:23:44.000Z</time>
      </trkpt>
      <trkpt lat="48.52226" lon="-2.54912">
        <ele>142.3</ele>
        <time>2013-05-26T09:23:45.000Z</time>
      </trkpt>
      <trkpt lat="48.52226" lon="-2.54921">
        <ele>142.5</ele>
        <time>2013-05-26T09:23:46.000Z</time>
      </trkpt>
      <trkpt lat="48.52227" lon="-2.5493">
        <ele>142.4</ele>
        <time>2013-05-26T09:23:47.000Z</time>
      </trkpt>
      <trkpt lat="48.52227" lon="-2.5494">
        <ele>142.1</ele>
        <time>2013-05-26T09:23:48.000Z</time>
      </trkpt>
      <trkpt lat="48.52228" lon="-2.54949">
        <ele>142</ele>
        <time>2013-05-26T09:23:49.000Z</time>
      </trkpt>
      <trkpt lat="48.52228" lon="-2.54958">
        <ele>141.6</ele>
        <time>2013-05-26T09:23:50.000Z</time>
      </trkpt>
      <trkpt lat="48.52228" lon="-2.54967">
        <ele>141.5</ele>
        <time>2013-05-26T09:23:51.000Z</time>
      </trkpt>
      <trkpt lat="48.52228" lon="-2.54976">
        <ele>141.9</ele>
        <time>2013-05-26T09:23:52.000Z</time>
      </trkpt>
      <trkpt lat="48.52228" lon="-2.54985">
        <ele>142.2</ele>
        <time>2013-05-26T09:23:53.000Z</time>
      </trkpt>
      <trkpt lat="48.52228" lon="-2.54994">
        <ele>142.3</ele>
        <time>2013-05-26T09:23:54.000Z</time>
      </trkpt>
      <trkpt lat="48.52228" lon="-2.55003">
        <ele>142.3</ele>
        <time>2013-05-26T09:23:55.000Z</time>
      </trkpt>
      <trkpt lat="48.52229" lon="-2.55012">
        <ele>142.3</ele>
        <time>2013-05-26T09:23:56.000Z</time>
      </trkpt>
      <trkpt lat="48.52229" lon="-2.55021">
        <ele>142.3</ele>
        <time>2013-05-26T09:23:57.000Z</time>
      </trkpt>
      <trkpt lat="48.52228" lon="-2.5503">
        <ele>142.3</ele>
        <time>2013-05-26T09:23:58.000Z</time>
      </trkpt>
      <trkpt lat="48.52229" lon="-2.55039">
        <ele>142</ele>
        <time>2013-05-26T09:23:59.000Z</time>
      </trkpt>
      <trkpt lat="48.52229" lon="-2.55048">
        <ele>141.9</ele>
        <time>2013-05-26T09:24:00.000Z</time>
      </trkpt>
      <trkpt lat="48.5223" lon="-2.55057">
        <ele>141.7</ele>
        <time>2013-05-26T09:24:01.000Z</time>
      </trkpt>
      <trkpt lat="48.5223" lon="-2.55066">
        <ele>141.8</ele>
        <time>2013-05-26T09:24:02.000Z</time>
      </trkpt>
      <trkpt lat="48.5223" lon="-2.55075">
        <ele>141.3</ele>
        <time>2013-05-26T09:24:03.000Z</time>
      </trkpt>
      <trkpt lat="48.52231" lon="-2.55084">
        <ele>141.1</ele>
        <time>2013-05-26T09:24:04.000Z</time>
      </trkpt>
      <trkpt lat="48.52231" lon="-2.55094">
        <ele>141.1</ele>
        <time>2013-05-26T09:24:05.000Z</time>
      </trkpt>
      <trkpt lat="48.52231" lon="-2.55103">
        <ele>141.2</ele>
        <time>2013-05-26T09:24:06.000Z</time>
      </trkpt>
      <trkpt lat="48.52231" lon="-2.55112">
        <ele>141.2</ele>
        <time>2013-05-26T09:24:07.000Z</time>
      </trkpt>
      <trkpt lat="48.52231" lon="-2.55121">
        <ele>141.1</ele>
        <time>2013-05-26T09:24:08.000Z</time>
      </trkpt>
      <trkpt lat="48.52231" lon="-2.5513">
        <ele>140.9</ele>
        <time>2013-05-26T09:24:09.000Z</time>
      </trkpt>
      <trkpt lat="48.52231" lon="-2.55139">
        <ele>140.6</ele>
        <time>2013-05-26T09:24:10.000Z</time>
      </trkpt>
      <trkpt lat="48.52231" lon="-2.55149">
        <ele>140.5</ele>
        <time>2013-05-26T09:24:11.000Z</time>
      </trkpt>
      <trkpt lat="48.52232" lon="-2.55158">
        <ele>140.3</ele>
        <time>2013-05-26T09:24:12.000Z</time>
      </trkpt>
      <trkpt lat="48.52232" lon="-2.55167">
        <ele>139.9</ele>
        <time>2013-05-26T09:24:13.000Z</time>
      </trkpt>
      <trkpt lat="48.52232" lon="-2.55176">
        <ele>139.9</ele>
        <time>2013-05-26T09:24:14.000Z</time>
      </trkpt>
      <trkpt lat="48.52233" lon="-2.55185">
        <ele>139.8</ele>
        <time>2013-05-26T09:24:15.000Z</time>
      </trkpt>
      <trkpt lat="48.52233" lon="-2.55194">
        <ele>139.6</ele>
        <time>2013-05-26T09:24:16.000Z</time>
      </trkpt>
      <trkpt lat="48.52233" lon="-2.55203">
        <ele>139.4</ele>
        <time>2013-05-26T09:24:17.000Z</time>
      </trkpt>
      <trkpt lat="48.52233" lon="-2.55213">
        <ele>139.1</ele>
        <time>2013-05-26T09:24:18.000Z</time>
      </trkpt>
      <trkpt lat="48.52231" lon="-2.55248">
        <ele>146.7</ele>
        <time>2013-05-26T09:24:20.000Z</time>
      </trkpt>
      <trkpt lat="48.52223" lon="-2.5525">
        <ele>162.8</ele>
        <time>2013-05-26T09:24:21.000Z</time>
      </trkpt>
      <trkpt lat="48.52239" lon="-2.55272">
        <ele>144.8</ele>
        <time>2013-05-26T09:24:24.000Z</time>
      </trkpt>
      <trkpt lat="48.52238" lon="-2.55281">
        <ele>144.5</ele>
        <time>2013-05-26T09:24:25.000Z</time>
      </trkpt>
      <trkpt lat="48.5224" lon="-2.55289">
        <ele>141.9</ele>
        <time>2013-05-26T09:24:26.000Z</time>
      </trkpt>
      <trkpt lat="48.52242" lon="-2.55299">
        <ele>139.6</ele>
        <time>2013-05-26T09:24:27.000Z</time>
      </trkpt>
      <trkpt lat="48.52245" lon="-2.55307">
        <ele>137.4</ele>
        <time>2013-05-26T09:24:28.000Z</time>
      </trkpt>
      <trkpt lat="48.52248" lon="-2.55316">
        <ele>136.4</ele>
        <time>2013-05-26T09:24:29.000Z</time>
      </trkpt>
      <trkpt lat="48.5225" lon="-2.55323">
        <ele>137.1</ele>
        <time>2013-05-26T09:24:30.000Z</time>
      </trkpt>
      <trkpt lat="48.52252" lon="-2.55331">
        <ele>136.1</ele>
        <time>2013-05-26T09:24:31.000Z</time>
      </trkpt>
      <trkpt lat="48.52254" lon="-2.5534">
        <ele>135.9</ele>
        <time>2013-05-26T09:24:32.000Z</time>
      </trkpt>
      <trkpt lat="48.52256" lon="-2.55349">
        <ele>135.8</ele>
        <time>2013-05-26T09:24:33.000Z</time>
      </trkpt>
      <trkpt lat="48.52258" lon="-2.55357">
        <ele>135.9</ele>
        <time>2013-05-26T09:24:34.000Z</time>
      </trkpt>
      <trkpt lat="48.52257" lon="-2.55364">
        <ele>137.5</ele>
        <time>2013-05-26T09:24:35.000Z</time>
      </trkpt>
      <trkpt lat="48.52255" lon="-2.55369">
        <ele>138.9</ele>
        <time>2013-05-26T09:24:36.000Z</time>
      </trkpt>
      <trkpt lat="48.52252" lon="-2.55372">
        <ele>140</ele>
        <time>2013-05-26T09:24:37.000Z</time>
      </trkpt>
      <trkpt lat="48.52247" lon="-2.55375">
        <ele>140.6</ele>
        <time>2013-05-26T09:24:38.000Z</time>
      </trkpt>
      <trkpt lat="48.52242" lon="-2.55374">
        <ele>141.3</ele>
        <time>2013-05-26T09:24:39.000Z</time>
      </trkpt>
      <trkpt lat="48.52236" lon="-2.55371">
        <ele>141.5</ele>
        <time>2013-05-26T09:24:40.000Z</time>
      </trkpt>
      <trkpt lat="48.5223" lon="-2.55368">
        <ele>141.5</ele>
        <time>2013-05-26T09:24:41.000Z</time>
      </trkpt>
      <trkpt lat="48.52223" lon="-2.55366">
        <ele>140.8</ele>
        <time>2013-05-26T09:24:42.000Z</time>
      </trkpt>
      <trkpt lat="48.52216" lon="-2.55365">
        <ele>139.9</ele>
        <time>2013-05-26T09:24:43.000Z</time>
      </trkpt>
      <trkpt lat="48.5221" lon="-2.55366">
        <ele>139.1</ele>
        <time>2013-05-26T09:24:44.000Z</time>
      </trkpt>
      <trkpt lat="48.52204" lon="-2.55369">
        <ele>139</ele>
        <time>2013-05-26T09:24:45.000Z</time>
      </trkpt>
      <trkpt lat="48.522" lon="-2.55375">
        <ele>138.1</ele>
        <time>2013-05-26T09:24:46.000Z</time>
      </trkpt>
      <trkpt lat="48.52197" lon="-2.55381">
        <ele>137.9</ele>
        <time>2013-05-26T09:24:47.000Z</time>
      </trkpt>
      <trkpt lat="48.52194" lon="-2.55389">
        <ele>138.3</ele>
        <time>2013-05-26T09:24:48.000Z</time>
      </trkpt>
      <trkpt lat="48.52193" lon="-2.55397">
        <ele>139.3</ele>
        <time>2013-05-26T09:24:49.000Z</time>
      </trkpt>
      <trkpt lat="48.52192" lon="-2.55406">
        <ele>139.2</ele>
        <time>2013-05-26T09:24:50.000Z</time>
      </trkpt>
      <trkpt lat="48.52191" lon="-2.55415">
        <ele>139.5</ele>
        <time>2013-05-26T09:24:51.000Z</time>
      </trkpt>
      <trkpt lat="48.5219" lon="-2.55424">
        <ele>139.8</ele>
        <time>2013-05-26T09:24:52.000Z</time>
      </trkpt>
      <trkpt lat="48.5219" lon="-2.55433">
        <ele>140.4</ele>
        <time>2013-05-26T09:24:53.000Z</time>
      </trkpt>
      <trkpt lat="48.52189" lon="-2.55442">
        <ele>140.6</ele>
        <time>2013-05-26T09:24:54.000Z</time>
      </trkpt>
      <trkpt lat="48.52189" lon="-2.55451">
        <ele>140.6</ele>
        <time>2013-05-26T09:24:55.000Z</time>
      </trkpt>
      <trkpt lat="48.52189" lon="-2.55459">
        <ele>140.7</ele>
        <time>2013-05-26T09:24:56.000Z</time>
      </trkpt>
      <trkpt lat="48.52188" lon="-2.55468">
        <ele>140.8</ele>
        <time>2013-05-26T09:24:57.000Z</time>
      </trkpt>
      <trkpt lat="48.52188" lon="-2.55477">
        <ele>141</ele>
        <time>2013-05-26T09:24:58.000Z</time>
      </trkpt>
      <trkpt lat="48.52187" lon="-2.55486">
        <ele>141</ele>
        <time>2013-05-26T09:24:59.000Z</time>
      </trkpt>
      <trkpt lat="48.52187" lon="-2.55494">
        <ele>141.1</ele>
        <time>2013-05-26T09:25:00.000Z</time>
      </trkpt>
      <trkpt lat="48.52186" lon="-2.55503">
        <ele>141</ele>
        <time>2013-05-26T09:25:01.000Z</time>
      </trkpt>
      <trkpt lat="48.52186" lon="-2.55512">
        <ele>140.8</ele>
        <time>2013-05-26T09:25:02.000Z</time>
      </trkpt>
      <trkpt lat="48.52186" lon="-2.55521">
        <ele>140.8</ele>
        <time>2013-05-26T09:25:03.000Z</time>
      </trkpt>
      <trkpt lat="48.52185" lon="-2.5553">
        <ele>140.7</ele>
        <time>2013-05-26T09:25:04.000Z</time>
      </trkpt>
      <trkpt lat="48.52184" lon="-2.55539">
        <ele>140.8</ele>
        <time>2013-05-26T09:25:05.000Z</time>
      </trkpt>
      <trkpt lat="48.52184" lon="-2.55548">
        <ele>140.9</ele>
        <time>2013-05-26T09:25:06.000Z</time>
      </trkpt>
      <trkpt lat="48.52183" lon="-2.55557">
        <ele>140.7</ele>
        <time>2013-05-26T09:25:07.000Z</time>
      </trkpt>
      <trkpt lat="48.52182" lon="-2.55566">
        <ele>140.7</ele>
        <time>2013-05-26T09:25:08.000Z</time>
      </trkpt>
      <trkpt lat="48.52182" lon="-2.55576">
        <ele>140.4</ele>
        <time>2013-05-26T09:25:09.000Z</time>
      </trkpt>
      <trkpt lat="48.52182" lon="-2.55586">
        <ele>140.3</ele>
        <time>2013-05-26T09:25:10.000Z</time>
      </trkpt>
      <trkpt lat="48.52181" lon="-2.55595">
        <ele>140</ele>
        <time>2013-05-26T09:25:11.000Z</time>
      </trkpt>
      <trkpt lat="48.52181" lon="-2.55606">
        <ele>139.8</ele>
        <time>2013-05-26T09:25:12.000Z</time>
      </trkpt>
      <trkpt lat="48.5218" lon="-2.55616">
        <ele>139.5</ele>
        <time>2013-05-26T09:25:13.000Z</time>
      </trkpt>
      <trkpt lat="48.5218" lon="-2.55626">
        <ele>139.1</ele>
        <time>2013-05-26T09:25:14.000Z</time>
      </trkpt>
      <trkpt lat="48.5218" lon="-2.55636">
        <ele>138.8</ele>
        <time>2013-05-26T09:25:15.000Z</time>
      </trkpt>
      <trkpt lat="48.52179" lon="-2.55646">
        <ele>138.7</ele>
        <time>2013-05-26T09:25:16.000Z</time>
      </trkpt>
      <trkpt lat="48.52178" lon="-2.55656">
        <ele>138.5</ele>
        <time>2013-05-26T09:25:17.000Z</time>
      </trkpt>
      <trkpt lat="48.52178" lon="-2.55666">
        <ele>138.4</ele>
        <time>2013-05-26T09:25:18.000Z</time>
      </trkpt>
      <trkpt lat="48.52177" lon="-2.55708">
        <ele>130.8</ele>
        <time>2013-05-26T09:25:22.000Z</time>
      </trkpt>
      <trkpt lat="48.52175" lon="-2.55718">
        <ele>131.2</ele>
        <time>2013-05-26T09:25:23.000Z</time>
      </trkpt>
      <trkpt lat="48.52173" lon="-2.55727">
        <ele>132.3</ele>
        <time>2013-05-26T09:25:24.000Z</time>
      </trkpt>
      <trkpt lat="48.52173" lon="-2.55736">
        <ele>132.7</ele>
        <time>2013-05-26T09:25:25.000Z</time>
      </trkpt>
      <trkpt lat="48.52172" lon="-2.55745">
        <ele>134.1</ele>
        <time>2013-05-26T09:25:26.000Z</time>
      </trkpt>
      <trkpt lat="48.52171" lon="-2.55754">
        <ele>134.5</ele>
        <time>2013-05-26T09:25:27.000Z</time>
      </trkpt>
      <trkpt lat="48.52171" lon="-2.55764">
        <ele>134.1</ele>
        <time>2013-05-26T09:25:28.000Z</time>
      </trkpt>
      <trkpt lat="48.5217" lon="-2.55773">
        <ele>134.3</ele>
        <time>2013-05-26T09:25:29.000Z</time>
      </trkpt>
      <trkpt lat="48.52169" lon="-2.55782">
        <ele>134.3</ele>
        <time>2013-05-26T09:25:30.000Z</time>
      </trkpt>
      <trkpt lat="48.52169" lon="-2.55792">
        <ele>134.1</ele>
        <time>2013-05-26T09:25:31.000Z</time>
      </trkpt>
      <trkpt lat="48.52169" lon="-2.558">
        <ele>134.8</ele>
        <time>2013-05-26T09:25:32.000Z</time>
      </trkpt>
      <trkpt lat="48.52169" lon="-2.55809">
        <ele>135.2</ele>
        <time>2013-05-26T09:25:33.000Z</time>
      </trkpt>
      <trkpt lat="48.5217" lon="-2.55819">
        <ele>135.2</ele>
        <time>2013-05-26T09:25:34.000Z</time>
      </trkpt>
      <trkpt lat="48.52171" lon="-2.55829">
        <ele>134.9</ele>
        <time>2013-05-26T09:25:35.000Z</time>
      </trkpt>
      <trkpt lat="48.52173" lon="-2.55839">
        <ele>134.7</ele>
        <time>2013-05-26T09:25:36.000Z</time>
      </trkpt>
      <trkpt lat="48.52175" lon="-2.55848">
        <ele>134.5</ele>
        <time>2013-05-26T09:25:37.000Z</time>
      </trkpt>
      <trkpt lat="48.52177" lon="-2.55858">
        <ele>134.3</ele>
        <time>2013-05-26T09:25:38.000Z</time>
      </trkpt>
      <trkpt lat="48.52179" lon="-2.55868">
        <ele>134</ele>
        <time>2013-05-26T09:25:39.000Z</time>
      </trkpt>
      <trkpt lat="48.52182" lon="-2.55877">
        <ele>133.6</ele>
        <time>2013-05-26T09:25:40.000Z</time>
      </trkpt>
      <trkpt lat="48.52184" lon="-2.55887">
        <ele>133.4</ele>
        <time>2013-05-26T09:25:41.000Z</time>
      </trkpt>
      <trkpt lat="48.52186" lon="-2.55897">
        <ele>133.2</ele>
        <time>2013-05-26T09:25:42.000Z</time>
      </trkpt>
      <trkpt lat="48.52187" lon="-2.55907">
        <ele>132.7</ele>
        <time>2013-05-26T09:25:43.000Z</time>
      </trkpt>
      <trkpt lat="48.52187" lon="-2.55917">
        <ele>132.4</ele>
        <time>2013-05-26T09:25:44.000Z</time>
      </trkpt>
      <trkpt lat="48.52185" lon="-2.55927">
        <ele>132.1</ele>
        <time>2013-05-26T09:25:45.000Z</time>
      </trkpt>
      <trkpt lat="48.52182" lon="-2.55936">
        <ele>132</ele>
        <time>2013-05-26T09:25:46.000Z</time>
      </trkpt>
      <trkpt lat="48.52177" lon="-2.55943">
        <ele>132.6</ele>
        <time>2013-05-26T09:25:47.000Z</time>
      </trkpt>
      <trkpt lat="48.52172" lon="-2.55949">
        <ele>132.9</ele>
        <time>2013-05-26T09:25:48.000Z</time>
      </trkpt>
      <trkpt lat="48.52166" lon="-2.55954">
        <ele>132.9</ele>
        <time>2013-05-26T09:25:49.000Z</time>
      </trkpt>
      <trkpt lat="48.5216" lon="-2.55958">
        <ele>132.9</ele>
        <time>2013-05-26T09:25:50.000Z</time>
      </trkpt>
      <trkpt lat="48.52154" lon="-2.55963">
        <ele>132.8</ele>
        <time>2013-05-26T09:25:51.000Z</time>
      </trkpt>
      <trkpt lat="48.52148" lon="-2.55967">
        <ele>132.7</ele>
        <time>2013-05-26T09:25:52.000Z</time>
      </trkpt>
      <trkpt lat="48.52142" lon="-2.55972">
        <ele>132.5</ele>
        <time>2013-05-26T09:25:53.000Z</time>
      </trkpt>
      <trkpt lat="48.52137" lon="-2.55978">
        <ele>132.5</ele>
        <time>2013-05-26T09:25:54.000Z</time>
      </trkpt>
      <trkpt lat="48.52132" lon="-2.55984">
        <ele>132.4</ele>
        <time>2013-05-26T09:25:55.000Z</time>
      </trkpt>
      <trkpt lat="48.52127" lon="-2.55991">
        <ele>132.4</ele>
        <time>2013-05-26T09:25:56.000Z</time>
      </trkpt>
      <trkpt lat="48.52123" lon="-2.55999">
        <ele>132.5</ele>
        <time>2013-05-26T09:25:57.000Z</time>
      </trkpt>
      <trkpt lat="48.52119" lon="-2.56006">
        <ele>132.5</ele>
        <time>2013-05-26T09:25:58.000Z</time>
      </trkpt>
      <trkpt lat="48.52115" lon="-2.56014">
        <ele>132.5</ele>
        <time>2013-05-26T09:25:59.000Z</time>
      </trkpt>
      <trkpt lat="48.52111" lon="-2.56022">
        <ele>132.4</ele>
        <time>2013-05-26T09:26:00.000Z</time>
      </trkpt>
      <trkpt lat="48.52107" lon="-2.56029">
        <ele>132.5</ele>
        <time>2013-05-26T09:26:01.000Z</time>
      </trkpt>
      <trkpt lat="48.52102" lon="-2.56037">
        <ele>132.4</ele>
        <time>2013-05-26T09:26:02.000Z</time>
      </trkpt>
      <trkpt lat="48.52098" lon="-2.56044">
        <ele>132.5</ele>
        <time>2013-05-26T09:26:03.000Z</time>
      </trkpt>
      <trkpt lat="48.52093" lon="-2.56051">
        <ele>132.6</ele>
        <time>2013-05-26T09:26:04.000Z</time>
      </trkpt>
      <trkpt lat="48.52089" lon="-2.56058">
        <ele>132.4</ele>
        <time>2013-05-26T09:26:05.000Z</time>
      </trkpt>
      <trkpt lat="48.52085" lon="-2.56065">
        <ele>132.3</ele>
        <time>2013-05-26T09:26:06.000Z</time>
      </trkpt>
      <trkpt lat="48.5208" lon="-2.56072">
        <ele>132.1</ele>
        <time>2013-05-26T09:26:07.000Z</time>
      </trkpt>
      <trkpt lat="48.52076" lon="-2.5608">
        <ele>132</ele>
        <time>2013-05-26T09:26:08.000Z</time>
      </trkpt>
      <trkpt lat="48.52072" lon="-2.56087">
        <ele>131.7</ele>
        <time>2013-05-26T09:26:09.000Z</time>
      </trkpt>
      <trkpt lat="48.52068" lon="-2.56094">
        <ele>131.7</ele>
        <time>2013-05-26T09:26:10.000Z</time>
      </trkpt>
      <trkpt lat="48.52064" lon="-2.561">
        <ele>131.7</ele>
        <time>2013-05-26T09:26:11.000Z</time>
      </trkpt>
      <trkpt lat="48.52059" lon="-2.56104">
        <ele>131.4</ele>
        <time>2013-05-26T09:26:12.000Z</time>
      </trkpt>
      <trkpt lat="48.52054" lon="-2.56106">
        <ele>131.1</ele>
        <time>2013-05-26T09:26:13.000Z</time>
      </trkpt>
      <trkpt lat="48.52048" lon="-2.56105">
        <ele>131.1</ele>
        <time>2013-05-26T09:26:14.000Z</time>
      </trkpt>
      <trkpt lat="48.52043" lon="-2.56102">
        <ele>131.1</ele>
        <time>2013-05-26T09:26:15.000Z</time>
      </trkpt>
      <trkpt lat="48.52037" lon="-2.56097">
        <ele>131.1</ele>
        <time>2013-05-26T09:26:16.000Z</time>
      </trkpt>
      <trkpt lat="48.52032" lon="-2.56092">
        <ele>131.1</ele>
        <time>2013-05-26T09:26:17.000Z</time>
      </trkpt>
      <trkpt lat="48.52027" lon="-2.56088">
        <ele>131</ele>
        <time>2013-05-26T09:26:18.000Z</time>
      </trkpt>
      <trkpt lat="48.52003" lon="-2.56065">
        <ele>117.9</ele>
        <time>2013-05-26T09:26:22.000Z</time>
      </trkpt>
      <trkpt lat="48.51995" lon="-2.56061">
        <ele>114.8</ele>
        <time>2013-05-26T09:26:23.000Z</time>
      </trkpt>
      <trkpt lat="48.5199" lon="-2.56056">
        <ele>118.4</ele>
        <time>2013-05-26T09:26:24.000Z</time>
      </trkpt>
      <trkpt lat="48.51986" lon="-2.56052">
        <ele>123.6</ele>
        <time>2013-05-26T09:26:25.000Z</time>
      </trkpt>
      <trkpt lat="48.51981" lon="-2.56048">
        <ele>125.3</ele>
        <time>2013-05-26T09:26:26.000Z</time>
      </trkpt>
      <trkpt lat="48.51976" lon="-2.56043">
        <ele>125.4</ele>
        <time>2013-05-26T09:26:27.000Z</time>
      </trkpt>
      <trkpt lat="48.5197" lon="-2.56039">
        <ele>124.8</ele>
        <time>2013-05-26T09:26:28.000Z</time>
      </trkpt>
      <trkpt lat="48.51965" lon="-2.56033">
        <ele>124.6</ele>
        <time>2013-05-26T09:26:29.000Z</time>
      </trkpt>
      <trkpt lat="48.51959" lon="-2.56029">
        <ele>124.5</ele>
        <time>2013-05-26T09:26:30.000Z</time>
      </trkpt>
      <trkpt lat="48.51954" lon="-2.56024">
        <ele>124.1</ele>
        <time>2013-05-26T09:26:31.000Z</time>
      </trkpt>
      <trkpt lat="48.51948" lon="-2.5602">
        <ele>123.6</ele>
        <time>2013-05-26T09:26:32.000Z</time>
      </trkpt>
      <trkpt lat="48.51943" lon="-2.56015">
        <ele>123.1</ele>
        <time>2013-05-26T09:26:33.000Z</time>
      </trkpt>
      <trkpt lat="48.51937" lon="-2.5601">
        <ele>122.8</ele>
        <time>2013-05-26T09:26:34.000Z</time>
      </trkpt>
      <trkpt lat="48.51932" lon="-2.56005">
        <ele>122.2</ele>
        <time>2013-05-26T09:26:35.000Z</time>
      </trkpt>
      <trkpt lat="48.51926" lon="-2.56">
        <ele>121.7</ele>
        <time>2013-05-26T09:26:36.000Z</time>
      </trkpt>
      <trkpt lat="48.51921" lon="-2.55995">
        <ele>121.3</ele>
        <time>2013-05-26T09:26:37.000Z</time>
      </trkpt>
      <trkpt lat="48.51915" lon="-2.55991">
        <ele>121.1</ele>
        <time>2013-05-26T09:26:38.000Z</time>
      </trkpt>
      <trkpt lat="48.5191" lon="-2.55986">
        <ele>120.9</ele>
        <time>2013-05-26T09:26:39.000Z</time>
      </trkpt>
      <trkpt lat="48.51904" lon="-2.55981">
        <ele>120.6</ele>
        <time>2013-05-26T09:26:40.000Z</time>
      </trkpt>
      <trkpt lat="48.51899" lon="-2.55976">
        <ele>120.5</ele>
        <time>2013-05-26T09:26:41.000Z</time>
      </trkpt>
      <trkpt lat="48.51893" lon="-2.55971">
        <ele>120.4</ele>
        <time>2013-05-26T09:26:42.000Z</time>
      </trkpt>
      <trkpt lat="48.51888" lon="-2.55966">
        <ele>120.5</ele>
        <time>2013-05-26T09:26:43.000Z</time>
      </trkpt>
      <trkpt lat="48.51883" lon="-2.55961">
        <ele>120.7</ele>
        <time>2013-05-26T09:26:44.000Z</time>
      </trkpt>
      <trkpt lat="48.51877" lon="-2.55956">
        <ele>120.7</ele>
        <time>2013-05-26T09:26:45.000Z</time>
      </trkpt>
      <trkpt lat="48.51872" lon="-2.55951">
        <ele>120.9</ele>
        <time>2013-05-26T09:26:46.000Z</time>
      </trkpt>
      <trkpt lat="48.51866" lon="-2.55946">
        <ele>121.1</ele>
        <time>2013-05-26T09:26:47.000Z</time>
      </trkpt>
      <trkpt lat="48.51861" lon="-2.55941">
        <ele>120.9</ele>
        <time>2013-05-26T09:26:48.000Z</time>
      </trkpt>
      <trkpt lat="48.51855" lon="-2.55936">
        <ele>121.1</ele>
        <time>2013-05-26T09:26:49.000Z</time>
      </trkpt>
      <trkpt lat="48.5185" lon="-2.55931">
        <ele>121.3</ele>
        <time>2013-05-26T09:26:50.000Z</time>
      </trkpt>
      <trkpt lat="48.51845" lon="-2.55926">
        <ele>121.3</ele>
        <time>2013-05-26T09:26:51.000Z</time>
      </trkpt>
      <trkpt lat="48.51839" lon="-2.55922">
        <ele>121.3</ele>
        <time>2013-05-26T09:26:52.000Z</time>
      </trkpt>
      <trkpt lat="48.51834" lon="-2.55917">
        <ele>121.2</ele>
        <time>2013-05-26T09:26:53.000Z</time>
      </trkpt>
      <trkpt lat="48.51829" lon="-2.55913">
        <ele>121.3</ele>
        <time>2013-05-26T09:26:54.000Z</time>
      </trkpt>
      <trkpt lat="48.51823" lon="-2.55908">
        <ele>121.2</ele>
        <time>2013-05-26T09:26:55.000Z</time>
      </trkpt>
      <trkpt lat="48.51818" lon="-2.55904">
        <ele>121.2</ele>
        <time>2013-05-26T09:26:56.000Z</time>
      </trkpt>
      <trkpt lat="48.51813" lon="-2.55899">
        <ele>121.2</ele>
        <time>2013-05-26T09:26:57.000Z</time>
      </trkpt>
      <trkpt lat="48.51808" lon="-2.55895">
        <ele>121.1</ele>
        <time>2013-05-26T09:26:58.000Z</time>
      </trkpt>
      <trkpt lat="48.51804" lon="-2.5589">
        <ele>121.2</ele>
        <time>2013-05-26T09:26:59.000Z</time>
      </trkpt>
      <trkpt lat="48.51798" lon="-2.55885">
        <ele>121.1</ele>
        <time>2013-05-26T09:27:00.000Z</time>
      </trkpt>
      <trkpt lat="48.51793" lon="-2.55881">
        <ele>121.2</ele>
        <time>2013-05-26T09:27:01.000Z</time>
      </trkpt>
      <trkpt lat="48.51788" lon="-2.55876">
        <ele>121.2</ele>
        <time>2013-05-26T09:27:02.000Z</time>
      </trkpt>
      <trkpt lat="48.51783" lon="-2.55872">
        <ele>121.4</ele>
        <time>2013-05-26T09:27:03.000Z</time>
      </trkpt>
      <trkpt lat="48.51778" lon="-2.55868">
        <ele>121.4</ele>
        <time>2013-05-26T09:27:04.000Z</time>
      </trkpt>
      <trkpt lat="48.51773" lon="-2.55863">
        <ele>121.5</ele>
        <time>2013-05-26T09:27:05.000Z</time>
      </trkpt>
      <trkpt lat="48.51769" lon="-2.55859">
        <ele>121.7</ele>
        <time>2013-05-26T09:27:06.000Z</time>
      </trkpt>
      <trkpt lat="48.51764" lon="-2.55855">
        <ele>121.9</ele>
        <time>2013-05-26T09:27:07.000Z</time>
      </trkpt>
      <trkpt lat="48.51759" lon="-2.55851">
        <ele>122.1</ele>
        <time>2013-05-26T09:27:08.000Z</time>
      </trkpt>
      <trkpt lat="48.51754" lon="-2.55847">
        <ele>122.1</ele>
        <time>2013-05-26T09:27:09.000Z</time>
      </trkpt>
      <trkpt lat="48.51749" lon="-2.55843">
        <ele>122.3</ele>
        <time>2013-05-26T09:27:10.000Z</time>
      </trkpt>
      <trkpt lat="48.51744" lon="-2.55839">
        <ele>122.5</ele>
        <time>2013-05-26T09:27:11.000Z</time>
      </trkpt>
      <trkpt lat="48.51739" lon="-2.55834">
        <ele>122.7</ele>
        <time>2013-05-26T09:27:12.000Z</time>
      </trkpt>
      <trkpt lat="48.51735" lon="-2.5583">
        <ele>122.8</ele>
        <time>2013-05-26T09:27:13.000Z</time>
      </trkpt>
      <trkpt lat="48.5173" lon="-2.55827">
        <ele>122.9</ele>
        <time>2013-05-26T09:27:14.000Z</time>
      </trkpt>
      <trkpt lat="48.51726" lon="-2.55823">
        <ele>122.9</ele>
        <time>2013-05-26T09:27:15.000Z</time>
      </trkpt>
      <trkpt lat="48.51721" lon="-2.5582">
        <ele>122.9</ele>
        <time>2013-05-26T09:27:16.000Z</time>
      </trkpt>
      <trkpt lat="48.51717" lon="-2.55816">
        <ele>123.1</ele>
        <time>2013-05-26T09:27:17.000Z</time>
      </trkpt>
      <trkpt lat="48.51712" lon="-2.55812">
        <ele>123.2</ele>
        <time>2013-05-26T09:27:18.000Z</time>
      </trkpt>
      <trkpt lat="48.51701" lon="-2.55815">
        <ele>132.1</ele>
        <time>2013-05-26T09:27:20.000Z</time>
      </trkpt>
      <trkpt lat="48.51694" lon="-2.558">
        <ele>127</ele>
        <time>2013-05-26T09:27:22.000Z</time>
      </trkpt>
      <trkpt lat="48.51688" lon="-2.55795">
        <ele>126.5</ele>
        <time>2013-05-26T09:27:23.000Z</time>
      </trkpt>
      <trkpt lat="48.51685" lon="-2.55791">
        <ele>126.4</ele>
        <time>2013-05-26T09:27:24.000Z</time>
      </trkpt>
      <trkpt lat="48.51682" lon="-2.55786">
        <ele>125</ele>
        <time>2013-05-26T09:27:25.000Z</time>
      </trkpt>
      <trkpt lat="48.51678" lon="-2.55782">
        <ele>127</ele>
        <time>2013-05-26T09:27:26.000Z</time>
      </trkpt>
      <trkpt lat="48.51674" lon="-2.55777">
        <ele>127.8</ele>
        <time>2013-05-26T09:27:27.000Z</time>
      </trkpt>
      <trkpt lat="48.51671" lon="-2.55773">
        <ele>128.8</ele>
        <time>2013-05-26T09:27:28.000Z</time>
      </trkpt>
      <trkpt lat="48.51667" lon="-2.55769">
        <ele>128.5</ele>
        <time>2013-05-26T09:27:29.000Z</time>
      </trkpt>
      <trkpt lat="48.51664" lon="-2.55764">
        <ele>128.3</ele>
        <time>2013-05-26T09:27:30.000Z</time>
      </trkpt>
      <trkpt lat="48.5166" lon="-2.55759">
        <ele>129.1</ele>
        <time>2013-05-26T09:27:31.000Z</time>
      </trkpt>
      <trkpt lat="48.51656" lon="-2.55754">
        <ele>129.3</ele>
        <time>2013-05-26T09:27:32.000Z</time>
      </trkpt>
      <trkpt lat="48.51653" lon="-2.55749">
        <ele>129.2</ele>
        <time>2013-05-26T09:27:33.000Z</time>
      </trkpt>
      <trkpt lat="48.51649" lon="-2.55744">
        <ele>129.1</ele>
        <time>2013-05-26T09:27:34.000Z</time>
      </trkpt>
      <trkpt lat="48.51646" lon="-2.55739">
        <ele>129.3</ele>
        <time>2013-05-26T09:27:35.000Z</time>
      </trkpt>
      <trkpt lat="48.51643" lon="-2.55733">
        <ele>129.3</ele>
        <time>2013-05-26T09:27:36.000Z</time>
      </trkpt>
      <trkpt lat="48.5164" lon="-2.55727">
        <ele>129.3</ele>
        <time>2013-05-26T09:27:37.000Z</time>
      </trkpt>
      <trkpt lat="48.51637" lon="-2.55722">
        <ele>129.1</ele>
        <time>2013-05-26T09:27:38.000Z</time>
      </trkpt>
      <trkpt lat="48.51634" lon="-2.55716">
        <ele>129.1</ele>
        <time>2013-05-26T09:27:39.000Z</time>
      </trkpt>
      <trkpt lat="48.51632" lon="-2.5571">
        <ele>129.1</ele>
        <time>2013-05-26T09:27:40.000Z</time>
      </trkpt>
      <trkpt lat="48.51629" lon="-2.55704">
        <ele>129</ele>
        <time>2013-05-26T09:27:41.000Z</time>
      </trkpt>
      <trkpt lat="48.51627" lon="-2.55698">
        <ele>128.9</ele>
        <time>2013-05-26T09:27:42.000Z</time>
      </trkpt>
      <trkpt lat="48.51624" lon="-2.55692">
        <ele>128.9</ele>
        <time>2013-05-26T09:27:43.000Z</time>
      </trkpt>
      <trkpt lat="48.51622" lon="-2.55686">
        <ele>128.8</ele>
        <time>2013-05-26T09:27:44.000Z</time>
      </trkpt>
      <trkpt lat="48.51619" lon="-2.5568">
        <ele>129</ele>
        <time>2013-05-26T09:27:45.000Z</time>
      </trkpt>
      <trkpt lat="48.51617" lon="-2.55674">
        <ele>129.1</ele>
        <time>2013-05-26T09:27:46.000Z</time>
      </trkpt>
      <trkpt lat="48.51615" lon="-2.55668">
        <ele>129.2</ele>
        <time>2013-05-26T09:27:47.000Z</time>
      </trkpt>
      <trkpt lat="48.51612" lon="-2.55662">
        <ele>129.3</ele>
        <time>2013-05-26T09:27:48.000Z</time>
      </trkpt>
      <trkpt lat="48.51609" lon="-2.55657">
        <ele>129.4</ele>
        <time>2013-05-26T09:27:49.000Z</time>
      </trkpt>
      <trkpt lat="48.51607" lon="-2.55651">
        <ele>129.4</ele>
        <time>2013-05-26T09:27:50.000Z</time>
      </trkpt>
      <trkpt lat="48.51604" lon="-2.55645">
        <ele>129.4</ele>
        <time>2013-05-26T09:27:51.000Z</time>
      </trkpt>
      <trkpt lat="48.51602" lon="-2.55639">
        <ele>129.3</ele>
        <time>2013-05-26T09:27:52.000Z</time>
      </trkpt>
      <trkpt lat="48.51599" lon="-2.55633">
        <ele>129.3</ele>
        <time>2013-05-26T09:27:53.000Z</time>
      </trkpt>
      <trkpt lat="48.51597" lon="-2.55627">
        <ele>129.3</ele>
        <time>2013-05-26T09:27:54.000Z</time>
      </trkpt>
      <trkpt lat="48.51595" lon="-2.55621">
        <ele>129.4</ele>
        <time>2013-05-26T09:27:55.000Z</time>
      </trkpt>
      <trkpt lat="48.51592" lon="-2.55615">
        <ele>129.4</ele>
        <time>2013-05-26T09:27:56.000Z</time>
      </trkpt>
      <trkpt lat="48.5159" lon="-2.55609">
        <ele>129.3</ele>
        <time>2013-05-26T09:27:57.000Z</time>
      </trkpt>
      <trkpt lat="48.51587" lon="-2.55603">
        <ele>129.4</ele>
        <time>2013-05-26T09:27:58.000Z</time>
      </trkpt>
      <trkpt lat="48.51585" lon="-2.55596">
        <ele>129.4</ele>
        <time>2013-05-26T09:27:59.000Z</time>
      </trkpt>
      <trkpt lat="48.51582" lon="-2.5559">
        <ele>129.3</ele>
        <time>2013-05-26T09:28:00.000Z</time>
      </trkpt>
      <trkpt lat="48.5158" lon="-2.55584">
        <ele>129.2</ele>
        <time>2013-05-26T09:28:01.000Z</time>
      </trkpt>
      <trkpt lat="48.51578" lon="-2.55578">
        <ele>129.1</ele>
        <time>2013-05-26T09:28:02.000Z</time>
      </trkpt>
      <trkpt lat="48.51575" lon="-2.55572">
        <ele>129</ele>
        <time>2013-05-26T09:28:03.000Z</time>
      </trkpt>
      <trkpt lat="48.51573" lon="-2.55566">
        <ele>129</ele>
        <time>2013-05-26T09:28:04.000Z</time>
      </trkpt>
      <trkpt lat="48.51571" lon="-2.5556">
        <ele>128.9</ele>
        <time>2013-05-26T09:28:05.000Z</time>
      </trkpt>
      <trkpt lat="48.51568" lon="-2.55553">
        <ele>128.9</ele>
        <time>2013-05-26T09:28:06.000Z</time>
      </trkpt>
      <trkpt lat="48.51566" lon="-2.55547">
        <ele>129</ele>
        <time>2013-05-26T09:28:07.000Z</time>
      </trkpt>
      <trkpt lat="48.51564" lon="-2.55541">
        <ele>129.1</ele>
        <time>2013-05-26T09:28:08.000Z</time>
      </trkpt>
      <trkpt lat="48.51561" lon="-2.55535">
        <ele>129.2</ele>
        <time>2013-05-26T09:28:09.000Z</time>
      </trkpt>
      <trkpt lat="48.51559" lon="-2.55529">
        <ele>129.3</ele>
        <time>2013-05-26T09:28:10.000Z</time>
      </trkpt>
      <trkpt lat="48.51556" lon="-2.55522">
        <ele>129.4</ele>
        <time>2013-05-26T09:28:11.000Z</time>
      </trkpt>
      <trkpt lat="48.51554" lon="-2.55516">
        <ele>129.5</ele>
        <time>2013-05-26T09:28:12.000Z</time>
      </trkpt>
      <trkpt lat="48.51551" lon="-2.5551">
        <ele>129.7</ele>
        <time>2013-05-26T09:28:13.000Z</time>
      </trkpt>
      <trkpt lat="48.51549" lon="-2.55503">
        <ele>129.8</ele>
        <time>2013-05-26T09:28:14.000Z</time>
      </trkpt>
      <trkpt lat="48.51546" lon="-2.55497">
        <ele>129.8</ele>
        <time>2013-05-26T09:28:15.000Z</time>
      </trkpt>
      <trkpt lat="48.51544" lon="-2.5549">
        <ele>129.9</ele>
        <time>2013-05-26T09:28:16.000Z</time>
      </trkpt>
      <trkpt lat="48.51541" lon="-2.55484">
        <ele>130</ele>
        <time>2013-05-26T09:28:17.000Z</time>
      </trkpt>
      <trkpt lat="48.51539" lon="-2.55477">
        <ele>130</ele>
        <time>2013-05-26T09:28:18.000Z</time>
      </trkpt>
      <trkpt lat="48.51534" lon="-2.55456">
        <ele>136.6</ele>
        <time>2013-05-26T09:28:21.000Z</time>
      </trkpt>
      <trkpt lat="48.51529" lon="-2.55448">
        <ele>140</ele>
        <time>2013-05-26T09:28:23.000Z</time>
      </trkpt>
      <trkpt lat="48.51527" lon="-2.5544">
        <ele>140.1</ele>
        <time>2013-05-26T09:28:24.000Z</time>
      </trkpt>
      <trkpt lat="48.51524" lon="-2.55433">
        <ele>140.9</ele>
        <time>2013-05-26T09:28:25.000Z</time>
      </trkpt>
      <trkpt lat="48.51521" lon="-2.55428">
        <ele>140.1</ele>
        <time>2013-05-26T09:28:26.000Z</time>
      </trkpt>
      <trkpt lat="48.51519" lon="-2.55422">
        <ele>138.2</ele>
        <time>2013-05-26T09:28:27.000Z</time>
      </trkpt>
      <trkpt lat="48.51516" lon="-2.55416">
        <ele>137.5</ele>
        <time>2013-05-26T09:28:28.000Z</time>
      </trkpt>
      <trkpt lat="48.51514" lon="-2.5541">
        <ele>138.3</ele>
        <time>2013-05-26T09:28:29.000Z</time>
      </trkpt>
      <trkpt lat="48.51511" lon="-2.55404">
        <ele>136.7</ele>
        <time>2013-05-26T09:28:30.000Z</time>
      </trkpt>
      <trkpt lat="48.51509" lon="-2.55398">
        <ele>136.1</ele>
        <time>2013-05-26T09:28:31.000Z</time>
      </trkpt>
      <trkpt lat="48.51506" lon="-2.55392">
        <ele>135.6</ele>
        <time>2013-05-26T09:28:32.000Z</time>
      </trkpt>
      <trkpt lat="48.51504" lon="-2.55386">
        <ele>135.1</ele>
        <time>2013-05-26T09:28:33.000Z</time>
      </trkpt>
      <trkpt lat="48.51502" lon="-2.5538">
        <ele>135.6</ele>
        <time>2013-05-26T09:28:34.000Z</time>
      </trkpt>
      <trkpt lat="48.515" lon="-2.55374">
        <ele>135.8</ele>
        <time>2013-05-26T09:28:35.000Z</time>
      </trkpt>
      <trkpt lat="48.51497" lon="-2.55367">
        <ele>136.1</ele>
        <time>2013-05-26T09:28:36.000Z</time>
      </trkpt>
      <trkpt lat="48.51495" lon="-2.55361">
        <ele>136.3</ele>
        <time>2013-05-26T09:28:37.000Z</time>
      </trkpt>
      <trkpt lat="48.51492" lon="-2.55354">
        <ele>136.4</ele>
        <time>2013-05-26T09:28:38.000Z</time>
      </trkpt>
      <trkpt lat="48.5149" lon="-2.55348">
        <ele>136.4</ele>
        <time>2013-05-26T09:28:39.000Z</time>
      </trkpt>
      <trkpt lat="48.51487" lon="-2.55342">
        <ele>136.5</ele>
        <time>2013-05-26T09:28:40.000Z</time>
      </trkpt>
      <trkpt lat="48.51485" lon="-2.55335">
        <ele>136.9</ele>
        <time>2013-05-26T09:28:41.000Z</time>
      </trkpt>
      <trkpt lat="48.51482" lon="-2.55329">
        <ele>137.1</ele>
        <time>2013-05-26T09:28:42.000Z</time>
      </trkpt>
      <trkpt lat="48.5148" lon="-2.55322">
        <ele>137.2</ele>
        <time>2013-05-26T09:28:43.000Z</time>
      </trkpt>
      <trkpt lat="48.51477" lon="-2.55316">
        <ele>137.3</ele>
        <time>2013-05-26T09:28:44.000Z</time>
      </trkpt>
      <trkpt lat="48.51475" lon="-2.5531">
        <ele>137.4</ele>
        <time>2013-05-26T09:28:45.000Z</time>
      </trkpt>
      <trkpt lat="48.51472" lon="-2.55303">
        <ele>137.5</ele>
        <time>2013-05-26T09:28:46.000Z</time>
      </trkpt>
      <trkpt lat="48.5147" lon="-2.55297">
        <ele>137.4</ele>
        <time>2013-05-26T09:28:47.000Z</time>
      </trkpt>
      <trkpt lat="48.51466" lon="-2.55292">
        <ele>137.1</ele>
        <time>2013-05-26T09:28:48.000Z</time>
      </trkpt>
      <trkpt lat="48.51462" lon="-2.55288">
        <ele>136.9</ele>
        <time>2013-05-26T09:28:49.000Z</time>
      </trkpt>
      <trkpt lat="48.51457" lon="-2.55288">
        <ele>137</ele>
        <time>2013-05-26T09:28:50.000Z</time>
      </trkpt>
      <trkpt lat="48.51452" lon="-2.5529">
        <ele>136.6</ele>
        <time>2013-05-26T09:28:51.000Z</time>
      </trkpt>
      <trkpt lat="48.51448" lon="-2.55295">
        <ele>136.2</ele>
        <time>2013-05-26T09:28:52.000Z</time>
      </trkpt>
      <trkpt lat="48.51445" lon="-2.55301">
        <ele>136.2</ele>
        <time>2013-05-26T09:28:53.000Z</time>
      </trkpt>
      <trkpt lat="48.51441" lon="-2.55307">
        <ele>136.6</ele>
        <time>2013-05-26T09:28:54.000Z</time>
      </trkpt>
      <trkpt lat="48.51437" lon="-2.55313">
        <ele>136.6</ele>
        <time>2013-05-26T09:28:55.000Z</time>
      </trkpt>
      <trkpt lat="48.51434" lon="-2.5532">
        <ele>136.8</ele>
        <time>2013-05-26T09:28:56.000Z</time>
      </trkpt>
      <trkpt lat="48.51431" lon="-2.55326">
        <ele>136.9</ele>
        <time>2013-05-26T09:28:57.000Z</time>
      </trkpt>
      <trkpt lat="48.51427" lon="-2.55333">
        <ele>137.1</ele>
        <time>2013-05-26T09:28:58.000Z</time>
      </trkpt>
      <trkpt lat="48.51424" lon="-2.55339">
        <ele>137.4</ele>
        <time>2013-05-26T09:28:59.000Z</time>
      </trkpt>
      <trkpt lat="48.5142" lon="-2.55346">
        <ele>137.5</ele>
        <time>2013-05-26T09:29:00.000Z</time>
      </trkpt>
      <trkpt lat="48.51417" lon="-2.55353">
        <ele>137.8</ele>
        <time>2013-05-26T09:29:01.000Z</time>
      </trkpt>
      <trkpt lat="48.51414" lon="-2.5536">
        <ele>138</ele>
        <time>2013-05-26T09:29:02.000Z</time>
      </trkpt>
      <trkpt lat="48.51411" lon="-2.55367">
        <ele>138</ele>
        <time>2013-05-26T09:29:03.000Z</time>
      </trkpt>
      <trkpt lat="48.51407" lon="-2.55375">
        <ele>138.1</ele>
        <time>2013-05-26T09:29:04.000Z</time>
      </trkpt>
      <trkpt lat="48.51404" lon="-2.55382">
        <ele>138</ele>
        <time>2013-05-26T09:29:05.000Z</time>
      </trkpt>
      <trkpt lat="48.51401" lon="-2.5539">
        <ele>138</ele>
        <time>2013-05-26T09:29:06.000Z</time>
      </trkpt>
      <trkpt lat="48.51397" lon="-2.55397">
        <ele>138</ele>
        <time>2013-05-26T09:29:07.000Z</time>
      </trkpt>
      <trkpt lat="48.51394" lon="-2.55405">
        <ele>138.1</ele>
        <time>2013-05-26T09:29:08.000Z</time>
      </trkpt>
      <trkpt lat="48.51391" lon="-2.55412">
        <ele>138.1</ele>
        <time>2013-05-26T09:29:09.000Z</time>
      </trkpt>
      <trkpt lat="48.51387" lon="-2.5542">
        <ele>138.1</ele>
        <time>2013-05-26T09:29:10.000Z</time>
      </trkpt>
      <trkpt lat="48.51384" lon="-2.55427">
        <ele>138.2</ele>
        <time>2013-05-26T09:29:11.000Z</time>
      </trkpt>
      <trkpt lat="48.5138" lon="-2.55435">
        <ele>138.2</ele>
        <time>2013-05-26T09:29:12.000Z</time>
      </trkpt>
      <trkpt lat="48.51377" lon="-2.55443">
        <ele>138.2</ele>
        <time>2013-05-26T09:29:13.000Z</time>
      </trkpt>
      <trkpt lat="48.51373" lon="-2.5545">
        <ele>138.1</ele>
        <time>2013-05-26T09:29:14.000Z</time>
      </trkpt>
      <trkpt lat="48.5137" lon="-2.55458">
        <ele>137.9</ele>
        <time>2013-05-26T09:29:15.000Z</time>
      </trkpt>
      <trkpt lat="48.51366" lon="-2.55466">
        <ele>137.6</ele>
        <time>2013-05-26T09:29:16.000Z</time>
      </trkpt>
      <trkpt lat="48.51362" lon="-2.55474">
        <ele>137.4</ele>
        <time>2013-05-26T09:29:17.000Z</time>
      </trkpt>
      <trkpt lat="48.51359" lon="-2.55482">
        <ele>137.3</ele>
        <time>2013-05-26T09:29:18.000Z</time>
      </trkpt>
      <trkpt lat="48.51355" lon="-2.55491">
        <ele>137.2</ele>
        <time>2013-05-26T09:29:19.000Z</time>
      </trkpt>
      <trkpt lat="48.51341" lon="-2.55539">
        <ele>123</ele>
        <time>2013-05-26T09:29:23.000Z</time>
      </trkpt>
      <trkpt lat="48.51338" lon="-2.55549">
        <ele>123.7</ele>
        <time>2013-05-26T09:29:24.000Z</time>
      </trkpt>
      <trkpt lat="48.51335" lon="-2.55558">
        <ele>121.4</ele>
        <time>2013-05-26T09:29:25.000Z</time>
      </trkpt>
      <trkpt lat="48.51331" lon="-2.55568">
        <ele>118.5</ele>
        <time>2013-05-26T09:29:26.000Z</time>
      </trkpt>
      <trkpt lat="48.51328" lon="-2.55582">
        <ele>113.9</ele>
        <time>2013-05-26T09:29:27.000Z</time>
      </trkpt>
      <trkpt lat="48.51325" lon="-2.55592">
        <ele>113.3</ele>
        <time>2013-05-26T09:29:28.000Z</time>
      </trkpt>
      <trkpt lat="48.51321" lon="-2.55599">
        <ele>114.3</ele>
        <time>2013-05-26T09:29:29.000Z</time>
      </trkpt>
      <trkpt lat="48.51317" lon="-2.55609">
        <ele>113.5</ele>
        <time>2013-05-26T09:29:30.000Z</time>
      </trkpt>
      <trkpt lat="48.51313" lon="-2.55617">
        <ele>114.3</ele>
        <time>2013-05-26T09:29:31.000Z</time>
      </trkpt>
      <trkpt lat="48.5131" lon="-2.55626">
        <ele>114.5</ele>
        <time>2013-05-26T09:29:32.000Z</time>
      </trkpt>
      <trkpt lat="48.51307" lon="-2.55636">
        <ele>114.4</ele>
        <time>2013-05-26T09:29:33.000Z</time>
      </trkpt>
      <trkpt lat="48.51303" lon="-2.55644">
        <ele>114.2</ele>
        <time>2013-05-26T09:29:34.000Z</time>
      </trkpt>
      <trkpt lat="48.513" lon="-2.55653">
        <ele>114.2</ele>
        <time>2013-05-26T09:29:35.000Z</time>
      </trkpt>
      <trkpt lat="48.51296" lon="-2.55658">
        <ele>115.9</ele>
        <time>2013-05-26T09:29:36.000Z</time>
      </trkpt>
      <trkpt lat="48.51293" lon="-2.55669">
        <ele>115.1</ele>
        <time>2013-05-26T09:29:37.000Z</time>
      </trkpt>
      <trkpt lat="48.5129" lon="-2.55678">
        <ele>114.6</ele>
        <time>2013-05-26T09:29:38.000Z</time>
      </trkpt>
      <trkpt lat="48.51286" lon="-2.55684">
        <ele>115.7</ele>
        <time>2013-05-26T09:29:39.000Z</time>
      </trkpt>
      <trkpt lat="48.51282" lon="-2.55691">
        <ele>116.5</ele>
        <time>2013-05-26T09:29:40.000Z</time>
      </trkpt>
      <trkpt lat="48.51278" lon="-2.55699">
        <ele>115.7</ele>
        <time>2013-05-26T09:29:41.000Z</time>
      </trkpt>
      <trkpt lat="48.51274" lon="-2.55707">
        <ele>116.3</ele>
        <time>2013-05-26T09:29:42.000Z</time>
      </trkpt>
      <trkpt lat="48.5127" lon="-2.55713">
        <ele>117</ele>
        <time>2013-05-26T09:29:43.000Z</time>
      </trkpt>
      <trkpt lat="48.51265" lon="-2.55719">
        <ele>118.2</ele>
        <time>2013-05-26T09:29:44.000Z</time>
      </trkpt>
      <trkpt lat="48.51261" lon="-2.55725">
        <ele>119.7</ele>
        <time>2013-05-26T09:29:45.000Z</time>
      </trkpt>
      <trkpt lat="48.51256" lon="-2.55731">
        <ele>120.4</ele>
        <time>2013-05-26T09:29:46.000Z</time>
      </trkpt>
      <trkpt lat="48.51252" lon="-2.55738">
        <ele>121.8</ele>
        <time>2013-05-26T09:29:47.000Z</time>
      </trkpt>
      <trkpt lat="48.51249" lon="-2.55746">
        <ele>122.5</ele>
        <time>2013-05-26T09:29:48.000Z</time>
      </trkpt>
      <trkpt lat="48.51245" lon="-2.55753">
        <ele>123.7</ele>
        <time>2013-05-26T09:29:49.000Z</time>
      </trkpt>
      <trkpt lat="48.51241" lon="-2.55761">
        <ele>124</ele>
        <time>2013-05-26T09:29:50.000Z</time>
      </trkpt>
      <trkpt lat="48.51238" lon="-2.5577">
        <ele>124</ele>
        <time>2013-05-26T09:29:51.000Z</time>
      </trkpt>
      <trkpt lat="48.51235" lon="-2.55778">
        <ele>124.5</ele>
        <time>2013-05-26T09:29:52.000Z</time>
      </trkpt>
      <trkpt lat="48.51232" lon="-2.55786">
        <ele>125.2</ele>
        <time>2013-05-26T09:29:53.000Z</time>
      </trkpt>
      <trkpt lat="48.51228" lon="-2.55793">
        <ele>126.2</ele>
        <time>2013-05-26T09:29:54.000Z</time>
      </trkpt>
      <trkpt lat="48.51225" lon="-2.558">
        <ele>127.6</ele>
        <time>2013-05-26T09:29:55.000Z</time>
      </trkpt>
      <trkpt lat="48.51222" lon="-2.55807">
        <ele>128.1</ele>
        <time>2013-05-26T09:29:56.000Z</time>
      </trkpt>
      <trkpt lat="48.51219" lon="-2.55812">
        <ele>129.2</ele>
        <time>2013-05-26T09:29:57.000Z</time>
      </trkpt>
      <trkpt lat="48.51215" lon="-2.55816">
        <ele>130.8</ele>
        <time>2013-05-26T09:29:58.000Z</time>
      </trkpt>
      <trkpt lat="48.5121" lon="-2.5582">
        <ele>131.5</ele>
        <time>2013-05-26T09:29:59.000Z</time>
      </trkpt>
      <trkpt lat="48.51205" lon="-2.55824">
        <ele>131.8</ele>
        <time>2013-05-26T09:30:00.000Z</time>
      </trkpt>
      <trkpt lat="48.512" lon="-2.55829">
        <ele>131.6</ele>
        <time>2013-05-26T09:30:01.000Z</time>
      </trkpt>
      <trkpt lat="48.51195" lon="-2.55834">
        <ele>131.4</ele>
        <time>2013-05-26T09:30:02.000Z</time>
      </trkpt>
      <trkpt lat="48.5119" lon="-2.55839">
        <ele>131.4</ele>
        <time>2013-05-26T09:30:03.000Z</time>
      </trkpt>
      <trkpt lat="48.51185" lon="-2.55842">
        <ele>131.4</ele>
        <time>2013-05-26T09:30:04.000Z</time>
      </trkpt>
      <trkpt lat="48.5118" lon="-2.55846">
        <ele>131.2</ele>
        <time>2013-05-26T09:30:05.000Z</time>
      </trkpt>
      <trkpt lat="48.51175" lon="-2.55851">
        <ele>131</ele>
        <time>2013-05-26T09:30:06.000Z</time>
      </trkpt>
      <trkpt lat="48.51171" lon="-2.55856">
        <ele>131.1</ele>
        <time>2013-05-26T09:30:07.000Z</time>
      </trkpt>
      <trkpt lat="48.51166" lon="-2.55861">
        <ele>130.9</ele>
        <time>2013-05-26T09:30:08.000Z</time>
      </trkpt>
      <trkpt lat="48.51161" lon="-2.55866">
        <ele>130.9</ele>
        <time>2013-05-26T09:30:09.000Z</time>
      </trkpt>
      <trkpt lat="48.51156" lon="-2.5587">
        <ele>131.1</ele>
        <time>2013-05-26T09:30:10.000Z</time>
      </trkpt>
      <trkpt lat="48.51151" lon="-2.55873">
        <ele>130.9</ele>
        <time>2013-05-26T09:30:11.000Z</time>
      </trkpt>
      <trkpt lat="48.51146" lon="-2.55877">
        <ele>130.8</ele>
        <time>2013-05-26T09:30:12.000Z</time>
      </trkpt>
      <trkpt lat="48.5114" lon="-2.5588">
        <ele>130.6</ele>
        <time>2013-05-26T09:30:13.000Z</time>
      </trkpt>
      <trkpt lat="48.51135" lon="-2.55883">
        <ele>130.6</ele>
        <time>2013-05-26T09:30:14.000Z</time>
      </trkpt>
      <trkpt lat="48.51129" lon="-2.55886">
        <ele>130.4</ele>
        <time>2013-05-26T09:30:15.000Z</time>
      </trkpt>
      <trkpt lat="48.51124" lon="-2.55889">
        <ele>130.1</ele>
        <time>2013-05-26T09:30:16.000Z</time>
      </trkpt>
      <trkpt lat="48.51119" lon="-2.55892">
        <ele>129.9</ele>
        <time>2013-05-26T09:30:17.000Z</time>
      </trkpt>
      <trkpt lat="48.51114" lon="-2.55896">
        <ele>129.8</ele>
        <time>2013-05-26T09:30:18.000Z</time>
      </trkpt>
      <trkpt lat="48.5111" lon="-2.559">
        <ele>129.8</ele>
        <time>2013-05-26T09:30:19.000Z</time>
      </trkpt>
      <trkpt lat="48.51087" lon="-2.55911">
        <ele>117.5</ele>
        <time>2013-05-26T09:30:22.000Z</time>
      </trkpt>
      <trkpt lat="48.51085" lon="-2.55916">
        <ele>124.2</ele>
        <time>2013-05-26T09:30:23.000Z</time>
      </trkpt>
      <trkpt lat="48.51085" lon="-2.55921">
        <ele>132.2</ele>
        <time>2013-05-26T09:30:24.000Z</time>
      </trkpt>
      <trkpt lat="48.51086" lon="-2.55929">
        <ele>136.2</ele>
        <time>2013-05-26T09:30:25.000Z</time>
      </trkpt>
      <trkpt lat="48.51085" lon="-2.55934">
        <ele>138.6</ele>
        <time>2013-05-26T09:30:26.000Z</time>
      </trkpt>
      <trkpt lat="48.51084" lon="-2.55938">
        <ele>139.4</ele>
        <time>2013-05-26T09:30:27.000Z</time>
      </trkpt>
      <trkpt lat="48.51083" lon="-2.55944">
        <ele>139.9</ele>
        <time>2013-05-26T09:30:28.000Z</time>
      </trkpt>
      <trkpt lat="48.51083" lon="-2.55949">
        <ele>141</ele>
        <time>2013-05-26T09:30:29.000Z</time>
      </trkpt>
      <trkpt lat="48.51083" lon="-2.55955">
        <ele>145.1</ele>
        <time>2013-05-26T09:30:30.000Z</time>
      </trkpt>
      <trkpt lat="48.51083" lon="-2.55961">
        <ele>147</ele>
        <time>2013-05-26T09:30:31.000Z</time>
      </trkpt>
      <trkpt lat="48.51082" lon="-2.55967">
        <ele>148</ele>
        <time>2013-05-26T09:30:32.000Z</time>
      </trkpt>
      <trkpt lat="48.51082" lon="-2.55974">
        <ele>149.3</ele>
        <time>2013-05-26T09:30:33.000Z</time>
      </trkpt>
      <trkpt lat="48.51081" lon="-2.5598">
        <ele>149.7</ele>
        <time>2013-05-26T09:30:34.000Z</time>
      </trkpt>
      <trkpt lat="48.51081" lon="-2.55987">
        <ele>151.3</ele>
        <time>2013-05-26T09:30:35.000Z</time>
      </trkpt>
      <trkpt lat="48.51081" lon="-2.55993">
        <ele>153.9</ele>
        <time>2013-05-26T09:30:36.000Z</time>
      </trkpt>
      <trkpt lat="48.51078" lon="-2.55999">
        <ele>154.3</ele>
        <time>2013-05-26T09:30:37.000Z</time>
      </trkpt>
      <trkpt lat="48.51076" lon="-2.56004">
        <ele>155.9</ele>
        <time>2013-05-26T09:30:38.000Z</time>
      </trkpt>
      <trkpt lat="48.51074" lon="-2.56011">
        <ele>156.1</ele>
        <time>2013-05-26T09:30:39.000Z</time>
      </trkpt>
      <trkpt lat="48.51073" lon="-2.56017">
        <ele>156.2</ele>
        <time>2013-05-26T09:30:40.000Z</time>
      </trkpt>
      <trkpt lat="48.51072" lon="-2.56023">
        <ele>155.9</ele>
        <time>2013-05-26T09:30:41.000Z</time>
      </trkpt>
      <trkpt lat="48.51071" lon="-2.56028">
        <ele>156</ele>
        <time>2013-05-26T09:30:42.000Z</time>
      </trkpt>
      <trkpt lat="48.5107" lon="-2.56031">
        <ele>155</ele>
        <time>2013-05-26T09:30:43.000Z</time>
      </trkpt>
      <trkpt lat="48.51068" lon="-2.56036">
        <ele>153.5</ele>
        <time>2013-05-26T09:30:46.000Z</time>
      </trkpt>
      <trkpt lat="48.51068" lon="-2.56039">
        <ele>151.6</ele>
        <time>2013-05-26T09:30:47.000Z</time>
      </trkpt>
      <trkpt lat="48.51068" lon="-2.56043">
        <ele>148</ele>
        <time>2013-05-26T09:30:54.000Z</time>
      </trkpt>
      <trkpt lat="48.51068" lon="-2.56047">
        <ele>145.8</ele>
        <time>2013-05-26T09:30:55.000Z</time>
      </trkpt>
      <trkpt lat="48.51067" lon="-2.56054">
        <ele>129</ele>
        <time>2013-05-26T09:31:22.000Z</time>
      </trkpt>
      <trkpt lat="48.51068" lon="-2.56056">
        <ele>120.9</ele>
        <time>2013-05-26T09:31:24.000Z</time>
      </trkpt>
      <trkpt lat="48.51068" lon="-2.56056">
        <ele>120.9</ele>
        <time>2013-05-26T09:31:27.000Z</time>
      </trkpt>
      <trkpt lat="48.51064" lon="-2.56045">
        <ele>123.9</ele>
        <time>2013-05-26T09:31:28.000Z</time>
      </trkpt>
      <trkpt lat="48.51062" lon="-2.56039">
        <ele>127.2</ele>
        <time>2013-05-26T09:31:30.000Z</time>
      </trkpt>
      <trkpt lat="48.51062" lon="-2.56039">
        <ele>129.4</ele>
        <time>2013-05-26T09:31:31.000Z</time>
      </trkpt>
      <trkpt lat="48.51062" lon="-2.56039">
        <ele>129.4</ele>
        <time>2013-05-26T09:31:49.000Z</time>
      </trkpt>
      <trkpt lat="48.51062" lon="-2.56047">
        <ele>133.1</ele>
        <time>2013-05-26T09:31:50.000Z</time>
      </trkpt>
      <trkpt lat="48.51063" lon="-2.56049">
        <ele>134.2</ele>
        <time>2013-05-26T09:32:25.000Z</time>
      </trkpt>
      <trkpt lat="48.51065" lon="-2.56052">
        <ele>134.7</ele>
        <time>2013-05-26T09:32:26.000Z</time>
      </trkpt>
      <trkpt lat="48.51066" lon="-2.56046">
        <ele>136.9</ele>
        <time>2013-05-26T09:33:19.000Z</time>
      </trkpt>
      <trkpt lat="48.51073" lon="-2.56047">
        <ele>142.8</ele>
        <time>2013-05-26T09:33:22.000Z</time>
      </trkpt>
      <trkpt lat="48.51071" lon="-2.56047">
        <ele>141.7</ele>
        <time>2013-05-26T09:33:23.000Z</time>
      </trkpt>
      <trkpt lat="48.51067" lon="-2.56048">
        <ele>137.7</ele>
        <time>2013-05-26T09:33:24.000Z</time>
      </trkpt>
      <trkpt lat="48.51065" lon="-2.56042">
        <ele>137.2</ele>
        <time>2013-05-26T09:33:29.000Z</time>
      </trkpt>
      <trkpt lat="48.51066" lon="-2.56041">
        <ele>137.4</ele>
        <time>2013-05-26T09:33:30.000Z</time>
      </trkpt>
      <trkpt lat="48.51062" lon="-2.5604">
        <ele>140.7</ele>
        <time>2013-05-26T09:34:23.000Z</time>
      </trkpt>
      <trkpt lat="48.5106" lon="-2.56043">
        <ele>139.7</ele>
        <time>2013-05-26T09:34:24.000Z</time>
      </trkpt>
      <trkpt lat="48.51064" lon="-2.56043">
        <ele>141.6</ele>
        <time>2013-05-26T09:34:42.000Z</time>
      </trkpt>
      <trkpt lat="48.51065" lon="-2.56043">
        <ele>141.9</ele>
        <time>2013-05-26T09:34:43.000Z</time>
      </trkpt>
      <trkpt lat="48.51065" lon="-2.56043">
        <ele>141.9</ele>
        <time>2013-05-26T09:35:19.000Z</time>
      </trkpt>
      <trkpt lat="48.5107" lon="-2.56045">
        <ele>142.2</ele>
        <time>2013-05-26T09:35:23.000Z</time>
      </trkpt>
      <trkpt lat="48.51066" lon="-2.56043">
        <ele>137.3</ele>
        <time>2013-05-26T09:37:02.000Z</time>
      </trkpt>
      <trkpt lat="48.51065" lon="-2.56043">
        <ele>137.2</ele>
        <time>2013-05-26T09:37:03.000Z</time>
      </trkpt>
      <trkpt lat="48.51062" lon="-2.56047">
        <ele>135.7</ele>
        <time>2013-05-26T09:37:17.000Z</time>
      </trkpt>
      <trkpt lat="48.51061" lon="-2.56049">
        <ele>135.4</ele>
        <time>2013-05-26T09:37:18.000Z</time>
      </trkpt>
      <trkpt lat="48.51059" lon="-2.56052">
        <ele>134.9</ele>
        <time>2013-05-26T09:37:19.000Z</time>
      </trkpt>
      <trkpt lat="48.51012" lon="-2.56192">
        <ele>142.4</ele>
        <time>2013-05-26T09:37:42.000Z</time>
      </trkpt>
      <trkpt lat="48.51008" lon="-2.56199">
        <ele>141.4</ele>
        <time>2013-05-26T09:37:43.000Z</time>
      </trkpt>
      <trkpt lat="48.51007" lon="-2.56206">
        <ele>139.1</ele>
        <time>2013-05-26T09:37:44.000Z</time>
      </trkpt>
      <trkpt lat="48.51001" lon="-2.56211">
        <ele>138.5</ele>
        <time>2013-05-26T09:37:45.000Z</time>
      </trkpt>
      <trkpt lat="48.50999" lon="-2.56217">
        <ele>138.8</ele>
        <time>2013-05-26T09:37:46.000Z</time>
      </trkpt>
      <trkpt lat="48.50996" lon="-2.5622">
        <ele>138.6</ele>
        <time>2013-05-26T09:37:47.000Z</time>
      </trkpt>
      <trkpt lat="48.50994" lon="-2.56224">
        <ele>139.6</ele>
        <time>2013-05-26T09:37:48.000Z</time>
      </trkpt>
      <trkpt lat="48.50991" lon="-2.56229">
        <ele>138.2</ele>
        <time>2013-05-26T09:37:49.000Z</time>
      </trkpt>
      <trkpt lat="48.50988" lon="-2.56234">
        <ele>137.9</ele>
        <time>2013-05-26T09:37:50.000Z</time>
      </trkpt>
      <trkpt lat="48.50986" lon="-2.56239">
        <ele>137.3</ele>
        <time>2013-05-26T09:37:51.000Z</time>
      </trkpt>
      <trkpt lat="48.50984" lon="-2.56243">
        <ele>138.2</ele>
        <time>2013-05-26T09:37:52.000Z</time>
      </trkpt>
      <trkpt lat="48.50981" lon="-2.56249">
        <ele>138.4</ele>
        <time>2013-05-26T09:37:53.000Z</time>
      </trkpt>
      <trkpt lat="48.50979" lon="-2.56255">
        <ele>138</ele>
        <time>2013-05-26T09:37:54.000Z</time>
      </trkpt>
      <trkpt lat="48.50977" lon="-2.56261">
        <ele>138.5</ele>
        <time>2013-05-26T09:37:55.000Z</time>
      </trkpt>
      <trkpt lat="48.50975" lon="-2.56267">
        <ele>138.3</ele>
        <time>2013-05-26T09:37:56.000Z</time>
      </trkpt>
      <trkpt lat="48.50973" lon="-2.56274">
        <ele>138.2</ele>
        <time>2013-05-26T09:37:57.000Z</time>
      </trkpt>
      <trkpt lat="48.50971" lon="-2.5628">
        <ele>139</ele>
        <time>2013-05-26T09:37:58.000Z</time>
      </trkpt>
      <trkpt lat="48.50969" lon="-2.56286">
        <ele>139.2</ele>
        <time>2013-05-26T09:37:59.000Z</time>
      </trkpt>
      <trkpt lat="48.50967" lon="-2.56292">
        <ele>139.5</ele>
        <time>2013-05-26T09:38:00.000Z</time>
      </trkpt>
      <trkpt lat="48.50966" lon="-2.56298">
        <ele>140.1</ele>
        <time>2013-05-26T09:38:01.000Z</time>
      </trkpt>
      <trkpt lat="48.50965" lon="-2.56303">
        <ele>140.7</ele>
        <time>2013-05-26T09:38:02.000Z</time>
      </trkpt>
      <trkpt lat="48.50964" lon="-2.5631">
        <ele>141.1</ele>
        <time>2013-05-26T09:38:03.000Z</time>
      </trkpt>
      <trkpt lat="48.50964" lon="-2.56316">
        <ele>141.4</ele>
        <time>2013-05-26T09:38:04.000Z</time>
      </trkpt>
      <trkpt lat="48.50962" lon="-2.56321">
        <ele>141.9</ele>
        <time>2013-05-26T09:38:05.000Z</time>
      </trkpt>
      <trkpt lat="48.50961" lon="-2.56325">
        <ele>142.4</ele>
        <time>2013-05-26T09:38:06.000Z</time>
      </trkpt>
      <trkpt lat="48.5096" lon="-2.56331">
        <ele>143.1</ele>
        <time>2013-05-26T09:38:07.000Z</time>
      </trkpt>
      <trkpt lat="48.50958" lon="-2.56336">
        <ele>142.5</ele>
        <time>2013-05-26T09:38:08.000Z</time>
      </trkpt>
      <trkpt lat="48.50955" lon="-2.56341">
        <ele>142.5</ele>
        <time>2013-05-26T09:38:09.000Z</time>
      </trkpt>
      <trkpt lat="48.50952" lon="-2.56348">
        <ele>144.9</ele>
        <time>2013-05-26T09:38:10.000Z</time>
      </trkpt>
      <trkpt lat="48.50949" lon="-2.56354">
        <ele>144.8</ele>
        <time>2013-05-26T09:38:11.000Z</time>
      </trkpt>
      <trkpt lat="48.50946" lon="-2.5636">
        <ele>145.2</ele>
        <time>2013-05-26T09:38:12.000Z</time>
      </trkpt>
      <trkpt lat="48.50944" lon="-2.56368">
        <ele>145.5</ele>
        <time>2013-05-26T09:38:13.000Z</time>
      </trkpt>
      <trkpt lat="48.50942" lon="-2.56375">
        <ele>146.1</ele>
        <time>2013-05-26T09:38:14.000Z</time>
      </trkpt>
      <trkpt lat="48.50939" lon="-2.56382">
        <ele>146.1</ele>
        <time>2013-05-26T09:38:15.000Z</time>
      </trkpt>
      <trkpt lat="48.50936" lon="-2.5639">
        <ele>145.7</ele>
        <time>2013-05-26T09:38:16.000Z</time>
      </trkpt>
      <trkpt lat="48.50935" lon="-2.56396">
        <ele>145.4</ele>
        <time>2013-05-26T09:38:17.000Z</time>
      </trkpt>
      <trkpt lat="48.50932" lon="-2.56403">
        <ele>145.6</ele>
        <time>2013-05-26T09:38:18.000Z</time>
      </trkpt>
      <trkpt lat="48.5093" lon="-2.56409">
        <ele>145.8</ele>
        <time>2013-05-26T09:38:19.000Z</time>
      </trkpt>
      <trkpt lat="48.5091" lon="-2.56468">
        <ele>124.1</ele>
        <time>2013-05-26T09:38:26.000Z</time>
      </trkpt>
      <trkpt lat="48.50901" lon="-2.56459">
        <ele>139.6</ele>
        <time>2013-05-26T09:38:27.000Z</time>
      </trkpt>
      <trkpt lat="48.50899" lon="-2.56465">
        <ele>139.9</ele>
        <time>2013-05-26T09:38:28.000Z</time>
      </trkpt>
      <trkpt lat="48.50899" lon="-2.56479">
        <ele>138.7</ele>
        <time>2013-05-26T09:38:29.000Z</time>
      </trkpt>
      <trkpt lat="48.50896" lon="-2.56484">
        <ele>142.2</ele>
        <time>2013-05-26T09:38:30.000Z</time>
      </trkpt>
      <trkpt lat="48.50894" lon="-2.56492">
        <ele>142</ele>
        <time>2013-05-26T09:38:31.000Z</time>
      </trkpt>
      <trkpt lat="48.50892" lon="-2.56497">
        <ele>144.1</ele>
        <time>2013-05-26T09:38:32.000Z</time>
      </trkpt>
      <trkpt lat="48.5089" lon="-2.56504">
        <ele>145.7</ele>
        <time>2013-05-26T09:38:33.000Z</time>
      </trkpt>
      <trkpt lat="48.5089" lon="-2.56515">
        <ele>145.7</ele>
        <time>2013-05-26T09:38:34.000Z</time>
      </trkpt>
      <trkpt lat="48.5089" lon="-2.56525">
        <ele>147.1</ele>
        <time>2013-05-26T09:38:35.000Z</time>
      </trkpt>
      <trkpt lat="48.5089" lon="-2.56533">
        <ele>149.2</ele>
        <time>2013-05-26T09:38:36.000Z</time>
      </trkpt>
      <trkpt lat="48.5089" lon="-2.56539">
        <ele>151.9</ele>
        <time>2013-05-26T09:38:37.000Z</time>
      </trkpt>
      <trkpt lat="48.5089" lon="-2.56547">
        <ele>151.8</ele>
        <time>2013-05-26T09:38:38.000Z</time>
      </trkpt>
      <trkpt lat="48.50889" lon="-2.56556">
        <ele>150.9</ele>
        <time>2013-05-26T09:38:39.000Z</time>
      </trkpt>
      <trkpt lat="48.50889" lon="-2.56564">
        <ele>150.8</ele>
        <time>2013-05-26T09:38:40.000Z</time>
      </trkpt>
      <trkpt lat="48.50888" lon="-2.56571">
        <ele>151.4</ele>
        <time>2013-05-26T09:38:41.000Z</time>
      </trkpt>
      <trkpt lat="48.50887" lon="-2.56579">
        <ele>151.6</ele>
        <time>2013-05-26T09:38:42.000Z</time>
      </trkpt>
      <trkpt lat="48.50886" lon="-2.56587">
        <ele>152</ele>
        <time>2013-05-26T09:38:43.000Z</time>
      </trkpt>
      <trkpt lat="48.50886" lon="-2.56594">
        <ele>152.9</ele>
        <time>2013-05-26T09:38:44.000Z</time>
      </trkpt>
      <trkpt lat="48.50885" lon="-2.56604">
        <ele>152.3</ele>
        <time>2013-05-26T09:38:45.000Z</time>
      </trkpt>
      <trkpt lat="48.50885" lon="-2.56613">
        <ele>151.5</ele>
        <time>2013-05-26T09:38:46.000Z</time>
      </trkpt>
      <trkpt lat="48.50885" lon="-2.56622">
        <ele>151.1</ele>
        <time>2013-05-26T09:38:47.000Z</time>
      </trkpt>
      <trkpt lat="48.50885" lon="-2.56632">
        <ele>150.3</ele>
        <time>2013-05-26T09:38:48.000Z</time>
      </trkpt>
      <trkpt lat="48.50885" lon="-2.56643">
        <ele>148.9</ele>
        <time>2013-05-26T09:38:49.000Z</time>
      </trkpt>
      <trkpt lat="48.50886" lon="-2.56654">
        <ele>147.5</ele>
        <time>2013-05-26T09:38:50.000Z</time>
      </trkpt>
      <trkpt lat="48.50887" lon="-2.56665">
        <ele>145.2</ele>
        <time>2013-05-26T09:38:51.000Z</time>
      </trkpt>
      <trkpt lat="48.50888" lon="-2.56676">
        <ele>142.9</ele>
        <time>2013-05-26T09:38:52.000Z</time>
      </trkpt>
      <trkpt lat="48.50889" lon="-2.56687">
        <ele>141</ele>
        <time>2013-05-26T09:38:53.000Z</time>
      </trkpt>
      <trkpt lat="48.50889" lon="-2.56697">
        <ele>139.8</ele>
        <time>2013-05-26T09:38:54.000Z</time>
      </trkpt>
      <trkpt lat="48.50889" lon="-2.56708">
        <ele>138.8</ele>
        <time>2013-05-26T09:38:55.000Z</time>
      </trkpt>
      <trkpt lat="48.50889" lon="-2.56719">
        <ele>137.6</ele>
        <time>2013-05-26T09:38:56.000Z</time>
      </trkpt>
      <trkpt lat="48.50889" lon="-2.56729">
        <ele>137</ele>
        <time>2013-05-26T09:38:57.000Z</time>
      </trkpt>
      <trkpt lat="48.50889" lon="-2.5674">
        <ele>136.3</ele>
        <time>2013-05-26T09:38:58.000Z</time>
      </trkpt>
      <trkpt lat="48.50888" lon="-2.56751">
        <ele>135.5</ele>
        <time>2013-05-26T09:38:59.000Z</time>
      </trkpt>
      <trkpt lat="48.50888" lon="-2.56761">
        <ele>135</ele>
        <time>2013-05-26T09:39:00.000Z</time>
      </trkpt>
      <trkpt lat="48.50887" lon="-2.56772">
        <ele>134.5</ele>
        <time>2013-05-26T09:39:01.000Z</time>
      </trkpt>
      <trkpt lat="48.50886" lon="-2.56784">
        <ele>133.3</ele>
        <time>2013-05-26T09:39:02.000Z</time>
      </trkpt>
      <trkpt lat="48.50885" lon="-2.56794">
        <ele>132.4</ele>
        <time>2013-05-26T09:39:03.000Z</time>
      </trkpt>
      <trkpt lat="48.50884" lon="-2.56805">
        <ele>131.8</ele>
        <time>2013-05-26T09:39:04.000Z</time>
      </trkpt>
      <trkpt lat="48.50883" lon="-2.56815">
        <ele>131.1</ele>
        <time>2013-05-26T09:39:05.000Z</time>
      </trkpt>
      <trkpt lat="48.50881" lon="-2.56825">
        <ele>130.5</ele>
        <time>2013-05-26T09:39:06.000Z</time>
      </trkpt>
      <trkpt lat="48.50878" lon="-2.56834">
        <ele>130.3</ele>
        <time>2013-05-26T09:39:07.000Z</time>
      </trkpt>
      <trkpt lat="48.50875" lon="-2.56843">
        <ele>130.1</ele>
        <time>2013-05-26T09:39:08.000Z</time>
      </trkpt>
      <trkpt lat="48.50872" lon="-2.56853">
        <ele>130</ele>
        <time>2013-05-26T09:39:09.000Z</time>
      </trkpt>
      <trkpt lat="48.5087" lon="-2.56862">
        <ele>129.8</ele>
        <time>2013-05-26T09:39:10.000Z</time>
      </trkpt>
      <trkpt lat="48.50869" lon="-2.56872">
        <ele>129.6</ele>
        <time>2013-05-26T09:39:11.000Z</time>
      </trkpt>
      <trkpt lat="48.50868" lon="-2.56881">
        <ele>129.4</ele>
        <time>2013-05-26T09:39:12.000Z</time>
      </trkpt>
      <trkpt lat="48.50867" lon="-2.56891">
        <ele>129.3</ele>
        <time>2013-05-26T09:39:13.000Z</time>
      </trkpt>
      <trkpt lat="48.50866" lon="-2.569">
        <ele>128.9</ele>
        <time>2013-05-26T09:39:14.000Z</time>
      </trkpt>
      <trkpt lat="48.50866" lon="-2.5691">
        <ele>128.7</ele>
        <time>2013-05-26T09:39:15.000Z</time>
      </trkpt>
      <trkpt lat="48.50865" lon="-2.56919">
        <ele>128.8</ele>
        <time>2013-05-26T09:39:16.000Z</time>
      </trkpt>
      <trkpt lat="48.50865" lon="-2.56928">
        <ele>128.7</ele>
        <time>2013-05-26T09:39:17.000Z</time>
      </trkpt>
      <trkpt lat="48.50865" lon="-2.56938">
        <ele>128.6</ele>
        <time>2013-05-26T09:39:18.000Z</time>
      </trkpt>
      <trkpt lat="48.50864" lon="-2.56948">
        <ele>128.4</ele>
        <time>2013-05-26T09:39:19.000Z</time>
      </trkpt>
      <trkpt lat="48.50871" lon="-2.56994">
        <ele>128.1</ele>
        <time>2013-05-26T09:39:24.000Z</time>
      </trkpt>
      <trkpt lat="48.50867" lon="-2.57007">
        <ele>130.4</ele>
        <time>2013-05-26T09:39:25.000Z</time>
      </trkpt>
      <trkpt lat="48.50865" lon="-2.57013">
        <ele>132.5</ele>
        <time>2013-05-26T09:39:26.000Z</time>
      </trkpt>
      <trkpt lat="48.50862" lon="-2.57026">
        <ele>131.7</ele>
        <time>2013-05-26T09:39:27.000Z</time>
      </trkpt>
      <trkpt lat="48.50862" lon="-2.57035">
        <ele>130.5</ele>
        <time>2013-05-26T09:39:28.000Z</time>
      </trkpt>
      <trkpt lat="48.50862" lon="-2.57044">
        <ele>130.4</ele>
        <time>2013-05-26T09:39:29.000Z</time>
      </trkpt>
      <trkpt lat="48.5086" lon="-2.57058">
        <ele>128.9</ele>
        <time>2013-05-26T09:39:30.000Z</time>
      </trkpt>
      <trkpt lat="48.50859" lon="-2.5707">
        <ele>128.5</ele>
        <time>2013-05-26T09:39:31.000Z</time>
      </trkpt>
      <trkpt lat="48.50857" lon="-2.57081">
        <ele>129</ele>
        <time>2013-05-26T09:39:32.000Z</time>
      </trkpt>
      <trkpt lat="48.50856" lon="-2.57092">
        <ele>128.6</ele>
        <time>2013-05-26T09:39:33.000Z</time>
      </trkpt>
      <trkpt lat="48.50855" lon="-2.57102">
        <ele>128.5</ele>
        <time>2013-05-26T09:39:34.000Z</time>
      </trkpt>
      <trkpt lat="48.50854" lon="-2.57112">
        <ele>127.9</ele>
        <time>2013-05-26T09:39:35.000Z</time>
      </trkpt>
      <trkpt lat="48.50853" lon="-2.57124">
        <ele>126.9</ele>
        <time>2013-05-26T09:39:36.000Z</time>
      </trkpt>
      <trkpt lat="48.50851" lon="-2.57138">
        <ele>126.3</ele>
        <time>2013-05-26T09:39:37.000Z</time>
      </trkpt>
      <trkpt lat="48.50849" lon="-2.57149">
        <ele>126.2</ele>
        <time>2013-05-26T09:39:38.000Z</time>
      </trkpt>
      <trkpt lat="48.50848" lon="-2.57159">
        <ele>126.3</ele>
        <time>2013-05-26T09:39:39.000Z</time>
      </trkpt>
      <trkpt lat="48.50848" lon="-2.57168">
        <ele>126.3</ele>
        <time>2013-05-26T09:39:40.000Z</time>
      </trkpt>
      <trkpt lat="48.50848" lon="-2.57177">
        <ele>126.1</ele>
        <time>2013-05-26T09:39:41.000Z</time>
      </trkpt>
      <trkpt lat="48.50847" lon="-2.57188">
        <ele>125.6</ele>
        <time>2013-05-26T09:39:42.000Z</time>
      </trkpt>
      <trkpt lat="48.50846" lon="-2.57198">
        <ele>125.3</ele>
        <time>2013-05-26T09:39:43.000Z</time>
      </trkpt>
      <trkpt lat="48.50845" lon="-2.57207">
        <ele>125.5</ele>
        <time>2013-05-26T09:39:44.000Z</time>
      </trkpt>
      <trkpt lat="48.50844" lon="-2.57218">
        <ele>125.3</ele>
        <time>2013-05-26T09:39:45.000Z</time>
      </trkpt>
      <trkpt lat="48.50842" lon="-2.57228">
        <ele>125.4</ele>
        <time>2013-05-26T09:39:46.000Z</time>
      </trkpt>
      <trkpt lat="48.5084" lon="-2.57238">
        <ele>125.6</ele>
        <time>2013-05-26T09:39:47.000Z</time>
      </trkpt>
      <trkpt lat="48.50838" lon="-2.57247">
        <ele>126.2</ele>
        <time>2013-05-26T09:39:48.000Z</time>
      </trkpt>
      <trkpt lat="48.50836" lon="-2.57256">
        <ele>126.2</ele>
        <time>2013-05-26T09:39:49.000Z</time>
      </trkpt>
      <trkpt lat="48.50834" lon="-2.57265">
        <ele>126.4</ele>
        <time>2013-05-26T09:39:50.000Z</time>
      </trkpt>
      <trkpt lat="48.50831" lon="-2.57275">
        <ele>126.2</ele>
        <time>2013-05-26T09:39:51.000Z</time>
      </trkpt>
      <trkpt lat="48.50829" lon="-2.57285">
        <ele>125.6</ele>
        <time>2013-05-26T09:39:52.000Z</time>
      </trkpt>
      <trkpt lat="48.50826" lon="-2.57294">
        <ele>125.5</ele>
        <time>2013-05-26T09:39:53.000Z</time>
      </trkpt>
      <trkpt lat="48.50824" lon="-2.57304">
        <ele>125.1</ele>
        <time>2013-05-26T09:39:54.000Z</time>
      </trkpt>
      <trkpt lat="48.50822" lon="-2.57313">
        <ele>124.9</ele>
        <time>2013-05-26T09:39:55.000Z</time>
      </trkpt>
      <trkpt lat="48.50819" lon="-2.57323">
        <ele>124.7</ele>
        <time>2013-05-26T09:39:56.000Z</time>
      </trkpt>
      <trkpt lat="48.50817" lon="-2.57332">
        <ele>124.5</ele>
        <time>2013-05-26T09:39:57.000Z</time>
      </trkpt>
      <trkpt lat="48.50814" lon="-2.57341">
        <ele>124.5</ele>
        <time>2013-05-26T09:39:58.000Z</time>
      </trkpt>
      <trkpt lat="48.50812" lon="-2.57351">
        <ele>124.4</ele>
        <time>2013-05-26T09:39:59.000Z</time>
      </trkpt>
      <trkpt lat="48.5081" lon="-2.57361">
        <ele>124.1</ele>
        <time>2013-05-26T09:40:00.000Z</time>
      </trkpt>
      <trkpt lat="48.50808" lon="-2.57371">
        <ele>123.6</ele>
        <time>2013-05-26T09:40:01.000Z</time>
      </trkpt>
      <trkpt lat="48.50807" lon="-2.57381">
        <ele>123.2</ele>
        <time>2013-05-26T09:40:02.000Z</time>
      </trkpt>
      <trkpt lat="48.50805" lon="-2.57391">
        <ele>122.9</ele>
        <time>2013-05-26T09:40:03.000Z</time>
      </trkpt>
      <trkpt lat="48.50804" lon="-2.57402">
        <ele>122.6</ele>
        <time>2013-05-26T09:40:04.000Z</time>
      </trkpt>
      <trkpt lat="48.50803" lon="-2.57412">
        <ele>122.4</ele>
        <time>2013-05-26T09:40:05.000Z</time>
      </trkpt>
      <trkpt lat="48.50803" lon="-2.57423">
        <ele>122.3</ele>
        <time>2013-05-26T09:40:06.000Z</time>
      </trkpt>
      <trkpt lat="48.50802" lon="-2.57434">
        <ele>121.9</ele>
        <time>2013-05-26T09:40:07.000Z</time>
      </trkpt>
      <trkpt lat="48.50802" lon="-2.57445">
        <ele>121.6</ele>
        <time>2013-05-26T09:40:08.000Z</time>
      </trkpt>
      <trkpt lat="48.50802" lon="-2.57456">
        <ele>121.5</ele>
        <time>2013-05-26T09:40:09.000Z</time>
      </trkpt>
      <trkpt lat="48.50802" lon="-2.57467">
        <ele>121</ele>
        <time>2013-05-26T09:40:10.000Z</time>
      </trkpt>
      <trkpt lat="48.50802" lon="-2.57478">
        <ele>120.5</ele>
        <time>2013-05-26T09:40:11.000Z</time>
      </trkpt>
      <trkpt lat="48.50802" lon="-2.57489">
        <ele>120</ele>
        <time>2013-05-26T09:40:12.000Z</time>
      </trkpt>
      <trkpt lat="48.50802" lon="-2.575">
        <ele>119.7</ele>
        <time>2013-05-26T09:40:13.000Z</time>
      </trkpt>
      <trkpt lat="48.50802" lon="-2.57511">
        <ele>119.6</ele>
        <time>2013-05-26T09:40:14.000Z</time>
      </trkpt>
      <trkpt lat="48.50803" lon="-2.57521">
        <ele>119.5</ele>
        <time>2013-05-26T09:40:15.000Z</time>
      </trkpt>
      <trkpt lat="48.50805" lon="-2.57531">
        <ele>119.4</ele>
        <time>2013-05-26T09:40:16.000Z</time>
      </trkpt>
      <trkpt lat="48.50807" lon="-2.57541">
        <ele>119.4</ele>
        <time>2013-05-26T09:40:17.000Z</time>
      </trkpt>
      <trkpt lat="48.5081" lon="-2.5755">
        <ele>119.4</ele>
        <time>2013-05-26T09:40:18.000Z</time>
      </trkpt>
      <trkpt lat="48.50814" lon="-2.57559">
        <ele>119.3</ele>
        <time>2013-05-26T09:40:19.000Z</time>
      </trkpt>
      <trkpt lat="48.50919" lon="-2.57725">
        <ele>114.4</ele>
        <time>2013-05-26T09:40:40.000Z</time>
      </trkpt>
      <trkpt lat="48.50923" lon="-2.57731">
        <ele>117.7</ele>
        <time>2013-05-26T09:40:42.000Z</time>
      </trkpt>
      <trkpt lat="48.50927" lon="-2.5774">
        <ele>115.5</ele>
        <time>2013-05-26T09:40:43.000Z</time>
      </trkpt>
      <trkpt lat="48.50931" lon="-2.57746">
        <ele>115.4</ele>
        <time>2013-05-26T09:40:44.000Z</time>
      </trkpt>
      <trkpt lat="48.50935" lon="-2.57752">
        <ele>116.8</ele>
        <time>2013-05-26T09:40:45.000Z</time>
      </trkpt>
      <trkpt lat="48.5094" lon="-2.57759">
        <ele>116.6</ele>
        <time>2013-05-26T09:40:46.000Z</time>
      </trkpt>
      <trkpt lat="48.50945" lon="-2.57766">
        <ele>116.5</ele>
        <time>2013-05-26T09:40:47.000Z</time>
      </trkpt>
      <trkpt lat="48.50951" lon="-2.57774">
        <ele>116.2</ele>
        <time>2013-05-26T09:40:48.000Z</time>
      </trkpt>
      <trkpt lat="48.50956" lon="-2.57781">
        <ele>115.4</ele>
        <time>2013-05-26T09:40:49.000Z</time>
      </trkpt>
      <trkpt lat="48.50961" lon="-2.57788">
        <ele>115.3</ele>
        <time>2013-05-26T09:40:50.000Z</time>
      </trkpt>
      <trkpt lat="48.50966" lon="-2.57795">
        <ele>115.1</ele>
        <time>2013-05-26T09:40:51.000Z</time>
      </trkpt>
      <trkpt lat="48.50971" lon="-2.57801">
        <ele>115.1</ele>
        <time>2013-05-26T09:40:52.000Z</time>
      </trkpt>
      <trkpt lat="48.50976" lon="-2.57808">
        <ele>114.9</ele>
        <time>2013-05-26T09:40:53.000Z</time>
      </trkpt>
      <trkpt lat="48.50981" lon="-2.57814">
        <ele>114.7</ele>
        <time>2013-05-26T09:40:54.000Z</time>
      </trkpt>
      <trkpt lat="48.50986" lon="-2.5782">
        <ele>114.8</ele>
        <time>2013-05-26T09:40:55.000Z</time>
      </trkpt>
      <trkpt lat="48.50991" lon="-2.57826">
        <ele>114.8</ele>
        <time>2013-05-26T09:40:56.000Z</time>
      </trkpt>
      <trkpt lat="48.50996" lon="-2.57832">
        <ele>114.6</ele>
        <time>2013-05-26T09:40:57.000Z</time>
      </trkpt>
      <trkpt lat="48.51002" lon="-2.57838">
        <ele>114.6</ele>
        <time>2013-05-26T09:40:58.000Z</time>
      </trkpt>
      <trkpt lat="48.51007" lon="-2.57844">
        <ele>114.7</ele>
        <time>2013-05-26T09:40:59.000Z</time>
      </trkpt>
      <trkpt lat="48.51012" lon="-2.57849">
        <ele>114.6</ele>
        <time>2013-05-26T09:41:00.000Z</time>
      </trkpt>
      <trkpt lat="48.51017" lon="-2.57855">
        <ele>114.6</ele>
        <time>2013-05-26T09:41:01.000Z</time>
      </trkpt>
      <trkpt lat="48.51023" lon="-2.5786">
        <ele>114.6</ele>
        <time>2013-05-26T09:41:02.000Z</time>
      </trkpt>
      <trkpt lat="48.51028" lon="-2.57865">
        <ele>114.4</ele>
        <time>2013-05-26T09:41:03.000Z</time>
      </trkpt>
      <trkpt lat="48.51033" lon="-2.5787">
        <ele>114.4</ele>
        <time>2013-05-26T09:41:04.000Z</time>
      </trkpt>
      <trkpt lat="48.51039" lon="-2.57875">
        <ele>114.4</ele>
        <time>2013-05-26T09:41:05.000Z</time>
      </trkpt>
      <trkpt lat="48.51044" lon="-2.5788">
        <ele>114.3</ele>
        <time>2013-05-26T09:41:06.000Z</time>
      </trkpt>
      <trkpt lat="48.51049" lon="-2.57885">
        <ele>114.5</ele>
        <time>2013-05-26T09:41:07.000Z</time>
      </trkpt>
      <trkpt lat="48.51055" lon="-2.57891">
        <ele>114.5</ele>
        <time>2013-05-26T09:41:08.000Z</time>
      </trkpt>
      <trkpt lat="48.5106" lon="-2.57897">
        <ele>114.7</ele>
        <time>2013-05-26T09:41:09.000Z</time>
      </trkpt>
      <trkpt lat="48.51065" lon="-2.57902">
        <ele>114.9</ele>
        <time>2013-05-26T09:41:10.000Z</time>
      </trkpt>
      <trkpt lat="48.5107" lon="-2.57908">
        <ele>115.1</ele>
        <time>2013-05-26T09:41:11.000Z</time>
      </trkpt>
      <trkpt lat="48.51074" lon="-2.57914">
        <ele>115.2</ele>
        <time>2013-05-26T09:41:12.000Z</time>
      </trkpt>
      <trkpt lat="48.51079" lon="-2.5792">
        <ele>115.4</ele>
        <time>2013-05-26T09:41:13.000Z</time>
      </trkpt>
      <trkpt lat="48.51084" lon="-2.57925">
        <ele>115.7</ele>
        <time>2013-05-26T09:41:14.000Z</time>
      </trkpt>
      <trkpt lat="48.51089" lon="-2.57931">
        <ele>115.8</ele>
        <time>2013-05-26T09:41:15.000Z</time>
      </trkpt>
      <trkpt lat="48.51094" lon="-2.57937">
        <ele>115.9</ele>
        <time>2013-05-26T09:41:16.000Z</time>
      </trkpt>
      <trkpt lat="48.51099" lon="-2.57943">
        <ele>116</ele>
        <time>2013-05-26T09:41:17.000Z</time>
      </trkpt>
      <trkpt lat="48.51104" lon="-2.57948">
        <ele>116.3</ele>
        <time>2013-05-26T09:41:18.000Z</time>
      </trkpt>
      <trkpt lat="48.51109" lon="-2.57954">
        <ele>116.4</ele>
        <time>2013-05-26T09:41:19.000Z</time>
      </trkpt>
      <trkpt lat="48.51128" lon="-2.5797">
        <ele>115.4</ele>
        <time>2013-05-26T09:41:22.000Z</time>
      </trkpt>
      <trkpt lat="48.51136" lon="-2.57969">
        <ele>116.1</ele>
        <time>2013-05-26T09:41:23.000Z</time>
      </trkpt>
      <trkpt lat="48.51142" lon="-2.5798">
        <ele>115.4</ele>
        <time>2013-05-26T09:41:25.000Z</time>
      </trkpt>
      <trkpt lat="48.51148" lon="-2.57982">
        <ele>116.6</ele>
        <time>2013-05-26T09:41:26.000Z</time>
      </trkpt>
      <trkpt lat="48.51154" lon="-2.57985">
        <ele>116.4</ele>
        <time>2013-05-26T09:41:27.000Z</time>
      </trkpt>
      <trkpt lat="48.5116" lon="-2.57988">
        <ele>116.4</ele>
        <time>2013-05-26T09:41:28.000Z</time>
      </trkpt>
      <trkpt lat="48.51164" lon="-2.57993">
        <ele>116.9</ele>
        <time>2013-05-26T09:41:29.000Z</time>
      </trkpt>
      <trkpt lat="48.5117" lon="-2.58001">
        <ele>114.8</ele>
        <time>2013-05-26T09:41:30.000Z</time>
      </trkpt>
      <trkpt lat="48.51174" lon="-2.58006">
        <ele>115.8</ele>
        <time>2013-05-26T09:41:31.000Z</time>
      </trkpt>
      <trkpt lat="48.51179" lon="-2.58009">
        <ele>115.7</ele>
        <time>2013-05-26T09:41:32.000Z</time>
      </trkpt>
      <trkpt lat="48.51184" lon="-2.58013">
        <ele>116.7</ele>
        <time>2013-05-26T09:41:33.000Z</time>
      </trkpt>
      <trkpt lat="48.51189" lon="-2.58017">
        <ele>117.5</ele>
        <time>2013-05-26T09:41:34.000Z</time>
      </trkpt>
      <trkpt lat="48.51194" lon="-2.58019">
        <ele>117.5</ele>
        <time>2013-05-26T09:41:35.000Z</time>
      </trkpt>
      <trkpt lat="48.512" lon="-2.58021">
        <ele>116.9</ele>
        <time>2013-05-26T09:41:36.000Z</time>
      </trkpt>
      <trkpt lat="48.51204" lon="-2.58024">
        <ele>117.1</ele>
        <time>2013-05-26T09:41:37.000Z</time>
      </trkpt>
      <trkpt lat="48.51208" lon="-2.5803">
        <ele>116.8</ele>
        <time>2013-05-26T09:41:38.000Z</time>
      </trkpt>
      <trkpt lat="48.51211" lon="-2.58037">
        <ele>116.7</ele>
        <time>2013-05-26T09:41:39.000Z</time>
      </trkpt>
      <trkpt lat="48.51211" lon="-2.58045">
        <ele>116.7</ele>
        <time>2013-05-26T09:41:40.000Z</time>
      </trkpt>
      <trkpt lat="48.51212" lon="-2.58054">
        <ele>116.7</ele>
        <time>2013-05-26T09:41:41.000Z</time>
      </trkpt>
      <trkpt lat="48.51211" lon="-2.58061">
        <ele>116.1</ele>
        <time>2013-05-26T09:41:42.000Z</time>
      </trkpt>
      <trkpt lat="48.5121" lon="-2.58069">
        <ele>115.7</ele>
        <time>2013-05-26T09:41:43.000Z</time>
      </trkpt>
      <trkpt lat="48.51209" lon="-2.58077">
        <ele>115.7</ele>
        <time>2013-05-26T09:41:44.000Z</time>
      </trkpt>
      <trkpt lat="48.51209" lon="-2.58085">
        <ele>115.9</ele>
        <time>2013-05-26T09:41:45.000Z</time>
      </trkpt>
      <trkpt lat="48.51209" lon="-2.58093">
        <ele>116</ele>
        <time>2013-05-26T09:41:46.000Z</time>
      </trkpt>
      <trkpt lat="48.51209" lon="-2.581">
        <ele>117.1</ele>
        <time>2013-05-26T09:41:47.000Z</time>
      </trkpt>
      <trkpt lat="48.5121" lon="-2.58108">
        <ele>117.6</ele>
        <time>2013-05-26T09:41:48.000Z</time>
      </trkpt>
      <trkpt lat="48.51212" lon="-2.58116">
        <ele>118.1</ele>
        <time>2013-05-26T09:41:49.000Z</time>
      </trkpt>
      <trkpt lat="48.51215" lon="-2.58124">
        <ele>118.1</ele>
        <time>2013-05-26T09:41:50.000Z</time>
      </trkpt>
      <trkpt lat="48.51218" lon="-2.58132">
        <ele>117.3</ele>
        <time>2013-05-26T09:41:51.000Z</time>
      </trkpt>
      <trkpt lat="48.51221" lon="-2.58139">
        <ele>117</ele>
        <time>2013-05-26T09:41:52.000Z</time>
      </trkpt>
      <trkpt lat="48.51225" lon="-2.58146">
        <ele>116.6</ele>
        <time>2013-05-26T09:41:53.000Z</time>
      </trkpt>
      <trkpt lat="48.51229" lon="-2.58152">
        <ele>116.2</ele>
        <time>2013-05-26T09:41:54.000Z</time>
      </trkpt>
      <trkpt lat="48.51233" lon="-2.58157">
        <ele>116.2</ele>
        <time>2013-05-26T09:41:55.000Z</time>
      </trkpt>
      <trkpt lat="48.51237" lon="-2.58163">
        <ele>116.2</ele>
        <time>2013-05-26T09:41:56.000Z</time>
      </trkpt>
      <trkpt lat="48.51241" lon="-2.58168">
        <ele>116.2</ele>
        <time>2013-05-26T09:41:57.000Z</time>
      </trkpt>
      <trkpt lat="48.51245" lon="-2.58175">
        <ele>115.9</ele>
        <time>2013-05-26T09:41:58.000Z</time>
      </trkpt>
      <trkpt lat="48.51246" lon="-2.58181">
        <ele>115.7</ele>
        <time>2013-05-26T09:41:59.000Z</time>
      </trkpt>
      <trkpt lat="48.51246" lon="-2.58188">
        <ele>115.4</ele>
        <time>2013-05-26T09:42:00.000Z</time>
      </trkpt>
      <trkpt lat="48.51244" lon="-2.58193">
        <ele>115.1</ele>
        <time>2013-05-26T09:42:01.000Z</time>
      </trkpt>
      <trkpt lat="48.51239" lon="-2.58196">
        <ele>114.7</ele>
        <time>2013-05-26T09:42:02.000Z</time>
      </trkpt>
      <trkpt lat="48.51234" lon="-2.58198">
        <ele>114.2</ele>
        <time>2013-05-26T09:42:03.000Z</time>
      </trkpt>
      <trkpt lat="48.51228" lon="-2.58201">
        <ele>113.7</ele>
        <time>2013-05-26T09:42:04.000Z</time>
      </trkpt>
      <trkpt lat="48.51223" lon="-2.58204">
        <ele>113.7</ele>
        <time>2013-05-26T09:42:05.000Z</time>
      </trkpt>
      <trkpt lat="48.51217" lon="-2.58207">
        <ele>113.8</ele>
        <time>2013-05-26T09:42:06.000Z</time>
      </trkpt>
      <trkpt lat="48.51212" lon="-2.58211">
        <ele>113.8</ele>
        <time>2013-05-26T09:42:07.000Z</time>
      </trkpt>
      <trkpt lat="48.51208" lon="-2.58215">
        <ele>113.6</ele>
        <time>2013-05-26T09:42:08.000Z</time>
      </trkpt>
      <trkpt lat="48.51203" lon="-2.58221">
        <ele>113.4</ele>
        <time>2013-05-26T09:42:09.000Z</time>
      </trkpt>
      <trkpt lat="48.51199" lon="-2.58226">
        <ele>113.4</ele>
        <time>2013-05-26T09:42:10.000Z</time>
      </trkpt>
      <trkpt lat="48.51195" lon="-2.58233">
        <ele>113.3</ele>
        <time>2013-05-26T09:42:11.000Z</time>
      </trkpt>
      <trkpt lat="48.51191" lon="-2.58239">
        <ele>113.2</ele>
        <time>2013-05-26T09:42:12.000Z</time>
      </trkpt>
      <trkpt lat="48.51187" lon="-2.58245">
        <ele>113.2</ele>
        <time>2013-05-26T09:42:13.000Z</time>
      </trkpt>
      <trkpt lat="48.51183" lon="-2.58251">
        <ele>113.1</ele>
        <time>2013-05-26T09:42:14.000Z</time>
      </trkpt>
      <trkpt lat="48.51179" lon="-2.58256">
        <ele>112.8</ele>
        <time>2013-05-26T09:42:15.000Z</time>
      </trkpt>
      <trkpt lat="48.51174" lon="-2.58262">
        <ele>112.6</ele>
        <time>2013-05-26T09:42:16.000Z</time>
      </trkpt>
      <trkpt lat="48.51169" lon="-2.58267">
        <ele>112.5</ele>
        <time>2013-05-26T09:42:17.000Z</time>
      </trkpt>
      <trkpt lat="48.51165" lon="-2.58272">
        <ele>112.4</ele>
        <time>2013-05-26T09:42:18.000Z</time>
      </trkpt>
      <trkpt lat="48.5116" lon="-2.58277">
        <ele>112.3</ele>
        <time>2013-05-26T09:42:19.000Z</time>
      </trkpt>
      <trkpt lat="48.5116" lon="-2.58292">
        <ele>140.1</ele>
        <time>2013-05-26T09:42:22.000Z</time>
      </trkpt>
      <trkpt lat="48.51142" lon="-2.58296">
        <ele>117.8</ele>
        <time>2013-05-26T09:42:23.000Z</time>
      </trkpt>
      <trkpt lat="48.51137" lon="-2.58301">
        <ele>116.6</ele>
        <time>2013-05-26T09:42:24.000Z</time>
      </trkpt>
      <trkpt lat="48.51131" lon="-2.58305">
        <ele>117</ele>
        <time>2013-05-26T09:42:25.000Z</time>
      </trkpt>
      <trkpt lat="48.51125" lon="-2.58309">
        <ele>114.3</ele>
        <time>2013-05-26T09:42:26.000Z</time>
      </trkpt>
      <trkpt lat="48.51119" lon="-2.58313">
        <ele>112.7</ele>
        <time>2013-05-26T09:42:27.000Z</time>
      </trkpt>
      <trkpt lat="48.51113" lon="-2.58317">
        <ele>112.3</ele>
        <time>2013-05-26T09:42:28.000Z</time>
      </trkpt>
      <trkpt lat="48.51108" lon="-2.58322">
        <ele>111.9</ele>
        <time>2013-05-26T09:42:29.000Z</time>
      </trkpt>
      <trkpt lat="48.51103" lon="-2.58326">
        <ele>112.1</ele>
        <time>2013-05-26T09:42:30.000Z</time>
      </trkpt>
      <trkpt lat="48.51098" lon="-2.58331">
        <ele>111.7</ele>
        <time>2013-05-26T09:42:31.000Z</time>
      </trkpt>
      <trkpt lat="48.51092" lon="-2.58336">
        <ele>111.8</ele>
        <time>2013-05-26T09:42:32.000Z</time>
      </trkpt>
      <trkpt lat="48.51087" lon="-2.58341">
        <ele>111.6</ele>
        <time>2013-05-26T09:42:33.000Z</time>
      </trkpt>
      <trkpt lat="48.51082" lon="-2.58346">
        <ele>111.7</ele>
        <time>2013-05-26T09:42:34.000Z</time>
      </trkpt>
      <trkpt lat="48.51077" lon="-2.58351">
        <ele>111.5</ele>
        <time>2013-05-26T09:42:35.000Z</time>
      </trkpt>
      <trkpt lat="48.51072" lon="-2.58356">
        <ele>111.6</ele>
        <time>2013-05-26T09:42:36.000Z</time>
      </trkpt>
      <trkpt lat="48.51067" lon="-2.58362">
        <ele>111.6</ele>
        <time>2013-05-26T09:42:37.000Z</time>
      </trkpt>
      <trkpt lat="48.51063" lon="-2.58368">
        <ele>111.5</ele>
        <time>2013-05-26T09:42:38.000Z</time>
      </trkpt>
      <trkpt lat="48.51058" lon="-2.58374">
        <ele>111.4</ele>
        <time>2013-05-26T09:42:39.000Z</time>
      </trkpt>
      <trkpt lat="48.51054" lon="-2.5838">
        <ele>111.4</ele>
        <time>2013-05-26T09:42:40.000Z</time>
      </trkpt>
      <trkpt lat="48.51049" lon="-2.58385">
        <ele>111.4</ele>
        <time>2013-05-26T09:42:41.000Z</time>
      </trkpt>
      <trkpt lat="48.51044" lon="-2.58391">
        <ele>111.3</ele>
        <time>2013-05-26T09:42:42.000Z</time>
      </trkpt>
      <trkpt lat="48.5104" lon="-2.58397">
        <ele>111.1</ele>
        <time>2013-05-26T09:42:43.000Z</time>
      </trkpt>
      <trkpt lat="48.51035" lon="-2.58402">
        <ele>111.1</ele>
        <time>2013-05-26T09:42:44.000Z</time>
      </trkpt>
      <trkpt lat="48.51031" lon="-2.58408">
        <ele>111.1</ele>
        <time>2013-05-26T09:42:45.000Z</time>
      </trkpt>
      <trkpt lat="48.51026" lon="-2.58414">
        <ele>111.1</ele>
        <time>2013-05-26T09:42:46.000Z</time>
      </trkpt>
      <trkpt lat="48.51022" lon="-2.58419">
        <ele>111.2</ele>
        <time>2013-05-26T09:42:47.000Z</time>
      </trkpt>
      <trkpt lat="48.51018" lon="-2.58425">
        <ele>111.3</ele>
        <time>2013-05-26T09:42:48.000Z</time>
      </trkpt>
      <trkpt lat="48.51013" lon="-2.5843">
        <ele>111.3</ele>
        <time>2013-05-26T09:42:49.000Z</time>
      </trkpt>
      <trkpt lat="48.51009" lon="-2.58435">
        <ele>111.2</ele>
        <time>2013-05-26T09:42:50.000Z</time>
      </trkpt>
      <trkpt lat="48.51005" lon="-2.58441">
        <ele>111.1</ele>
        <time>2013-05-26T09:42:51.000Z</time>
      </trkpt>
      <trkpt lat="48.51001" lon="-2.58446">
        <ele>111.1</ele>
        <time>2013-05-26T09:42:52.000Z</time>
      </trkpt>
      <trkpt lat="48.50996" lon="-2.58451">
        <ele>110.9</ele>
        <time>2013-05-26T09:42:53.000Z</time>
      </trkpt>
      <trkpt lat="48.50992" lon="-2.58456">
        <ele>110.8</ele>
        <time>2013-05-26T09:42:54.000Z</time>
      </trkpt>
      <trkpt lat="48.50988" lon="-2.58461">
        <ele>110.8</ele>
        <time>2013-05-26T09:42:55.000Z</time>
      </trkpt>
      <trkpt lat="48.50984" lon="-2.58465">
        <ele>110.8</ele>
        <time>2013-05-26T09:42:56.000Z</time>
      </trkpt>
      <trkpt lat="48.5098" lon="-2.58469">
        <ele>110.8</ele>
        <time>2013-05-26T09:42:57.000Z</time>
      </trkpt>
      <trkpt lat="48.50976" lon="-2.58473">
        <ele>110.8</ele>
        <time>2013-05-26T09:42:58.000Z</time>
      </trkpt>
      <trkpt lat="48.50972" lon="-2.58477">
        <ele>110.8</ele>
        <time>2013-05-26T09:42:59.000Z</time>
      </trkpt>
      <trkpt lat="48.50967" lon="-2.58481">
        <ele>110.8</ele>
        <time>2013-05-26T09:43:00.000Z</time>
      </trkpt>
      <trkpt lat="48.50963" lon="-2.58485">
        <ele>110.9</ele>
        <time>2013-05-26T09:43:01.000Z</time>
      </trkpt>
      <trkpt lat="48.50959" lon="-2.58489">
        <ele>110.9</ele>
        <time>2013-05-26T09:43:02.000Z</time>
      </trkpt>
      <trkpt lat="48.50955" lon="-2.58493">
        <ele>111</ele>
        <time>2013-05-26T09:43:03.000Z</time>
      </trkpt>
      <trkpt lat="48.50951" lon="-2.58497">
        <ele>110.9</ele>
        <time>2013-05-26T09:43:04.000Z</time>
      </trkpt>
      <trkpt lat="48.50947" lon="-2.58501">
        <ele>111</ele>
        <time>2013-05-26T09:43:05.000Z</time>
      </trkpt>
      <trkpt lat="48.50943" lon="-2.58505">
        <ele>111.1</ele>
        <time>2013-05-26T09:43:06.000Z</time>
      </trkpt>
      <trkpt lat="48.50938" lon="-2.58509">
        <ele>111.2</ele>
        <time>2013-05-26T09:43:07.000Z</time>
      </trkpt>
      <trkpt lat="48.50934" lon="-2.58513">
        <ele>111.3</ele>
        <time>2013-05-26T09:43:08.000Z</time>
      </trkpt>
      <trkpt lat="48.50929" lon="-2.58517">
        <ele>111.5</ele>
        <time>2013-05-26T09:43:09.000Z</time>
      </trkpt>
      <trkpt lat="48.50925" lon="-2.58521">
        <ele>111.6</ele>
        <time>2013-05-26T09:43:10.000Z</time>
      </trkpt>
      <trkpt lat="48.50921" lon="-2.58525">
        <ele>111.6</ele>
        <time>2013-05-26T09:43:11.000Z</time>
      </trkpt>
      <trkpt lat="48.50916" lon="-2.58529">
        <ele>111.7</ele>
        <time>2013-05-26T09:43:12.000Z</time>
      </trkpt>
      <trkpt lat="48.50912" lon="-2.58533">
        <ele>111.8</ele>
        <time>2013-05-26T09:43:13.000Z</time>
      </trkpt>
      <trkpt lat="48.50908" lon="-2.58537">
        <ele>111.8</ele>
        <time>2013-05-26T09:43:14.000Z</time>
      </trkpt>
      <trkpt lat="48.50904" lon="-2.58541">
        <ele>111.9</ele>
        <time>2013-05-26T09:43:15.000Z</time>
      </trkpt>
      <trkpt lat="48.509" lon="-2.58545">
        <ele>112</ele>
        <time>2013-05-26T09:43:16.000Z</time>
      </trkpt>
      <trkpt lat="48.50896" lon="-2.58549">
        <ele>112.1</ele>
        <time>2013-05-26T09:43:17.000Z</time>
      </trkpt>
      <trkpt lat="48.50892" lon="-2.58554">
        <ele>112.1</ele>
        <time>2013-05-26T09:43:18.000Z</time>
      </trkpt>
      <trkpt lat="48.50888" lon="-2.58559">
        <ele>112.1</ele>
        <time>2013-05-26T09:43:19.000Z</time>
      </trkpt>
      <trkpt lat="48.50887" lon="-2.58577">
        <ele>118.2</ele>
        <time>2013-05-26T09:43:20.000Z</time>
      </trkpt>
      <trkpt lat="48.50865" lon="-2.58587">
        <ele>115.4</ele>
        <time>2013-05-26T09:43:24.000Z</time>
      </trkpt>
      <trkpt lat="48.50862" lon="-2.58589">
        <ele>112.9</ele>
        <time>2013-05-26T09:43:25.000Z</time>
      </trkpt>
      <trkpt lat="48.5086" lon="-2.58593">
        <ele>110.1</ele>
        <time>2013-05-26T09:43:26.000Z</time>
      </trkpt>
      <trkpt lat="48.50857" lon="-2.586">
        <ele>107.5</ele>
        <time>2013-05-26T09:43:27.000Z</time>
      </trkpt>
      <trkpt lat="48.50853" lon="-2.58606">
        <ele>107.7</ele>
        <time>2013-05-26T09:43:28.000Z</time>
      </trkpt>
      <trkpt lat="48.5085" lon="-2.58611">
        <ele>107.1</ele>
        <time>2013-05-26T09:43:29.000Z</time>
      </trkpt>
      <trkpt lat="48.50847" lon="-2.58617">
        <ele>107.4</ele>
        <time>2013-05-26T09:43:30.000Z</time>
      </trkpt>
      <trkpt lat="48.50843" lon="-2.58623">
        <ele>107.4</ele>
        <time>2013-05-26T09:43:31.000Z</time>
      </trkpt>
      <trkpt lat="48.5084" lon="-2.58629">
        <ele>107.8</ele>
        <time>2013-05-26T09:43:32.000Z</time>
      </trkpt>
      <trkpt lat="48.50837" lon="-2.58634">
        <ele>107.7</ele>
        <time>2013-05-26T09:43:33.000Z</time>
      </trkpt>
      <trkpt lat="48.50834" lon="-2.5864">
        <ele>107.8</ele>
        <time>2013-05-26T09:43:34.000Z</time>
      </trkpt>
      <trkpt lat="48.50831" lon="-2.58646">
        <ele>107.6</ele>
        <time>2013-05-26T09:43:35.000Z</time>
      </trkpt>
      <trkpt lat="48.50827" lon="-2.58652">
        <ele>107.5</ele>
        <time>2013-05-26T09:43:36.000Z</time>
      </trkpt>
      <trkpt lat="48.50824" lon="-2.58658">
        <ele>108.1</ele>
        <time>2013-05-26T09:43:37.000Z</time>
      </trkpt>
      <trkpt lat="48.50821" lon="-2.58664">
        <ele>108.4</ele>
        <time>2013-05-26T09:43:38.000Z</time>
      </trkpt>
      <trkpt lat="48.50818" lon="-2.5867">
        <ele>108.9</ele>
        <time>2013-05-26T09:43:39.000Z</time>
      </trkpt>
      <trkpt lat="48.50815" lon="-2.58675">
        <ele>108.5</ele>
        <time>2013-05-26T09:43:40.000Z</time>
      </trkpt>
      <trkpt lat="48.50811" lon="-2.58681">
        <ele>108.6</ele>
        <time>2013-05-26T09:43:41.000Z</time>
      </trkpt>
      <trkpt lat="48.50808" lon="-2.58687">
        <ele>108.9</ele>
        <time>2013-05-26T09:43:42.000Z</time>
      </trkpt>
      <trkpt lat="48.50804" lon="-2.58694">
        <ele>109</ele>
        <time>2013-05-26T09:43:43.000Z</time>
      </trkpt>
      <trkpt lat="48.50801" lon="-2.587">
        <ele>108.8</ele>
        <time>2013-05-26T09:43:44.000Z</time>
      </trkpt>
      <trkpt lat="48.50797" lon="-2.58706">
        <ele>108.8</ele>
        <time>2013-05-26T09:43:45.000Z</time>
      </trkpt>
      <trkpt lat="48.50794" lon="-2.58711">
        <ele>109</ele>
        <time>2013-05-26T09:43:46.000Z</time>
      </trkpt>
      <trkpt lat="48.50791" lon="-2.58717">
        <ele>109</ele>
        <time>2013-05-26T09:43:47.000Z</time>
      </trkpt>
      <trkpt lat="48.50787" lon="-2.58722">
        <ele>109</ele>
        <time>2013-05-26T09:43:48.000Z</time>
      </trkpt>
      <trkpt lat="48.50783" lon="-2.58726">
        <ele>109.3</ele>
        <time>2013-05-26T09:43:49.000Z</time>
      </trkpt>
      <trkpt lat="48.5078" lon="-2.5873">
        <ele>109.3</ele>
        <time>2013-05-26T09:43:50.000Z</time>
      </trkpt>
      <trkpt lat="48.50775" lon="-2.58734">
        <ele>109.8</ele>
        <time>2013-05-26T09:43:51.000Z</time>
      </trkpt>
      <trkpt lat="48.5077" lon="-2.58736">
        <ele>109.8</ele>
        <time>2013-05-26T09:43:52.000Z</time>
      </trkpt>
      <trkpt lat="48.50765" lon="-2.58738">
        <ele>109.7</ele>
        <time>2013-05-26T09:43:53.000Z</time>
      </trkpt>
      <trkpt lat="48.5076" lon="-2.58739">
        <ele>109.7</ele>
        <time>2013-05-26T09:43:54.000Z</time>
      </trkpt>
      <trkpt lat="48.50754" lon="-2.5874">
        <ele>109.5</ele>
        <time>2013-05-26T09:43:55.000Z</time>
      </trkpt>
      <trkpt lat="48.50749" lon="-2.58742">
        <ele>109.3</ele>
        <time>2013-05-26T09:43:56.000Z</time>
      </trkpt>
      <trkpt lat="48.50743" lon="-2.58743">
        <ele>109.2</ele>
        <time>2013-05-26T09:43:57.000Z</time>
      </trkpt>
      <trkpt lat="48.50737" lon="-2.58744">
        <ele>109</ele>
        <time>2013-05-26T09:43:58.000Z</time>
      </trkpt>
      <trkpt lat="48.50731" lon="-2.58745">
        <ele>108.9</ele>
        <time>2013-05-26T09:43:59.000Z</time>
      </trkpt>
      <trkpt lat="48.50726" lon="-2.58746">
        <ele>108.8</ele>
        <time>2013-05-26T09:44:00.000Z</time>
      </trkpt>
      <trkpt lat="48.5072" lon="-2.58746">
        <ele>108.7</ele>
        <time>2013-05-26T09:44:01.000Z</time>
      </trkpt>
      <trkpt lat="48.50714" lon="-2.58746">
        <ele>108.6</ele>
        <time>2013-05-26T09:44:02.000Z</time>
      </trkpt>
      <trkpt lat="48.50708" lon="-2.58746">
        <ele>108.5</ele>
        <time>2013-05-26T09:44:03.000Z</time>
      </trkpt>
      <trkpt lat="48.50702" lon="-2.58746">
        <ele>108.4</ele>
        <time>2013-05-26T09:44:04.000Z</time>
      </trkpt>
      <trkpt lat="48.50696" lon="-2.58746">
        <ele>108.3</ele>
        <time>2013-05-26T09:44:05.000Z</time>
      </trkpt>
      <trkpt lat="48.50691" lon="-2.58745">
        <ele>108.2</ele>
        <time>2013-05-26T09:44:06.000Z</time>
      </trkpt>
      <trkpt lat="48.50685" lon="-2.58746">
        <ele>108.1</ele>
        <time>2013-05-26T09:44:07.000Z</time>
      </trkpt>
      <trkpt lat="48.50679" lon="-2.58746">
        <ele>108.1</ele>
        <time>2013-05-26T09:44:08.000Z</time>
      </trkpt>
      <trkpt lat="48.50674" lon="-2.58747">
        <ele>108</ele>
        <time>2013-05-26T09:44:09.000Z</time>
      </trkpt>
      <trkpt lat="48.50669" lon="-2.58748">
        <ele>108.1</ele>
        <time>2013-05-26T09:44:10.000Z</time>
      </trkpt>
      <trkpt lat="48.50665" lon="-2.58752">
        <ele>108.1</ele>
        <time>2013-05-26T09:44:11.000Z</time>
      </trkpt>
      <trkpt lat="48.50661" lon="-2.58757">
        <ele>108.1</ele>
        <time>2013-05-26T09:44:12.000Z</time>
      </trkpt>
      <trkpt lat="48.50658" lon="-2.58763">
        <ele>108</ele>
        <time>2013-05-26T09:44:13.000Z</time>
      </trkpt>
      <trkpt lat="48.50655" lon="-2.5877">
        <ele>108</ele>
        <time>2013-05-26T09:44:14.000Z</time>
      </trkpt>
      <trkpt lat="48.50652" lon="-2.58777">
        <ele>108.1</ele>
        <time>2013-05-26T09:44:15.000Z</time>
      </trkpt>
      <trkpt lat="48.50649" lon="-2.58784">
        <ele>108.1</ele>
        <time>2013-05-26T09:44:16.000Z</time>
      </trkpt>
      <trkpt lat="48.50646" lon="-2.58791">
        <ele>108.2</ele>
        <time>2013-05-26T09:44:17.000Z</time>
      </trkpt>
      <trkpt lat="48.50644" lon="-2.58798">
        <ele>108.3</ele>
        <time>2013-05-26T09:44:18.000Z</time>
      </trkpt>
      <trkpt lat="48.50641" lon="-2.58806">
        <ele>108.3</ele>
        <time>2013-05-26T09:44:19.000Z</time>
      </trkpt>
      <trkpt lat="48.50622" lon="-2.58811">
        <ele>132.4</ele>
        <time>2013-05-26T09:44:23.000Z</time>
      </trkpt>
      <trkpt lat="48.50623" lon="-2.5883">
        <ele>121.5</ele>
        <time>2013-05-26T09:44:24.000Z</time>
      </trkpt>
      <trkpt lat="48.50621" lon="-2.58843">
        <ele>114.9</ele>
        <time>2013-05-26T09:44:25.000Z</time>
      </trkpt>
      <trkpt lat="48.50619" lon="-2.58852">
        <ele>113.5</ele>
        <time>2013-05-26T09:44:26.000Z</time>
      </trkpt>
      <trkpt lat="48.50615" lon="-2.58858">
        <ele>112.7</ele>
        <time>2013-05-26T09:44:27.000Z</time>
      </trkpt>
      <trkpt lat="48.50611" lon="-2.58866">
        <ele>111.6</ele>
        <time>2013-05-26T09:44:28.000Z</time>
      </trkpt>
      <trkpt lat="48.50606" lon="-2.58872">
        <ele>111</ele>
        <time>2013-05-26T09:44:29.000Z</time>
      </trkpt>
      <trkpt lat="48.50602" lon="-2.58877">
        <ele>109.6</ele>
        <time>2013-05-26T09:44:30.000Z</time>
      </trkpt>
      <trkpt lat="48.50597" lon="-2.58879">
        <ele>108.5</ele>
        <time>2013-05-26T09:44:31.000Z</time>
      </trkpt>
      <trkpt lat="48.50591" lon="-2.5888">
        <ele>107.5</ele>
        <time>2013-05-26T09:44:32.000Z</time>
      </trkpt>
      <trkpt lat="48.50586" lon="-2.58882">
        <ele>106.6</ele>
        <time>2013-05-26T09:44:33.000Z</time>
      </trkpt>
      <trkpt lat="48.50582" lon="-2.58885">
        <ele>106.3</ele>
        <time>2013-05-26T09:44:34.000Z</time>
      </trkpt>
      <trkpt lat="48.5058" lon="-2.58889">
        <ele>106.9</ele>
        <time>2013-05-26T09:44:35.000Z</time>
      </trkpt>
      <trkpt lat="48.50578" lon="-2.58894">
        <ele>107.4</ele>
        <time>2013-05-26T09:44:36.000Z</time>
      </trkpt>
      <trkpt lat="48.50576" lon="-2.58899">
        <ele>108</ele>
        <time>2013-05-26T09:44:37.000Z</time>
      </trkpt>
      <trkpt lat="48.50573" lon="-2.58905">
        <ele>108.5</ele>
        <time>2013-05-26T09:44:38.000Z</time>
      </trkpt>
      <trkpt lat="48.50571" lon="-2.58911">
        <ele>109.3</ele>
        <time>2013-05-26T09:44:39.000Z</time>
      </trkpt>
      <trkpt lat="48.50569" lon="-2.58918">
        <ele>110.8</ele>
        <time>2013-05-26T09:44:40.000Z</time>
      </trkpt>
      <trkpt lat="48.50569" lon="-2.58927">
        <ele>112.6</ele>
        <time>2013-05-26T09:44:41.000Z</time>
      </trkpt>
      <trkpt lat="48.50569" lon="-2.58936">
        <ele>113.4</ele>
        <time>2013-05-26T09:44:42.000Z</time>
      </trkpt>
      <trkpt lat="48.50568" lon="-2.58945">
        <ele>114.2</ele>
        <time>2013-05-26T09:44:43.000Z</time>
      </trkpt>
      <trkpt lat="48.50568" lon="-2.58955">
        <ele>114.3</ele>
        <time>2013-05-26T09:44:44.000Z</time>
      </trkpt>
      <trkpt lat="48.50569" lon="-2.58966">
        <ele>113.8</ele>
        <time>2013-05-26T09:44:45.000Z</time>
      </trkpt>
      <trkpt lat="48.5057" lon="-2.58975">
        <ele>113.8</ele>
        <time>2013-05-26T09:44:46.000Z</time>
      </trkpt>
      <trkpt lat="48.5057" lon="-2.58985">
        <ele>113.5</ele>
        <time>2013-05-26T09:44:47.000Z</time>
      </trkpt>
      <trkpt lat="48.5057" lon="-2.58994">
        <ele>113.5</ele>
        <time>2013-05-26T09:44:48.000Z</time>
      </trkpt>
      <trkpt lat="48.50569" lon="-2.59003">
        <ele>113.2</ele>
        <time>2013-05-26T09:44:49.000Z</time>
      </trkpt>
      <trkpt lat="48.50569" lon="-2.59012">
        <ele>113.2</ele>
        <time>2013-05-26T09:44:50.000Z</time>
      </trkpt>
      <trkpt lat="48.50569" lon="-2.59021">
        <ele>112.9</ele>
        <time>2013-05-26T09:44:51.000Z</time>
      </trkpt>
      <trkpt lat="48.50569" lon="-2.5903">
        <ele>112.4</ele>
        <time>2013-05-26T09:44:52.000Z</time>
      </trkpt>
      <trkpt lat="48.50568" lon="-2.59038">
        <ele>112</ele>
        <time>2013-05-26T09:44:53.000Z</time>
      </trkpt>
      <trkpt lat="48.50564" lon="-2.59042">
        <ele>113.1</ele>
        <time>2013-05-26T09:44:54.000Z</time>
      </trkpt>
      <trkpt lat="48.5056" lon="-2.59047">
        <ele>112.1</ele>
        <time>2013-05-26T09:44:55.000Z</time>
      </trkpt>
      <trkpt lat="48.50555" lon="-2.5905">
        <ele>111.5</ele>
        <time>2013-05-26T09:44:56.000Z</time>
      </trkpt>
      <trkpt lat="48.5055" lon="-2.59052">
        <ele>110.9</ele>
        <time>2013-05-26T09:44:57.000Z</time>
      </trkpt>
      <trkpt lat="48.50545" lon="-2.59055">
        <ele>110.2</ele>
        <time>2013-05-26T09:44:58.000Z</time>
      </trkpt>
      <trkpt lat="48.50541" lon="-2.59059">
        <ele>109.5</ele>
        <time>2013-05-26T09:44:59.000Z</time>
      </trkpt>
      <trkpt lat="48.50536" lon="-2.59063">
        <ele>108.9</ele>
        <time>2013-05-26T09:45:00.000Z</time>
      </trkpt>
      <trkpt lat="48.50532" lon="-2.59069">
        <ele>108.2</ele>
        <time>2013-05-26T09:45:01.000Z</time>
      </trkpt>
      <trkpt lat="48.50527" lon="-2.59074">
        <ele>107.9</ele>
        <time>2013-05-26T09:45:02.000Z</time>
      </trkpt>
      <trkpt lat="48.50523" lon="-2.5908">
        <ele>107.4</ele>
        <time>2013-05-26T09:45:03.000Z</time>
      </trkpt>
      <trkpt lat="48.50518" lon="-2.59086">
        <ele>107.2</ele>
        <time>2013-05-26T09:45:04.000Z</time>
      </trkpt>
      <trkpt lat="48.50514" lon="-2.59092">
        <ele>106.9</ele>
        <time>2013-05-26T09:45:05.000Z</time>
      </trkpt>
      <trkpt lat="48.5051" lon="-2.59098">
        <ele>106.6</ele>
        <time>2013-05-26T09:45:06.000Z</time>
      </trkpt>
      <trkpt lat="48.50506" lon="-2.59105">
        <ele>106.5</ele>
        <time>2013-05-26T09:45:07.000Z</time>
      </trkpt>
      <trkpt lat="48.50501" lon="-2.5911">
        <ele>106.6</ele>
        <time>2013-05-26T09:45:08.000Z</time>
      </trkpt>
      <trkpt lat="48.50498" lon="-2.59117">
        <ele>106.4</ele>
        <time>2013-05-26T09:45:09.000Z</time>
      </trkpt>
      <trkpt lat="48.50494" lon="-2.59123">
        <ele>106.2</ele>
        <time>2013-05-26T09:45:10.000Z</time>
      </trkpt>
      <trkpt lat="48.50491" lon="-2.59128">
        <ele>106.1</ele>
        <time>2013-05-26T09:45:11.000Z</time>
      </trkpt>
      <trkpt lat="48.50489" lon="-2.59132">
        <ele>105.9</ele>
        <time>2013-05-26T09:45:12.000Z</time>
      </trkpt>
      <trkpt lat="48.50488" lon="-2.59135">
        <ele>105.2</ele>
        <time>2013-05-26T09:45:13.000Z</time>
      </trkpt>
      <trkpt lat="48.50486" lon="-2.59137">
        <ele>104.5</ele>
        <time>2013-05-26T09:45:14.000Z</time>
      </trkpt>
      <trkpt lat="48.50484" lon="-2.59133">
        <ele>104</ele>
        <time>2013-05-26T09:45:16.000Z</time>
      </trkpt>
      <trkpt lat="48.50483" lon="-2.5913">
        <ele>103.9</ele>
        <time>2013-05-26T09:45:17.000Z</time>
      </trkpt>
      <trkpt lat="48.50481" lon="-2.59126">
        <ele>103.7</ele>
        <time>2013-05-26T09:45:18.000Z</time>
      </trkpt>
      <trkpt lat="48.50479" lon="-2.59122">
        <ele>103.4</ele>
        <time>2013-05-26T09:45:19.000Z</time>
      </trkpt>
      <trkpt lat="48.50478" lon="-2.59118">
        <ele>103.3</ele>
        <time>2013-05-26T09:45:20.000Z</time>
      </trkpt>
      <trkpt lat="48.50476" lon="-2.59113">
        <ele>103.1</ele>
        <time>2013-05-26T09:45:21.000Z</time>
      </trkpt>
      <trkpt lat="48.50474" lon="-2.59109">
        <ele>102.9</ele>
        <time>2013-05-26T09:45:22.000Z</time>
      </trkpt>
      <trkpt lat="48.50472" lon="-2.59105">
        <ele>102.8</ele>
        <time>2013-05-26T09:45:23.000Z</time>
      </trkpt>
      <trkpt lat="48.5047" lon="-2.59101">
        <ele>102.6</ele>
        <time>2013-05-26T09:45:24.000Z</time>
      </trkpt>
      <trkpt lat="48.50468" lon="-2.59097">
        <ele>102.5</ele>
        <time>2013-05-26T09:45:25.000Z</time>
      </trkpt>
      <trkpt lat="48.50466" lon="-2.59093">
        <ele>102.4</ele>
        <time>2013-05-26T09:45:26.000Z</time>
      </trkpt>
      <trkpt lat="48.50464" lon="-2.59089">
        <ele>102.3</ele>
        <time>2013-05-26T09:45:27.000Z</time>
      </trkpt>
      <trkpt lat="48.50462" lon="-2.59085">
        <ele>102.3</ele>
        <time>2013-05-26T09:45:28.000Z</time>
      </trkpt>
      <trkpt lat="48.5046" lon="-2.5908">
        <ele>102.2</ele>
        <time>2013-05-26T09:45:29.000Z</time>
      </trkpt>
      <trkpt lat="48.50457" lon="-2.59076">
        <ele>101.8</ele>
        <time>2013-05-26T09:45:30.000Z</time>
      </trkpt>
      <trkpt lat="48.50455" lon="-2.59073">
        <ele>101.8</ele>
        <time>2013-05-26T09:45:31.000Z</time>
      </trkpt>
      <trkpt lat="48.50453" lon="-2.5907">
        <ele>101.7</ele>
        <time>2013-05-26T09:45:32.000Z</time>
      </trkpt>
      <trkpt lat="48.50451" lon="-2.59067">
        <ele>101.7</ele>
        <time>2013-05-26T09:45:33.000Z</time>
      </trkpt>
      <trkpt lat="48.50448" lon="-2.59062">
        <ele>101.4</ele>
        <time>2013-05-26T09:45:52.000Z</time>
      </trkpt>
      <trkpt lat="48.50448" lon="-2.5906">
        <ele>101.3</ele>
        <time>2013-05-26T09:45:53.000Z</time>
      </trkpt>
      <trkpt lat="48.50446" lon="-2.59057">
        <ele>100.7</ele>
        <time>2013-05-26T09:45:55.000Z</time>
      </trkpt>
      <trkpt lat="48.50443" lon="-2.59055">
        <ele>100.5</ele>
        <time>2013-05-26T09:45:56.000Z</time>
      </trkpt>
      <trkpt lat="48.50441" lon="-2.59052">
        <ele>100.3</ele>
        <time>2013-05-26T09:45:57.000Z</time>
      </trkpt>
      <trkpt lat="48.50438" lon="-2.59049">
        <ele>100.2</ele>
        <time>2013-05-26T09:45:58.000Z</time>
      </trkpt>
      <trkpt lat="48.50435" lon="-2.59044">
        <ele>100</ele>
        <time>2013-05-26T09:45:59.000Z</time>
      </trkpt>
      <trkpt lat="48.50432" lon="-2.5904">
        <ele>99.9</ele>
        <time>2013-05-26T09:46:00.000Z</time>
      </trkpt>
      <trkpt lat="48.50429" lon="-2.59035">
        <ele>99.8</ele>
        <time>2013-05-26T09:46:01.000Z</time>
      </trkpt>
      <trkpt lat="48.50426" lon="-2.59029">
        <ele>99.9</ele>
        <time>2013-05-26T09:46:02.000Z</time>
      </trkpt>
      <trkpt lat="48.50422" lon="-2.59024">
        <ele>99.9</ele>
        <time>2013-05-26T09:46:03.000Z</time>
      </trkpt>
      <trkpt lat="48.50419" lon="-2.59018">
        <ele>100</ele>
        <time>2013-05-26T09:46:04.000Z</time>
      </trkpt>
      <trkpt lat="48.50415" lon="-2.59013">
        <ele>100</ele>
        <time>2013-05-26T09:46:05.000Z</time>
      </trkpt>
      <trkpt lat="48.50412" lon="-2.59007">
        <ele>100</ele>
        <time>2013-05-26T09:46:06.000Z</time>
      </trkpt>
      <trkpt lat="48.50408" lon="-2.59002">
        <ele>100</ele>
        <time>2013-05-26T09:46:07.000Z</time>
      </trkpt>
      <trkpt lat="48.50405" lon="-2.58996">
        <ele>100</ele>
        <time>2013-05-26T09:46:08.000Z</time>
      </trkpt>
      <trkpt lat="48.50401" lon="-2.58991">
        <ele>100</ele>
        <time>2013-05-26T09:46:09.000Z</time>
      </trkpt>
      <trkpt lat="48.50397" lon="-2.58985">
        <ele>100</ele>
        <time>2013-05-26T09:46:10.000Z</time>
      </trkpt>
      <trkpt lat="48.50393" lon="-2.58979">
        <ele>99.8</ele>
        <time>2013-05-26T09:46:11.000Z</time>
      </trkpt>
      <trkpt lat="48.5039" lon="-2.58973">
        <ele>99.6</ele>
        <time>2013-05-26T09:46:12.000Z</time>
      </trkpt>
      <trkpt lat="48.50387" lon="-2.58966">
        <ele>99.5</ele>
        <time>2013-05-26T09:46:13.000Z</time>
      </trkpt>
      <trkpt lat="48.50384" lon="-2.5896">
        <ele>99.3</ele>
        <time>2013-05-26T09:46:14.000Z</time>
      </trkpt>
      <trkpt lat="48.50382" lon="-2.58953">
        <ele>99.2</ele>
        <time>2013-05-26T09:46:15.000Z</time>
      </trkpt>
      <trkpt lat="48.50379" lon="-2.58945">
        <ele>99.1</ele>
        <time>2013-05-26T09:46:16.000Z</time>
      </trkpt>
      <trkpt lat="48.50377" lon="-2.58938">
        <ele>99.1</ele>
        <time>2013-05-26T09:46:17.000Z</time>
      </trkpt>
      <trkpt lat="48.50375" lon="-2.58931">
        <ele>99</ele>
        <time>2013-05-26T09:46:18.000Z</time>
      </trkpt>
      <trkpt lat="48.50372" lon="-2.58923">
        <ele>98.9</ele>
        <time>2013-05-26T09:46:19.000Z</time>
      </trkpt>
      <trkpt lat="48.50363" lon="-2.58909">
        <ele>113.6</ele>
        <time>2013-05-26T09:46:22.000Z</time>
      </trkpt>
      <trkpt lat="48.50362" lon="-2.5889">
        <ele>104.8</ele>
        <time>2013-05-26T09:46:24.000Z</time>
      </trkpt>
      <trkpt lat="48.5036" lon="-2.58882">
        <ele>104.9</ele>
        <time>2013-05-26T09:46:25.000Z</time>
      </trkpt>
      <trkpt lat="48.50358" lon="-2.58875">
        <ele>103.8</ele>
        <time>2013-05-26T09:46:26.000Z</time>
      </trkpt>
      <trkpt lat="48.50355" lon="-2.58867">
        <ele>104.1</ele>
        <time>2013-05-26T09:46:27.000Z</time>
      </trkpt>
      <trkpt lat="48.50354" lon="-2.58861">
        <ele>104.9</ele>
        <time>2013-05-26T09:46:28.000Z</time>
      </trkpt>
      <trkpt lat="48.50352" lon="-2.58854">
        <ele>104.7</ele>
        <time>2013-05-26T09:46:29.000Z</time>
      </trkpt>
      <trkpt lat="48.5035" lon="-2.58847">
        <ele>104.2</ele>
        <time>2013-05-26T09:46:30.000Z</time>
      </trkpt>
      <trkpt lat="48.50348" lon="-2.5884">
        <ele>104.4</ele>
        <time>2013-05-26T09:46:31.000Z</time>
      </trkpt>
      <trkpt lat="48.50347" lon="-2.58833">
        <ele>104.4</ele>
        <time>2013-05-26T09:46:32.000Z</time>
      </trkpt>
      <trkpt lat="48.50345" lon="-2.58826">
        <ele>103.9</ele>
        <time>2013-05-26T09:46:33.000Z</time>
      </trkpt>
      <trkpt lat="48.50343" lon="-2.5882">
        <ele>103.7</ele>
        <time>2013-05-26T09:46:34.000Z</time>
      </trkpt>
      <trkpt lat="48.50341" lon="-2.58813">
        <ele>103.7</ele>
        <time>2013-05-26T09:46:35.000Z</time>
      </trkpt>
      <trkpt lat="48.50339" lon="-2.58806">
        <ele>103.9</ele>
        <time>2013-05-26T09:46:36.000Z</time>
      </trkpt>
      <trkpt lat="48.50338" lon="-2.58799">
        <ele>103.9</ele>
        <time>2013-05-26T09:46:37.000Z</time>
      </trkpt>
      <trkpt lat="48.50336" lon="-2.58792">
        <ele>103.9</ele>
        <time>2013-05-26T09:46:38.000Z</time>
      </trkpt>
      <trkpt lat="48.50335" lon="-2.58785">
        <ele>103.8</ele>
        <time>2013-05-26T09:46:39.000Z</time>
      </trkpt>
      <trkpt lat="48.50335" lon="-2.58778">
        <ele>104</ele>
        <time>2013-05-26T09:46:40.000Z</time>
      </trkpt>
      <trkpt lat="48.50334" lon="-2.58772">
        <ele>104.2</ele>
        <time>2013-05-26T09:46:41.000Z</time>
      </trkpt>
      <trkpt lat="48.50334" lon="-2.58765">
        <ele>104</ele>
        <time>2013-05-26T09:46:42.000Z</time>
      </trkpt>
      <trkpt lat="48.50334" lon="-2.58758">
        <ele>104.1</ele>
        <time>2013-05-26T09:46:43.000Z</time>
      </trkpt>
      <trkpt lat="48.50333" lon="-2.58751">
        <ele>104.3</ele>
        <time>2013-05-26T09:46:44.000Z</time>
      </trkpt>
      <trkpt lat="48.50333" lon="-2.58745">
        <ele>104.5</ele>
        <time>2013-05-26T09:46:45.000Z</time>
      </trkpt>
      <trkpt lat="48.50331" lon="-2.5874">
        <ele>104.6</ele>
        <time>2013-05-26T09:46:46.000Z</time>
      </trkpt>
      <trkpt lat="48.50329" lon="-2.58737">
        <ele>104.9</ele>
        <time>2013-05-26T09:46:47.000Z</time>
      </trkpt>
      <trkpt lat="48.50325" lon="-2.58736">
        <ele>105</ele>
        <time>2013-05-26T09:46:48.000Z</time>
      </trkpt>
      <trkpt lat="48.50321" lon="-2.58737">
        <ele>105.1</ele>
        <time>2013-05-26T09:46:49.000Z</time>
      </trkpt>
      <trkpt lat="48.50317" lon="-2.58739">
        <ele>104.9</ele>
        <time>2013-05-26T09:46:50.000Z</time>
      </trkpt>
      <trkpt lat="48.50313" lon="-2.58742">
        <ele>104.9</ele>
        <time>2013-05-26T09:46:51.000Z</time>
      </trkpt>
      <trkpt lat="48.50307" lon="-2.58745">
        <ele>104.9</ele>
        <time>2013-05-26T09:46:52.000Z</time>
      </trkpt>
      <trkpt lat="48.50302" lon="-2.58749">
        <ele>104.9</ele>
        <time>2013-05-26T09:46:53.000Z</time>
      </trkpt>
      <trkpt lat="48.50296" lon="-2.58752">
        <ele>104.7</ele>
        <time>2013-05-26T09:46:54.000Z</time>
      </trkpt>
      <trkpt lat="48.50289" lon="-2.58756">
        <ele>104.4</ele>
        <time>2013-05-26T09:46:55.000Z</time>
      </trkpt>
      <trkpt lat="48.50282" lon="-2.58759">
        <ele>103.8</ele>
        <time>2013-05-26T09:46:56.000Z</time>
      </trkpt>
      <trkpt lat="48.50275" lon="-2.58763">
        <ele>103.1</ele>
        <time>2013-05-26T09:46:57.000Z</time>
      </trkpt>
      <trkpt lat="48.50267" lon="-2.58768">
        <ele>102.6</ele>
        <time>2013-05-26T09:46:58.000Z</time>
      </trkpt>
      <trkpt lat="48.50258" lon="-2.58772">
        <ele>102</ele>
        <time>2013-05-26T09:46:59.000Z</time>
      </trkpt>
      <trkpt lat="48.5025" lon="-2.58777">
        <ele>101.2</ele>
        <time>2013-05-26T09:47:00.000Z</time>
      </trkpt>
      <trkpt lat="48.50241" lon="-2.58782">
        <ele>100.4</ele>
        <time>2013-05-26T09:47:01.000Z</time>
      </trkpt>
      <trkpt lat="48.50231" lon="-2.58788">
        <ele>99.6</ele>
        <time>2013-05-26T09:47:02.000Z</time>
      </trkpt>
      <trkpt lat="48.50221" lon="-2.58794">
        <ele>98.8</ele>
        <time>2013-05-26T09:47:03.000Z</time>
      </trkpt>
      <trkpt lat="48.50212" lon="-2.58802">
        <ele>97.5</ele>
        <time>2013-05-26T09:47:04.000Z</time>
      </trkpt>
      <trkpt lat="48.50202" lon="-2.5881">
        <ele>96.2</ele>
        <time>2013-05-26T09:47:05.000Z</time>
      </trkpt>
      <trkpt lat="48.50192" lon="-2.58818">
        <ele>95</ele>
        <time>2013-05-26T09:47:06.000Z</time>
      </trkpt>
      <trkpt lat="48.50181" lon="-2.58827">
        <ele>93.7</ele>
        <time>2013-05-26T09:47:07.000Z</time>
      </trkpt>
      <trkpt lat="48.50171" lon="-2.58835">
        <ele>92.6</ele>
        <time>2013-05-26T09:47:08.000Z</time>
      </trkpt>
      <trkpt lat="48.5016" lon="-2.58844">
        <ele>91.5</ele>
        <time>2013-05-26T09:47:09.000Z</time>
      </trkpt>
      <trkpt lat="48.5015" lon="-2.58852">
        <ele>90.8</ele>
        <time>2013-05-26T09:47:10.000Z</time>
      </trkpt>
      <trkpt lat="48.5014" lon="-2.58861">
        <ele>90</ele>
        <time>2013-05-26T09:47:11.000Z</time>
      </trkpt>
      <trkpt lat="48.5013" lon="-2.58869">
        <ele>89.5</ele>
        <time>2013-05-26T09:47:12.000Z</time>
      </trkpt>
      <trkpt lat="48.50121" lon="-2.58876">
        <ele>89.1</ele>
        <time>2013-05-26T09:47:13.000Z</time>
      </trkpt>
      <trkpt lat="48.50112" lon="-2.58883">
        <ele>88.7</ele>
        <time>2013-05-26T09:47:14.000Z</time>
      </trkpt>
      <trkpt lat="48.50103" lon="-2.5889">
        <ele>88.3</ele>
        <time>2013-05-26T09:47:15.000Z</time>
      </trkpt>
      <trkpt lat="48.50095" lon="-2.58897">
        <ele>88</ele>
        <time>2013-05-26T09:47:16.000Z</time>
      </trkpt>
      <trkpt lat="48.50088" lon="-2.58901">
        <ele>87.9</ele>
        <time>2013-05-26T09:47:17.000Z</time>
      </trkpt>
      <trkpt lat="48.50081" lon="-2.58903">
        <ele>87.6</ele>
        <time>2013-05-26T09:47:18.000Z</time>
      </trkpt>
      <trkpt lat="48.50075" lon="-2.58901">
        <ele>87.6</ele>
        <time>2013-05-26T09:47:19.000Z</time>
      </trkpt>
      <trkpt lat="48.49967" lon="-2.58695">
        <ele>75.1</ele>
        <time>2013-05-26T09:47:44.000Z</time>
      </trkpt>
      <trkpt lat="48.49974" lon="-2.58706">
        <ele>87.3</ele>
        <time>2013-05-26T09:47:45.000Z</time>
      </trkpt>
      <trkpt lat="48.49982" lon="-2.587">
        <ele>90.8</ele>
        <time>2013-05-26T09:47:47.000Z</time>
      </trkpt>
      <trkpt lat="48.49984" lon="-2.58694">
        <ele>92.4</ele>
        <time>2013-05-26T09:47:49.000Z</time>
      </trkpt>
      <trkpt lat="48.49983" lon="-2.58689">
        <ele>93</ele>
        <time>2013-05-26T09:47:50.000Z</time>
      </trkpt>
      <trkpt lat="48.49983" lon="-2.58685">
        <ele>93.7</ele>
        <time>2013-05-26T09:47:51.000Z</time>
      </trkpt>
      <trkpt lat="48.49981" lon="-2.58681">
        <ele>95.3</ele>
        <time>2013-05-26T09:47:52.000Z</time>
      </trkpt>
      <trkpt lat="48.49979" lon="-2.58675">
        <ele>95.2</ele>
        <time>2013-05-26T09:47:53.000Z</time>
      </trkpt>
      <trkpt lat="48.49977" lon="-2.58668">
        <ele>94.5</ele>
        <time>2013-05-26T09:47:54.000Z</time>
      </trkpt>
      <trkpt lat="48.49975" lon="-2.58662">
        <ele>94.1</ele>
        <time>2013-05-26T09:47:55.000Z</time>
      </trkpt>
      <trkpt lat="48.49973" lon="-2.58657">
        <ele>93.9</ele>
        <time>2013-05-26T09:47:56.000Z</time>
      </trkpt>
      <trkpt lat="48.49972" lon="-2.58652">
        <ele>93.4</ele>
        <time>2013-05-26T09:47:57.000Z</time>
      </trkpt>
      <trkpt lat="48.49971" lon="-2.58647">
        <ele>93.1</ele>
        <time>2013-05-26T09:47:58.000Z</time>
      </trkpt>
      <trkpt lat="48.4997" lon="-2.58641">
        <ele>93.7</ele>
        <time>2013-05-26T09:47:59.000Z</time>
      </trkpt>
      <trkpt lat="48.49969" lon="-2.58637">
        <ele>94.6</ele>
        <time>2013-05-26T09:48:00.000Z</time>
      </trkpt>
      <trkpt lat="48.49968" lon="-2.58632">
        <ele>95.4</ele>
        <time>2013-05-26T09:48:01.000Z</time>
      </trkpt>
      <trkpt lat="48.49968" lon="-2.58629">
        <ele>95.4</ele>
        <time>2013-05-26T09:48:02.000Z</time>
      </trkpt>
      <trkpt lat="48.49967" lon="-2.58624">
        <ele>96.1</ele>
        <time>2013-05-26T09:48:03.000Z</time>
      </trkpt>
      <trkpt lat="48.49966" lon="-2.5862">
        <ele>95.5</ele>
        <time>2013-05-26T09:48:04.000Z</time>
      </trkpt>
      <trkpt lat="48.49965" lon="-2.58617">
        <ele>95.3</ele>
        <time>2013-05-26T09:48:05.000Z</time>
      </trkpt>
      <trkpt lat="48.49963" lon="-2.58614">
        <ele>94.9</ele>
        <time>2013-05-26T09:48:06.000Z</time>
      </trkpt>
      <trkpt lat="48.49961" lon="-2.58611">
        <ele>94.6</ele>
        <time>2013-05-26T09:48:07.000Z</time>
      </trkpt>
      <trkpt lat="48.49959" lon="-2.58607">
        <ele>94.4</ele>
        <time>2013-05-26T09:48:08.000Z</time>
      </trkpt>
      <trkpt lat="48.49957" lon="-2.58603">
        <ele>94.2</ele>
        <time>2013-05-26T09:48:09.000Z</time>
      </trkpt>
      <trkpt lat="48.49955" lon="-2.58599">
        <ele>93.4</ele>
        <time>2013-05-26T09:48:10.000Z</time>
      </trkpt>
      <trkpt lat="48.49953" lon="-2.58595">
        <ele>93.7</ele>
        <time>2013-05-26T09:48:11.000Z</time>
      </trkpt>
      <trkpt lat="48.49951" lon="-2.5859">
        <ele>94.7</ele>
        <time>2013-05-26T09:48:12.000Z</time>
      </trkpt>
      <trkpt lat="48.49949" lon="-2.58585">
        <ele>96.1</ele>
        <time>2013-05-26T09:48:13.000Z</time>
      </trkpt>
      <trkpt lat="48.49948" lon="-2.5858">
        <ele>96.8</ele>
        <time>2013-05-26T09:48:14.000Z</time>
      </trkpt>
      <trkpt lat="48.49946" lon="-2.58574">
        <ele>96.4</ele>
        <time>2013-05-26T09:48:15.000Z</time>
      </trkpt>
      <trkpt lat="48.49945" lon="-2.58569">
        <ele>97</ele>
        <time>2013-05-26T09:48:16.000Z</time>
      </trkpt>
      <trkpt lat="48.49944" lon="-2.58565">
        <ele>97.5</ele>
        <time>2013-05-26T09:48:17.000Z</time>
      </trkpt>
      <trkpt lat="48.49943" lon="-2.5856">
        <ele>97.9</ele>
        <time>2013-05-26T09:48:18.000Z</time>
      </trkpt>
      <trkpt lat="48.49942" lon="-2.58555">
        <ele>98</ele>
        <time>2013-05-26T09:48:19.000Z</time>
      </trkpt>
      <trkpt lat="48.49931" lon="-2.58541">
        <ele>95.5</ele>
        <time>2013-05-26T09:48:22.000Z</time>
      </trkpt>
      <trkpt lat="48.49923" lon="-2.58539">
        <ele>98.7</ele>
        <time>2013-05-26T09:48:23.000Z</time>
      </trkpt>
      <trkpt lat="48.49918" lon="-2.58532">
        <ele>98.2</ele>
        <time>2013-05-26T09:48:25.000Z</time>
      </trkpt>
      <trkpt lat="48.49911" lon="-2.58527">
        <ele>96</ele>
        <time>2013-05-26T09:48:26.000Z</time>
      </trkpt>
      <trkpt lat="48.49905" lon="-2.58523">
        <ele>94.2</ele>
        <time>2013-05-26T09:48:27.000Z</time>
      </trkpt>
      <trkpt lat="48.499" lon="-2.58521">
        <ele>90.8</ele>
        <time>2013-05-26T09:48:28.000Z</time>
      </trkpt>
      <trkpt lat="48.49895" lon="-2.58519">
        <ele>88.3</ele>
        <time>2013-05-26T09:48:29.000Z</time>
      </trkpt>
      <trkpt lat="48.4989" lon="-2.58517">
        <ele>86</ele>
        <time>2013-05-26T09:48:30.000Z</time>
      </trkpt>
      <trkpt lat="48.49886" lon="-2.58516">
        <ele>85</ele>
        <time>2013-05-26T09:48:31.000Z</time>
      </trkpt>
      <trkpt lat="48.49882" lon="-2.58514">
        <ele>83.6</ele>
        <time>2013-05-26T09:48:32.000Z</time>
      </trkpt>
      <trkpt lat="48.49878" lon="-2.58513">
        <ele>82.1</ele>
        <time>2013-05-26T09:48:33.000Z</time>
      </trkpt>
      <trkpt lat="48.49876" lon="-2.58512">
        <ele>81.7</ele>
        <time>2013-05-26T09:48:34.000Z</time>
      </trkpt>
      <trkpt lat="48.49873" lon="-2.58511">
        <ele>81.1</ele>
        <time>2013-05-26T09:48:35.000Z</time>
      </trkpt>
      <trkpt lat="48.4987" lon="-2.5851">
        <ele>81</ele>
        <time>2013-05-26T09:48:36.000Z</time>
      </trkpt>
      <trkpt lat="48.49867" lon="-2.58509">
        <ele>81.4</ele>
        <time>2013-05-26T09:48:38.000Z</time>
      </trkpt>
      <trkpt lat="48.49866" lon="-2.58509">
        <ele>81.1</ele>
        <time>2013-05-26T09:48:39.000Z</time>
      </trkpt>
      <trkpt lat="48.49861" lon="-2.58509">
        <ele>80.6</ele>
        <time>2013-05-26T09:48:41.000Z</time>
      </trkpt>
      <trkpt lat="48.49858" lon="-2.58508">
        <ele>79.8</ele>
        <time>2013-05-26T09:48:42.000Z</time>
      </trkpt>
      <trkpt lat="48.49855" lon="-2.58507">
        <ele>78</ele>
        <time>2013-05-26T09:48:43.000Z</time>
      </trkpt>
      <trkpt lat="48.49853" lon="-2.58506">
        <ele>77.9</ele>
        <time>2013-05-26T09:48:44.000Z</time>
      </trkpt>
      <trkpt lat="48.49849" lon="-2.58505">
        <ele>77.4</ele>
        <time>2013-05-26T09:48:45.000Z</time>
      </trkpt>
      <trkpt lat="48.49846" lon="-2.58504">
        <ele>76.4</ele>
        <time>2013-05-26T09:48:46.000Z</time>
      </trkpt>
      <trkpt lat="48.49842" lon="-2.58503">
        <ele>76.3</ele>
        <time>2013-05-26T09:48:47.000Z</time>
      </trkpt>
      <trkpt lat="48.49838" lon="-2.58504">
        <ele>76.2</ele>
        <time>2013-05-26T09:48:48.000Z</time>
      </trkpt>
      <trkpt lat="48.49834" lon="-2.58504">
        <ele>75.5</ele>
        <time>2013-05-26T09:48:49.000Z</time>
      </trkpt>
      <trkpt lat="48.49831" lon="-2.58503">
        <ele>76.2</ele>
        <time>2013-05-26T09:48:50.000Z</time>
      </trkpt>
      <trkpt lat="48.49827" lon="-2.58503">
        <ele>76.1</ele>
        <time>2013-05-26T09:48:51.000Z</time>
      </trkpt>
      <trkpt lat="48.49822" lon="-2.58502">
        <ele>77</ele>
        <time>2013-05-26T09:48:52.000Z</time>
      </trkpt>
      <trkpt lat="48.49817" lon="-2.585">
        <ele>77.3</ele>
        <time>2013-05-26T09:48:53.000Z</time>
      </trkpt>
      <trkpt lat="48.49813" lon="-2.58498">
        <ele>77.4</ele>
        <time>2013-05-26T09:48:54.000Z</time>
      </trkpt>
      <trkpt lat="48.4981" lon="-2.58496">
        <ele>77.3</ele>
        <time>2013-05-26T09:48:55.000Z</time>
      </trkpt>
      <trkpt lat="48.49806" lon="-2.58494">
        <ele>77</ele>
        <time>2013-05-26T09:48:56.000Z</time>
      </trkpt>
      <trkpt lat="48.49803" lon="-2.58492">
        <ele>76.9</ele>
        <time>2013-05-26T09:48:57.000Z</time>
      </trkpt>
      <trkpt lat="48.498" lon="-2.5849">
        <ele>76.7</ele>
        <time>2013-05-26T09:48:58.000Z</time>
      </trkpt>
      <trkpt lat="48.49797" lon="-2.58489">
        <ele>76.4</ele>
        <time>2013-05-26T09:48:59.000Z</time>
      </trkpt>
      <trkpt lat="48.49793" lon="-2.58488">
        <ele>76.4</ele>
        <time>2013-05-26T09:49:00.000Z</time>
      </trkpt>
      <trkpt lat="48.4979" lon="-2.58487">
        <ele>76.6</ele>
        <time>2013-05-26T09:49:01.000Z</time>
      </trkpt>
      <trkpt lat="48.49786" lon="-2.58487">
        <ele>76.6</ele>
        <time>2013-05-26T09:49:02.000Z</time>
      </trkpt>
      <trkpt lat="48.49782" lon="-2.58486">
        <ele>76.7</ele>
        <time>2013-05-26T09:49:03.000Z</time>
      </trkpt>
      <trkpt lat="48.49778" lon="-2.58486">
        <ele>76.6</ele>
        <time>2013-05-26T09:49:04.000Z</time>
      </trkpt>
      <trkpt lat="48.49775" lon="-2.58485">
        <ele>76.7</ele>
        <time>2013-05-26T09:49:05.000Z</time>
      </trkpt>
      <trkpt lat="48.4977" lon="-2.58484">
        <ele>76.8</ele>
        <time>2013-05-26T09:49:06.000Z</time>
      </trkpt>
      <trkpt lat="48.49766" lon="-2.58483">
        <ele>77</ele>
        <time>2013-05-26T09:49:07.000Z</time>
      </trkpt>
      <trkpt lat="48.49763" lon="-2.58482">
        <ele>77.1</ele>
        <time>2013-05-26T09:49:08.000Z</time>
      </trkpt>
      <trkpt lat="48.49759" lon="-2.58481">
        <ele>77</ele>
        <time>2013-05-26T09:49:09.000Z</time>
      </trkpt>
      <trkpt lat="48.49755" lon="-2.5848">
        <ele>77.3</ele>
        <time>2013-05-26T09:49:10.000Z</time>
      </trkpt>
      <trkpt lat="48.49751" lon="-2.58479">
        <ele>77.6</ele>
        <time>2013-05-26T09:49:11.000Z</time>
      </trkpt>
      <trkpt lat="48.49746" lon="-2.58477">
        <ele>77.7</ele>
        <time>2013-05-26T09:49:12.000Z</time>
      </trkpt>
      <trkpt lat="48.49742" lon="-2.58475">
        <ele>77.9</ele>
        <time>2013-05-26T09:49:13.000Z</time>
      </trkpt>
      <trkpt lat="48.49738" lon="-2.58473">
        <ele>78.2</ele>
        <time>2013-05-26T09:49:14.000Z</time>
      </trkpt>
      <trkpt lat="48.49733" lon="-2.58472">
        <ele>78.6</ele>
        <time>2013-05-26T09:49:15.000Z</time>
      </trkpt>
      <trkpt lat="48.4973" lon="-2.58471">
        <ele>79</ele>
        <time>2013-05-26T09:49:16.000Z</time>
      </trkpt>
      <trkpt lat="48.49726" lon="-2.5847">
        <ele>79.5</ele>
        <time>2013-05-26T09:49:17.000Z</time>
      </trkpt>
      <trkpt lat="48.49722" lon="-2.5847">
        <ele>79.6</ele>
        <time>2013-05-26T09:49:18.000Z</time>
      </trkpt>
      <trkpt lat="48.49719" lon="-2.5847">
        <ele>79.7</ele>
        <time>2013-05-26T09:49:19.000Z</time>
      </trkpt>
      <trkpt lat="48.49711" lon="-2.58464">
        <ele>77.6</ele>
        <time>2013-05-26T09:49:22.000Z</time>
      </trkpt>
      <trkpt lat="48.49702" lon="-2.5847">
        <ele>84.9</ele>
        <time>2013-05-26T09:49:22.000Z</time>
      </trkpt>
      <trkpt lat="48.49696" lon="-2.58468">
        <ele>88.7</ele>
        <time>2013-05-26T09:49:24.000Z</time>
      </trkpt>
      <trkpt lat="48.49694" lon="-2.58472">
        <ele>89.4</ele>
        <time>2013-05-26T09:49:25.000Z</time>
      </trkpt>
      <trkpt lat="48.4969" lon="-2.58475">
        <ele>89.4</ele>
        <time>2013-05-26T09:49:26.000Z</time>
      </trkpt>
      <trkpt lat="48.49685" lon="-2.58475">
        <ele>91.1</ele>
        <time>2013-05-26T09:49:27.000Z</time>
      </trkpt>
      <trkpt lat="48.49681" lon="-2.58475">
        <ele>93</ele>
        <time>2013-05-26T09:49:28.000Z</time>
      </trkpt>
      <trkpt lat="48.49676" lon="-2.58473">
        <ele>94</ele>
        <time>2013-05-26T09:49:29.000Z</time>
      </trkpt>
      <trkpt lat="48.49671" lon="-2.58472">
        <ele>94.8</ele>
        <time>2013-05-26T09:49:30.000Z</time>
      </trkpt>
      <trkpt lat="48.49667" lon="-2.58473">
        <ele>96</ele>
        <time>2013-05-26T09:49:31.000Z</time>
      </trkpt>
      <trkpt lat="48.49664" lon="-2.58477">
        <ele>94.7</ele>
        <time>2013-05-26T09:49:32.000Z</time>
      </trkpt>
      <trkpt lat="48.4966" lon="-2.58479">
        <ele>93.5</ele>
        <time>2013-05-26T09:49:33.000Z</time>
      </trkpt>
      <trkpt lat="48.49656" lon="-2.58481">
        <ele>92.9</ele>
        <time>2013-05-26T09:49:34.000Z</time>
      </trkpt>
      <trkpt lat="48.49652" lon="-2.58483">
        <ele>92.2</ele>
        <time>2013-05-26T09:49:35.000Z</time>
      </trkpt>
      <trkpt lat="48.49648" lon="-2.58483">
        <ele>92.3</ele>
        <time>2013-05-26T09:49:36.000Z</time>
      </trkpt>
      <trkpt lat="48.49644" lon="-2.58484">
        <ele>91.9</ele>
        <time>2013-05-26T09:49:37.000Z</time>
      </trkpt>
      <trkpt lat="48.49643" lon="-2.58481">
        <ele>88.8</ele>
        <time>2013-05-26T09:49:42.000Z</time>
      </trkpt>
      <trkpt lat="48.49643" lon="-2.58477">
        <ele>88.4</ele>
        <time>2013-05-26T09:49:43.000Z</time>
      </trkpt>
      <trkpt lat="48.49645" lon="-2.58474">
        <ele>87.6</ele>
        <time>2013-05-26T09:49:44.000Z</time>
      </trkpt>
      <trkpt lat="48.49645" lon="-2.58469">
        <ele>87.3</ele>
        <time>2013-05-26T09:49:45.000Z</time>
      </trkpt>
      <trkpt lat="48.49646" lon="-2.58465">
        <ele>86.7</ele>
        <time>2013-05-26T09:49:46.000Z</time>
      </trkpt>
      <trkpt lat="48.49646" lon="-2.58461">
        <ele>86.2</ele>
        <time>2013-05-26T09:49:47.000Z</time>
      </trkpt>
      <trkpt lat="48.49646" lon="-2.58456">
        <ele>85.8</ele>
        <time>2013-05-26T09:49:48.000Z</time>
      </trkpt>
      <trkpt lat="48.49646" lon="-2.58452">
        <ele>85.7</ele>
        <time>2013-05-26T09:49:49.000Z</time>
      </trkpt>
      <trkpt lat="48.49646" lon="-2.58447">
        <ele>84.9</ele>
        <time>2013-05-26T09:49:50.000Z</time>
      </trkpt>
      <trkpt lat="48.49645" lon="-2.58443">
        <ele>83.9</ele>
        <time>2013-05-26T09:49:51.000Z</time>
      </trkpt>
      <trkpt lat="48.49645" lon="-2.58439">
        <ele>83.4</ele>
        <time>2013-05-26T09:49:52.000Z</time>
      </trkpt>
      <trkpt lat="48.49643" lon="-2.58435">
        <ele>82.8</ele>
        <time>2013-05-26T09:49:53.000Z</time>
      </trkpt>
      <trkpt lat="48.49643" lon="-2.58431">
        <ele>82.5</ele>
        <time>2013-05-26T09:49:54.000Z</time>
      </trkpt>
      <trkpt lat="48.49642" lon="-2.58426">
        <ele>82.1</ele>
        <time>2013-05-26T09:49:55.000Z</time>
      </trkpt>
      <trkpt lat="48.49639" lon="-2.58422">
        <ele>81.9</ele>
        <time>2013-05-26T09:49:56.000Z</time>
      </trkpt>
      <trkpt lat="48.49638" lon="-2.58417">
        <ele>82</ele>
        <time>2013-05-26T09:49:57.000Z</time>
      </trkpt>
      <trkpt lat="48.49637" lon="-2.58412">
        <ele>82.5</ele>
        <time>2013-05-26T09:49:58.000Z</time>
      </trkpt>
      <trkpt lat="48.49637" lon="-2.58407">
        <ele>82.8</ele>
        <time>2013-05-26T09:49:59.000Z</time>
      </trkpt>
      <trkpt lat="48.49636" lon="-2.58402">
        <ele>83</ele>
        <time>2013-05-26T09:50:00.000Z</time>
      </trkpt>
      <trkpt lat="48.49636" lon="-2.58397">
        <ele>83</ele>
        <time>2013-05-26T09:50:01.000Z</time>
      </trkpt>
      <trkpt lat="48.49636" lon="-2.58391">
        <ele>83</ele>
        <time>2013-05-26T09:50:02.000Z</time>
      </trkpt>
      <trkpt lat="48.49635" lon="-2.58386">
        <ele>83.1</ele>
        <time>2013-05-26T09:50:03.000Z</time>
      </trkpt>
      <trkpt lat="48.49633" lon="-2.58381">
        <ele>83.2</ele>
        <time>2013-05-26T09:50:04.000Z</time>
      </trkpt>
      <trkpt lat="48.49632" lon="-2.58376">
        <ele>83.3</ele>
        <time>2013-05-26T09:50:05.000Z</time>
      </trkpt>
      <trkpt lat="48.49631" lon="-2.58371">
        <ele>83.3</ele>
        <time>2013-05-26T09:50:06.000Z</time>
      </trkpt>
      <trkpt lat="48.49629" lon="-2.58366">
        <ele>83.1</ele>
        <time>2013-05-26T09:50:07.000Z</time>
      </trkpt>
      <trkpt lat="48.49627" lon="-2.58362">
        <ele>83</ele>
        <time>2013-05-26T09:50:08.000Z</time>
      </trkpt>
      <trkpt lat="48.49625" lon="-2.58358">
        <ele>82.9</ele>
        <time>2013-05-26T09:50:09.000Z</time>
      </trkpt>
      <trkpt lat="48.49623" lon="-2.58353">
        <ele>83.1</ele>
        <time>2013-05-26T09:50:10.000Z</time>
      </trkpt>
      <trkpt lat="48.49621" lon="-2.58349">
        <ele>83.3</ele>
        <time>2013-05-26T09:50:11.000Z</time>
      </trkpt>
      <trkpt lat="48.49619" lon="-2.58344">
        <ele>83.5</ele>
        <time>2013-05-26T09:50:12.000Z</time>
      </trkpt>
      <trkpt lat="48.49618" lon="-2.5834">
        <ele>83.5</ele>
        <time>2013-05-26T09:50:13.000Z</time>
      </trkpt>
      <trkpt lat="48.49618" lon="-2.58336">
        <ele>83.5</ele>
        <time>2013-05-26T09:50:14.000Z</time>
      </trkpt>
      <trkpt lat="48.49618" lon="-2.58332">
        <ele>83.3</ele>
        <time>2013-05-26T09:50:15.000Z</time>
      </trkpt>
      <trkpt lat="48.49617" lon="-2.58328">
        <ele>83.3</ele>
        <time>2013-05-26T09:50:16.000Z</time>
      </trkpt>
      <trkpt lat="48.49617" lon="-2.58323">
        <ele>83.2</ele>
        <time>2013-05-26T09:50:17.000Z</time>
      </trkpt>
      <trkpt lat="48.49618" lon="-2.58319">
        <ele>83.3</ele>
        <time>2013-05-26T09:50:18.000Z</time>
      </trkpt>
      <trkpt lat="48.49618" lon="-2.58315">
        <ele>83.3</ele>
        <time>2013-05-26T09:50:19.000Z</time>
      </trkpt>
      <trkpt lat="48.49612" lon="-2.58308">
        <ele>93.3</ele>
        <time>2013-05-26T09:50:22.000Z</time>
      </trkpt>
      <trkpt lat="48.49612" lon="-2.58305">
        <ele>93.6</ele>
        <time>2013-05-26T09:50:24.000Z</time>
      </trkpt>
      <trkpt lat="48.4961" lon="-2.58299">
        <ele>89.6</ele>
        <time>2013-05-26T09:50:25.000Z</time>
      </trkpt>
      <trkpt lat="48.4961" lon="-2.58292">
        <ele>92</ele>
        <time>2013-05-26T09:50:26.000Z</time>
      </trkpt>
      <trkpt lat="48.49611" lon="-2.58289">
        <ele>91.7</ele>
        <time>2013-05-26T09:50:27.000Z</time>
      </trkpt>
      <trkpt lat="48.49609" lon="-2.58284">
        <ele>89.7</ele>
        <time>2013-05-26T09:50:28.000Z</time>
      </trkpt>
      <trkpt lat="48.49609" lon="-2.58279">
        <ele>89</ele>
        <time>2013-05-26T09:50:29.000Z</time>
      </trkpt>
      <trkpt lat="48.49608" lon="-2.58275">
        <ele>86.7</ele>
        <time>2013-05-26T09:50:30.000Z</time>
      </trkpt>
      <trkpt lat="48.49608" lon="-2.58271">
        <ele>85.6</ele>
        <time>2013-05-26T09:50:31.000Z</time>
      </trkpt>
      <trkpt lat="48.49609" lon="-2.58268">
        <ele>85.9</ele>
        <time>2013-05-26T09:50:32.000Z</time>
      </trkpt>
      <trkpt lat="48.49608" lon="-2.58264">
        <ele>85.5</ele>
        <time>2013-05-26T09:50:33.000Z</time>
      </trkpt>
      <trkpt lat="48.49608" lon="-2.58258">
        <ele>86.2</ele>
        <time>2013-05-26T09:50:35.000Z</time>
      </trkpt>
      <trkpt lat="48.49608" lon="-2.58255">
        <ele>86.1</ele>
        <time>2013-05-26T09:50:36.000Z</time>
      </trkpt>
      <trkpt lat="48.49607" lon="-2.58249">
        <ele>88.2</ele>
        <time>2013-05-26T09:50:39.000Z</time>
      </trkpt>
      <trkpt lat="48.49606" lon="-2.58246">
        <ele>87.4</ele>
        <time>2013-05-26T09:50:40.000Z</time>
      </trkpt>
      <trkpt lat="48.49607" lon="-2.58241">
        <ele>87.1</ele>
        <time>2013-05-26T09:50:41.000Z</time>
      </trkpt>
      <trkpt lat="48.49607" lon="-2.58238">
        <ele>86.5</ele>
        <time>2013-05-26T09:50:42.000Z</time>
      </trkpt>
      <trkpt lat="48.49608" lon="-2.58233">
        <ele>87.4</ele>
        <time>2013-05-26T09:50:43.000Z</time>
      </trkpt>
      <trkpt lat="48.49609" lon="-2.5823">
        <ele>87.4</ele>
        <time>2013-05-26T09:50:44.000Z</time>
      </trkpt>
      <trkpt lat="48.49611" lon="-2.58224">
        <ele>88.9</ele>
        <time>2013-05-26T09:50:46.000Z</time>
      </trkpt>
      <trkpt lat="48.49611" lon="-2.58222">
        <ele>89</ele>
        <time>2013-05-26T09:50:47.000Z</time>
      </trkpt>
      <trkpt lat="48.49612" lon="-2.58216">
        <ele>89.8</ele>
        <time>2013-05-26T09:50:49.000Z</time>
      </trkpt>
      <trkpt lat="48.49612" lon="-2.58213">
        <ele>88.6</ele>
        <time>2013-05-26T09:50:50.000Z</time>
      </trkpt>
      <trkpt lat="48.49613" lon="-2.58209">
        <ele>88.7</ele>
        <time>2013-05-26T09:50:51.000Z</time>
      </trkpt>
      <trkpt lat="48.49615" lon="-2.58203">
        <ele>89</ele>
        <time>2013-05-26T09:50:52.000Z</time>
      </trkpt>
      <trkpt lat="48.49615" lon="-2.58198">
        <ele>88.9</ele>
        <time>2013-05-26T09:50:53.000Z</time>
      </trkpt>
      <trkpt lat="48.49615" lon="-2.58193">
        <ele>89.1</ele>
        <time>2013-05-26T09:50:54.000Z</time>
      </trkpt>
      <trkpt lat="48.49615" lon="-2.58188">
        <ele>89.3</ele>
        <time>2013-05-26T09:50:55.000Z</time>
      </trkpt>
      <trkpt lat="48.49614" lon="-2.58184">
        <ele>88.9</ele>
        <time>2013-05-26T09:50:56.000Z</time>
      </trkpt>
      <trkpt lat="48.49613" lon="-2.58179">
        <ele>88.7</ele>
        <time>2013-05-26T09:50:57.000Z</time>
      </trkpt>
      <trkpt lat="48.49612" lon="-2.58175">
        <ele>88.9</ele>
        <time>2013-05-26T09:50:58.000Z</time>
      </trkpt>
      <trkpt lat="48.49611" lon="-2.58172">
        <ele>88.8</ele>
        <time>2013-05-26T09:50:59.000Z</time>
      </trkpt>
      <trkpt lat="48.4961" lon="-2.58169">
        <ele>89.2</ele>
        <time>2013-05-26T09:51:00.000Z</time>
      </trkpt>
      <trkpt lat="48.49608" lon="-2.58166">
        <ele>89.2</ele>
        <time>2013-05-26T09:51:01.000Z</time>
      </trkpt>
      <trkpt lat="48.49606" lon="-2.58165">
        <ele>88.9</ele>
        <time>2013-05-26T09:51:02.000Z</time>
      </trkpt>
      <trkpt lat="48.49602" lon="-2.58164">
        <ele>88.2</ele>
        <time>2013-05-26T09:51:03.000Z</time>
      </trkpt>
      <trkpt lat="48.49598" lon="-2.58163">
        <ele>87.8</ele>
        <time>2013-05-26T09:51:04.000Z</time>
      </trkpt>
      <trkpt lat="48.49594" lon="-2.58162">
        <ele>87.7</ele>
        <time>2013-05-26T09:51:05.000Z</time>
      </trkpt>
      <trkpt lat="48.49591" lon="-2.58157">
        <ele>88</ele>
        <time>2013-05-26T09:51:06.000Z</time>
      </trkpt>
      <trkpt lat="48.49589" lon="-2.58153">
        <ele>87.9</ele>
        <time>2013-05-26T09:51:07.000Z</time>
      </trkpt>
      <trkpt lat="48.49586" lon="-2.58149">
        <ele>87.8</ele>
        <time>2013-05-26T09:51:08.000Z</time>
      </trkpt>
      <trkpt lat="48.49584" lon="-2.58144">
        <ele>87.7</ele>
        <time>2013-05-26T09:51:09.000Z</time>
      </trkpt>
      <trkpt lat="48.49582" lon="-2.58138">
        <ele>87.8</ele>
        <time>2013-05-26T09:51:10.000Z</time>
      </trkpt>
      <trkpt lat="48.49579" lon="-2.58133">
        <ele>87.9</ele>
        <time>2013-05-26T09:51:11.000Z</time>
      </trkpt>
      <trkpt lat="48.49575" lon="-2.58129">
        <ele>87.8</ele>
        <time>2013-05-26T09:51:12.000Z</time>
      </trkpt>
      <trkpt lat="48.49572" lon="-2.58127">
        <ele>87.6</ele>
        <time>2013-05-26T09:51:13.000Z</time>
      </trkpt>
      <trkpt lat="48.49568" lon="-2.58124">
        <ele>87.2</ele>
        <time>2013-05-26T09:51:14.000Z</time>
      </trkpt>
      <trkpt lat="48.49565" lon="-2.58123">
        <ele>87</ele>
        <time>2013-05-26T09:51:15.000Z</time>
      </trkpt>
      <trkpt lat="48.49562" lon="-2.5812">
        <ele>86.9</ele>
        <time>2013-05-26T09:51:16.000Z</time>
      </trkpt>
      <trkpt lat="48.49559" lon="-2.58117">
        <ele>86.8</ele>
        <time>2013-05-26T09:51:17.000Z</time>
      </trkpt>
      <trkpt lat="48.49556" lon="-2.58114">
        <ele>86.7</ele>
        <time>2013-05-26T09:51:18.000Z</time>
      </trkpt>
      <trkpt lat="48.49553" lon="-2.58111">
        <ele>86.7</ele>
        <time>2013-05-26T09:51:19.000Z</time>
      </trkpt>
      <trkpt lat="48.49476" lon="-2.58047">
        <ele>98.8</ele>
        <time>2013-05-26T09:51:37.000Z</time>
      </trkpt>
      <trkpt lat="48.49479" lon="-2.58049">
        <ele>92</ele>
        <time>2013-05-26T09:51:41.000Z</time>
      </trkpt>
      <trkpt lat="48.4948" lon="-2.58044">
        <ele>88.3</ele>
        <time>2013-05-26T09:51:42.000Z</time>
      </trkpt>
      <trkpt lat="48.4948" lon="-2.5804">
        <ele>84.7</ele>
        <time>2013-05-26T09:51:43.000Z</time>
      </trkpt>
      <trkpt lat="48.49479" lon="-2.58034">
        <ele>79.7</ele>
        <time>2013-05-26T09:51:44.000Z</time>
      </trkpt>
      <trkpt lat="48.49478" lon="-2.58028">
        <ele>77.6</ele>
        <time>2013-05-26T09:51:45.000Z</time>
      </trkpt>
      <trkpt lat="48.49477" lon="-2.58022">
        <ele>75.4</ele>
        <time>2013-05-26T09:51:46.000Z</time>
      </trkpt>
      <trkpt lat="48.49476" lon="-2.58017">
        <ele>72.6</ele>
        <time>2013-05-26T09:51:47.000Z</time>
      </trkpt>
      <trkpt lat="48.49473" lon="-2.58012">
        <ele>69.8</ele>
        <time>2013-05-26T09:51:48.000Z</time>
      </trkpt>
      <trkpt lat="48.49471" lon="-2.58007">
        <ele>68.5</ele>
        <time>2013-05-26T09:51:49.000Z</time>
      </trkpt>
      <trkpt lat="48.49469" lon="-2.58003">
        <ele>67.1</ele>
        <time>2013-05-26T09:51:50.000Z</time>
      </trkpt>
      <trkpt lat="48.49472" lon="-2.57997">
        <ele>72.3</ele>
        <time>2013-05-26T09:51:52.000Z</time>
      </trkpt>
      <trkpt lat="48.49471" lon="-2.57995">
        <ele>72.4</ele>
        <time>2013-05-26T09:51:53.000Z</time>
      </trkpt>
      <trkpt lat="48.4947" lon="-2.57988">
        <ele>76</ele>
        <time>2013-05-26T09:51:56.000Z</time>
      </trkpt>
      <trkpt lat="48.49471" lon="-2.57986">
        <ele>78.5</ele>
        <time>2013-05-26T09:51:57.000Z</time>
      </trkpt>
      <trkpt lat="48.49472" lon="-2.57982">
        <ele>81.4</ele>
        <time>2013-05-26T09:51:59.000Z</time>
      </trkpt>
      <trkpt lat="48.49472" lon="-2.57979">
        <ele>82.4</ele>
        <time>2013-05-26T09:52:00.000Z</time>
      </trkpt>
      <trkpt lat="48.49471" lon="-2.57974">
        <ele>83</ele>
        <time>2013-05-26T09:52:02.000Z</time>
      </trkpt>
      <trkpt lat="48.4947" lon="-2.57971">
        <ele>83.3</ele>
        <time>2013-05-26T09:52:03.000Z</time>
      </trkpt>
      <trkpt lat="48.49468" lon="-2.57966">
        <ele>84.2</ele>
        <time>2013-05-26T09:52:05.000Z</time>
      </trkpt>
      <trkpt lat="48.49467" lon="-2.57963">
        <ele>84.4</ele>
        <time>2013-05-26T09:52:06.000Z</time>
      </trkpt>
      <trkpt lat="48.49464" lon="-2.57959">
        <ele>85.1</ele>
        <time>2013-05-26T09:52:08.000Z</time>
      </trkpt>
      <trkpt lat="48.49462" lon="-2.57957">
        <ele>85.3</ele>
        <time>2013-05-26T09:52:09.000Z</time>
      </trkpt>
      <trkpt lat="48.4946" lon="-2.57956">
        <ele>85.7</ele>
        <time>2013-05-26T09:52:10.000Z</time>
      </trkpt>
      <trkpt lat="48.49457" lon="-2.57953">
        <ele>85.6</ele>
        <time>2013-05-26T09:52:11.000Z</time>
      </trkpt>
      <trkpt lat="48.49454" lon="-2.57951">
        <ele>85.7</ele>
        <time>2013-05-26T09:52:12.000Z</time>
      </trkpt>
      <trkpt lat="48.49451" lon="-2.57949">
        <ele>86</ele>
        <time>2013-05-26T09:52:13.000Z</time>
      </trkpt>
      <trkpt lat="48.49447" lon="-2.57947">
        <ele>85.6</ele>
        <time>2013-05-26T09:52:14.000Z</time>
      </trkpt>
      <trkpt lat="48.49443" lon="-2.57945">
        <ele>85.4</ele>
        <time>2013-05-26T09:52:15.000Z</time>
      </trkpt>
      <trkpt lat="48.49438" lon="-2.57944">
        <ele>85.2</ele>
        <time>2013-05-26T09:52:16.000Z</time>
      </trkpt>
      <trkpt lat="48.49434" lon="-2.57943">
        <ele>85.3</ele>
        <time>2013-05-26T09:52:17.000Z</time>
      </trkpt>
      <trkpt lat="48.4943" lon="-2.57943">
        <ele>85.1</ele>
        <time>2013-05-26T09:52:18.000Z</time>
      </trkpt>
      <trkpt lat="48.49425" lon="-2.57942">
        <ele>85</ele>
        <time>2013-05-26T09:52:19.000Z</time>
      </trkpt>
      <trkpt lat="48.49413" lon="-2.57941">
        <ele>101.6</ele>
        <time>2013-05-26T09:52:24.000Z</time>
      </trkpt>
      <trkpt lat="48.49407" lon="-2.57932">
        <ele>95</ele>
        <time>2013-05-26T09:52:26.000Z</time>
      </trkpt>
      <trkpt lat="48.49403" lon="-2.57936">
        <ele>94.7</ele>
        <time>2013-05-26T09:52:27.000Z</time>
      </trkpt>
      <trkpt lat="48.49399" lon="-2.57935">
        <ele>97.1</ele>
        <time>2013-05-26T09:52:34.000Z</time>
      </trkpt>
      <trkpt lat="48.49398" lon="-2.57934">
        <ele>97.4</ele>
        <time>2013-05-26T09:52:35.000Z</time>
      </trkpt>
      <trkpt lat="48.49394" lon="-2.57933">
        <ele>96.7</ele>
        <time>2013-05-26T09:52:37.000Z</time>
      </trkpt>
      <trkpt lat="48.49393" lon="-2.57932">
        <ele>96.3</ele>
        <time>2013-05-26T09:52:38.000Z</time>
      </trkpt>
      <trkpt lat="48.4939" lon="-2.57927">
        <ele>97.8</ele>
        <time>2013-05-26T09:52:42.000Z</time>
      </trkpt>
      <trkpt lat="48.49389" lon="-2.57926">
        <ele>98.2</ele>
        <time>2013-05-26T09:52:43.000Z</time>
      </trkpt>
      <trkpt lat="48.49387" lon="-2.57925">
        <ele>99.9</ele>
        <time>2013-05-26T09:52:45.000Z</time>
      </trkpt>
      <trkpt lat="48.49385" lon="-2.57924">
        <ele>101.8</ele>
        <time>2013-05-26T09:52:46.000Z</time>
      </trkpt>
      <trkpt lat="48.4938" lon="-2.57923">
        <ele>104</ele>
        <time>2013-05-26T09:52:48.000Z</time>
      </trkpt>
      <trkpt lat="48.49377" lon="-2.57921">
        <ele>104.8</ele>
        <time>2013-05-26T09:52:49.000Z</time>
      </trkpt>
      <trkpt lat="48.49375" lon="-2.57921">
        <ele>105.8</ele>
        <time>2013-05-26T09:52:50.000Z</time>
      </trkpt>
      <trkpt lat="48.49372" lon="-2.5792">
        <ele>106.9</ele>
        <time>2013-05-26T09:52:51.000Z</time>
      </trkpt>
      <trkpt lat="48.4937" lon="-2.57915">
        <ele>106.4</ele>
        <time>2013-05-26T09:52:53.000Z</time>
      </trkpt>
      <trkpt lat="48.49368" lon="-2.57913">
        <ele>103.9</ele>
        <time>2013-05-26T09:52:54.000Z</time>
      </trkpt>
      <trkpt lat="48.49365" lon="-2.5791">
        <ele>103.5</ele>
        <time>2013-05-26T09:52:56.000Z</time>
      </trkpt>
      <trkpt lat="48.49363" lon="-2.57909">
        <ele>103.1</ele>
        <time>2013-05-26T09:52:57.000Z</time>
      </trkpt>
      <trkpt lat="48.49361" lon="-2.57904">
        <ele>102.5</ele>
        <time>2013-05-26T09:52:59.000Z</time>
      </trkpt>
      <trkpt lat="48.49359" lon="-2.57902">
        <ele>102.6</ele>
        <time>2013-05-26T09:53:00.000Z</time>
      </trkpt>
      <trkpt lat="48.49356" lon="-2.579">
        <ele>102.7</ele>
        <time>2013-05-26T09:53:02.000Z</time>
      </trkpt>
      <trkpt lat="48.49354" lon="-2.57898">
        <ele>103</ele>
        <time>2013-05-26T09:53:03.000Z</time>
      </trkpt>
      <trkpt lat="48.49352" lon="-2.57897">
        <ele>103.1</ele>
        <time>2013-05-26T09:53:04.000Z</time>
      </trkpt>
      <trkpt lat="48.4935" lon="-2.57896">
        <ele>103</ele>
        <time>2013-05-26T09:53:05.000Z</time>
      </trkpt>
      <trkpt lat="48.49348" lon="-2.57894">
        <ele>102.9</ele>
        <time>2013-05-26T09:53:06.000Z</time>
      </trkpt>
      <trkpt lat="48.49345" lon="-2.57893">
        <ele>102.9</ele>
        <time>2013-05-26T09:53:07.000Z</time>
      </trkpt>
      <trkpt lat="48.49342" lon="-2.57892">
        <ele>102.5</ele>
        <time>2013-05-26T09:53:08.000Z</time>
      </trkpt>
      <trkpt lat="48.49339" lon="-2.57892">
        <ele>102.4</ele>
        <time>2013-05-26T09:53:09.000Z</time>
      </trkpt>
      <trkpt lat="48.49335" lon="-2.5789">
        <ele>102.2</ele>
        <time>2013-05-26T09:53:10.000Z</time>
      </trkpt>
      <trkpt lat="48.49332" lon="-2.57887">
        <ele>102</ele>
        <time>2013-05-26T09:53:11.000Z</time>
      </trkpt>
      <trkpt lat="48.49329" lon="-2.57884">
        <ele>102.1</ele>
        <time>2013-05-26T09:53:12.000Z</time>
      </trkpt>
      <trkpt lat="48.49327" lon="-2.57881">
        <ele>102.1</ele>
        <time>2013-05-26T09:53:13.000Z</time>
      </trkpt>
      <trkpt lat="48.49324" lon="-2.57878">
        <ele>102.2</ele>
        <time>2013-05-26T09:53:14.000Z</time>
      </trkpt>
      <trkpt lat="48.49322" lon="-2.57874">
        <ele>102.3</ele>
        <time>2013-05-26T09:53:15.000Z</time>
      </trkpt>
      <trkpt lat="48.49321" lon="-2.57869">
        <ele>102.5</ele>
        <time>2013-05-26T09:53:16.000Z</time>
      </trkpt>
      <trkpt lat="48.4932" lon="-2.57865">
        <ele>102.5</ele>
        <time>2013-05-26T09:53:17.000Z</time>
      </trkpt>
      <trkpt lat="48.49318" lon="-2.57861">
        <ele>102.7</ele>
        <time>2013-05-26T09:53:18.000Z</time>
      </trkpt>
      <trkpt lat="48.49316" lon="-2.57858">
        <ele>103.1</ele>
        <time>2013-05-26T09:53:19.000Z</time>
      </trkpt>
      <trkpt lat="48.49305" lon="-2.57844">
        <ele>93.1</ele>
        <time>2013-05-26T09:53:23.000Z</time>
      </trkpt>
      <trkpt lat="48.49299" lon="-2.57834">
        <ele>84.2</ele>
        <time>2013-05-26T09:53:24.000Z</time>
      </trkpt>
      <trkpt lat="48.49298" lon="-2.57828">
        <ele>98.7</ele>
        <time>2013-05-26T09:53:27.000Z</time>
      </trkpt>
      <trkpt lat="48.49296" lon="-2.57826">
        <ele>100.7</ele>
        <time>2013-05-26T09:53:28.000Z</time>
      </trkpt>
      <trkpt lat="48.49295" lon="-2.57823">
        <ele>102.4</ele>
        <time>2013-05-26T09:53:29.000Z</time>
      </trkpt>
      <trkpt lat="48.49293" lon="-2.57819">
        <ele>101.4</ele>
        <time>2013-05-26T09:53:30.000Z</time>
      </trkpt>
      <trkpt lat="48.4929" lon="-2.57815">
        <ele>102.1</ele>
        <time>2013-05-26T09:53:32.000Z</time>
      </trkpt>
      <trkpt lat="48.49288" lon="-2.57812">
        <ele>102.8</ele>
        <time>2013-05-26T09:53:33.000Z</time>
      </trkpt>
      <trkpt lat="48.49286" lon="-2.57809">
        <ele>102.2</ele>
        <time>2013-05-26T09:53:34.000Z</time>
      </trkpt>
      <trkpt lat="48.49285" lon="-2.57807">
        <ele>102.7</ele>
        <time>2013-05-26T09:53:35.000Z</time>
      </trkpt>
      <trkpt lat="48.49284" lon="-2.57802">
        <ele>104.6</ele>
        <time>2013-05-26T09:53:37.000Z</time>
      </trkpt>
      <trkpt lat="48.49284" lon="-2.578">
        <ele>105.7</ele>
        <time>2013-05-26T09:53:38.000Z</time>
      </trkpt>
      <trkpt lat="48.49281" lon="-2.57794">
        <ele>104.5</ele>
        <time>2013-05-26T09:53:40.000Z</time>
      </trkpt>
      <trkpt lat="48.49281" lon="-2.5779">
        <ele>104.5</ele>
        <time>2013-05-26T09:53:41.000Z</time>
      </trkpt>
      <trkpt lat="48.49281" lon="-2.57787">
        <ele>105.2</ele>
        <time>2013-05-26T09:53:42.000Z</time>
      </trkpt>
      <trkpt lat="48.49282" lon="-2.57784">
        <ele>106.3</ele>
        <time>2013-05-26T09:53:43.000Z</time>
      </trkpt>
      <trkpt lat="48.49283" lon="-2.57778">
        <ele>108.6</ele>
        <time>2013-05-26T09:53:45.000Z</time>
      </trkpt>
      <trkpt lat="48.49282" lon="-2.57776">
        <ele>108.2</ele>
        <time>2013-05-26T09:53:46.000Z</time>
      </trkpt>
      <trkpt lat="48.4928" lon="-2.57774">
        <ele>106.7</ele>
        <time>2013-05-26T09:53:48.000Z</time>
      </trkpt>
      <trkpt lat="48.49278" lon="-2.57773">
        <ele>105.8</ele>
        <time>2013-05-26T09:53:49.000Z</time>
      </trkpt>
      <trkpt lat="48.49274" lon="-2.57773">
        <ele>103.5</ele>
        <time>2013-05-26T09:53:51.000Z</time>
      </trkpt>
      <trkpt lat="48.49273" lon="-2.57773">
        <ele>103.1</ele>
        <time>2013-05-26T09:53:52.000Z</time>
      </trkpt>
      <trkpt lat="48.4927" lon="-2.57774">
        <ele>103.1</ele>
        <time>2013-05-26T09:53:54.000Z</time>
      </trkpt>
      <trkpt lat="48.49269" lon="-2.57775">
        <ele>102.9</ele>
        <time>2013-05-26T09:53:55.000Z</time>
      </trkpt>
      <trkpt lat="48.49265" lon="-2.57777">
        <ele>101.9</ele>
        <time>2013-05-26T09:53:57.000Z</time>
      </trkpt>
      <trkpt lat="48.49263" lon="-2.57776">
        <ele>101.1</ele>
        <time>2013-05-26T09:53:58.000Z</time>
      </trkpt>
      <trkpt lat="48.49261" lon="-2.57774">
        <ele>100.3</ele>
        <time>2013-05-26T09:53:59.000Z</time>
      </trkpt>
      <trkpt lat="48.49259" lon="-2.57772">
        <ele>99.9</ele>
        <time>2013-05-26T09:54:00.000Z</time>
      </trkpt>
      <trkpt lat="48.49257" lon="-2.57769">
        <ele>99.3</ele>
        <time>2013-05-26T09:54:01.000Z</time>
      </trkpt>
      <trkpt lat="48.49256" lon="-2.57767">
        <ele>99.1</ele>
        <time>2013-05-26T09:54:02.000Z</time>
      </trkpt>
      <trkpt lat="48.49255" lon="-2.57763">
        <ele>99</ele>
        <time>2013-05-26T09:54:03.000Z</time>
      </trkpt>
      <trkpt lat="48.49254" lon="-2.5776">
        <ele>98.6</ele>
        <time>2013-05-26T09:54:04.000Z</time>
      </trkpt>
      <trkpt lat="48.49254" lon="-2.57754">
        <ele>98.5</ele>
        <time>2013-05-26T09:54:06.000Z</time>
      </trkpt>
      <trkpt lat="48.49255" lon="-2.57751">
        <ele>98.8</ele>
        <time>2013-05-26T09:54:07.000Z</time>
      </trkpt>
      <trkpt lat="48.49259" lon="-2.57749">
        <ele>99.2</ele>
        <time>2013-05-26T09:54:09.000Z</time>
      </trkpt>
      <trkpt lat="48.49261" lon="-2.57747">
        <ele>99.4</ele>
        <time>2013-05-26T09:54:10.000Z</time>
      </trkpt>
      <trkpt lat="48.49264" lon="-2.57745">
        <ele>99.7</ele>
        <time>2013-05-26T09:54:11.000Z</time>
      </trkpt>
      <trkpt lat="48.49267" lon="-2.57744">
        <ele>100</ele>
        <time>2013-05-26T09:54:12.000Z</time>
      </trkpt>
      <trkpt lat="48.49269" lon="-2.57742">
        <ele>99.7</ele>
        <time>2013-05-26T09:54:13.000Z</time>
      </trkpt>
      <trkpt lat="48.49272" lon="-2.5774">
        <ele>99.6</ele>
        <time>2013-05-26T09:54:14.000Z</time>
      </trkpt>
      <trkpt lat="48.49275" lon="-2.57739">
        <ele>99.3</ele>
        <time>2013-05-26T09:54:15.000Z</time>
      </trkpt>
      <trkpt lat="48.49279" lon="-2.57738">
        <ele>99.4</ele>
        <time>2013-05-26T09:54:16.000Z</time>
      </trkpt>
      <trkpt lat="48.49283" lon="-2.57737">
        <ele>99.6</ele>
        <time>2013-05-26T09:54:17.000Z</time>
      </trkpt>
      <trkpt lat="48.49287" lon="-2.57734">
        <ele>100</ele>
        <time>2013-05-26T09:54:18.000Z</time>
      </trkpt>
      <trkpt lat="48.49291" lon="-2.57729">
        <ele>100.3</ele>
        <time>2013-05-26T09:54:19.000Z</time>
      </trkpt>
      <trkpt lat="48.49295" lon="-2.57726">
        <ele>100.7</ele>
        <time>2013-05-26T09:54:20.000Z</time>
      </trkpt>
      <trkpt lat="48.49299" lon="-2.57722">
        <ele>100.9</ele>
        <time>2013-05-26T09:54:21.000Z</time>
      </trkpt>
      <trkpt lat="48.49303" lon="-2.57717">
        <ele>101.1</ele>
        <time>2013-05-26T09:54:22.000Z</time>
      </trkpt>
      <trkpt lat="48.49306" lon="-2.57712">
        <ele>101.4</ele>
        <time>2013-05-26T09:54:23.000Z</time>
      </trkpt>
      <trkpt lat="48.4931" lon="-2.57707">
        <ele>101.3</ele>
        <time>2013-05-26T09:54:24.000Z</time>
      </trkpt>
      <trkpt lat="48.49313" lon="-2.57701">
        <ele>101.1</ele>
        <time>2013-05-26T09:54:25.000Z</time>
      </trkpt>
      <trkpt lat="48.49317" lon="-2.57695">
        <ele>101.2</ele>
        <time>2013-05-26T09:54:26.000Z</time>
      </trkpt>
      <trkpt lat="48.49321" lon="-2.57688">
        <ele>100.8</ele>
        <time>2013-05-26T09:54:27.000Z</time>
      </trkpt>
      <trkpt lat="48.49323" lon="-2.57682">
        <ele>100.3</ele>
        <time>2013-05-26T09:54:28.000Z</time>
      </trkpt>
      <trkpt lat="48.49326" lon="-2.57677">
        <ele>99.7</ele>
        <time>2013-05-26T09:54:29.000Z</time>
      </trkpt>
      <trkpt lat="48.49329" lon="-2.57671">
        <ele>99.5</ele>
        <time>2013-05-26T09:54:30.000Z</time>
      </trkpt>
      <trkpt lat="48.49332" lon="-2.57665">
        <ele>98.6</ele>
        <time>2013-05-26T09:54:31.000Z</time>
      </trkpt>
      <trkpt lat="48.49335" lon="-2.57657">
        <ele>98.2</ele>
        <time>2013-05-26T09:54:32.000Z</time>
      </trkpt>
      <trkpt lat="48.49338" lon="-2.57651">
        <ele>97.8</ele>
        <time>2013-05-26T09:54:33.000Z</time>
      </trkpt>
      <trkpt lat="48.49342" lon="-2.57646">
        <ele>97.3</ele>
        <time>2013-05-26T09:54:34.000Z</time>
      </trkpt>
      <trkpt lat="48.49345" lon="-2.57641">
        <ele>97</ele>
        <time>2013-05-26T09:54:35.000Z</time>
      </trkpt>
      <trkpt lat="48.49348" lon="-2.57636">
        <ele>96.5</ele>
        <time>2013-05-26T09:54:36.000Z</time>
      </trkpt>
      <trkpt lat="48.49351" lon="-2.57629">
        <ele>96.5</ele>
        <time>2013-05-26T09:54:37.000Z</time>
      </trkpt>
      <trkpt lat="48.49354" lon="-2.57623">
        <ele>96.3</ele>
        <time>2013-05-26T09:54:38.000Z</time>
      </trkpt>
      <trkpt lat="48.49357" lon="-2.57616">
        <ele>96.4</ele>
        <time>2013-05-26T09:54:39.000Z</time>
      </trkpt>
      <trkpt lat="48.4936" lon="-2.57609">
        <ele>96.4</ele>
        <time>2013-05-26T09:54:40.000Z</time>
      </trkpt>
      <trkpt lat="48.49362" lon="-2.57602">
        <ele>96.4</ele>
        <time>2013-05-26T09:54:41.000Z</time>
      </trkpt>
      <trkpt lat="48.49365" lon="-2.57594">
        <ele>96.2</ele>
        <time>2013-05-26T09:54:42.000Z</time>
      </trkpt>
      <trkpt lat="48.49368" lon="-2.57588">
        <ele>95.8</ele>
        <time>2013-05-26T09:54:43.000Z</time>
      </trkpt>
      <trkpt lat="48.49371" lon="-2.57581">
        <ele>95.6</ele>
        <time>2013-05-26T09:54:44.000Z</time>
      </trkpt>
      <trkpt lat="48.49374" lon="-2.57575">
        <ele>95.2</ele>
        <time>2013-05-26T09:54:45.000Z</time>
      </trkpt>
      <trkpt lat="48.49376" lon="-2.57569">
        <ele>94.9</ele>
        <time>2013-05-26T09:54:46.000Z</time>
      </trkpt>
      <trkpt lat="48.49379" lon="-2.57563">
        <ele>94.9</ele>
        <time>2013-05-26T09:54:47.000Z</time>
      </trkpt>
      <trkpt lat="48.49381" lon="-2.57557">
        <ele>94.8</ele>
        <time>2013-05-26T09:54:48.000Z</time>
      </trkpt>
      <trkpt lat="48.49383" lon="-2.57552">
        <ele>94.8</ele>
        <time>2013-05-26T09:54:49.000Z</time>
      </trkpt>
      <trkpt lat="48.49386" lon="-2.57546">
        <ele>94.6</ele>
        <time>2013-05-26T09:54:50.000Z</time>
      </trkpt>
      <trkpt lat="48.49388" lon="-2.57541">
        <ele>94.6</ele>
        <time>2013-05-26T09:54:51.000Z</time>
      </trkpt>
      <trkpt lat="48.49389" lon="-2.57537">
        <ele>94</ele>
        <time>2013-05-26T09:54:52.000Z</time>
      </trkpt>
      <trkpt lat="48.4939" lon="-2.57535">
        <ele>93.4</ele>
        <time>2013-05-26T09:54:53.000Z</time>
      </trkpt>
      <trkpt lat="48.49391" lon="-2.57531">
        <ele>92.9</ele>
        <time>2013-05-26T09:54:54.000Z</time>
      </trkpt>
      <trkpt lat="48.49392" lon="-2.57526">
        <ele>92.3</ele>
        <time>2013-05-26T09:54:55.000Z</time>
      </trkpt>
      <trkpt lat="48.49393" lon="-2.5752">
        <ele>92.2</ele>
        <time>2013-05-26T09:54:56.000Z</time>
      </trkpt>
      <trkpt lat="48.49394" lon="-2.57513">
        <ele>92.3</ele>
        <time>2013-05-26T09:54:57.000Z</time>
      </trkpt>
      <trkpt lat="48.49395" lon="-2.57507">
        <ele>92.3</ele>
        <time>2013-05-26T09:54:58.000Z</time>
      </trkpt>
      <trkpt lat="48.49397" lon="-2.57499">
        <ele>92.1</ele>
        <time>2013-05-26T09:54:59.000Z</time>
      </trkpt>
      <trkpt lat="48.49397" lon="-2.57492">
        <ele>91.9</ele>
        <time>2013-05-26T09:55:00.000Z</time>
      </trkpt>
      <trkpt lat="48.49398" lon="-2.57486">
        <ele>91.8</ele>
        <time>2013-05-26T09:55:01.000Z</time>
      </trkpt>
      <trkpt lat="48.494" lon="-2.57481">
        <ele>91.7</ele>
        <time>2013-05-26T09:55:02.000Z</time>
      </trkpt>
      <trkpt lat="48.49401" lon="-2.57475">
        <ele>91.7</ele>
        <time>2013-05-26T09:55:03.000Z</time>
      </trkpt>
      <trkpt lat="48.49402" lon="-2.5747">
        <ele>91.7</ele>
        <time>2013-05-26T09:55:04.000Z</time>
      </trkpt>
      <trkpt lat="48.49403" lon="-2.57466">
        <ele>91.7</ele>
        <time>2013-05-26T09:55:05.000Z</time>
      </trkpt>
      <trkpt lat="48.49404" lon="-2.57461">
        <ele>91.6</ele>
        <time>2013-05-26T09:55:06.000Z</time>
      </trkpt>
      <trkpt lat="48.49405" lon="-2.57456">
        <ele>91.6</ele>
        <time>2013-05-26T09:55:07.000Z</time>
      </trkpt>
      <trkpt lat="48.49405" lon="-2.57452">
        <ele>91.6</ele>
        <time>2013-05-26T09:55:08.000Z</time>
      </trkpt>
      <trkpt lat="48.49406" lon="-2.57447">
        <ele>91.6</ele>
        <time>2013-05-26T09:55:09.000Z</time>
      </trkpt>
      <trkpt lat="48.49406" lon="-2.57441">
        <ele>91.5</ele>
        <time>2013-05-26T09:55:10.000Z</time>
      </trkpt>
      <trkpt lat="48.49408" lon="-2.57433">
        <ele>91.3</ele>
        <time>2013-05-26T09:55:11.000Z</time>
      </trkpt>
      <trkpt lat="48.49408" lon="-2.57426">
        <ele>91</ele>
        <time>2013-05-26T09:55:12.000Z</time>
      </trkpt>
      <trkpt lat="48.49409" lon="-2.5742">
        <ele>90.9</ele>
        <time>2013-05-26T09:55:13.000Z</time>
      </trkpt>
      <trkpt lat="48.49409" lon="-2.57415">
        <ele>90.9</ele>
        <time>2013-05-26T09:55:14.000Z</time>
      </trkpt>
      <trkpt lat="48.49408" lon="-2.5741">
        <ele>91.1</ele>
        <time>2013-05-26T09:55:15.000Z</time>
      </trkpt>
      <trkpt lat="48.49408" lon="-2.57405">
        <ele>91.3</ele>
        <time>2013-05-26T09:55:16.000Z</time>
      </trkpt>
      <trkpt lat="48.49408" lon="-2.57401">
        <ele>91.6</ele>
        <time>2013-05-26T09:55:17.000Z</time>
      </trkpt>
      <trkpt lat="48.49409" lon="-2.57395">
        <ele>91.6</ele>
        <time>2013-05-26T09:55:18.000Z</time>
      </trkpt>
      <trkpt lat="48.49408" lon="-2.5739">
        <ele>91.1</ele>
        <time>2013-05-26T09:55:19.000Z</time>
      </trkpt>
      <trkpt lat="48.49313" lon="-2.57233">
        <ele>86.4</ele>
        <time>2013-05-26T09:55:55.000Z</time>
      </trkpt>
      <trkpt lat="48.49311" lon="-2.5723">
        <ele>84.5</ele>
        <time>2013-05-26T09:55:56.000Z</time>
      </trkpt>
      <trkpt lat="48.4931" lon="-2.57226">
        <ele>82.5</ele>
        <time>2013-05-26T09:55:58.000Z</time>
      </trkpt>
      <trkpt lat="48.49306" lon="-2.57224">
        <ele>86.5</ele>
        <time>2013-05-26T09:56:02.000Z</time>
      </trkpt>
      <trkpt lat="48.49304" lon="-2.57221">
        <ele>86.9</ele>
        <time>2013-05-26T09:56:03.000Z</time>
      </trkpt>
      <trkpt lat="48.49301" lon="-2.57217">
        <ele>85.2</ele>
        <time>2013-05-26T09:56:06.000Z</time>
      </trkpt>
      <trkpt lat="48.49299" lon="-2.57215">
        <ele>85.5</ele>
        <time>2013-05-26T09:56:07.000Z</time>
      </trkpt>
      <trkpt lat="48.49297" lon="-2.57213">
        <ele>85.6</ele>
        <time>2013-05-26T09:56:08.000Z</time>
      </trkpt>
      <trkpt lat="48.49295" lon="-2.57211">
        <ele>85.2</ele>
        <time>2013-05-26T09:56:09.000Z</time>
      </trkpt>
      <trkpt lat="48.49293" lon="-2.57209">
        <ele>86</ele>
        <time>2013-05-26T09:56:10.000Z</time>
      </trkpt>
      <trkpt lat="48.4929" lon="-2.57209">
        <ele>86.9</ele>
        <time>2013-05-26T09:56:11.000Z</time>
      </trkpt>
      <trkpt lat="48.49287" lon="-2.57206">
        <ele>87.4</ele>
        <time>2013-05-26T09:56:13.000Z</time>
      </trkpt>
      <trkpt lat="48.49285" lon="-2.57205">
        <ele>87.7</ele>
        <time>2013-05-26T09:56:14.000Z</time>
      </trkpt>
      <trkpt lat="48.49281" lon="-2.57202">
        <ele>86</ele>
        <time>2013-05-26T09:56:16.000Z</time>
      </trkpt>
      <trkpt lat="48.49279" lon="-2.57201">
        <ele>86</ele>
        <time>2013-05-26T09:56:17.000Z</time>
      </trkpt>
      <trkpt lat="48.49276" lon="-2.572">
        <ele>86.8</ele>
        <time>2013-05-26T09:56:19.000Z</time>
      </trkpt>
      <trkpt lat="48.49267" lon="-2.572">
        <ele>84.9</ele>
        <time>2013-05-26T09:56:22.000Z</time>
      </trkpt>
      <trkpt lat="48.49259" lon="-2.57195">
        <ele>86</ele>
        <time>2013-05-26T09:56:24.000Z</time>
      </trkpt>
      <trkpt lat="48.49257" lon="-2.57195">
        <ele>86.8</ele>
        <time>2013-05-26T09:56:26.000Z</time>
      </trkpt>
      <trkpt lat="48.49255" lon="-2.57191">
        <ele>85.2</ele>
        <time>2013-05-26T09:56:27.000Z</time>
      </trkpt>
      <trkpt lat="48.49251" lon="-2.57189">
        <ele>93.6</ele>
        <time>2013-05-26T09:56:34.000Z</time>
      </trkpt>
      <trkpt lat="48.4925" lon="-2.57188">
        <ele>95.1</ele>
        <time>2013-05-26T09:56:35.000Z</time>
      </trkpt>
      <trkpt lat="48.49248" lon="-2.57185">
        <ele>95.1</ele>
        <time>2013-05-26T09:56:37.000Z</time>
      </trkpt>
      <trkpt lat="48.49246" lon="-2.57184">
        <ele>95.3</ele>
        <time>2013-05-26T09:56:38.000Z</time>
      </trkpt>
      <trkpt lat="48.49244" lon="-2.5718">
        <ele>94.2</ele>
        <time>2013-05-26T09:56:40.000Z</time>
      </trkpt>
      <trkpt lat="48.49244" lon="-2.57177">
        <ele>93</ele>
        <time>2013-05-26T09:56:41.000Z</time>
      </trkpt>
      <trkpt lat="48.49243" lon="-2.57171">
        <ele>90.1</ele>
        <time>2013-05-26T09:56:45.000Z</time>
      </trkpt>
      <trkpt lat="48.49242" lon="-2.57169">
        <ele>90</ele>
        <time>2013-05-26T09:56:46.000Z</time>
      </trkpt>
      <trkpt lat="48.49239" lon="-2.57164">
        <ele>92</ele>
        <time>2013-05-26T09:56:55.000Z</time>
      </trkpt>
      <trkpt lat="48.49237" lon="-2.57164">
        <ele>92.3</ele>
        <time>2013-05-26T09:56:56.000Z</time>
      </trkpt>
      <trkpt lat="48.49233" lon="-2.57164">
        <ele>92.6</ele>
        <time>2013-05-26T09:56:58.000Z</time>
      </trkpt>
      <trkpt lat="48.49231" lon="-2.57164">
        <ele>92.7</ele>
        <time>2013-05-26T09:56:59.000Z</time>
      </trkpt>
      <trkpt lat="48.49227" lon="-2.57164">
        <ele>92.8</ele>
        <time>2013-05-26T09:57:01.000Z</time>
      </trkpt>
      <trkpt lat="48.49225" lon="-2.57165">
        <ele>92.9</ele>
        <time>2013-05-26T09:57:02.000Z</time>
      </trkpt>
      <trkpt lat="48.49222" lon="-2.57165">
        <ele>92.6</ele>
        <time>2013-05-26T09:57:03.000Z</time>
      </trkpt>
      <trkpt lat="48.49219" lon="-2.57167">
        <ele>92.6</ele>
        <time>2013-05-26T09:57:04.000Z</time>
      </trkpt>
      <trkpt lat="48.49217" lon="-2.57169">
        <ele>92.8</ele>
        <time>2013-05-26T09:57:05.000Z</time>
      </trkpt>
      <trkpt lat="48.49215" lon="-2.57171">
        <ele>93.1</ele>
        <time>2013-05-26T09:57:06.000Z</time>
      </trkpt>
      <trkpt lat="48.49213" lon="-2.57174">
        <ele>93.3</ele>
        <time>2013-05-26T09:57:07.000Z</time>
      </trkpt>
      <trkpt lat="48.49211" lon="-2.57177">
        <ele>93.2</ele>
        <time>2013-05-26T09:57:08.000Z</time>
      </trkpt>
      <trkpt lat="48.49209" lon="-2.5718">
        <ele>93.4</ele>
        <time>2013-05-26T09:57:09.000Z</time>
      </trkpt>
      <trkpt lat="48.49208" lon="-2.57182">
        <ele>93.5</ele>
        <time>2013-05-26T09:57:10.000Z</time>
      </trkpt>
      <trkpt lat="48.49206" lon="-2.57186">
        <ele>93.6</ele>
        <time>2013-05-26T09:57:11.000Z</time>
      </trkpt>
      <trkpt lat="48.49204" lon="-2.5719">
        <ele>93.7</ele>
        <time>2013-05-26T09:57:12.000Z</time>
      </trkpt>
      <trkpt lat="48.49202" lon="-2.57193">
        <ele>93.5</ele>
        <time>2013-05-26T09:57:13.000Z</time>
      </trkpt>
      <trkpt lat="48.49198" lon="-2.57197">
        <ele>93.4</ele>
        <time>2013-05-26T09:57:14.000Z</time>
      </trkpt>
      <trkpt lat="48.49195" lon="-2.572">
        <ele>93.4</ele>
        <time>2013-05-26T09:57:15.000Z</time>
      </trkpt>
      <trkpt lat="48.49193" lon="-2.57202">
        <ele>93.4</ele>
        <time>2013-05-26T09:57:16.000Z</time>
      </trkpt>
      <trkpt lat="48.4919" lon="-2.57203">
        <ele>93.4</ele>
        <time>2013-05-26T09:57:17.000Z</time>
      </trkpt>
      <trkpt lat="48.49185" lon="-2.57205">
        <ele>93.3</ele>
        <time>2013-05-26T09:57:18.000Z</time>
      </trkpt>
      <trkpt lat="48.49181" lon="-2.57206">
        <ele>93.2</ele>
        <time>2013-05-26T09:57:19.000Z</time>
      </trkpt>
      <trkpt lat="48.49169" lon="-2.57224">
        <ele>95.7</ele>
        <time>2013-05-26T09:57:22.000Z</time>
      </trkpt>
      <trkpt lat="48.49164" lon="-2.57235">
        <ele>96.3</ele>
        <time>2013-05-26T09:57:23.000Z</time>
      </trkpt>
      <trkpt lat="48.49158" lon="-2.57242">
        <ele>96.7</ele>
        <time>2013-05-26T09:57:25.000Z</time>
      </trkpt>
      <trkpt lat="48.49157" lon="-2.57245">
        <ele>103.7</ele>
        <time>2013-05-26T09:57:26.000Z</time>
      </trkpt>
      <trkpt lat="48.49153" lon="-2.57246">
        <ele>103.2</ele>
        <time>2013-05-26T09:57:27.000Z</time>
      </trkpt>
      <trkpt lat="48.4915" lon="-2.5725">
        <ele>104.5</ele>
        <time>2013-05-26T09:57:28.000Z</time>
      </trkpt>
      <trkpt lat="48.49144" lon="-2.57253">
        <ele>102.4</ele>
        <time>2013-05-26T09:57:29.000Z</time>
      </trkpt>
      <trkpt lat="48.4914" lon="-2.57255">
        <ele>100.4</ele>
        <time>2013-05-26T09:57:30.000Z</time>
      </trkpt>
      <trkpt lat="48.49136" lon="-2.57258">
        <ele>101.7</ele>
        <time>2013-05-26T09:57:31.000Z</time>
      </trkpt>
      <trkpt lat="48.49133" lon="-2.57258">
        <ele>100.4</ele>
        <time>2013-05-26T09:57:32.000Z</time>
      </trkpt>
      <trkpt lat="48.49129" lon="-2.57257">
        <ele>95.5</ele>
        <time>2013-05-26T09:57:34.000Z</time>
      </trkpt>
      <trkpt lat="48.49127" lon="-2.57254">
        <ele>92.7</ele>
        <time>2013-05-26T09:57:35.000Z</time>
      </trkpt>
      <trkpt lat="48.49123" lon="-2.57251">
        <ele>90.3</ele>
        <time>2013-05-26T09:57:36.000Z</time>
      </trkpt>
      <trkpt lat="48.49118" lon="-2.5725">
        <ele>90.1</ele>
        <time>2013-05-26T09:57:37.000Z</time>
      </trkpt>
      <trkpt lat="48.49113" lon="-2.57248">
        <ele>89.1</ele>
        <time>2013-05-26T09:57:38.000Z</time>
      </trkpt>
      <trkpt lat="48.49109" lon="-2.57248">
        <ele>89.8</ele>
        <time>2013-05-26T09:57:39.000Z</time>
      </trkpt>
      <trkpt lat="48.49107" lon="-2.57247">
        <ele>91.7</ele>
        <time>2013-05-26T09:57:40.000Z</time>
      </trkpt>
      <trkpt lat="48.49104" lon="-2.57246">
        <ele>95.2</ele>
        <time>2013-05-26T09:57:42.000Z</time>
      </trkpt>
      <trkpt lat="48.49102" lon="-2.57245">
        <ele>96.1</ele>
        <time>2013-05-26T09:57:43.000Z</time>
      </trkpt>
      <trkpt lat="48.49099" lon="-2.5724">
        <ele>98.8</ele>
        <time>2013-05-26T09:57:46.000Z</time>
      </trkpt>
      <trkpt lat="48.49099" lon="-2.57237">
        <ele>99.1</ele>
        <time>2013-05-26T09:57:47.000Z</time>
      </trkpt>
      <trkpt lat="48.49098" lon="-2.57232">
        <ele>100</ele>
        <time>2013-05-26T09:57:49.000Z</time>
      </trkpt>
      <trkpt lat="48.49098" lon="-2.57228">
        <ele>97.7</ele>
        <time>2013-05-26T09:57:50.000Z</time>
      </trkpt>
      <trkpt lat="48.49097" lon="-2.57223">
        <ele>96.7</ele>
        <time>2013-05-26T09:57:52.000Z</time>
      </trkpt>
      <trkpt lat="48.49096" lon="-2.57222">
        <ele>96.6</ele>
        <time>2013-05-26T09:57:53.000Z</time>
      </trkpt>
      <trkpt lat="48.49096" lon="-2.57216">
        <ele>97</ele>
        <time>2013-05-26T09:57:57.000Z</time>
      </trkpt>
      <trkpt lat="48.49097" lon="-2.57214">
        <ele>97.5</ele>
        <time>2013-05-26T09:57:58.000Z</time>
      </trkpt>
      <trkpt lat="48.49093" lon="-2.57212">
        <ele>99.2</ele>
        <time>2013-05-26T09:58:03.000Z</time>
      </trkpt>
      <trkpt lat="48.49091" lon="-2.57214">
        <ele>99</ele>
        <time>2013-05-26T09:58:04.000Z</time>
      </trkpt>
      <trkpt lat="48.49088" lon="-2.57216">
        <ele>98.9</ele>
        <time>2013-05-26T09:58:05.000Z</time>
      </trkpt>
      <trkpt lat="48.49084" lon="-2.57218">
        <ele>98.6</ele>
        <time>2013-05-26T09:58:06.000Z</time>
      </trkpt>
      <trkpt lat="48.49079" lon="-2.57222">
        <ele>99</ele>
        <time>2013-05-26T09:58:07.000Z</time>
      </trkpt>
      <trkpt lat="48.49075" lon="-2.57225">
        <ele>99.3</ele>
        <time>2013-05-26T09:58:08.000Z</time>
      </trkpt>
      <trkpt lat="48.49072" lon="-2.57227">
        <ele>99.4</ele>
        <time>2013-05-26T09:58:09.000Z</time>
      </trkpt>
      <trkpt lat="48.49068" lon="-2.57232">
        <ele>99.2</ele>
        <time>2013-05-26T09:58:10.000Z</time>
      </trkpt>
      <trkpt lat="48.49064" lon="-2.57235">
        <ele>98.8</ele>
        <time>2013-05-26T09:58:11.000Z</time>
      </trkpt>
      <trkpt lat="48.49059" lon="-2.57238">
        <ele>97.9</ele>
        <time>2013-05-26T09:58:12.000Z</time>
      </trkpt>
      <trkpt lat="48.49055" lon="-2.5724">
        <ele>97.1</ele>
        <time>2013-05-26T09:58:13.000Z</time>
      </trkpt>
      <trkpt lat="48.49052" lon="-2.57242">
        <ele>97.1</ele>
        <time>2013-05-26T09:58:14.000Z</time>
      </trkpt>
      <trkpt lat="48.49049" lon="-2.57243">
        <ele>96.9</ele>
        <time>2013-05-26T09:58:15.000Z</time>
      </trkpt>
      <trkpt lat="48.49047" lon="-2.57244">
        <ele>96.5</ele>
        <time>2013-05-26T09:58:16.000Z</time>
      </trkpt>
      <trkpt lat="48.49044" lon="-2.57245">
        <ele>96</ele>
        <time>2013-05-26T09:58:17.000Z</time>
      </trkpt>
      <trkpt lat="48.49042" lon="-2.57247">
        <ele>95.7</ele>
        <time>2013-05-26T09:58:18.000Z</time>
      </trkpt>
      <trkpt lat="48.4904" lon="-2.57249">
        <ele>95.8</ele>
        <time>2013-05-26T09:58:19.000Z</time>
      </trkpt>
      <trkpt lat="48.49025" lon="-2.57272">
        <ele>100.8</ele>
        <time>2013-05-26T09:58:23.000Z</time>
      </trkpt>
      <trkpt lat="48.4902" lon="-2.57281">
        <ele>110</ele>
        <time>2013-05-26T09:58:24.000Z</time>
      </trkpt>
      <trkpt lat="48.49016" lon="-2.57284">
        <ele>108.5</ele>
        <time>2013-05-26T09:58:26.000Z</time>
      </trkpt>
      <trkpt lat="48.49016" lon="-2.57288">
        <ele>105</ele>
        <time>2013-05-26T09:58:27.000Z</time>
      </trkpt>
      <trkpt lat="48.49016" lon="-2.57283">
        <ele>105.2</ele>
        <time>2013-05-26T09:58:37.000Z</time>
      </trkpt>
      <trkpt lat="48.49016" lon="-2.57281">
        <ele>104.1</ele>
        <time>2013-05-26T09:58:38.000Z</time>
      </trkpt>
      <trkpt lat="48.49018" lon="-2.57276">
        <ele>101.4</ele>
        <time>2013-05-26T09:58:41.000Z</time>
      </trkpt>
      <trkpt lat="48.49018" lon="-2.57274">
        <ele>99.7</ele>
        <time>2013-05-26T09:58:42.000Z</time>
      </trkpt>
      <trkpt lat="48.49019" lon="-2.5727">
        <ele>96.7</ele>
        <time>2013-05-26T09:58:43.000Z</time>
      </trkpt>
      <trkpt lat="48.4902" lon="-2.57266">
        <ele>94.8</ele>
        <time>2013-05-26T09:58:44.000Z</time>
      </trkpt>
      <trkpt lat="48.49019" lon="-2.5726">
        <ele>96</ele>
        <time>2013-05-26T09:58:47.000Z</time>
      </trkpt>
      <trkpt lat="48.49018" lon="-2.57258">
        <ele>96.4</ele>
        <time>2013-05-26T09:58:48.000Z</time>
      </trkpt>
      <trkpt lat="48.49016" lon="-2.57252">
        <ele>98.5</ele>
        <time>2013-05-26T09:58:51.000Z</time>
      </trkpt>
      <trkpt lat="48.49015" lon="-2.57251">
        <ele>100.7</ele>
        <time>2013-05-26T09:58:52.000Z</time>
      </trkpt>
      <trkpt lat="48.49011" lon="-2.57248">
        <ele>102.9</ele>
        <time>2013-05-26T09:58:55.000Z</time>
      </trkpt>
      <trkpt lat="48.4901" lon="-2.57246">
        <ele>103.1</ele>
        <time>2013-05-26T09:58:56.000Z</time>
      </trkpt>
      <trkpt lat="48.49007" lon="-2.57242">
        <ele>103.6</ele>
        <time>2013-05-26T09:58:59.000Z</time>
      </trkpt>
      <trkpt lat="48.49006" lon="-2.57241">
        <ele>103.8</ele>
        <time>2013-05-26T09:59:00.000Z</time>
      </trkpt>
      <trkpt lat="48.49003" lon="-2.57237">
        <ele>104.4</ele>
        <time>2013-05-26T09:59:03.000Z</time>
      </trkpt>
      <trkpt lat="48.49002" lon="-2.57236">
        <ele>104.5</ele>
        <time>2013-05-26T09:59:04.000Z</time>
      </trkpt>
      <trkpt lat="48.48998" lon="-2.57234">
        <ele>105.3</ele>
        <time>2013-05-26T09:59:08.000Z</time>
      </trkpt>
      <trkpt lat="48.48997" lon="-2.57233">
        <ele>105.4</ele>
        <time>2013-05-26T09:59:09.000Z</time>
      </trkpt>
      <trkpt lat="48.48994" lon="-2.57229">
        <ele>106.5</ele>
        <time>2013-05-26T09:59:13.000Z</time>
      </trkpt>
      <trkpt lat="48.48994" lon="-2.57228">
        <ele>106.8</ele>
        <time>2013-05-26T09:59:14.000Z</time>
      </trkpt>
      <trkpt lat="48.48992" lon="-2.57223">
        <ele>108.4</ele>
        <time>2013-05-26T09:59:19.000Z</time>
      </trkpt>
      <trkpt lat="48.48979" lon="-2.5722">
        <ele>105.5</ele>
        <time>2013-05-26T09:59:23.000Z</time>
      </trkpt>
      <trkpt lat="48.48975" lon="-2.57219">
        <ele>106</ele>
        <time>2013-05-26T09:59:25.000Z</time>
      </trkpt>
      <trkpt lat="48.48974" lon="-2.57222">
        <ele>107.8</ele>
        <time>2013-05-26T09:59:26.000Z</time>
      </trkpt>
      <trkpt lat="48.48971" lon="-2.57217">
        <ele>111.6</ele>
        <time>2013-05-26T09:59:31.000Z</time>
      </trkpt>
      <trkpt lat="48.48971" lon="-2.57216">
        <ele>111.8</ele>
        <time>2013-05-26T09:59:32.000Z</time>
      </trkpt>
      <trkpt lat="48.48969" lon="-2.57211">
        <ele>110.5</ele>
        <time>2013-05-26T09:59:37.000Z</time>
      </trkpt>
      <trkpt lat="48.48967" lon="-2.5721">
        <ele>110.2</ele>
        <time>2013-05-26T09:59:38.000Z</time>
      </trkpt>
      <trkpt lat="48.48964" lon="-2.57205">
        <ele>110.9</ele>
        <time>2013-05-26T09:59:42.000Z</time>
      </trkpt>
      <trkpt lat="48.48964" lon="-2.57204">
        <ele>111.5</ele>
        <time>2013-05-26T09:59:43.000Z</time>
      </trkpt>
      <trkpt lat="48.48964" lon="-2.57198">
        <ele>112</ele>
        <time>2013-05-26T09:59:47.000Z</time>
      </trkpt>
      <trkpt lat="48.48963" lon="-2.57197">
        <ele>111.5</ele>
        <time>2013-05-26T09:59:48.000Z</time>
      </trkpt>
      <trkpt lat="48.48963" lon="-2.57191">
        <ele>110.8</ele>
        <time>2013-05-26T09:59:53.000Z</time>
      </trkpt>
      <trkpt lat="48.48963" lon="-2.5719">
        <ele>110.6</ele>
        <time>2013-05-26T09:59:54.000Z</time>
      </trkpt>
      <trkpt lat="48.48965" lon="-2.57184">
        <ele>111.3</ele>
        <time>2013-05-26T10:00:01.000Z</time>
      </trkpt>
      <trkpt lat="48.48965" lon="-2.57184">
        <ele>111.7</ele>
        <time>2013-05-26T10:00:02.000Z</time>
      </trkpt>
      <trkpt lat="48.48969" lon="-2.5718">
        <ele>113.1</ele>
        <time>2013-05-26T10:00:08.000Z</time>
      </trkpt>
      <trkpt lat="48.48969" lon="-2.5718">
        <ele>113.4</ele>
        <time>2013-05-26T10:00:09.000Z</time>
      </trkpt>
      <trkpt lat="48.48972" lon="-2.57176">
        <ele>115.4</ele>
        <time>2013-05-26T10:00:19.000Z</time>
      </trkpt>
      <trkpt lat="48.48973" lon="-2.57167">
        <ele>125.7</ele>
        <time>2013-05-26T10:00:22.000Z</time>
      </trkpt>
      <trkpt lat="48.48973" lon="-2.5717">
        <ele>131.3</ele>
        <time>2013-05-26T10:00:27.000Z</time>
      </trkpt>
      <trkpt lat="48.48978" lon="-2.57164">
        <ele>123.7</ele>
        <time>2013-05-26T10:00:28.000Z</time>
      </trkpt>
      <trkpt lat="48.48976" lon="-2.5716">
        <ele>118.2</ele>
        <time>2013-05-26T10:00:39.000Z</time>
      </trkpt>
      <trkpt lat="48.48973" lon="-2.57161">
        <ele>119</ele>
        <time>2013-05-26T10:00:40.000Z</time>
      </trkpt>
      <trkpt lat="48.4897" lon="-2.5716">
        <ele>119.8</ele>
        <time>2013-05-26T10:00:41.000Z</time>
      </trkpt>
      <trkpt lat="48.48968" lon="-2.57159">
        <ele>120.2</ele>
        <time>2013-05-26T10:00:42.000Z</time>
      </trkpt>
      <trkpt lat="48.48964" lon="-2.57159">
        <ele>119.7</ele>
        <time>2013-05-26T10:00:43.000Z</time>
      </trkpt>
      <trkpt lat="48.4896" lon="-2.57159">
        <ele>119.6</ele>
        <time>2013-05-26T10:00:44.000Z</time>
      </trkpt>
      <trkpt lat="48.48957" lon="-2.57158">
        <ele>119.2</ele>
        <time>2013-05-26T10:00:45.000Z</time>
      </trkpt>
      <trkpt lat="48.48954" lon="-2.57158">
        <ele>119.3</ele>
        <time>2013-05-26T10:00:46.000Z</time>
      </trkpt>
      <trkpt lat="48.48951" lon="-2.57157">
        <ele>119.4</ele>
        <time>2013-05-26T10:00:47.000Z</time>
      </trkpt>
      <trkpt lat="48.48949" lon="-2.57156">
        <ele>119.9</ele>
        <time>2013-05-26T10:00:48.000Z</time>
      </trkpt>
      <trkpt lat="48.48946" lon="-2.57155">
        <ele>119.5</ele>
        <time>2013-05-26T10:00:49.000Z</time>
      </trkpt>
      <trkpt lat="48.48944" lon="-2.57155">
        <ele>119.7</ele>
        <time>2013-05-26T10:00:50.000Z</time>
      </trkpt>
      <trkpt lat="48.48941" lon="-2.57154">
        <ele>119.5</ele>
        <time>2013-05-26T10:00:51.000Z</time>
      </trkpt>
      <trkpt lat="48.48939" lon="-2.57154">
        <ele>119.4</ele>
        <time>2013-05-26T10:00:52.000Z</time>
      </trkpt>
      <trkpt lat="48.48936" lon="-2.57153">
        <ele>118.8</ele>
        <time>2013-05-26T10:00:53.000Z</time>
      </trkpt>
      <trkpt lat="48.48934" lon="-2.57152">
        <ele>118.6</ele>
        <time>2013-05-26T10:00:54.000Z</time>
      </trkpt>
      <trkpt lat="48.48932" lon="-2.57152">
        <ele>118.1</ele>
        <time>2013-05-26T10:00:55.000Z</time>
      </trkpt>
      <trkpt lat="48.48928" lon="-2.57152">
        <ele>118.1</ele>
        <time>2013-05-26T10:00:56.000Z</time>
      </trkpt>
      <trkpt lat="48.48925" lon="-2.57152">
        <ele>118.1</ele>
        <time>2013-05-26T10:00:57.000Z</time>
      </trkpt>
      <trkpt lat="48.48923" lon="-2.57153">
        <ele>118.1</ele>
        <time>2013-05-26T10:00:58.000Z</time>
      </trkpt>
      <trkpt lat="48.48921" lon="-2.57153">
        <ele>118.2</ele>
        <time>2013-05-26T10:00:59.000Z</time>
      </trkpt>
      <trkpt lat="48.48918" lon="-2.57153">
        <ele>118.1</ele>
        <time>2013-05-26T10:01:00.000Z</time>
      </trkpt>
      <trkpt lat="48.48916" lon="-2.57153">
        <ele>117.9</ele>
        <time>2013-05-26T10:01:01.000Z</time>
      </trkpt>
      <trkpt lat="48.48913" lon="-2.57153">
        <ele>117.9</ele>
        <time>2013-05-26T10:01:02.000Z</time>
      </trkpt>
      <trkpt lat="48.48909" lon="-2.57153">
        <ele>118</ele>
        <time>2013-05-26T10:01:03.000Z</time>
      </trkpt>
      <trkpt lat="48.48906" lon="-2.57153">
        <ele>117.9</ele>
        <time>2013-05-26T10:01:04.000Z</time>
      </trkpt>
      <trkpt lat="48.48903" lon="-2.57153">
        <ele>118</ele>
        <time>2013-05-26T10:01:05.000Z</time>
      </trkpt>
      <trkpt lat="48.489" lon="-2.57152">
        <ele>117.9</ele>
        <time>2013-05-26T10:01:06.000Z</time>
      </trkpt>
      <trkpt lat="48.48897" lon="-2.57151">
        <ele>117.7</ele>
        <time>2013-05-26T10:01:07.000Z</time>
      </trkpt>
      <trkpt lat="48.48895" lon="-2.57151">
        <ele>117.7</ele>
        <time>2013-05-26T10:01:08.000Z</time>
      </trkpt>
      <trkpt lat="48.48892" lon="-2.5715">
        <ele>117.7</ele>
        <time>2013-05-26T10:01:09.000Z</time>
      </trkpt>
      <trkpt lat="48.48889" lon="-2.57148">
        <ele>117.4</ele>
        <time>2013-05-26T10:01:10.000Z</time>
      </trkpt>
      <trkpt lat="48.48887" lon="-2.57147">
        <ele>117.3</ele>
        <time>2013-05-26T10:01:11.000Z</time>
      </trkpt>
      <trkpt lat="48.48884" lon="-2.57146">
        <ele>117.4</ele>
        <time>2013-05-26T10:01:12.000Z</time>
      </trkpt>
      <trkpt lat="48.48881" lon="-2.57145">
        <ele>117.6</ele>
        <time>2013-05-26T10:01:13.000Z</time>
      </trkpt>
      <trkpt lat="48.48879" lon="-2.57144">
        <ele>117.6</ele>
        <time>2013-05-26T10:01:14.000Z</time>
      </trkpt>
      <trkpt lat="48.48876" lon="-2.57143">
        <ele>117.8</ele>
        <time>2013-05-26T10:01:15.000Z</time>
      </trkpt>
      <trkpt lat="48.48874" lon="-2.57142">
        <ele>118</ele>
        <time>2013-05-26T10:01:16.000Z</time>
      </trkpt>
      <trkpt lat="48.48872" lon="-2.57142">
        <ele>118.2</ele>
        <time>2013-05-26T10:01:17.000Z</time>
      </trkpt>
      <trkpt lat="48.48869" lon="-2.57142">
        <ele>118.2</ele>
        <time>2013-05-26T10:01:18.000Z</time>
      </trkpt>
      <trkpt lat="48.48866" lon="-2.57143">
        <ele>118.4</ele>
        <time>2013-05-26T10:01:19.000Z</time>
      </trkpt>
      <trkpt lat="48.48801" lon="-2.573">
        <ele>119.2</ele>
        <time>2013-05-26T10:01:41.000Z</time>
      </trkpt>
      <trkpt lat="48.48796" lon="-2.57314">
        <ele>111.4</ele>
        <time>2013-05-26T10:01:42.000Z</time>
      </trkpt>
      <trkpt lat="48.4879" lon="-2.57331">
        <ele>108.3</ele>
        <time>2013-05-26T10:01:44.000Z</time>
      </trkpt>
      <trkpt lat="48.48787" lon="-2.57342">
        <ele>108.6</ele>
        <time>2013-05-26T10:01:45.000Z</time>
      </trkpt>
      <trkpt lat="48.48783" lon="-2.57352">
        <ele>109.6</ele>
        <time>2013-05-26T10:01:46.000Z</time>
      </trkpt>
      <trkpt lat="48.4878" lon="-2.57364">
        <ele>109.3</ele>
        <time>2013-05-26T10:01:47.000Z</time>
      </trkpt>
      <trkpt lat="48.48775" lon="-2.57375">
        <ele>108.4</ele>
        <time>2013-05-26T10:01:48.000Z</time>
      </trkpt>
      <trkpt lat="48.48772" lon="-2.57387">
        <ele>107.9</ele>
        <time>2013-05-26T10:01:49.000Z</time>
      </trkpt>
      <trkpt lat="48.48767" lon="-2.574">
        <ele>106.6</ele>
        <time>2013-05-26T10:01:50.000Z</time>
      </trkpt>
      <trkpt lat="48.48762" lon="-2.57413">
        <ele>105.4</ele>
        <time>2013-05-26T10:01:51.000Z</time>
      </trkpt>
      <trkpt lat="48.48757" lon="-2.57425">
        <ele>104.5</ele>
        <time>2013-05-26T10:01:52.000Z</time>
      </trkpt>
      <trkpt lat="48.48753" lon="-2.57438">
        <ele>103.3</ele>
        <time>2013-05-26T10:01:53.000Z</time>
      </trkpt>
      <trkpt lat="48.48748" lon="-2.57449">
        <ele>101.7</ele>
        <time>2013-05-26T10:01:54.000Z</time>
      </trkpt>
      <trkpt lat="48.48744" lon="-2.5746">
        <ele>100.5</ele>
        <time>2013-05-26T10:01:55.000Z</time>
      </trkpt>
      <trkpt lat="48.4874" lon="-2.57471">
        <ele>99.1</ele>
        <time>2013-05-26T10:01:56.000Z</time>
      </trkpt>
      <trkpt lat="48.48735" lon="-2.57481">
        <ele>97.9</ele>
        <time>2013-05-26T10:01:57.000Z</time>
      </trkpt>
      <trkpt lat="48.4873" lon="-2.5749">
        <ele>96.8</ele>
        <time>2013-05-26T10:01:58.000Z</time>
      </trkpt>
      <trkpt lat="48.48726" lon="-2.57499">
        <ele>95.7</ele>
        <time>2013-05-26T10:01:59.000Z</time>
      </trkpt>
      <trkpt lat="48.48721" lon="-2.57507">
        <ele>94.8</ele>
        <time>2013-05-26T10:02:00.000Z</time>
      </trkpt>
      <trkpt lat="48.48715" lon="-2.57515">
        <ele>94</ele>
        <time>2013-05-26T10:02:01.000Z</time>
      </trkpt>
      <trkpt lat="48.4871" lon="-2.57522">
        <ele>93.2</ele>
        <time>2013-05-26T10:02:02.000Z</time>
      </trkpt>
      <trkpt lat="48.48706" lon="-2.57526">
        <ele>92.2</ele>
        <time>2013-05-26T10:02:03.000Z</time>
      </trkpt>
      <trkpt lat="48.48703" lon="-2.57528">
        <ele>91.2</ele>
        <time>2013-05-26T10:02:04.000Z</time>
      </trkpt>
      <trkpt lat="48.48699" lon="-2.5753">
        <ele>90.5</ele>
        <time>2013-05-26T10:02:05.000Z</time>
      </trkpt>
      <trkpt lat="48.48696" lon="-2.57531">
        <ele>89.8</ele>
        <time>2013-05-26T10:02:06.000Z</time>
      </trkpt>
      <trkpt lat="48.48693" lon="-2.57533">
        <ele>88.9</ele>
        <time>2013-05-26T10:02:07.000Z</time>
      </trkpt>
      <trkpt lat="48.4869" lon="-2.57533">
        <ele>87.7</ele>
        <time>2013-05-26T10:02:08.000Z</time>
      </trkpt>
      <trkpt lat="48.48688" lon="-2.57533">
        <ele>86.8</ele>
        <time>2013-05-26T10:02:09.000Z</time>
      </trkpt>
      <trkpt lat="48.48686" lon="-2.57533">
        <ele>89.6</ele>
        <time>2013-05-26T10:02:19.000Z</time>
      </trkpt>
      <trkpt lat="48.48682" lon="-2.57541">
        <ele>99.6</ele>
        <time>2013-05-26T10:02:23.000Z</time>
      </trkpt>
      <trkpt lat="48.48689" lon="-2.57544">
        <ele>104.2</ele>
        <time>2013-05-26T10:02:24.000Z</time>
      </trkpt>
      <trkpt lat="48.48689" lon="-2.57544">
        <ele>104.2</ele>
        <time>2013-05-26T10:02:25.000Z</time>
      </trkpt>
      <trkpt lat="48.48695" lon="-2.57548">
        <ele>105.8</ele>
        <time>2013-05-26T10:02:26.000Z</time>
      </trkpt>
      <trkpt lat="48.48697" lon="-2.57551">
        <ele>100.4</ele>
        <time>2013-05-26T10:02:29.000Z</time>
      </trkpt>
      <trkpt lat="48.48698" lon="-2.57554">
        <ele>102.4</ele>
        <time>2013-05-26T10:02:30.000Z</time>
      </trkpt>
      <trkpt lat="48.487" lon="-2.57557">
        <ele>99.4</ele>
        <time>2013-05-26T10:02:33.000Z</time>
      </trkpt>
      <trkpt lat="48.48701" lon="-2.57559">
        <ele>97.8</ele>
        <time>2013-05-26T10:02:34.000Z</time>
      </trkpt>
      <trkpt lat="48.48703" lon="-2.57562">
        <ele>97.1</ele>
        <time>2013-05-26T10:02:35.000Z</time>
      </trkpt>
      <trkpt lat="48.48705" lon="-2.57565">
        <ele>97.6</ele>
        <time>2013-05-26T10:02:36.000Z</time>
      </trkpt>
      <trkpt lat="48.48709" lon="-2.57569">
        <ele>98.3</ele>
        <time>2013-05-26T10:02:37.000Z</time>
      </trkpt>
      <trkpt lat="48.48711" lon="-2.57573">
        <ele>98.6</ele>
        <time>2013-05-26T10:02:38.000Z</time>
      </trkpt>
      <trkpt lat="48.48714" lon="-2.57576">
        <ele>99.6</ele>
        <time>2013-05-26T10:02:39.000Z</time>
      </trkpt>
      <trkpt lat="48.48716" lon="-2.57578">
        <ele>100.7</ele>
        <time>2013-05-26T10:02:40.000Z</time>
      </trkpt>
      <trkpt lat="48.48719" lon="-2.57581">
        <ele>101.8</ele>
        <time>2013-05-26T10:02:41.000Z</time>
      </trkpt>
      <trkpt lat="48.48722" lon="-2.57585">
        <ele>102.9</ele>
        <time>2013-05-26T10:02:42.000Z</time>
      </trkpt>
      <trkpt lat="48.48725" lon="-2.57587">
        <ele>103.3</ele>
        <time>2013-05-26T10:02:43.000Z</time>
      </trkpt>
      <trkpt lat="48.48727" lon="-2.57589">
        <ele>104</ele>
        <time>2013-05-26T10:02:44.000Z</time>
      </trkpt>
      <trkpt lat="48.4873" lon="-2.57592">
        <ele>104.9</ele>
        <time>2013-05-26T10:02:45.000Z</time>
      </trkpt>
      <trkpt lat="48.48733" lon="-2.57596">
        <ele>105.2</ele>
        <time>2013-05-26T10:02:46.000Z</time>
      </trkpt>
      <trkpt lat="48.48736" lon="-2.57599">
        <ele>105.8</ele>
        <time>2013-05-26T10:02:47.000Z</time>
      </trkpt>
      <trkpt lat="48.4874" lon="-2.57603">
        <ele>106.6</ele>
        <time>2013-05-26T10:02:48.000Z</time>
      </trkpt>
      <trkpt lat="48.48744" lon="-2.57607">
        <ele>107</ele>
        <time>2013-05-26T10:02:49.000Z</time>
      </trkpt>
      <trkpt lat="48.48748" lon="-2.57611">
        <ele>108.9</ele>
        <time>2013-05-26T10:02:50.000Z</time>
      </trkpt>
      <trkpt lat="48.48752" lon="-2.57615">
        <ele>110.3</ele>
        <time>2013-05-26T10:02:51.000Z</time>
      </trkpt>
      <trkpt lat="48.48755" lon="-2.57619">
        <ele>110.9</ele>
        <time>2013-05-26T10:02:52.000Z</time>
      </trkpt>
      <trkpt lat="48.48758" lon="-2.57621">
        <ele>109</ele>
        <time>2013-05-26T10:02:53.000Z</time>
      </trkpt>
      <trkpt lat="48.48761" lon="-2.57623">
        <ele>108.2</ele>
        <time>2013-05-26T10:02:54.000Z</time>
      </trkpt>
      <trkpt lat="48.48765" lon="-2.57624">
        <ele>107.5</ele>
        <time>2013-05-26T10:02:55.000Z</time>
      </trkpt>
      <trkpt lat="48.48769" lon="-2.57627">
        <ele>107.7</ele>
        <time>2013-05-26T10:02:56.000Z</time>
      </trkpt>
      <trkpt lat="48.48772" lon="-2.5763">
        <ele>108</ele>
        <time>2013-05-26T10:02:57.000Z</time>
      </trkpt>
      <trkpt lat="48.48775" lon="-2.57633">
        <ele>108.2</ele>
        <time>2013-05-26T10:02:58.000Z</time>
      </trkpt>
      <trkpt lat="48.48778" lon="-2.57636">
        <ele>108.4</ele>
        <time>2013-05-26T10:02:59.000Z</time>
      </trkpt>
      <trkpt lat="48.48781" lon="-2.57639">
        <ele>108.7</ele>
        <time>2013-05-26T10:03:00.000Z</time>
      </trkpt>
      <trkpt lat="48.48785" lon="-2.57642">
        <ele>109</ele>
        <time>2013-05-26T10:03:01.000Z</time>
      </trkpt>
      <trkpt lat="48.48787" lon="-2.57643">
        <ele>109.3</ele>
        <time>2013-05-26T10:03:02.000Z</time>
      </trkpt>
      <trkpt lat="48.48791" lon="-2.57643">
        <ele>109.7</ele>
        <time>2013-05-26T10:03:03.000Z</time>
      </trkpt>
      <trkpt lat="48.48794" lon="-2.57642">
        <ele>110.4</ele>
        <time>2013-05-26T10:03:04.000Z</time>
      </trkpt>
      <trkpt lat="48.48794" lon="-2.57638">
        <ele>111.7</ele>
        <time>2013-05-26T10:03:05.000Z</time>
      </trkpt>
      <trkpt lat="48.48797" lon="-2.57634">
        <ele>111.5</ele>
        <time>2013-05-26T10:03:08.000Z</time>
      </trkpt>
      <trkpt lat="48.48798" lon="-2.57633">
        <ele>111.3</ele>
        <time>2013-05-26T10:03:09.000Z</time>
      </trkpt>
      <trkpt lat="48.48801" lon="-2.57631">
        <ele>111.1</ele>
        <time>2013-05-26T10:03:11.000Z</time>
      </trkpt>
      <trkpt lat="48.48803" lon="-2.57631">
        <ele>110.9</ele>
        <time>2013-05-26T10:03:12.000Z</time>
      </trkpt>
      <trkpt lat="48.48806" lon="-2.57629">
        <ele>110.6</ele>
        <time>2013-05-26T10:03:14.000Z</time>
      </trkpt>
      <trkpt lat="48.48808" lon="-2.57628">
        <ele>110.6</ele>
        <time>2013-05-26T10:03:15.000Z</time>
      </trkpt>
      <trkpt lat="48.48811" lon="-2.57627">
        <ele>110.6</ele>
        <time>2013-05-26T10:03:17.000Z</time>
      </trkpt>
      <trkpt lat="48.48813" lon="-2.57627">
        <ele>110.3</ele>
        <time>2013-05-26T10:03:18.000Z</time>
      </trkpt>
      <trkpt lat="48.48816" lon="-2.57627">
        <ele>110.3</ele>
        <time>2013-05-26T10:03:19.000Z</time>
      </trkpt>
      <trkpt lat="48.48821" lon="-2.57622">
        <ele>108.1</ele>
        <time>2013-05-26T10:03:23.000Z</time>
      </trkpt>
      <trkpt lat="48.48818" lon="-2.57619">
        <ele>113.7</ele>
        <time>2013-05-26T10:03:28.000Z</time>
      </trkpt>
      <trkpt lat="48.48816" lon="-2.5762">
        <ele>111.6</ele>
        <time>2013-05-26T10:03:29.000Z</time>
      </trkpt>
      <trkpt lat="48.48813" lon="-2.57621">
        <ele>108.9</ele>
        <time>2013-05-26T10:03:30.000Z</time>
      </trkpt>
      <trkpt lat="48.4881" lon="-2.57621">
        <ele>105.4</ele>
        <time>2013-05-26T10:03:31.000Z</time>
      </trkpt>
      <trkpt lat="48.48808" lon="-2.57624">
        <ele>105.5</ele>
        <time>2013-05-26T10:03:32.000Z</time>
      </trkpt>
      <trkpt lat="48.48803" lon="-2.57625">
        <ele>103.2</ele>
        <time>2013-05-26T10:03:33.000Z</time>
      </trkpt>
      <trkpt lat="48.488" lon="-2.57626">
        <ele>103.6</ele>
        <time>2013-05-26T10:03:34.000Z</time>
      </trkpt>
      <trkpt lat="48.48797" lon="-2.57626">
        <ele>104.4</ele>
        <time>2013-05-26T10:03:35.000Z</time>
      </trkpt>
      <trkpt lat="48.48794" lon="-2.57627">
        <ele>102.9</ele>
        <time>2013-05-26T10:03:36.000Z</time>
      </trkpt>
      <trkpt lat="48.48792" lon="-2.5763">
        <ele>100.8</ele>
        <time>2013-05-26T10:03:37.000Z</time>
      </trkpt>
      <trkpt lat="48.48789" lon="-2.57635">
        <ele>99.9</ele>
        <time>2013-05-26T10:03:39.000Z</time>
      </trkpt>
      <trkpt lat="48.48787" lon="-2.57636">
        <ele>100</ele>
        <time>2013-05-26T10:03:40.000Z</time>
      </trkpt>
      <trkpt lat="48.48783" lon="-2.57636">
        <ele>102</ele>
        <time>2013-05-26T10:03:42.000Z</time>
      </trkpt>
      <trkpt lat="48.48783" lon="-2.57637">
        <ele>102.9</ele>
        <time>2013-05-26T10:03:43.000Z</time>
      </trkpt>
      <trkpt lat="48.4878" lon="-2.57638">
        <ele>103.4</ele>
        <time>2013-05-26T10:03:46.000Z</time>
      </trkpt>
      <trkpt lat="48.48778" lon="-2.57638">
        <ele>104.2</ele>
        <time>2013-05-26T10:03:47.000Z</time>
      </trkpt>
      <trkpt lat="48.48775" lon="-2.57639">
        <ele>105.3</ele>
        <time>2013-05-26T10:03:48.000Z</time>
      </trkpt>
      <trkpt lat="48.48773" lon="-2.5764">
        <ele>105.7</ele>
        <time>2013-05-26T10:03:49.000Z</time>
      </trkpt>
      <trkpt lat="48.48771" lon="-2.57643">
        <ele>103.9</ele>
        <time>2013-05-26T10:03:50.000Z</time>
      </trkpt>
      <trkpt lat="48.48767" lon="-2.57645">
        <ele>104.2</ele>
        <time>2013-05-26T10:03:51.000Z</time>
      </trkpt>
      <trkpt lat="48.48765" lon="-2.57648">
        <ele>104.2</ele>
        <time>2013-05-26T10:03:52.000Z</time>
      </trkpt>
      <trkpt lat="48.48762" lon="-2.57649">
        <ele>104.3</ele>
        <time>2013-05-26T10:03:53.000Z</time>
      </trkpt>
      <trkpt lat="48.48758" lon="-2.5765">
        <ele>103.5</ele>
        <time>2013-05-26T10:03:54.000Z</time>
      </trkpt>
      <trkpt lat="48.48756" lon="-2.57651">
        <ele>103.7</ele>
        <time>2013-05-26T10:03:55.000Z</time>
      </trkpt>
      <trkpt lat="48.48753" lon="-2.57653">
        <ele>103.5</ele>
        <time>2013-05-26T10:03:56.000Z</time>
      </trkpt>
      <trkpt lat="48.48751" lon="-2.57654">
        <ele>104</ele>
        <time>2013-05-26T10:03:57.000Z</time>
      </trkpt>
      <trkpt lat="48.48748" lon="-2.57655">
        <ele>104.1</ele>
        <time>2013-05-26T10:03:58.000Z</time>
      </trkpt>
      <trkpt lat="48.48745" lon="-2.57655">
        <ele>103.3</ele>
        <time>2013-05-26T10:03:59.000Z</time>
      </trkpt>
      <trkpt lat="48.48742" lon="-2.57655">
        <ele>102.8</ele>
        <time>2013-05-26T10:04:00.000Z</time>
      </trkpt>
      <trkpt lat="48.48739" lon="-2.57656">
        <ele>102</ele>
        <time>2013-05-26T10:04:01.000Z</time>
      </trkpt>
      <trkpt lat="48.48736" lon="-2.57656">
        <ele>101.3</ele>
        <time>2013-05-26T10:04:02.000Z</time>
      </trkpt>
      <trkpt lat="48.48734" lon="-2.57656">
        <ele>101.1</ele>
        <time>2013-05-26T10:04:03.000Z</time>
      </trkpt>
      <trkpt lat="48.4873" lon="-2.57655">
        <ele>100.7</ele>
        <time>2013-05-26T10:04:05.000Z</time>
      </trkpt>
      <trkpt lat="48.48727" lon="-2.57654">
        <ele>100.4</ele>
        <time>2013-05-26T10:04:06.000Z</time>
      </trkpt>
      <trkpt lat="48.48723" lon="-2.57652">
        <ele>100.6</ele>
        <time>2013-05-26T10:04:08.000Z</time>
      </trkpt>
      <trkpt lat="48.48723" lon="-2.57651">
        <ele>100.7</ele>
        <time>2013-05-26T10:04:09.000Z</time>
      </trkpt>
      <trkpt lat="48.4872" lon="-2.57648">
        <ele>100.9</ele>
        <time>2013-05-26T10:04:11.000Z</time>
      </trkpt>
      <trkpt lat="48.48718" lon="-2.57646">
        <ele>101.1</ele>
        <time>2013-05-26T10:04:12.000Z</time>
      </trkpt>
      <trkpt lat="48.48715" lon="-2.57646">
        <ele>100.9</ele>
        <time>2013-05-26T10:04:14.000Z</time>
      </trkpt>
      <trkpt lat="48.48713" lon="-2.57647">
        <ele>100.7</ele>
        <time>2013-05-26T10:04:15.000Z</time>
      </trkpt>
      <trkpt lat="48.4871" lon="-2.5765">
        <ele>100.6</ele>
        <time>2013-05-26T10:04:17.000Z</time>
      </trkpt>
      <trkpt lat="48.48709" lon="-2.57653">
        <ele>100.1</ele>
        <time>2013-05-26T10:04:18.000Z</time>
      </trkpt>
      <trkpt lat="48.48708" lon="-2.57657">
        <ele>99.9</ele>
        <time>2013-05-26T10:04:19.000Z</time>
      </trkpt>
      <trkpt lat="48.48714" lon="-2.5767">
        <ele>104.7</ele>
        <time>2013-05-26T10:04:22.000Z</time>
      </trkpt>
      <trkpt lat="48.4871" lon="-2.57671">
        <ele>107</ele>
        <time>2013-05-26T10:04:26.000Z</time>
      </trkpt>
      <trkpt lat="48.48709" lon="-2.57669">
        <ele>106.4</ele>
        <time>2013-05-26T10:04:27.000Z</time>
      </trkpt>
      <trkpt lat="48.48708" lon="-2.57669">
        <ele>106.3</ele>
        <time>2013-05-26T10:04:28.000Z</time>
      </trkpt>
      <trkpt lat="48.48704" lon="-2.57669">
        <ele>104.6</ele>
        <time>2013-05-26T10:04:29.000Z</time>
      </trkpt>
      <trkpt lat="48.48701" lon="-2.57665">
        <ele>105.6</ele>
        <time>2013-05-26T10:04:31.000Z</time>
      </trkpt>
      <trkpt lat="48.48699" lon="-2.57664">
        <ele>104.5</ele>
        <time>2013-05-26T10:04:32.000Z</time>
      </trkpt>
      <trkpt lat="48.48694" lon="-2.57663">
        <ele>101.6</ele>
        <time>2013-05-26T10:04:33.000Z</time>
      </trkpt>
      <trkpt lat="48.48693" lon="-2.57661">
        <ele>99.8</ele>
        <time>2013-05-26T10:04:34.000Z</time>
      </trkpt>
      <trkpt lat="48.48692" lon="-2.5766">
        <ele>99.8</ele>
        <time>2013-05-26T10:04:35.000Z</time>
      </trkpt>
      <trkpt lat="48.48689" lon="-2.57656">
        <ele>99.1</ele>
        <time>2013-05-26T10:04:36.000Z</time>
      </trkpt>
      <trkpt lat="48.48686" lon="-2.57652">
        <ele>98.6</ele>
        <time>2013-05-26T10:04:37.000Z</time>
      </trkpt>
      <trkpt lat="48.48684" lon="-2.5765">
        <ele>99.3</ele>
        <time>2013-05-26T10:04:38.000Z</time>
      </trkpt>
      <trkpt lat="48.4868" lon="-2.57646">
        <ele>101</ele>
        <time>2013-05-26T10:04:40.000Z</time>
      </trkpt>
      <trkpt lat="48.48678" lon="-2.57644">
        <ele>102.1</ele>
        <time>2013-05-26T10:04:41.000Z</time>
      </trkpt>
      <trkpt lat="48.48675" lon="-2.5764">
        <ele>102.6</ele>
        <time>2013-05-26T10:04:43.000Z</time>
      </trkpt>
      <trkpt lat="48.48673" lon="-2.57638">
        <ele>102.9</ele>
        <time>2013-05-26T10:04:44.000Z</time>
      </trkpt>
      <trkpt lat="48.48669" lon="-2.57637">
        <ele>104.7</ele>
        <time>2013-05-26T10:04:46.000Z</time>
      </trkpt>
      <trkpt lat="48.48667" lon="-2.57636">
        <ele>105.7</ele>
        <time>2013-05-26T10:04:47.000Z</time>
      </trkpt>
      <trkpt lat="48.48665" lon="-2.57633">
        <ele>107.5</ele>
        <time>2013-05-26T10:04:49.000Z</time>
      </trkpt>
      <trkpt lat="48.48663" lon="-2.57632">
        <ele>109.3</ele>
        <time>2013-05-26T10:04:50.000Z</time>
      </trkpt>
      <trkpt lat="48.48659" lon="-2.57631">
        <ele>107.5</ele>
        <time>2013-05-26T10:04:52.000Z</time>
      </trkpt>
      <trkpt lat="48.48658" lon="-2.57631">
        <ele>107.6</ele>
        <time>2013-05-26T10:04:53.000Z</time>
      </trkpt>
      <trkpt lat="48.48656" lon="-2.5763">
        <ele>108.1</ele>
        <time>2013-05-26T10:04:54.000Z</time>
      </trkpt>
      <trkpt lat="48.48653" lon="-2.57629">
        <ele>108.5</ele>
        <time>2013-05-26T10:04:55.000Z</time>
      </trkpt>
      <trkpt lat="48.4865" lon="-2.57628">
        <ele>108.9</ele>
        <time>2013-05-26T10:04:56.000Z</time>
      </trkpt>
      <trkpt lat="48.48648" lon="-2.57627">
        <ele>108.9</ele>
        <time>2013-05-26T10:04:57.000Z</time>
      </trkpt>
      <trkpt lat="48.48645" lon="-2.57626">
        <ele>109.4</ele>
        <time>2013-05-26T10:04:58.000Z</time>
      </trkpt>
      <trkpt lat="48.48642" lon="-2.57624">
        <ele>108.7</ele>
        <time>2013-05-26T10:04:59.000Z</time>
      </trkpt>
      <trkpt lat="48.4864" lon="-2.57622">
        <ele>106.8</ele>
        <time>2013-05-26T10:05:00.000Z</time>
      </trkpt>
      <trkpt lat="48.48637" lon="-2.57622">
        <ele>106.2</ele>
        <time>2013-05-26T10:05:01.000Z</time>
      </trkpt>
      <trkpt lat="48.48634" lon="-2.57622">
        <ele>105.1</ele>
        <time>2013-05-26T10:05:02.000Z</time>
      </trkpt>
      <trkpt lat="48.4863" lon="-2.57621">
        <ele>103.4</ele>
        <time>2013-05-26T10:05:03.000Z</time>
      </trkpt>
      <trkpt lat="48.48626" lon="-2.57621">
        <ele>102.4</ele>
        <time>2013-05-26T10:05:04.000Z</time>
      </trkpt>
      <trkpt lat="48.48623" lon="-2.57621">
        <ele>101.6</ele>
        <time>2013-05-26T10:05:05.000Z</time>
      </trkpt>
      <trkpt lat="48.4862" lon="-2.57621">
        <ele>101.2</ele>
        <time>2013-05-26T10:05:06.000Z</time>
      </trkpt>
      <trkpt lat="48.48617" lon="-2.5762">
        <ele>100.9</ele>
        <time>2013-05-26T10:05:07.000Z</time>
      </trkpt>
      <trkpt lat="48.48614" lon="-2.57621">
        <ele>99.8</ele>
        <time>2013-05-26T10:05:08.000Z</time>
      </trkpt>
      <trkpt lat="48.4861" lon="-2.57621">
        <ele>99.2</ele>
        <time>2013-05-26T10:05:09.000Z</time>
      </trkpt>
      <trkpt lat="48.48608" lon="-2.57623">
        <ele>98.2</ele>
        <time>2013-05-26T10:05:10.000Z</time>
      </trkpt>
      <trkpt lat="48.48605" lon="-2.57624">
        <ele>98</ele>
        <time>2013-05-26T10:05:11.000Z</time>
      </trkpt>
      <trkpt lat="48.48603" lon="-2.57624">
        <ele>98.2</ele>
        <time>2013-05-26T10:05:12.000Z</time>
      </trkpt>
      <trkpt lat="48.48601" lon="-2.57624">
        <ele>98.2</ele>
        <time>2013-05-26T10:05:13.000Z</time>
      </trkpt>
      <trkpt lat="48.48597" lon="-2.57625">
        <ele>98.4</ele>
        <time>2013-05-26T10:05:15.000Z</time>
      </trkpt>
      <trkpt lat="48.48596" lon="-2.57626">
        <ele>98.4</ele>
        <time>2013-05-26T10:05:16.000Z</time>
      </trkpt>
      <trkpt lat="48.48592" lon="-2.57627">
        <ele>97.7</ele>
        <time>2013-05-26T10:05:19.000Z</time>
      </trkpt>
      <trkpt lat="48.48567" lon="-2.57637">
        <ele>108.2</ele>
        <time>2013-05-26T10:05:38.000Z</time>
      </trkpt>
      <trkpt lat="48.48561" lon="-2.57637">
        <ele>108.9</ele>
        <time>2013-05-26T10:05:39.000Z</time>
      </trkpt>
      <trkpt lat="48.4856" lon="-2.57639">
        <ele>108.5</ele>
        <time>2013-05-26T10:05:40.000Z</time>
      </trkpt>
      <trkpt lat="48.48555" lon="-2.57638">
        <ele>108.8</ele>
        <time>2013-05-26T10:05:42.000Z</time>
      </trkpt>
      <trkpt lat="48.48552" lon="-2.57635">
        <ele>107.8</ele>
        <time>2013-05-26T10:05:43.000Z</time>
      </trkpt>
      <trkpt lat="48.4855" lon="-2.57634">
        <ele>106.8</ele>
        <time>2013-05-26T10:05:44.000Z</time>
      </trkpt>
      <trkpt lat="48.48546" lon="-2.57632">
        <ele>107.7</ele>
        <time>2013-05-26T10:05:46.000Z</time>
      </trkpt>
      <trkpt lat="48.48545" lon="-2.57632">
        <ele>108.6</ele>
        <time>2013-05-26T10:05:47.000Z</time>
      </trkpt>
      <trkpt lat="48.48541" lon="-2.57631">
        <ele>113.8</ele>
        <time>2013-05-26T10:05:50.000Z</time>
      </trkpt>
      <trkpt lat="48.4854" lon="-2.57631">
        <ele>116.3</ele>
        <time>2013-05-26T10:05:51.000Z</time>
      </trkpt>
      <trkpt lat="48.48537" lon="-2.57635">
        <ele>115.2</ele>
        <time>2013-05-26T10:05:55.000Z</time>
      </trkpt>
      <trkpt lat="48.48536" lon="-2.57637">
        <ele>114.3</ele>
        <time>2013-05-26T10:05:56.000Z</time>
      </trkpt>
      <trkpt lat="48.48534" lon="-2.57642">
        <ele>111.9</ele>
        <time>2013-05-26T10:05:59.000Z</time>
      </trkpt>
      <trkpt lat="48.48534" lon="-2.57644">
        <ele>111.6</ele>
        <time>2013-05-26T10:06:00.000Z</time>
      </trkpt>
      <trkpt lat="48.48531" lon="-2.57649">
        <ele>110.9</ele>
        <time>2013-05-26T10:06:03.000Z</time>
      </trkpt>
      <trkpt lat="48.48531" lon="-2.5765">
        <ele>111.1</ele>
        <time>2013-05-26T10:06:04.000Z</time>
      </trkpt>
      <trkpt lat="48.48527" lon="-2.57652">
        <ele>110.6</ele>
        <time>2013-05-26T10:06:07.000Z</time>
      </trkpt>
      <trkpt lat="48.48526" lon="-2.57653">
        <ele>110.6</ele>
        <time>2013-05-26T10:06:08.000Z</time>
      </trkpt>
      <trkpt lat="48.48524" lon="-2.57657">
        <ele>110.1</ele>
        <time>2013-05-26T10:06:11.000Z</time>
      </trkpt>
      <trkpt lat="48.48525" lon="-2.5766">
        <ele>109.5</ele>
        <time>2013-05-26T10:06:12.000Z</time>
      </trkpt>
      <trkpt lat="48.48523" lon="-2.57665">
        <ele>109.5</ele>
        <time>2013-05-26T10:06:17.000Z</time>
      </trkpt>
      <trkpt lat="48.48522" lon="-2.57666">
        <ele>109.5</ele>
        <time>2013-05-26T10:06:18.000Z</time>
      </trkpt>
      <trkpt lat="48.48521" lon="-2.57666">
        <ele>109.3</ele>
        <time>2013-05-26T10:06:19.000Z</time>
      </trkpt>
      <trkpt lat="48.48519" lon="-2.57678">
        <ele>108.9</ele>
        <time>2013-05-26T10:06:23.000Z</time>
      </trkpt>
      <trkpt lat="48.48519" lon="-2.57686">
        <ele>118.1</ele>
        <time>2013-05-26T10:06:24.000Z</time>
      </trkpt>
      <trkpt lat="48.48516" lon="-2.57691">
        <ele>125.3</ele>
        <time>2013-05-26T10:06:29.000Z</time>
      </trkpt>
      <trkpt lat="48.48514" lon="-2.5769">
        <ele>124.1</ele>
        <time>2013-05-26T10:06:30.000Z</time>
      </trkpt>
      <trkpt lat="48.4851" lon="-2.57692">
        <ele>122.1</ele>
        <time>2013-05-26T10:06:35.000Z</time>
      </trkpt>
      <trkpt lat="48.4851" lon="-2.57694">
        <ele>122</ele>
        <time>2013-05-26T10:06:36.000Z</time>
      </trkpt>
      <trkpt lat="48.48506" lon="-2.57696">
        <ele>119.4</ele>
        <time>2013-05-26T10:06:41.000Z</time>
      </trkpt>
      <trkpt lat="48.48505" lon="-2.57697">
        <ele>118.7</ele>
        <time>2013-05-26T10:06:42.000Z</time>
      </trkpt>
      <trkpt lat="48.485" lon="-2.57698">
        <ele>117.7</ele>
        <time>2013-05-26T10:06:46.000Z</time>
      </trkpt>
      <trkpt lat="48.48499" lon="-2.57699">
        <ele>117.6</ele>
        <time>2013-05-26T10:06:47.000Z</time>
      </trkpt>
      <trkpt lat="48.48496" lon="-2.57701">
        <ele>117.5</ele>
        <time>2013-05-26T10:06:50.000Z</time>
      </trkpt>
      <trkpt lat="48.48495" lon="-2.57701">
        <ele>117.5</ele>
        <time>2013-05-26T10:06:51.000Z</time>
      </trkpt>
      <trkpt lat="48.48491" lon="-2.57703">
        <ele>116.4</ele>
        <time>2013-05-26T10:06:54.000Z</time>
      </trkpt>
      <trkpt lat="48.4849" lon="-2.57702">
        <ele>115.5</ele>
        <time>2013-05-26T10:06:55.000Z</time>
      </trkpt>
      <trkpt lat="48.48487" lon="-2.57703">
        <ele>114.9</ele>
        <time>2013-05-26T10:06:58.000Z</time>
      </trkpt>
      <trkpt lat="48.48486" lon="-2.57703">
        <ele>114.4</ele>
        <time>2013-05-26T10:06:59.000Z</time>
      </trkpt>
      <trkpt lat="48.48481" lon="-2.57704">
        <ele>113.9</ele>
        <time>2013-05-26T10:07:02.000Z</time>
      </trkpt>
      <trkpt lat="48.4848" lon="-2.57705">
        <ele>113.9</ele>
        <time>2013-05-26T10:07:03.000Z</time>
      </trkpt>
      <trkpt lat="48.48476" lon="-2.57705">
        <ele>114.1</ele>
        <time>2013-05-26T10:07:06.000Z</time>
      </trkpt>
      <trkpt lat="48.48475" lon="-2.57705">
        <ele>114.1</ele>
        <time>2013-05-26T10:07:07.000Z</time>
      </trkpt>
      <trkpt lat="48.48471" lon="-2.57704">
        <ele>114.3</ele>
        <time>2013-05-26T10:07:10.000Z</time>
      </trkpt>
      <trkpt lat="48.4847" lon="-2.57703">
        <ele>114.2</ele>
        <time>2013-05-26T10:07:11.000Z</time>
      </trkpt>
      <trkpt lat="48.48467" lon="-2.57701">
        <ele>114.5</ele>
        <time>2013-05-26T10:07:15.000Z</time>
      </trkpt>
      <trkpt lat="48.48466" lon="-2.577">
        <ele>114.8</ele>
        <time>2013-05-26T10:07:16.000Z</time>
      </trkpt>
      <trkpt lat="48.48462" lon="-2.57699">
        <ele>114.5</ele>
        <time>2013-05-26T10:07:19.000Z</time>
      </trkpt>
      <trkpt lat="48.48456" lon="-2.57697">
        <ele>128.3</ele>
        <time>2013-05-26T10:07:40.000Z</time>
      </trkpt>
      <trkpt lat="48.4845" lon="-2.57699">
        <ele>122.7</ele>
        <time>2013-05-26T10:07:41.000Z</time>
      </trkpt>
      <trkpt lat="48.48443" lon="-2.57703">
        <ele>118.5</ele>
        <time>2013-05-26T10:07:43.000Z</time>
      </trkpt>
      <trkpt lat="48.4844" lon="-2.57704">
        <ele>116.8</ele>
        <time>2013-05-26T10:07:44.000Z</time>
      </trkpt>
      <trkpt lat="48.48439" lon="-2.57706">
        <ele>116.3</ele>
        <time>2013-05-26T10:07:45.000Z</time>
      </trkpt>
      <trkpt lat="48.48436" lon="-2.57708">
        <ele>115.9</ele>
        <time>2013-05-26T10:07:46.000Z</time>
      </trkpt>
      <trkpt lat="48.48434" lon="-2.57708">
        <ele>116</ele>
        <time>2013-05-26T10:07:47.000Z</time>
      </trkpt>
      <trkpt lat="48.48431" lon="-2.57709">
        <ele>116</ele>
        <time>2013-05-26T10:07:48.000Z</time>
      </trkpt>
      <trkpt lat="48.48429" lon="-2.5771">
        <ele>116.5</ele>
        <time>2013-05-26T10:07:49.000Z</time>
      </trkpt>
      <trkpt lat="48.48425" lon="-2.57711">
        <ele>116</ele>
        <time>2013-05-26T10:07:50.000Z</time>
      </trkpt>
      <trkpt lat="48.48422" lon="-2.57712">
        <ele>115.7</ele>
        <time>2013-05-26T10:07:51.000Z</time>
      </trkpt>
      <trkpt lat="48.4842" lon="-2.57714">
        <ele>115.6</ele>
        <time>2013-05-26T10:07:52.000Z</time>
      </trkpt>
      <trkpt lat="48.48418" lon="-2.57715">
        <ele>115.5</ele>
        <time>2013-05-26T10:07:53.000Z</time>
      </trkpt>
      <trkpt lat="48.48416" lon="-2.57718">
        <ele>116.1</ele>
        <time>2013-05-26T10:07:54.000Z</time>
      </trkpt>
      <trkpt lat="48.48414" lon="-2.5772">
        <ele>116.4</ele>
        <time>2013-05-26T10:07:55.000Z</time>
      </trkpt>
      <trkpt lat="48.48411" lon="-2.57723">
        <ele>117.1</ele>
        <time>2013-05-26T10:07:57.000Z</time>
      </trkpt>
      <trkpt lat="48.48409" lon="-2.57725">
        <ele>117.5</ele>
        <time>2013-05-26T10:07:58.000Z</time>
      </trkpt>
      <trkpt lat="48.48406" lon="-2.57727">
        <ele>116.9</ele>
        <time>2013-05-26T10:07:59.000Z</time>
      </trkpt>
      <trkpt lat="48.48404" lon="-2.57728">
        <ele>116.2</ele>
        <time>2013-05-26T10:08:00.000Z</time>
      </trkpt>
      <trkpt lat="48.48402" lon="-2.57729">
        <ele>115.4</ele>
        <time>2013-05-26T10:08:01.000Z</time>
      </trkpt>
      <trkpt lat="48.484" lon="-2.57731">
        <ele>115.3</ele>
        <time>2013-05-26T10:08:02.000Z</time>
      </trkpt>
      <trkpt lat="48.48397" lon="-2.57733">
        <ele>115.6</ele>
        <time>2013-05-26T10:08:03.000Z</time>
      </trkpt>
      <trkpt lat="48.48395" lon="-2.57734">
        <ele>115.4</ele>
        <time>2013-05-26T10:08:04.000Z</time>
      </trkpt>
      <trkpt lat="48.48392" lon="-2.57735">
        <ele>115.3</ele>
        <time>2013-05-26T10:08:05.000Z</time>
      </trkpt>
      <trkpt lat="48.4839" lon="-2.57736">
        <ele>114.8</ele>
        <time>2013-05-26T10:08:06.000Z</time>
      </trkpt>
      <trkpt lat="48.48387" lon="-2.57736">
        <ele>114.8</ele>
        <time>2013-05-26T10:08:07.000Z</time>
      </trkpt>
      <trkpt lat="48.48385" lon="-2.57737">
        <ele>115.2</ele>
        <time>2013-05-26T10:08:08.000Z</time>
      </trkpt>
      <trkpt lat="48.48382" lon="-2.57738">
        <ele>116</ele>
        <time>2013-05-26T10:08:09.000Z</time>
      </trkpt>
      <trkpt lat="48.4838" lon="-2.57739">
        <ele>116.4</ele>
        <time>2013-05-26T10:08:10.000Z</time>
      </trkpt>
      <trkpt lat="48.48378" lon="-2.5774">
        <ele>116.9</ele>
        <time>2013-05-26T10:08:11.000Z</time>
      </trkpt>
      <trkpt lat="48.48375" lon="-2.57742">
        <ele>117.3</ele>
        <time>2013-05-26T10:08:12.000Z</time>
      </trkpt>
      <trkpt lat="48.48372" lon="-2.57743">
        <ele>117.5</ele>
        <time>2013-05-26T10:08:13.000Z</time>
      </trkpt>
      <trkpt lat="48.48369" lon="-2.57746">
        <ele>118.4</ele>
        <time>2013-05-26T10:08:14.000Z</time>
      </trkpt>
      <trkpt lat="48.48368" lon="-2.57749">
        <ele>118.6</ele>
        <time>2013-05-26T10:08:15.000Z</time>
      </trkpt>
      <trkpt lat="48.48368" lon="-2.57754">
        <ele>118.9</ele>
        <time>2013-05-26T10:08:16.000Z</time>
      </trkpt>
      <trkpt lat="48.48369" lon="-2.57759">
        <ele>119.4</ele>
        <time>2013-05-26T10:08:17.000Z</time>
      </trkpt>
      <trkpt lat="48.4837" lon="-2.57766">
        <ele>119</ele>
        <time>2013-05-26T10:08:18.000Z</time>
      </trkpt>
      <trkpt lat="48.48371" lon="-2.57772">
        <ele>119.1</ele>
        <time>2013-05-26T10:08:19.000Z</time>
      </trkpt>
      <trkpt lat="48.48382" lon="-2.57808">
        <ele>122</ele>
        <time>2013-05-26T10:08:23.000Z</time>
      </trkpt>
      <trkpt lat="48.48382" lon="-2.57815">
        <ele>124.6</ele>
        <time>2013-05-26T10:08:24.000Z</time>
      </trkpt>
      <trkpt lat="48.48384" lon="-2.57824">
        <ele>125.7</ele>
        <time>2013-05-26T10:08:25.000Z</time>
      </trkpt>
      <trkpt lat="48.48385" lon="-2.57832">
        <ele>124.6</ele>
        <time>2013-05-26T10:08:27.000Z</time>
      </trkpt>
      <trkpt lat="48.48386" lon="-2.57839">
        <ele>124.1</ele>
        <time>2013-05-26T10:08:28.000Z</time>
      </trkpt>
      <trkpt lat="48.48388" lon="-2.57846">
        <ele>123.7</ele>
        <time>2013-05-26T10:08:29.000Z</time>
      </trkpt>
      <trkpt lat="48.4839" lon="-2.57853">
        <ele>123.1</ele>
        <time>2013-05-26T10:08:30.000Z</time>
      </trkpt>
      <trkpt lat="48.48392" lon="-2.57858">
        <ele>120.9</ele>
        <time>2013-05-26T10:08:31.000Z</time>
      </trkpt>
      <trkpt lat="48.48394" lon="-2.57865">
        <ele>120.6</ele>
        <time>2013-05-26T10:08:32.000Z</time>
      </trkpt>
      <trkpt lat="48.48395" lon="-2.57871">
        <ele>119.8</ele>
        <time>2013-05-26T10:08:33.000Z</time>
      </trkpt>
      <trkpt lat="48.48397" lon="-2.57877">
        <ele>119.4</ele>
        <time>2013-05-26T10:08:34.000Z</time>
      </trkpt>
      <trkpt lat="48.48398" lon="-2.57884">
        <ele>119.3</ele>
        <time>2013-05-26T10:08:35.000Z</time>
      </trkpt>
      <trkpt lat="48.484" lon="-2.57891">
        <ele>119.4</ele>
        <time>2013-05-26T10:08:36.000Z</time>
      </trkpt>
      <trkpt lat="48.48402" lon="-2.57898">
        <ele>119.2</ele>
        <time>2013-05-26T10:08:37.000Z</time>
      </trkpt>
      <trkpt lat="48.48403" lon="-2.57905">
        <ele>119.2</ele>
        <time>2013-05-26T10:08:38.000Z</time>
      </trkpt>
      <trkpt lat="48.48405" lon="-2.57912">
        <ele>119.6</ele>
        <time>2013-05-26T10:08:39.000Z</time>
      </trkpt>
      <trkpt lat="48.48406" lon="-2.57919">
        <ele>119.7</ele>
        <time>2013-05-26T10:08:40.000Z</time>
      </trkpt>
      <trkpt lat="48.48408" lon="-2.57926">
        <ele>119.9</ele>
        <time>2013-05-26T10:08:41.000Z</time>
      </trkpt>
      <trkpt lat="48.4841" lon="-2.57933">
        <ele>119.6</ele>
        <time>2013-05-26T10:08:42.000Z</time>
      </trkpt>
      <trkpt lat="48.48411" lon="-2.5794">
        <ele>119.3</ele>
        <time>2013-05-26T10:08:43.000Z</time>
      </trkpt>
      <trkpt lat="48.48413" lon="-2.57947">
        <ele>119.2</ele>
        <time>2013-05-26T10:08:44.000Z</time>
      </trkpt>
      <trkpt lat="48.48415" lon="-2.57954">
        <ele>119</ele>
        <time>2013-05-26T10:08:45.000Z</time>
      </trkpt>
      <trkpt lat="48.48416" lon="-2.57961">
        <ele>119.1</ele>
        <time>2013-05-26T10:08:46.000Z</time>
      </trkpt>
      <trkpt lat="48.48418" lon="-2.57968">
        <ele>119.3</ele>
        <time>2013-05-26T10:08:47.000Z</time>
      </trkpt>
      <trkpt lat="48.48419" lon="-2.57976">
        <ele>119.1</ele>
        <time>2013-05-26T10:08:48.000Z</time>
      </trkpt>
      <trkpt lat="48.48421" lon="-2.57983">
        <ele>118.8</ele>
        <time>2013-05-26T10:08:49.000Z</time>
      </trkpt>
      <trkpt lat="48.48422" lon="-2.5799">
        <ele>118.7</ele>
        <time>2013-05-26T10:08:50.000Z</time>
      </trkpt>
      <trkpt lat="48.48423" lon="-2.57997">
        <ele>119</ele>
        <time>2013-05-26T10:08:51.000Z</time>
      </trkpt>
      <trkpt lat="48.48425" lon="-2.58004">
        <ele>119.1</ele>
        <time>2013-05-26T10:08:52.000Z</time>
      </trkpt>
      <trkpt lat="48.48427" lon="-2.58011">
        <ele>119.3</ele>
        <time>2013-05-26T10:08:53.000Z</time>
      </trkpt>
      <trkpt lat="48.48428" lon="-2.58019">
        <ele>119.3</ele>
        <time>2013-05-26T10:08:54.000Z</time>
      </trkpt>
      <trkpt lat="48.4843" lon="-2.58026">
        <ele>119</ele>
        <time>2013-05-26T10:08:55.000Z</time>
      </trkpt>
      <trkpt lat="48.48432" lon="-2.58033">
        <ele>119.6</ele>
        <time>2013-05-26T10:08:56.000Z</time>
      </trkpt>
      <trkpt lat="48.48433" lon="-2.5804">
        <ele>119.8</ele>
        <time>2013-05-26T10:08:57.000Z</time>
      </trkpt>
      <trkpt lat="48.48435" lon="-2.58047">
        <ele>119.9</ele>
        <time>2013-05-26T10:08:58.000Z</time>
      </trkpt>
      <trkpt lat="48.48437" lon="-2.58054">
        <ele>120.1</ele>
        <time>2013-05-26T10:08:59.000Z</time>
      </trkpt>
      <trkpt lat="48.48438" lon="-2.58062">
        <ele>120.3</ele>
        <time>2013-05-26T10:09:00.000Z</time>
      </trkpt>
      <trkpt lat="48.4844" lon="-2.58068">
        <ele>120.4</ele>
        <time>2013-05-26T10:09:01.000Z</time>
      </trkpt>
      <trkpt lat="48.48442" lon="-2.58076">
        <ele>120.5</ele>
        <time>2013-05-26T10:09:02.000Z</time>
      </trkpt>
      <trkpt lat="48.48445" lon="-2.58083">
        <ele>120.7</ele>
        <time>2013-05-26T10:09:03.000Z</time>
      </trkpt>
      <trkpt lat="48.48447" lon="-2.5809">
        <ele>120.8</ele>
        <time>2013-05-26T10:09:04.000Z</time>
      </trkpt>
      <trkpt lat="48.48449" lon="-2.58096">
        <ele>121</ele>
        <time>2013-05-26T10:09:05.000Z</time>
      </trkpt>
      <trkpt lat="48.48452" lon="-2.58102">
        <ele>121.3</ele>
        <time>2013-05-26T10:09:06.000Z</time>
      </trkpt>
      <trkpt lat="48.48455" lon="-2.58108">
        <ele>121.6</ele>
        <time>2013-05-26T10:09:07.000Z</time>
      </trkpt>
      <trkpt lat="48.48457" lon="-2.58114">
        <ele>121.7</ele>
        <time>2013-05-26T10:09:08.000Z</time>
      </trkpt>
      <trkpt lat="48.4846" lon="-2.5812">
        <ele>121.9</ele>
        <time>2013-05-26T10:09:09.000Z</time>
      </trkpt>
      <trkpt lat="48.48463" lon="-2.58126">
        <ele>122</ele>
        <time>2013-05-26T10:09:10.000Z</time>
      </trkpt>
      <trkpt lat="48.48465" lon="-2.58133">
        <ele>121.9</ele>
        <time>2013-05-26T10:09:11.000Z</time>
      </trkpt>
      <trkpt lat="48.48468" lon="-2.58139">
        <ele>121.9</ele>
        <time>2013-05-26T10:09:12.000Z</time>
      </trkpt>
      <trkpt lat="48.48471" lon="-2.58146">
        <ele>122</ele>
        <time>2013-05-26T10:09:13.000Z</time>
      </trkpt>
      <trkpt lat="48.48473" lon="-2.58152">
        <ele>122</ele>
        <time>2013-05-26T10:09:14.000Z</time>
      </trkpt>
      <trkpt lat="48.48476" lon="-2.58158">
        <ele>121.9</ele>
        <time>2013-05-26T10:09:15.000Z</time>
      </trkpt>
      <trkpt lat="48.48479" lon="-2.58164">
        <ele>122</ele>
        <time>2013-05-26T10:09:16.000Z</time>
      </trkpt>
      <trkpt lat="48.48482" lon="-2.5817">
        <ele>121.8</ele>
        <time>2013-05-26T10:09:17.000Z</time>
      </trkpt>
      <trkpt lat="48.48485" lon="-2.58176">
        <ele>121.8</ele>
        <time>2013-05-26T10:09:18.000Z</time>
      </trkpt>
      <trkpt lat="48.48488" lon="-2.58182">
        <ele>121.8</ele>
        <time>2013-05-26T10:09:19.000Z</time>
      </trkpt>
      <trkpt lat="48.48504" lon="-2.58207">
        <ele>125.9</ele>
        <time>2013-05-26T10:09:23.000Z</time>
      </trkpt>
      <trkpt lat="48.48507" lon="-2.58216">
        <ele>125.2</ele>
        <time>2013-05-26T10:09:24.000Z</time>
      </trkpt>
      <trkpt lat="48.48509" lon="-2.5822">
        <ele>126.4</ele>
        <time>2013-05-26T10:09:25.000Z</time>
      </trkpt>
      <trkpt lat="48.48512" lon="-2.58227">
        <ele>125.3</ele>
        <time>2013-05-26T10:09:26.000Z</time>
      </trkpt>
      <trkpt lat="48.48514" lon="-2.58234">
        <ele>124.1</ele>
        <time>2013-05-26T10:09:27.000Z</time>
      </trkpt>
      <trkpt lat="48.48517" lon="-2.58239">
        <ele>125.7</ele>
        <time>2013-05-26T10:09:28.000Z</time>
      </trkpt>
      <trkpt lat="48.4852" lon="-2.58245">
        <ele>125.2</ele>
        <time>2013-05-26T10:09:29.000Z</time>
      </trkpt>
      <trkpt lat="48.48522" lon="-2.58251">
        <ele>124.6</ele>
        <time>2013-05-26T10:09:30.000Z</time>
      </trkpt>
      <trkpt lat="48.48525" lon="-2.58257">
        <ele>124.2</ele>
        <time>2013-05-26T10:09:31.000Z</time>
      </trkpt>
      <trkpt lat="48.48528" lon="-2.58264">
        <ele>123.8</ele>
        <time>2013-05-26T10:09:32.000Z</time>
      </trkpt>
      <trkpt lat="48.4853" lon="-2.58271">
        <ele>122.8</ele>
        <time>2013-05-26T10:09:33.000Z</time>
      </trkpt>
      <trkpt lat="48.48533" lon="-2.58277">
        <ele>122.7</ele>
        <time>2013-05-26T10:09:34.000Z</time>
      </trkpt>
      <trkpt lat="48.48536" lon="-2.58283">
        <ele>122.8</ele>
        <time>2013-05-26T10:09:35.000Z</time>
      </trkpt>
      <trkpt lat="48.48539" lon="-2.5829">
        <ele>123</ele>
        <time>2013-05-26T10:09:36.000Z</time>
      </trkpt>
      <trkpt lat="48.48541" lon="-2.58296">
        <ele>122.8</ele>
        <time>2013-05-26T10:09:37.000Z</time>
      </trkpt>
      <trkpt lat="48.48544" lon="-2.58303">
        <ele>122.8</ele>
        <time>2013-05-26T10:09:38.000Z</time>
      </trkpt>
      <trkpt lat="48.48547" lon="-2.58309">
        <ele>122.8</ele>
        <time>2013-05-26T10:09:39.000Z</time>
      </trkpt>
      <trkpt lat="48.4855" lon="-2.58316">
        <ele>122.9</ele>
        <time>2013-05-26T10:09:40.000Z</time>
      </trkpt>
      <trkpt lat="48.48553" lon="-2.58323">
        <ele>123</ele>
        <time>2013-05-26T10:09:41.000Z</time>
      </trkpt>
      <trkpt lat="48.48556" lon="-2.5833">
        <ele>123.1</ele>
        <time>2013-05-26T10:09:42.000Z</time>
      </trkpt>
      <trkpt lat="48.48559" lon="-2.58337">
        <ele>123.1</ele>
        <time>2013-05-26T10:09:43.000Z</time>
      </trkpt>
      <trkpt lat="48.48562" lon="-2.58345">
        <ele>123.3</ele>
        <time>2013-05-26T10:09:44.000Z</time>
      </trkpt>
      <trkpt lat="48.48565" lon="-2.58352">
        <ele>123.4</ele>
        <time>2013-05-26T10:09:45.000Z</time>
      </trkpt>
      <trkpt lat="48.48569" lon="-2.58359">
        <ele>123.5</ele>
        <time>2013-05-26T10:09:46.000Z</time>
      </trkpt>
      <trkpt lat="48.48572" lon="-2.58366">
        <ele>123.6</ele>
        <time>2013-05-26T10:09:47.000Z</time>
      </trkpt>
      <trkpt lat="48.48575" lon="-2.58373">
        <ele>123.5</ele>
        <time>2013-05-26T10:09:48.000Z</time>
      </trkpt>
      <trkpt lat="48.48578" lon="-2.58379">
        <ele>123.8</ele>
        <time>2013-05-26T10:09:49.000Z</time>
      </trkpt>
      <trkpt lat="48.48581" lon="-2.58385">
        <ele>124.1</ele>
        <time>2013-05-26T10:09:50.000Z</time>
      </trkpt>
      <trkpt lat="48.48585" lon="-2.58391">
        <ele>124.5</ele>
        <time>2013-05-26T10:09:51.000Z</time>
      </trkpt>
      <trkpt lat="48.48589" lon="-2.58394">
        <ele>124.8</ele>
        <time>2013-05-26T10:09:52.000Z</time>
      </trkpt>
      <trkpt lat="48.48594" lon="-2.58396">
        <ele>125.3</ele>
        <time>2013-05-26T10:09:53.000Z</time>
      </trkpt>
      <trkpt lat="48.48599" lon="-2.58395">
        <ele>125.8</ele>
        <time>2013-05-26T10:09:54.000Z</time>
      </trkpt>
      <trkpt lat="48.48604" lon="-2.58391">
        <ele>126.2</ele>
        <time>2013-05-26T10:09:55.000Z</time>
      </trkpt>
      <trkpt lat="48.48608" lon="-2.58386">
        <ele>126.9</ele>
        <time>2013-05-26T10:09:56.000Z</time>
      </trkpt>
      <trkpt lat="48.48612" lon="-2.5838">
        <ele>127.4</ele>
        <time>2013-05-26T10:09:57.000Z</time>
      </trkpt>
      <trkpt lat="48.48616" lon="-2.58374">
        <ele>127.8</ele>
        <time>2013-05-26T10:09:58.000Z</time>
      </trkpt>
      <trkpt lat="48.48619" lon="-2.58368">
        <ele>128.3</ele>
        <time>2013-05-26T10:09:59.000Z</time>
      </trkpt>
      <trkpt lat="48.48623" lon="-2.58362">
        <ele>128.7</ele>
        <time>2013-05-26T10:10:00.000Z</time>
      </trkpt>
      <trkpt lat="48.48627" lon="-2.58356">
        <ele>128.9</ele>
        <time>2013-05-26T10:10:01.000Z</time>
      </trkpt>
      <trkpt lat="48.4863" lon="-2.5835">
        <ele>129.5</ele>
        <time>2013-05-26T10:10:02.000Z</time>
      </trkpt>
      <trkpt lat="48.48634" lon="-2.58344">
        <ele>129.6</ele>
        <time>2013-05-26T10:10:03.000Z</time>
      </trkpt>
      <trkpt lat="48.48638" lon="-2.58337">
        <ele>129.3</ele>
        <time>2013-05-26T10:10:04.000Z</time>
      </trkpt>
      <trkpt lat="48.48642" lon="-2.5833">
        <ele>129</ele>
        <time>2013-05-26T10:10:05.000Z</time>
      </trkpt>
      <trkpt lat="48.48647" lon="-2.58324">
        <ele>128.8</ele>
        <time>2013-05-26T10:10:06.000Z</time>
      </trkpt>
      <trkpt lat="48.48651" lon="-2.58318">
        <ele>128.7</ele>
        <time>2013-05-26T10:10:07.000Z</time>
      </trkpt>
      <trkpt lat="48.48655" lon="-2.58312">
        <ele>128.6</ele>
        <time>2013-05-26T10:10:08.000Z</time>
      </trkpt>
      <trkpt lat="48.48659" lon="-2.58307">
        <ele>128.6</ele>
        <time>2013-05-26T10:10:09.000Z</time>
      </trkpt>
      <trkpt lat="48.48663" lon="-2.58304">
        <ele>128.9</ele>
        <time>2013-05-26T10:10:10.000Z</time>
      </trkpt>
      <trkpt lat="48.48669" lon="-2.58302">
        <ele>129</ele>
        <time>2013-05-26T10:10:11.000Z</time>
      </trkpt>
      <trkpt lat="48.48674" lon="-2.58303">
        <ele>129</ele>
        <time>2013-05-26T10:10:12.000Z</time>
      </trkpt>
      <trkpt lat="48.48679" lon="-2.58305">
        <ele>129</ele>
        <time>2013-05-26T10:10:13.000Z</time>
      </trkpt>
      <trkpt lat="48.48684" lon="-2.5831">
        <ele>129</ele>
        <time>2013-05-26T10:10:14.000Z</time>
      </trkpt>
      <trkpt lat="48.48688" lon="-2.58317">
        <ele>128.8</ele>
        <time>2013-05-26T10:10:15.000Z</time>
      </trkpt>
      <trkpt lat="48.48691" lon="-2.58323">
        <ele>128.5</ele>
        <time>2013-05-26T10:10:16.000Z</time>
      </trkpt>
      <trkpt lat="48.48694" lon="-2.58331">
        <ele>128.4</ele>
        <time>2013-05-26T10:10:17.000Z</time>
      </trkpt>
      <trkpt lat="48.48697" lon="-2.58338">
        <ele>128.5</ele>
        <time>2013-05-26T10:10:18.000Z</time>
      </trkpt>
      <trkpt lat="48.487" lon="-2.58346">
        <ele>128.4</ele>
        <time>2013-05-26T10:10:19.000Z</time>
      </trkpt>
      <trkpt lat="48.4871" lon="-2.58395">
        <ele>118.6</ele>
        <time>2013-05-26T10:10:24.000Z</time>
      </trkpt>
      <trkpt lat="48.48709" lon="-2.58405">
        <ele>127.5</ele>
        <time>2013-05-26T10:10:25.000Z</time>
      </trkpt>
      <trkpt lat="48.48712" lon="-2.58419">
        <ele>124.6</ele>
        <time>2013-05-26T10:10:27.000Z</time>
      </trkpt>
      <trkpt lat="48.48715" lon="-2.58425">
        <ele>126.6</ele>
        <time>2013-05-26T10:10:28.000Z</time>
      </trkpt>
      <trkpt lat="48.48719" lon="-2.58431">
        <ele>128.4</ele>
        <time>2013-05-26T10:10:29.000Z</time>
      </trkpt>
      <trkpt lat="48.48724" lon="-2.58437">
        <ele>128.7</ele>
        <time>2013-05-26T10:10:30.000Z</time>
      </trkpt>
      <trkpt lat="48.48729" lon="-2.58443">
        <ele>128.2</ele>
        <time>2013-05-26T10:10:31.000Z</time>
      </trkpt>
      <trkpt lat="48.48734" lon="-2.58448">
        <ele>127</ele>
        <time>2013-05-26T10:10:32.000Z</time>
      </trkpt>
      <trkpt lat="48.48739" lon="-2.58451">
        <ele>126.1</ele>
        <time>2013-05-26T10:10:33.000Z</time>
      </trkpt>
      <trkpt lat="48.48744" lon="-2.58455">
        <ele>126.3</ele>
        <time>2013-05-26T10:10:34.000Z</time>
      </trkpt>
      <trkpt lat="48.4875" lon="-2.58458">
        <ele>125.8</ele>
        <time>2013-05-26T10:10:35.000Z</time>
      </trkpt>
      <trkpt lat="48.48755" lon="-2.58462">
        <ele>126.4</ele>
        <time>2013-05-26T10:10:36.000Z</time>
      </trkpt>
      <trkpt lat="48.48761" lon="-2.58465">
        <ele>127.7</ele>
        <time>2013-05-26T10:10:37.000Z</time>
      </trkpt>
      <trkpt lat="48.48766" lon="-2.58469">
        <ele>128.4</ele>
        <time>2013-05-26T10:10:38.000Z</time>
      </trkpt>
      <trkpt lat="48.48771" lon="-2.58472">
        <ele>128.6</ele>
        <time>2013-05-26T10:10:39.000Z</time>
      </trkpt>
      <trkpt lat="48.48776" lon="-2.58476">
        <ele>128.3</ele>
        <time>2013-05-26T10:10:40.000Z</time>
      </trkpt>
      <trkpt lat="48.48781" lon="-2.5848">
        <ele>128.5</ele>
        <time>2013-05-26T10:10:41.000Z</time>
      </trkpt>
      <trkpt lat="48.48786" lon="-2.58483">
        <ele>128.8</ele>
        <time>2013-05-26T10:10:42.000Z</time>
      </trkpt>
      <trkpt lat="48.48791" lon="-2.58487">
        <ele>129.6</ele>
        <time>2013-05-26T10:10:43.000Z</time>
      </trkpt>
      <trkpt lat="48.48795" lon="-2.58489">
        <ele>131.4</ele>
        <time>2013-05-26T10:10:44.000Z</time>
      </trkpt>
      <trkpt lat="48.488" lon="-2.5849">
        <ele>133.3</ele>
        <time>2013-05-26T10:10:45.000Z</time>
      </trkpt>
      <trkpt lat="48.48804" lon="-2.58489">
        <ele>133.8</ele>
        <time>2013-05-26T10:10:46.000Z</time>
      </trkpt>
      <trkpt lat="48.48807" lon="-2.58486">
        <ele>134</ele>
        <time>2013-05-26T10:10:47.000Z</time>
      </trkpt>
      <trkpt lat="48.48811" lon="-2.58482">
        <ele>134.5</ele>
        <time>2013-05-26T10:10:48.000Z</time>
      </trkpt>
      <trkpt lat="48.48814" lon="-2.58478">
        <ele>135.3</ele>
        <time>2013-05-26T10:10:49.000Z</time>
      </trkpt>
      <trkpt lat="48.48818" lon="-2.58476">
        <ele>136</ele>
        <time>2013-05-26T10:10:50.000Z</time>
      </trkpt>
      <trkpt lat="48.48823" lon="-2.58478">
        <ele>136.6</ele>
        <time>2013-05-26T10:10:51.000Z</time>
      </trkpt>
      <trkpt lat="48.48828" lon="-2.58481">
        <ele>137.2</ele>
        <time>2013-05-26T10:10:52.000Z</time>
      </trkpt>
      <trkpt lat="48.48833" lon="-2.58484">
        <ele>136.4</ele>
        <time>2013-05-26T10:10:53.000Z</time>
      </trkpt>
      <trkpt lat="48.48838" lon="-2.58487">
        <ele>136.3</ele>
        <time>2013-05-26T10:10:54.000Z</time>
      </trkpt>
      <trkpt lat="48.48843" lon="-2.58491">
        <ele>135.9</ele>
        <time>2013-05-26T10:10:55.000Z</time>
      </trkpt>
      <trkpt lat="48.48847" lon="-2.58495">
        <ele>135.6</ele>
        <time>2013-05-26T10:10:56.000Z</time>
      </trkpt>
      <trkpt lat="48.48853" lon="-2.58498">
        <ele>135.2</ele>
        <time>2013-05-26T10:10:57.000Z</time>
      </trkpt>
      <trkpt lat="48.48858" lon="-2.58502">
        <ele>135</ele>
        <time>2013-05-26T10:10:58.000Z</time>
      </trkpt>
      <trkpt lat="48.48863" lon="-2.58505">
        <ele>134.9</ele>
        <time>2013-05-26T10:10:59.000Z</time>
      </trkpt>
      <trkpt lat="48.48869" lon="-2.58508">
        <ele>134.7</ele>
        <time>2013-05-26T10:11:00.000Z</time>
      </trkpt>
      <trkpt lat="48.48875" lon="-2.58511">
        <ele>134.7</ele>
        <time>2013-05-26T10:11:01.000Z</time>
      </trkpt>
      <trkpt lat="48.4888" lon="-2.58514">
        <ele>134.7</ele>
        <time>2013-05-26T10:11:02.000Z</time>
      </trkpt>
      <trkpt lat="48.48886" lon="-2.58517">
        <ele>134.2</ele>
        <time>2013-05-26T10:11:03.000Z</time>
      </trkpt>
      <trkpt lat="48.48892" lon="-2.58519">
        <ele>133.6</ele>
        <time>2013-05-26T10:11:04.000Z</time>
      </trkpt>
      <trkpt lat="48.48898" lon="-2.58521">
        <ele>133.2</ele>
        <time>2013-05-26T10:11:05.000Z</time>
      </trkpt>
      <trkpt lat="48.48904" lon="-2.58523">
        <ele>133.3</ele>
        <time>2013-05-26T10:11:06.000Z</time>
      </trkpt>
      <trkpt lat="48.4891" lon="-2.58523">
        <ele>133</ele>
        <time>2013-05-26T10:11:07.000Z</time>
      </trkpt>
      <trkpt lat="48.48916" lon="-2.58523">
        <ele>132.8</ele>
        <time>2013-05-26T10:11:08.000Z</time>
      </trkpt>
      <trkpt lat="48.48922" lon="-2.58523">
        <ele>132.7</ele>
        <time>2013-05-26T10:11:09.000Z</time>
      </trkpt>
      <trkpt lat="48.48929" lon="-2.58523">
        <ele>132.8</ele>
        <time>2013-05-26T10:11:10.000Z</time>
      </trkpt>
      <trkpt lat="48.48935" lon="-2.58523">
        <ele>133</ele>
        <time>2013-05-26T10:11:11.000Z</time>
      </trkpt>
      <trkpt lat="48.48941" lon="-2.58524">
        <ele>133.4</ele>
        <time>2013-05-26T10:11:12.000Z</time>
      </trkpt>
      <trkpt lat="48.48947" lon="-2.58524">
        <ele>133.6</ele>
        <time>2013-05-26T10:11:13.000Z</time>
      </trkpt>
      <trkpt lat="48.48953" lon="-2.58524">
        <ele>133.7</ele>
        <time>2013-05-26T10:11:14.000Z</time>
      </trkpt>
      <trkpt lat="48.48959" lon="-2.58526">
        <ele>133.7</ele>
        <time>2013-05-26T10:11:15.000Z</time>
      </trkpt>
      <trkpt lat="48.48965" lon="-2.58528">
        <ele>133.7</ele>
        <time>2013-05-26T10:11:16.000Z</time>
      </trkpt>
      <trkpt lat="48.48971" lon="-2.58531">
        <ele>133.3</ele>
        <time>2013-05-26T10:11:17.000Z</time>
      </trkpt>
      <trkpt lat="48.48977" lon="-2.58534">
        <ele>132.9</ele>
        <time>2013-05-26T10:11:18.000Z</time>
      </trkpt>
      <trkpt lat="48.48982" lon="-2.58539">
        <ele>132.7</ele>
        <time>2013-05-26T10:11:19.000Z</time>
      </trkpt>
      <trkpt lat="48.49011" lon="-2.58568">
        <ele>120.9</ele>
        <time>2013-05-26T10:11:23.000Z</time>
      </trkpt>
      <trkpt lat="48.49019" lon="-2.58579">
        <ele>124</ele>
        <time>2013-05-26T10:11:24.000Z</time>
      </trkpt>
      <trkpt lat="48.49022" lon="-2.58583">
        <ele>123.6</ele>
        <time>2013-05-26T10:11:26.000Z</time>
      </trkpt>
      <trkpt lat="48.49025" lon="-2.58588">
        <ele>123.1</ele>
        <time>2013-05-26T10:11:27.000Z</time>
      </trkpt>
      <trkpt lat="48.49029" lon="-2.58593">
        <ele>123.5</ele>
        <time>2013-05-26T10:11:28.000Z</time>
      </trkpt>
      <trkpt lat="48.49033" lon="-2.58601">
        <ele>122.7</ele>
        <time>2013-05-26T10:11:29.000Z</time>
      </trkpt>
      <trkpt lat="48.49036" lon="-2.58609">
        <ele>123</ele>
        <time>2013-05-26T10:11:30.000Z</time>
      </trkpt>
      <trkpt lat="48.49039" lon="-2.58617">
        <ele>123</ele>
        <time>2013-05-26T10:11:31.000Z</time>
      </trkpt>
      <trkpt lat="48.49043" lon="-2.58624">
        <ele>123.1</ele>
        <time>2013-05-26T10:11:32.000Z</time>
      </trkpt>
      <trkpt lat="48.49046" lon="-2.58633">
        <ele>123.3</ele>
        <time>2013-05-26T10:11:33.000Z</time>
      </trkpt>
      <trkpt lat="48.49049" lon="-2.5864">
        <ele>123.9</ele>
        <time>2013-05-26T10:11:34.000Z</time>
      </trkpt>
      <trkpt lat="48.49052" lon="-2.58648">
        <ele>124.3</ele>
        <time>2013-05-26T10:11:35.000Z</time>
      </trkpt>
      <trkpt lat="48.49055" lon="-2.58656">
        <ele>124.3</ele>
        <time>2013-05-26T10:11:36.000Z</time>
      </trkpt>
      <trkpt lat="48.49058" lon="-2.58664">
        <ele>125.3</ele>
        <time>2013-05-26T10:11:37.000Z</time>
      </trkpt>
      <trkpt lat="48.49062" lon="-2.58672">
        <ele>125.2</ele>
        <time>2013-05-26T10:11:38.000Z</time>
      </trkpt>
      <trkpt lat="48.49065" lon="-2.58679">
        <ele>125.3</ele>
        <time>2013-05-26T10:11:39.000Z</time>
      </trkpt>
      <trkpt lat="48.49068" lon="-2.58687">
        <ele>124.5</ele>
        <time>2013-05-26T10:11:40.000Z</time>
      </trkpt>
      <trkpt lat="48.49071" lon="-2.58695">
        <ele>124.2</ele>
        <time>2013-05-26T10:11:41.000Z</time>
      </trkpt>
      <trkpt lat="48.49073" lon="-2.58702">
        <ele>122.7</ele>
        <time>2013-05-26T10:11:42.000Z</time>
      </trkpt>
      <trkpt lat="48.49075" lon="-2.58711">
        <ele>122.1</ele>
        <time>2013-05-26T10:11:43.000Z</time>
      </trkpt>
      <trkpt lat="48.49076" lon="-2.58718">
        <ele>122.3</ele>
        <time>2013-05-26T10:11:44.000Z</time>
      </trkpt>
      <trkpt lat="48.49078" lon="-2.58725">
        <ele>122.8</ele>
        <time>2013-05-26T10:11:45.000Z</time>
      </trkpt>
      <trkpt lat="48.49081" lon="-2.5873">
        <ele>123.2</ele>
        <time>2013-05-26T10:11:46.000Z</time>
      </trkpt>
      <trkpt lat="48.49084" lon="-2.58734">
        <ele>123.4</ele>
        <time>2013-05-26T10:11:47.000Z</time>
      </trkpt>
      <trkpt lat="48.49088" lon="-2.58736">
        <ele>123.6</ele>
        <time>2013-05-26T10:11:48.000Z</time>
      </trkpt>
      <trkpt lat="48.49093" lon="-2.58738">
        <ele>124.4</ele>
        <time>2013-05-26T10:11:49.000Z</time>
      </trkpt>
      <trkpt lat="48.49098" lon="-2.58739">
        <ele>125.8</ele>
        <time>2013-05-26T10:11:50.000Z</time>
      </trkpt>
      <trkpt lat="48.49104" lon="-2.58741">
        <ele>126.1</ele>
        <time>2013-05-26T10:11:51.000Z</time>
      </trkpt>
      <trkpt lat="48.49109" lon="-2.58742">
        <ele>125.9</ele>
        <time>2013-05-26T10:11:52.000Z</time>
      </trkpt>
      <trkpt lat="48.49115" lon="-2.58745">
        <ele>126</ele>
        <time>2013-05-26T10:11:53.000Z</time>
      </trkpt>
      <trkpt lat="48.49121" lon="-2.58748">
        <ele>125.8</ele>
        <time>2013-05-26T10:11:54.000Z</time>
      </trkpt>
      <trkpt lat="48.49127" lon="-2.58752">
        <ele>125.8</ele>
        <time>2013-05-26T10:11:55.000Z</time>
      </trkpt>
      <trkpt lat="48.49133" lon="-2.58755">
        <ele>125.9</ele>
        <time>2013-05-26T10:11:56.000Z</time>
      </trkpt>
      <trkpt lat="48.49139" lon="-2.58759">
        <ele>125.7</ele>
        <time>2013-05-26T10:11:57.000Z</time>
      </trkpt>
      <trkpt lat="48.49146" lon="-2.58763">
        <ele>125.5</ele>
        <time>2013-05-26T10:11:58.000Z</time>
      </trkpt>
      <trkpt lat="48.49152" lon="-2.58767">
        <ele>125.4</ele>
        <time>2013-05-26T10:11:59.000Z</time>
      </trkpt>
      <trkpt lat="48.49159" lon="-2.58771">
        <ele>125.4</ele>
        <time>2013-05-26T10:12:00.000Z</time>
      </trkpt>
      <trkpt lat="48.49165" lon="-2.58775">
        <ele>125.4</ele>
        <time>2013-05-26T10:12:01.000Z</time>
      </trkpt>
      <trkpt lat="48.49171" lon="-2.5878">
        <ele>125.8</ele>
        <time>2013-05-26T10:12:02.000Z</time>
      </trkpt>
      <trkpt lat="48.49178" lon="-2.58785">
        <ele>125.8</ele>
        <time>2013-05-26T10:12:03.000Z</time>
      </trkpt>
      <trkpt lat="48.49185" lon="-2.58789">
        <ele>125.7</ele>
        <time>2013-05-26T10:12:04.000Z</time>
      </trkpt>
      <trkpt lat="48.49191" lon="-2.58793">
        <ele>125.5</ele>
        <time>2013-05-26T10:12:05.000Z</time>
      </trkpt>
      <trkpt lat="48.49198" lon="-2.58798">
        <ele>125.4</ele>
        <time>2013-05-26T10:12:06.000Z</time>
      </trkpt>
      <trkpt lat="48.49204" lon="-2.58801">
        <ele>125</ele>
        <time>2013-05-26T10:12:07.000Z</time>
      </trkpt>
      <trkpt lat="48.49211" lon="-2.58805">
        <ele>124.6</ele>
        <time>2013-05-26T10:12:08.000Z</time>
      </trkpt>
      <trkpt lat="48.49217" lon="-2.58809">
        <ele>124.2</ele>
        <time>2013-05-26T10:12:09.000Z</time>
      </trkpt>
      <trkpt lat="48.49224" lon="-2.58813">
        <ele>124</ele>
        <time>2013-05-26T10:12:10.000Z</time>
      </trkpt>
      <trkpt lat="48.49231" lon="-2.58816">
        <ele>123.9</ele>
        <time>2013-05-26T10:12:11.000Z</time>
      </trkpt>
      <trkpt lat="48.49237" lon="-2.58818">
        <ele>123.8</ele>
        <time>2013-05-26T10:12:12.000Z</time>
      </trkpt>
      <trkpt lat="48.49244" lon="-2.58819">
        <ele>123.5</ele>
        <time>2013-05-26T10:12:13.000Z</time>
      </trkpt>
      <trkpt lat="48.49251" lon="-2.58821">
        <ele>123.3</ele>
        <time>2013-05-26T10:12:14.000Z</time>
      </trkpt>
      <trkpt lat="48.49258" lon="-2.58822">
        <ele>123.3</ele>
        <time>2013-05-26T10:12:15.000Z</time>
      </trkpt>
      <trkpt lat="48.49264" lon="-2.58823">
        <ele>123.2</ele>
        <time>2013-05-26T10:12:16.000Z</time>
      </trkpt>
      <trkpt lat="48.49271" lon="-2.58824">
        <ele>123.1</ele>
        <time>2013-05-26T10:12:17.000Z</time>
      </trkpt>
      <trkpt lat="48.49278" lon="-2.58826">
        <ele>123</ele>
        <time>2013-05-26T10:12:18.000Z</time>
      </trkpt>
      <trkpt lat="48.49285" lon="-2.58827">
        <ele>122.4</ele>
        <time>2013-05-26T10:12:19.000Z</time>
      </trkpt>
      <trkpt lat="48.49312" lon="-2.58824">
        <ele>134.2</ele>
        <time>2013-05-26T10:12:21.000Z</time>
      </trkpt>
      <trkpt lat="48.49316" lon="-2.58825">
        <ele>117.1</ele>
        <time>2013-05-26T10:12:23.000Z</time>
      </trkpt>
      <trkpt lat="48.49323" lon="-2.58827">
        <ele>116.4</ele>
        <time>2013-05-26T10:12:24.000Z</time>
      </trkpt>
      <trkpt lat="48.49331" lon="-2.58827">
        <ele>115.1</ele>
        <time>2013-05-26T10:12:25.000Z</time>
      </trkpt>
      <trkpt lat="48.49339" lon="-2.5883">
        <ele>115.2</ele>
        <time>2013-05-26T10:12:26.000Z</time>
      </trkpt>
      <trkpt lat="48.49346" lon="-2.58833">
        <ele>115</ele>
        <time>2013-05-26T10:12:27.000Z</time>
      </trkpt>
      <trkpt lat="48.49353" lon="-2.58835">
        <ele>114.3</ele>
        <time>2013-05-26T10:12:28.000Z</time>
      </trkpt>
      <trkpt lat="48.49361" lon="-2.58837">
        <ele>114.1</ele>
        <time>2013-05-26T10:12:29.000Z</time>
      </trkpt>
      <trkpt lat="48.49368" lon="-2.58839">
        <ele>113.8</ele>
        <time>2013-05-26T10:12:30.000Z</time>
      </trkpt>
      <trkpt lat="48.49375" lon="-2.5884">
        <ele>113.5</ele>
        <time>2013-05-26T10:12:31.000Z</time>
      </trkpt>
      <trkpt lat="48.49383" lon="-2.58842">
        <ele>113.2</ele>
        <time>2013-05-26T10:12:32.000Z</time>
      </trkpt>
      <trkpt lat="48.4939" lon="-2.58844">
        <ele>112.6</ele>
        <time>2013-05-26T10:12:33.000Z</time>
      </trkpt>
      <trkpt lat="48.49397" lon="-2.58846">
        <ele>112.5</ele>
        <time>2013-05-26T10:12:34.000Z</time>
      </trkpt>
      <trkpt lat="48.49404" lon="-2.58847">
        <ele>112.3</ele>
        <time>2013-05-26T10:12:35.000Z</time>
      </trkpt>
      <trkpt lat="48.49412" lon="-2.58849">
        <ele>112.1</ele>
        <time>2013-05-26T10:12:36.000Z</time>
      </trkpt>
      <trkpt lat="48.49419" lon="-2.58851">
        <ele>112.1</ele>
        <time>2013-05-26T10:12:37.000Z</time>
      </trkpt>
      <trkpt lat="48.49426" lon="-2.58853">
        <ele>111.8</ele>
        <time>2013-05-26T10:12:38.000Z</time>
      </trkpt>
      <trkpt lat="48.49433" lon="-2.58854">
        <ele>111.8</ele>
        <time>2013-05-26T10:12:39.000Z</time>
      </trkpt>
      <trkpt lat="48.4944" lon="-2.58856">
        <ele>111.8</ele>
        <time>2013-05-26T10:12:40.000Z</time>
      </trkpt>
      <trkpt lat="48.49447" lon="-2.58858">
        <ele>111.7</ele>
        <time>2013-05-26T10:12:41.000Z</time>
      </trkpt>
      <trkpt lat="48.49454" lon="-2.5886">
        <ele>111.5</ele>
        <time>2013-05-26T10:12:42.000Z</time>
      </trkpt>
      <trkpt lat="48.49461" lon="-2.58862">
        <ele>111.4</ele>
        <time>2013-05-26T10:12:43.000Z</time>
      </trkpt>
      <trkpt lat="48.49468" lon="-2.58863">
        <ele>111.3</ele>
        <time>2013-05-26T10:12:44.000Z</time>
      </trkpt>
      <trkpt lat="48.49474" lon="-2.58865">
        <ele>111.1</ele>
        <time>2013-05-26T10:12:45.000Z</time>
      </trkpt>
      <trkpt lat="48.49481" lon="-2.58867">
        <ele>110.9</ele>
        <time>2013-05-26T10:12:46.000Z</time>
      </trkpt>
      <trkpt lat="48.49487" lon="-2.58868">
        <ele>110.9</ele>
        <time>2013-05-26T10:12:47.000Z</time>
      </trkpt>
      <trkpt lat="48.49494" lon="-2.5887">
        <ele>110.7</ele>
        <time>2013-05-26T10:12:48.000Z</time>
      </trkpt>
      <trkpt lat="48.495" lon="-2.58871">
        <ele>110.5</ele>
        <time>2013-05-26T10:12:49.000Z</time>
      </trkpt>
      <trkpt lat="48.49507" lon="-2.58874">
        <ele>110.5</ele>
        <time>2013-05-26T10:12:50.000Z</time>
      </trkpt>
      <trkpt lat="48.49512" lon="-2.58876">
        <ele>110.4</ele>
        <time>2013-05-26T10:12:51.000Z</time>
      </trkpt>
      <trkpt lat="48.49517" lon="-2.5888">
        <ele>110.3</ele>
        <time>2013-05-26T10:12:52.000Z</time>
      </trkpt>
      <trkpt lat="48.4952" lon="-2.58886">
        <ele>110.1</ele>
        <time>2013-05-26T10:12:53.000Z</time>
      </trkpt>
      <trkpt lat="48.49519" lon="-2.58892">
        <ele>110</ele>
        <time>2013-05-26T10:12:54.000Z</time>
      </trkpt>
      <trkpt lat="48.49517" lon="-2.58898">
        <ele>109.9</ele>
        <time>2013-05-26T10:12:55.000Z</time>
      </trkpt>
      <trkpt lat="48.49513" lon="-2.58905">
        <ele>109.8</ele>
        <time>2013-05-26T10:12:56.000Z</time>
      </trkpt>
      <trkpt lat="48.4951" lon="-2.58912">
        <ele>109.7</ele>
        <time>2013-05-26T10:12:57.000Z</time>
      </trkpt>
      <trkpt lat="48.49507" lon="-2.58919">
        <ele>109.6</ele>
        <time>2013-05-26T10:12:58.000Z</time>
      </trkpt>
      <trkpt lat="48.49504" lon="-2.58927">
        <ele>109.6</ele>
        <time>2013-05-26T10:12:59.000Z</time>
      </trkpt>
      <trkpt lat="48.49501" lon="-2.58935">
        <ele>109.6</ele>
        <time>2013-05-26T10:13:00.000Z</time>
      </trkpt>
      <trkpt lat="48.49498" lon="-2.58943">
        <ele>109.5</ele>
        <time>2013-05-26T10:13:01.000Z</time>
      </trkpt>
      <trkpt lat="48.49496" lon="-2.58952">
        <ele>109.4</ele>
        <time>2013-05-26T10:13:02.000Z</time>
      </trkpt>
      <trkpt lat="48.49493" lon="-2.58961">
        <ele>109.3</ele>
        <time>2013-05-26T10:13:03.000Z</time>
      </trkpt>
      <trkpt lat="48.4949" lon="-2.5897">
        <ele>109.4</ele>
        <time>2013-05-26T10:13:04.000Z</time>
      </trkpt>
      <trkpt lat="48.49487" lon="-2.5898">
        <ele>109.3</ele>
        <time>2013-05-26T10:13:05.000Z</time>
      </trkpt>
      <trkpt lat="48.49485" lon="-2.5899">
        <ele>109.1</ele>
        <time>2013-05-26T10:13:06.000Z</time>
      </trkpt>
      <trkpt lat="48.49483" lon="-2.59">
        <ele>109.1</ele>
        <time>2013-05-26T10:13:07.000Z</time>
      </trkpt>
      <trkpt lat="48.49482" lon="-2.59011">
        <ele>109</ele>
        <time>2013-05-26T10:13:08.000Z</time>
      </trkpt>
      <trkpt lat="48.4948" lon="-2.59022">
        <ele>108.9</ele>
        <time>2013-05-26T10:13:09.000Z</time>
      </trkpt>
      <trkpt lat="48.49479" lon="-2.59033">
        <ele>108.8</ele>
        <time>2013-05-26T10:13:10.000Z</time>
      </trkpt>
      <trkpt lat="48.49478" lon="-2.59043">
        <ele>108.9</ele>
        <time>2013-05-26T10:13:11.000Z</time>
      </trkpt>
      <trkpt lat="48.49477" lon="-2.59054">
        <ele>108.8</ele>
        <time>2013-05-26T10:13:12.000Z</time>
      </trkpt>
      <trkpt lat="48.49476" lon="-2.59065">
        <ele>108.7</ele>
        <time>2013-05-26T10:13:13.000Z</time>
      </trkpt>
      <trkpt lat="48.49475" lon="-2.59075">
        <ele>108.8</ele>
        <time>2013-05-26T10:13:14.000Z</time>
      </trkpt>
      <trkpt lat="48.49473" lon="-2.59084">
        <ele>108.6</ele>
        <time>2013-05-26T10:13:15.000Z</time>
      </trkpt>
      <trkpt lat="48.49472" lon="-2.59094">
        <ele>108.6</ele>
        <time>2013-05-26T10:13:16.000Z</time>
      </trkpt>
      <trkpt lat="48.4947" lon="-2.59105">
        <ele>108.6</ele>
        <time>2013-05-26T10:13:17.000Z</time>
      </trkpt>
      <trkpt lat="48.49469" lon="-2.59115">
        <ele>108.8</ele>
        <time>2013-05-26T10:13:18.000Z</time>
      </trkpt>
      <trkpt lat="48.49467" lon="-2.59124">
        <ele>108.9</ele>
        <time>2013-05-26T10:13:19.000Z</time>
      </trkpt>
      <trkpt lat="48.49457" lon="-2.59167">
        <ele>111.9</ele>
        <time>2013-05-26T10:13:23.000Z</time>
      </trkpt>
      <trkpt lat="48.49452" lon="-2.59169">
        <ele>108.2</ele>
        <time>2013-05-26T10:13:24.000Z</time>
      </trkpt>
      <trkpt lat="48.49446" lon="-2.59175">
        <ele>103.2</ele>
        <time>2013-05-26T10:13:25.000Z</time>
      </trkpt>
      <trkpt lat="48.49442" lon="-2.5918">
        <ele>102.4</ele>
        <time>2013-05-26T10:13:26.000Z</time>
      </trkpt>
      <trkpt lat="48.49438" lon="-2.59188">
        <ele>98.5</ele>
        <time>2013-05-26T10:13:27.000Z</time>
      </trkpt>
      <trkpt lat="48.49434" lon="-2.59196">
        <ele>98.1</ele>
        <time>2013-05-26T10:13:28.000Z</time>
      </trkpt>
      <trkpt lat="48.49431" lon="-2.59204">
        <ele>100.2</ele>
        <time>2013-05-26T10:13:29.000Z</time>
      </trkpt>
      <trkpt lat="48.49428" lon="-2.59212">
        <ele>100.1</ele>
        <time>2013-05-26T10:13:30.000Z</time>
      </trkpt>
      <trkpt lat="48.49425" lon="-2.5922">
        <ele>100.3</ele>
        <time>2013-05-26T10:13:31.000Z</time>
      </trkpt>
      <trkpt lat="48.49422" lon="-2.59229">
        <ele>100.9</ele>
        <time>2013-05-26T10:13:32.000Z</time>
      </trkpt>
      <trkpt lat="48.49418" lon="-2.59237">
        <ele>101.1</ele>
        <time>2013-05-26T10:13:33.000Z</time>
      </trkpt>
      <trkpt lat="48.49415" lon="-2.59244">
        <ele>101.3</ele>
        <time>2013-05-26T10:13:34.000Z</time>
      </trkpt>
      <trkpt lat="48.49412" lon="-2.59252">
        <ele>101.9</ele>
        <time>2013-05-26T10:13:35.000Z</time>
      </trkpt>
      <trkpt lat="48.49409" lon="-2.5926">
        <ele>101.6</ele>
        <time>2013-05-26T10:13:36.000Z</time>
      </trkpt>
      <trkpt lat="48.49406" lon="-2.59268">
        <ele>101.6</ele>
        <time>2013-05-26T10:13:37.000Z</time>
      </trkpt>
      <trkpt lat="48.49403" lon="-2.59276">
        <ele>101.9</ele>
        <time>2013-05-26T10:13:38.000Z</time>
      </trkpt>
      <trkpt lat="48.494" lon="-2.59285">
        <ele>102.1</ele>
        <time>2013-05-26T10:13:39.000Z</time>
      </trkpt>
      <trkpt lat="48.49397" lon="-2.59293">
        <ele>102.2</ele>
        <time>2013-05-26T10:13:40.000Z</time>
      </trkpt>
      <trkpt lat="48.49393" lon="-2.593">
        <ele>102.2</ele>
        <time>2013-05-26T10:13:41.000Z</time>
      </trkpt>
      <trkpt lat="48.4939" lon="-2.59308">
        <ele>102.6</ele>
        <time>2013-05-26T10:13:42.000Z</time>
      </trkpt>
      <trkpt lat="48.49387" lon="-2.59316">
        <ele>102.9</ele>
        <time>2013-05-26T10:13:43.000Z</time>
      </trkpt>
      <trkpt lat="48.49384" lon="-2.59324">
        <ele>103.2</ele>
        <time>2013-05-26T10:13:44.000Z</time>
      </trkpt>
      <trkpt lat="48.4938" lon="-2.59331">
        <ele>103.4</ele>
        <time>2013-05-26T10:13:45.000Z</time>
      </trkpt>
      <trkpt lat="48.49377" lon="-2.59337">
        <ele>103.6</ele>
        <time>2013-05-26T10:13:46.000Z</time>
      </trkpt>
      <trkpt lat="48.49373" lon="-2.59344">
        <ele>103.9</ele>
        <time>2013-05-26T10:13:47.000Z</time>
      </trkpt>
      <trkpt lat="48.49369" lon="-2.5935">
        <ele>104.1</ele>
        <time>2013-05-26T10:13:48.000Z</time>
      </trkpt>
      <trkpt lat="48.49366" lon="-2.59357">
        <ele>104.3</ele>
        <time>2013-05-26T10:13:49.000Z</time>
      </trkpt>
      <trkpt lat="48.49363" lon="-2.59364">
        <ele>104.2</ele>
        <time>2013-05-26T10:13:50.000Z</time>
      </trkpt>
      <trkpt lat="48.49359" lon="-2.5937">
        <ele>104.5</ele>
        <time>2013-05-26T10:13:51.000Z</time>
      </trkpt>
      <trkpt lat="48.49355" lon="-2.59377">
        <ele>104.4</ele>
        <time>2013-05-26T10:13:52.000Z</time>
      </trkpt>
      <trkpt lat="48.49352" lon="-2.59384">
        <ele>104.3</ele>
        <time>2013-05-26T10:13:53.000Z</time>
      </trkpt>
      <trkpt lat="48.49348" lon="-2.59391">
        <ele>104.2</ele>
        <time>2013-05-26T10:13:54.000Z</time>
      </trkpt>
      <trkpt lat="48.49345" lon="-2.59398">
        <ele>104.2</ele>
        <time>2013-05-26T10:13:55.000Z</time>
      </trkpt>
      <trkpt lat="48.49342" lon="-2.59406">
        <ele>104.3</ele>
        <time>2013-05-26T10:13:56.000Z</time>
      </trkpt>
      <trkpt lat="48.49339" lon="-2.59413">
        <ele>104.3</ele>
        <time>2013-05-26T10:13:57.000Z</time>
      </trkpt>
      <trkpt lat="48.49336" lon="-2.5942">
        <ele>104.3</ele>
        <time>2013-05-26T10:13:58.000Z</time>
      </trkpt>
      <trkpt lat="48.49332" lon="-2.59428">
        <ele>104.3</ele>
        <time>2013-05-26T10:13:59.000Z</time>
      </trkpt>
      <trkpt lat="48.49329" lon="-2.59435">
        <ele>104.4</ele>
        <time>2013-05-26T10:14:00.000Z</time>
      </trkpt>
      <trkpt lat="48.49326" lon="-2.59442">
        <ele>104.4</ele>
        <time>2013-05-26T10:14:01.000Z</time>
      </trkpt>
      <trkpt lat="48.49323" lon="-2.59449">
        <ele>104.2</ele>
        <time>2013-05-26T10:14:02.000Z</time>
      </trkpt>
      <trkpt lat="48.4932" lon="-2.59457">
        <ele>104.3</ele>
        <time>2013-05-26T10:14:03.000Z</time>
      </trkpt>
      <trkpt lat="48.49316" lon="-2.59464">
        <ele>104.3</ele>
        <time>2013-05-26T10:14:04.000Z</time>
      </trkpt>
      <trkpt lat="48.49313" lon="-2.59471">
        <ele>104.4</ele>
        <time>2013-05-26T10:14:05.000Z</time>
      </trkpt>
      <trkpt lat="48.49309" lon="-2.59477">
        <ele>104.5</ele>
        <time>2013-05-26T10:14:06.000Z</time>
      </trkpt>
      <trkpt lat="48.49306" lon="-2.59483">
        <ele>104.6</ele>
        <time>2013-05-26T10:14:07.000Z</time>
      </trkpt>
      <trkpt lat="48.49301" lon="-2.59488">
        <ele>104.7</ele>
        <time>2013-05-26T10:14:08.000Z</time>
      </trkpt>
      <trkpt lat="48.49297" lon="-2.59494">
        <ele>105</ele>
        <time>2013-05-26T10:14:09.000Z</time>
      </trkpt>
      <trkpt lat="48.49293" lon="-2.595">
        <ele>104.9</ele>
        <time>2013-05-26T10:14:10.000Z</time>
      </trkpt>
      <trkpt lat="48.4929" lon="-2.59507">
        <ele>104.7</ele>
        <time>2013-05-26T10:14:11.000Z</time>
      </trkpt>
      <trkpt lat="48.49285" lon="-2.59514">
        <ele>104.8</ele>
        <time>2013-05-26T10:14:12.000Z</time>
      </trkpt>
      <trkpt lat="48.49281" lon="-2.5952">
        <ele>104.6</ele>
        <time>2013-05-26T10:14:13.000Z</time>
      </trkpt>
      <trkpt lat="48.49278" lon="-2.59527">
        <ele>104.8</ele>
        <time>2013-05-26T10:14:14.000Z</time>
      </trkpt>
      <trkpt lat="48.49274" lon="-2.59534">
        <ele>104.8</ele>
        <time>2013-05-26T10:14:15.000Z</time>
      </trkpt>
      <trkpt lat="48.4927" lon="-2.59541">
        <ele>104.7</ele>
        <time>2013-05-26T10:14:16.000Z</time>
      </trkpt>
      <trkpt lat="48.49266" lon="-2.59548">
        <ele>104.8</ele>
        <time>2013-05-26T10:14:17.000Z</time>
      </trkpt>
      <trkpt lat="48.49263" lon="-2.59555">
        <ele>104.9</ele>
        <time>2013-05-26T10:14:18.000Z</time>
      </trkpt>
      <trkpt lat="48.4926" lon="-2.59561">
        <ele>105.1</ele>
        <time>2013-05-26T10:14:19.000Z</time>
      </trkpt>
      <trkpt lat="48.49246" lon="-2.59598">
        <ele>93.8</ele>
        <time>2013-05-26T10:14:23.000Z</time>
      </trkpt>
      <trkpt lat="48.49246" lon="-2.59608">
        <ele>102.9</ele>
        <time>2013-05-26T10:14:24.000Z</time>
      </trkpt>
      <trkpt lat="48.49242" lon="-2.5962">
        <ele>103.9</ele>
        <time>2013-05-26T10:14:26.000Z</time>
      </trkpt>
      <trkpt lat="48.49239" lon="-2.59627">
        <ele>104.6</ele>
        <time>2013-05-26T10:14:27.000Z</time>
      </trkpt>
      <trkpt lat="48.49235" lon="-2.59632">
        <ele>103.8</ele>
        <time>2013-05-26T10:14:28.000Z</time>
      </trkpt>
      <trkpt lat="48.49232" lon="-2.59638">
        <ele>103.1</ele>
        <time>2013-05-26T10:14:29.000Z</time>
      </trkpt>
      <trkpt lat="48.49229" lon="-2.59643">
        <ele>103.8</ele>
        <time>2013-05-26T10:14:30.000Z</time>
      </trkpt>
      <trkpt lat="48.49226" lon="-2.59647">
        <ele>104.2</ele>
        <time>2013-05-26T10:14:31.000Z</time>
      </trkpt>
      <trkpt lat="48.49223" lon="-2.59652">
        <ele>104.1</ele>
        <time>2013-05-26T10:14:32.000Z</time>
      </trkpt>
      <trkpt lat="48.49221" lon="-2.59659">
        <ele>104.9</ele>
        <time>2013-05-26T10:14:33.000Z</time>
      </trkpt>
      <trkpt lat="48.4922" lon="-2.59666">
        <ele>104.6</ele>
        <time>2013-05-26T10:14:34.000Z</time>
      </trkpt>
      <trkpt lat="48.49219" lon="-2.59675">
        <ele>105</ele>
        <time>2013-05-26T10:14:35.000Z</time>
      </trkpt>
      <trkpt lat="48.49219" lon="-2.59684">
        <ele>105.4</ele>
        <time>2013-05-26T10:14:36.000Z</time>
      </trkpt>
      <trkpt lat="48.49218" lon="-2.59693">
        <ele>105.7</ele>
        <time>2013-05-26T10:14:37.000Z</time>
      </trkpt>
      <trkpt lat="48.49218" lon="-2.59702">
        <ele>107</ele>
        <time>2013-05-26T10:14:38.000Z</time>
      </trkpt>
      <trkpt lat="48.49217" lon="-2.59712">
        <ele>107.2</ele>
        <time>2013-05-26T10:14:39.000Z</time>
      </trkpt>
      <trkpt lat="48.49217" lon="-2.59723">
        <ele>107.9</ele>
        <time>2013-05-26T10:14:40.000Z</time>
      </trkpt>
      <trkpt lat="48.49216" lon="-2.59732">
        <ele>108.2</ele>
        <time>2013-05-26T10:14:41.000Z</time>
      </trkpt>
      <trkpt lat="48.49216" lon="-2.59742">
        <ele>108.6</ele>
        <time>2013-05-26T10:14:42.000Z</time>
      </trkpt>
      <trkpt lat="48.49216" lon="-2.59752">
        <ele>108.7</ele>
        <time>2013-05-26T10:14:43.000Z</time>
      </trkpt>
      <trkpt lat="48.49215" lon="-2.59761">
        <ele>108.7</ele>
        <time>2013-05-26T10:14:44.000Z</time>
      </trkpt>
      <trkpt lat="48.49215" lon="-2.59771">
        <ele>109.2</ele>
        <time>2013-05-26T10:14:45.000Z</time>
      </trkpt>
      <trkpt lat="48.49215" lon="-2.59781">
        <ele>109.1</ele>
        <time>2013-05-26T10:14:46.000Z</time>
      </trkpt>
      <trkpt lat="48.49214" lon="-2.59791">
        <ele>108.3</ele>
        <time>2013-05-26T10:14:47.000Z</time>
      </trkpt>
      <trkpt lat="48.49214" lon="-2.59801">
        <ele>108.8</ele>
        <time>2013-05-26T10:14:48.000Z</time>
      </trkpt>
      <trkpt lat="48.49213" lon="-2.5981">
        <ele>108.6</ele>
        <time>2013-05-26T10:14:49.000Z</time>
      </trkpt>
      <trkpt lat="48.49213" lon="-2.5982">
        <ele>108</ele>
        <time>2013-05-26T10:14:50.000Z</time>
      </trkpt>
      <trkpt lat="48.49212" lon="-2.5983">
        <ele>108</ele>
        <time>2013-05-26T10:14:51.000Z</time>
      </trkpt>
      <trkpt lat="48.49212" lon="-2.59839">
        <ele>108.1</ele>
        <time>2013-05-26T10:14:52.000Z</time>
      </trkpt>
      <trkpt lat="48.49211" lon="-2.59848">
        <ele>108.4</ele>
        <time>2013-05-26T10:14:53.000Z</time>
      </trkpt>
      <trkpt lat="48.4921" lon="-2.59856">
        <ele>108.7</ele>
        <time>2013-05-26T10:14:54.000Z</time>
      </trkpt>
      <trkpt lat="48.4921" lon="-2.59864">
        <ele>109</ele>
        <time>2013-05-26T10:14:55.000Z</time>
      </trkpt>
      <trkpt lat="48.49209" lon="-2.59873">
        <ele>109.2</ele>
        <time>2013-05-26T10:14:56.000Z</time>
      </trkpt>
      <trkpt lat="48.49209" lon="-2.59881">
        <ele>109</ele>
        <time>2013-05-26T10:14:57.000Z</time>
      </trkpt>
      <trkpt lat="48.49208" lon="-2.5989">
        <ele>109.1</ele>
        <time>2013-05-26T10:14:58.000Z</time>
      </trkpt>
      <trkpt lat="48.49208" lon="-2.59899">
        <ele>109.2</ele>
        <time>2013-05-26T10:14:59.000Z</time>
      </trkpt>
      <trkpt lat="48.49207" lon="-2.59909">
        <ele>109.1</ele>
        <time>2013-05-26T10:15:00.000Z</time>
      </trkpt>
      <trkpt lat="48.49205" lon="-2.59918">
        <ele>108.9</ele>
        <time>2013-05-26T10:15:01.000Z</time>
      </trkpt>
      <trkpt lat="48.49201" lon="-2.59926">
        <ele>109</ele>
        <time>2013-05-26T10:15:02.000Z</time>
      </trkpt>
      <trkpt lat="48.49197" lon="-2.59933">
        <ele>108.7</ele>
        <time>2013-05-26T10:15:03.000Z</time>
      </trkpt>
      <trkpt lat="48.49192" lon="-2.59939">
        <ele>108.3</ele>
        <time>2013-05-26T10:15:04.000Z</time>
      </trkpt>
      <trkpt lat="48.49187" lon="-2.59946">
        <ele>108.1</ele>
        <time>2013-05-26T10:15:05.000Z</time>
      </trkpt>
      <trkpt lat="48.49182" lon="-2.59951">
        <ele>108.1</ele>
        <time>2013-05-26T10:15:06.000Z</time>
      </trkpt>
      <trkpt lat="48.49177" lon="-2.59956">
        <ele>108.1</ele>
        <time>2013-05-26T10:15:07.000Z</time>
      </trkpt>
      <trkpt lat="48.49172" lon="-2.59961">
        <ele>108.1</ele>
        <time>2013-05-26T10:15:08.000Z</time>
      </trkpt>
      <trkpt lat="48.49167" lon="-2.59966">
        <ele>107.9</ele>
        <time>2013-05-26T10:15:09.000Z</time>
      </trkpt>
      <trkpt lat="48.49162" lon="-2.59971">
        <ele>107.9</ele>
        <time>2013-05-26T10:15:10.000Z</time>
      </trkpt>
      <trkpt lat="48.49157" lon="-2.59974">
        <ele>108</ele>
        <time>2013-05-26T10:15:11.000Z</time>
      </trkpt>
      <trkpt lat="48.49152" lon="-2.59978">
        <ele>108.2</ele>
        <time>2013-05-26T10:15:12.000Z</time>
      </trkpt>
      <trkpt lat="48.49148" lon="-2.59983">
        <ele>108.5</ele>
        <time>2013-05-26T10:15:13.000Z</time>
      </trkpt>
      <trkpt lat="48.49147" lon="-2.5999">
        <ele>109</ele>
        <time>2013-05-26T10:15:14.000Z</time>
      </trkpt>
      <trkpt lat="48.49147" lon="-2.59997">
        <ele>109.2</ele>
        <time>2013-05-26T10:15:15.000Z</time>
      </trkpt>
      <trkpt lat="48.49149" lon="-2.60003">
        <ele>108.1</ele>
        <time>2013-05-26T10:15:16.000Z</time>
      </trkpt>
      <trkpt lat="48.49153" lon="-2.6001">
        <ele>108.4</ele>
        <time>2013-05-26T10:15:17.000Z</time>
      </trkpt>
      <trkpt lat="48.49156" lon="-2.60018">
        <ele>108.4</ele>
        <time>2013-05-26T10:15:18.000Z</time>
      </trkpt>
      <trkpt lat="48.4916" lon="-2.60025">
        <ele>108.5</ele>
        <time>2013-05-26T10:15:19.000Z</time>
      </trkpt>
      <trkpt lat="48.4911" lon="-2.60086">
        <ele>78.1</ele>
        <time>2013-05-26T10:15:39.000Z</time>
      </trkpt>
      <trkpt lat="48.49115" lon="-2.6009">
        <ele>88.8</ele>
        <time>2013-05-26T10:15:40.000Z</time>
      </trkpt>
      <trkpt lat="48.4911" lon="-2.6009">
        <ele>88.9</ele>
        <time>2013-05-26T10:15:41.000Z</time>
      </trkpt>
      <trkpt lat="48.49106" lon="-2.6009">
        <ele>91.8</ele>
        <time>2013-05-26T10:15:42.000Z</time>
      </trkpt>
      <trkpt lat="48.49101" lon="-2.6009">
        <ele>93.4</ele>
        <time>2013-05-26T10:15:43.000Z</time>
      </trkpt>
      <trkpt lat="48.49097" lon="-2.6009">
        <ele>95.6</ele>
        <time>2013-05-26T10:15:44.000Z</time>
      </trkpt>
      <trkpt lat="48.49093" lon="-2.60089">
        <ele>95.9</ele>
        <time>2013-05-26T10:15:45.000Z</time>
      </trkpt>
      <trkpt lat="48.49087" lon="-2.60087">
        <ele>97.2</ele>
        <time>2013-05-26T10:15:46.000Z</time>
      </trkpt>
      <trkpt lat="48.49083" lon="-2.60086">
        <ele>98.8</ele>
        <time>2013-05-26T10:15:47.000Z</time>
      </trkpt>
      <trkpt lat="48.49077" lon="-2.60085">
        <ele>100</ele>
        <time>2013-05-26T10:15:48.000Z</time>
      </trkpt>
      <trkpt lat="48.49072" lon="-2.60084">
        <ele>100.8</ele>
        <time>2013-05-26T10:15:49.000Z</time>
      </trkpt>
      <trkpt lat="48.49067" lon="-2.60083">
        <ele>102</ele>
        <time>2013-05-26T10:15:50.000Z</time>
      </trkpt>
      <trkpt lat="48.49063" lon="-2.60084">
        <ele>102.3</ele>
        <time>2013-05-26T10:15:51.000Z</time>
      </trkpt>
      <trkpt lat="48.49059" lon="-2.60087">
        <ele>101.6</ele>
        <time>2013-05-26T10:15:52.000Z</time>
      </trkpt>
      <trkpt lat="48.49054" lon="-2.60089">
        <ele>101.5</ele>
        <time>2013-05-26T10:15:53.000Z</time>
      </trkpt>
      <trkpt lat="48.4905" lon="-2.60091">
        <ele>101.5</ele>
        <time>2013-05-26T10:15:54.000Z</time>
      </trkpt>
      <trkpt lat="48.49045" lon="-2.60092">
        <ele>101.2</ele>
        <time>2013-05-26T10:15:55.000Z</time>
      </trkpt>
      <trkpt lat="48.49041" lon="-2.60093">
        <ele>101.8</ele>
        <time>2013-05-26T10:15:56.000Z</time>
      </trkpt>
      <trkpt lat="48.49036" lon="-2.60095">
        <ele>102.6</ele>
        <time>2013-05-26T10:15:57.000Z</time>
      </trkpt>
      <trkpt lat="48.49031" lon="-2.60096">
        <ele>103.8</ele>
        <time>2013-05-26T10:15:58.000Z</time>
      </trkpt>
      <trkpt lat="48.49027" lon="-2.60099">
        <ele>105</ele>
        <time>2013-05-26T10:15:59.000Z</time>
      </trkpt>
      <trkpt lat="48.49022" lon="-2.60102">
        <ele>105.7</ele>
        <time>2013-05-26T10:16:00.000Z</time>
      </trkpt>
      <trkpt lat="48.49017" lon="-2.60104">
        <ele>106.4</ele>
        <time>2013-05-26T10:16:01.000Z</time>
      </trkpt>
      <trkpt lat="48.49013" lon="-2.60107">
        <ele>107.1</ele>
        <time>2013-05-26T10:16:02.000Z</time>
      </trkpt>
      <trkpt lat="48.49008" lon="-2.60109">
        <ele>107</ele>
        <time>2013-05-26T10:16:03.000Z</time>
      </trkpt>
      <trkpt lat="48.49004" lon="-2.60112">
        <ele>106.9</ele>
        <time>2013-05-26T10:16:04.000Z</time>
      </trkpt>
      <trkpt lat="48.49" lon="-2.60114">
        <ele>106.9</ele>
        <time>2013-05-26T10:16:05.000Z</time>
      </trkpt>
      <trkpt lat="48.48995" lon="-2.60116">
        <ele>106.7</ele>
        <time>2013-05-26T10:16:06.000Z</time>
      </trkpt>
      <trkpt lat="48.48991" lon="-2.60117">
        <ele>106.7</ele>
        <time>2013-05-26T10:16:07.000Z</time>
      </trkpt>
      <trkpt lat="48.48987" lon="-2.60119">
        <ele>106.4</ele>
        <time>2013-05-26T10:16:08.000Z</time>
      </trkpt>
      <trkpt lat="48.48983" lon="-2.60121">
        <ele>105.8</ele>
        <time>2013-05-26T10:16:09.000Z</time>
      </trkpt>
      <trkpt lat="48.48979" lon="-2.60122">
        <ele>105.7</ele>
        <time>2013-05-26T10:16:10.000Z</time>
      </trkpt>
      <trkpt lat="48.48975" lon="-2.60122">
        <ele>105.9</ele>
        <time>2013-05-26T10:16:11.000Z</time>
      </trkpt>
      <trkpt lat="48.48971" lon="-2.60123">
        <ele>106.5</ele>
        <time>2013-05-26T10:16:12.000Z</time>
      </trkpt>
      <trkpt lat="48.48968" lon="-2.60123">
        <ele>107</ele>
        <time>2013-05-26T10:16:13.000Z</time>
      </trkpt>
      <trkpt lat="48.48964" lon="-2.60125">
        <ele>107.9</ele>
        <time>2013-05-26T10:16:14.000Z</time>
      </trkpt>
      <trkpt lat="48.48962" lon="-2.60127">
        <ele>108.1</ele>
        <time>2013-05-26T10:16:15.000Z</time>
      </trkpt>
      <trkpt lat="48.48961" lon="-2.60132">
        <ele>108.3</ele>
        <time>2013-05-26T10:16:16.000Z</time>
      </trkpt>
      <trkpt lat="48.48961" lon="-2.60138">
        <ele>108.3</ele>
        <time>2013-05-26T10:16:17.000Z</time>
      </trkpt>
      <trkpt lat="48.48963" lon="-2.60146">
        <ele>108.5</ele>
        <time>2013-05-26T10:16:18.000Z</time>
      </trkpt>
      <trkpt lat="48.48965" lon="-2.60154">
        <ele>108.4</ele>
        <time>2013-05-26T10:16:19.000Z</time>
      </trkpt>
      <trkpt lat="48.48975" lon="-2.60202">
        <ele>108.5</ele>
        <time>2013-05-26T10:16:22.000Z</time>
      </trkpt>
      <trkpt lat="48.48979" lon="-2.6021">
        <ele>92</ele>
        <time>2013-05-26T10:16:25.000Z</time>
      </trkpt>
      <trkpt lat="48.48982" lon="-2.60215">
        <ele>106</ele>
        <time>2013-05-26T10:16:46.000Z</time>
      </trkpt>
      <trkpt lat="48.48983" lon="-2.60215">
        <ele>106</ele>
        <time>2013-05-26T10:16:47.000Z</time>
      </trkpt>
      <trkpt lat="48.48986" lon="-2.60212">
        <ele>104.2</ele>
        <time>2013-05-26T10:16:59.000Z</time>
      </trkpt>
      <trkpt lat="48.48987" lon="-2.60212">
        <ele>104.2</ele>
        <time>2013-05-26T10:17:00.000Z</time>
      </trkpt>
    </trkseg>
  </trk>
</gpx>